<?xml version="1.0" encoding="UTF-8" standalone="no" ?>
<gpx xmlns="http://www.topografix.com/GPX/1/1" xmlns:xsi="http://www.w3.org/2001/XMLSchema-instance" xsi:schemaLocation="http://www.topografix.com/GPX/1/1 http://www.topografix.com/GPX/1/1/gpx.xsd" version="1.1" creator="VisuGPX - https://www.visugpx.com">
  <metadata>
    <name>VTT Anjou - Chavagnes - Notre dame d'Allençon</name>
    <desc><![CDATA[Balade en Anjou autour de Chavagnes et Notre Dame d?Alençon. Facile, peu de dénivelé.]]></desc>
  </metadata>
  <trk>
    <name><![CDATA[VTT Anjou - Chavagnes - Notre dame d'Allençon_1]]></name>
    <trkseg>
      <trkpt lat="47.27765" lon="-0.4834">
        <ele>86.8</ele>
        <time>2020-08-02T07:06:26Z</time>
      </trkpt>
      <trkpt lat="47.27765" lon="-0.4834">
        <ele>86.8</ele>
        <time>2020-08-02T07:06:26Z</time>
      </trkpt>
      <trkpt lat="47.27765" lon="-0.4834">
        <ele>86.6</ele>
        <time>2020-08-02T07:06:35Z</time>
      </trkpt>
      <trkpt lat="47.27767" lon="-0.48339">
        <ele>86.4</ele>
        <time>2020-08-02T07:06:45Z</time>
      </trkpt>
      <trkpt lat="47.27769" lon="-0.48339">
        <ele>86.4</ele>
        <time>2020-08-02T07:06:46Z</time>
      </trkpt>
      <trkpt lat="47.2777" lon="-0.4834">
        <ele>86.4</ele>
        <time>2020-08-02T07:06:47Z</time>
      </trkpt>
      <trkpt lat="47.27772" lon="-0.4834">
        <ele>86.4</ele>
        <time>2020-08-02T07:06:48Z</time>
      </trkpt>
      <trkpt lat="47.27778" lon="-0.48344">
        <ele>86.2</ele>
        <time>2020-08-02T07:06:51Z</time>
      </trkpt>
      <trkpt lat="47.27778" lon="-0.48346">
        <ele>86.2</ele>
        <time>2020-08-02T07:06:52Z</time>
      </trkpt>
      <trkpt lat="47.27778" lon="-0.48347">
        <ele>86</ele>
        <time>2020-08-02T07:06:53Z</time>
      </trkpt>
      <trkpt lat="47.27776" lon="-0.48348">
        <ele>86</ele>
        <time>2020-08-02T07:06:54Z</time>
      </trkpt>
      <trkpt lat="47.27774" lon="-0.48349">
        <ele>85.8</ele>
        <time>2020-08-02T07:06:55Z</time>
      </trkpt>
      <trkpt lat="47.2777" lon="-0.48352">
        <ele>85.6</ele>
        <time>2020-08-02T07:06:57Z</time>
      </trkpt>
      <trkpt lat="47.27768" lon="-0.48354">
        <ele>85</ele>
        <time>2020-08-02T07:06:58Z</time>
      </trkpt>
      <trkpt lat="47.27765" lon="-0.48357">
        <ele>85</ele>
        <time>2020-08-02T07:06:59Z</time>
      </trkpt>
      <trkpt lat="47.27762" lon="-0.48359">
        <ele>84.8</ele>
        <time>2020-08-02T07:07:00Z</time>
      </trkpt>
      <trkpt lat="47.27759" lon="-0.48362">
        <ele>84.8</ele>
        <time>2020-08-02T07:07:01Z</time>
      </trkpt>
      <trkpt lat="47.27756" lon="-0.48365">
        <ele>84.6</ele>
        <time>2020-08-02T07:07:02Z</time>
      </trkpt>
      <trkpt lat="47.27747" lon="-0.48372">
        <ele>84.6</ele>
        <time>2020-08-02T07:07:05Z</time>
      </trkpt>
      <trkpt lat="47.27741" lon="-0.48378">
        <ele>84.4</ele>
        <time>2020-08-02T07:07:07Z</time>
      </trkpt>
      <trkpt lat="47.27737" lon="-0.48382">
        <ele>84.4</ele>
        <time>2020-08-02T07:07:08Z</time>
      </trkpt>
      <trkpt lat="47.27717" lon="-0.48407">
        <ele>83.8</ele>
        <time>2020-08-02T07:07:14Z</time>
      </trkpt>
      <trkpt lat="47.2771" lon="-0.48416">
        <ele>83.6</ele>
        <time>2020-08-02T07:07:16Z</time>
      </trkpt>
      <trkpt lat="47.27707" lon="-0.48421">
        <ele>83.6</ele>
        <time>2020-08-02T07:07:17Z</time>
      </trkpt>
      <trkpt lat="47.27698" lon="-0.48436">
        <ele>83.4</ele>
        <time>2020-08-02T07:07:20Z</time>
      </trkpt>
      <trkpt lat="47.27691" lon="-0.48447">
        <ele>83.2</ele>
        <time>2020-08-02T07:07:22Z</time>
      </trkpt>
      <trkpt lat="47.27689" lon="-0.48453">
        <ele>83.2</ele>
        <time>2020-08-02T07:07:23Z</time>
      </trkpt>
      <trkpt lat="47.27686" lon="-0.48459">
        <ele>83</ele>
        <time>2020-08-02T07:07:24Z</time>
      </trkpt>
      <trkpt lat="47.27682" lon="-0.48468">
        <ele>82.8</ele>
        <time>2020-08-02T07:07:26Z</time>
      </trkpt>
      <trkpt lat="47.2768" lon="-0.48471">
        <ele>82.4</ele>
        <time>2020-08-02T07:07:27Z</time>
      </trkpt>
      <trkpt lat="47.27679" lon="-0.48474">
        <ele>82.2</ele>
        <time>2020-08-02T07:07:28Z</time>
      </trkpt>
      <trkpt lat="47.27679" lon="-0.48475">
        <ele>82.2</ele>
        <time>2020-08-02T07:07:29Z</time>
      </trkpt>
      <trkpt lat="47.27679" lon="-0.48477">
        <ele>82</ele>
        <time>2020-08-02T07:07:30Z</time>
      </trkpt>
      <trkpt lat="47.27678" lon="-0.48478">
        <ele>81.8</ele>
        <time>2020-08-02T07:07:31Z</time>
      </trkpt>
      <trkpt lat="47.27677" lon="-0.48479">
        <ele>81.8</ele>
        <time>2020-08-02T07:07:32Z</time>
      </trkpt>
      <trkpt lat="47.27675" lon="-0.4848">
        <ele>81.6</ele>
        <time>2020-08-02T07:07:33Z</time>
      </trkpt>
      <trkpt lat="47.27673" lon="-0.4848">
        <ele>81.4</ele>
        <time>2020-08-02T07:07:34Z</time>
      </trkpt>
      <trkpt lat="47.2767" lon="-0.48479">
        <ele>81.4</ele>
        <time>2020-08-02T07:07:35Z</time>
      </trkpt>
      <trkpt lat="47.27667" lon="-0.48476">
        <ele>81.4</ele>
        <time>2020-08-02T07:07:36Z</time>
      </trkpt>
      <trkpt lat="47.27664" lon="-0.48474">
        <ele>81.4</ele>
        <time>2020-08-02T07:07:37Z</time>
      </trkpt>
      <trkpt lat="47.27661" lon="-0.48473">
        <ele>81.2</ele>
        <time>2020-08-02T07:07:38Z</time>
      </trkpt>
      <trkpt lat="47.27657" lon="-0.48474">
        <ele>81.2</ele>
        <time>2020-08-02T07:07:39Z</time>
      </trkpt>
      <trkpt lat="47.27653" lon="-0.48475">
        <ele>81</ele>
        <time>2020-08-02T07:07:40Z</time>
      </trkpt>
      <trkpt lat="47.27649" lon="-0.48477">
        <ele>81</ele>
        <time>2020-08-02T07:07:41Z</time>
      </trkpt>
      <trkpt lat="47.27646" lon="-0.4848">
        <ele>81</ele>
        <time>2020-08-02T07:07:42Z</time>
      </trkpt>
      <trkpt lat="47.27643" lon="-0.48483">
        <ele>81</ele>
        <time>2020-08-02T07:07:43Z</time>
      </trkpt>
      <trkpt lat="47.2764" lon="-0.48487">
        <ele>80.8</ele>
        <time>2020-08-02T07:07:44Z</time>
      </trkpt>
      <trkpt lat="47.27637" lon="-0.48492">
        <ele>80.6</ele>
        <time>2020-08-02T07:07:45Z</time>
      </trkpt>
      <trkpt lat="47.27614" lon="-0.48521">
        <ele>80.6</ele>
        <time>2020-08-02T07:07:52Z</time>
      </trkpt>
      <trkpt lat="47.2761" lon="-0.48525">
        <ele>80.6</ele>
        <time>2020-08-02T07:07:53Z</time>
      </trkpt>
      <trkpt lat="47.27589" lon="-0.48549">
        <ele>81.2</ele>
        <time>2020-08-02T07:07:59Z</time>
      </trkpt>
      <trkpt lat="47.27586" lon="-0.48553">
        <ele>81.4</ele>
        <time>2020-08-02T07:08:00Z</time>
      </trkpt>
      <trkpt lat="47.27583" lon="-0.48556">
        <ele>81.6</ele>
        <time>2020-08-02T07:08:01Z</time>
      </trkpt>
      <trkpt lat="47.2758" lon="-0.48559">
        <ele>81.8</ele>
        <time>2020-08-02T07:08:02Z</time>
      </trkpt>
      <trkpt lat="47.27577" lon="-0.48563">
        <ele>82</ele>
        <time>2020-08-02T07:08:03Z</time>
      </trkpt>
      <trkpt lat="47.27573" lon="-0.48566">
        <ele>82.2</ele>
        <time>2020-08-02T07:08:04Z</time>
      </trkpt>
      <trkpt lat="47.2757" lon="-0.4857">
        <ele>82.4</ele>
        <time>2020-08-02T07:08:05Z</time>
      </trkpt>
      <trkpt lat="47.27566" lon="-0.48573">
        <ele>82.4</ele>
        <time>2020-08-02T07:08:06Z</time>
      </trkpt>
      <trkpt lat="47.27563" lon="-0.48577">
        <ele>82.6</ele>
        <time>2020-08-02T07:08:07Z</time>
      </trkpt>
      <trkpt lat="47.2756" lon="-0.48581">
        <ele>82.8</ele>
        <time>2020-08-02T07:08:08Z</time>
      </trkpt>
      <trkpt lat="47.27557" lon="-0.48585">
        <ele>82.8</ele>
        <time>2020-08-02T07:08:09Z</time>
      </trkpt>
      <trkpt lat="47.27554" lon="-0.48589">
        <ele>83</ele>
        <time>2020-08-02T07:08:10Z</time>
      </trkpt>
      <trkpt lat="47.27551" lon="-0.48593">
        <ele>83.2</ele>
        <time>2020-08-02T07:08:11Z</time>
      </trkpt>
      <trkpt lat="47.27548" lon="-0.48597">
        <ele>83.4</ele>
        <time>2020-08-02T07:08:12Z</time>
      </trkpt>
      <trkpt lat="47.27545" lon="-0.486">
        <ele>83.4</ele>
        <time>2020-08-02T07:08:13Z</time>
      </trkpt>
      <trkpt lat="47.27542" lon="-0.48604">
        <ele>83.6</ele>
        <time>2020-08-02T07:08:14Z</time>
      </trkpt>
      <trkpt lat="47.27538" lon="-0.48607">
        <ele>83.6</ele>
        <time>2020-08-02T07:08:15Z</time>
      </trkpt>
      <trkpt lat="47.27535" lon="-0.4861">
        <ele>83.6</ele>
        <time>2020-08-02T07:08:16Z</time>
      </trkpt>
      <trkpt lat="47.27531" lon="-0.48613">
        <ele>83.6</ele>
        <time>2020-08-02T07:08:17Z</time>
      </trkpt>
      <trkpt lat="47.27528" lon="-0.48617">
        <ele>83.6</ele>
        <time>2020-08-02T07:08:18Z</time>
      </trkpt>
      <trkpt lat="47.27525" lon="-0.4862">
        <ele>83.8</ele>
        <time>2020-08-02T07:08:19Z</time>
      </trkpt>
      <trkpt lat="47.27522" lon="-0.48624">
        <ele>83.8</ele>
        <time>2020-08-02T07:08:20Z</time>
      </trkpt>
      <trkpt lat="47.27519" lon="-0.48627">
        <ele>83.8</ele>
        <time>2020-08-02T07:08:21Z</time>
      </trkpt>
      <trkpt lat="47.27513" lon="-0.48635">
        <ele>83.8</ele>
        <time>2020-08-02T07:08:23Z</time>
      </trkpt>
      <trkpt lat="47.27506" lon="-0.48643">
        <ele>84</ele>
        <time>2020-08-02T07:08:25Z</time>
      </trkpt>
      <trkpt lat="47.27486" lon="-0.48664">
        <ele>84.2</ele>
        <time>2020-08-02T07:08:31Z</time>
      </trkpt>
      <trkpt lat="47.2746" lon="-0.48701">
        <ele>84</ele>
        <time>2020-08-02T07:08:39Z</time>
      </trkpt>
      <trkpt lat="47.27445" lon="-0.48723">
        <ele>82.8</ele>
        <time>2020-08-02T07:08:43Z</time>
      </trkpt>
      <trkpt lat="47.27439" lon="-0.48735">
        <ele>82.4</ele>
        <time>2020-08-02T07:08:45Z</time>
      </trkpt>
      <trkpt lat="47.27438" lon="-0.4874">
        <ele>82.2</ele>
        <time>2020-08-02T07:08:46Z</time>
      </trkpt>
      <trkpt lat="47.27436" lon="-0.48745">
        <ele>81.8</ele>
        <time>2020-08-02T07:08:47Z</time>
      </trkpt>
      <trkpt lat="47.27435" lon="-0.48749">
        <ele>81.6</ele>
        <time>2020-08-02T07:08:48Z</time>
      </trkpt>
      <trkpt lat="47.27434" lon="-0.48752">
        <ele>81.4</ele>
        <time>2020-08-02T07:08:49Z</time>
      </trkpt>
      <trkpt lat="47.27433" lon="-0.48756">
        <ele>81.2</ele>
        <time>2020-08-02T07:08:50Z</time>
      </trkpt>
      <trkpt lat="47.27431" lon="-0.4876">
        <ele>81</ele>
        <time>2020-08-02T07:08:51Z</time>
      </trkpt>
      <trkpt lat="47.2743" lon="-0.48764">
        <ele>80.8</ele>
        <time>2020-08-02T07:08:52Z</time>
      </trkpt>
      <trkpt lat="47.27423" lon="-0.48785">
        <ele>79.4</ele>
        <time>2020-08-02T07:08:56Z</time>
      </trkpt>
      <trkpt lat="47.27421" lon="-0.4879">
        <ele>79.4</ele>
        <time>2020-08-02T07:08:57Z</time>
      </trkpt>
      <trkpt lat="47.27417" lon="-0.48798">
        <ele>78.6</ele>
        <time>2020-08-02T07:08:59Z</time>
      </trkpt>
      <trkpt lat="47.27414" lon="-0.48802">
        <ele>78.2</ele>
        <time>2020-08-02T07:09:00Z</time>
      </trkpt>
      <trkpt lat="47.27411" lon="-0.48806">
        <ele>78.2</ele>
        <time>2020-08-02T07:09:01Z</time>
      </trkpt>
      <trkpt lat="47.27409" lon="-0.4881">
        <ele>77.8</ele>
        <time>2020-08-02T07:09:02Z</time>
      </trkpt>
      <trkpt lat="47.27405" lon="-0.48815">
        <ele>77.6</ele>
        <time>2020-08-02T07:09:03Z</time>
      </trkpt>
      <trkpt lat="47.27399" lon="-0.4882">
        <ele>77</ele>
        <time>2020-08-02T07:09:04Z</time>
      </trkpt>
      <trkpt lat="47.27394" lon="-0.48826">
        <ele>76.8</ele>
        <time>2020-08-02T07:09:05Z</time>
      </trkpt>
      <trkpt lat="47.27385" lon="-0.48836">
        <ele>75.2</ele>
        <time>2020-08-02T07:09:07Z</time>
      </trkpt>
      <trkpt lat="47.27379" lon="-0.48842">
        <ele>75</ele>
        <time>2020-08-02T07:09:08Z</time>
      </trkpt>
      <trkpt lat="47.27367" lon="-0.48855">
        <ele>74.2</ele>
        <time>2020-08-02T07:09:10Z</time>
      </trkpt>
      <trkpt lat="47.27361" lon="-0.48862">
        <ele>73.8</ele>
        <time>2020-08-02T07:09:11Z</time>
      </trkpt>
      <trkpt lat="47.27351" lon="-0.48875">
        <ele>73.2</ele>
        <time>2020-08-02T07:09:13Z</time>
      </trkpt>
      <trkpt lat="47.27346" lon="-0.48882">
        <ele>72.6</ele>
        <time>2020-08-02T07:09:14Z</time>
      </trkpt>
      <trkpt lat="47.27342" lon="-0.48887">
        <ele>72.2</ele>
        <time>2020-08-02T07:09:15Z</time>
      </trkpt>
      <trkpt lat="47.27338" lon="-0.48892">
        <ele>71.4</ele>
        <time>2020-08-02T07:09:16Z</time>
      </trkpt>
      <trkpt lat="47.27334" lon="-0.48896">
        <ele>71.2</ele>
        <time>2020-08-02T07:09:17Z</time>
      </trkpt>
      <trkpt lat="47.2733" lon="-0.48901">
        <ele>70.6</ele>
        <time>2020-08-02T07:09:18Z</time>
      </trkpt>
      <trkpt lat="47.27325" lon="-0.48906">
        <ele>70</ele>
        <time>2020-08-02T07:09:19Z</time>
      </trkpt>
      <trkpt lat="47.27321" lon="-0.48911">
        <ele>69.6</ele>
        <time>2020-08-02T07:09:20Z</time>
      </trkpt>
      <trkpt lat="47.27318" lon="-0.48915">
        <ele>69.2</ele>
        <time>2020-08-02T07:09:21Z</time>
      </trkpt>
      <trkpt lat="47.27313" lon="-0.48921">
        <ele>69</ele>
        <time>2020-08-02T07:09:22Z</time>
      </trkpt>
      <trkpt lat="47.27309" lon="-0.48928">
        <ele>68.8</ele>
        <time>2020-08-02T07:09:23Z</time>
      </trkpt>
      <trkpt lat="47.27307" lon="-0.48933">
        <ele>68.6</ele>
        <time>2020-08-02T07:09:24Z</time>
      </trkpt>
      <trkpt lat="47.27305" lon="-0.48937">
        <ele>68.2</ele>
        <time>2020-08-02T07:09:25Z</time>
      </trkpt>
      <trkpt lat="47.27304" lon="-0.48942">
        <ele>67.8</ele>
        <time>2020-08-02T07:09:26Z</time>
      </trkpt>
      <trkpt lat="47.273" lon="-0.48948">
        <ele>67.6</ele>
        <time>2020-08-02T07:09:27Z</time>
      </trkpt>
      <trkpt lat="47.27298" lon="-0.48952">
        <ele>67.4</ele>
        <time>2020-08-02T07:09:28Z</time>
      </trkpt>
      <trkpt lat="47.27295" lon="-0.48955">
        <ele>67.2</ele>
        <time>2020-08-02T07:09:29Z</time>
      </trkpt>
      <trkpt lat="47.27293" lon="-0.48959">
        <ele>67.2</ele>
        <time>2020-08-02T07:09:30Z</time>
      </trkpt>
      <trkpt lat="47.2729" lon="-0.48963">
        <ele>66.8</ele>
        <time>2020-08-02T07:09:31Z</time>
      </trkpt>
      <trkpt lat="47.27286" lon="-0.48965">
        <ele>66.6</ele>
        <time>2020-08-02T07:09:32Z</time>
      </trkpt>
      <trkpt lat="47.27282" lon="-0.48967">
        <ele>66.2</ele>
        <time>2020-08-02T07:09:33Z</time>
      </trkpt>
      <trkpt lat="47.27278" lon="-0.48968">
        <ele>66</ele>
        <time>2020-08-02T07:09:34Z</time>
      </trkpt>
      <trkpt lat="47.27274" lon="-0.4897">
        <ele>65.8</ele>
        <time>2020-08-02T07:09:35Z</time>
      </trkpt>
      <trkpt lat="47.2727" lon="-0.48971">
        <ele>65.8</ele>
        <time>2020-08-02T07:09:36Z</time>
      </trkpt>
      <trkpt lat="47.27266" lon="-0.48973">
        <ele>65.6</ele>
        <time>2020-08-02T07:09:37Z</time>
      </trkpt>
      <trkpt lat="47.27263" lon="-0.48974">
        <ele>65.6</ele>
        <time>2020-08-02T07:09:38Z</time>
      </trkpt>
      <trkpt lat="47.27259" lon="-0.48975">
        <ele>65.6</ele>
        <time>2020-08-02T07:09:39Z</time>
      </trkpt>
      <trkpt lat="47.27256" lon="-0.48976">
        <ele>65.4</ele>
        <time>2020-08-02T07:09:40Z</time>
      </trkpt>
      <trkpt lat="47.27254" lon="-0.48976">
        <ele>65.4</ele>
        <time>2020-08-02T07:09:41Z</time>
      </trkpt>
      <trkpt lat="47.27251" lon="-0.48975">
        <ele>65.4</ele>
        <time>2020-08-02T07:09:42Z</time>
      </trkpt>
      <trkpt lat="47.2725" lon="-0.48973">
        <ele>65.4</ele>
        <time>2020-08-02T07:09:43Z</time>
      </trkpt>
      <trkpt lat="47.27248" lon="-0.48971">
        <ele>65.4</ele>
        <time>2020-08-02T07:09:44Z</time>
      </trkpt>
      <trkpt lat="47.27247" lon="-0.48967">
        <ele>65.4</ele>
        <time>2020-08-02T07:09:45Z</time>
      </trkpt>
      <trkpt lat="47.27245" lon="-0.48964">
        <ele>65.4</ele>
        <time>2020-08-02T07:09:46Z</time>
      </trkpt>
      <trkpt lat="47.27243" lon="-0.48958">
        <ele>65.4</ele>
        <time>2020-08-02T07:09:48Z</time>
      </trkpt>
      <trkpt lat="47.27241" lon="-0.48952">
        <ele>65.6</ele>
        <time>2020-08-02T07:09:50Z</time>
      </trkpt>
      <trkpt lat="47.27241" lon="-0.48949">
        <ele>65.6</ele>
        <time>2020-08-02T07:09:51Z</time>
      </trkpt>
      <trkpt lat="47.2724" lon="-0.48946">
        <ele>65.8</ele>
        <time>2020-08-02T07:09:52Z</time>
      </trkpt>
      <trkpt lat="47.27239" lon="-0.48943">
        <ele>65.8</ele>
        <time>2020-08-02T07:09:53Z</time>
      </trkpt>
      <trkpt lat="47.27239" lon="-0.4894">
        <ele>66</ele>
        <time>2020-08-02T07:09:54Z</time>
      </trkpt>
      <trkpt lat="47.27237" lon="-0.48933">
        <ele>66.4</ele>
        <time>2020-08-02T07:09:56Z</time>
      </trkpt>
      <trkpt lat="47.27235" lon="-0.48926">
        <ele>66.8</ele>
        <time>2020-08-02T07:09:58Z</time>
      </trkpt>
      <trkpt lat="47.27234" lon="-0.48922">
        <ele>67</ele>
        <time>2020-08-02T07:09:59Z</time>
      </trkpt>
      <trkpt lat="47.27233" lon="-0.48918">
        <ele>67.2</ele>
        <time>2020-08-02T07:10:00Z</time>
      </trkpt>
      <trkpt lat="47.27232" lon="-0.48914">
        <ele>67.2</ele>
        <time>2020-08-02T07:10:01Z</time>
      </trkpt>
      <trkpt lat="47.27231" lon="-0.4891">
        <ele>67.6</ele>
        <time>2020-08-02T07:10:02Z</time>
      </trkpt>
      <trkpt lat="47.2723" lon="-0.48906">
        <ele>67.6</ele>
        <time>2020-08-02T07:10:03Z</time>
      </trkpt>
      <trkpt lat="47.27229" lon="-0.48901">
        <ele>67.8</ele>
        <time>2020-08-02T07:10:04Z</time>
      </trkpt>
      <trkpt lat="47.27228" lon="-0.48896">
        <ele>68</ele>
        <time>2020-08-02T07:10:05Z</time>
      </trkpt>
      <trkpt lat="47.27226" lon="-0.48891">
        <ele>68.2</ele>
        <time>2020-08-02T07:10:06Z</time>
      </trkpt>
      <trkpt lat="47.27224" lon="-0.48887">
        <ele>68.4</ele>
        <time>2020-08-02T07:10:07Z</time>
      </trkpt>
      <trkpt lat="47.27222" lon="-0.48883">
        <ele>68.6</ele>
        <time>2020-08-02T07:10:08Z</time>
      </trkpt>
      <trkpt lat="47.27221" lon="-0.48879">
        <ele>68.8</ele>
        <time>2020-08-02T07:10:09Z</time>
      </trkpt>
      <trkpt lat="47.27219" lon="-0.48875">
        <ele>68.8</ele>
        <time>2020-08-02T07:10:10Z</time>
      </trkpt>
      <trkpt lat="47.27217" lon="-0.48872">
        <ele>69.2</ele>
        <time>2020-08-02T07:10:11Z</time>
      </trkpt>
      <trkpt lat="47.27215" lon="-0.48868">
        <ele>69.4</ele>
        <time>2020-08-02T07:10:12Z</time>
      </trkpt>
      <trkpt lat="47.27213" lon="-0.48864">
        <ele>69.8</ele>
        <time>2020-08-02T07:10:13Z</time>
      </trkpt>
      <trkpt lat="47.27211" lon="-0.4886">
        <ele>70</ele>
        <time>2020-08-02T07:10:14Z</time>
      </trkpt>
      <trkpt lat="47.27209" lon="-0.48856">
        <ele>70</ele>
        <time>2020-08-02T07:10:15Z</time>
      </trkpt>
      <trkpt lat="47.27207" lon="-0.48852">
        <ele>70.4</ele>
        <time>2020-08-02T07:10:16Z</time>
      </trkpt>
      <trkpt lat="47.27205" lon="-0.48848">
        <ele>70.6</ele>
        <time>2020-08-02T07:10:17Z</time>
      </trkpt>
      <trkpt lat="47.27203" lon="-0.48844">
        <ele>71</ele>
        <time>2020-08-02T07:10:18Z</time>
      </trkpt>
      <trkpt lat="47.27201" lon="-0.4884">
        <ele>71.2</ele>
        <time>2020-08-02T07:10:19Z</time>
      </trkpt>
      <trkpt lat="47.272" lon="-0.48836">
        <ele>71.4</ele>
        <time>2020-08-02T07:10:20Z</time>
      </trkpt>
      <trkpt lat="47.27197" lon="-0.48832">
        <ele>71.6</ele>
        <time>2020-08-02T07:10:21Z</time>
      </trkpt>
      <trkpt lat="47.27196" lon="-0.48828">
        <ele>71.8</ele>
        <time>2020-08-02T07:10:22Z</time>
      </trkpt>
      <trkpt lat="47.27194" lon="-0.48824">
        <ele>72.2</ele>
        <time>2020-08-02T07:10:23Z</time>
      </trkpt>
      <trkpt lat="47.27192" lon="-0.4882">
        <ele>72.2</ele>
        <time>2020-08-02T07:10:24Z</time>
      </trkpt>
      <trkpt lat="47.2719" lon="-0.48816">
        <ele>72.6</ele>
        <time>2020-08-02T07:10:25Z</time>
      </trkpt>
      <trkpt lat="47.27188" lon="-0.48812">
        <ele>73</ele>
        <time>2020-08-02T07:10:26Z</time>
      </trkpt>
      <trkpt lat="47.27186" lon="-0.48808">
        <ele>73.2</ele>
        <time>2020-08-02T07:10:27Z</time>
      </trkpt>
      <trkpt lat="47.27184" lon="-0.48805">
        <ele>73.4</ele>
        <time>2020-08-02T07:10:28Z</time>
      </trkpt>
      <trkpt lat="47.27182" lon="-0.48801">
        <ele>73.6</ele>
        <time>2020-08-02T07:10:29Z</time>
      </trkpt>
      <trkpt lat="47.2718" lon="-0.48797">
        <ele>74</ele>
        <time>2020-08-02T07:10:30Z</time>
      </trkpt>
      <trkpt lat="47.27178" lon="-0.48794">
        <ele>74.4</ele>
        <time>2020-08-02T07:10:31Z</time>
      </trkpt>
      <trkpt lat="47.27176" lon="-0.4879">
        <ele>74.6</ele>
        <time>2020-08-02T07:10:32Z</time>
      </trkpt>
      <trkpt lat="47.27174" lon="-0.48787">
        <ele>74.8</ele>
        <time>2020-08-02T07:10:33Z</time>
      </trkpt>
      <trkpt lat="47.27172" lon="-0.48783">
        <ele>75</ele>
        <time>2020-08-02T07:10:34Z</time>
      </trkpt>
      <trkpt lat="47.27171" lon="-0.48779">
        <ele>75.4</ele>
        <time>2020-08-02T07:10:35Z</time>
      </trkpt>
      <trkpt lat="47.27169" lon="-0.48775">
        <ele>75.6</ele>
        <time>2020-08-02T07:10:36Z</time>
      </trkpt>
      <trkpt lat="47.27167" lon="-0.48771">
        <ele>75.6</ele>
        <time>2020-08-02T07:10:37Z</time>
      </trkpt>
      <trkpt lat="47.27166" lon="-0.48767">
        <ele>76</ele>
        <time>2020-08-02T07:10:38Z</time>
      </trkpt>
      <trkpt lat="47.27164" lon="-0.48763">
        <ele>76</ele>
        <time>2020-08-02T07:10:39Z</time>
      </trkpt>
      <trkpt lat="47.27163" lon="-0.48759">
        <ele>76.4</ele>
        <time>2020-08-02T07:10:40Z</time>
      </trkpt>
      <trkpt lat="47.27161" lon="-0.48754">
        <ele>76.6</ele>
        <time>2020-08-02T07:10:41Z</time>
      </trkpt>
      <trkpt lat="47.2716" lon="-0.4875">
        <ele>76.8</ele>
        <time>2020-08-02T07:10:42Z</time>
      </trkpt>
      <trkpt lat="47.27159" lon="-0.48745">
        <ele>77</ele>
        <time>2020-08-02T07:10:43Z</time>
      </trkpt>
      <trkpt lat="47.27157" lon="-0.48741">
        <ele>77</ele>
        <time>2020-08-02T07:10:44Z</time>
      </trkpt>
      <trkpt lat="47.27156" lon="-0.48736">
        <ele>77.2</ele>
        <time>2020-08-02T07:10:45Z</time>
      </trkpt>
      <trkpt lat="47.27154" lon="-0.48731">
        <ele>77.2</ele>
        <time>2020-08-02T07:10:46Z</time>
      </trkpt>
      <trkpt lat="47.27153" lon="-0.48727">
        <ele>77.4</ele>
        <time>2020-08-02T07:10:47Z</time>
      </trkpt>
      <trkpt lat="47.27151" lon="-0.48723">
        <ele>77.6</ele>
        <time>2020-08-02T07:10:48Z</time>
      </trkpt>
      <trkpt lat="47.2715" lon="-0.4872">
        <ele>77.8</ele>
        <time>2020-08-02T07:10:49Z</time>
      </trkpt>
      <trkpt lat="47.27149" lon="-0.48716">
        <ele>77.8</ele>
        <time>2020-08-02T07:10:50Z</time>
      </trkpt>
      <trkpt lat="47.27148" lon="-0.48712">
        <ele>78</ele>
        <time>2020-08-02T07:10:51Z</time>
      </trkpt>
      <trkpt lat="47.27147" lon="-0.48708">
        <ele>78.2</ele>
        <time>2020-08-02T07:10:52Z</time>
      </trkpt>
      <trkpt lat="47.27145" lon="-0.48705">
        <ele>78.2</ele>
        <time>2020-08-02T07:10:53Z</time>
      </trkpt>
      <trkpt lat="47.27144" lon="-0.48701">
        <ele>78.2</ele>
        <time>2020-08-02T07:10:54Z</time>
      </trkpt>
      <trkpt lat="47.27143" lon="-0.48697">
        <ele>78.2</ele>
        <time>2020-08-02T07:10:55Z</time>
      </trkpt>
      <trkpt lat="47.27141" lon="-0.48693">
        <ele>78.4</ele>
        <time>2020-08-02T07:10:56Z</time>
      </trkpt>
      <trkpt lat="47.2714" lon="-0.48689">
        <ele>78.6</ele>
        <time>2020-08-02T07:10:57Z</time>
      </trkpt>
      <trkpt lat="47.27139" lon="-0.48686">
        <ele>78.6</ele>
        <time>2020-08-02T07:10:58Z</time>
      </trkpt>
      <trkpt lat="47.27138" lon="-0.48682">
        <ele>78.8</ele>
        <time>2020-08-02T07:10:59Z</time>
      </trkpt>
      <trkpt lat="47.27136" lon="-0.48679">
        <ele>78.8</ele>
        <time>2020-08-02T07:11:00Z</time>
      </trkpt>
      <trkpt lat="47.27135" lon="-0.48676">
        <ele>79</ele>
        <time>2020-08-02T07:11:01Z</time>
      </trkpt>
      <trkpt lat="47.27133" lon="-0.48672">
        <ele>79.2</ele>
        <time>2020-08-02T07:11:02Z</time>
      </trkpt>
      <trkpt lat="47.27131" lon="-0.4867">
        <ele>79.4</ele>
        <time>2020-08-02T07:11:03Z</time>
      </trkpt>
      <trkpt lat="47.27129" lon="-0.48667">
        <ele>79.8</ele>
        <time>2020-08-02T07:11:04Z</time>
      </trkpt>
      <trkpt lat="47.27126" lon="-0.48666">
        <ele>80</ele>
        <time>2020-08-02T07:11:05Z</time>
      </trkpt>
      <trkpt lat="47.27124" lon="-0.48664">
        <ele>80</ele>
        <time>2020-08-02T07:11:06Z</time>
      </trkpt>
      <trkpt lat="47.27121" lon="-0.48663">
        <ele>80.4</ele>
        <time>2020-08-02T07:11:07Z</time>
      </trkpt>
      <trkpt lat="47.27118" lon="-0.48663">
        <ele>80.6</ele>
        <time>2020-08-02T07:11:08Z</time>
      </trkpt>
      <trkpt lat="47.27115" lon="-0.48664">
        <ele>81</ele>
        <time>2020-08-02T07:11:09Z</time>
      </trkpt>
      <trkpt lat="47.27112" lon="-0.48664">
        <ele>81.2</ele>
        <time>2020-08-02T07:11:10Z</time>
      </trkpt>
      <trkpt lat="47.2711" lon="-0.48665">
        <ele>81.4</ele>
        <time>2020-08-02T07:11:11Z</time>
      </trkpt>
      <trkpt lat="47.27107" lon="-0.48667">
        <ele>81.6</ele>
        <time>2020-08-02T07:11:12Z</time>
      </trkpt>
      <trkpt lat="47.27104" lon="-0.48669">
        <ele>81.8</ele>
        <time>2020-08-02T07:11:13Z</time>
      </trkpt>
      <trkpt lat="47.27102" lon="-0.48671">
        <ele>82</ele>
        <time>2020-08-02T07:11:14Z</time>
      </trkpt>
      <trkpt lat="47.27099" lon="-0.48673">
        <ele>82</ele>
        <time>2020-08-02T07:11:15Z</time>
      </trkpt>
      <trkpt lat="47.27096" lon="-0.48675">
        <ele>82</ele>
        <time>2020-08-02T07:11:16Z</time>
      </trkpt>
      <trkpt lat="47.27094" lon="-0.48677">
        <ele>82.2</ele>
        <time>2020-08-02T07:11:17Z</time>
      </trkpt>
      <trkpt lat="47.27091" lon="-0.48679">
        <ele>82.4</ele>
        <time>2020-08-02T07:11:18Z</time>
      </trkpt>
      <trkpt lat="47.27089" lon="-0.48681">
        <ele>82.4</ele>
        <time>2020-08-02T07:11:19Z</time>
      </trkpt>
      <trkpt lat="47.27085" lon="-0.48683">
        <ele>82.6</ele>
        <time>2020-08-02T07:11:20Z</time>
      </trkpt>
      <trkpt lat="47.27083" lon="-0.48685">
        <ele>82.6</ele>
        <time>2020-08-02T07:11:21Z</time>
      </trkpt>
      <trkpt lat="47.2708" lon="-0.48687">
        <ele>82.8</ele>
        <time>2020-08-02T07:11:22Z</time>
      </trkpt>
      <trkpt lat="47.27077" lon="-0.48689">
        <ele>82.8</ele>
        <time>2020-08-02T07:11:23Z</time>
      </trkpt>
      <trkpt lat="47.27075" lon="-0.48691">
        <ele>82.8</ele>
        <time>2020-08-02T07:11:24Z</time>
      </trkpt>
      <trkpt lat="47.27073" lon="-0.48694">
        <ele>83</ele>
        <time>2020-08-02T07:11:25Z</time>
      </trkpt>
      <trkpt lat="47.27071" lon="-0.48697">
        <ele>83</ele>
        <time>2020-08-02T07:11:26Z</time>
      </trkpt>
      <trkpt lat="47.27065" lon="-0.48707">
        <ele>83.2</ele>
        <time>2020-08-02T07:11:29Z</time>
      </trkpt>
      <trkpt lat="47.27063" lon="-0.4871">
        <ele>83</ele>
        <time>2020-08-02T07:11:30Z</time>
      </trkpt>
      <trkpt lat="47.27056" lon="-0.48721">
        <ele>83.4</ele>
        <time>2020-08-02T07:11:33Z</time>
      </trkpt>
      <trkpt lat="47.27053" lon="-0.48724">
        <ele>83.4</ele>
        <time>2020-08-02T07:11:34Z</time>
      </trkpt>
      <trkpt lat="47.27031" lon="-0.48745">
        <ele>84</ele>
        <time>2020-08-02T07:11:41Z</time>
      </trkpt>
      <trkpt lat="47.27006" lon="-0.48768">
        <ele>84.2</ele>
        <time>2020-08-02T07:11:49Z</time>
      </trkpt>
      <trkpt lat="47.27003" lon="-0.48771">
        <ele>84.2</ele>
        <time>2020-08-02T07:11:50Z</time>
      </trkpt>
      <trkpt lat="47.27" lon="-0.48773">
        <ele>84.4</ele>
        <time>2020-08-02T07:11:51Z</time>
      </trkpt>
      <trkpt lat="47.26997" lon="-0.48776">
        <ele>84.4</ele>
        <time>2020-08-02T07:11:52Z</time>
      </trkpt>
      <trkpt lat="47.26993" lon="-0.48779">
        <ele>84.4</ele>
        <time>2020-08-02T07:11:53Z</time>
      </trkpt>
      <trkpt lat="47.2699" lon="-0.48782">
        <ele>84.6</ele>
        <time>2020-08-02T07:11:54Z</time>
      </trkpt>
      <trkpt lat="47.26987" lon="-0.48785">
        <ele>84.6</ele>
        <time>2020-08-02T07:11:55Z</time>
      </trkpt>
      <trkpt lat="47.26968" lon="-0.48802">
        <ele>85.2</ele>
        <time>2020-08-02T07:12:01Z</time>
      </trkpt>
      <trkpt lat="47.26962" lon="-0.48809">
        <ele>85.4</ele>
        <time>2020-08-02T07:12:03Z</time>
      </trkpt>
      <trkpt lat="47.26959" lon="-0.48812">
        <ele>85.4</ele>
        <time>2020-08-02T07:12:04Z</time>
      </trkpt>
      <trkpt lat="47.26956" lon="-0.48814">
        <ele>85.6</ele>
        <time>2020-08-02T07:12:05Z</time>
      </trkpt>
      <trkpt lat="47.26952" lon="-0.48818">
        <ele>85.6</ele>
        <time>2020-08-02T07:12:06Z</time>
      </trkpt>
      <trkpt lat="47.26949" lon="-0.48821">
        <ele>85.6</ele>
        <time>2020-08-02T07:12:07Z</time>
      </trkpt>
      <trkpt lat="47.26946" lon="-0.48824">
        <ele>85.8</ele>
        <time>2020-08-02T07:12:08Z</time>
      </trkpt>
      <trkpt lat="47.2693" lon="-0.4884">
        <ele>85.8</ele>
        <time>2020-08-02T07:12:13Z</time>
      </trkpt>
      <trkpt lat="47.26911" lon="-0.48859">
        <ele>85.8</ele>
        <time>2020-08-02T07:12:19Z</time>
      </trkpt>
      <trkpt lat="47.26908" lon="-0.48863">
        <ele>86</ele>
        <time>2020-08-02T07:12:20Z</time>
      </trkpt>
      <trkpt lat="47.26905" lon="-0.48866">
        <ele>86.2</ele>
        <time>2020-08-02T07:12:21Z</time>
      </trkpt>
      <trkpt lat="47.26902" lon="-0.48869">
        <ele>86.2</ele>
        <time>2020-08-02T07:12:22Z</time>
      </trkpt>
      <trkpt lat="47.26899" lon="-0.48873">
        <ele>86.4</ele>
        <time>2020-08-02T07:12:23Z</time>
      </trkpt>
      <trkpt lat="47.26896" lon="-0.48876">
        <ele>86.4</ele>
        <time>2020-08-02T07:12:24Z</time>
      </trkpt>
      <trkpt lat="47.26892" lon="-0.48878">
        <ele>86.4</ele>
        <time>2020-08-02T07:12:25Z</time>
      </trkpt>
      <trkpt lat="47.26889" lon="-0.48878">
        <ele>86.4</ele>
        <time>2020-08-02T07:12:26Z</time>
      </trkpt>
      <trkpt lat="47.26885" lon="-0.48878">
        <ele>86.4</ele>
        <time>2020-08-02T07:12:27Z</time>
      </trkpt>
      <trkpt lat="47.26881" lon="-0.48876">
        <ele>86.4</ele>
        <time>2020-08-02T07:12:28Z</time>
      </trkpt>
      <trkpt lat="47.26879" lon="-0.48874">
        <ele>86.2</ele>
        <time>2020-08-02T07:12:29Z</time>
      </trkpt>
      <trkpt lat="47.26875" lon="-0.48873">
        <ele>86.4</ele>
        <time>2020-08-02T07:12:30Z</time>
      </trkpt>
      <trkpt lat="47.26872" lon="-0.48874">
        <ele>86.4</ele>
        <time>2020-08-02T07:12:31Z</time>
      </trkpt>
      <trkpt lat="47.26869" lon="-0.48877">
        <ele>86.2</ele>
        <time>2020-08-02T07:12:32Z</time>
      </trkpt>
      <trkpt lat="47.26866" lon="-0.4888">
        <ele>86.2</ele>
        <time>2020-08-02T07:12:33Z</time>
      </trkpt>
      <trkpt lat="47.26863" lon="-0.48883">
        <ele>86.2</ele>
        <time>2020-08-02T07:12:34Z</time>
      </trkpt>
      <trkpt lat="47.2686" lon="-0.48886">
        <ele>86.2</ele>
        <time>2020-08-02T07:12:35Z</time>
      </trkpt>
      <trkpt lat="47.26857" lon="-0.4889">
        <ele>86.2</ele>
        <time>2020-08-02T07:12:36Z</time>
      </trkpt>
      <trkpt lat="47.26854" lon="-0.48894">
        <ele>86.2</ele>
        <time>2020-08-02T07:12:37Z</time>
      </trkpt>
      <trkpt lat="47.26852" lon="-0.489">
        <ele>86.2</ele>
        <time>2020-08-02T07:12:38Z</time>
      </trkpt>
      <trkpt lat="47.2685" lon="-0.48905">
        <ele>86</ele>
        <time>2020-08-02T07:12:39Z</time>
      </trkpt>
      <trkpt lat="47.26848" lon="-0.48911">
        <ele>86</ele>
        <time>2020-08-02T07:12:40Z</time>
      </trkpt>
      <trkpt lat="47.26846" lon="-0.48917">
        <ele>86</ele>
        <time>2020-08-02T07:12:41Z</time>
      </trkpt>
      <trkpt lat="47.26845" lon="-0.4892">
        <ele>86</ele>
        <time>2020-08-02T07:12:42Z</time>
      </trkpt>
      <trkpt lat="47.26844" lon="-0.48924">
        <ele>86</ele>
        <time>2020-08-02T07:12:43Z</time>
      </trkpt>
      <trkpt lat="47.26843" lon="-0.48928">
        <ele>85.8</ele>
        <time>2020-08-02T07:12:44Z</time>
      </trkpt>
      <trkpt lat="47.26842" lon="-0.48932">
        <ele>85.6</ele>
        <time>2020-08-02T07:12:45Z</time>
      </trkpt>
      <trkpt lat="47.26841" lon="-0.48935">
        <ele>85.6</ele>
        <time>2020-08-02T07:12:46Z</time>
      </trkpt>
      <trkpt lat="47.2684" lon="-0.48938">
        <ele>85.4</ele>
        <time>2020-08-02T07:12:47Z</time>
      </trkpt>
      <trkpt lat="47.26839" lon="-0.48941">
        <ele>85.4</ele>
        <time>2020-08-02T07:12:48Z</time>
      </trkpt>
      <trkpt lat="47.26837" lon="-0.48944">
        <ele>85.4</ele>
        <time>2020-08-02T07:12:49Z</time>
      </trkpt>
      <trkpt lat="47.26831" lon="-0.48954">
        <ele>85</ele>
        <time>2020-08-02T07:12:52Z</time>
      </trkpt>
      <trkpt lat="47.26828" lon="-0.48957">
        <ele>84.8</ele>
        <time>2020-08-02T07:12:53Z</time>
      </trkpt>
      <trkpt lat="47.26822" lon="-0.48965">
        <ele>84.6</ele>
        <time>2020-08-02T07:12:55Z</time>
      </trkpt>
      <trkpt lat="47.26815" lon="-0.48973">
        <ele>84.4</ele>
        <time>2020-08-02T07:12:57Z</time>
      </trkpt>
      <trkpt lat="47.268" lon="-0.48994">
        <ele>83.4</ele>
        <time>2020-08-02T07:13:01Z</time>
      </trkpt>
      <trkpt lat="47.2679" lon="-0.49006">
        <ele>83</ele>
        <time>2020-08-02T07:13:03Z</time>
      </trkpt>
      <trkpt lat="47.26772" lon="-0.49029">
        <ele>82</ele>
        <time>2020-08-02T07:13:06Z</time>
      </trkpt>
      <trkpt lat="47.2676" lon="-0.49046">
        <ele>81.4</ele>
        <time>2020-08-02T07:13:08Z</time>
      </trkpt>
      <trkpt lat="47.26747" lon="-0.49061">
        <ele>80.4</ele>
        <time>2020-08-02T07:13:10Z</time>
      </trkpt>
      <trkpt lat="47.26741" lon="-0.49068">
        <ele>79.4</ele>
        <time>2020-08-02T07:13:11Z</time>
      </trkpt>
      <trkpt lat="47.26734" lon="-0.49076">
        <ele>78.8</ele>
        <time>2020-08-02T07:13:12Z</time>
      </trkpt>
      <trkpt lat="47.26728" lon="-0.49084">
        <ele>78.2</ele>
        <time>2020-08-02T07:13:13Z</time>
      </trkpt>
      <trkpt lat="47.26722" lon="-0.49091">
        <ele>77.6</ele>
        <time>2020-08-02T07:13:14Z</time>
      </trkpt>
      <trkpt lat="47.26718" lon="-0.49096">
        <ele>76.8</ele>
        <time>2020-08-02T07:13:15Z</time>
      </trkpt>
      <trkpt lat="47.26712" lon="-0.49104">
        <ele>76.6</ele>
        <time>2020-08-02T07:13:16Z</time>
      </trkpt>
      <trkpt lat="47.26708" lon="-0.4911">
        <ele>75.8</ele>
        <time>2020-08-02T07:13:17Z</time>
      </trkpt>
      <trkpt lat="47.26704" lon="-0.49115">
        <ele>73.4</ele>
        <time>2020-08-02T07:13:18Z</time>
      </trkpt>
      <trkpt lat="47.26701" lon="-0.49118">
        <ele>72.6</ele>
        <time>2020-08-02T07:13:19Z</time>
      </trkpt>
      <trkpt lat="47.26698" lon="-0.49119">
        <ele>70.6</ele>
        <time>2020-08-02T07:13:20Z</time>
      </trkpt>
      <trkpt lat="47.26694" lon="-0.49118">
        <ele>69.6</ele>
        <time>2020-08-02T07:13:21Z</time>
      </trkpt>
      <trkpt lat="47.26691" lon="-0.49115">
        <ele>68.4</ele>
        <time>2020-08-02T07:13:22Z</time>
      </trkpt>
      <trkpt lat="47.26689" lon="-0.49112">
        <ele>67.2</ele>
        <time>2020-08-02T07:13:23Z</time>
      </trkpt>
      <trkpt lat="47.26687" lon="-0.4911">
        <ele>66.8</ele>
        <time>2020-08-02T07:13:24Z</time>
      </trkpt>
      <trkpt lat="47.26685" lon="-0.49105">
        <ele>66.2</ele>
        <time>2020-08-02T07:13:25Z</time>
      </trkpt>
      <trkpt lat="47.26683" lon="-0.49101">
        <ele>66</ele>
        <time>2020-08-02T07:13:26Z</time>
      </trkpt>
      <trkpt lat="47.26679" lon="-0.49095">
        <ele>65.6</ele>
        <time>2020-08-02T07:13:28Z</time>
      </trkpt>
      <trkpt lat="47.26674" lon="-0.49087">
        <ele>65.4</ele>
        <time>2020-08-02T07:13:30Z</time>
      </trkpt>
      <trkpt lat="47.26672" lon="-0.49084">
        <ele>65.4</ele>
        <time>2020-08-02T07:13:31Z</time>
      </trkpt>
      <trkpt lat="47.26671" lon="-0.49081">
        <ele>65.4</ele>
        <time>2020-08-02T07:13:32Z</time>
      </trkpt>
      <trkpt lat="47.26669" lon="-0.49078">
        <ele>65.4</ele>
        <time>2020-08-02T07:13:33Z</time>
      </trkpt>
      <trkpt lat="47.26667" lon="-0.49074">
        <ele>65.2</ele>
        <time>2020-08-02T07:13:34Z</time>
      </trkpt>
      <trkpt lat="47.26665" lon="-0.49071">
        <ele>65.2</ele>
        <time>2020-08-02T07:13:35Z</time>
      </trkpt>
      <trkpt lat="47.26663" lon="-0.49067">
        <ele>65</ele>
        <time>2020-08-02T07:13:36Z</time>
      </trkpt>
      <trkpt lat="47.2666" lon="-0.49063">
        <ele>65</ele>
        <time>2020-08-02T07:13:37Z</time>
      </trkpt>
      <trkpt lat="47.26658" lon="-0.49059">
        <ele>64.8</ele>
        <time>2020-08-02T07:13:38Z</time>
      </trkpt>
      <trkpt lat="47.2665" lon="-0.4904">
        <ele>64.6</ele>
        <time>2020-08-02T07:13:42Z</time>
      </trkpt>
      <trkpt lat="47.26646" lon="-0.49031">
        <ele>64.4</ele>
        <time>2020-08-02T07:13:44Z</time>
      </trkpt>
      <trkpt lat="47.26644" lon="-0.49028">
        <ele>64.4</ele>
        <time>2020-08-02T07:13:45Z</time>
      </trkpt>
      <trkpt lat="47.26643" lon="-0.49025">
        <ele>64.4</ele>
        <time>2020-08-02T07:13:46Z</time>
      </trkpt>
      <trkpt lat="47.26642" lon="-0.49023">
        <ele>64.4</ele>
        <time>2020-08-02T07:13:47Z</time>
      </trkpt>
      <trkpt lat="47.26641" lon="-0.49021">
        <ele>64.4</ele>
        <time>2020-08-02T07:13:48Z</time>
      </trkpt>
      <trkpt lat="47.2664" lon="-0.49018">
        <ele>64.4</ele>
        <time>2020-08-02T07:13:49Z</time>
      </trkpt>
      <trkpt lat="47.26639" lon="-0.49016">
        <ele>64.2</ele>
        <time>2020-08-02T07:13:50Z</time>
      </trkpt>
      <trkpt lat="47.26639" lon="-0.49014">
        <ele>64.2</ele>
        <time>2020-08-02T07:13:51Z</time>
      </trkpt>
      <trkpt lat="47.26638" lon="-0.49011">
        <ele>64.2</ele>
        <time>2020-08-02T07:13:52Z</time>
      </trkpt>
      <trkpt lat="47.26637" lon="-0.49008">
        <ele>64.2</ele>
        <time>2020-08-02T07:13:53Z</time>
      </trkpt>
      <trkpt lat="47.26634" lon="-0.49001">
        <ele>64.2</ele>
        <time>2020-08-02T07:13:55Z</time>
      </trkpt>
      <trkpt lat="47.26628" lon="-0.4899">
        <ele>64.2</ele>
        <time>2020-08-02T07:13:58Z</time>
      </trkpt>
      <trkpt lat="47.26627" lon="-0.48987">
        <ele>64.2</ele>
        <time>2020-08-02T07:13:59Z</time>
      </trkpt>
      <trkpt lat="47.26625" lon="-0.48983">
        <ele>64.2</ele>
        <time>2020-08-02T07:14:00Z</time>
      </trkpt>
      <trkpt lat="47.26621" lon="-0.48974">
        <ele>64</ele>
        <time>2020-08-02T07:14:02Z</time>
      </trkpt>
      <trkpt lat="47.2662" lon="-0.48969">
        <ele>64</ele>
        <time>2020-08-02T07:14:03Z</time>
      </trkpt>
      <trkpt lat="47.26617" lon="-0.4896">
        <ele>64</ele>
        <time>2020-08-02T07:14:05Z</time>
      </trkpt>
      <trkpt lat="47.26615" lon="-0.48956">
        <ele>63.8</ele>
        <time>2020-08-02T07:14:06Z</time>
      </trkpt>
      <trkpt lat="47.26612" lon="-0.48952">
        <ele>63.8</ele>
        <time>2020-08-02T07:14:07Z</time>
      </trkpt>
      <trkpt lat="47.26611" lon="-0.48948">
        <ele>63.6</ele>
        <time>2020-08-02T07:14:08Z</time>
      </trkpt>
      <trkpt lat="47.26609" lon="-0.48944">
        <ele>63.6</ele>
        <time>2020-08-02T07:14:09Z</time>
      </trkpt>
      <trkpt lat="47.26609" lon="-0.48939">
        <ele>63.6</ele>
        <time>2020-08-02T07:14:10Z</time>
      </trkpt>
      <trkpt lat="47.2661" lon="-0.48934">
        <ele>63.6</ele>
        <time>2020-08-02T07:14:11Z</time>
      </trkpt>
      <trkpt lat="47.26611" lon="-0.48928">
        <ele>63.6</ele>
        <time>2020-08-02T07:14:12Z</time>
      </trkpt>
      <trkpt lat="47.26613" lon="-0.48922">
        <ele>63.6</ele>
        <time>2020-08-02T07:14:13Z</time>
      </trkpt>
      <trkpt lat="47.26616" lon="-0.48914">
        <ele>63.6</ele>
        <time>2020-08-02T07:14:15Z</time>
      </trkpt>
      <trkpt lat="47.26617" lon="-0.4891">
        <ele>63.6</ele>
        <time>2020-08-02T07:14:16Z</time>
      </trkpt>
      <trkpt lat="47.26619" lon="-0.48907">
        <ele>63.8</ele>
        <time>2020-08-02T07:14:17Z</time>
      </trkpt>
      <trkpt lat="47.2662" lon="-0.48904">
        <ele>64</ele>
        <time>2020-08-02T07:14:18Z</time>
      </trkpt>
      <trkpt lat="47.26622" lon="-0.48901">
        <ele>64.4</ele>
        <time>2020-08-02T07:14:19Z</time>
      </trkpt>
      <trkpt lat="47.26623" lon="-0.48899">
        <ele>64.8</ele>
        <time>2020-08-02T07:14:20Z</time>
      </trkpt>
      <trkpt lat="47.26625" lon="-0.48896">
        <ele>65</ele>
        <time>2020-08-02T07:14:21Z</time>
      </trkpt>
      <trkpt lat="47.26626" lon="-0.48893">
        <ele>65.8</ele>
        <time>2020-08-02T07:14:22Z</time>
      </trkpt>
      <trkpt lat="47.26627" lon="-0.4889">
        <ele>66</ele>
        <time>2020-08-02T07:14:23Z</time>
      </trkpt>
      <trkpt lat="47.26628" lon="-0.48887">
        <ele>66.4</ele>
        <time>2020-08-02T07:14:24Z</time>
      </trkpt>
      <trkpt lat="47.2663" lon="-0.48884">
        <ele>66.6</ele>
        <time>2020-08-02T07:14:25Z</time>
      </trkpt>
      <trkpt lat="47.26631" lon="-0.48881">
        <ele>67</ele>
        <time>2020-08-02T07:14:26Z</time>
      </trkpt>
      <trkpt lat="47.26633" lon="-0.48879">
        <ele>67.2</ele>
        <time>2020-08-02T07:14:27Z</time>
      </trkpt>
      <trkpt lat="47.26634" lon="-0.48877">
        <ele>67.4</ele>
        <time>2020-08-02T07:14:28Z</time>
      </trkpt>
      <trkpt lat="47.26635" lon="-0.48874">
        <ele>67.8</ele>
        <time>2020-08-02T07:14:29Z</time>
      </trkpt>
      <trkpt lat="47.26637" lon="-0.48872">
        <ele>68</ele>
        <time>2020-08-02T07:14:30Z</time>
      </trkpt>
      <trkpt lat="47.26638" lon="-0.48869">
        <ele>68.2</ele>
        <time>2020-08-02T07:14:31Z</time>
      </trkpt>
      <trkpt lat="47.26639" lon="-0.48867">
        <ele>68.4</ele>
        <time>2020-08-02T07:14:32Z</time>
      </trkpt>
      <trkpt lat="47.2664" lon="-0.48864">
        <ele>68.8</ele>
        <time>2020-08-02T07:14:33Z</time>
      </trkpt>
      <trkpt lat="47.26642" lon="-0.48862">
        <ele>69.4</ele>
        <time>2020-08-02T07:14:34Z</time>
      </trkpt>
      <trkpt lat="47.26643" lon="-0.48859">
        <ele>69.6</ele>
        <time>2020-08-02T07:14:35Z</time>
      </trkpt>
      <trkpt lat="47.26645" lon="-0.48856">
        <ele>70</ele>
        <time>2020-08-02T07:14:36Z</time>
      </trkpt>
      <trkpt lat="47.26646" lon="-0.48853">
        <ele>70</ele>
        <time>2020-08-02T07:14:37Z</time>
      </trkpt>
      <trkpt lat="47.26646" lon="-0.4885">
        <ele>70.4</ele>
        <time>2020-08-02T07:14:38Z</time>
      </trkpt>
      <trkpt lat="47.26647" lon="-0.48848">
        <ele>70.8</ele>
        <time>2020-08-02T07:14:39Z</time>
      </trkpt>
      <trkpt lat="47.26648" lon="-0.48845">
        <ele>71</ele>
        <time>2020-08-02T07:14:40Z</time>
      </trkpt>
      <trkpt lat="47.26648" lon="-0.48842">
        <ele>71.2</ele>
        <time>2020-08-02T07:14:41Z</time>
      </trkpt>
      <trkpt lat="47.26649" lon="-0.48839">
        <ele>71.4</ele>
        <time>2020-08-02T07:14:42Z</time>
      </trkpt>
      <trkpt lat="47.2665" lon="-0.48836">
        <ele>72</ele>
        <time>2020-08-02T07:14:43Z</time>
      </trkpt>
      <trkpt lat="47.26651" lon="-0.48833">
        <ele>72.2</ele>
        <time>2020-08-02T07:14:44Z</time>
      </trkpt>
      <trkpt lat="47.26651" lon="-0.4883">
        <ele>72.8</ele>
        <time>2020-08-02T07:14:45Z</time>
      </trkpt>
      <trkpt lat="47.26651" lon="-0.48827">
        <ele>73.6</ele>
        <time>2020-08-02T07:14:46Z</time>
      </trkpt>
      <trkpt lat="47.26651" lon="-0.48824">
        <ele>73.8</ele>
        <time>2020-08-02T07:14:47Z</time>
      </trkpt>
      <trkpt lat="47.26651" lon="-0.48822">
        <ele>74.2</ele>
        <time>2020-08-02T07:14:48Z</time>
      </trkpt>
      <trkpt lat="47.26651" lon="-0.48819">
        <ele>74.4</ele>
        <time>2020-08-02T07:14:49Z</time>
      </trkpt>
      <trkpt lat="47.26651" lon="-0.48816">
        <ele>74.6</ele>
        <time>2020-08-02T07:14:50Z</time>
      </trkpt>
      <trkpt lat="47.26651" lon="-0.48813">
        <ele>75</ele>
        <time>2020-08-02T07:14:51Z</time>
      </trkpt>
      <trkpt lat="47.26651" lon="-0.4881">
        <ele>75.2</ele>
        <time>2020-08-02T07:14:52Z</time>
      </trkpt>
      <trkpt lat="47.26652" lon="-0.48807">
        <ele>75.4</ele>
        <time>2020-08-02T07:14:53Z</time>
      </trkpt>
      <trkpt lat="47.26652" lon="-0.48804">
        <ele>75.6</ele>
        <time>2020-08-02T07:14:54Z</time>
      </trkpt>
      <trkpt lat="47.26653" lon="-0.48801">
        <ele>75.8</ele>
        <time>2020-08-02T07:14:55Z</time>
      </trkpt>
      <trkpt lat="47.26653" lon="-0.48798">
        <ele>76</ele>
        <time>2020-08-02T07:14:56Z</time>
      </trkpt>
      <trkpt lat="47.26654" lon="-0.48795">
        <ele>76.4</ele>
        <time>2020-08-02T07:14:57Z</time>
      </trkpt>
      <trkpt lat="47.26654" lon="-0.48792">
        <ele>76.8</ele>
        <time>2020-08-02T07:14:58Z</time>
      </trkpt>
      <trkpt lat="47.26655" lon="-0.4879">
        <ele>76.8</ele>
        <time>2020-08-02T07:14:59Z</time>
      </trkpt>
      <trkpt lat="47.26656" lon="-0.48788">
        <ele>77</ele>
        <time>2020-08-02T07:15:00Z</time>
      </trkpt>
      <trkpt lat="47.26657" lon="-0.48785">
        <ele>77.2</ele>
        <time>2020-08-02T07:15:01Z</time>
      </trkpt>
      <trkpt lat="47.26658" lon="-0.48783">
        <ele>77.2</ele>
        <time>2020-08-02T07:15:02Z</time>
      </trkpt>
      <trkpt lat="47.26659" lon="-0.4878">
        <ele>77.4</ele>
        <time>2020-08-02T07:15:03Z</time>
      </trkpt>
      <trkpt lat="47.2666" lon="-0.48777">
        <ele>77.8</ele>
        <time>2020-08-02T07:15:04Z</time>
      </trkpt>
      <trkpt lat="47.26661" lon="-0.48774">
        <ele>78.2</ele>
        <time>2020-08-02T07:15:05Z</time>
      </trkpt>
      <trkpt lat="47.26661" lon="-0.48772">
        <ele>78.4</ele>
        <time>2020-08-02T07:15:06Z</time>
      </trkpt>
      <trkpt lat="47.26662" lon="-0.48769">
        <ele>78.6</ele>
        <time>2020-08-02T07:15:07Z</time>
      </trkpt>
      <trkpt lat="47.26663" lon="-0.48765">
        <ele>78.8</ele>
        <time>2020-08-02T07:15:08Z</time>
      </trkpt>
      <trkpt lat="47.26664" lon="-0.48762">
        <ele>79</ele>
        <time>2020-08-02T07:15:09Z</time>
      </trkpt>
      <trkpt lat="47.26664" lon="-0.48758">
        <ele>79.2</ele>
        <time>2020-08-02T07:15:10Z</time>
      </trkpt>
      <trkpt lat="47.26665" lon="-0.48755">
        <ele>79.2</ele>
        <time>2020-08-02T07:15:11Z</time>
      </trkpt>
      <trkpt lat="47.26666" lon="-0.48752">
        <ele>79.6</ele>
        <time>2020-08-02T07:15:12Z</time>
      </trkpt>
      <trkpt lat="47.26667" lon="-0.48749">
        <ele>79.8</ele>
        <time>2020-08-02T07:15:13Z</time>
      </trkpt>
      <trkpt lat="47.26668" lon="-0.48745">
        <ele>79.8</ele>
        <time>2020-08-02T07:15:14Z</time>
      </trkpt>
      <trkpt lat="47.26668" lon="-0.48742">
        <ele>80</ele>
        <time>2020-08-02T07:15:15Z</time>
      </trkpt>
      <trkpt lat="47.26669" lon="-0.48738">
        <ele>80</ele>
        <time>2020-08-02T07:15:16Z</time>
      </trkpt>
      <trkpt lat="47.2667" lon="-0.48735">
        <ele>80.2</ele>
        <time>2020-08-02T07:15:17Z</time>
      </trkpt>
      <trkpt lat="47.2667" lon="-0.48731">
        <ele>80.2</ele>
        <time>2020-08-02T07:15:18Z</time>
      </trkpt>
      <trkpt lat="47.26671" lon="-0.48728">
        <ele>80.4</ele>
        <time>2020-08-02T07:15:19Z</time>
      </trkpt>
      <trkpt lat="47.26671" lon="-0.48724">
        <ele>80.4</ele>
        <time>2020-08-02T07:15:20Z</time>
      </trkpt>
      <trkpt lat="47.26672" lon="-0.48721">
        <ele>80.2</ele>
        <time>2020-08-02T07:15:21Z</time>
      </trkpt>
      <trkpt lat="47.26672" lon="-0.48717">
        <ele>80.4</ele>
        <time>2020-08-02T07:15:22Z</time>
      </trkpt>
      <trkpt lat="47.26673" lon="-0.48714">
        <ele>80.4</ele>
        <time>2020-08-02T07:15:23Z</time>
      </trkpt>
      <trkpt lat="47.26673" lon="-0.4871">
        <ele>80.4</ele>
        <time>2020-08-02T07:15:24Z</time>
      </trkpt>
      <trkpt lat="47.26675" lon="-0.48702">
        <ele>80.4</ele>
        <time>2020-08-02T07:15:26Z</time>
      </trkpt>
      <trkpt lat="47.26675" lon="-0.48699">
        <ele>80.6</ele>
        <time>2020-08-02T07:15:27Z</time>
      </trkpt>
      <trkpt lat="47.26676" lon="-0.48692">
        <ele>80.6</ele>
        <time>2020-08-02T07:15:29Z</time>
      </trkpt>
      <trkpt lat="47.26676" lon="-0.48688">
        <ele>80.6</ele>
        <time>2020-08-02T07:15:30Z</time>
      </trkpt>
      <trkpt lat="47.26678" lon="-0.48681">
        <ele>80.8</ele>
        <time>2020-08-02T07:15:32Z</time>
      </trkpt>
      <trkpt lat="47.2668" lon="-0.48667">
        <ele>81</ele>
        <time>2020-08-02T07:15:36Z</time>
      </trkpt>
      <trkpt lat="47.26681" lon="-0.48663">
        <ele>81</ele>
        <time>2020-08-02T07:15:37Z</time>
      </trkpt>
      <trkpt lat="47.26681" lon="-0.48659">
        <ele>81</ele>
        <time>2020-08-02T07:15:38Z</time>
      </trkpt>
      <trkpt lat="47.26682" lon="-0.48655">
        <ele>81.2</ele>
        <time>2020-08-02T07:15:39Z</time>
      </trkpt>
      <trkpt lat="47.26685" lon="-0.48643">
        <ele>81.2</ele>
        <time>2020-08-02T07:15:42Z</time>
      </trkpt>
      <trkpt lat="47.26686" lon="-0.48639">
        <ele>81.2</ele>
        <time>2020-08-02T07:15:43Z</time>
      </trkpt>
      <trkpt lat="47.26691" lon="-0.48621">
        <ele>81.2</ele>
        <time>2020-08-02T07:15:47Z</time>
      </trkpt>
      <trkpt lat="47.26693" lon="-0.48617">
        <ele>81.2</ele>
        <time>2020-08-02T07:15:48Z</time>
      </trkpt>
      <trkpt lat="47.26694" lon="-0.48612">
        <ele>81.2</ele>
        <time>2020-08-02T07:15:49Z</time>
      </trkpt>
      <trkpt lat="47.267" lon="-0.4859">
        <ele>81.2</ele>
        <time>2020-08-02T07:15:53Z</time>
      </trkpt>
      <trkpt lat="47.2671" lon="-0.4855">
        <ele>80.4</ele>
        <time>2020-08-02T07:15:58Z</time>
      </trkpt>
      <trkpt lat="47.2672" lon="-0.48508">
        <ele>79</ele>
        <time>2020-08-02T07:16:02Z</time>
      </trkpt>
      <trkpt lat="47.26723" lon="-0.48497">
        <ele>78.6</ele>
        <time>2020-08-02T07:16:03Z</time>
      </trkpt>
      <trkpt lat="47.26727" lon="-0.48487">
        <ele>78</ele>
        <time>2020-08-02T07:16:04Z</time>
      </trkpt>
      <trkpt lat="47.26731" lon="-0.48476">
        <ele>78</ele>
        <time>2020-08-02T07:16:05Z</time>
      </trkpt>
      <trkpt lat="47.26745" lon="-0.48446">
        <ele>76.4</ele>
        <time>2020-08-02T07:16:08Z</time>
      </trkpt>
      <trkpt lat="47.26749" lon="-0.48436">
        <ele>75.4</ele>
        <time>2020-08-02T07:16:09Z</time>
      </trkpt>
      <trkpt lat="47.26754" lon="-0.48426">
        <ele>75.2</ele>
        <time>2020-08-02T07:16:10Z</time>
      </trkpt>
      <trkpt lat="47.26764" lon="-0.48408">
        <ele>73.6</ele>
        <time>2020-08-02T07:16:12Z</time>
      </trkpt>
      <trkpt lat="47.26778" lon="-0.48382">
        <ele>72.8</ele>
        <time>2020-08-02T07:16:15Z</time>
      </trkpt>
      <trkpt lat="47.26782" lon="-0.48376">
        <ele>72.2</ele>
        <time>2020-08-02T07:16:16Z</time>
      </trkpt>
      <trkpt lat="47.26786" lon="-0.48372">
        <ele>72</ele>
        <time>2020-08-02T07:16:17Z</time>
      </trkpt>
      <trkpt lat="47.26789" lon="-0.48369">
        <ele>71.8</ele>
        <time>2020-08-02T07:16:18Z</time>
      </trkpt>
      <trkpt lat="47.26793" lon="-0.48367">
        <ele>71.4</ele>
        <time>2020-08-02T07:16:19Z</time>
      </trkpt>
      <trkpt lat="47.26795" lon="-0.48365">
        <ele>71.2</ele>
        <time>2020-08-02T07:16:20Z</time>
      </trkpt>
      <trkpt lat="47.26796" lon="-0.48363">
        <ele>71</ele>
        <time>2020-08-02T07:16:21Z</time>
      </trkpt>
      <trkpt lat="47.26797" lon="-0.48361">
        <ele>71</ele>
        <time>2020-08-02T07:16:22Z</time>
      </trkpt>
      <trkpt lat="47.26797" lon="-0.48359">
        <ele>71</ele>
        <time>2020-08-02T07:16:23Z</time>
      </trkpt>
      <trkpt lat="47.26798" lon="-0.48356">
        <ele>71</ele>
        <time>2020-08-02T07:16:24Z</time>
      </trkpt>
      <trkpt lat="47.26798" lon="-0.48352">
        <ele>71</ele>
        <time>2020-08-02T07:16:25Z</time>
      </trkpt>
      <trkpt lat="47.26798" lon="-0.48348">
        <ele>71</ele>
        <time>2020-08-02T07:16:26Z</time>
      </trkpt>
      <trkpt lat="47.26799" lon="-0.48343">
        <ele>71</ele>
        <time>2020-08-02T07:16:27Z</time>
      </trkpt>
      <trkpt lat="47.268" lon="-0.48338">
        <ele>71</ele>
        <time>2020-08-02T07:16:28Z</time>
      </trkpt>
      <trkpt lat="47.26806" lon="-0.48307">
        <ele>71</ele>
        <time>2020-08-02T07:16:34Z</time>
      </trkpt>
      <trkpt lat="47.26806" lon="-0.48302">
        <ele>70.8</ele>
        <time>2020-08-02T07:16:35Z</time>
      </trkpt>
      <trkpt lat="47.26811" lon="-0.48275">
        <ele>69.8</ele>
        <time>2020-08-02T07:16:40Z</time>
      </trkpt>
      <trkpt lat="47.26813" lon="-0.48265">
        <ele>69.4</ele>
        <time>2020-08-02T07:16:42Z</time>
      </trkpt>
      <trkpt lat="47.26814" lon="-0.4826">
        <ele>69.2</ele>
        <time>2020-08-02T07:16:43Z</time>
      </trkpt>
      <trkpt lat="47.26815" lon="-0.48256">
        <ele>69.2</ele>
        <time>2020-08-02T07:16:44Z</time>
      </trkpt>
      <trkpt lat="47.26816" lon="-0.48252">
        <ele>69</ele>
        <time>2020-08-02T07:16:45Z</time>
      </trkpt>
      <trkpt lat="47.26816" lon="-0.48247">
        <ele>69</ele>
        <time>2020-08-02T07:16:46Z</time>
      </trkpt>
      <trkpt lat="47.26816" lon="-0.48243">
        <ele>69</ele>
        <time>2020-08-02T07:16:47Z</time>
      </trkpt>
      <trkpt lat="47.26816" lon="-0.48239">
        <ele>69.2</ele>
        <time>2020-08-02T07:16:48Z</time>
      </trkpt>
      <trkpt lat="47.26814" lon="-0.48235">
        <ele>69.2</ele>
        <time>2020-08-02T07:16:49Z</time>
      </trkpt>
      <trkpt lat="47.26812" lon="-0.48231">
        <ele>69.2</ele>
        <time>2020-08-02T07:16:50Z</time>
      </trkpt>
      <trkpt lat="47.2681" lon="-0.48228">
        <ele>69.2</ele>
        <time>2020-08-02T07:16:51Z</time>
      </trkpt>
      <trkpt lat="47.26809" lon="-0.48224">
        <ele>69.2</ele>
        <time>2020-08-02T07:16:52Z</time>
      </trkpt>
      <trkpt lat="47.26807" lon="-0.4822">
        <ele>69.4</ele>
        <time>2020-08-02T07:16:53Z</time>
      </trkpt>
      <trkpt lat="47.26806" lon="-0.48217">
        <ele>69.6</ele>
        <time>2020-08-02T07:16:54Z</time>
      </trkpt>
      <trkpt lat="47.26795" lon="-0.48191">
        <ele>69.8</ele>
        <time>2020-08-02T07:17:00Z</time>
      </trkpt>
      <trkpt lat="47.26789" lon="-0.48173">
        <ele>70.4</ele>
        <time>2020-08-02T07:17:04Z</time>
      </trkpt>
      <trkpt lat="47.26787" lon="-0.48169">
        <ele>70.4</ele>
        <time>2020-08-02T07:17:05Z</time>
      </trkpt>
      <trkpt lat="47.26785" lon="-0.48165">
        <ele>70.6</ele>
        <time>2020-08-02T07:17:06Z</time>
      </trkpt>
      <trkpt lat="47.26783" lon="-0.48161">
        <ele>71</ele>
        <time>2020-08-02T07:17:07Z</time>
      </trkpt>
      <trkpt lat="47.26782" lon="-0.48157">
        <ele>71.2</ele>
        <time>2020-08-02T07:17:08Z</time>
      </trkpt>
      <trkpt lat="47.2678" lon="-0.48153">
        <ele>71.6</ele>
        <time>2020-08-02T07:17:09Z</time>
      </trkpt>
      <trkpt lat="47.26779" lon="-0.48148">
        <ele>71.8</ele>
        <time>2020-08-02T07:17:10Z</time>
      </trkpt>
      <trkpt lat="47.26777" lon="-0.48144">
        <ele>72.2</ele>
        <time>2020-08-02T07:17:11Z</time>
      </trkpt>
      <trkpt lat="47.26776" lon="-0.48139">
        <ele>72.4</ele>
        <time>2020-08-02T07:17:12Z</time>
      </trkpt>
      <trkpt lat="47.26774" lon="-0.48134">
        <ele>72.6</ele>
        <time>2020-08-02T07:17:13Z</time>
      </trkpt>
      <trkpt lat="47.26773" lon="-0.4813">
        <ele>73</ele>
        <time>2020-08-02T07:17:14Z</time>
      </trkpt>
      <trkpt lat="47.26771" lon="-0.48125">
        <ele>73.2</ele>
        <time>2020-08-02T07:17:15Z</time>
      </trkpt>
      <trkpt lat="47.2677" lon="-0.48121">
        <ele>73.8</ele>
        <time>2020-08-02T07:17:16Z</time>
      </trkpt>
      <trkpt lat="47.2677" lon="-0.48116">
        <ele>74</ele>
        <time>2020-08-02T07:17:17Z</time>
      </trkpt>
      <trkpt lat="47.26769" lon="-0.48111">
        <ele>74.4</ele>
        <time>2020-08-02T07:17:18Z</time>
      </trkpt>
      <trkpt lat="47.26768" lon="-0.48107">
        <ele>74.6</ele>
        <time>2020-08-02T07:17:19Z</time>
      </trkpt>
      <trkpt lat="47.26768" lon="-0.48102">
        <ele>74.8</ele>
        <time>2020-08-02T07:17:20Z</time>
      </trkpt>
      <trkpt lat="47.26767" lon="-0.48097">
        <ele>75.2</ele>
        <time>2020-08-02T07:17:21Z</time>
      </trkpt>
      <trkpt lat="47.26767" lon="-0.48092">
        <ele>75.4</ele>
        <time>2020-08-02T07:17:22Z</time>
      </trkpt>
      <trkpt lat="47.26767" lon="-0.48087">
        <ele>76</ele>
        <time>2020-08-02T07:17:23Z</time>
      </trkpt>
      <trkpt lat="47.26766" lon="-0.48083">
        <ele>76.2</ele>
        <time>2020-08-02T07:17:24Z</time>
      </trkpt>
      <trkpt lat="47.26766" lon="-0.48078">
        <ele>76.4</ele>
        <time>2020-08-02T07:17:25Z</time>
      </trkpt>
      <trkpt lat="47.26766" lon="-0.48073">
        <ele>76.8</ele>
        <time>2020-08-02T07:17:26Z</time>
      </trkpt>
      <trkpt lat="47.26766" lon="-0.48069">
        <ele>77</ele>
        <time>2020-08-02T07:17:27Z</time>
      </trkpt>
      <trkpt lat="47.26766" lon="-0.48064">
        <ele>77.4</ele>
        <time>2020-08-02T07:17:28Z</time>
      </trkpt>
      <trkpt lat="47.26765" lon="-0.4806">
        <ele>77.6</ele>
        <time>2020-08-02T07:17:29Z</time>
      </trkpt>
      <trkpt lat="47.26765" lon="-0.48055">
        <ele>78</ele>
        <time>2020-08-02T07:17:30Z</time>
      </trkpt>
      <trkpt lat="47.26765" lon="-0.48051">
        <ele>78.2</ele>
        <time>2020-08-02T07:17:31Z</time>
      </trkpt>
      <trkpt lat="47.26764" lon="-0.48046">
        <ele>78.2</ele>
        <time>2020-08-02T07:17:32Z</time>
      </trkpt>
      <trkpt lat="47.26764" lon="-0.48042">
        <ele>78.4</ele>
        <time>2020-08-02T07:17:33Z</time>
      </trkpt>
      <trkpt lat="47.26763" lon="-0.48037">
        <ele>78.6</ele>
        <time>2020-08-02T07:17:34Z</time>
      </trkpt>
      <trkpt lat="47.26763" lon="-0.48033">
        <ele>78.8</ele>
        <time>2020-08-02T07:17:35Z</time>
      </trkpt>
      <trkpt lat="47.26762" lon="-0.48028">
        <ele>79</ele>
        <time>2020-08-02T07:17:36Z</time>
      </trkpt>
      <trkpt lat="47.26762" lon="-0.48024">
        <ele>78.8</ele>
        <time>2020-08-02T07:17:37Z</time>
      </trkpt>
      <trkpt lat="47.26762" lon="-0.48019">
        <ele>79</ele>
        <time>2020-08-02T07:17:38Z</time>
      </trkpt>
      <trkpt lat="47.26762" lon="-0.48015">
        <ele>79.2</ele>
        <time>2020-08-02T07:17:39Z</time>
      </trkpt>
      <trkpt lat="47.26761" lon="-0.4801">
        <ele>79.4</ele>
        <time>2020-08-02T07:17:40Z</time>
      </trkpt>
      <trkpt lat="47.26761" lon="-0.48006">
        <ele>79.6</ele>
        <time>2020-08-02T07:17:41Z</time>
      </trkpt>
      <trkpt lat="47.26761" lon="-0.48002">
        <ele>79.8</ele>
        <time>2020-08-02T07:17:42Z</time>
      </trkpt>
      <trkpt lat="47.2676" lon="-0.47998">
        <ele>79.8</ele>
        <time>2020-08-02T07:17:43Z</time>
      </trkpt>
      <trkpt lat="47.2676" lon="-0.47993">
        <ele>80</ele>
        <time>2020-08-02T07:17:44Z</time>
      </trkpt>
      <trkpt lat="47.2676" lon="-0.47989">
        <ele>80</ele>
        <time>2020-08-02T07:17:45Z</time>
      </trkpt>
      <trkpt lat="47.2676" lon="-0.47985">
        <ele>80</ele>
        <time>2020-08-02T07:17:46Z</time>
      </trkpt>
      <trkpt lat="47.26759" lon="-0.47981">
        <ele>80.6</ele>
        <time>2020-08-02T07:17:47Z</time>
      </trkpt>
      <trkpt lat="47.26759" lon="-0.47977">
        <ele>80.6</ele>
        <time>2020-08-02T07:17:48Z</time>
      </trkpt>
      <trkpt lat="47.26759" lon="-0.47972">
        <ele>80.8</ele>
        <time>2020-08-02T07:17:49Z</time>
      </trkpt>
      <trkpt lat="47.26759" lon="-0.47968">
        <ele>80.8</ele>
        <time>2020-08-02T07:17:50Z</time>
      </trkpt>
      <trkpt lat="47.26758" lon="-0.47964">
        <ele>81</ele>
        <time>2020-08-02T07:17:51Z</time>
      </trkpt>
      <trkpt lat="47.26758" lon="-0.4796">
        <ele>81</ele>
        <time>2020-08-02T07:17:52Z</time>
      </trkpt>
      <trkpt lat="47.26758" lon="-0.47956">
        <ele>81</ele>
        <time>2020-08-02T07:17:53Z</time>
      </trkpt>
      <trkpt lat="47.26757" lon="-0.47953">
        <ele>81.2</ele>
        <time>2020-08-02T07:17:54Z</time>
      </trkpt>
      <trkpt lat="47.26757" lon="-0.47949">
        <ele>81.2</ele>
        <time>2020-08-02T07:17:55Z</time>
      </trkpt>
      <trkpt lat="47.26757" lon="-0.47945">
        <ele>81</ele>
        <time>2020-08-02T07:17:56Z</time>
      </trkpt>
      <trkpt lat="47.26756" lon="-0.47941">
        <ele>81.2</ele>
        <time>2020-08-02T07:17:57Z</time>
      </trkpt>
      <trkpt lat="47.26756" lon="-0.47937">
        <ele>81.2</ele>
        <time>2020-08-02T07:17:58Z</time>
      </trkpt>
      <trkpt lat="47.26756" lon="-0.47933">
        <ele>81.4</ele>
        <time>2020-08-02T07:17:59Z</time>
      </trkpt>
      <trkpt lat="47.26755" lon="-0.47925">
        <ele>81.4</ele>
        <time>2020-08-02T07:18:01Z</time>
      </trkpt>
      <trkpt lat="47.26754" lon="-0.47916">
        <ele>81.6</ele>
        <time>2020-08-02T07:18:03Z</time>
      </trkpt>
      <trkpt lat="47.26752" lon="-0.47904">
        <ele>81.6</ele>
        <time>2020-08-02T07:18:06Z</time>
      </trkpt>
      <trkpt lat="47.26752" lon="-0.479">
        <ele>81.8</ele>
        <time>2020-08-02T07:18:07Z</time>
      </trkpt>
      <trkpt lat="47.26751" lon="-0.47891">
        <ele>82</ele>
        <time>2020-08-02T07:18:09Z</time>
      </trkpt>
      <trkpt lat="47.2675" lon="-0.47887">
        <ele>82</ele>
        <time>2020-08-02T07:18:10Z</time>
      </trkpt>
      <trkpt lat="47.2675" lon="-0.47883">
        <ele>82.2</ele>
        <time>2020-08-02T07:18:11Z</time>
      </trkpt>
      <trkpt lat="47.26749" lon="-0.47879">
        <ele>82.2</ele>
        <time>2020-08-02T07:18:12Z</time>
      </trkpt>
      <trkpt lat="47.26748" lon="-0.47875">
        <ele>82.2</ele>
        <time>2020-08-02T07:18:13Z</time>
      </trkpt>
      <trkpt lat="47.26748" lon="-0.4787">
        <ele>82.4</ele>
        <time>2020-08-02T07:18:14Z</time>
      </trkpt>
      <trkpt lat="47.26747" lon="-0.47866">
        <ele>82.4</ele>
        <time>2020-08-02T07:18:15Z</time>
      </trkpt>
      <trkpt lat="47.26747" lon="-0.47861">
        <ele>82.6</ele>
        <time>2020-08-02T07:18:16Z</time>
      </trkpt>
      <trkpt lat="47.26746" lon="-0.47853">
        <ele>82.6</ele>
        <time>2020-08-02T07:18:18Z</time>
      </trkpt>
      <trkpt lat="47.26746" lon="-0.47844">
        <ele>82.8</ele>
        <time>2020-08-02T07:18:20Z</time>
      </trkpt>
      <trkpt lat="47.26745" lon="-0.47836">
        <ele>83</ele>
        <time>2020-08-02T07:18:22Z</time>
      </trkpt>
      <trkpt lat="47.26744" lon="-0.47823">
        <ele>83.4</ele>
        <time>2020-08-02T07:18:25Z</time>
      </trkpt>
      <trkpt lat="47.26743" lon="-0.47819">
        <ele>83.6</ele>
        <time>2020-08-02T07:18:26Z</time>
      </trkpt>
      <trkpt lat="47.26743" lon="-0.47815">
        <ele>83.6</ele>
        <time>2020-08-02T07:18:27Z</time>
      </trkpt>
      <trkpt lat="47.26742" lon="-0.4781">
        <ele>83.4</ele>
        <time>2020-08-02T07:18:28Z</time>
      </trkpt>
      <trkpt lat="47.26739" lon="-0.47788">
        <ele>83.8</ele>
        <time>2020-08-02T07:18:33Z</time>
      </trkpt>
      <trkpt lat="47.26739" lon="-0.47783">
        <ele>83.8</ele>
        <time>2020-08-02T07:18:34Z</time>
      </trkpt>
      <trkpt lat="47.26735" lon="-0.4774">
        <ele>83.8</ele>
        <time>2020-08-02T07:18:43Z</time>
      </trkpt>
      <trkpt lat="47.26734" lon="-0.47724">
        <ele>83.8</ele>
        <time>2020-08-02T07:18:46Z</time>
      </trkpt>
      <trkpt lat="47.26732" lon="-0.47701">
        <ele>83.2</ele>
        <time>2020-08-02T07:18:50Z</time>
      </trkpt>
      <trkpt lat="47.2673" lon="-0.47676">
        <ele>83</ele>
        <time>2020-08-02T07:18:54Z</time>
      </trkpt>
      <trkpt lat="47.26727" lon="-0.47642">
        <ele>82.2</ele>
        <time>2020-08-02T07:18:59Z</time>
      </trkpt>
      <trkpt lat="47.26727" lon="-0.47634">
        <ele>82</ele>
        <time>2020-08-02T07:19:00Z</time>
      </trkpt>
      <trkpt lat="47.26728" lon="-0.47592">
        <ele>81.4</ele>
        <time>2020-08-02T07:19:05Z</time>
      </trkpt>
      <trkpt lat="47.26729" lon="-0.47583">
        <ele>81.2</ele>
        <time>2020-08-02T07:19:06Z</time>
      </trkpt>
      <trkpt lat="47.2673" lon="-0.47574">
        <ele>81</ele>
        <time>2020-08-02T07:19:07Z</time>
      </trkpt>
      <trkpt lat="47.26734" lon="-0.47518">
        <ele>80</ele>
        <time>2020-08-02T07:19:13Z</time>
      </trkpt>
      <trkpt lat="47.26735" lon="-0.47509">
        <ele>79.6</ele>
        <time>2020-08-02T07:19:14Z</time>
      </trkpt>
      <trkpt lat="47.26735" lon="-0.47467">
        <ele>78.6</ele>
        <time>2020-08-02T07:19:18Z</time>
      </trkpt>
      <trkpt lat="47.26734" lon="-0.47439">
        <ele>77.8</ele>
        <time>2020-08-02T07:19:21Z</time>
      </trkpt>
      <trkpt lat="47.26733" lon="-0.4743">
        <ele>77.8</ele>
        <time>2020-08-02T07:19:22Z</time>
      </trkpt>
      <trkpt lat="47.26733" lon="-0.47422">
        <ele>77.8</ele>
        <time>2020-08-02T07:19:23Z</time>
      </trkpt>
      <trkpt lat="47.26733" lon="-0.47415">
        <ele>77.8</ele>
        <time>2020-08-02T07:19:24Z</time>
      </trkpt>
      <trkpt lat="47.26732" lon="-0.47407">
        <ele>77.6</ele>
        <time>2020-08-02T07:19:25Z</time>
      </trkpt>
      <trkpt lat="47.26732" lon="-0.47399">
        <ele>77.6</ele>
        <time>2020-08-02T07:19:26Z</time>
      </trkpt>
      <trkpt lat="47.26732" lon="-0.47392">
        <ele>77.6</ele>
        <time>2020-08-02T07:19:27Z</time>
      </trkpt>
      <trkpt lat="47.26733" lon="-0.47386">
        <ele>77.6</ele>
        <time>2020-08-02T07:19:28Z</time>
      </trkpt>
      <trkpt lat="47.26735" lon="-0.4738">
        <ele>77.6</ele>
        <time>2020-08-02T07:19:29Z</time>
      </trkpt>
      <trkpt lat="47.26736" lon="-0.47373">
        <ele>77.6</ele>
        <time>2020-08-02T07:19:30Z</time>
      </trkpt>
      <trkpt lat="47.26738" lon="-0.47367">
        <ele>77.8</ele>
        <time>2020-08-02T07:19:31Z</time>
      </trkpt>
      <trkpt lat="47.26739" lon="-0.47362">
        <ele>77.8</ele>
        <time>2020-08-02T07:19:32Z</time>
      </trkpt>
      <trkpt lat="47.26741" lon="-0.47356">
        <ele>78</ele>
        <time>2020-08-02T07:19:33Z</time>
      </trkpt>
      <trkpt lat="47.26742" lon="-0.47351">
        <ele>78</ele>
        <time>2020-08-02T07:19:34Z</time>
      </trkpt>
      <trkpt lat="47.26743" lon="-0.47346">
        <ele>78.2</ele>
        <time>2020-08-02T07:19:35Z</time>
      </trkpt>
      <trkpt lat="47.26744" lon="-0.47341">
        <ele>78.4</ele>
        <time>2020-08-02T07:19:36Z</time>
      </trkpt>
      <trkpt lat="47.26746" lon="-0.47336">
        <ele>78.8</ele>
        <time>2020-08-02T07:19:37Z</time>
      </trkpt>
      <trkpt lat="47.26747" lon="-0.47332">
        <ele>79.2</ele>
        <time>2020-08-02T07:19:38Z</time>
      </trkpt>
      <trkpt lat="47.26749" lon="-0.47327">
        <ele>79.4</ele>
        <time>2020-08-02T07:19:39Z</time>
      </trkpt>
      <trkpt lat="47.2675" lon="-0.47323">
        <ele>79.6</ele>
        <time>2020-08-02T07:19:40Z</time>
      </trkpt>
      <trkpt lat="47.26752" lon="-0.47318">
        <ele>79.8</ele>
        <time>2020-08-02T07:19:41Z</time>
      </trkpt>
      <trkpt lat="47.26754" lon="-0.47314">
        <ele>79.8</ele>
        <time>2020-08-02T07:19:42Z</time>
      </trkpt>
      <trkpt lat="47.26755" lon="-0.47309">
        <ele>80.4</ele>
        <time>2020-08-02T07:19:43Z</time>
      </trkpt>
      <trkpt lat="47.26757" lon="-0.47305">
        <ele>80.4</ele>
        <time>2020-08-02T07:19:44Z</time>
      </trkpt>
      <trkpt lat="47.26759" lon="-0.473">
        <ele>80.8</ele>
        <time>2020-08-02T07:19:45Z</time>
      </trkpt>
      <trkpt lat="47.26761" lon="-0.47295">
        <ele>81</ele>
        <time>2020-08-02T07:19:46Z</time>
      </trkpt>
      <trkpt lat="47.26763" lon="-0.47289">
        <ele>81.4</ele>
        <time>2020-08-02T07:19:47Z</time>
      </trkpt>
      <trkpt lat="47.26764" lon="-0.47285">
        <ele>81.6</ele>
        <time>2020-08-02T07:19:48Z</time>
      </trkpt>
      <trkpt lat="47.26766" lon="-0.47281">
        <ele>81.8</ele>
        <time>2020-08-02T07:19:49Z</time>
      </trkpt>
      <trkpt lat="47.26767" lon="-0.47276">
        <ele>82</ele>
        <time>2020-08-02T07:19:50Z</time>
      </trkpt>
      <trkpt lat="47.26769" lon="-0.47272">
        <ele>82.2</ele>
        <time>2020-08-02T07:19:51Z</time>
      </trkpt>
      <trkpt lat="47.2677" lon="-0.47268">
        <ele>82.4</ele>
        <time>2020-08-02T07:19:52Z</time>
      </trkpt>
      <trkpt lat="47.26771" lon="-0.47263">
        <ele>82.6</ele>
        <time>2020-08-02T07:19:53Z</time>
      </trkpt>
      <trkpt lat="47.26773" lon="-0.47258">
        <ele>83</ele>
        <time>2020-08-02T07:19:54Z</time>
      </trkpt>
      <trkpt lat="47.26774" lon="-0.47254">
        <ele>83.2</ele>
        <time>2020-08-02T07:19:55Z</time>
      </trkpt>
      <trkpt lat="47.26776" lon="-0.4725">
        <ele>83.4</ele>
        <time>2020-08-02T07:19:56Z</time>
      </trkpt>
      <trkpt lat="47.26778" lon="-0.47246">
        <ele>83.6</ele>
        <time>2020-08-02T07:19:57Z</time>
      </trkpt>
      <trkpt lat="47.2678" lon="-0.47242">
        <ele>83.6</ele>
        <time>2020-08-02T07:19:58Z</time>
      </trkpt>
      <trkpt lat="47.26782" lon="-0.47238">
        <ele>84</ele>
        <time>2020-08-02T07:19:59Z</time>
      </trkpt>
      <trkpt lat="47.26783" lon="-0.47233">
        <ele>84</ele>
        <time>2020-08-02T07:20:00Z</time>
      </trkpt>
      <trkpt lat="47.26783" lon="-0.4723">
        <ele>84.2</ele>
        <time>2020-08-02T07:20:01Z</time>
      </trkpt>
      <trkpt lat="47.26782" lon="-0.47227">
        <ele>84.4</ele>
        <time>2020-08-02T07:20:02Z</time>
      </trkpt>
      <trkpt lat="47.2678" lon="-0.47224">
        <ele>84.4</ele>
        <time>2020-08-02T07:20:03Z</time>
      </trkpt>
      <trkpt lat="47.26778" lon="-0.47222">
        <ele>84.6</ele>
        <time>2020-08-02T07:20:04Z</time>
      </trkpt>
      <trkpt lat="47.26776" lon="-0.47219">
        <ele>84.6</ele>
        <time>2020-08-02T07:20:05Z</time>
      </trkpt>
      <trkpt lat="47.26774" lon="-0.47215">
        <ele>84.6</ele>
        <time>2020-08-02T07:20:06Z</time>
      </trkpt>
      <trkpt lat="47.26772" lon="-0.47211">
        <ele>84.6</ele>
        <time>2020-08-02T07:20:07Z</time>
      </trkpt>
      <trkpt lat="47.26769" lon="-0.47209">
        <ele>84.6</ele>
        <time>2020-08-02T07:20:08Z</time>
      </trkpt>
      <trkpt lat="47.26767" lon="-0.47207">
        <ele>84.6</ele>
        <time>2020-08-02T07:20:09Z</time>
      </trkpt>
      <trkpt lat="47.26765" lon="-0.47205">
        <ele>84.6</ele>
        <time>2020-08-02T07:20:10Z</time>
      </trkpt>
      <trkpt lat="47.26753" lon="-0.47194">
        <ele>84.2</ele>
        <time>2020-08-02T07:20:14Z</time>
      </trkpt>
      <trkpt lat="47.26748" lon="-0.4719">
        <ele>84</ele>
        <time>2020-08-02T07:20:16Z</time>
      </trkpt>
      <trkpt lat="47.26742" lon="-0.47187">
        <ele>83.6</ele>
        <time>2020-08-02T07:20:18Z</time>
      </trkpt>
      <trkpt lat="47.26738" lon="-0.47185">
        <ele>83.4</ele>
        <time>2020-08-02T07:20:19Z</time>
      </trkpt>
      <trkpt lat="47.26731" lon="-0.47181">
        <ele>83.2</ele>
        <time>2020-08-02T07:20:21Z</time>
      </trkpt>
      <trkpt lat="47.26728" lon="-0.47178">
        <ele>83</ele>
        <time>2020-08-02T07:20:22Z</time>
      </trkpt>
      <trkpt lat="47.26724" lon="-0.47175">
        <ele>82.8</ele>
        <time>2020-08-02T07:20:23Z</time>
      </trkpt>
      <trkpt lat="47.26721" lon="-0.47172">
        <ele>82.6</ele>
        <time>2020-08-02T07:20:24Z</time>
      </trkpt>
      <trkpt lat="47.26715" lon="-0.47165">
        <ele>82.4</ele>
        <time>2020-08-02T07:20:26Z</time>
      </trkpt>
      <trkpt lat="47.26713" lon="-0.47162">
        <ele>82.4</ele>
        <time>2020-08-02T07:20:27Z</time>
      </trkpt>
      <trkpt lat="47.2671" lon="-0.47158">
        <ele>82.4</ele>
        <time>2020-08-02T07:20:28Z</time>
      </trkpt>
      <trkpt lat="47.26708" lon="-0.47155">
        <ele>82.4</ele>
        <time>2020-08-02T07:20:29Z</time>
      </trkpt>
      <trkpt lat="47.26706" lon="-0.47151">
        <ele>82.4</ele>
        <time>2020-08-02T07:20:30Z</time>
      </trkpt>
      <trkpt lat="47.26704" lon="-0.47147">
        <ele>82.8</ele>
        <time>2020-08-02T07:20:31Z</time>
      </trkpt>
      <trkpt lat="47.26703" lon="-0.47143">
        <ele>82.8</ele>
        <time>2020-08-02T07:20:32Z</time>
      </trkpt>
      <trkpt lat="47.26701" lon="-0.47139">
        <ele>82.8</ele>
        <time>2020-08-02T07:20:33Z</time>
      </trkpt>
      <trkpt lat="47.26699" lon="-0.47136">
        <ele>83</ele>
        <time>2020-08-02T07:20:34Z</time>
      </trkpt>
      <trkpt lat="47.26698" lon="-0.47132">
        <ele>83.2</ele>
        <time>2020-08-02T07:20:35Z</time>
      </trkpt>
      <trkpt lat="47.26696" lon="-0.47128">
        <ele>83.2</ele>
        <time>2020-08-02T07:20:36Z</time>
      </trkpt>
      <trkpt lat="47.26695" lon="-0.47124">
        <ele>83.4</ele>
        <time>2020-08-02T07:20:37Z</time>
      </trkpt>
      <trkpt lat="47.26693" lon="-0.47121">
        <ele>83.4</ele>
        <time>2020-08-02T07:20:38Z</time>
      </trkpt>
      <trkpt lat="47.26691" lon="-0.47118">
        <ele>83.6</ele>
        <time>2020-08-02T07:20:39Z</time>
      </trkpt>
      <trkpt lat="47.2669" lon="-0.47115">
        <ele>83.6</ele>
        <time>2020-08-02T07:20:40Z</time>
      </trkpt>
      <trkpt lat="47.26688" lon="-0.47113">
        <ele>83.6</ele>
        <time>2020-08-02T07:20:41Z</time>
      </trkpt>
      <trkpt lat="47.26686" lon="-0.47111">
        <ele>84</ele>
        <time>2020-08-02T07:20:42Z</time>
      </trkpt>
      <trkpt lat="47.26684" lon="-0.47111">
        <ele>84.2</ele>
        <time>2020-08-02T07:20:43Z</time>
      </trkpt>
      <trkpt lat="47.26682" lon="-0.47112">
        <ele>84.4</ele>
        <time>2020-08-02T07:20:44Z</time>
      </trkpt>
      <trkpt lat="47.26679" lon="-0.47115">
        <ele>84.4</ele>
        <time>2020-08-02T07:20:45Z</time>
      </trkpt>
      <trkpt lat="47.26678" lon="-0.47119">
        <ele>84.6</ele>
        <time>2020-08-02T07:20:46Z</time>
      </trkpt>
      <trkpt lat="47.26675" lon="-0.47123">
        <ele>84.8</ele>
        <time>2020-08-02T07:20:47Z</time>
      </trkpt>
      <trkpt lat="47.26672" lon="-0.47127">
        <ele>84.8</ele>
        <time>2020-08-02T07:20:48Z</time>
      </trkpt>
      <trkpt lat="47.26668" lon="-0.4713">
        <ele>84.8</ele>
        <time>2020-08-02T07:20:49Z</time>
      </trkpt>
      <trkpt lat="47.26665" lon="-0.47131">
        <ele>84.8</ele>
        <time>2020-08-02T07:20:50Z</time>
      </trkpt>
      <trkpt lat="47.26662" lon="-0.47132">
        <ele>84.8</ele>
        <time>2020-08-02T07:20:51Z</time>
      </trkpt>
      <trkpt lat="47.26658" lon="-0.47134">
        <ele>84.8</ele>
        <time>2020-08-02T07:20:52Z</time>
      </trkpt>
      <trkpt lat="47.26654" lon="-0.47135">
        <ele>84.8</ele>
        <time>2020-08-02T07:20:53Z</time>
      </trkpt>
      <trkpt lat="47.26646" lon="-0.47137">
        <ele>84.6</ele>
        <time>2020-08-02T07:20:55Z</time>
      </trkpt>
      <trkpt lat="47.26643" lon="-0.47138">
        <ele>84.8</ele>
        <time>2020-08-02T07:20:56Z</time>
      </trkpt>
      <trkpt lat="47.26625" lon="-0.47144">
        <ele>84.8</ele>
        <time>2020-08-02T07:21:01Z</time>
      </trkpt>
      <trkpt lat="47.26622" lon="-0.47146">
        <ele>84.8</ele>
        <time>2020-08-02T07:21:02Z</time>
      </trkpt>
      <trkpt lat="47.26617" lon="-0.47147">
        <ele>84.8</ele>
        <time>2020-08-02T07:21:03Z</time>
      </trkpt>
      <trkpt lat="47.26614" lon="-0.47148">
        <ele>85</ele>
        <time>2020-08-02T07:21:04Z</time>
      </trkpt>
      <trkpt lat="47.26611" lon="-0.47149">
        <ele>85</ele>
        <time>2020-08-02T07:21:05Z</time>
      </trkpt>
      <trkpt lat="47.26607" lon="-0.47151">
        <ele>85.2</ele>
        <time>2020-08-02T07:21:06Z</time>
      </trkpt>
      <trkpt lat="47.26604" lon="-0.47152">
        <ele>85</ele>
        <time>2020-08-02T07:21:07Z</time>
      </trkpt>
      <trkpt lat="47.266" lon="-0.47153">
        <ele>85</ele>
        <time>2020-08-02T07:21:08Z</time>
      </trkpt>
      <trkpt lat="47.26597" lon="-0.47154">
        <ele>85</ele>
        <time>2020-08-02T07:21:09Z</time>
      </trkpt>
      <trkpt lat="47.26593" lon="-0.47155">
        <ele>85</ele>
        <time>2020-08-02T07:21:10Z</time>
      </trkpt>
      <trkpt lat="47.26589" lon="-0.47157">
        <ele>85.2</ele>
        <time>2020-08-02T07:21:11Z</time>
      </trkpt>
      <trkpt lat="47.26586" lon="-0.47157">
        <ele>85.2</ele>
        <time>2020-08-02T07:21:12Z</time>
      </trkpt>
      <trkpt lat="47.26583" lon="-0.47158">
        <ele>85.2</ele>
        <time>2020-08-02T07:21:13Z</time>
      </trkpt>
      <trkpt lat="47.26579" lon="-0.47159">
        <ele>85.4</ele>
        <time>2020-08-02T07:21:14Z</time>
      </trkpt>
      <trkpt lat="47.26576" lon="-0.47159">
        <ele>85.4</ele>
        <time>2020-08-02T07:21:15Z</time>
      </trkpt>
      <trkpt lat="47.26573" lon="-0.4716">
        <ele>85.4</ele>
        <time>2020-08-02T07:21:16Z</time>
      </trkpt>
      <trkpt lat="47.26569" lon="-0.47163">
        <ele>85.4</ele>
        <time>2020-08-02T07:21:17Z</time>
      </trkpt>
      <trkpt lat="47.26568" lon="-0.47166">
        <ele>85.4</ele>
        <time>2020-08-02T07:21:18Z</time>
      </trkpt>
      <trkpt lat="47.26565" lon="-0.4717">
        <ele>85.6</ele>
        <time>2020-08-02T07:21:19Z</time>
      </trkpt>
      <trkpt lat="47.26562" lon="-0.47175">
        <ele>85.6</ele>
        <time>2020-08-02T07:21:20Z</time>
      </trkpt>
      <trkpt lat="47.26559" lon="-0.47179">
        <ele>85.6</ele>
        <time>2020-08-02T07:21:21Z</time>
      </trkpt>
      <trkpt lat="47.26557" lon="-0.47185">
        <ele>85.6</ele>
        <time>2020-08-02T07:21:22Z</time>
      </trkpt>
      <trkpt lat="47.26555" lon="-0.47192">
        <ele>85.4</ele>
        <time>2020-08-02T07:21:23Z</time>
      </trkpt>
      <trkpt lat="47.26553" lon="-0.472">
        <ele>85.4</ele>
        <time>2020-08-02T07:21:24Z</time>
      </trkpt>
      <trkpt lat="47.2655" lon="-0.47207">
        <ele>84.8</ele>
        <time>2020-08-02T07:21:25Z</time>
      </trkpt>
      <trkpt lat="47.26543" lon="-0.47221">
        <ele>84.4</ele>
        <time>2020-08-02T07:21:27Z</time>
      </trkpt>
      <trkpt lat="47.26539" lon="-0.47229">
        <ele>84</ele>
        <time>2020-08-02T07:21:28Z</time>
      </trkpt>
      <trkpt lat="47.26535" lon="-0.47236">
        <ele>84</ele>
        <time>2020-08-02T07:21:29Z</time>
      </trkpt>
      <trkpt lat="47.26521" lon="-0.47256">
        <ele>83</ele>
        <time>2020-08-02T07:21:32Z</time>
      </trkpt>
      <trkpt lat="47.26517" lon="-0.47262">
        <ele>82.4</ele>
        <time>2020-08-02T07:21:33Z</time>
      </trkpt>
      <trkpt lat="47.26508" lon="-0.47275">
        <ele>82</ele>
        <time>2020-08-02T07:21:35Z</time>
      </trkpt>
      <trkpt lat="47.26503" lon="-0.47281">
        <ele>81.8</ele>
        <time>2020-08-02T07:21:36Z</time>
      </trkpt>
      <trkpt lat="47.26496" lon="-0.47293">
        <ele>81.6</ele>
        <time>2020-08-02T07:21:38Z</time>
      </trkpt>
      <trkpt lat="47.26493" lon="-0.47299">
        <ele>81.4</ele>
        <time>2020-08-02T07:21:39Z</time>
      </trkpt>
      <trkpt lat="47.2649" lon="-0.47306">
        <ele>81.4</ele>
        <time>2020-08-02T07:21:40Z</time>
      </trkpt>
      <trkpt lat="47.26487" lon="-0.47311">
        <ele>81.4</ele>
        <time>2020-08-02T07:21:41Z</time>
      </trkpt>
      <trkpt lat="47.26483" lon="-0.47315">
        <ele>81.6</ele>
        <time>2020-08-02T07:21:42Z</time>
      </trkpt>
      <trkpt lat="47.26478" lon="-0.47317">
        <ele>81.6</ele>
        <time>2020-08-02T07:21:43Z</time>
      </trkpt>
      <trkpt lat="47.26474" lon="-0.47318">
        <ele>81.6</ele>
        <time>2020-08-02T07:21:44Z</time>
      </trkpt>
      <trkpt lat="47.26469" lon="-0.4732">
        <ele>81.6</ele>
        <time>2020-08-02T07:21:45Z</time>
      </trkpt>
      <trkpt lat="47.26465" lon="-0.4732">
        <ele>81.6</ele>
        <time>2020-08-02T07:21:46Z</time>
      </trkpt>
      <trkpt lat="47.26461" lon="-0.4732">
        <ele>81.8</ele>
        <time>2020-08-02T07:21:47Z</time>
      </trkpt>
      <trkpt lat="47.26459" lon="-0.4732">
        <ele>81.8</ele>
        <time>2020-08-02T07:21:48Z</time>
      </trkpt>
      <trkpt lat="47.26455" lon="-0.47318">
        <ele>82</ele>
        <time>2020-08-02T07:21:49Z</time>
      </trkpt>
      <trkpt lat="47.26453" lon="-0.47315">
        <ele>82.2</ele>
        <time>2020-08-02T07:21:50Z</time>
      </trkpt>
      <trkpt lat="47.2645" lon="-0.47311">
        <ele>82</ele>
        <time>2020-08-02T07:21:51Z</time>
      </trkpt>
      <trkpt lat="47.26446" lon="-0.47304">
        <ele>82.4</ele>
        <time>2020-08-02T07:21:53Z</time>
      </trkpt>
      <trkpt lat="47.26443" lon="-0.473">
        <ele>82.8</ele>
        <time>2020-08-02T07:21:54Z</time>
      </trkpt>
      <trkpt lat="47.26441" lon="-0.47296">
        <ele>83.2</ele>
        <time>2020-08-02T07:21:55Z</time>
      </trkpt>
      <trkpt lat="47.26438" lon="-0.47292">
        <ele>83.4</ele>
        <time>2020-08-02T07:21:56Z</time>
      </trkpt>
      <trkpt lat="47.26436" lon="-0.47288">
        <ele>83.8</ele>
        <time>2020-08-02T07:21:57Z</time>
      </trkpt>
      <trkpt lat="47.26434" lon="-0.47284">
        <ele>84</ele>
        <time>2020-08-02T07:21:58Z</time>
      </trkpt>
      <trkpt lat="47.26432" lon="-0.47281">
        <ele>84</ele>
        <time>2020-08-02T07:21:59Z</time>
      </trkpt>
      <trkpt lat="47.2643" lon="-0.47277">
        <ele>84.2</ele>
        <time>2020-08-02T07:22:00Z</time>
      </trkpt>
      <trkpt lat="47.26427" lon="-0.47275">
        <ele>84.4</ele>
        <time>2020-08-02T07:22:01Z</time>
      </trkpt>
      <trkpt lat="47.26424" lon="-0.47274">
        <ele>84.6</ele>
        <time>2020-08-02T07:22:02Z</time>
      </trkpt>
      <trkpt lat="47.26421" lon="-0.47274">
        <ele>84.8</ele>
        <time>2020-08-02T07:22:03Z</time>
      </trkpt>
      <trkpt lat="47.26419" lon="-0.47275">
        <ele>85</ele>
        <time>2020-08-02T07:22:04Z</time>
      </trkpt>
      <trkpt lat="47.26417" lon="-0.47278">
        <ele>85.2</ele>
        <time>2020-08-02T07:22:05Z</time>
      </trkpt>
      <trkpt lat="47.26415" lon="-0.4728">
        <ele>85.4</ele>
        <time>2020-08-02T07:22:06Z</time>
      </trkpt>
      <trkpt lat="47.26414" lon="-0.47282">
        <ele>85.6</ele>
        <time>2020-08-02T07:22:07Z</time>
      </trkpt>
      <trkpt lat="47.26413" lon="-0.47284">
        <ele>85.8</ele>
        <time>2020-08-02T07:22:08Z</time>
      </trkpt>
      <trkpt lat="47.26412" lon="-0.47284">
        <ele>85.8</ele>
        <time>2020-08-02T07:22:09Z</time>
      </trkpt>
      <trkpt lat="47.26412" lon="-0.47284">
        <ele>86</ele>
        <time>2020-08-02T07:22:10Z</time>
      </trkpt>
      <trkpt lat="47.26412" lon="-0.47284">
        <ele>86</ele>
        <time>2020-08-02T07:22:11Z</time>
      </trkpt>
      <trkpt lat="47.26413" lon="-0.47283">
        <ele>86.2</ele>
        <time>2020-08-02T07:22:17Z</time>
      </trkpt>
      <trkpt lat="47.26414" lon="-0.47282">
        <ele>86.2</ele>
        <time>2020-08-02T07:22:18Z</time>
      </trkpt>
      <trkpt lat="47.26415" lon="-0.47281">
        <ele>86.2</ele>
        <time>2020-08-02T07:22:19Z</time>
      </trkpt>
      <trkpt lat="47.26418" lon="-0.47277">
        <ele>86</ele>
        <time>2020-08-02T07:22:21Z</time>
      </trkpt>
      <trkpt lat="47.26418" lon="-0.47275">
        <ele>86.2</ele>
        <time>2020-08-02T07:22:22Z</time>
      </trkpt>
      <trkpt lat="47.26417" lon="-0.47275">
        <ele>87</ele>
        <time>2020-08-02T07:23:08Z</time>
      </trkpt>
      <trkpt lat="47.26416" lon="-0.47279">
        <ele>86.8</ele>
        <time>2020-08-02T07:23:09Z</time>
      </trkpt>
      <trkpt lat="47.26414" lon="-0.47282">
        <ele>86.8</ele>
        <time>2020-08-02T07:23:10Z</time>
      </trkpt>
      <trkpt lat="47.26409" lon="-0.47286">
        <ele>86.8</ele>
        <time>2020-08-02T07:23:12Z</time>
      </trkpt>
      <trkpt lat="47.26406" lon="-0.47289">
        <ele>86.6</ele>
        <time>2020-08-02T07:23:13Z</time>
      </trkpt>
      <trkpt lat="47.26403" lon="-0.47291">
        <ele>86.4</ele>
        <time>2020-08-02T07:23:14Z</time>
      </trkpt>
      <trkpt lat="47.26401" lon="-0.47294">
        <ele>86.4</ele>
        <time>2020-08-02T07:23:15Z</time>
      </trkpt>
      <trkpt lat="47.26399" lon="-0.47296">
        <ele>86.4</ele>
        <time>2020-08-02T07:23:16Z</time>
      </trkpt>
      <trkpt lat="47.26396" lon="-0.47299">
        <ele>86.2</ele>
        <time>2020-08-02T07:23:17Z</time>
      </trkpt>
      <trkpt lat="47.26394" lon="-0.47302">
        <ele>86.2</ele>
        <time>2020-08-02T07:23:18Z</time>
      </trkpt>
      <trkpt lat="47.26391" lon="-0.47304">
        <ele>86</ele>
        <time>2020-08-02T07:23:19Z</time>
      </trkpt>
      <trkpt lat="47.26388" lon="-0.47306">
        <ele>86</ele>
        <time>2020-08-02T07:23:20Z</time>
      </trkpt>
      <trkpt lat="47.26386" lon="-0.47309">
        <ele>86</ele>
        <time>2020-08-02T07:23:21Z</time>
      </trkpt>
      <trkpt lat="47.26381" lon="-0.47314">
        <ele>85.8</ele>
        <time>2020-08-02T07:23:23Z</time>
      </trkpt>
      <trkpt lat="47.26368" lon="-0.47328">
        <ele>85.4</ele>
        <time>2020-08-02T07:23:27Z</time>
      </trkpt>
      <trkpt lat="47.2635" lon="-0.47345">
        <ele>85</ele>
        <time>2020-08-02T07:23:32Z</time>
      </trkpt>
      <trkpt lat="47.26347" lon="-0.47348">
        <ele>84.8</ele>
        <time>2020-08-02T07:23:33Z</time>
      </trkpt>
      <trkpt lat="47.26343" lon="-0.47352">
        <ele>84.8</ele>
        <time>2020-08-02T07:23:34Z</time>
      </trkpt>
      <trkpt lat="47.26341" lon="-0.47354">
        <ele>84.6</ele>
        <time>2020-08-02T07:23:35Z</time>
      </trkpt>
      <trkpt lat="47.26339" lon="-0.47355">
        <ele>84.4</ele>
        <time>2020-08-02T07:23:36Z</time>
      </trkpt>
      <trkpt lat="47.26338" lon="-0.47355">
        <ele>84.2</ele>
        <time>2020-08-02T07:23:37Z</time>
      </trkpt>
      <trkpt lat="47.26336" lon="-0.47354">
        <ele>84</ele>
        <time>2020-08-02T07:23:38Z</time>
      </trkpt>
      <trkpt lat="47.26334" lon="-0.47351">
        <ele>84</ele>
        <time>2020-08-02T07:23:39Z</time>
      </trkpt>
      <trkpt lat="47.26333" lon="-0.47348">
        <ele>83.8</ele>
        <time>2020-08-02T07:23:40Z</time>
      </trkpt>
      <trkpt lat="47.26332" lon="-0.47345">
        <ele>83.8</ele>
        <time>2020-08-02T07:23:41Z</time>
      </trkpt>
      <trkpt lat="47.26331" lon="-0.47341">
        <ele>83.6</ele>
        <time>2020-08-02T07:23:42Z</time>
      </trkpt>
      <trkpt lat="47.26329" lon="-0.47336">
        <ele>83.6</ele>
        <time>2020-08-02T07:23:43Z</time>
      </trkpt>
      <trkpt lat="47.26328" lon="-0.47332">
        <ele>83.4</ele>
        <time>2020-08-02T07:23:44Z</time>
      </trkpt>
      <trkpt lat="47.26326" lon="-0.47327">
        <ele>83.4</ele>
        <time>2020-08-02T07:23:45Z</time>
      </trkpt>
      <trkpt lat="47.26323" lon="-0.47318">
        <ele>83.2</ele>
        <time>2020-08-02T07:23:47Z</time>
      </trkpt>
      <trkpt lat="47.26322" lon="-0.47313">
        <ele>83.2</ele>
        <time>2020-08-02T07:23:48Z</time>
      </trkpt>
      <trkpt lat="47.2632" lon="-0.47309">
        <ele>83</ele>
        <time>2020-08-02T07:23:49Z</time>
      </trkpt>
      <trkpt lat="47.26319" lon="-0.47304">
        <ele>83</ele>
        <time>2020-08-02T07:23:50Z</time>
      </trkpt>
      <trkpt lat="47.26313" lon="-0.47287">
        <ele>82.8</ele>
        <time>2020-08-02T07:23:54Z</time>
      </trkpt>
      <trkpt lat="47.26311" lon="-0.47283">
        <ele>82.8</ele>
        <time>2020-08-02T07:23:55Z</time>
      </trkpt>
      <trkpt lat="47.26292" lon="-0.47229">
        <ele>82.4</ele>
        <time>2020-08-02T07:24:05Z</time>
      </trkpt>
      <trkpt lat="47.26286" lon="-0.47212">
        <ele>81.8</ele>
        <time>2020-08-02T07:24:08Z</time>
      </trkpt>
      <trkpt lat="47.26283" lon="-0.47201">
        <ele>81.6</ele>
        <time>2020-08-02T07:24:10Z</time>
      </trkpt>
      <trkpt lat="47.26279" lon="-0.4719">
        <ele>81.4</ele>
        <time>2020-08-02T07:24:12Z</time>
      </trkpt>
      <trkpt lat="47.26277" lon="-0.47186">
        <ele>81.2</ele>
        <time>2020-08-02T07:24:13Z</time>
      </trkpt>
      <trkpt lat="47.26275" lon="-0.47179">
        <ele>80.8</ele>
        <time>2020-08-02T07:24:14Z</time>
      </trkpt>
      <trkpt lat="47.26273" lon="-0.47173">
        <ele>80.6</ele>
        <time>2020-08-02T07:24:15Z</time>
      </trkpt>
      <trkpt lat="47.26271" lon="-0.47168">
        <ele>80.4</ele>
        <time>2020-08-02T07:24:16Z</time>
      </trkpt>
      <trkpt lat="47.26269" lon="-0.47163">
        <ele>80.2</ele>
        <time>2020-08-02T07:24:17Z</time>
      </trkpt>
      <trkpt lat="47.26267" lon="-0.47157">
        <ele>80.2</ele>
        <time>2020-08-02T07:24:18Z</time>
      </trkpt>
      <trkpt lat="47.26265" lon="-0.47151">
        <ele>80</ele>
        <time>2020-08-02T07:24:19Z</time>
      </trkpt>
      <trkpt lat="47.26263" lon="-0.47146">
        <ele>79.8</ele>
        <time>2020-08-02T07:24:20Z</time>
      </trkpt>
      <trkpt lat="47.26261" lon="-0.4714">
        <ele>79.6</ele>
        <time>2020-08-02T07:24:21Z</time>
      </trkpt>
      <trkpt lat="47.26259" lon="-0.47135">
        <ele>79.4</ele>
        <time>2020-08-02T07:24:22Z</time>
      </trkpt>
      <trkpt lat="47.26252" lon="-0.47114">
        <ele>78.6</ele>
        <time>2020-08-02T07:24:26Z</time>
      </trkpt>
      <trkpt lat="47.26252" lon="-0.4711">
        <ele>78.4</ele>
        <time>2020-08-02T07:24:27Z</time>
      </trkpt>
      <trkpt lat="47.26252" lon="-0.47105">
        <ele>78.2</ele>
        <time>2020-08-02T07:24:28Z</time>
      </trkpt>
      <trkpt lat="47.26254" lon="-0.47101">
        <ele>78.2</ele>
        <time>2020-08-02T07:24:29Z</time>
      </trkpt>
      <trkpt lat="47.26256" lon="-0.47097">
        <ele>78</ele>
        <time>2020-08-02T07:24:30Z</time>
      </trkpt>
      <trkpt lat="47.26258" lon="-0.47094">
        <ele>77.8</ele>
        <time>2020-08-02T07:24:31Z</time>
      </trkpt>
      <trkpt lat="47.26262" lon="-0.47086">
        <ele>78</ele>
        <time>2020-08-02T07:24:33Z</time>
      </trkpt>
      <trkpt lat="47.26265" lon="-0.47083">
        <ele>77.8</ele>
        <time>2020-08-02T07:24:34Z</time>
      </trkpt>
      <trkpt lat="47.26269" lon="-0.47075">
        <ele>78</ele>
        <time>2020-08-02T07:24:36Z</time>
      </trkpt>
      <trkpt lat="47.26272" lon="-0.47072">
        <ele>78.2</ele>
        <time>2020-08-02T07:24:37Z</time>
      </trkpt>
      <trkpt lat="47.26277" lon="-0.47064">
        <ele>78.4</ele>
        <time>2020-08-02T07:24:39Z</time>
      </trkpt>
      <trkpt lat="47.26282" lon="-0.47057">
        <ele>78.6</ele>
        <time>2020-08-02T07:24:41Z</time>
      </trkpt>
      <trkpt lat="47.26287" lon="-0.47049">
        <ele>79</ele>
        <time>2020-08-02T07:24:43Z</time>
      </trkpt>
      <trkpt lat="47.2629" lon="-0.47045">
        <ele>79</ele>
        <time>2020-08-02T07:24:44Z</time>
      </trkpt>
      <trkpt lat="47.26293" lon="-0.47042">
        <ele>79.2</ele>
        <time>2020-08-02T07:24:45Z</time>
      </trkpt>
      <trkpt lat="47.26296" lon="-0.47038">
        <ele>79.6</ele>
        <time>2020-08-02T07:24:46Z</time>
      </trkpt>
      <trkpt lat="47.26299" lon="-0.47034">
        <ele>79.8</ele>
        <time>2020-08-02T07:24:47Z</time>
      </trkpt>
      <trkpt lat="47.26301" lon="-0.4703">
        <ele>79.8</ele>
        <time>2020-08-02T07:24:48Z</time>
      </trkpt>
      <trkpt lat="47.26304" lon="-0.47027">
        <ele>80</ele>
        <time>2020-08-02T07:24:49Z</time>
      </trkpt>
      <trkpt lat="47.26307" lon="-0.47023">
        <ele>80.4</ele>
        <time>2020-08-02T07:24:50Z</time>
      </trkpt>
      <trkpt lat="47.2631" lon="-0.4702">
        <ele>80.6</ele>
        <time>2020-08-02T07:24:51Z</time>
      </trkpt>
      <trkpt lat="47.26313" lon="-0.47016">
        <ele>80.8</ele>
        <time>2020-08-02T07:24:52Z</time>
      </trkpt>
      <trkpt lat="47.26316" lon="-0.47012">
        <ele>80.8</ele>
        <time>2020-08-02T07:24:53Z</time>
      </trkpt>
      <trkpt lat="47.26319" lon="-0.47009">
        <ele>81.2</ele>
        <time>2020-08-02T07:24:54Z</time>
      </trkpt>
      <trkpt lat="47.26322" lon="-0.47006">
        <ele>81</ele>
        <time>2020-08-02T07:24:55Z</time>
      </trkpt>
      <trkpt lat="47.26325" lon="-0.47003">
        <ele>81.2</ele>
        <time>2020-08-02T07:24:56Z</time>
      </trkpt>
      <trkpt lat="47.26328" lon="-0.47">
        <ele>81.4</ele>
        <time>2020-08-02T07:24:57Z</time>
      </trkpt>
      <trkpt lat="47.2633" lon="-0.46998">
        <ele>81.4</ele>
        <time>2020-08-02T07:24:58Z</time>
      </trkpt>
      <trkpt lat="47.26333" lon="-0.46995">
        <ele>81.8</ele>
        <time>2020-08-02T07:24:59Z</time>
      </trkpt>
      <trkpt lat="47.26335" lon="-0.46992">
        <ele>82</ele>
        <time>2020-08-02T07:25:00Z</time>
      </trkpt>
      <trkpt lat="47.26337" lon="-0.46989">
        <ele>82.2</ele>
        <time>2020-08-02T07:25:01Z</time>
      </trkpt>
      <trkpt lat="47.26339" lon="-0.46985">
        <ele>82.4</ele>
        <time>2020-08-02T07:25:02Z</time>
      </trkpt>
      <trkpt lat="47.2634" lon="-0.46982">
        <ele>82.6</ele>
        <time>2020-08-02T07:25:03Z</time>
      </trkpt>
      <trkpt lat="47.26339" lon="-0.46979">
        <ele>82.8</ele>
        <time>2020-08-02T07:25:04Z</time>
      </trkpt>
      <trkpt lat="47.26338" lon="-0.46976">
        <ele>82.8</ele>
        <time>2020-08-02T07:25:05Z</time>
      </trkpt>
      <trkpt lat="47.26337" lon="-0.46973">
        <ele>83</ele>
        <time>2020-08-02T07:25:06Z</time>
      </trkpt>
      <trkpt lat="47.26336" lon="-0.4697">
        <ele>83.2</ele>
        <time>2020-08-02T07:25:07Z</time>
      </trkpt>
      <trkpt lat="47.26335" lon="-0.46967">
        <ele>83.2</ele>
        <time>2020-08-02T07:25:08Z</time>
      </trkpt>
      <trkpt lat="47.26333" lon="-0.46964">
        <ele>83.2</ele>
        <time>2020-08-02T07:25:09Z</time>
      </trkpt>
      <trkpt lat="47.26332" lon="-0.4696">
        <ele>83.2</ele>
        <time>2020-08-02T07:25:10Z</time>
      </trkpt>
      <trkpt lat="47.2633" lon="-0.46957">
        <ele>83.2</ele>
        <time>2020-08-02T07:25:11Z</time>
      </trkpt>
      <trkpt lat="47.26328" lon="-0.46954">
        <ele>83.2</ele>
        <time>2020-08-02T07:25:12Z</time>
      </trkpt>
      <trkpt lat="47.26327" lon="-0.46951">
        <ele>83.2</ele>
        <time>2020-08-02T07:25:13Z</time>
      </trkpt>
      <trkpt lat="47.26326" lon="-0.46949">
        <ele>83.2</ele>
        <time>2020-08-02T07:25:14Z</time>
      </trkpt>
      <trkpt lat="47.26325" lon="-0.46947">
        <ele>83.2</ele>
        <time>2020-08-02T07:25:15Z</time>
      </trkpt>
      <trkpt lat="47.26324" lon="-0.46945">
        <ele>82.8</ele>
        <time>2020-08-02T07:25:16Z</time>
      </trkpt>
      <trkpt lat="47.26324" lon="-0.46943">
        <ele>82.8</ele>
        <time>2020-08-02T07:25:17Z</time>
      </trkpt>
      <trkpt lat="47.26323" lon="-0.46942">
        <ele>82.8</ele>
        <time>2020-08-02T07:25:18Z</time>
      </trkpt>
      <trkpt lat="47.26323" lon="-0.4694">
        <ele>82.8</ele>
        <time>2020-08-02T07:25:19Z</time>
      </trkpt>
      <trkpt lat="47.26322" lon="-0.46938">
        <ele>82.8</ele>
        <time>2020-08-02T07:25:20Z</time>
      </trkpt>
      <trkpt lat="47.26321" lon="-0.46936">
        <ele>82.8</ele>
        <time>2020-08-02T07:25:21Z</time>
      </trkpt>
      <trkpt lat="47.26319" lon="-0.46929">
        <ele>82.8</ele>
        <time>2020-08-02T07:25:23Z</time>
      </trkpt>
      <trkpt lat="47.2632" lon="-0.46926">
        <ele>82.4</ele>
        <time>2020-08-02T07:25:24Z</time>
      </trkpt>
      <trkpt lat="47.26323" lon="-0.46924">
        <ele>82.4</ele>
        <time>2020-08-02T07:25:25Z</time>
      </trkpt>
      <trkpt lat="47.26325" lon="-0.46922">
        <ele>82.4</ele>
        <time>2020-08-02T07:25:26Z</time>
      </trkpt>
      <trkpt lat="47.26328" lon="-0.4692">
        <ele>82.4</ele>
        <time>2020-08-02T07:25:27Z</time>
      </trkpt>
      <trkpt lat="47.26331" lon="-0.46918">
        <ele>82.4</ele>
        <time>2020-08-02T07:25:28Z</time>
      </trkpt>
      <trkpt lat="47.26337" lon="-0.46915">
        <ele>82.4</ele>
        <time>2020-08-02T07:25:30Z</time>
      </trkpt>
      <trkpt lat="47.2634" lon="-0.46912">
        <ele>82.6</ele>
        <time>2020-08-02T07:25:31Z</time>
      </trkpt>
      <trkpt lat="47.26348" lon="-0.46907">
        <ele>82.8</ele>
        <time>2020-08-02T07:25:34Z</time>
      </trkpt>
      <trkpt lat="47.26351" lon="-0.46905">
        <ele>83</ele>
        <time>2020-08-02T07:25:35Z</time>
      </trkpt>
      <trkpt lat="47.26356" lon="-0.46902">
        <ele>83.4</ele>
        <time>2020-08-02T07:25:37Z</time>
      </trkpt>
      <trkpt lat="47.26359" lon="-0.469">
        <ele>83.6</ele>
        <time>2020-08-02T07:25:38Z</time>
      </trkpt>
      <trkpt lat="47.26362" lon="-0.46899">
        <ele>83.8</ele>
        <time>2020-08-02T07:25:39Z</time>
      </trkpt>
      <trkpt lat="47.26365" lon="-0.46897">
        <ele>84.2</ele>
        <time>2020-08-02T07:25:40Z</time>
      </trkpt>
      <trkpt lat="47.26367" lon="-0.46896">
        <ele>84.4</ele>
        <time>2020-08-02T07:25:41Z</time>
      </trkpt>
      <trkpt lat="47.2637" lon="-0.46894">
        <ele>84.6</ele>
        <time>2020-08-02T07:25:42Z</time>
      </trkpt>
      <trkpt lat="47.26373" lon="-0.46893">
        <ele>84.8</ele>
        <time>2020-08-02T07:25:43Z</time>
      </trkpt>
      <trkpt lat="47.26375" lon="-0.46891">
        <ele>84.8</ele>
        <time>2020-08-02T07:25:44Z</time>
      </trkpt>
      <trkpt lat="47.26378" lon="-0.4689">
        <ele>85</ele>
        <time>2020-08-02T07:25:45Z</time>
      </trkpt>
      <trkpt lat="47.2638" lon="-0.46888">
        <ele>85.2</ele>
        <time>2020-08-02T07:25:46Z</time>
      </trkpt>
      <trkpt lat="47.26383" lon="-0.46887">
        <ele>85.4</ele>
        <time>2020-08-02T07:25:47Z</time>
      </trkpt>
      <trkpt lat="47.26386" lon="-0.46886">
        <ele>85.4</ele>
        <time>2020-08-02T07:25:48Z</time>
      </trkpt>
      <trkpt lat="47.26389" lon="-0.46885">
        <ele>85.8</ele>
        <time>2020-08-02T07:25:49Z</time>
      </trkpt>
      <trkpt lat="47.26392" lon="-0.46883">
        <ele>86</ele>
        <time>2020-08-02T07:25:50Z</time>
      </trkpt>
      <trkpt lat="47.26394" lon="-0.46882">
        <ele>86.2</ele>
        <time>2020-08-02T07:25:51Z</time>
      </trkpt>
      <trkpt lat="47.26397" lon="-0.46881">
        <ele>86.2</ele>
        <time>2020-08-02T07:25:52Z</time>
      </trkpt>
      <trkpt lat="47.26399" lon="-0.4688">
        <ele>86.2</ele>
        <time>2020-08-02T07:25:53Z</time>
      </trkpt>
      <trkpt lat="47.26401" lon="-0.46879">
        <ele>86.2</ele>
        <time>2020-08-02T07:25:54Z</time>
      </trkpt>
      <trkpt lat="47.26404" lon="-0.46877">
        <ele>86.4</ele>
        <time>2020-08-02T07:25:55Z</time>
      </trkpt>
      <trkpt lat="47.26407" lon="-0.46876">
        <ele>86.4</ele>
        <time>2020-08-02T07:25:56Z</time>
      </trkpt>
      <trkpt lat="47.2641" lon="-0.46875">
        <ele>86.8</ele>
        <time>2020-08-02T07:25:57Z</time>
      </trkpt>
      <trkpt lat="47.26412" lon="-0.46873">
        <ele>87</ele>
        <time>2020-08-02T07:25:58Z</time>
      </trkpt>
      <trkpt lat="47.26415" lon="-0.46872">
        <ele>87</ele>
        <time>2020-08-02T07:25:59Z</time>
      </trkpt>
      <trkpt lat="47.26417" lon="-0.46872">
        <ele>87.2</ele>
        <time>2020-08-02T07:26:00Z</time>
      </trkpt>
      <trkpt lat="47.2642" lon="-0.46871">
        <ele>87.4</ele>
        <time>2020-08-02T07:26:01Z</time>
      </trkpt>
      <trkpt lat="47.26422" lon="-0.4687">
        <ele>87.6</ele>
        <time>2020-08-02T07:26:02Z</time>
      </trkpt>
      <trkpt lat="47.26425" lon="-0.46869">
        <ele>87.8</ele>
        <time>2020-08-02T07:26:03Z</time>
      </trkpt>
      <trkpt lat="47.26427" lon="-0.46867">
        <ele>88</ele>
        <time>2020-08-02T07:26:04Z</time>
      </trkpt>
      <trkpt lat="47.26429" lon="-0.46865">
        <ele>88</ele>
        <time>2020-08-02T07:26:05Z</time>
      </trkpt>
      <trkpt lat="47.26431" lon="-0.46864">
        <ele>88.2</ele>
        <time>2020-08-02T07:26:06Z</time>
      </trkpt>
      <trkpt lat="47.26433" lon="-0.46862">
        <ele>88.4</ele>
        <time>2020-08-02T07:26:07Z</time>
      </trkpt>
      <trkpt lat="47.26434" lon="-0.4686">
        <ele>88.4</ele>
        <time>2020-08-02T07:26:08Z</time>
      </trkpt>
      <trkpt lat="47.26434" lon="-0.46858">
        <ele>88.6</ele>
        <time>2020-08-02T07:26:09Z</time>
      </trkpt>
      <trkpt lat="47.26433" lon="-0.46855">
        <ele>88.8</ele>
        <time>2020-08-02T07:26:10Z</time>
      </trkpt>
      <trkpt lat="47.26433" lon="-0.46852">
        <ele>89</ele>
        <time>2020-08-02T07:26:11Z</time>
      </trkpt>
      <trkpt lat="47.26433" lon="-0.46848">
        <ele>89</ele>
        <time>2020-08-02T07:26:12Z</time>
      </trkpt>
      <trkpt lat="47.26433" lon="-0.46847">
        <ele>89.2</ele>
        <time>2020-08-02T07:26:13Z</time>
      </trkpt>
      <trkpt lat="47.26433" lon="-0.46844">
        <ele>89.2</ele>
        <time>2020-08-02T07:26:14Z</time>
      </trkpt>
      <trkpt lat="47.26433" lon="-0.46843">
        <ele>89.2</ele>
        <time>2020-08-02T07:26:15Z</time>
      </trkpt>
      <trkpt lat="47.26433" lon="-0.46843">
        <ele>89.2</ele>
        <time>2020-08-02T07:26:16Z</time>
      </trkpt>
      <trkpt lat="47.26432" lon="-0.46843">
        <ele>89</ele>
        <time>2020-08-02T07:26:26Z</time>
      </trkpt>
      <trkpt lat="47.26429" lon="-0.46843">
        <ele>89</ele>
        <time>2020-08-02T07:26:29Z</time>
      </trkpt>
      <trkpt lat="47.26427" lon="-0.46843">
        <ele>89</ele>
        <time>2020-08-02T07:26:30Z</time>
      </trkpt>
      <trkpt lat="47.26424" lon="-0.46842">
        <ele>88.8</ele>
        <time>2020-08-02T07:26:31Z</time>
      </trkpt>
      <trkpt lat="47.26417" lon="-0.46842">
        <ele>88.8</ele>
        <time>2020-08-02T07:26:33Z</time>
      </trkpt>
      <trkpt lat="47.26405" lon="-0.46842">
        <ele>88.6</ele>
        <time>2020-08-02T07:26:36Z</time>
      </trkpt>
      <trkpt lat="47.264" lon="-0.46842">
        <ele>88.4</ele>
        <time>2020-08-02T07:26:37Z</time>
      </trkpt>
      <trkpt lat="47.26374" lon="-0.46838">
        <ele>87.6</ele>
        <time>2020-08-02T07:26:42Z</time>
      </trkpt>
      <trkpt lat="47.26337" lon="-0.46827">
        <ele>86.2</ele>
        <time>2020-08-02T07:26:48Z</time>
      </trkpt>
      <trkpt lat="47.26332" lon="-0.46825">
        <ele>86.2</ele>
        <time>2020-08-02T07:26:49Z</time>
      </trkpt>
      <trkpt lat="47.26309" lon="-0.46816">
        <ele>84.8</ele>
        <time>2020-08-02T07:26:52Z</time>
      </trkpt>
      <trkpt lat="47.26288" lon="-0.46806">
        <ele>83.4</ele>
        <time>2020-08-02T07:26:55Z</time>
      </trkpt>
      <trkpt lat="47.26257" lon="-0.46792">
        <ele>82.2</ele>
        <time>2020-08-02T07:26:59Z</time>
      </trkpt>
      <trkpt lat="47.26249" lon="-0.46788">
        <ele>82</ele>
        <time>2020-08-02T07:27:00Z</time>
      </trkpt>
      <trkpt lat="47.26236" lon="-0.46779">
        <ele>81</ele>
        <time>2020-08-02T07:27:02Z</time>
      </trkpt>
      <trkpt lat="47.26205" lon="-0.46759">
        <ele>79.8</ele>
        <time>2020-08-02T07:27:06Z</time>
      </trkpt>
      <trkpt lat="47.2616" lon="-0.46729">
        <ele>78.6</ele>
        <time>2020-08-02T07:27:12Z</time>
      </trkpt>
      <trkpt lat="47.26132" lon="-0.46713">
        <ele>77.6</ele>
        <time>2020-08-02T07:27:16Z</time>
      </trkpt>
      <trkpt lat="47.26126" lon="-0.4671">
        <ele>77.6</ele>
        <time>2020-08-02T07:27:17Z</time>
      </trkpt>
      <trkpt lat="47.26118" lon="-0.46706">
        <ele>77.4</ele>
        <time>2020-08-02T07:27:18Z</time>
      </trkpt>
      <trkpt lat="47.26111" lon="-0.46703">
        <ele>77.2</ele>
        <time>2020-08-02T07:27:19Z</time>
      </trkpt>
      <trkpt lat="47.26104" lon="-0.467">
        <ele>77</ele>
        <time>2020-08-02T07:27:20Z</time>
      </trkpt>
      <trkpt lat="47.26099" lon="-0.46697">
        <ele>76.6</ele>
        <time>2020-08-02T07:27:21Z</time>
      </trkpt>
      <trkpt lat="47.2609" lon="-0.46694">
        <ele>76.4</ele>
        <time>2020-08-02T07:27:22Z</time>
      </trkpt>
      <trkpt lat="47.26083" lon="-0.46691">
        <ele>76</ele>
        <time>2020-08-02T07:27:23Z</time>
      </trkpt>
      <trkpt lat="47.26077" lon="-0.46688">
        <ele>75.8</ele>
        <time>2020-08-02T07:27:24Z</time>
      </trkpt>
      <trkpt lat="47.2607" lon="-0.46685">
        <ele>75.6</ele>
        <time>2020-08-02T07:27:25Z</time>
      </trkpt>
      <trkpt lat="47.26064" lon="-0.46683">
        <ele>75.6</ele>
        <time>2020-08-02T07:27:26Z</time>
      </trkpt>
      <trkpt lat="47.26058" lon="-0.46681">
        <ele>75.4</ele>
        <time>2020-08-02T07:27:27Z</time>
      </trkpt>
      <trkpt lat="47.26052" lon="-0.4668">
        <ele>75.4</ele>
        <time>2020-08-02T07:27:28Z</time>
      </trkpt>
      <trkpt lat="47.26046" lon="-0.46679">
        <ele>75.4</ele>
        <time>2020-08-02T07:27:29Z</time>
      </trkpt>
      <trkpt lat="47.26041" lon="-0.46679">
        <ele>75.4</ele>
        <time>2020-08-02T07:27:30Z</time>
      </trkpt>
      <trkpt lat="47.26034" lon="-0.46678">
        <ele>75.4</ele>
        <time>2020-08-02T07:27:31Z</time>
      </trkpt>
      <trkpt lat="47.26028" lon="-0.46678">
        <ele>75.2</ele>
        <time>2020-08-02T07:27:32Z</time>
      </trkpt>
      <trkpt lat="47.26021" lon="-0.46678">
        <ele>75.2</ele>
        <time>2020-08-02T07:27:33Z</time>
      </trkpt>
      <trkpt lat="47.26015" lon="-0.46678">
        <ele>75.2</ele>
        <time>2020-08-02T07:27:34Z</time>
      </trkpt>
      <trkpt lat="47.26008" lon="-0.46678">
        <ele>74.8</ele>
        <time>2020-08-02T07:27:35Z</time>
      </trkpt>
      <trkpt lat="47.26001" lon="-0.46677">
        <ele>74.8</ele>
        <time>2020-08-02T07:27:36Z</time>
      </trkpt>
      <trkpt lat="47.25995" lon="-0.46677">
        <ele>74.6</ele>
        <time>2020-08-02T07:27:37Z</time>
      </trkpt>
      <trkpt lat="47.25987" lon="-0.46676">
        <ele>74.4</ele>
        <time>2020-08-02T07:27:38Z</time>
      </trkpt>
      <trkpt lat="47.25981" lon="-0.46676">
        <ele>74.4</ele>
        <time>2020-08-02T07:27:39Z</time>
      </trkpt>
      <trkpt lat="47.25964" lon="-0.46672">
        <ele>74.2</ele>
        <time>2020-08-02T07:27:41Z</time>
      </trkpt>
      <trkpt lat="47.25949" lon="-0.46668">
        <ele>73.6</ele>
        <time>2020-08-02T07:27:43Z</time>
      </trkpt>
      <trkpt lat="47.25929" lon="-0.46661">
        <ele>72.4</ele>
        <time>2020-08-02T07:27:45Z</time>
      </trkpt>
      <trkpt lat="47.25919" lon="-0.46658">
        <ele>71.8</ele>
        <time>2020-08-02T07:27:46Z</time>
      </trkpt>
      <trkpt lat="47.25911" lon="-0.46658">
        <ele>70.2</ele>
        <time>2020-08-02T07:27:47Z</time>
      </trkpt>
      <trkpt lat="47.25902" lon="-0.46659">
        <ele>69.4</ele>
        <time>2020-08-02T07:27:48Z</time>
      </trkpt>
      <trkpt lat="47.25894" lon="-0.46663">
        <ele>68</ele>
        <time>2020-08-02T07:27:49Z</time>
      </trkpt>
      <trkpt lat="47.25887" lon="-0.46667">
        <ele>66.6</ele>
        <time>2020-08-02T07:27:50Z</time>
      </trkpt>
      <trkpt lat="47.2588" lon="-0.46671">
        <ele>66</ele>
        <time>2020-08-02T07:27:51Z</time>
      </trkpt>
      <trkpt lat="47.25873" lon="-0.46672">
        <ele>65.2</ele>
        <time>2020-08-02T07:27:52Z</time>
      </trkpt>
      <trkpt lat="47.25866" lon="-0.46671">
        <ele>65</ele>
        <time>2020-08-02T07:27:53Z</time>
      </trkpt>
      <trkpt lat="47.2586" lon="-0.46667">
        <ele>64.6</ele>
        <time>2020-08-02T07:27:54Z</time>
      </trkpt>
      <trkpt lat="47.25854" lon="-0.4666">
        <ele>64.2</ele>
        <time>2020-08-02T07:27:55Z</time>
      </trkpt>
      <trkpt lat="47.25849" lon="-0.46652">
        <ele>63.4</ele>
        <time>2020-08-02T07:27:56Z</time>
      </trkpt>
      <trkpt lat="47.25845" lon="-0.46642">
        <ele>62.8</ele>
        <time>2020-08-02T07:27:57Z</time>
      </trkpt>
      <trkpt lat="47.25829" lon="-0.46601">
        <ele>61.4</ele>
        <time>2020-08-02T07:28:01Z</time>
      </trkpt>
      <trkpt lat="47.25826" lon="-0.46593">
        <ele>61.4</ele>
        <time>2020-08-02T07:28:02Z</time>
      </trkpt>
      <trkpt lat="47.2581" lon="-0.46552">
        <ele>60.2</ele>
        <time>2020-08-02T07:28:06Z</time>
      </trkpt>
      <trkpt lat="47.25805" lon="-0.46544">
        <ele>60</ele>
        <time>2020-08-02T07:28:07Z</time>
      </trkpt>
      <trkpt lat="47.25799" lon="-0.46538">
        <ele>59.8</ele>
        <time>2020-08-02T07:28:08Z</time>
      </trkpt>
      <trkpt lat="47.25794" lon="-0.46532">
        <ele>59.4</ele>
        <time>2020-08-02T07:28:09Z</time>
      </trkpt>
      <trkpt lat="47.2579" lon="-0.46523">
        <ele>59.4</ele>
        <time>2020-08-02T07:28:10Z</time>
      </trkpt>
      <trkpt lat="47.25786" lon="-0.46515">
        <ele>59.2</ele>
        <time>2020-08-02T07:28:11Z</time>
      </trkpt>
      <trkpt lat="47.25783" lon="-0.46506">
        <ele>59</ele>
        <time>2020-08-02T07:28:12Z</time>
      </trkpt>
      <trkpt lat="47.25779" lon="-0.46498">
        <ele>58.8</ele>
        <time>2020-08-02T07:28:13Z</time>
      </trkpt>
      <trkpt lat="47.25777" lon="-0.4649">
        <ele>59</ele>
        <time>2020-08-02T07:28:14Z</time>
      </trkpt>
      <trkpt lat="47.25774" lon="-0.46483">
        <ele>59</ele>
        <time>2020-08-02T07:28:15Z</time>
      </trkpt>
      <trkpt lat="47.2577" lon="-0.46474">
        <ele>58.8</ele>
        <time>2020-08-02T07:28:16Z</time>
      </trkpt>
      <trkpt lat="47.25767" lon="-0.46466">
        <ele>58.8</ele>
        <time>2020-08-02T07:28:17Z</time>
      </trkpt>
      <trkpt lat="47.25764" lon="-0.46458">
        <ele>58.8</ele>
        <time>2020-08-02T07:28:18Z</time>
      </trkpt>
      <trkpt lat="47.2576" lon="-0.4645">
        <ele>59</ele>
        <time>2020-08-02T07:28:19Z</time>
      </trkpt>
      <trkpt lat="47.25757" lon="-0.46443">
        <ele>59</ele>
        <time>2020-08-02T07:28:20Z</time>
      </trkpt>
      <trkpt lat="47.25753" lon="-0.46436">
        <ele>58.8</ele>
        <time>2020-08-02T07:28:21Z</time>
      </trkpt>
      <trkpt lat="47.2575" lon="-0.46429">
        <ele>59</ele>
        <time>2020-08-02T07:28:22Z</time>
      </trkpt>
      <trkpt lat="47.25748" lon="-0.46423">
        <ele>59</ele>
        <time>2020-08-02T07:28:23Z</time>
      </trkpt>
      <trkpt lat="47.25744" lon="-0.46416">
        <ele>59</ele>
        <time>2020-08-02T07:28:24Z</time>
      </trkpt>
      <trkpt lat="47.2574" lon="-0.46408">
        <ele>59</ele>
        <time>2020-08-02T07:28:25Z</time>
      </trkpt>
      <trkpt lat="47.25736" lon="-0.46401">
        <ele>58.8</ele>
        <time>2020-08-02T07:28:26Z</time>
      </trkpt>
      <trkpt lat="47.25733" lon="-0.46395">
        <ele>58.8</ele>
        <time>2020-08-02T07:28:27Z</time>
      </trkpt>
      <trkpt lat="47.25729" lon="-0.46389">
        <ele>58.8</ele>
        <time>2020-08-02T07:28:28Z</time>
      </trkpt>
      <trkpt lat="47.25725" lon="-0.46383">
        <ele>59</ele>
        <time>2020-08-02T07:28:29Z</time>
      </trkpt>
      <trkpt lat="47.25721" lon="-0.46376">
        <ele>59</ele>
        <time>2020-08-02T07:28:30Z</time>
      </trkpt>
      <trkpt lat="47.25717" lon="-0.4637">
        <ele>59</ele>
        <time>2020-08-02T07:28:31Z</time>
      </trkpt>
      <trkpt lat="47.25713" lon="-0.46363">
        <ele>59</ele>
        <time>2020-08-02T07:28:32Z</time>
      </trkpt>
      <trkpt lat="47.25709" lon="-0.46357">
        <ele>59</ele>
        <time>2020-08-02T07:28:33Z</time>
      </trkpt>
      <trkpt lat="47.25706" lon="-0.46352">
        <ele>59</ele>
        <time>2020-08-02T07:28:34Z</time>
      </trkpt>
      <trkpt lat="47.25702" lon="-0.46344">
        <ele>59</ele>
        <time>2020-08-02T07:28:35Z</time>
      </trkpt>
      <trkpt lat="47.25698" lon="-0.46338">
        <ele>59</ele>
        <time>2020-08-02T07:28:36Z</time>
      </trkpt>
      <trkpt lat="47.25695" lon="-0.46332">
        <ele>59.2</ele>
        <time>2020-08-02T07:28:37Z</time>
      </trkpt>
      <trkpt lat="47.25692" lon="-0.46327">
        <ele>59.2</ele>
        <time>2020-08-02T07:28:38Z</time>
      </trkpt>
      <trkpt lat="47.25688" lon="-0.46321">
        <ele>59.2</ele>
        <time>2020-08-02T07:28:39Z</time>
      </trkpt>
      <trkpt lat="47.25684" lon="-0.46315">
        <ele>59.2</ele>
        <time>2020-08-02T07:28:40Z</time>
      </trkpt>
      <trkpt lat="47.25681" lon="-0.46309">
        <ele>59</ele>
        <time>2020-08-02T07:28:41Z</time>
      </trkpt>
      <trkpt lat="47.25677" lon="-0.46304">
        <ele>59.2</ele>
        <time>2020-08-02T07:28:42Z</time>
      </trkpt>
      <trkpt lat="47.25674" lon="-0.46299">
        <ele>59.2</ele>
        <time>2020-08-02T07:28:43Z</time>
      </trkpt>
      <trkpt lat="47.25671" lon="-0.46294">
        <ele>59.2</ele>
        <time>2020-08-02T07:28:44Z</time>
      </trkpt>
      <trkpt lat="47.25667" lon="-0.46288">
        <ele>59.2</ele>
        <time>2020-08-02T07:28:45Z</time>
      </trkpt>
      <trkpt lat="47.25664" lon="-0.46284">
        <ele>59</ele>
        <time>2020-08-02T07:28:46Z</time>
      </trkpt>
      <trkpt lat="47.25661" lon="-0.46278">
        <ele>59</ele>
        <time>2020-08-02T07:28:47Z</time>
      </trkpt>
      <trkpt lat="47.25657" lon="-0.46273">
        <ele>59</ele>
        <time>2020-08-02T07:28:48Z</time>
      </trkpt>
      <trkpt lat="47.25654" lon="-0.46268">
        <ele>59</ele>
        <time>2020-08-02T07:28:49Z</time>
      </trkpt>
      <trkpt lat="47.25651" lon="-0.46263">
        <ele>59</ele>
        <time>2020-08-02T07:28:50Z</time>
      </trkpt>
      <trkpt lat="47.25648" lon="-0.46259">
        <ele>59</ele>
        <time>2020-08-02T07:28:51Z</time>
      </trkpt>
      <trkpt lat="47.25645" lon="-0.46254">
        <ele>58.8</ele>
        <time>2020-08-02T07:28:52Z</time>
      </trkpt>
      <trkpt lat="47.25639" lon="-0.46244">
        <ele>59.2</ele>
        <time>2020-08-02T07:28:54Z</time>
      </trkpt>
      <trkpt lat="47.25636" lon="-0.46239">
        <ele>59</ele>
        <time>2020-08-02T07:28:55Z</time>
      </trkpt>
      <trkpt lat="47.25633" lon="-0.46235">
        <ele>59</ele>
        <time>2020-08-02T07:28:56Z</time>
      </trkpt>
      <trkpt lat="47.2563" lon="-0.46229">
        <ele>59</ele>
        <time>2020-08-02T07:28:57Z</time>
      </trkpt>
      <trkpt lat="47.25627" lon="-0.46224">
        <ele>59</ele>
        <time>2020-08-02T07:28:58Z</time>
      </trkpt>
      <trkpt lat="47.25623" lon="-0.46219">
        <ele>59</ele>
        <time>2020-08-02T07:28:59Z</time>
      </trkpt>
      <trkpt lat="47.25621" lon="-0.46214">
        <ele>59.2</ele>
        <time>2020-08-02T07:29:00Z</time>
      </trkpt>
      <trkpt lat="47.25617" lon="-0.46208">
        <ele>59.2</ele>
        <time>2020-08-02T07:29:01Z</time>
      </trkpt>
      <trkpt lat="47.25613" lon="-0.46202">
        <ele>59.2</ele>
        <time>2020-08-02T07:29:02Z</time>
      </trkpt>
      <trkpt lat="47.25609" lon="-0.46196">
        <ele>59.2</ele>
        <time>2020-08-02T07:29:03Z</time>
      </trkpt>
      <trkpt lat="47.25605" lon="-0.46191">
        <ele>59.2</ele>
        <time>2020-08-02T07:29:04Z</time>
      </trkpt>
      <trkpt lat="47.25602" lon="-0.46186">
        <ele>59.2</ele>
        <time>2020-08-02T07:29:05Z</time>
      </trkpt>
      <trkpt lat="47.25598" lon="-0.4618">
        <ele>59.2</ele>
        <time>2020-08-02T07:29:06Z</time>
      </trkpt>
      <trkpt lat="47.25594" lon="-0.46173">
        <ele>59.2</ele>
        <time>2020-08-02T07:29:07Z</time>
      </trkpt>
      <trkpt lat="47.2559" lon="-0.46167">
        <ele>59.2</ele>
        <time>2020-08-02T07:29:08Z</time>
      </trkpt>
      <trkpt lat="47.2556" lon="-0.46118">
        <ele>59.2</ele>
        <time>2020-08-02T07:29:16Z</time>
      </trkpt>
      <trkpt lat="47.25548" lon="-0.46101">
        <ele>59.4</ele>
        <time>2020-08-02T07:29:19Z</time>
      </trkpt>
      <trkpt lat="47.25544" lon="-0.46095">
        <ele>59.4</ele>
        <time>2020-08-02T07:29:20Z</time>
      </trkpt>
      <trkpt lat="47.25541" lon="-0.4609">
        <ele>59.4</ele>
        <time>2020-08-02T07:29:21Z</time>
      </trkpt>
      <trkpt lat="47.25537" lon="-0.46084">
        <ele>59.6</ele>
        <time>2020-08-02T07:29:22Z</time>
      </trkpt>
      <trkpt lat="47.25533" lon="-0.46079">
        <ele>59.6</ele>
        <time>2020-08-02T07:29:23Z</time>
      </trkpt>
      <trkpt lat="47.25529" lon="-0.46073">
        <ele>59.6</ele>
        <time>2020-08-02T07:29:24Z</time>
      </trkpt>
      <trkpt lat="47.25526" lon="-0.46068">
        <ele>59.6</ele>
        <time>2020-08-02T07:29:25Z</time>
      </trkpt>
      <trkpt lat="47.25523" lon="-0.46063">
        <ele>59.6</ele>
        <time>2020-08-02T07:29:26Z</time>
      </trkpt>
      <trkpt lat="47.25519" lon="-0.46057">
        <ele>59.6</ele>
        <time>2020-08-02T07:29:27Z</time>
      </trkpt>
      <trkpt lat="47.25516" lon="-0.46052">
        <ele>59.6</ele>
        <time>2020-08-02T07:29:28Z</time>
      </trkpt>
      <trkpt lat="47.25513" lon="-0.46047">
        <ele>59.6</ele>
        <time>2020-08-02T07:29:29Z</time>
      </trkpt>
      <trkpt lat="47.25509" lon="-0.46042">
        <ele>59.8</ele>
        <time>2020-08-02T07:29:30Z</time>
      </trkpt>
      <trkpt lat="47.25506" lon="-0.46037">
        <ele>59.8</ele>
        <time>2020-08-02T07:29:31Z</time>
      </trkpt>
      <trkpt lat="47.25503" lon="-0.46032">
        <ele>59.8</ele>
        <time>2020-08-02T07:29:32Z</time>
      </trkpt>
      <trkpt lat="47.25499" lon="-0.46025">
        <ele>59.8</ele>
        <time>2020-08-02T07:29:33Z</time>
      </trkpt>
      <trkpt lat="47.25478" lon="-0.45992">
        <ele>59.8</ele>
        <time>2020-08-02T07:29:39Z</time>
      </trkpt>
      <trkpt lat="47.25475" lon="-0.45987">
        <ele>59.8</ele>
        <time>2020-08-02T07:29:40Z</time>
      </trkpt>
      <trkpt lat="47.25472" lon="-0.45981">
        <ele>59.8</ele>
        <time>2020-08-02T07:29:41Z</time>
      </trkpt>
      <trkpt lat="47.25469" lon="-0.45976">
        <ele>59.8</ele>
        <time>2020-08-02T07:29:42Z</time>
      </trkpt>
      <trkpt lat="47.25462" lon="-0.45965">
        <ele>59.8</ele>
        <time>2020-08-02T07:29:44Z</time>
      </trkpt>
      <trkpt lat="47.25459" lon="-0.45961">
        <ele>59.8</ele>
        <time>2020-08-02T07:29:45Z</time>
      </trkpt>
      <trkpt lat="47.25455" lon="-0.45954">
        <ele>59.8</ele>
        <time>2020-08-02T07:29:46Z</time>
      </trkpt>
      <trkpt lat="47.25451" lon="-0.45949">
        <ele>59.8</ele>
        <time>2020-08-02T07:29:47Z</time>
      </trkpt>
      <trkpt lat="47.25448" lon="-0.45943">
        <ele>59.8</ele>
        <time>2020-08-02T07:29:48Z</time>
      </trkpt>
      <trkpt lat="47.25442" lon="-0.45933">
        <ele>59.8</ele>
        <time>2020-08-02T07:29:50Z</time>
      </trkpt>
      <trkpt lat="47.25405" lon="-0.45874">
        <ele>59.6</ele>
        <time>2020-08-02T07:30:00Z</time>
      </trkpt>
      <trkpt lat="47.25388" lon="-0.45847">
        <ele>59.2</ele>
        <time>2020-08-02T07:30:05Z</time>
      </trkpt>
      <trkpt lat="47.25385" lon="-0.45842">
        <ele>59</ele>
        <time>2020-08-02T07:30:06Z</time>
      </trkpt>
      <trkpt lat="47.25382" lon="-0.45838">
        <ele>59</ele>
        <time>2020-08-02T07:30:07Z</time>
      </trkpt>
      <trkpt lat="47.2538" lon="-0.45833">
        <ele>59</ele>
        <time>2020-08-02T07:30:08Z</time>
      </trkpt>
      <trkpt lat="47.25377" lon="-0.45827">
        <ele>59</ele>
        <time>2020-08-02T07:30:09Z</time>
      </trkpt>
      <trkpt lat="47.25375" lon="-0.45822">
        <ele>59</ele>
        <time>2020-08-02T07:30:10Z</time>
      </trkpt>
      <trkpt lat="47.25373" lon="-0.45816">
        <ele>59</ele>
        <time>2020-08-02T07:30:11Z</time>
      </trkpt>
      <trkpt lat="47.25371" lon="-0.45811">
        <ele>59</ele>
        <time>2020-08-02T07:30:12Z</time>
      </trkpt>
      <trkpt lat="47.25368" lon="-0.45806">
        <ele>59.2</ele>
        <time>2020-08-02T07:30:13Z</time>
      </trkpt>
      <trkpt lat="47.25365" lon="-0.45799">
        <ele>59.2</ele>
        <time>2020-08-02T07:30:14Z</time>
      </trkpt>
      <trkpt lat="47.25363" lon="-0.45793">
        <ele>59.2</ele>
        <time>2020-08-02T07:30:15Z</time>
      </trkpt>
      <trkpt lat="47.2536" lon="-0.45787">
        <ele>59.2</ele>
        <time>2020-08-02T07:30:16Z</time>
      </trkpt>
      <trkpt lat="47.25358" lon="-0.45782">
        <ele>59.2</ele>
        <time>2020-08-02T07:30:17Z</time>
      </trkpt>
      <trkpt lat="47.2534" lon="-0.45732">
        <ele>58.4</ele>
        <time>2020-08-02T07:30:25Z</time>
      </trkpt>
      <trkpt lat="47.25338" lon="-0.45727">
        <ele>58.2</ele>
        <time>2020-08-02T07:30:26Z</time>
      </trkpt>
      <trkpt lat="47.25336" lon="-0.45722">
        <ele>58.2</ele>
        <time>2020-08-02T07:30:27Z</time>
      </trkpt>
      <trkpt lat="47.25335" lon="-0.45718">
        <ele>58.2</ele>
        <time>2020-08-02T07:30:28Z</time>
      </trkpt>
      <trkpt lat="47.25334" lon="-0.45716">
        <ele>58</ele>
        <time>2020-08-02T07:30:29Z</time>
      </trkpt>
      <trkpt lat="47.25334" lon="-0.45716">
        <ele>57.8</ele>
        <time>2020-08-02T07:30:30Z</time>
      </trkpt>
      <trkpt lat="47.25334" lon="-0.45716">
        <ele>57.8</ele>
        <time>2020-08-02T07:30:31Z</time>
      </trkpt>
      <trkpt lat="47.25335" lon="-0.45716">
        <ele>57.8</ele>
        <time>2020-08-02T07:30:32Z</time>
      </trkpt>
      <trkpt lat="47.25336" lon="-0.45716">
        <ele>57.8</ele>
        <time>2020-08-02T07:30:33Z</time>
      </trkpt>
      <trkpt lat="47.25337" lon="-0.45715">
        <ele>57.6</ele>
        <time>2020-08-02T07:30:34Z</time>
      </trkpt>
      <trkpt lat="47.25338" lon="-0.45714">
        <ele>57.6</ele>
        <time>2020-08-02T07:30:35Z</time>
      </trkpt>
      <trkpt lat="47.25339" lon="-0.45712">
        <ele>57.6</ele>
        <time>2020-08-02T07:30:37Z</time>
      </trkpt>
      <trkpt lat="47.25339" lon="-0.45712">
        <ele>57.4</ele>
        <time>2020-08-02T07:30:38Z</time>
      </trkpt>
      <trkpt lat="47.25339" lon="-0.45712">
        <ele>57.2</ele>
        <time>2020-08-02T07:30:41Z</time>
      </trkpt>
      <trkpt lat="47.25339" lon="-0.45712">
        <ele>57</ele>
        <time>2020-08-02T07:30:47Z</time>
      </trkpt>
      <trkpt lat="47.25339" lon="-0.45712">
        <ele>57</ele>
        <time>2020-08-02T07:30:49Z</time>
      </trkpt>
      <trkpt lat="47.25337" lon="-0.45708">
        <ele>57</ele>
        <time>2020-08-02T07:30:51Z</time>
      </trkpt>
      <trkpt lat="47.25336" lon="-0.45706">
        <ele>57</ele>
        <time>2020-08-02T07:30:52Z</time>
      </trkpt>
      <trkpt lat="47.25336" lon="-0.45704">
        <ele>57</ele>
        <time>2020-08-02T07:30:53Z</time>
      </trkpt>
      <trkpt lat="47.25335" lon="-0.45702">
        <ele>57</ele>
        <time>2020-08-02T07:30:54Z</time>
      </trkpt>
      <trkpt lat="47.25335" lon="-0.457">
        <ele>57</ele>
        <time>2020-08-02T07:30:55Z</time>
      </trkpt>
      <trkpt lat="47.25334" lon="-0.45698">
        <ele>57</ele>
        <time>2020-08-02T07:30:56Z</time>
      </trkpt>
      <trkpt lat="47.25334" lon="-0.45696">
        <ele>57</ele>
        <time>2020-08-02T07:30:57Z</time>
      </trkpt>
      <trkpt lat="47.25333" lon="-0.45692">
        <ele>57</ele>
        <time>2020-08-02T07:30:59Z</time>
      </trkpt>
      <trkpt lat="47.25332" lon="-0.45689">
        <ele>57</ele>
        <time>2020-08-02T07:31:00Z</time>
      </trkpt>
      <trkpt lat="47.25331" lon="-0.45685">
        <ele>57</ele>
        <time>2020-08-02T07:31:02Z</time>
      </trkpt>
      <trkpt lat="47.25327" lon="-0.4567">
        <ele>56.6</ele>
        <time>2020-08-02T07:31:06Z</time>
      </trkpt>
      <trkpt lat="47.25326" lon="-0.45664">
        <ele>56.6</ele>
        <time>2020-08-02T07:31:08Z</time>
      </trkpt>
      <trkpt lat="47.25325" lon="-0.45661">
        <ele>56.6</ele>
        <time>2020-08-02T07:31:09Z</time>
      </trkpt>
      <trkpt lat="47.25324" lon="-0.45658">
        <ele>56.4</ele>
        <time>2020-08-02T07:31:10Z</time>
      </trkpt>
      <trkpt lat="47.25323" lon="-0.45655">
        <ele>56.4</ele>
        <time>2020-08-02T07:31:11Z</time>
      </trkpt>
      <trkpt lat="47.25322" lon="-0.45649">
        <ele>56.2</ele>
        <time>2020-08-02T07:31:13Z</time>
      </trkpt>
      <trkpt lat="47.25321" lon="-0.45645">
        <ele>56</ele>
        <time>2020-08-02T07:31:14Z</time>
      </trkpt>
      <trkpt lat="47.25319" lon="-0.45636">
        <ele>56</ele>
        <time>2020-08-02T07:31:16Z</time>
      </trkpt>
      <trkpt lat="47.25319" lon="-0.45631">
        <ele>56.2</ele>
        <time>2020-08-02T07:31:17Z</time>
      </trkpt>
      <trkpt lat="47.25317" lon="-0.45616">
        <ele>56</ele>
        <time>2020-08-02T07:31:20Z</time>
      </trkpt>
      <trkpt lat="47.25316" lon="-0.45607">
        <ele>55.8</ele>
        <time>2020-08-02T07:31:22Z</time>
      </trkpt>
      <trkpt lat="47.25316" lon="-0.45602">
        <ele>56</ele>
        <time>2020-08-02T07:31:23Z</time>
      </trkpt>
      <trkpt lat="47.25315" lon="-0.45597">
        <ele>56</ele>
        <time>2020-08-02T07:31:24Z</time>
      </trkpt>
      <trkpt lat="47.25314" lon="-0.45588">
        <ele>56</ele>
        <time>2020-08-02T07:31:26Z</time>
      </trkpt>
      <trkpt lat="47.25313" lon="-0.45583">
        <ele>56</ele>
        <time>2020-08-02T07:31:27Z</time>
      </trkpt>
      <trkpt lat="47.25313" lon="-0.45579">
        <ele>55.8</ele>
        <time>2020-08-02T07:31:28Z</time>
      </trkpt>
      <trkpt lat="47.25312" lon="-0.45575">
        <ele>55.6</ele>
        <time>2020-08-02T07:31:29Z</time>
      </trkpt>
      <trkpt lat="47.25312" lon="-0.45569">
        <ele>55.6</ele>
        <time>2020-08-02T07:31:30Z</time>
      </trkpt>
      <trkpt lat="47.25312" lon="-0.45565">
        <ele>55.6</ele>
        <time>2020-08-02T07:31:31Z</time>
      </trkpt>
      <trkpt lat="47.25312" lon="-0.4556">
        <ele>55.6</ele>
        <time>2020-08-02T07:31:32Z</time>
      </trkpt>
      <trkpt lat="47.25309" lon="-0.45536">
        <ele>55.4</ele>
        <time>2020-08-02T07:31:37Z</time>
      </trkpt>
      <trkpt lat="47.25309" lon="-0.45531">
        <ele>55.4</ele>
        <time>2020-08-02T07:31:38Z</time>
      </trkpt>
      <trkpt lat="47.25308" lon="-0.45527">
        <ele>55.4</ele>
        <time>2020-08-02T07:31:39Z</time>
      </trkpt>
      <trkpt lat="47.25307" lon="-0.45514">
        <ele>55.4</ele>
        <time>2020-08-02T07:31:42Z</time>
      </trkpt>
      <trkpt lat="47.25306" lon="-0.4551">
        <ele>55.4</ele>
        <time>2020-08-02T07:31:43Z</time>
      </trkpt>
      <trkpt lat="47.25306" lon="-0.45505">
        <ele>55.4</ele>
        <time>2020-08-02T07:31:44Z</time>
      </trkpt>
      <trkpt lat="47.25305" lon="-0.45501">
        <ele>55.2</ele>
        <time>2020-08-02T07:31:45Z</time>
      </trkpt>
      <trkpt lat="47.25305" lon="-0.45497">
        <ele>55.2</ele>
        <time>2020-08-02T07:31:46Z</time>
      </trkpt>
      <trkpt lat="47.25304" lon="-0.45493">
        <ele>55.2</ele>
        <time>2020-08-02T07:31:47Z</time>
      </trkpt>
      <trkpt lat="47.25304" lon="-0.45488">
        <ele>55.2</ele>
        <time>2020-08-02T07:31:48Z</time>
      </trkpt>
      <trkpt lat="47.25303" lon="-0.45483">
        <ele>55.2</ele>
        <time>2020-08-02T07:31:49Z</time>
      </trkpt>
      <trkpt lat="47.25303" lon="-0.45478">
        <ele>55</ele>
        <time>2020-08-02T07:31:50Z</time>
      </trkpt>
      <trkpt lat="47.25301" lon="-0.45465">
        <ele>54.8</ele>
        <time>2020-08-02T07:31:53Z</time>
      </trkpt>
      <trkpt lat="47.253" lon="-0.45456">
        <ele>54.8</ele>
        <time>2020-08-02T07:31:55Z</time>
      </trkpt>
      <trkpt lat="47.253" lon="-0.45452">
        <ele>54.8</ele>
        <time>2020-08-02T07:31:56Z</time>
      </trkpt>
      <trkpt lat="47.25299" lon="-0.45446">
        <ele>54.8</ele>
        <time>2020-08-02T07:31:57Z</time>
      </trkpt>
      <trkpt lat="47.25297" lon="-0.45425">
        <ele>54.4</ele>
        <time>2020-08-02T07:32:01Z</time>
      </trkpt>
      <trkpt lat="47.25296" lon="-0.45413">
        <ele>54.2</ele>
        <time>2020-08-02T07:32:03Z</time>
      </trkpt>
      <trkpt lat="47.25295" lon="-0.45407">
        <ele>54</ele>
        <time>2020-08-02T07:32:04Z</time>
      </trkpt>
      <trkpt lat="47.25294" lon="-0.45397">
        <ele>54</ele>
        <time>2020-08-02T07:32:06Z</time>
      </trkpt>
      <trkpt lat="47.25294" lon="-0.45391">
        <ele>54</ele>
        <time>2020-08-02T07:32:07Z</time>
      </trkpt>
      <trkpt lat="47.25292" lon="-0.45377">
        <ele>54</ele>
        <time>2020-08-02T07:32:10Z</time>
      </trkpt>
      <trkpt lat="47.25291" lon="-0.45367">
        <ele>54</ele>
        <time>2020-08-02T07:32:12Z</time>
      </trkpt>
      <trkpt lat="47.2529" lon="-0.45363">
        <ele>54</ele>
        <time>2020-08-02T07:32:13Z</time>
      </trkpt>
      <trkpt lat="47.2529" lon="-0.4536">
        <ele>54</ele>
        <time>2020-08-02T07:32:14Z</time>
      </trkpt>
      <trkpt lat="47.2529" lon="-0.45357">
        <ele>54</ele>
        <time>2020-08-02T07:32:15Z</time>
      </trkpt>
      <trkpt lat="47.25289" lon="-0.45353">
        <ele>54</ele>
        <time>2020-08-02T07:32:16Z</time>
      </trkpt>
      <trkpt lat="47.25288" lon="-0.45346">
        <ele>54</ele>
        <time>2020-08-02T07:32:18Z</time>
      </trkpt>
      <trkpt lat="47.25287" lon="-0.45342">
        <ele>54</ele>
        <time>2020-08-02T07:32:19Z</time>
      </trkpt>
      <trkpt lat="47.25287" lon="-0.45339">
        <ele>54</ele>
        <time>2020-08-02T07:32:20Z</time>
      </trkpt>
      <trkpt lat="47.25287" lon="-0.45336">
        <ele>54</ele>
        <time>2020-08-02T07:32:21Z</time>
      </trkpt>
      <trkpt lat="47.25286" lon="-0.45332">
        <ele>54</ele>
        <time>2020-08-02T07:32:22Z</time>
      </trkpt>
      <trkpt lat="47.25286" lon="-0.45329">
        <ele>54</ele>
        <time>2020-08-02T07:32:23Z</time>
      </trkpt>
      <trkpt lat="47.25286" lon="-0.45326">
        <ele>54.2</ele>
        <time>2020-08-02T07:32:24Z</time>
      </trkpt>
      <trkpt lat="47.25285" lon="-0.45322">
        <ele>54.2</ele>
        <time>2020-08-02T07:32:25Z</time>
      </trkpt>
      <trkpt lat="47.25285" lon="-0.4532">
        <ele>54.2</ele>
        <time>2020-08-02T07:32:26Z</time>
      </trkpt>
      <trkpt lat="47.25285" lon="-0.45317">
        <ele>54.2</ele>
        <time>2020-08-02T07:32:27Z</time>
      </trkpt>
      <trkpt lat="47.25285" lon="-0.45314">
        <ele>54.2</ele>
        <time>2020-08-02T07:32:28Z</time>
      </trkpt>
      <trkpt lat="47.25284" lon="-0.4531">
        <ele>54.2</ele>
        <time>2020-08-02T07:32:29Z</time>
      </trkpt>
      <trkpt lat="47.25284" lon="-0.45307">
        <ele>54.4</ele>
        <time>2020-08-02T07:32:30Z</time>
      </trkpt>
      <trkpt lat="47.25285" lon="-0.45303">
        <ele>54.4</ele>
        <time>2020-08-02T07:32:31Z</time>
      </trkpt>
      <trkpt lat="47.25286" lon="-0.45298">
        <ele>54.4</ele>
        <time>2020-08-02T07:32:33Z</time>
      </trkpt>
      <trkpt lat="47.25288" lon="-0.45295">
        <ele>54.4</ele>
        <time>2020-08-02T07:32:34Z</time>
      </trkpt>
      <trkpt lat="47.25292" lon="-0.45292">
        <ele>54.4</ele>
        <time>2020-08-02T07:32:36Z</time>
      </trkpt>
      <trkpt lat="47.25297" lon="-0.45289">
        <ele>54.4</ele>
        <time>2020-08-02T07:32:38Z</time>
      </trkpt>
      <trkpt lat="47.25299" lon="-0.45288">
        <ele>54.4</ele>
        <time>2020-08-02T07:32:39Z</time>
      </trkpt>
      <trkpt lat="47.25301" lon="-0.45287">
        <ele>54.4</ele>
        <time>2020-08-02T07:32:40Z</time>
      </trkpt>
      <trkpt lat="47.25305" lon="-0.45285">
        <ele>54.4</ele>
        <time>2020-08-02T07:32:42Z</time>
      </trkpt>
      <trkpt lat="47.25307" lon="-0.45282">
        <ele>54.6</ele>
        <time>2020-08-02T07:32:43Z</time>
      </trkpt>
      <trkpt lat="47.25308" lon="-0.45278">
        <ele>54.8</ele>
        <time>2020-08-02T07:32:44Z</time>
      </trkpt>
      <trkpt lat="47.25308" lon="-0.45275">
        <ele>55</ele>
        <time>2020-08-02T07:32:45Z</time>
      </trkpt>
      <trkpt lat="47.25308" lon="-0.45273">
        <ele>55.2</ele>
        <time>2020-08-02T07:32:46Z</time>
      </trkpt>
      <trkpt lat="47.25307" lon="-0.45269">
        <ele>55.2</ele>
        <time>2020-08-02T07:32:47Z</time>
      </trkpt>
      <trkpt lat="47.25307" lon="-0.45265">
        <ele>55.4</ele>
        <time>2020-08-02T07:32:48Z</time>
      </trkpt>
      <trkpt lat="47.25306" lon="-0.45261">
        <ele>55.4</ele>
        <time>2020-08-02T07:32:49Z</time>
      </trkpt>
      <trkpt lat="47.25306" lon="-0.45258">
        <ele>55.6</ele>
        <time>2020-08-02T07:32:50Z</time>
      </trkpt>
      <trkpt lat="47.25305" lon="-0.45254">
        <ele>55.8</ele>
        <time>2020-08-02T07:32:51Z</time>
      </trkpt>
      <trkpt lat="47.25304" lon="-0.45249">
        <ele>55.8</ele>
        <time>2020-08-02T07:32:52Z</time>
      </trkpt>
      <trkpt lat="47.25303" lon="-0.45245">
        <ele>55.8</ele>
        <time>2020-08-02T07:32:53Z</time>
      </trkpt>
      <trkpt lat="47.25301" lon="-0.45241">
        <ele>56</ele>
        <time>2020-08-02T07:32:54Z</time>
      </trkpt>
      <trkpt lat="47.253" lon="-0.45237">
        <ele>55.8</ele>
        <time>2020-08-02T07:32:55Z</time>
      </trkpt>
      <trkpt lat="47.25295" lon="-0.45223">
        <ele>55.2</ele>
        <time>2020-08-02T07:32:58Z</time>
      </trkpt>
      <trkpt lat="47.25291" lon="-0.45216">
        <ele>55</ele>
        <time>2020-08-02T07:33:00Z</time>
      </trkpt>
      <trkpt lat="47.25286" lon="-0.45204">
        <ele>54.8</ele>
        <time>2020-08-02T07:33:03Z</time>
      </trkpt>
      <trkpt lat="47.25285" lon="-0.45201">
        <ele>54.8</ele>
        <time>2020-08-02T07:33:04Z</time>
      </trkpt>
      <trkpt lat="47.25284" lon="-0.45198">
        <ele>54.6</ele>
        <time>2020-08-02T07:33:05Z</time>
      </trkpt>
      <trkpt lat="47.25283" lon="-0.45195">
        <ele>54.6</ele>
        <time>2020-08-02T07:33:06Z</time>
      </trkpt>
      <trkpt lat="47.25283" lon="-0.45192">
        <ele>54.4</ele>
        <time>2020-08-02T07:33:07Z</time>
      </trkpt>
      <trkpt lat="47.25282" lon="-0.45191">
        <ele>54.4</ele>
        <time>2020-08-02T07:33:08Z</time>
      </trkpt>
      <trkpt lat="47.25281" lon="-0.45189">
        <ele>54.4</ele>
        <time>2020-08-02T07:33:09Z</time>
      </trkpt>
      <trkpt lat="47.25279" lon="-0.45187">
        <ele>54.2</ele>
        <time>2020-08-02T07:33:10Z</time>
      </trkpt>
      <trkpt lat="47.25277" lon="-0.45187">
        <ele>54.2</ele>
        <time>2020-08-02T07:33:11Z</time>
      </trkpt>
      <trkpt lat="47.25274" lon="-0.45187">
        <ele>54.2</ele>
        <time>2020-08-02T07:33:12Z</time>
      </trkpt>
      <trkpt lat="47.25272" lon="-0.45187">
        <ele>54.2</ele>
        <time>2020-08-02T07:33:13Z</time>
      </trkpt>
      <trkpt lat="47.25269" lon="-0.45186">
        <ele>54</ele>
        <time>2020-08-02T07:33:14Z</time>
      </trkpt>
      <trkpt lat="47.25266" lon="-0.45183">
        <ele>54</ele>
        <time>2020-08-02T07:33:15Z</time>
      </trkpt>
      <trkpt lat="47.25264" lon="-0.45179">
        <ele>54</ele>
        <time>2020-08-02T07:33:16Z</time>
      </trkpt>
      <trkpt lat="47.25262" lon="-0.45175">
        <ele>54</ele>
        <time>2020-08-02T07:33:17Z</time>
      </trkpt>
      <trkpt lat="47.25258" lon="-0.45161">
        <ele>53.8</ele>
        <time>2020-08-02T07:33:20Z</time>
      </trkpt>
      <trkpt lat="47.25257" lon="-0.45156">
        <ele>53.8</ele>
        <time>2020-08-02T07:33:21Z</time>
      </trkpt>
      <trkpt lat="47.25256" lon="-0.45152">
        <ele>53.8</ele>
        <time>2020-08-02T07:33:22Z</time>
      </trkpt>
      <trkpt lat="47.25255" lon="-0.45149">
        <ele>53.8</ele>
        <time>2020-08-02T07:33:23Z</time>
      </trkpt>
      <trkpt lat="47.25254" lon="-0.45144">
        <ele>53.8</ele>
        <time>2020-08-02T07:33:24Z</time>
      </trkpt>
      <trkpt lat="47.25253" lon="-0.4514">
        <ele>53.8</ele>
        <time>2020-08-02T07:33:25Z</time>
      </trkpt>
      <trkpt lat="47.25251" lon="-0.45133">
        <ele>53.8</ele>
        <time>2020-08-02T07:33:27Z</time>
      </trkpt>
      <trkpt lat="47.2525" lon="-0.4513">
        <ele>53.8</ele>
        <time>2020-08-02T07:33:28Z</time>
      </trkpt>
      <trkpt lat="47.25249" lon="-0.45126">
        <ele>53.6</ele>
        <time>2020-08-02T07:33:29Z</time>
      </trkpt>
      <trkpt lat="47.25247" lon="-0.45122">
        <ele>53.6</ele>
        <time>2020-08-02T07:33:30Z</time>
      </trkpt>
      <trkpt lat="47.25246" lon="-0.45118">
        <ele>53.6</ele>
        <time>2020-08-02T07:33:31Z</time>
      </trkpt>
      <trkpt lat="47.25244" lon="-0.45114">
        <ele>53.4</ele>
        <time>2020-08-02T07:33:32Z</time>
      </trkpt>
      <trkpt lat="47.25242" lon="-0.45109">
        <ele>53.4</ele>
        <time>2020-08-02T07:33:33Z</time>
      </trkpt>
      <trkpt lat="47.2524" lon="-0.45105">
        <ele>53.4</ele>
        <time>2020-08-02T07:33:34Z</time>
      </trkpt>
      <trkpt lat="47.25239" lon="-0.451">
        <ele>53.2</ele>
        <time>2020-08-02T07:33:35Z</time>
      </trkpt>
      <trkpt lat="47.25237" lon="-0.45096">
        <ele>53.2</ele>
        <time>2020-08-02T07:33:36Z</time>
      </trkpt>
      <trkpt lat="47.25232" lon="-0.4508">
        <ele>53</ele>
        <time>2020-08-02T07:33:39Z</time>
      </trkpt>
      <trkpt lat="47.25228" lon="-0.45071">
        <ele>53</ele>
        <time>2020-08-02T07:33:41Z</time>
      </trkpt>
      <trkpt lat="47.25226" lon="-0.45066">
        <ele>53</ele>
        <time>2020-08-02T07:33:42Z</time>
      </trkpt>
      <trkpt lat="47.25218" lon="-0.45047">
        <ele>52.8</ele>
        <time>2020-08-02T07:33:46Z</time>
      </trkpt>
      <trkpt lat="47.25215" lon="-0.45041">
        <ele>52.6</ele>
        <time>2020-08-02T07:33:47Z</time>
      </trkpt>
      <trkpt lat="47.25213" lon="-0.45036">
        <ele>52.6</ele>
        <time>2020-08-02T07:33:48Z</time>
      </trkpt>
      <trkpt lat="47.2521" lon="-0.45032">
        <ele>52.2</ele>
        <time>2020-08-02T07:33:49Z</time>
      </trkpt>
      <trkpt lat="47.25208" lon="-0.45028">
        <ele>52.2</ele>
        <time>2020-08-02T07:33:50Z</time>
      </trkpt>
      <trkpt lat="47.25205" lon="-0.45022">
        <ele>52.2</ele>
        <time>2020-08-02T07:33:51Z</time>
      </trkpt>
      <trkpt lat="47.25182" lon="-0.4498">
        <ele>52</ele>
        <time>2020-08-02T07:34:00Z</time>
      </trkpt>
      <trkpt lat="47.25179" lon="-0.44975">
        <ele>52</ele>
        <time>2020-08-02T07:34:01Z</time>
      </trkpt>
      <trkpt lat="47.25176" lon="-0.44972">
        <ele>52</ele>
        <time>2020-08-02T07:34:02Z</time>
      </trkpt>
      <trkpt lat="47.25175" lon="-0.44969">
        <ele>51.8</ele>
        <time>2020-08-02T07:34:03Z</time>
      </trkpt>
      <trkpt lat="47.25172" lon="-0.44966">
        <ele>51.6</ele>
        <time>2020-08-02T07:34:04Z</time>
      </trkpt>
      <trkpt lat="47.2517" lon="-0.44962">
        <ele>51.6</ele>
        <time>2020-08-02T07:34:05Z</time>
      </trkpt>
      <trkpt lat="47.25168" lon="-0.44959">
        <ele>51.6</ele>
        <time>2020-08-02T07:34:06Z</time>
      </trkpt>
      <trkpt lat="47.25166" lon="-0.44957">
        <ele>51.6</ele>
        <time>2020-08-02T07:34:07Z</time>
      </trkpt>
      <trkpt lat="47.25164" lon="-0.44954">
        <ele>51.4</ele>
        <time>2020-08-02T07:34:08Z</time>
      </trkpt>
      <trkpt lat="47.25162" lon="-0.44951">
        <ele>51.4</ele>
        <time>2020-08-02T07:34:09Z</time>
      </trkpt>
      <trkpt lat="47.2516" lon="-0.44948">
        <ele>51.2</ele>
        <time>2020-08-02T07:34:10Z</time>
      </trkpt>
      <trkpt lat="47.25157" lon="-0.44944">
        <ele>51.2</ele>
        <time>2020-08-02T07:34:11Z</time>
      </trkpt>
      <trkpt lat="47.25154" lon="-0.4494">
        <ele>51.2</ele>
        <time>2020-08-02T07:34:12Z</time>
      </trkpt>
      <trkpt lat="47.25151" lon="-0.44938">
        <ele>51.2</ele>
        <time>2020-08-02T07:34:13Z</time>
      </trkpt>
      <trkpt lat="47.25148" lon="-0.44934">
        <ele>51.2</ele>
        <time>2020-08-02T07:34:14Z</time>
      </trkpt>
      <trkpt lat="47.25144" lon="-0.44931">
        <ele>51.2</ele>
        <time>2020-08-02T07:34:15Z</time>
      </trkpt>
      <trkpt lat="47.25132" lon="-0.44917">
        <ele>51.2</ele>
        <time>2020-08-02T07:34:19Z</time>
      </trkpt>
      <trkpt lat="47.25129" lon="-0.44914">
        <ele>51.2</ele>
        <time>2020-08-02T07:34:20Z</time>
      </trkpt>
      <trkpt lat="47.25122" lon="-0.44906">
        <ele>51.2</ele>
        <time>2020-08-02T07:34:22Z</time>
      </trkpt>
      <trkpt lat="47.25119" lon="-0.44901">
        <ele>51.4</ele>
        <time>2020-08-02T07:34:23Z</time>
      </trkpt>
      <trkpt lat="47.25108" lon="-0.44889">
        <ele>51</ele>
        <time>2020-08-02T07:34:27Z</time>
      </trkpt>
      <trkpt lat="47.25104" lon="-0.44884">
        <ele>51</ele>
        <time>2020-08-02T07:34:28Z</time>
      </trkpt>
      <trkpt lat="47.251" lon="-0.44879">
        <ele>51</ele>
        <time>2020-08-02T07:34:29Z</time>
      </trkpt>
      <trkpt lat="47.25096" lon="-0.44876">
        <ele>51</ele>
        <time>2020-08-02T07:34:30Z</time>
      </trkpt>
      <trkpt lat="47.25093" lon="-0.44872">
        <ele>51</ele>
        <time>2020-08-02T07:34:31Z</time>
      </trkpt>
      <trkpt lat="47.25085" lon="-0.44864">
        <ele>51</ele>
        <time>2020-08-02T07:34:33Z</time>
      </trkpt>
      <trkpt lat="47.25075" lon="-0.44853">
        <ele>50.8</ele>
        <time>2020-08-02T07:34:36Z</time>
      </trkpt>
      <trkpt lat="47.25071" lon="-0.44849">
        <ele>50.8</ele>
        <time>2020-08-02T07:34:37Z</time>
      </trkpt>
      <trkpt lat="47.25061" lon="-0.4484">
        <ele>50.8</ele>
        <time>2020-08-02T07:34:40Z</time>
      </trkpt>
      <trkpt lat="47.25057" lon="-0.44834">
        <ele>50.8</ele>
        <time>2020-08-02T07:34:41Z</time>
      </trkpt>
      <trkpt lat="47.25055" lon="-0.4483">
        <ele>50.8</ele>
        <time>2020-08-02T07:34:42Z</time>
      </trkpt>
      <trkpt lat="47.25052" lon="-0.44826">
        <ele>50.8</ele>
        <time>2020-08-02T07:34:43Z</time>
      </trkpt>
      <trkpt lat="47.25049" lon="-0.44824">
        <ele>50.8</ele>
        <time>2020-08-02T07:34:44Z</time>
      </trkpt>
      <trkpt lat="47.25047" lon="-0.44821">
        <ele>50.8</ele>
        <time>2020-08-02T07:34:45Z</time>
      </trkpt>
      <trkpt lat="47.25042" lon="-0.44815">
        <ele>50.8</ele>
        <time>2020-08-02T07:34:46Z</time>
      </trkpt>
      <trkpt lat="47.25028" lon="-0.44802">
        <ele>51</ele>
        <time>2020-08-02T07:34:50Z</time>
      </trkpt>
      <trkpt lat="47.25026" lon="-0.44799">
        <ele>51.2</ele>
        <time>2020-08-02T07:34:51Z</time>
      </trkpt>
      <trkpt lat="47.25022" lon="-0.44795">
        <ele>51.2</ele>
        <time>2020-08-02T07:34:52Z</time>
      </trkpt>
      <trkpt lat="47.25016" lon="-0.44788">
        <ele>51.4</ele>
        <time>2020-08-02T07:34:54Z</time>
      </trkpt>
      <trkpt lat="47.24985" lon="-0.44755">
        <ele>51.6</ele>
        <time>2020-08-02T07:35:04Z</time>
      </trkpt>
      <trkpt lat="47.24982" lon="-0.44752">
        <ele>51.8</ele>
        <time>2020-08-02T07:35:05Z</time>
      </trkpt>
      <trkpt lat="47.2498" lon="-0.44749">
        <ele>52</ele>
        <time>2020-08-02T07:35:06Z</time>
      </trkpt>
      <trkpt lat="47.24977" lon="-0.44746">
        <ele>52</ele>
        <time>2020-08-02T07:35:07Z</time>
      </trkpt>
      <trkpt lat="47.24974" lon="-0.44743">
        <ele>52</ele>
        <time>2020-08-02T07:35:08Z</time>
      </trkpt>
      <trkpt lat="47.24972" lon="-0.44739">
        <ele>52</ele>
        <time>2020-08-02T07:35:09Z</time>
      </trkpt>
      <trkpt lat="47.24969" lon="-0.44736">
        <ele>52.2</ele>
        <time>2020-08-02T07:35:10Z</time>
      </trkpt>
      <trkpt lat="47.24967" lon="-0.44734">
        <ele>52.2</ele>
        <time>2020-08-02T07:35:11Z</time>
      </trkpt>
      <trkpt lat="47.24964" lon="-0.44731">
        <ele>52.2</ele>
        <time>2020-08-02T07:35:12Z</time>
      </trkpt>
      <trkpt lat="47.24961" lon="-0.44727">
        <ele>52.2</ele>
        <time>2020-08-02T07:35:13Z</time>
      </trkpt>
      <trkpt lat="47.24958" lon="-0.44724">
        <ele>52.2</ele>
        <time>2020-08-02T07:35:14Z</time>
      </trkpt>
      <trkpt lat="47.24955" lon="-0.4472">
        <ele>52.2</ele>
        <time>2020-08-02T07:35:15Z</time>
      </trkpt>
      <trkpt lat="47.24952" lon="-0.44717">
        <ele>52.4</ele>
        <time>2020-08-02T07:35:16Z</time>
      </trkpt>
      <trkpt lat="47.2495" lon="-0.44714">
        <ele>52.4</ele>
        <time>2020-08-02T07:35:17Z</time>
      </trkpt>
      <trkpt lat="47.24946" lon="-0.4471">
        <ele>52.4</ele>
        <time>2020-08-02T07:35:18Z</time>
      </trkpt>
      <trkpt lat="47.24941" lon="-0.44704">
        <ele>52.4</ele>
        <time>2020-08-02T07:35:20Z</time>
      </trkpt>
      <trkpt lat="47.24938" lon="-0.447">
        <ele>52.4</ele>
        <time>2020-08-02T07:35:21Z</time>
      </trkpt>
      <trkpt lat="47.24931" lon="-0.44693">
        <ele>52.4</ele>
        <time>2020-08-02T07:35:23Z</time>
      </trkpt>
      <trkpt lat="47.24929" lon="-0.4469">
        <ele>52.6</ele>
        <time>2020-08-02T07:35:24Z</time>
      </trkpt>
      <trkpt lat="47.24924" lon="-0.44685">
        <ele>52.6</ele>
        <time>2020-08-02T07:35:26Z</time>
      </trkpt>
      <trkpt lat="47.2492" lon="-0.44681">
        <ele>52.8</ele>
        <time>2020-08-02T07:35:27Z</time>
      </trkpt>
      <trkpt lat="47.24917" lon="-0.44678">
        <ele>52.8</ele>
        <time>2020-08-02T07:35:28Z</time>
      </trkpt>
      <trkpt lat="47.24914" lon="-0.44674">
        <ele>52.8</ele>
        <time>2020-08-02T07:35:29Z</time>
      </trkpt>
      <trkpt lat="47.24912" lon="-0.44671">
        <ele>52.6</ele>
        <time>2020-08-02T07:35:30Z</time>
      </trkpt>
      <trkpt lat="47.24906" lon="-0.44665">
        <ele>53</ele>
        <time>2020-08-02T07:35:32Z</time>
      </trkpt>
      <trkpt lat="47.24903" lon="-0.44662">
        <ele>53</ele>
        <time>2020-08-02T07:35:33Z</time>
      </trkpt>
      <trkpt lat="47.24901" lon="-0.4466">
        <ele>53</ele>
        <time>2020-08-02T07:35:34Z</time>
      </trkpt>
      <trkpt lat="47.24898" lon="-0.44657">
        <ele>53</ele>
        <time>2020-08-02T07:35:35Z</time>
      </trkpt>
      <trkpt lat="47.24895" lon="-0.44653">
        <ele>53.2</ele>
        <time>2020-08-02T07:35:36Z</time>
      </trkpt>
      <trkpt lat="47.24892" lon="-0.4465">
        <ele>53.4</ele>
        <time>2020-08-02T07:35:37Z</time>
      </trkpt>
      <trkpt lat="47.24889" lon="-0.44647">
        <ele>53.4</ele>
        <time>2020-08-02T07:35:38Z</time>
      </trkpt>
      <trkpt lat="47.24887" lon="-0.44645">
        <ele>53.4</ele>
        <time>2020-08-02T07:35:39Z</time>
      </trkpt>
      <trkpt lat="47.24884" lon="-0.44642">
        <ele>53.4</ele>
        <time>2020-08-02T07:35:40Z</time>
      </trkpt>
      <trkpt lat="47.24881" lon="-0.44638">
        <ele>53.6</ele>
        <time>2020-08-02T07:35:41Z</time>
      </trkpt>
      <trkpt lat="47.24878" lon="-0.44635">
        <ele>53.6</ele>
        <time>2020-08-02T07:35:42Z</time>
      </trkpt>
      <trkpt lat="47.24875" lon="-0.44632">
        <ele>53.6</ele>
        <time>2020-08-02T07:35:43Z</time>
      </trkpt>
      <trkpt lat="47.24869" lon="-0.44624">
        <ele>53.8</ele>
        <time>2020-08-02T07:35:45Z</time>
      </trkpt>
      <trkpt lat="47.24851" lon="-0.44604">
        <ele>54</ele>
        <time>2020-08-02T07:35:51Z</time>
      </trkpt>
      <trkpt lat="47.24843" lon="-0.44594">
        <ele>54.4</ele>
        <time>2020-08-02T07:35:54Z</time>
      </trkpt>
      <trkpt lat="47.24839" lon="-0.44591">
        <ele>54.4</ele>
        <time>2020-08-02T07:35:55Z</time>
      </trkpt>
      <trkpt lat="47.24837" lon="-0.44588">
        <ele>54.6</ele>
        <time>2020-08-02T07:35:56Z</time>
      </trkpt>
      <trkpt lat="47.24828" lon="-0.44579">
        <ele>54.6</ele>
        <time>2020-08-02T07:35:59Z</time>
      </trkpt>
      <trkpt lat="47.24826" lon="-0.44576">
        <ele>54.8</ele>
        <time>2020-08-02T07:36:00Z</time>
      </trkpt>
      <trkpt lat="47.24823" lon="-0.44573">
        <ele>54.8</ele>
        <time>2020-08-02T07:36:01Z</time>
      </trkpt>
      <trkpt lat="47.24821" lon="-0.4457">
        <ele>54.6</ele>
        <time>2020-08-02T07:36:02Z</time>
      </trkpt>
      <trkpt lat="47.24817" lon="-0.44567">
        <ele>54.8</ele>
        <time>2020-08-02T07:36:03Z</time>
      </trkpt>
      <trkpt lat="47.24815" lon="-0.44564">
        <ele>54.8</ele>
        <time>2020-08-02T07:36:04Z</time>
      </trkpt>
      <trkpt lat="47.24812" lon="-0.44561">
        <ele>54.8</ele>
        <time>2020-08-02T07:36:05Z</time>
      </trkpt>
      <trkpt lat="47.2481" lon="-0.44558">
        <ele>54.8</ele>
        <time>2020-08-02T07:36:06Z</time>
      </trkpt>
      <trkpt lat="47.24807" lon="-0.44555">
        <ele>54.8</ele>
        <time>2020-08-02T07:36:07Z</time>
      </trkpt>
      <trkpt lat="47.24804" lon="-0.44551">
        <ele>54.8</ele>
        <time>2020-08-02T07:36:08Z</time>
      </trkpt>
      <trkpt lat="47.24801" lon="-0.44548">
        <ele>55</ele>
        <time>2020-08-02T07:36:09Z</time>
      </trkpt>
      <trkpt lat="47.24799" lon="-0.44545">
        <ele>55.2</ele>
        <time>2020-08-02T07:36:10Z</time>
      </trkpt>
      <trkpt lat="47.24796" lon="-0.44543">
        <ele>55.2</ele>
        <time>2020-08-02T07:36:11Z</time>
      </trkpt>
      <trkpt lat="47.24793" lon="-0.44539">
        <ele>55.2</ele>
        <time>2020-08-02T07:36:12Z</time>
      </trkpt>
      <trkpt lat="47.2479" lon="-0.44536">
        <ele>55.4</ele>
        <time>2020-08-02T07:36:13Z</time>
      </trkpt>
      <trkpt lat="47.24788" lon="-0.44533">
        <ele>55.4</ele>
        <time>2020-08-02T07:36:14Z</time>
      </trkpt>
      <trkpt lat="47.24786" lon="-0.44531">
        <ele>55.4</ele>
        <time>2020-08-02T07:36:15Z</time>
      </trkpt>
      <trkpt lat="47.24783" lon="-0.44527">
        <ele>55.4</ele>
        <time>2020-08-02T07:36:16Z</time>
      </trkpt>
      <trkpt lat="47.24779" lon="-0.44524">
        <ele>55.4</ele>
        <time>2020-08-02T07:36:17Z</time>
      </trkpt>
      <trkpt lat="47.24774" lon="-0.44518">
        <ele>55.4</ele>
        <time>2020-08-02T07:36:19Z</time>
      </trkpt>
      <trkpt lat="47.24772" lon="-0.44515">
        <ele>55.6</ele>
        <time>2020-08-02T07:36:20Z</time>
      </trkpt>
      <trkpt lat="47.2477" lon="-0.44512">
        <ele>55.6</ele>
        <time>2020-08-02T07:36:21Z</time>
      </trkpt>
      <trkpt lat="47.24766" lon="-0.44509">
        <ele>55.6</ele>
        <time>2020-08-02T07:36:22Z</time>
      </trkpt>
      <trkpt lat="47.24764" lon="-0.44506">
        <ele>55.6</ele>
        <time>2020-08-02T07:36:23Z</time>
      </trkpt>
      <trkpt lat="47.24748" lon="-0.44489">
        <ele>69.4</ele>
        <time>2020-08-02T07:36:29Z</time>
      </trkpt>
      <trkpt lat="47.24745" lon="-0.44485">
        <ele>55.8</ele>
        <time>2020-08-02T07:36:30Z</time>
      </trkpt>
      <trkpt lat="47.24742" lon="-0.44482">
        <ele>55.8</ele>
        <time>2020-08-02T07:36:31Z</time>
      </trkpt>
      <trkpt lat="47.24734" lon="-0.44473">
        <ele>56</ele>
        <time>2020-08-02T07:36:34Z</time>
      </trkpt>
      <trkpt lat="47.24731" lon="-0.4447">
        <ele>56</ele>
        <time>2020-08-02T07:36:35Z</time>
      </trkpt>
      <trkpt lat="47.24729" lon="-0.44467">
        <ele>56</ele>
        <time>2020-08-02T07:36:36Z</time>
      </trkpt>
      <trkpt lat="47.24726" lon="-0.44464">
        <ele>56.2</ele>
        <time>2020-08-02T07:36:37Z</time>
      </trkpt>
      <trkpt lat="47.24724" lon="-0.44461">
        <ele>56.2</ele>
        <time>2020-08-02T07:36:38Z</time>
      </trkpt>
      <trkpt lat="47.24721" lon="-0.44458">
        <ele>56.2</ele>
        <time>2020-08-02T07:36:39Z</time>
      </trkpt>
      <trkpt lat="47.24718" lon="-0.44454">
        <ele>56.2</ele>
        <time>2020-08-02T07:36:40Z</time>
      </trkpt>
      <trkpt lat="47.24712" lon="-0.44448">
        <ele>56.2</ele>
        <time>2020-08-02T07:36:42Z</time>
      </trkpt>
      <trkpt lat="47.24702" lon="-0.44437">
        <ele>56.4</ele>
        <time>2020-08-02T07:36:46Z</time>
      </trkpt>
      <trkpt lat="47.24701" lon="-0.44435">
        <ele>56.4</ele>
        <time>2020-08-02T07:36:47Z</time>
      </trkpt>
      <trkpt lat="47.24701" lon="-0.44433">
        <ele>56.6</ele>
        <time>2020-08-02T07:36:48Z</time>
      </trkpt>
      <trkpt lat="47.24701" lon="-0.4443">
        <ele>56.6</ele>
        <time>2020-08-02T07:36:49Z</time>
      </trkpt>
      <trkpt lat="47.24702" lon="-0.44427">
        <ele>56.8</ele>
        <time>2020-08-02T07:36:50Z</time>
      </trkpt>
      <trkpt lat="47.24703" lon="-0.44424">
        <ele>56.8</ele>
        <time>2020-08-02T07:36:51Z</time>
      </trkpt>
      <trkpt lat="47.24705" lon="-0.44419">
        <ele>57</ele>
        <time>2020-08-02T07:36:53Z</time>
      </trkpt>
      <trkpt lat="47.24706" lon="-0.44416">
        <ele>57.4</ele>
        <time>2020-08-02T07:36:54Z</time>
      </trkpt>
      <trkpt lat="47.24707" lon="-0.44412">
        <ele>57.6</ele>
        <time>2020-08-02T07:36:55Z</time>
      </trkpt>
      <trkpt lat="47.24709" lon="-0.44409">
        <ele>57.6</ele>
        <time>2020-08-02T07:36:56Z</time>
      </trkpt>
      <trkpt lat="47.2471" lon="-0.44406">
        <ele>57.6</ele>
        <time>2020-08-02T07:36:57Z</time>
      </trkpt>
      <trkpt lat="47.24712" lon="-0.44401">
        <ele>57.6</ele>
        <time>2020-08-02T07:36:58Z</time>
      </trkpt>
      <trkpt lat="47.24713" lon="-0.44397">
        <ele>57.6</ele>
        <time>2020-08-02T07:36:59Z</time>
      </trkpt>
      <trkpt lat="47.24715" lon="-0.44392">
        <ele>57.6</ele>
        <time>2020-08-02T07:37:00Z</time>
      </trkpt>
      <trkpt lat="47.24728" lon="-0.44358">
        <ele>57.4</ele>
        <time>2020-08-02T07:37:08Z</time>
      </trkpt>
      <trkpt lat="47.2473" lon="-0.44354">
        <ele>57.4</ele>
        <time>2020-08-02T07:37:09Z</time>
      </trkpt>
      <trkpt lat="47.24734" lon="-0.44342">
        <ele>57.4</ele>
        <time>2020-08-02T07:37:12Z</time>
      </trkpt>
      <trkpt lat="47.24738" lon="-0.4433">
        <ele>57</ele>
        <time>2020-08-02T07:37:15Z</time>
      </trkpt>
      <trkpt lat="47.2474" lon="-0.44325">
        <ele>57</ele>
        <time>2020-08-02T07:37:16Z</time>
      </trkpt>
      <trkpt lat="47.24741" lon="-0.44321">
        <ele>56.8</ele>
        <time>2020-08-02T07:37:17Z</time>
      </trkpt>
      <trkpt lat="47.24743" lon="-0.44318">
        <ele>56.8</ele>
        <time>2020-08-02T07:37:18Z</time>
      </trkpt>
      <trkpt lat="47.24744" lon="-0.44315">
        <ele>56.8</ele>
        <time>2020-08-02T07:37:19Z</time>
      </trkpt>
      <trkpt lat="47.24745" lon="-0.4431">
        <ele>56.8</ele>
        <time>2020-08-02T07:37:20Z</time>
      </trkpt>
      <trkpt lat="47.24747" lon="-0.44306">
        <ele>56.8</ele>
        <time>2020-08-02T07:37:21Z</time>
      </trkpt>
      <trkpt lat="47.24748" lon="-0.44302">
        <ele>56.8</ele>
        <time>2020-08-02T07:37:22Z</time>
      </trkpt>
      <trkpt lat="47.24754" lon="-0.4429">
        <ele>56.6</ele>
        <time>2020-08-02T07:37:25Z</time>
      </trkpt>
      <trkpt lat="47.24755" lon="-0.44286">
        <ele>56.6</ele>
        <time>2020-08-02T07:37:26Z</time>
      </trkpt>
      <trkpt lat="47.24759" lon="-0.44279">
        <ele>56</ele>
        <time>2020-08-02T07:37:28Z</time>
      </trkpt>
      <trkpt lat="47.24764" lon="-0.44266">
        <ele>55.8</ele>
        <time>2020-08-02T07:37:31Z</time>
      </trkpt>
      <trkpt lat="47.24766" lon="-0.44262">
        <ele>55.8</ele>
        <time>2020-08-02T07:37:32Z</time>
      </trkpt>
      <trkpt lat="47.24772" lon="-0.4425">
        <ele>55.8</ele>
        <time>2020-08-02T07:37:35Z</time>
      </trkpt>
      <trkpt lat="47.24773" lon="-0.44247">
        <ele>56</ele>
        <time>2020-08-02T07:37:36Z</time>
      </trkpt>
      <trkpt lat="47.24774" lon="-0.44244">
        <ele>56</ele>
        <time>2020-08-02T07:37:37Z</time>
      </trkpt>
      <trkpt lat="47.24776" lon="-0.4424">
        <ele>56</ele>
        <time>2020-08-02T07:37:38Z</time>
      </trkpt>
      <trkpt lat="47.24778" lon="-0.44236">
        <ele>56.2</ele>
        <time>2020-08-02T07:37:39Z</time>
      </trkpt>
      <trkpt lat="47.2478" lon="-0.44232">
        <ele>56.2</ele>
        <time>2020-08-02T07:37:40Z</time>
      </trkpt>
      <trkpt lat="47.24782" lon="-0.44229">
        <ele>56.2</ele>
        <time>2020-08-02T07:37:41Z</time>
      </trkpt>
      <trkpt lat="47.24783" lon="-0.44226">
        <ele>56.2</ele>
        <time>2020-08-02T07:37:42Z</time>
      </trkpt>
      <trkpt lat="47.24785" lon="-0.44222">
        <ele>56.2</ele>
        <time>2020-08-02T07:37:43Z</time>
      </trkpt>
      <trkpt lat="47.24787" lon="-0.44218">
        <ele>56.4</ele>
        <time>2020-08-02T07:37:44Z</time>
      </trkpt>
      <trkpt lat="47.24788" lon="-0.44214">
        <ele>56.4</ele>
        <time>2020-08-02T07:37:45Z</time>
      </trkpt>
      <trkpt lat="47.2479" lon="-0.44212">
        <ele>56.4</ele>
        <time>2020-08-02T07:37:46Z</time>
      </trkpt>
      <trkpt lat="47.24791" lon="-0.44208">
        <ele>56.4</ele>
        <time>2020-08-02T07:37:47Z</time>
      </trkpt>
      <trkpt lat="47.24793" lon="-0.44204">
        <ele>56.6</ele>
        <time>2020-08-02T07:37:48Z</time>
      </trkpt>
      <trkpt lat="47.24794" lon="-0.44201">
        <ele>56.6</ele>
        <time>2020-08-02T07:37:49Z</time>
      </trkpt>
      <trkpt lat="47.24795" lon="-0.44197">
        <ele>56.6</ele>
        <time>2020-08-02T07:37:50Z</time>
      </trkpt>
      <trkpt lat="47.24797" lon="-0.44193">
        <ele>56.6</ele>
        <time>2020-08-02T07:37:51Z</time>
      </trkpt>
      <trkpt lat="47.24799" lon="-0.44189">
        <ele>56.8</ele>
        <time>2020-08-02T07:37:52Z</time>
      </trkpt>
      <trkpt lat="47.24801" lon="-0.44185">
        <ele>56.8</ele>
        <time>2020-08-02T07:37:53Z</time>
      </trkpt>
      <trkpt lat="47.24803" lon="-0.44181">
        <ele>56.8</ele>
        <time>2020-08-02T07:37:54Z</time>
      </trkpt>
      <trkpt lat="47.24804" lon="-0.44178">
        <ele>57</ele>
        <time>2020-08-02T07:37:55Z</time>
      </trkpt>
      <trkpt lat="47.24805" lon="-0.44175">
        <ele>57</ele>
        <time>2020-08-02T07:37:56Z</time>
      </trkpt>
      <trkpt lat="47.24807" lon="-0.4417">
        <ele>57</ele>
        <time>2020-08-02T07:37:57Z</time>
      </trkpt>
      <trkpt lat="47.24808" lon="-0.44167">
        <ele>57</ele>
        <time>2020-08-02T07:37:58Z</time>
      </trkpt>
      <trkpt lat="47.24809" lon="-0.44163">
        <ele>57</ele>
        <time>2020-08-02T07:37:59Z</time>
      </trkpt>
      <trkpt lat="47.2481" lon="-0.44159">
        <ele>57.2</ele>
        <time>2020-08-02T07:38:00Z</time>
      </trkpt>
      <trkpt lat="47.24811" lon="-0.44155">
        <ele>57.2</ele>
        <time>2020-08-02T07:38:01Z</time>
      </trkpt>
      <trkpt lat="47.24811" lon="-0.44151">
        <ele>57.4</ele>
        <time>2020-08-02T07:38:02Z</time>
      </trkpt>
      <trkpt lat="47.24811" lon="-0.44147">
        <ele>57.4</ele>
        <time>2020-08-02T07:38:03Z</time>
      </trkpt>
      <trkpt lat="47.24811" lon="-0.44143">
        <ele>57.4</ele>
        <time>2020-08-02T07:38:04Z</time>
      </trkpt>
      <trkpt lat="47.24811" lon="-0.44139">
        <ele>57.4</ele>
        <time>2020-08-02T07:38:05Z</time>
      </trkpt>
      <trkpt lat="47.24811" lon="-0.44133">
        <ele>57.6</ele>
        <time>2020-08-02T07:38:06Z</time>
      </trkpt>
      <trkpt lat="47.24812" lon="-0.44129">
        <ele>57.6</ele>
        <time>2020-08-02T07:38:07Z</time>
      </trkpt>
      <trkpt lat="47.24812" lon="-0.44125">
        <ele>57.6</ele>
        <time>2020-08-02T07:38:08Z</time>
      </trkpt>
      <trkpt lat="47.24812" lon="-0.44122">
        <ele>58</ele>
        <time>2020-08-02T07:38:09Z</time>
      </trkpt>
      <trkpt lat="47.24812" lon="-0.44118">
        <ele>57.8</ele>
        <time>2020-08-02T07:38:10Z</time>
      </trkpt>
      <trkpt lat="47.24812" lon="-0.44114">
        <ele>58</ele>
        <time>2020-08-02T07:38:11Z</time>
      </trkpt>
      <trkpt lat="47.24812" lon="-0.44111">
        <ele>58</ele>
        <time>2020-08-02T07:38:12Z</time>
      </trkpt>
      <trkpt lat="47.24812" lon="-0.44108">
        <ele>58.2</ele>
        <time>2020-08-02T07:38:13Z</time>
      </trkpt>
      <trkpt lat="47.24812" lon="-0.44105">
        <ele>58.4</ele>
        <time>2020-08-02T07:38:14Z</time>
      </trkpt>
      <trkpt lat="47.24811" lon="-0.441">
        <ele>58.4</ele>
        <time>2020-08-02T07:38:15Z</time>
      </trkpt>
      <trkpt lat="47.24811" lon="-0.44096">
        <ele>58.4</ele>
        <time>2020-08-02T07:38:16Z</time>
      </trkpt>
      <trkpt lat="47.24811" lon="-0.44092">
        <ele>58.4</ele>
        <time>2020-08-02T07:38:17Z</time>
      </trkpt>
      <trkpt lat="47.24811" lon="-0.4409">
        <ele>58.6</ele>
        <time>2020-08-02T07:38:18Z</time>
      </trkpt>
      <trkpt lat="47.24812" lon="-0.44086">
        <ele>58.6</ele>
        <time>2020-08-02T07:38:19Z</time>
      </trkpt>
      <trkpt lat="47.24812" lon="-0.44083">
        <ele>58.6</ele>
        <time>2020-08-02T07:38:20Z</time>
      </trkpt>
      <trkpt lat="47.24812" lon="-0.4408">
        <ele>58.8</ele>
        <time>2020-08-02T07:38:21Z</time>
      </trkpt>
      <trkpt lat="47.24812" lon="-0.44076">
        <ele>58.8</ele>
        <time>2020-08-02T07:38:22Z</time>
      </trkpt>
      <trkpt lat="47.24812" lon="-0.44071">
        <ele>59</ele>
        <time>2020-08-02T07:38:23Z</time>
      </trkpt>
      <trkpt lat="47.24812" lon="-0.44066">
        <ele>59</ele>
        <time>2020-08-02T07:38:24Z</time>
      </trkpt>
      <trkpt lat="47.24812" lon="-0.44061">
        <ele>59.4</ele>
        <time>2020-08-02T07:38:25Z</time>
      </trkpt>
      <trkpt lat="47.24812" lon="-0.44057">
        <ele>59.6</ele>
        <time>2020-08-02T07:38:26Z</time>
      </trkpt>
      <trkpt lat="47.24813" lon="-0.44054">
        <ele>59.6</ele>
        <time>2020-08-02T07:38:27Z</time>
      </trkpt>
      <trkpt lat="47.24812" lon="-0.44051">
        <ele>59.8</ele>
        <time>2020-08-02T07:38:28Z</time>
      </trkpt>
      <trkpt lat="47.24812" lon="-0.44046">
        <ele>59.8</ele>
        <time>2020-08-02T07:38:29Z</time>
      </trkpt>
      <trkpt lat="47.24812" lon="-0.44041">
        <ele>60</ele>
        <time>2020-08-02T07:38:30Z</time>
      </trkpt>
      <trkpt lat="47.24812" lon="-0.44037">
        <ele>60</ele>
        <time>2020-08-02T07:38:31Z</time>
      </trkpt>
      <trkpt lat="47.24812" lon="-0.44033">
        <ele>60.2</ele>
        <time>2020-08-02T07:38:32Z</time>
      </trkpt>
      <trkpt lat="47.24812" lon="-0.4403">
        <ele>60.2</ele>
        <time>2020-08-02T07:38:33Z</time>
      </trkpt>
      <trkpt lat="47.24813" lon="-0.44024">
        <ele>60.4</ele>
        <time>2020-08-02T07:38:34Z</time>
      </trkpt>
      <trkpt lat="47.24813" lon="-0.44019">
        <ele>60.6</ele>
        <time>2020-08-02T07:38:35Z</time>
      </trkpt>
      <trkpt lat="47.24815" lon="-0.44014">
        <ele>60.6</ele>
        <time>2020-08-02T07:38:36Z</time>
      </trkpt>
      <trkpt lat="47.24816" lon="-0.44011">
        <ele>60.6</ele>
        <time>2020-08-02T07:38:37Z</time>
      </trkpt>
      <trkpt lat="47.24819" lon="-0.4401">
        <ele>60.8</ele>
        <time>2020-08-02T07:38:38Z</time>
      </trkpt>
      <trkpt lat="47.24821" lon="-0.4401">
        <ele>60.8</ele>
        <time>2020-08-02T07:38:39Z</time>
      </trkpt>
      <trkpt lat="47.24824" lon="-0.44009">
        <ele>60.8</ele>
        <time>2020-08-02T07:38:40Z</time>
      </trkpt>
      <trkpt lat="47.24826" lon="-0.44008">
        <ele>61</ele>
        <time>2020-08-02T07:38:41Z</time>
      </trkpt>
      <trkpt lat="47.24829" lon="-0.44007">
        <ele>61</ele>
        <time>2020-08-02T07:38:42Z</time>
      </trkpt>
      <trkpt lat="47.2484" lon="-0.44002">
        <ele>61</ele>
        <time>2020-08-02T07:38:46Z</time>
      </trkpt>
      <trkpt lat="47.24872" lon="-0.43988">
        <ele>60.6</ele>
        <time>2020-08-02T07:38:55Z</time>
      </trkpt>
      <trkpt lat="47.24896" lon="-0.43977">
        <ele>60.2</ele>
        <time>2020-08-02T07:39:01Z</time>
      </trkpt>
      <trkpt lat="47.24903" lon="-0.43974">
        <ele>60</ele>
        <time>2020-08-02T07:39:03Z</time>
      </trkpt>
      <trkpt lat="47.24907" lon="-0.43973">
        <ele>60</ele>
        <time>2020-08-02T07:39:04Z</time>
      </trkpt>
      <trkpt lat="47.24911" lon="-0.43971">
        <ele>60</ele>
        <time>2020-08-02T07:39:05Z</time>
      </trkpt>
      <trkpt lat="47.24927" lon="-0.43966">
        <ele>59.8</ele>
        <time>2020-08-02T07:39:09Z</time>
      </trkpt>
      <trkpt lat="47.24932" lon="-0.43964">
        <ele>59.8</ele>
        <time>2020-08-02T07:39:10Z</time>
      </trkpt>
      <trkpt lat="47.24935" lon="-0.43962">
        <ele>59.6</ele>
        <time>2020-08-02T07:39:11Z</time>
      </trkpt>
      <trkpt lat="47.24939" lon="-0.4396">
        <ele>59.6</ele>
        <time>2020-08-02T07:39:12Z</time>
      </trkpt>
      <trkpt lat="47.24943" lon="-0.43958">
        <ele>59.6</ele>
        <time>2020-08-02T07:39:13Z</time>
      </trkpt>
      <trkpt lat="47.24946" lon="-0.43956">
        <ele>59.4</ele>
        <time>2020-08-02T07:39:14Z</time>
      </trkpt>
      <trkpt lat="47.2495" lon="-0.43953">
        <ele>59.4</ele>
        <time>2020-08-02T07:39:15Z</time>
      </trkpt>
      <trkpt lat="47.24954" lon="-0.43951">
        <ele>59.2</ele>
        <time>2020-08-02T07:39:16Z</time>
      </trkpt>
      <trkpt lat="47.24956" lon="-0.43948">
        <ele>59.2</ele>
        <time>2020-08-02T07:39:17Z</time>
      </trkpt>
      <trkpt lat="47.24959" lon="-0.43943">
        <ele>59.2</ele>
        <time>2020-08-02T07:39:18Z</time>
      </trkpt>
      <trkpt lat="47.24959" lon="-0.43939">
        <ele>59.2</ele>
        <time>2020-08-02T07:39:19Z</time>
      </trkpt>
      <trkpt lat="47.24958" lon="-0.43934">
        <ele>59.2</ele>
        <time>2020-08-02T07:39:20Z</time>
      </trkpt>
      <trkpt lat="47.24955" lon="-0.43931">
        <ele>59.2</ele>
        <time>2020-08-02T07:39:21Z</time>
      </trkpt>
      <trkpt lat="47.24953" lon="-0.4393">
        <ele>59</ele>
        <time>2020-08-02T07:39:22Z</time>
      </trkpt>
      <trkpt lat="47.24949" lon="-0.43928">
        <ele>59</ele>
        <time>2020-08-02T07:39:23Z</time>
      </trkpt>
      <trkpt lat="47.24945" lon="-0.43925">
        <ele>59.2</ele>
        <time>2020-08-02T07:39:24Z</time>
      </trkpt>
      <trkpt lat="47.24941" lon="-0.43922">
        <ele>59.2</ele>
        <time>2020-08-02T07:39:25Z</time>
      </trkpt>
      <trkpt lat="47.24938" lon="-0.4392">
        <ele>59</ele>
        <time>2020-08-02T07:39:26Z</time>
      </trkpt>
      <trkpt lat="47.24935" lon="-0.43917">
        <ele>59</ele>
        <time>2020-08-02T07:39:27Z</time>
      </trkpt>
      <trkpt lat="47.2493" lon="-0.43914">
        <ele>59</ele>
        <time>2020-08-02T07:39:28Z</time>
      </trkpt>
      <trkpt lat="47.24927" lon="-0.43911">
        <ele>59</ele>
        <time>2020-08-02T07:39:29Z</time>
      </trkpt>
      <trkpt lat="47.24923" lon="-0.43908">
        <ele>59.2</ele>
        <time>2020-08-02T07:39:30Z</time>
      </trkpt>
      <trkpt lat="47.2489" lon="-0.43884">
        <ele>59.6</ele>
        <time>2020-08-02T07:39:39Z</time>
      </trkpt>
      <trkpt lat="47.2488" lon="-0.43876">
        <ele>60</ele>
        <time>2020-08-02T07:39:42Z</time>
      </trkpt>
      <trkpt lat="47.24876" lon="-0.43874">
        <ele>60</ele>
        <time>2020-08-02T07:39:43Z</time>
      </trkpt>
      <trkpt lat="47.24873" lon="-0.43871">
        <ele>60</ele>
        <time>2020-08-02T07:39:44Z</time>
      </trkpt>
      <trkpt lat="47.24869" lon="-0.43868">
        <ele>60.2</ele>
        <time>2020-08-02T07:39:45Z</time>
      </trkpt>
      <trkpt lat="47.24866" lon="-0.43866">
        <ele>60.2</ele>
        <time>2020-08-02T07:39:46Z</time>
      </trkpt>
      <trkpt lat="47.24862" lon="-0.43863">
        <ele>60.2</ele>
        <time>2020-08-02T07:39:47Z</time>
      </trkpt>
      <trkpt lat="47.24858" lon="-0.4386">
        <ele>60.4</ele>
        <time>2020-08-02T07:39:48Z</time>
      </trkpt>
      <trkpt lat="47.24855" lon="-0.43857">
        <ele>60.6</ele>
        <time>2020-08-02T07:39:49Z</time>
      </trkpt>
      <trkpt lat="47.24851" lon="-0.43854">
        <ele>60.6</ele>
        <time>2020-08-02T07:39:50Z</time>
      </trkpt>
      <trkpt lat="47.24843" lon="-0.43848">
        <ele>60.8</ele>
        <time>2020-08-02T07:39:52Z</time>
      </trkpt>
      <trkpt lat="47.24837" lon="-0.43843">
        <ele>60.8</ele>
        <time>2020-08-02T07:39:54Z</time>
      </trkpt>
      <trkpt lat="47.24833" lon="-0.4384">
        <ele>60.8</ele>
        <time>2020-08-02T07:39:55Z</time>
      </trkpt>
      <trkpt lat="47.24802" lon="-0.43815">
        <ele>61.4</ele>
        <time>2020-08-02T07:40:03Z</time>
      </trkpt>
      <trkpt lat="47.24787" lon="-0.43803">
        <ele>62</ele>
        <time>2020-08-02T07:40:07Z</time>
      </trkpt>
      <trkpt lat="47.24783" lon="-0.438">
        <ele>62</ele>
        <time>2020-08-02T07:40:08Z</time>
      </trkpt>
      <trkpt lat="47.24779" lon="-0.43797">
        <ele>62.2</ele>
        <time>2020-08-02T07:40:09Z</time>
      </trkpt>
      <trkpt lat="47.24775" lon="-0.43794">
        <ele>62.2</ele>
        <time>2020-08-02T07:40:10Z</time>
      </trkpt>
      <trkpt lat="47.24771" lon="-0.43791">
        <ele>62.2</ele>
        <time>2020-08-02T07:40:11Z</time>
      </trkpt>
      <trkpt lat="47.24769" lon="-0.43788">
        <ele>62.4</ele>
        <time>2020-08-02T07:40:12Z</time>
      </trkpt>
      <trkpt lat="47.24764" lon="-0.43785">
        <ele>62.4</ele>
        <time>2020-08-02T07:40:13Z</time>
      </trkpt>
      <trkpt lat="47.24761" lon="-0.43782">
        <ele>62.6</ele>
        <time>2020-08-02T07:40:14Z</time>
      </trkpt>
      <trkpt lat="47.24757" lon="-0.43779">
        <ele>62.6</ele>
        <time>2020-08-02T07:40:15Z</time>
      </trkpt>
      <trkpt lat="47.24755" lon="-0.43775">
        <ele>62.8</ele>
        <time>2020-08-02T07:40:16Z</time>
      </trkpt>
      <trkpt lat="47.24753" lon="-0.43771">
        <ele>62.8</ele>
        <time>2020-08-02T07:40:17Z</time>
      </trkpt>
      <trkpt lat="47.24751" lon="-0.43764">
        <ele>63</ele>
        <time>2020-08-02T07:40:18Z</time>
      </trkpt>
      <trkpt lat="47.2475" lon="-0.43759">
        <ele>62.8</ele>
        <time>2020-08-02T07:40:19Z</time>
      </trkpt>
      <trkpt lat="47.24748" lon="-0.43753">
        <ele>63</ele>
        <time>2020-08-02T07:40:20Z</time>
      </trkpt>
      <trkpt lat="47.24748" lon="-0.43748">
        <ele>62.8</ele>
        <time>2020-08-02T07:40:21Z</time>
      </trkpt>
      <trkpt lat="47.24747" lon="-0.43741">
        <ele>63</ele>
        <time>2020-08-02T07:40:22Z</time>
      </trkpt>
      <trkpt lat="47.24746" lon="-0.43736">
        <ele>63</ele>
        <time>2020-08-02T07:40:23Z</time>
      </trkpt>
      <trkpt lat="47.24745" lon="-0.4373">
        <ele>63</ele>
        <time>2020-08-02T07:40:24Z</time>
      </trkpt>
      <trkpt lat="47.24744" lon="-0.43725">
        <ele>63</ele>
        <time>2020-08-02T07:40:25Z</time>
      </trkpt>
      <trkpt lat="47.24744" lon="-0.43719">
        <ele>63.2</ele>
        <time>2020-08-02T07:40:26Z</time>
      </trkpt>
      <trkpt lat="47.24735" lon="-0.43658">
        <ele>63.8</ele>
        <time>2020-08-02T07:40:36Z</time>
      </trkpt>
      <trkpt lat="47.24733" lon="-0.43645">
        <ele>63.8</ele>
        <time>2020-08-02T07:40:38Z</time>
      </trkpt>
      <trkpt lat="47.2473" lon="-0.43602">
        <ele>64.4</ele>
        <time>2020-08-02T07:40:45Z</time>
      </trkpt>
      <trkpt lat="47.2473" lon="-0.43589">
        <ele>64.4</ele>
        <time>2020-08-02T07:40:47Z</time>
      </trkpt>
      <trkpt lat="47.24729" lon="-0.43531">
        <ele>64.8</ele>
        <time>2020-08-02T07:40:56Z</time>
      </trkpt>
      <trkpt lat="47.24728" lon="-0.43466">
        <ele>64.8</ele>
        <time>2020-08-02T07:41:06Z</time>
      </trkpt>
      <trkpt lat="47.2473" lon="-0.43429">
        <ele>64.4</ele>
        <time>2020-08-02T07:41:10Z</time>
      </trkpt>
      <trkpt lat="47.24731" lon="-0.43422">
        <ele>64</ele>
        <time>2020-08-02T07:41:11Z</time>
      </trkpt>
      <trkpt lat="47.24737" lon="-0.43362">
        <ele>63.2</ele>
        <time>2020-08-02T07:41:17Z</time>
      </trkpt>
      <trkpt lat="47.24738" lon="-0.43353">
        <ele>63.2</ele>
        <time>2020-08-02T07:41:18Z</time>
      </trkpt>
      <trkpt lat="47.24739" lon="-0.43344">
        <ele>63.2</ele>
        <time>2020-08-02T07:41:19Z</time>
      </trkpt>
      <trkpt lat="47.2474" lon="-0.43335">
        <ele>63.2</ele>
        <time>2020-08-02T07:41:20Z</time>
      </trkpt>
      <trkpt lat="47.24741" lon="-0.43328">
        <ele>63.2</ele>
        <time>2020-08-02T07:41:21Z</time>
      </trkpt>
      <trkpt lat="47.24743" lon="-0.43319">
        <ele>63.2</ele>
        <time>2020-08-02T07:41:22Z</time>
      </trkpt>
      <trkpt lat="47.24744" lon="-0.43311">
        <ele>63.2</ele>
        <time>2020-08-02T07:41:23Z</time>
      </trkpt>
      <trkpt lat="47.24745" lon="-0.43303">
        <ele>63.4</ele>
        <time>2020-08-02T07:41:24Z</time>
      </trkpt>
      <trkpt lat="47.24745" lon="-0.43298">
        <ele>63.4</ele>
        <time>2020-08-02T07:41:25Z</time>
      </trkpt>
      <trkpt lat="47.24746" lon="-0.43289">
        <ele>63.6</ele>
        <time>2020-08-02T07:41:26Z</time>
      </trkpt>
      <trkpt lat="47.24747" lon="-0.43282">
        <ele>63.8</ele>
        <time>2020-08-02T07:41:27Z</time>
      </trkpt>
      <trkpt lat="47.24748" lon="-0.43276">
        <ele>64</ele>
        <time>2020-08-02T07:41:28Z</time>
      </trkpt>
      <trkpt lat="47.24749" lon="-0.43269">
        <ele>64.2</ele>
        <time>2020-08-02T07:41:29Z</time>
      </trkpt>
      <trkpt lat="47.2475" lon="-0.43263">
        <ele>64.4</ele>
        <time>2020-08-02T07:41:30Z</time>
      </trkpt>
      <trkpt lat="47.24751" lon="-0.43255">
        <ele>64.6</ele>
        <time>2020-08-02T07:41:31Z</time>
      </trkpt>
      <trkpt lat="47.24753" lon="-0.43248">
        <ele>64.6</ele>
        <time>2020-08-02T07:41:32Z</time>
      </trkpt>
      <trkpt lat="47.24754" lon="-0.43242">
        <ele>64.8</ele>
        <time>2020-08-02T07:41:33Z</time>
      </trkpt>
      <trkpt lat="47.24755" lon="-0.43237">
        <ele>65</ele>
        <time>2020-08-02T07:41:34Z</time>
      </trkpt>
      <trkpt lat="47.24757" lon="-0.43231">
        <ele>65.6</ele>
        <time>2020-08-02T07:41:35Z</time>
      </trkpt>
      <trkpt lat="47.24757" lon="-0.43227">
        <ele>66</ele>
        <time>2020-08-02T07:41:36Z</time>
      </trkpt>
      <trkpt lat="47.24757" lon="-0.43223">
        <ele>66.4</ele>
        <time>2020-08-02T07:41:37Z</time>
      </trkpt>
      <trkpt lat="47.24756" lon="-0.4322">
        <ele>66.8</ele>
        <time>2020-08-02T07:41:38Z</time>
      </trkpt>
      <trkpt lat="47.24756" lon="-0.43217">
        <ele>67</ele>
        <time>2020-08-02T07:41:39Z</time>
      </trkpt>
      <trkpt lat="47.24756" lon="-0.43213">
        <ele>67.2</ele>
        <time>2020-08-02T07:41:40Z</time>
      </trkpt>
      <trkpt lat="47.24756" lon="-0.43209">
        <ele>67.4</ele>
        <time>2020-08-02T07:41:41Z</time>
      </trkpt>
      <trkpt lat="47.24756" lon="-0.43205">
        <ele>67.4</ele>
        <time>2020-08-02T07:41:42Z</time>
      </trkpt>
      <trkpt lat="47.24756" lon="-0.43201">
        <ele>67.6</ele>
        <time>2020-08-02T07:41:43Z</time>
      </trkpt>
      <trkpt lat="47.24757" lon="-0.43195">
        <ele>67.6</ele>
        <time>2020-08-02T07:41:44Z</time>
      </trkpt>
      <trkpt lat="47.24757" lon="-0.4319">
        <ele>67.8</ele>
        <time>2020-08-02T07:41:45Z</time>
      </trkpt>
      <trkpt lat="47.24758" lon="-0.43184">
        <ele>68</ele>
        <time>2020-08-02T07:41:46Z</time>
      </trkpt>
      <trkpt lat="47.24758" lon="-0.43178">
        <ele>68.2</ele>
        <time>2020-08-02T07:41:47Z</time>
      </trkpt>
      <trkpt lat="47.24759" lon="-0.43172">
        <ele>68.2</ele>
        <time>2020-08-02T07:41:48Z</time>
      </trkpt>
      <trkpt lat="47.24759" lon="-0.43166">
        <ele>68.4</ele>
        <time>2020-08-02T07:41:49Z</time>
      </trkpt>
      <trkpt lat="47.2476" lon="-0.4316">
        <ele>68.6</ele>
        <time>2020-08-02T07:41:50Z</time>
      </trkpt>
      <trkpt lat="47.24761" lon="-0.43154">
        <ele>68.6</ele>
        <time>2020-08-02T07:41:51Z</time>
      </trkpt>
      <trkpt lat="47.24761" lon="-0.43149">
        <ele>68.8</ele>
        <time>2020-08-02T07:41:52Z</time>
      </trkpt>
      <trkpt lat="47.24761" lon="-0.43141">
        <ele>68.8</ele>
        <time>2020-08-02T07:41:53Z</time>
      </trkpt>
      <trkpt lat="47.24762" lon="-0.43135">
        <ele>69</ele>
        <time>2020-08-02T07:41:54Z</time>
      </trkpt>
      <trkpt lat="47.24762" lon="-0.43128">
        <ele>69</ele>
        <time>2020-08-02T07:41:55Z</time>
      </trkpt>
      <trkpt lat="47.24762" lon="-0.43123">
        <ele>69</ele>
        <time>2020-08-02T07:41:56Z</time>
      </trkpt>
      <trkpt lat="47.24763" lon="-0.43117">
        <ele>69.2</ele>
        <time>2020-08-02T07:41:57Z</time>
      </trkpt>
      <trkpt lat="47.24764" lon="-0.43109">
        <ele>69.2</ele>
        <time>2020-08-02T07:41:58Z</time>
      </trkpt>
      <trkpt lat="47.24765" lon="-0.43093">
        <ele>69.4</ele>
        <time>2020-08-02T07:42:01Z</time>
      </trkpt>
      <trkpt lat="47.24765" lon="-0.43086">
        <ele>69.6</ele>
        <time>2020-08-02T07:42:02Z</time>
      </trkpt>
      <trkpt lat="47.24766" lon="-0.43081">
        <ele>69.8</ele>
        <time>2020-08-02T07:42:03Z</time>
      </trkpt>
      <trkpt lat="47.24766" lon="-0.43075">
        <ele>69.8</ele>
        <time>2020-08-02T07:42:04Z</time>
      </trkpt>
      <trkpt lat="47.24766" lon="-0.4307">
        <ele>69.8</ele>
        <time>2020-08-02T07:42:05Z</time>
      </trkpt>
      <trkpt lat="47.24767" lon="-0.43065">
        <ele>69.8</ele>
        <time>2020-08-02T07:42:06Z</time>
      </trkpt>
      <trkpt lat="47.24767" lon="-0.43059">
        <ele>70</ele>
        <time>2020-08-02T07:42:07Z</time>
      </trkpt>
      <trkpt lat="47.24768" lon="-0.43054">
        <ele>70</ele>
        <time>2020-08-02T07:42:08Z</time>
      </trkpt>
      <trkpt lat="47.24768" lon="-0.43049">
        <ele>70</ele>
        <time>2020-08-02T07:42:09Z</time>
      </trkpt>
      <trkpt lat="47.24769" lon="-0.43045">
        <ele>70</ele>
        <time>2020-08-02T07:42:10Z</time>
      </trkpt>
      <trkpt lat="47.24769" lon="-0.43039">
        <ele>70</ele>
        <time>2020-08-02T07:42:11Z</time>
      </trkpt>
      <trkpt lat="47.2477" lon="-0.43033">
        <ele>70.2</ele>
        <time>2020-08-02T07:42:12Z</time>
      </trkpt>
      <trkpt lat="47.2477" lon="-0.43028">
        <ele>70.2</ele>
        <time>2020-08-02T07:42:13Z</time>
      </trkpt>
      <trkpt lat="47.24771" lon="-0.43023">
        <ele>70.4</ele>
        <time>2020-08-02T07:42:14Z</time>
      </trkpt>
      <trkpt lat="47.24771" lon="-0.43019">
        <ele>70.4</ele>
        <time>2020-08-02T07:42:15Z</time>
      </trkpt>
      <trkpt lat="47.24771" lon="-0.43013">
        <ele>70.4</ele>
        <time>2020-08-02T07:42:16Z</time>
      </trkpt>
      <trkpt lat="47.24772" lon="-0.43007">
        <ele>70.4</ele>
        <time>2020-08-02T07:42:17Z</time>
      </trkpt>
      <trkpt lat="47.24773" lon="-0.42997">
        <ele>70.6</ele>
        <time>2020-08-02T07:42:19Z</time>
      </trkpt>
      <trkpt lat="47.24773" lon="-0.42991">
        <ele>70.6</ele>
        <time>2020-08-02T07:42:20Z</time>
      </trkpt>
      <trkpt lat="47.24774" lon="-0.42979">
        <ele>70.6</ele>
        <time>2020-08-02T07:42:22Z</time>
      </trkpt>
      <trkpt lat="47.24778" lon="-0.42934">
        <ele>71.2</ele>
        <time>2020-08-02T07:42:30Z</time>
      </trkpt>
      <trkpt lat="47.24779" lon="-0.42928">
        <ele>71.2</ele>
        <time>2020-08-02T07:42:31Z</time>
      </trkpt>
      <trkpt lat="47.24779" lon="-0.42923">
        <ele>71.4</ele>
        <time>2020-08-02T07:42:32Z</time>
      </trkpt>
      <trkpt lat="47.2478" lon="-0.42912">
        <ele>71.6</ele>
        <time>2020-08-02T07:42:34Z</time>
      </trkpt>
      <trkpt lat="47.2478" lon="-0.42906">
        <ele>71.6</ele>
        <time>2020-08-02T07:42:35Z</time>
      </trkpt>
      <trkpt lat="47.24779" lon="-0.42902">
        <ele>71.8</ele>
        <time>2020-08-02T07:42:36Z</time>
      </trkpt>
      <trkpt lat="47.24779" lon="-0.42898">
        <ele>71.8</ele>
        <time>2020-08-02T07:42:37Z</time>
      </trkpt>
      <trkpt lat="47.24777" lon="-0.42894">
        <ele>71.8</ele>
        <time>2020-08-02T07:42:38Z</time>
      </trkpt>
      <trkpt lat="47.24774" lon="-0.42892">
        <ele>71.8</ele>
        <time>2020-08-02T07:42:39Z</time>
      </trkpt>
      <trkpt lat="47.24771" lon="-0.42889">
        <ele>72</ele>
        <time>2020-08-02T07:42:40Z</time>
      </trkpt>
      <trkpt lat="47.24766" lon="-0.42886">
        <ele>72</ele>
        <time>2020-08-02T07:42:42Z</time>
      </trkpt>
      <trkpt lat="47.24761" lon="-0.42885">
        <ele>72</ele>
        <time>2020-08-02T07:42:43Z</time>
      </trkpt>
      <trkpt lat="47.24757" lon="-0.42884">
        <ele>72</ele>
        <time>2020-08-02T07:42:44Z</time>
      </trkpt>
      <trkpt lat="47.2475" lon="-0.42883">
        <ele>72</ele>
        <time>2020-08-02T07:42:46Z</time>
      </trkpt>
      <trkpt lat="47.24747" lon="-0.42883">
        <ele>71.8</ele>
        <time>2020-08-02T07:42:47Z</time>
      </trkpt>
      <trkpt lat="47.24743" lon="-0.42882">
        <ele>71.8</ele>
        <time>2020-08-02T07:42:48Z</time>
      </trkpt>
      <trkpt lat="47.24735" lon="-0.42879">
        <ele>71.4</ele>
        <time>2020-08-02T07:42:50Z</time>
      </trkpt>
      <trkpt lat="47.24732" lon="-0.42876">
        <ele>71.4</ele>
        <time>2020-08-02T07:42:51Z</time>
      </trkpt>
      <trkpt lat="47.24729" lon="-0.42872">
        <ele>71.2</ele>
        <time>2020-08-02T07:42:52Z</time>
      </trkpt>
      <trkpt lat="47.24728" lon="-0.42865">
        <ele>71.2</ele>
        <time>2020-08-02T07:42:53Z</time>
      </trkpt>
      <trkpt lat="47.24727" lon="-0.42859">
        <ele>71</ele>
        <time>2020-08-02T07:42:54Z</time>
      </trkpt>
      <trkpt lat="47.24727" lon="-0.42852">
        <ele>71</ele>
        <time>2020-08-02T07:42:55Z</time>
      </trkpt>
      <trkpt lat="47.24729" lon="-0.42835">
        <ele>71</ele>
        <time>2020-08-02T07:42:58Z</time>
      </trkpt>
      <trkpt lat="47.2473" lon="-0.42829">
        <ele>71</ele>
        <time>2020-08-02T07:42:59Z</time>
      </trkpt>
      <trkpt lat="47.24731" lon="-0.42825">
        <ele>71</ele>
        <time>2020-08-02T07:43:00Z</time>
      </trkpt>
      <trkpt lat="47.24732" lon="-0.42818">
        <ele>71</ele>
        <time>2020-08-02T07:43:01Z</time>
      </trkpt>
      <trkpt lat="47.24734" lon="-0.42806">
        <ele>71</ele>
        <time>2020-08-02T07:43:03Z</time>
      </trkpt>
      <trkpt lat="47.24735" lon="-0.428">
        <ele>71</ele>
        <time>2020-08-02T07:43:04Z</time>
      </trkpt>
      <trkpt lat="47.24735" lon="-0.42795">
        <ele>71</ele>
        <time>2020-08-02T07:43:05Z</time>
      </trkpt>
      <trkpt lat="47.24736" lon="-0.42787">
        <ele>71.2</ele>
        <time>2020-08-02T07:43:06Z</time>
      </trkpt>
      <trkpt lat="47.24737" lon="-0.42782">
        <ele>71.2</ele>
        <time>2020-08-02T07:43:07Z</time>
      </trkpt>
      <trkpt lat="47.24738" lon="-0.42776">
        <ele>71.2</ele>
        <time>2020-08-02T07:43:08Z</time>
      </trkpt>
      <trkpt lat="47.24738" lon="-0.42772">
        <ele>71.4</ele>
        <time>2020-08-02T07:43:09Z</time>
      </trkpt>
      <trkpt lat="47.24739" lon="-0.42767">
        <ele>71.4</ele>
        <time>2020-08-02T07:43:10Z</time>
      </trkpt>
      <trkpt lat="47.24739" lon="-0.42763">
        <ele>71.4</ele>
        <time>2020-08-02T07:43:11Z</time>
      </trkpt>
      <trkpt lat="47.2474" lon="-0.42759">
        <ele>71.4</ele>
        <time>2020-08-02T07:43:12Z</time>
      </trkpt>
      <trkpt lat="47.24741" lon="-0.42756">
        <ele>71.4</ele>
        <time>2020-08-02T07:43:13Z</time>
      </trkpt>
      <trkpt lat="47.24743" lon="-0.42753">
        <ele>71.4</ele>
        <time>2020-08-02T07:43:14Z</time>
      </trkpt>
      <trkpt lat="47.24746" lon="-0.42752">
        <ele>71.4</ele>
        <time>2020-08-02T07:43:15Z</time>
      </trkpt>
      <trkpt lat="47.24749" lon="-0.42753">
        <ele>71.4</ele>
        <time>2020-08-02T07:43:16Z</time>
      </trkpt>
      <trkpt lat="47.24753" lon="-0.42753">
        <ele>71.4</ele>
        <time>2020-08-02T07:43:17Z</time>
      </trkpt>
      <trkpt lat="47.24755" lon="-0.42754">
        <ele>71.4</ele>
        <time>2020-08-02T07:43:18Z</time>
      </trkpt>
      <trkpt lat="47.24759" lon="-0.42754">
        <ele>71.4</ele>
        <time>2020-08-02T07:43:19Z</time>
      </trkpt>
      <trkpt lat="47.24763" lon="-0.42755">
        <ele>71.4</ele>
        <time>2020-08-02T07:43:20Z</time>
      </trkpt>
      <trkpt lat="47.24766" lon="-0.42756">
        <ele>71.4</ele>
        <time>2020-08-02T07:43:21Z</time>
      </trkpt>
      <trkpt lat="47.24769" lon="-0.42756">
        <ele>71.4</ele>
        <time>2020-08-02T07:43:22Z</time>
      </trkpt>
      <trkpt lat="47.24778" lon="-0.42756">
        <ele>71.4</ele>
        <time>2020-08-02T07:43:24Z</time>
      </trkpt>
      <trkpt lat="47.24782" lon="-0.42757">
        <ele>71.6</ele>
        <time>2020-08-02T07:43:25Z</time>
      </trkpt>
      <trkpt lat="47.24786" lon="-0.42757">
        <ele>71.6</ele>
        <time>2020-08-02T07:43:26Z</time>
      </trkpt>
      <trkpt lat="47.24797" lon="-0.42759">
        <ele>72.2</ele>
        <time>2020-08-02T07:43:29Z</time>
      </trkpt>
      <trkpt lat="47.24805" lon="-0.4276">
        <ele>72.4</ele>
        <time>2020-08-02T07:43:31Z</time>
      </trkpt>
      <trkpt lat="47.24808" lon="-0.4276">
        <ele>72.8</ele>
        <time>2020-08-02T07:43:32Z</time>
      </trkpt>
      <trkpt lat="47.24812" lon="-0.4276">
        <ele>72.8</ele>
        <time>2020-08-02T07:43:33Z</time>
      </trkpt>
      <trkpt lat="47.24816" lon="-0.42761">
        <ele>73</ele>
        <time>2020-08-02T07:43:34Z</time>
      </trkpt>
      <trkpt lat="47.2482" lon="-0.42761">
        <ele>73</ele>
        <time>2020-08-02T07:43:35Z</time>
      </trkpt>
      <trkpt lat="47.24823" lon="-0.42762">
        <ele>73</ele>
        <time>2020-08-02T07:43:36Z</time>
      </trkpt>
      <trkpt lat="47.24827" lon="-0.42762">
        <ele>73.2</ele>
        <time>2020-08-02T07:43:37Z</time>
      </trkpt>
      <trkpt lat="47.24831" lon="-0.42763">
        <ele>73.2</ele>
        <time>2020-08-02T07:43:38Z</time>
      </trkpt>
      <trkpt lat="47.24835" lon="-0.42763">
        <ele>73.4</ele>
        <time>2020-08-02T07:43:39Z</time>
      </trkpt>
      <trkpt lat="47.24839" lon="-0.42764">
        <ele>73.6</ele>
        <time>2020-08-02T07:43:40Z</time>
      </trkpt>
      <trkpt lat="47.24841" lon="-0.42764">
        <ele>73.8</ele>
        <time>2020-08-02T07:43:41Z</time>
      </trkpt>
      <trkpt lat="47.24846" lon="-0.42764">
        <ele>73.8</ele>
        <time>2020-08-02T07:43:42Z</time>
      </trkpt>
      <trkpt lat="47.24849" lon="-0.42765">
        <ele>74</ele>
        <time>2020-08-02T07:43:43Z</time>
      </trkpt>
      <trkpt lat="47.24853" lon="-0.42765">
        <ele>74.2</ele>
        <time>2020-08-02T07:43:44Z</time>
      </trkpt>
      <trkpt lat="47.24855" lon="-0.42766">
        <ele>74.2</ele>
        <time>2020-08-02T07:43:45Z</time>
      </trkpt>
      <trkpt lat="47.24859" lon="-0.42767">
        <ele>74.4</ele>
        <time>2020-08-02T07:43:46Z</time>
      </trkpt>
      <trkpt lat="47.24863" lon="-0.42767">
        <ele>74.4</ele>
        <time>2020-08-02T07:43:47Z</time>
      </trkpt>
      <trkpt lat="47.24866" lon="-0.42767">
        <ele>74.6</ele>
        <time>2020-08-02T07:43:48Z</time>
      </trkpt>
      <trkpt lat="47.2487" lon="-0.42767">
        <ele>75</ele>
        <time>2020-08-02T07:43:49Z</time>
      </trkpt>
      <trkpt lat="47.24873" lon="-0.42768">
        <ele>75</ele>
        <time>2020-08-02T07:43:50Z</time>
      </trkpt>
      <trkpt lat="47.24876" lon="-0.42769">
        <ele>75.4</ele>
        <time>2020-08-02T07:43:51Z</time>
      </trkpt>
      <trkpt lat="47.2488" lon="-0.4277">
        <ele>75.6</ele>
        <time>2020-08-02T07:43:52Z</time>
      </trkpt>
      <trkpt lat="47.24883" lon="-0.42771">
        <ele>75.8</ele>
        <time>2020-08-02T07:43:53Z</time>
      </trkpt>
      <trkpt lat="47.24886" lon="-0.42771">
        <ele>76</ele>
        <time>2020-08-02T07:43:54Z</time>
      </trkpt>
      <trkpt lat="47.24889" lon="-0.42773">
        <ele>76</ele>
        <time>2020-08-02T07:43:55Z</time>
      </trkpt>
      <trkpt lat="47.24894" lon="-0.42775">
        <ele>76.2</ele>
        <time>2020-08-02T07:43:56Z</time>
      </trkpt>
      <trkpt lat="47.24896" lon="-0.42776">
        <ele>76.2</ele>
        <time>2020-08-02T07:43:57Z</time>
      </trkpt>
      <trkpt lat="47.24901" lon="-0.42779">
        <ele>76.2</ele>
        <time>2020-08-02T07:43:58Z</time>
      </trkpt>
      <trkpt lat="47.24903" lon="-0.4278">
        <ele>76.4</ele>
        <time>2020-08-02T07:43:59Z</time>
      </trkpt>
      <trkpt lat="47.24907" lon="-0.42781">
        <ele>76.4</ele>
        <time>2020-08-02T07:44:00Z</time>
      </trkpt>
      <trkpt lat="47.24912" lon="-0.42781">
        <ele>76.6</ele>
        <time>2020-08-02T07:44:01Z</time>
      </trkpt>
      <trkpt lat="47.24915" lon="-0.42782">
        <ele>76.6</ele>
        <time>2020-08-02T07:44:02Z</time>
      </trkpt>
      <trkpt lat="47.24918" lon="-0.42783">
        <ele>76.8</ele>
        <time>2020-08-02T07:44:03Z</time>
      </trkpt>
      <trkpt lat="47.24922" lon="-0.42783">
        <ele>76.8</ele>
        <time>2020-08-02T07:44:04Z</time>
      </trkpt>
      <trkpt lat="47.24945" lon="-0.42789">
        <ele>76.6</ele>
        <time>2020-08-02T07:44:10Z</time>
      </trkpt>
      <trkpt lat="47.24957" lon="-0.42791">
        <ele>76.4</ele>
        <time>2020-08-02T07:44:13Z</time>
      </trkpt>
      <trkpt lat="47.24978" lon="-0.42795">
        <ele>76.4</ele>
        <time>2020-08-02T07:44:18Z</time>
      </trkpt>
      <trkpt lat="47.24997" lon="-0.42796">
        <ele>76</ele>
        <time>2020-08-02T07:44:23Z</time>
      </trkpt>
      <trkpt lat="47.25002" lon="-0.42796">
        <ele>76</ele>
        <time>2020-08-02T07:44:24Z</time>
      </trkpt>
      <trkpt lat="47.25005" lon="-0.42796">
        <ele>76.2</ele>
        <time>2020-08-02T07:44:25Z</time>
      </trkpt>
      <trkpt lat="47.25009" lon="-0.42795">
        <ele>76.2</ele>
        <time>2020-08-02T07:44:26Z</time>
      </trkpt>
      <trkpt lat="47.25013" lon="-0.42796">
        <ele>76.4</ele>
        <time>2020-08-02T07:44:27Z</time>
      </trkpt>
      <trkpt lat="47.25017" lon="-0.42796">
        <ele>76.4</ele>
        <time>2020-08-02T07:44:28Z</time>
      </trkpt>
      <trkpt lat="47.25021" lon="-0.42795">
        <ele>76.2</ele>
        <time>2020-08-02T07:44:29Z</time>
      </trkpt>
      <trkpt lat="47.25026" lon="-0.42795">
        <ele>76.2</ele>
        <time>2020-08-02T07:44:30Z</time>
      </trkpt>
      <trkpt lat="47.2503" lon="-0.42794">
        <ele>76.2</ele>
        <time>2020-08-02T07:44:31Z</time>
      </trkpt>
      <trkpt lat="47.25033" lon="-0.42794">
        <ele>76.2</ele>
        <time>2020-08-02T07:44:32Z</time>
      </trkpt>
      <trkpt lat="47.25038" lon="-0.42793">
        <ele>76.2</ele>
        <time>2020-08-02T07:44:33Z</time>
      </trkpt>
      <trkpt lat="47.25042" lon="-0.42793">
        <ele>76.4</ele>
        <time>2020-08-02T07:44:34Z</time>
      </trkpt>
      <trkpt lat="47.25044" lon="-0.42792">
        <ele>76.4</ele>
        <time>2020-08-02T07:44:35Z</time>
      </trkpt>
      <trkpt lat="47.25061" lon="-0.42789">
        <ele>77</ele>
        <time>2020-08-02T07:44:39Z</time>
      </trkpt>
      <trkpt lat="47.25065" lon="-0.42788">
        <ele>77</ele>
        <time>2020-08-02T07:44:40Z</time>
      </trkpt>
      <trkpt lat="47.25072" lon="-0.42786">
        <ele>77.2</ele>
        <time>2020-08-02T07:44:42Z</time>
      </trkpt>
      <trkpt lat="47.25076" lon="-0.42785">
        <ele>77.2</ele>
        <time>2020-08-02T07:44:43Z</time>
      </trkpt>
      <trkpt lat="47.2508" lon="-0.42784">
        <ele>77.2</ele>
        <time>2020-08-02T07:44:44Z</time>
      </trkpt>
      <trkpt lat="47.25083" lon="-0.42784">
        <ele>77.2</ele>
        <time>2020-08-02T07:44:45Z</time>
      </trkpt>
      <trkpt lat="47.2509" lon="-0.42782">
        <ele>77.4</ele>
        <time>2020-08-02T07:44:47Z</time>
      </trkpt>
      <trkpt lat="47.25094" lon="-0.42781">
        <ele>77.4</ele>
        <time>2020-08-02T07:44:48Z</time>
      </trkpt>
      <trkpt lat="47.25098" lon="-0.4278">
        <ele>77.4</ele>
        <time>2020-08-02T07:44:49Z</time>
      </trkpt>
      <trkpt lat="47.25102" lon="-0.42779">
        <ele>77.4</ele>
        <time>2020-08-02T07:44:50Z</time>
      </trkpt>
      <trkpt lat="47.25106" lon="-0.42778">
        <ele>77.6</ele>
        <time>2020-08-02T07:44:51Z</time>
      </trkpt>
      <trkpt lat="47.2511" lon="-0.42777">
        <ele>77.6</ele>
        <time>2020-08-02T07:44:52Z</time>
      </trkpt>
      <trkpt lat="47.25121" lon="-0.42774">
        <ele>77.8</ele>
        <time>2020-08-02T07:44:55Z</time>
      </trkpt>
      <trkpt lat="47.2513" lon="-0.42773">
        <ele>77.8</ele>
        <time>2020-08-02T07:44:57Z</time>
      </trkpt>
      <trkpt lat="47.25133" lon="-0.42772">
        <ele>77.8</ele>
        <time>2020-08-02T07:44:58Z</time>
      </trkpt>
      <trkpt lat="47.25137" lon="-0.42772">
        <ele>78</ele>
        <time>2020-08-02T07:44:59Z</time>
      </trkpt>
      <trkpt lat="47.2514" lon="-0.42772">
        <ele>78</ele>
        <time>2020-08-02T07:45:00Z</time>
      </trkpt>
      <trkpt lat="47.25144" lon="-0.42772">
        <ele>78</ele>
        <time>2020-08-02T07:45:01Z</time>
      </trkpt>
      <trkpt lat="47.25148" lon="-0.42772">
        <ele>78</ele>
        <time>2020-08-02T07:45:02Z</time>
      </trkpt>
      <trkpt lat="47.25151" lon="-0.42772">
        <ele>78.2</ele>
        <time>2020-08-02T07:45:03Z</time>
      </trkpt>
      <trkpt lat="47.25154" lon="-0.42773">
        <ele>78.4</ele>
        <time>2020-08-02T07:45:04Z</time>
      </trkpt>
      <trkpt lat="47.25157" lon="-0.42774">
        <ele>78.4</ele>
        <time>2020-08-02T07:45:05Z</time>
      </trkpt>
      <trkpt lat="47.25161" lon="-0.42775">
        <ele>78.4</ele>
        <time>2020-08-02T07:45:06Z</time>
      </trkpt>
      <trkpt lat="47.25165" lon="-0.42776">
        <ele>78.6</ele>
        <time>2020-08-02T07:45:07Z</time>
      </trkpt>
      <trkpt lat="47.25169" lon="-0.42776">
        <ele>78.8</ele>
        <time>2020-08-02T07:45:08Z</time>
      </trkpt>
      <trkpt lat="47.25172" lon="-0.42778">
        <ele>78.8</ele>
        <time>2020-08-02T07:45:09Z</time>
      </trkpt>
      <trkpt lat="47.25175" lon="-0.42779">
        <ele>78.8</ele>
        <time>2020-08-02T07:45:10Z</time>
      </trkpt>
      <trkpt lat="47.2518" lon="-0.42781">
        <ele>79</ele>
        <time>2020-08-02T07:45:11Z</time>
      </trkpt>
      <trkpt lat="47.25195" lon="-0.42789">
        <ele>79.2</ele>
        <time>2020-08-02T07:45:15Z</time>
      </trkpt>
      <trkpt lat="47.25199" lon="-0.42791">
        <ele>79</ele>
        <time>2020-08-02T07:45:16Z</time>
      </trkpt>
      <trkpt lat="47.25213" lon="-0.42798">
        <ele>79.2</ele>
        <time>2020-08-02T07:45:20Z</time>
      </trkpt>
      <trkpt lat="47.25232" lon="-0.42811">
        <ele>78.8</ele>
        <time>2020-08-02T07:45:25Z</time>
      </trkpt>
      <trkpt lat="47.25236" lon="-0.42813">
        <ele>78.8</ele>
        <time>2020-08-02T07:45:26Z</time>
      </trkpt>
      <trkpt lat="47.25238" lon="-0.42815">
        <ele>78.8</ele>
        <time>2020-08-02T07:45:27Z</time>
      </trkpt>
      <trkpt lat="47.25246" lon="-0.42821">
        <ele>78.6</ele>
        <time>2020-08-02T07:45:29Z</time>
      </trkpt>
      <trkpt lat="47.25249" lon="-0.42823">
        <ele>78.6</ele>
        <time>2020-08-02T07:45:30Z</time>
      </trkpt>
      <trkpt lat="47.25253" lon="-0.42826">
        <ele>78.4</ele>
        <time>2020-08-02T07:45:31Z</time>
      </trkpt>
      <trkpt lat="47.25259" lon="-0.42831">
        <ele>78.4</ele>
        <time>2020-08-02T07:45:33Z</time>
      </trkpt>
      <trkpt lat="47.25262" lon="-0.42834">
        <ele>78.4</ele>
        <time>2020-08-02T07:45:34Z</time>
      </trkpt>
      <trkpt lat="47.25265" lon="-0.42837">
        <ele>78.4</ele>
        <time>2020-08-02T07:45:35Z</time>
      </trkpt>
      <trkpt lat="47.25269" lon="-0.4284">
        <ele>78.2</ele>
        <time>2020-08-02T07:45:36Z</time>
      </trkpt>
      <trkpt lat="47.25271" lon="-0.42842">
        <ele>78.2</ele>
        <time>2020-08-02T07:45:37Z</time>
      </trkpt>
      <trkpt lat="47.25275" lon="-0.42845">
        <ele>78.2</ele>
        <time>2020-08-02T07:45:38Z</time>
      </trkpt>
      <trkpt lat="47.25278" lon="-0.42848">
        <ele>78.2</ele>
        <time>2020-08-02T07:45:39Z</time>
      </trkpt>
      <trkpt lat="47.25281" lon="-0.4285">
        <ele>78</ele>
        <time>2020-08-02T07:45:40Z</time>
      </trkpt>
      <trkpt lat="47.25284" lon="-0.42853">
        <ele>78</ele>
        <time>2020-08-02T07:45:41Z</time>
      </trkpt>
      <trkpt lat="47.25288" lon="-0.42855">
        <ele>78</ele>
        <time>2020-08-02T07:45:42Z</time>
      </trkpt>
      <trkpt lat="47.25291" lon="-0.42858">
        <ele>78</ele>
        <time>2020-08-02T07:45:43Z</time>
      </trkpt>
      <trkpt lat="47.25295" lon="-0.4286">
        <ele>77.8</ele>
        <time>2020-08-02T07:45:44Z</time>
      </trkpt>
      <trkpt lat="47.25298" lon="-0.42862">
        <ele>77.8</ele>
        <time>2020-08-02T07:45:45Z</time>
      </trkpt>
      <trkpt lat="47.25301" lon="-0.42864">
        <ele>77.6</ele>
        <time>2020-08-02T07:45:46Z</time>
      </trkpt>
      <trkpt lat="47.25304" lon="-0.42866">
        <ele>77.4</ele>
        <time>2020-08-02T07:45:47Z</time>
      </trkpt>
      <trkpt lat="47.25308" lon="-0.42868">
        <ele>77.4</ele>
        <time>2020-08-02T07:45:48Z</time>
      </trkpt>
      <trkpt lat="47.25312" lon="-0.4287">
        <ele>77.4</ele>
        <time>2020-08-02T07:45:49Z</time>
      </trkpt>
      <trkpt lat="47.25315" lon="-0.42871">
        <ele>77.2</ele>
        <time>2020-08-02T07:45:50Z</time>
      </trkpt>
      <trkpt lat="47.25317" lon="-0.42872">
        <ele>77.2</ele>
        <time>2020-08-02T07:45:51Z</time>
      </trkpt>
      <trkpt lat="47.25321" lon="-0.42874">
        <ele>77.2</ele>
        <time>2020-08-02T07:45:52Z</time>
      </trkpt>
      <trkpt lat="47.25325" lon="-0.42876">
        <ele>77</ele>
        <time>2020-08-02T07:45:53Z</time>
      </trkpt>
      <trkpt lat="47.25328" lon="-0.42877">
        <ele>77</ele>
        <time>2020-08-02T07:45:54Z</time>
      </trkpt>
      <trkpt lat="47.25331" lon="-0.42879">
        <ele>77</ele>
        <time>2020-08-02T07:45:55Z</time>
      </trkpt>
      <trkpt lat="47.25334" lon="-0.4288">
        <ele>77</ele>
        <time>2020-08-02T07:45:56Z</time>
      </trkpt>
      <trkpt lat="47.25337" lon="-0.42882">
        <ele>77</ele>
        <time>2020-08-02T07:45:57Z</time>
      </trkpt>
      <trkpt lat="47.25341" lon="-0.42884">
        <ele>76.8</ele>
        <time>2020-08-02T07:45:58Z</time>
      </trkpt>
      <trkpt lat="47.25344" lon="-0.42886">
        <ele>76.8</ele>
        <time>2020-08-02T07:45:59Z</time>
      </trkpt>
      <trkpt lat="47.25347" lon="-0.42887">
        <ele>76.8</ele>
        <time>2020-08-02T07:46:00Z</time>
      </trkpt>
      <trkpt lat="47.2535" lon="-0.42888">
        <ele>76.8</ele>
        <time>2020-08-02T07:46:01Z</time>
      </trkpt>
      <trkpt lat="47.25353" lon="-0.42891">
        <ele>76.8</ele>
        <time>2020-08-02T07:46:02Z</time>
      </trkpt>
      <trkpt lat="47.25356" lon="-0.42895">
        <ele>76.8</ele>
        <time>2020-08-02T07:46:03Z</time>
      </trkpt>
      <trkpt lat="47.25371" lon="-0.42909">
        <ele>76.4</ele>
        <time>2020-08-02T07:46:07Z</time>
      </trkpt>
      <trkpt lat="47.25375" lon="-0.42913">
        <ele>76.4</ele>
        <time>2020-08-02T07:46:08Z</time>
      </trkpt>
      <trkpt lat="47.25378" lon="-0.42917">
        <ele>76.2</ele>
        <time>2020-08-02T07:46:09Z</time>
      </trkpt>
      <trkpt lat="47.25382" lon="-0.42921">
        <ele>76.2</ele>
        <time>2020-08-02T07:46:10Z</time>
      </trkpt>
      <trkpt lat="47.25394" lon="-0.42933">
        <ele>76</ele>
        <time>2020-08-02T07:46:13Z</time>
      </trkpt>
      <trkpt lat="47.25399" lon="-0.42937">
        <ele>75.6</ele>
        <time>2020-08-02T07:46:14Z</time>
      </trkpt>
      <trkpt lat="47.25406" lon="-0.42946">
        <ele>75.2</ele>
        <time>2020-08-02T07:46:16Z</time>
      </trkpt>
      <trkpt lat="47.2541" lon="-0.42951">
        <ele>75.2</ele>
        <time>2020-08-02T07:46:17Z</time>
      </trkpt>
      <trkpt lat="47.25416" lon="-0.42961">
        <ele>74.8</ele>
        <time>2020-08-02T07:46:19Z</time>
      </trkpt>
      <trkpt lat="47.2542" lon="-0.42966">
        <ele>74.8</ele>
        <time>2020-08-02T07:46:20Z</time>
      </trkpt>
      <trkpt lat="47.25433" lon="-0.42989">
        <ele>74.2</ele>
        <time>2020-08-02T07:46:24Z</time>
      </trkpt>
      <trkpt lat="47.25446" lon="-0.43009">
        <ele>73.8</ele>
        <time>2020-08-02T07:46:28Z</time>
      </trkpt>
      <trkpt lat="47.2545" lon="-0.43013">
        <ele>73.6</ele>
        <time>2020-08-02T07:46:29Z</time>
      </trkpt>
      <trkpt lat="47.25454" lon="-0.43016">
        <ele>73.6</ele>
        <time>2020-08-02T07:46:30Z</time>
      </trkpt>
      <trkpt lat="47.25458" lon="-0.43018">
        <ele>73</ele>
        <time>2020-08-02T07:46:31Z</time>
      </trkpt>
      <trkpt lat="47.25463" lon="-0.4302">
        <ele>73</ele>
        <time>2020-08-02T07:46:32Z</time>
      </trkpt>
      <trkpt lat="47.25467" lon="-0.43021">
        <ele>72.8</ele>
        <time>2020-08-02T07:46:33Z</time>
      </trkpt>
      <trkpt lat="47.25471" lon="-0.43023">
        <ele>72.8</ele>
        <time>2020-08-02T07:46:34Z</time>
      </trkpt>
      <trkpt lat="47.25476" lon="-0.43025">
        <ele>72.8</ele>
        <time>2020-08-02T07:46:35Z</time>
      </trkpt>
      <trkpt lat="47.2548" lon="-0.43027">
        <ele>72.6</ele>
        <time>2020-08-02T07:46:36Z</time>
      </trkpt>
      <trkpt lat="47.25484" lon="-0.43029">
        <ele>72.6</ele>
        <time>2020-08-02T07:46:37Z</time>
      </trkpt>
      <trkpt lat="47.25487" lon="-0.4303">
        <ele>72.4</ele>
        <time>2020-08-02T07:46:38Z</time>
      </trkpt>
      <trkpt lat="47.25491" lon="-0.43032">
        <ele>72.4</ele>
        <time>2020-08-02T07:46:39Z</time>
      </trkpt>
      <trkpt lat="47.25496" lon="-0.43034">
        <ele>72.2</ele>
        <time>2020-08-02T07:46:40Z</time>
      </trkpt>
      <trkpt lat="47.25501" lon="-0.43035">
        <ele>72.2</ele>
        <time>2020-08-02T07:46:41Z</time>
      </trkpt>
      <trkpt lat="47.25504" lon="-0.43037">
        <ele>72</ele>
        <time>2020-08-02T07:46:42Z</time>
      </trkpt>
      <trkpt lat="47.25509" lon="-0.43039">
        <ele>72</ele>
        <time>2020-08-02T07:46:43Z</time>
      </trkpt>
      <trkpt lat="47.25514" lon="-0.43041">
        <ele>71.8</ele>
        <time>2020-08-02T07:46:44Z</time>
      </trkpt>
      <trkpt lat="47.25519" lon="-0.43044">
        <ele>71.8</ele>
        <time>2020-08-02T07:46:45Z</time>
      </trkpt>
      <trkpt lat="47.25531" lon="-0.43049">
        <ele>71.4</ele>
        <time>2020-08-02T07:46:48Z</time>
      </trkpt>
      <trkpt lat="47.25554" lon="-0.43057">
        <ele>71</ele>
        <time>2020-08-02T07:46:53Z</time>
      </trkpt>
      <trkpt lat="47.25557" lon="-0.43058">
        <ele>71</ele>
        <time>2020-08-02T07:46:54Z</time>
      </trkpt>
      <trkpt lat="47.25563" lon="-0.43057">
        <ele>71</ele>
        <time>2020-08-02T07:46:55Z</time>
      </trkpt>
      <trkpt lat="47.25566" lon="-0.43056">
        <ele>70.8</ele>
        <time>2020-08-02T07:46:56Z</time>
      </trkpt>
      <trkpt lat="47.25571" lon="-0.43053">
        <ele>70.4</ele>
        <time>2020-08-02T07:46:57Z</time>
      </trkpt>
      <trkpt lat="47.25575" lon="-0.4305">
        <ele>70.2</ele>
        <time>2020-08-02T07:46:58Z</time>
      </trkpt>
      <trkpt lat="47.25579" lon="-0.43046">
        <ele>70.2</ele>
        <time>2020-08-02T07:46:59Z</time>
      </trkpt>
      <trkpt lat="47.25582" lon="-0.43041">
        <ele>70</ele>
        <time>2020-08-02T07:47:00Z</time>
      </trkpt>
      <trkpt lat="47.25585" lon="-0.43037">
        <ele>70</ele>
        <time>2020-08-02T07:47:01Z</time>
      </trkpt>
      <trkpt lat="47.25588" lon="-0.43031">
        <ele>69.8</ele>
        <time>2020-08-02T07:47:02Z</time>
      </trkpt>
      <trkpt lat="47.25589" lon="-0.43026">
        <ele>69.6</ele>
        <time>2020-08-02T07:47:03Z</time>
      </trkpt>
      <trkpt lat="47.25591" lon="-0.4302">
        <ele>69.4</ele>
        <time>2020-08-02T07:47:04Z</time>
      </trkpt>
      <trkpt lat="47.25592" lon="-0.43015">
        <ele>69.2</ele>
        <time>2020-08-02T07:47:05Z</time>
      </trkpt>
      <trkpt lat="47.25593" lon="-0.43008">
        <ele>69.2</ele>
        <time>2020-08-02T07:47:06Z</time>
      </trkpt>
      <trkpt lat="47.25594" lon="-0.43001">
        <ele>69</ele>
        <time>2020-08-02T07:47:07Z</time>
      </trkpt>
      <trkpt lat="47.25595" lon="-0.42995">
        <ele>69</ele>
        <time>2020-08-02T07:47:08Z</time>
      </trkpt>
      <trkpt lat="47.25596" lon="-0.42989">
        <ele>69</ele>
        <time>2020-08-02T07:47:09Z</time>
      </trkpt>
      <trkpt lat="47.25596" lon="-0.42984">
        <ele>69</ele>
        <time>2020-08-02T07:47:10Z</time>
      </trkpt>
      <trkpt lat="47.25597" lon="-0.42977">
        <ele>69</ele>
        <time>2020-08-02T07:47:11Z</time>
      </trkpt>
      <trkpt lat="47.25598" lon="-0.4297">
        <ele>69</ele>
        <time>2020-08-02T07:47:12Z</time>
      </trkpt>
      <trkpt lat="47.25599" lon="-0.42964">
        <ele>69</ele>
        <time>2020-08-02T07:47:13Z</time>
      </trkpt>
      <trkpt lat="47.25601" lon="-0.42952">
        <ele>69</ele>
        <time>2020-08-02T07:47:15Z</time>
      </trkpt>
      <trkpt lat="47.25603" lon="-0.42945">
        <ele>69</ele>
        <time>2020-08-02T07:47:16Z</time>
      </trkpt>
      <trkpt lat="47.25605" lon="-0.42939">
        <ele>69</ele>
        <time>2020-08-02T07:47:17Z</time>
      </trkpt>
      <trkpt lat="47.25613" lon="-0.42917">
        <ele>69.2</ele>
        <time>2020-08-02T07:47:21Z</time>
      </trkpt>
      <trkpt lat="47.25616" lon="-0.42906">
        <ele>69.4</ele>
        <time>2020-08-02T07:47:23Z</time>
      </trkpt>
      <trkpt lat="47.25618" lon="-0.42902">
        <ele>69.6</ele>
        <time>2020-08-02T07:47:24Z</time>
      </trkpt>
      <trkpt lat="47.25621" lon="-0.42896">
        <ele>69.6</ele>
        <time>2020-08-02T07:47:25Z</time>
      </trkpt>
      <trkpt lat="47.25623" lon="-0.42892">
        <ele>69.8</ele>
        <time>2020-08-02T07:47:26Z</time>
      </trkpt>
      <trkpt lat="47.25625" lon="-0.42887">
        <ele>69.8</ele>
        <time>2020-08-02T07:47:27Z</time>
      </trkpt>
      <trkpt lat="47.25627" lon="-0.42883">
        <ele>69.8</ele>
        <time>2020-08-02T07:47:28Z</time>
      </trkpt>
      <trkpt lat="47.25629" lon="-0.42878">
        <ele>69.8</ele>
        <time>2020-08-02T07:47:29Z</time>
      </trkpt>
      <trkpt lat="47.25632" lon="-0.42872">
        <ele>69.8</ele>
        <time>2020-08-02T07:47:30Z</time>
      </trkpt>
      <trkpt lat="47.25634" lon="-0.42867">
        <ele>69.8</ele>
        <time>2020-08-02T07:47:31Z</time>
      </trkpt>
      <trkpt lat="47.25636" lon="-0.42864">
        <ele>69.8</ele>
        <time>2020-08-02T07:47:32Z</time>
      </trkpt>
      <trkpt lat="47.25639" lon="-0.42859">
        <ele>69.8</ele>
        <time>2020-08-02T07:47:33Z</time>
      </trkpt>
      <trkpt lat="47.25642" lon="-0.42854">
        <ele>69.8</ele>
        <time>2020-08-02T07:47:34Z</time>
      </trkpt>
      <trkpt lat="47.25645" lon="-0.4285">
        <ele>69.8</ele>
        <time>2020-08-02T07:47:35Z</time>
      </trkpt>
      <trkpt lat="47.25647" lon="-0.42845">
        <ele>69.6</ele>
        <time>2020-08-02T07:47:36Z</time>
      </trkpt>
      <trkpt lat="47.25653" lon="-0.42837">
        <ele>69.6</ele>
        <time>2020-08-02T07:47:38Z</time>
      </trkpt>
      <trkpt lat="47.25657" lon="-0.42831">
        <ele>69.4</ele>
        <time>2020-08-02T07:47:39Z</time>
      </trkpt>
      <trkpt lat="47.25675" lon="-0.42805">
        <ele>69</ele>
        <time>2020-08-02T07:47:45Z</time>
      </trkpt>
      <trkpt lat="47.25683" lon="-0.42793">
        <ele>68.8</ele>
        <time>2020-08-02T07:47:48Z</time>
      </trkpt>
      <trkpt lat="47.25689" lon="-0.42784">
        <ele>68.8</ele>
        <time>2020-08-02T07:47:50Z</time>
      </trkpt>
      <trkpt lat="47.25692" lon="-0.42782">
        <ele>68.6</ele>
        <time>2020-08-02T07:47:51Z</time>
      </trkpt>
      <trkpt lat="47.25694" lon="-0.42777">
        <ele>68.6</ele>
        <time>2020-08-02T07:47:52Z</time>
      </trkpt>
      <trkpt lat="47.25697" lon="-0.42773">
        <ele>68.6</ele>
        <time>2020-08-02T07:47:53Z</time>
      </trkpt>
      <trkpt lat="47.257" lon="-0.42769">
        <ele>68.6</ele>
        <time>2020-08-02T07:47:54Z</time>
      </trkpt>
      <trkpt lat="47.25702" lon="-0.42766">
        <ele>68.6</ele>
        <time>2020-08-02T07:47:55Z</time>
      </trkpt>
      <trkpt lat="47.25705" lon="-0.42762">
        <ele>68.6</ele>
        <time>2020-08-02T07:47:56Z</time>
      </trkpt>
      <trkpt lat="47.25708" lon="-0.42757">
        <ele>68.6</ele>
        <time>2020-08-02T07:47:57Z</time>
      </trkpt>
      <trkpt lat="47.2571" lon="-0.42754">
        <ele>68.6</ele>
        <time>2020-08-02T07:47:58Z</time>
      </trkpt>
      <trkpt lat="47.25713" lon="-0.42749">
        <ele>68.6</ele>
        <time>2020-08-02T07:47:59Z</time>
      </trkpt>
      <trkpt lat="47.25715" lon="-0.42746">
        <ele>68.6</ele>
        <time>2020-08-02T07:48:00Z</time>
      </trkpt>
      <trkpt lat="47.25718" lon="-0.42741">
        <ele>68.6</ele>
        <time>2020-08-02T07:48:01Z</time>
      </trkpt>
      <trkpt lat="47.25721" lon="-0.42736">
        <ele>68.8</ele>
        <time>2020-08-02T07:48:02Z</time>
      </trkpt>
      <trkpt lat="47.25723" lon="-0.42732">
        <ele>68.8</ele>
        <time>2020-08-02T07:48:03Z</time>
      </trkpt>
      <trkpt lat="47.25725" lon="-0.42729">
        <ele>68.8</ele>
        <time>2020-08-02T07:48:04Z</time>
      </trkpt>
      <trkpt lat="47.25727" lon="-0.42725">
        <ele>68.8</ele>
        <time>2020-08-02T07:48:05Z</time>
      </trkpt>
      <trkpt lat="47.25729" lon="-0.42721">
        <ele>68.8</ele>
        <time>2020-08-02T07:48:06Z</time>
      </trkpt>
      <trkpt lat="47.25732" lon="-0.42717">
        <ele>68.8</ele>
        <time>2020-08-02T07:48:07Z</time>
      </trkpt>
      <trkpt lat="47.25748" lon="-0.42689">
        <ele>68</ele>
        <time>2020-08-02T07:48:13Z</time>
      </trkpt>
      <trkpt lat="47.2575" lon="-0.42686">
        <ele>67.8</ele>
        <time>2020-08-02T07:48:14Z</time>
      </trkpt>
      <trkpt lat="47.25758" lon="-0.42671">
        <ele>67.2</ele>
        <time>2020-08-02T07:48:17Z</time>
      </trkpt>
      <trkpt lat="47.25764" lon="-0.4266">
        <ele>66.8</ele>
        <time>2020-08-02T07:48:19Z</time>
      </trkpt>
      <trkpt lat="47.25767" lon="-0.42655">
        <ele>66.8</ele>
        <time>2020-08-02T07:48:20Z</time>
      </trkpt>
      <trkpt lat="47.25776" lon="-0.42638">
        <ele>66.2</ele>
        <time>2020-08-02T07:48:23Z</time>
      </trkpt>
      <trkpt lat="47.25779" lon="-0.42633">
        <ele>66</ele>
        <time>2020-08-02T07:48:24Z</time>
      </trkpt>
      <trkpt lat="47.25787" lon="-0.42619">
        <ele>65.8</ele>
        <time>2020-08-02T07:48:26Z</time>
      </trkpt>
      <trkpt lat="47.25791" lon="-0.42613">
        <ele>65.6</ele>
        <time>2020-08-02T07:48:27Z</time>
      </trkpt>
      <trkpt lat="47.25795" lon="-0.42604">
        <ele>65.2</ele>
        <time>2020-08-02T07:48:28Z</time>
      </trkpt>
      <trkpt lat="47.25799" lon="-0.42595">
        <ele>65</ele>
        <time>2020-08-02T07:48:29Z</time>
      </trkpt>
      <trkpt lat="47.25804" lon="-0.42584">
        <ele>64.6</ele>
        <time>2020-08-02T07:48:30Z</time>
      </trkpt>
      <trkpt lat="47.25808" lon="-0.42577">
        <ele>64.4</ele>
        <time>2020-08-02T07:48:31Z</time>
      </trkpt>
      <trkpt lat="47.25814" lon="-0.42566">
        <ele>64.2</ele>
        <time>2020-08-02T07:48:32Z</time>
      </trkpt>
      <trkpt lat="47.25827" lon="-0.42543">
        <ele>64.2</ele>
        <time>2020-08-02T07:48:35Z</time>
      </trkpt>
      <trkpt lat="47.25831" lon="-0.42537">
        <ele>64.2</ele>
        <time>2020-08-02T07:48:36Z</time>
      </trkpt>
      <trkpt lat="47.25834" lon="-0.42531">
        <ele>64.2</ele>
        <time>2020-08-02T07:48:37Z</time>
      </trkpt>
      <trkpt lat="47.25838" lon="-0.42526">
        <ele>64.8</ele>
        <time>2020-08-02T07:48:38Z</time>
      </trkpt>
      <trkpt lat="47.25842" lon="-0.42521">
        <ele>65</ele>
        <time>2020-08-02T07:48:39Z</time>
      </trkpt>
      <trkpt lat="47.25844" lon="-0.42518">
        <ele>65.8</ele>
        <time>2020-08-02T07:48:40Z</time>
      </trkpt>
      <trkpt lat="47.25847" lon="-0.42514">
        <ele>66.6</ele>
        <time>2020-08-02T07:48:41Z</time>
      </trkpt>
      <trkpt lat="47.25849" lon="-0.42511">
        <ele>66.8</ele>
        <time>2020-08-02T07:48:42Z</time>
      </trkpt>
      <trkpt lat="47.25852" lon="-0.42508">
        <ele>67.4</ele>
        <time>2020-08-02T07:48:43Z</time>
      </trkpt>
      <trkpt lat="47.25855" lon="-0.42503">
        <ele>67.8</ele>
        <time>2020-08-02T07:48:44Z</time>
      </trkpt>
      <trkpt lat="47.25857" lon="-0.42501">
        <ele>68.4</ele>
        <time>2020-08-02T07:48:45Z</time>
      </trkpt>
      <trkpt lat="47.25859" lon="-0.42497">
        <ele>68.6</ele>
        <time>2020-08-02T07:48:46Z</time>
      </trkpt>
      <trkpt lat="47.25862" lon="-0.42494">
        <ele>69</ele>
        <time>2020-08-02T07:48:47Z</time>
      </trkpt>
      <trkpt lat="47.25865" lon="-0.4249">
        <ele>69.4</ele>
        <time>2020-08-02T07:48:48Z</time>
      </trkpt>
      <trkpt lat="47.25868" lon="-0.42486">
        <ele>69.6</ele>
        <time>2020-08-02T07:48:49Z</time>
      </trkpt>
      <trkpt lat="47.25871" lon="-0.42482">
        <ele>70</ele>
        <time>2020-08-02T07:48:50Z</time>
      </trkpt>
      <trkpt lat="47.25875" lon="-0.42477">
        <ele>70</ele>
        <time>2020-08-02T07:48:51Z</time>
      </trkpt>
      <trkpt lat="47.25877" lon="-0.42473">
        <ele>70.2</ele>
        <time>2020-08-02T07:48:52Z</time>
      </trkpt>
      <trkpt lat="47.2588" lon="-0.42469">
        <ele>70.6</ele>
        <time>2020-08-02T07:48:53Z</time>
      </trkpt>
      <trkpt lat="47.25883" lon="-0.42465">
        <ele>70.6</ele>
        <time>2020-08-02T07:48:54Z</time>
      </trkpt>
      <trkpt lat="47.25887" lon="-0.4246">
        <ele>70.8</ele>
        <time>2020-08-02T07:48:55Z</time>
      </trkpt>
      <trkpt lat="47.25889" lon="-0.42457">
        <ele>71</ele>
        <time>2020-08-02T07:48:56Z</time>
      </trkpt>
      <trkpt lat="47.25892" lon="-0.42454">
        <ele>71.2</ele>
        <time>2020-08-02T07:48:57Z</time>
      </trkpt>
      <trkpt lat="47.25895" lon="-0.4245">
        <ele>71.2</ele>
        <time>2020-08-02T07:48:58Z</time>
      </trkpt>
      <trkpt lat="47.25897" lon="-0.42447">
        <ele>71.4</ele>
        <time>2020-08-02T07:48:59Z</time>
      </trkpt>
      <trkpt lat="47.259" lon="-0.42444">
        <ele>71.8</ele>
        <time>2020-08-02T07:49:00Z</time>
      </trkpt>
      <trkpt lat="47.25902" lon="-0.4244">
        <ele>72</ele>
        <time>2020-08-02T07:49:01Z</time>
      </trkpt>
      <trkpt lat="47.25905" lon="-0.42437">
        <ele>72.2</ele>
        <time>2020-08-02T07:49:02Z</time>
      </trkpt>
      <trkpt lat="47.25908" lon="-0.42433">
        <ele>72.2</ele>
        <time>2020-08-02T07:49:03Z</time>
      </trkpt>
      <trkpt lat="47.2591" lon="-0.42431">
        <ele>72.2</ele>
        <time>2020-08-02T07:49:04Z</time>
      </trkpt>
      <trkpt lat="47.25913" lon="-0.42428">
        <ele>72.4</ele>
        <time>2020-08-02T07:49:05Z</time>
      </trkpt>
      <trkpt lat="47.25915" lon="-0.42425">
        <ele>72.4</ele>
        <time>2020-08-02T07:49:06Z</time>
      </trkpt>
      <trkpt lat="47.25918" lon="-0.42421">
        <ele>72.4</ele>
        <time>2020-08-02T07:49:07Z</time>
      </trkpt>
      <trkpt lat="47.25921" lon="-0.42418">
        <ele>72.4</ele>
        <time>2020-08-02T07:49:08Z</time>
      </trkpt>
      <trkpt lat="47.25923" lon="-0.42415">
        <ele>72.6</ele>
        <time>2020-08-02T07:49:09Z</time>
      </trkpt>
      <trkpt lat="47.25926" lon="-0.42413">
        <ele>72.6</ele>
        <time>2020-08-02T07:49:10Z</time>
      </trkpt>
      <trkpt lat="47.25929" lon="-0.42409">
        <ele>72.6</ele>
        <time>2020-08-02T07:49:11Z</time>
      </trkpt>
      <trkpt lat="47.25932" lon="-0.42406">
        <ele>72.6</ele>
        <time>2020-08-02T07:49:12Z</time>
      </trkpt>
      <trkpt lat="47.25935" lon="-0.42403">
        <ele>72.6</ele>
        <time>2020-08-02T07:49:13Z</time>
      </trkpt>
      <trkpt lat="47.2594" lon="-0.42399">
        <ele>72.6</ele>
        <time>2020-08-02T07:49:14Z</time>
      </trkpt>
      <trkpt lat="47.25945" lon="-0.42392">
        <ele>72.6</ele>
        <time>2020-08-02T07:49:16Z</time>
      </trkpt>
      <trkpt lat="47.2595" lon="-0.42385">
        <ele>72.6</ele>
        <time>2020-08-02T07:49:18Z</time>
      </trkpt>
      <trkpt lat="47.25953" lon="-0.42381">
        <ele>72.6</ele>
        <time>2020-08-02T07:49:19Z</time>
      </trkpt>
      <trkpt lat="47.25956" lon="-0.42378">
        <ele>72.6</ele>
        <time>2020-08-02T07:49:20Z</time>
      </trkpt>
      <trkpt lat="47.25958" lon="-0.42375">
        <ele>72.6</ele>
        <time>2020-08-02T07:49:21Z</time>
      </trkpt>
      <trkpt lat="47.25961" lon="-0.42369">
        <ele>72.6</ele>
        <time>2020-08-02T07:49:22Z</time>
      </trkpt>
      <trkpt lat="47.25967" lon="-0.42364">
        <ele>72.6</ele>
        <time>2020-08-02T07:49:23Z</time>
      </trkpt>
      <trkpt lat="47.2597" lon="-0.4236">
        <ele>72.4</ele>
        <time>2020-08-02T07:49:24Z</time>
      </trkpt>
      <trkpt lat="47.25973" lon="-0.42355">
        <ele>72.4</ele>
        <time>2020-08-02T07:49:25Z</time>
      </trkpt>
      <trkpt lat="47.25977" lon="-0.4235">
        <ele>72.4</ele>
        <time>2020-08-02T07:49:26Z</time>
      </trkpt>
      <trkpt lat="47.25984" lon="-0.42338">
        <ele>72.2</ele>
        <time>2020-08-02T07:49:28Z</time>
      </trkpt>
      <trkpt lat="47.25988" lon="-0.42333">
        <ele>72</ele>
        <time>2020-08-02T07:49:29Z</time>
      </trkpt>
      <trkpt lat="47.25996" lon="-0.42322">
        <ele>71.6</ele>
        <time>2020-08-02T07:49:31Z</time>
      </trkpt>
      <trkpt lat="47.25999" lon="-0.42316">
        <ele>71.4</ele>
        <time>2020-08-02T07:49:32Z</time>
      </trkpt>
      <trkpt lat="47.26004" lon="-0.42311">
        <ele>71.2</ele>
        <time>2020-08-02T07:49:33Z</time>
      </trkpt>
      <trkpt lat="47.26009" lon="-0.42302">
        <ele>71</ele>
        <time>2020-08-02T07:49:34Z</time>
      </trkpt>
      <trkpt lat="47.26016" lon="-0.42295">
        <ele>70.8</ele>
        <time>2020-08-02T07:49:35Z</time>
      </trkpt>
      <trkpt lat="47.2602" lon="-0.42289">
        <ele>70.4</ele>
        <time>2020-08-02T07:49:36Z</time>
      </trkpt>
      <trkpt lat="47.2603" lon="-0.42274">
        <ele>69.8</ele>
        <time>2020-08-02T07:49:38Z</time>
      </trkpt>
      <trkpt lat="47.26036" lon="-0.42268">
        <ele>69.6</ele>
        <time>2020-08-02T07:49:39Z</time>
      </trkpt>
      <trkpt lat="47.26043" lon="-0.42261">
        <ele>69.2</ele>
        <time>2020-08-02T07:49:40Z</time>
      </trkpt>
      <trkpt lat="47.26055" lon="-0.42247">
        <ele>68.4</ele>
        <time>2020-08-02T07:49:42Z</time>
      </trkpt>
      <trkpt lat="47.26061" lon="-0.42241">
        <ele>68</ele>
        <time>2020-08-02T07:49:43Z</time>
      </trkpt>
      <trkpt lat="47.2608" lon="-0.42223">
        <ele>67.6</ele>
        <time>2020-08-02T07:49:46Z</time>
      </trkpt>
      <trkpt lat="47.26087" lon="-0.42216">
        <ele>67.2</ele>
        <time>2020-08-02T07:49:47Z</time>
      </trkpt>
      <trkpt lat="47.26092" lon="-0.42212">
        <ele>67</ele>
        <time>2020-08-02T07:49:48Z</time>
      </trkpt>
      <trkpt lat="47.26098" lon="-0.42206">
        <ele>66.8</ele>
        <time>2020-08-02T07:49:49Z</time>
      </trkpt>
      <trkpt lat="47.26104" lon="-0.422">
        <ele>66.6</ele>
        <time>2020-08-02T07:49:50Z</time>
      </trkpt>
      <trkpt lat="47.2611" lon="-0.42194">
        <ele>66.4</ele>
        <time>2020-08-02T07:49:51Z</time>
      </trkpt>
      <trkpt lat="47.26115" lon="-0.4219">
        <ele>66.4</ele>
        <time>2020-08-02T07:49:52Z</time>
      </trkpt>
      <trkpt lat="47.26121" lon="-0.42184">
        <ele>66.4</ele>
        <time>2020-08-02T07:49:53Z</time>
      </trkpt>
      <trkpt lat="47.26131" lon="-0.42173">
        <ele>66.4</ele>
        <time>2020-08-02T07:49:55Z</time>
      </trkpt>
      <trkpt lat="47.26138" lon="-0.42166">
        <ele>66.4</ele>
        <time>2020-08-02T07:49:56Z</time>
      </trkpt>
      <trkpt lat="47.26142" lon="-0.42162">
        <ele>66.4</ele>
        <time>2020-08-02T07:49:57Z</time>
      </trkpt>
      <trkpt lat="47.26147" lon="-0.42157">
        <ele>66.4</ele>
        <time>2020-08-02T07:49:58Z</time>
      </trkpt>
      <trkpt lat="47.26152" lon="-0.42152">
        <ele>66.4</ele>
        <time>2020-08-02T07:49:59Z</time>
      </trkpt>
      <trkpt lat="47.26157" lon="-0.42147">
        <ele>66.6</ele>
        <time>2020-08-02T07:50:00Z</time>
      </trkpt>
      <trkpt lat="47.26162" lon="-0.42142">
        <ele>66.6</ele>
        <time>2020-08-02T07:50:01Z</time>
      </trkpt>
      <trkpt lat="47.26167" lon="-0.42138">
        <ele>66.8</ele>
        <time>2020-08-02T07:50:02Z</time>
      </trkpt>
      <trkpt lat="47.26171" lon="-0.42133">
        <ele>66.8</ele>
        <time>2020-08-02T07:50:03Z</time>
      </trkpt>
      <trkpt lat="47.26176" lon="-0.42129">
        <ele>66.8</ele>
        <time>2020-08-02T07:50:04Z</time>
      </trkpt>
      <trkpt lat="47.2618" lon="-0.42124">
        <ele>67</ele>
        <time>2020-08-02T07:50:05Z</time>
      </trkpt>
      <trkpt lat="47.26184" lon="-0.42121">
        <ele>67.2</ele>
        <time>2020-08-02T07:50:06Z</time>
      </trkpt>
      <trkpt lat="47.26187" lon="-0.42119">
        <ele>67.4</ele>
        <time>2020-08-02T07:50:07Z</time>
      </trkpt>
      <trkpt lat="47.26192" lon="-0.4212">
        <ele>67.6</ele>
        <time>2020-08-02T07:50:08Z</time>
      </trkpt>
      <trkpt lat="47.26195" lon="-0.42122">
        <ele>67.6</ele>
        <time>2020-08-02T07:50:09Z</time>
      </trkpt>
      <trkpt lat="47.26199" lon="-0.42126">
        <ele>67.6</ele>
        <time>2020-08-02T07:50:10Z</time>
      </trkpt>
      <trkpt lat="47.26201" lon="-0.42131">
        <ele>67.6</ele>
        <time>2020-08-02T07:50:11Z</time>
      </trkpt>
      <trkpt lat="47.26204" lon="-0.42136">
        <ele>67.6</ele>
        <time>2020-08-02T07:50:12Z</time>
      </trkpt>
      <trkpt lat="47.26206" lon="-0.42143">
        <ele>67.4</ele>
        <time>2020-08-02T07:50:13Z</time>
      </trkpt>
      <trkpt lat="47.26209" lon="-0.4215">
        <ele>67.2</ele>
        <time>2020-08-02T07:50:14Z</time>
      </trkpt>
      <trkpt lat="47.26211" lon="-0.42158">
        <ele>67</ele>
        <time>2020-08-02T07:50:15Z</time>
      </trkpt>
      <trkpt lat="47.26217" lon="-0.42177">
        <ele>66.6</ele>
        <time>2020-08-02T07:50:17Z</time>
      </trkpt>
      <trkpt lat="47.26219" lon="-0.42185">
        <ele>66.2</ele>
        <time>2020-08-02T07:50:18Z</time>
      </trkpt>
      <trkpt lat="47.26221" lon="-0.42195">
        <ele>65.8</ele>
        <time>2020-08-02T07:50:19Z</time>
      </trkpt>
      <trkpt lat="47.26226" lon="-0.42216">
        <ele>65.2</ele>
        <time>2020-08-02T07:50:21Z</time>
      </trkpt>
      <trkpt lat="47.26228" lon="-0.42226">
        <ele>65</ele>
        <time>2020-08-02T07:50:22Z</time>
      </trkpt>
      <trkpt lat="47.26232" lon="-0.42238">
        <ele>64.6</ele>
        <time>2020-08-02T07:50:23Z</time>
      </trkpt>
      <trkpt lat="47.26235" lon="-0.42247">
        <ele>64.4</ele>
        <time>2020-08-02T07:50:24Z</time>
      </trkpt>
      <trkpt lat="47.26239" lon="-0.42254">
        <ele>64.2</ele>
        <time>2020-08-02T07:50:25Z</time>
      </trkpt>
      <trkpt lat="47.26243" lon="-0.42262">
        <ele>64</ele>
        <time>2020-08-02T07:50:26Z</time>
      </trkpt>
      <trkpt lat="47.26248" lon="-0.4227">
        <ele>63.8</ele>
        <time>2020-08-02T07:50:27Z</time>
      </trkpt>
      <trkpt lat="47.26267" lon="-0.42297">
        <ele>63.6</ele>
        <time>2020-08-02T07:50:31Z</time>
      </trkpt>
      <trkpt lat="47.26272" lon="-0.42303">
        <ele>63.6</ele>
        <time>2020-08-02T07:50:32Z</time>
      </trkpt>
      <trkpt lat="47.26277" lon="-0.4231">
        <ele>63.8</ele>
        <time>2020-08-02T07:50:33Z</time>
      </trkpt>
      <trkpt lat="47.26281" lon="-0.42314">
        <ele>63.8</ele>
        <time>2020-08-02T07:50:34Z</time>
      </trkpt>
      <trkpt lat="47.26285" lon="-0.42319">
        <ele>63.8</ele>
        <time>2020-08-02T07:50:35Z</time>
      </trkpt>
      <trkpt lat="47.2629" lon="-0.42325">
        <ele>64.2</ele>
        <time>2020-08-02T07:50:36Z</time>
      </trkpt>
      <trkpt lat="47.26294" lon="-0.4233">
        <ele>64.4</ele>
        <time>2020-08-02T07:50:37Z</time>
      </trkpt>
      <trkpt lat="47.26297" lon="-0.42334">
        <ele>64.4</ele>
        <time>2020-08-02T07:50:38Z</time>
      </trkpt>
      <trkpt lat="47.263" lon="-0.42338">
        <ele>64.6</ele>
        <time>2020-08-02T07:50:39Z</time>
      </trkpt>
      <trkpt lat="47.26303" lon="-0.42343">
        <ele>64.8</ele>
        <time>2020-08-02T07:50:40Z</time>
      </trkpt>
      <trkpt lat="47.26306" lon="-0.42347">
        <ele>65</ele>
        <time>2020-08-02T07:50:41Z</time>
      </trkpt>
      <trkpt lat="47.26309" lon="-0.42353">
        <ele>65.4</ele>
        <time>2020-08-02T07:50:42Z</time>
      </trkpt>
      <trkpt lat="47.26312" lon="-0.42356">
        <ele>66</ele>
        <time>2020-08-02T07:50:43Z</time>
      </trkpt>
      <trkpt lat="47.26315" lon="-0.42361">
        <ele>66</ele>
        <time>2020-08-02T07:50:44Z</time>
      </trkpt>
      <trkpt lat="47.26319" lon="-0.42367">
        <ele>66.2</ele>
        <time>2020-08-02T07:50:45Z</time>
      </trkpt>
      <trkpt lat="47.26322" lon="-0.42373">
        <ele>66.4</ele>
        <time>2020-08-02T07:50:46Z</time>
      </trkpt>
      <trkpt lat="47.26324" lon="-0.42377">
        <ele>66.8</ele>
        <time>2020-08-02T07:50:47Z</time>
      </trkpt>
      <trkpt lat="47.26326" lon="-0.42383">
        <ele>67</ele>
        <time>2020-08-02T07:50:48Z</time>
      </trkpt>
      <trkpt lat="47.2633" lon="-0.42388">
        <ele>67.2</ele>
        <time>2020-08-02T07:50:49Z</time>
      </trkpt>
      <trkpt lat="47.26333" lon="-0.42394">
        <ele>67.4</ele>
        <time>2020-08-02T07:50:50Z</time>
      </trkpt>
      <trkpt lat="47.26336" lon="-0.424">
        <ele>67.4</ele>
        <time>2020-08-02T07:50:51Z</time>
      </trkpt>
      <trkpt lat="47.26339" lon="-0.42405">
        <ele>67.4</ele>
        <time>2020-08-02T07:50:52Z</time>
      </trkpt>
      <trkpt lat="47.26341" lon="-0.42411">
        <ele>67.4</ele>
        <time>2020-08-02T07:50:53Z</time>
      </trkpt>
      <trkpt lat="47.26344" lon="-0.42418">
        <ele>67.6</ele>
        <time>2020-08-02T07:50:54Z</time>
      </trkpt>
      <trkpt lat="47.26347" lon="-0.42424">
        <ele>68</ele>
        <time>2020-08-02T07:50:55Z</time>
      </trkpt>
      <trkpt lat="47.2635" lon="-0.4243">
        <ele>68.2</ele>
        <time>2020-08-02T07:50:56Z</time>
      </trkpt>
      <trkpt lat="47.26352" lon="-0.42434">
        <ele>68.4</ele>
        <time>2020-08-02T07:50:57Z</time>
      </trkpt>
      <trkpt lat="47.26354" lon="-0.4244">
        <ele>68.4</ele>
        <time>2020-08-02T07:50:58Z</time>
      </trkpt>
      <trkpt lat="47.26356" lon="-0.42445">
        <ele>68.6</ele>
        <time>2020-08-02T07:50:59Z</time>
      </trkpt>
      <trkpt lat="47.26358" lon="-0.42451">
        <ele>68.8</ele>
        <time>2020-08-02T07:51:00Z</time>
      </trkpt>
      <trkpt lat="47.26361" lon="-0.42458">
        <ele>69</ele>
        <time>2020-08-02T07:51:01Z</time>
      </trkpt>
      <trkpt lat="47.26363" lon="-0.42462">
        <ele>69.4</ele>
        <time>2020-08-02T07:51:02Z</time>
      </trkpt>
      <trkpt lat="47.26365" lon="-0.42468">
        <ele>69.4</ele>
        <time>2020-08-02T07:51:03Z</time>
      </trkpt>
      <trkpt lat="47.26367" lon="-0.42473">
        <ele>69.6</ele>
        <time>2020-08-02T07:51:04Z</time>
      </trkpt>
      <trkpt lat="47.26369" lon="-0.42479">
        <ele>69.6</ele>
        <time>2020-08-02T07:51:05Z</time>
      </trkpt>
      <trkpt lat="47.2637" lon="-0.42483">
        <ele>69.8</ele>
        <time>2020-08-02T07:51:06Z</time>
      </trkpt>
      <trkpt lat="47.26372" lon="-0.42488">
        <ele>69.8</ele>
        <time>2020-08-02T07:51:07Z</time>
      </trkpt>
      <trkpt lat="47.26374" lon="-0.42493">
        <ele>70</ele>
        <time>2020-08-02T07:51:08Z</time>
      </trkpt>
      <trkpt lat="47.26376" lon="-0.42498">
        <ele>70</ele>
        <time>2020-08-02T07:51:09Z</time>
      </trkpt>
      <trkpt lat="47.26378" lon="-0.42504">
        <ele>70</ele>
        <time>2020-08-02T07:51:10Z</time>
      </trkpt>
      <trkpt lat="47.2638" lon="-0.42508">
        <ele>70</ele>
        <time>2020-08-02T07:51:11Z</time>
      </trkpt>
      <trkpt lat="47.26382" lon="-0.42512">
        <ele>70</ele>
        <time>2020-08-02T07:51:12Z</time>
      </trkpt>
      <trkpt lat="47.26384" lon="-0.42516">
        <ele>70.2</ele>
        <time>2020-08-02T07:51:13Z</time>
      </trkpt>
      <trkpt lat="47.26387" lon="-0.42521">
        <ele>70.2</ele>
        <time>2020-08-02T07:51:14Z</time>
      </trkpt>
      <trkpt lat="47.26389" lon="-0.42526">
        <ele>70.2</ele>
        <time>2020-08-02T07:51:15Z</time>
      </trkpt>
      <trkpt lat="47.2639" lon="-0.42529">
        <ele>70.4</ele>
        <time>2020-08-02T07:51:16Z</time>
      </trkpt>
      <trkpt lat="47.26392" lon="-0.42533">
        <ele>70.4</ele>
        <time>2020-08-02T07:51:17Z</time>
      </trkpt>
      <trkpt lat="47.26393" lon="-0.42537">
        <ele>70.4</ele>
        <time>2020-08-02T07:51:18Z</time>
      </trkpt>
      <trkpt lat="47.26395" lon="-0.42542">
        <ele>70.6</ele>
        <time>2020-08-02T07:51:19Z</time>
      </trkpt>
      <trkpt lat="47.26396" lon="-0.42545">
        <ele>70.6</ele>
        <time>2020-08-02T07:51:20Z</time>
      </trkpt>
      <trkpt lat="47.26398" lon="-0.4255">
        <ele>70.8</ele>
        <time>2020-08-02T07:51:21Z</time>
      </trkpt>
      <trkpt lat="47.26401" lon="-0.42554">
        <ele>70.8</ele>
        <time>2020-08-02T07:51:22Z</time>
      </trkpt>
      <trkpt lat="47.26403" lon="-0.42559">
        <ele>70.8</ele>
        <time>2020-08-02T07:51:23Z</time>
      </trkpt>
      <trkpt lat="47.26405" lon="-0.42563">
        <ele>70.8</ele>
        <time>2020-08-02T07:51:24Z</time>
      </trkpt>
      <trkpt lat="47.26407" lon="-0.42568">
        <ele>70.8</ele>
        <time>2020-08-02T07:51:25Z</time>
      </trkpt>
      <trkpt lat="47.2641" lon="-0.42577">
        <ele>71</ele>
        <time>2020-08-02T07:51:27Z</time>
      </trkpt>
      <trkpt lat="47.26423" lon="-0.42604">
        <ele>71</ele>
        <time>2020-08-02T07:51:33Z</time>
      </trkpt>
      <trkpt lat="47.26425" lon="-0.42609">
        <ele>71</ele>
        <time>2020-08-02T07:51:34Z</time>
      </trkpt>
      <trkpt lat="47.26427" lon="-0.42614">
        <ele>71.2</ele>
        <time>2020-08-02T07:51:35Z</time>
      </trkpt>
      <trkpt lat="47.26432" lon="-0.42627">
        <ele>71.2</ele>
        <time>2020-08-02T07:51:38Z</time>
      </trkpt>
      <trkpt lat="47.26434" lon="-0.4263">
        <ele>71.2</ele>
        <time>2020-08-02T07:51:39Z</time>
      </trkpt>
      <trkpt lat="47.26436" lon="-0.42634">
        <ele>71.4</ele>
        <time>2020-08-02T07:51:40Z</time>
      </trkpt>
      <trkpt lat="47.26438" lon="-0.42638">
        <ele>71.4</ele>
        <time>2020-08-02T07:51:41Z</time>
      </trkpt>
      <trkpt lat="47.2644" lon="-0.42642">
        <ele>71.6</ele>
        <time>2020-08-02T07:51:42Z</time>
      </trkpt>
      <trkpt lat="47.26442" lon="-0.42646">
        <ele>71.6</ele>
        <time>2020-08-02T07:51:43Z</time>
      </trkpt>
      <trkpt lat="47.26444" lon="-0.4265">
        <ele>71.8</ele>
        <time>2020-08-02T07:51:44Z</time>
      </trkpt>
      <trkpt lat="47.26446" lon="-0.42653">
        <ele>71.8</ele>
        <time>2020-08-02T07:51:45Z</time>
      </trkpt>
      <trkpt lat="47.26447" lon="-0.42657">
        <ele>72</ele>
        <time>2020-08-02T07:51:46Z</time>
      </trkpt>
      <trkpt lat="47.26449" lon="-0.42663">
        <ele>72</ele>
        <time>2020-08-02T07:51:47Z</time>
      </trkpt>
      <trkpt lat="47.2645" lon="-0.42667">
        <ele>72</ele>
        <time>2020-08-02T07:51:48Z</time>
      </trkpt>
      <trkpt lat="47.26452" lon="-0.42671">
        <ele>72</ele>
        <time>2020-08-02T07:51:49Z</time>
      </trkpt>
      <trkpt lat="47.26454" lon="-0.42676">
        <ele>72</ele>
        <time>2020-08-02T07:51:50Z</time>
      </trkpt>
      <trkpt lat="47.26456" lon="-0.4268">
        <ele>72.2</ele>
        <time>2020-08-02T07:51:51Z</time>
      </trkpt>
      <trkpt lat="47.26468" lon="-0.4272">
        <ele>72.4</ele>
        <time>2020-08-02T07:51:59Z</time>
      </trkpt>
      <trkpt lat="47.2647" lon="-0.42726">
        <ele>72.6</ele>
        <time>2020-08-02T07:52:00Z</time>
      </trkpt>
      <trkpt lat="47.26474" lon="-0.4274">
        <ele>72.8</ele>
        <time>2020-08-02T07:52:03Z</time>
      </trkpt>
      <trkpt lat="47.26476" lon="-0.42746">
        <ele>73</ele>
        <time>2020-08-02T07:52:04Z</time>
      </trkpt>
      <trkpt lat="47.26477" lon="-0.42751">
        <ele>73</ele>
        <time>2020-08-02T07:52:05Z</time>
      </trkpt>
      <trkpt lat="47.26478" lon="-0.42756">
        <ele>73</ele>
        <time>2020-08-02T07:52:06Z</time>
      </trkpt>
      <trkpt lat="47.26479" lon="-0.4276">
        <ele>73.2</ele>
        <time>2020-08-02T07:52:07Z</time>
      </trkpt>
      <trkpt lat="47.2648" lon="-0.42764">
        <ele>73.4</ele>
        <time>2020-08-02T07:52:08Z</time>
      </trkpt>
      <trkpt lat="47.26481" lon="-0.4277">
        <ele>73.4</ele>
        <time>2020-08-02T07:52:09Z</time>
      </trkpt>
      <trkpt lat="47.26482" lon="-0.42775">
        <ele>73.4</ele>
        <time>2020-08-02T07:52:10Z</time>
      </trkpt>
      <trkpt lat="47.26483" lon="-0.4278">
        <ele>73.6</ele>
        <time>2020-08-02T07:52:11Z</time>
      </trkpt>
      <trkpt lat="47.26484" lon="-0.42784">
        <ele>73.6</ele>
        <time>2020-08-02T07:52:12Z</time>
      </trkpt>
      <trkpt lat="47.26485" lon="-0.4279">
        <ele>73.6</ele>
        <time>2020-08-02T07:52:13Z</time>
      </trkpt>
      <trkpt lat="47.26486" lon="-0.42794">
        <ele>73.6</ele>
        <time>2020-08-02T07:52:14Z</time>
      </trkpt>
      <trkpt lat="47.26487" lon="-0.428">
        <ele>73.4</ele>
        <time>2020-08-02T07:52:15Z</time>
      </trkpt>
      <trkpt lat="47.26488" lon="-0.42804">
        <ele>73.6</ele>
        <time>2020-08-02T07:52:16Z</time>
      </trkpt>
      <trkpt lat="47.26488" lon="-0.4281">
        <ele>73.6</ele>
        <time>2020-08-02T07:52:17Z</time>
      </trkpt>
      <trkpt lat="47.26489" lon="-0.42816">
        <ele>73.4</ele>
        <time>2020-08-02T07:52:18Z</time>
      </trkpt>
      <trkpt lat="47.26493" lon="-0.42844">
        <ele>73.8</ele>
        <time>2020-08-02T07:52:23Z</time>
      </trkpt>
      <trkpt lat="47.26493" lon="-0.4286">
        <ele>73.8</ele>
        <time>2020-08-02T07:52:26Z</time>
      </trkpt>
      <trkpt lat="47.26493" lon="-0.42871">
        <ele>73.6</ele>
        <time>2020-08-02T07:52:28Z</time>
      </trkpt>
      <trkpt lat="47.26493" lon="-0.4289">
        <ele>73.4</ele>
        <time>2020-08-02T07:52:31Z</time>
      </trkpt>
      <trkpt lat="47.26495" lon="-0.42916">
        <ele>72.4</ele>
        <time>2020-08-02T07:52:35Z</time>
      </trkpt>
      <trkpt lat="47.26495" lon="-0.42923">
        <ele>72.4</ele>
        <time>2020-08-02T07:52:36Z</time>
      </trkpt>
      <trkpt lat="47.26497" lon="-0.42937">
        <ele>72.2</ele>
        <time>2020-08-02T07:52:38Z</time>
      </trkpt>
      <trkpt lat="47.26497" lon="-0.42944">
        <ele>72</ele>
        <time>2020-08-02T07:52:39Z</time>
      </trkpt>
      <trkpt lat="47.26498" lon="-0.42949">
        <ele>72</ele>
        <time>2020-08-02T07:52:40Z</time>
      </trkpt>
      <trkpt lat="47.26501" lon="-0.42963">
        <ele>72</ele>
        <time>2020-08-02T07:52:42Z</time>
      </trkpt>
      <trkpt lat="47.26504" lon="-0.42981">
        <ele>72</ele>
        <time>2020-08-02T07:52:45Z</time>
      </trkpt>
      <trkpt lat="47.26506" lon="-0.42989">
        <ele>71.8</ele>
        <time>2020-08-02T07:52:46Z</time>
      </trkpt>
      <trkpt lat="47.26508" lon="-0.42995">
        <ele>71.8</ele>
        <time>2020-08-02T07:52:47Z</time>
      </trkpt>
      <trkpt lat="47.26509" lon="-0.43001">
        <ele>71.8</ele>
        <time>2020-08-02T07:52:48Z</time>
      </trkpt>
      <trkpt lat="47.2651" lon="-0.43007">
        <ele>71.6</ele>
        <time>2020-08-02T07:52:49Z</time>
      </trkpt>
      <trkpt lat="47.26511" lon="-0.43012">
        <ele>71.6</ele>
        <time>2020-08-02T07:52:50Z</time>
      </trkpt>
      <trkpt lat="47.26512" lon="-0.4302">
        <ele>71.6</ele>
        <time>2020-08-02T07:52:51Z</time>
      </trkpt>
      <trkpt lat="47.26513" lon="-0.43027">
        <ele>71.6</ele>
        <time>2020-08-02T07:52:52Z</time>
      </trkpt>
      <trkpt lat="47.26514" lon="-0.43032">
        <ele>71.8</ele>
        <time>2020-08-02T07:52:53Z</time>
      </trkpt>
      <trkpt lat="47.26515" lon="-0.43038">
        <ele>71.8</ele>
        <time>2020-08-02T07:52:54Z</time>
      </trkpt>
      <trkpt lat="47.26517" lon="-0.43045">
        <ele>71.8</ele>
        <time>2020-08-02T07:52:55Z</time>
      </trkpt>
      <trkpt lat="47.26518" lon="-0.43051">
        <ele>71.8</ele>
        <time>2020-08-02T07:52:56Z</time>
      </trkpt>
      <trkpt lat="47.26519" lon="-0.43057">
        <ele>72</ele>
        <time>2020-08-02T07:52:57Z</time>
      </trkpt>
      <trkpt lat="47.26519" lon="-0.43062">
        <ele>72</ele>
        <time>2020-08-02T07:52:58Z</time>
      </trkpt>
      <trkpt lat="47.26521" lon="-0.43068">
        <ele>72</ele>
        <time>2020-08-02T07:52:59Z</time>
      </trkpt>
      <trkpt lat="47.26521" lon="-0.43071">
        <ele>74.5</ele>
      </trkpt>
      <trkpt lat="47.26522" lon="-0.43075">
        <ele>72.2</ele>
        <time>2020-08-02T07:53:00Z</time>
      </trkpt>
      <trkpt lat="47.26523" lon="-0.43082">
        <ele>72.2</ele>
        <time>2020-08-02T07:53:01Z</time>
      </trkpt>
      <trkpt lat="47.26524" lon="-0.43088">
        <ele>72.2</ele>
        <time>2020-08-02T07:53:02Z</time>
      </trkpt>
      <trkpt lat="47.26525" lon="-0.43094">
        <ele>72.4</ele>
        <time>2020-08-02T07:53:03Z</time>
      </trkpt>
      <trkpt lat="47.26526" lon="-0.431">
        <ele>72.4</ele>
        <time>2020-08-02T07:53:04Z</time>
      </trkpt>
      <trkpt lat="47.26527" lon="-0.43107">
        <ele>72.4</ele>
        <time>2020-08-02T07:53:05Z</time>
      </trkpt>
      <trkpt lat="47.26528" lon="-0.43113">
        <ele>72.6</ele>
        <time>2020-08-02T07:53:06Z</time>
      </trkpt>
      <trkpt lat="47.26529" lon="-0.43118">
        <ele>72.6</ele>
        <time>2020-08-02T07:53:07Z</time>
      </trkpt>
      <trkpt lat="47.26534" lon="-0.43143">
        <ele>73</ele>
        <time>2020-08-02T07:53:11Z</time>
      </trkpt>
      <trkpt lat="47.26534" lon="-0.43149">
        <ele>73</ele>
        <time>2020-08-02T07:53:12Z</time>
      </trkpt>
      <trkpt lat="47.26536" lon="-0.43156">
        <ele>73.2</ele>
        <time>2020-08-02T07:53:13Z</time>
      </trkpt>
      <trkpt lat="47.26536" lon="-0.43162">
        <ele>73.2</ele>
        <time>2020-08-02T07:53:14Z</time>
      </trkpt>
      <trkpt lat="47.26537" lon="-0.43168">
        <ele>73.2</ele>
        <time>2020-08-02T07:53:15Z</time>
      </trkpt>
      <trkpt lat="47.26538" lon="-0.43172">
        <ele>73.2</ele>
        <time>2020-08-02T07:53:16Z</time>
      </trkpt>
      <trkpt lat="47.26539" lon="-0.43178">
        <ele>73.2</ele>
        <time>2020-08-02T07:53:17Z</time>
      </trkpt>
      <trkpt lat="47.26539" lon="-0.43185">
        <ele>73.4</ele>
        <time>2020-08-02T07:53:18Z</time>
      </trkpt>
      <trkpt lat="47.2654" lon="-0.43192">
        <ele>73.4</ele>
        <time>2020-08-02T07:53:19Z</time>
      </trkpt>
      <trkpt lat="47.26541" lon="-0.43198">
        <ele>73.6</ele>
        <time>2020-08-02T07:53:20Z</time>
      </trkpt>
      <trkpt lat="47.26541" lon="-0.43202">
        <ele>73.6</ele>
        <time>2020-08-02T07:53:21Z</time>
      </trkpt>
      <trkpt lat="47.26542" lon="-0.43208">
        <ele>73.8</ele>
        <time>2020-08-02T07:53:22Z</time>
      </trkpt>
      <trkpt lat="47.26543" lon="-0.43215">
        <ele>73.8</ele>
        <time>2020-08-02T07:53:23Z</time>
      </trkpt>
      <trkpt lat="47.26544" lon="-0.4322">
        <ele>74</ele>
        <time>2020-08-02T07:53:24Z</time>
      </trkpt>
      <trkpt lat="47.26545" lon="-0.43225">
        <ele>73.8</ele>
        <time>2020-08-02T07:53:25Z</time>
      </trkpt>
      <trkpt lat="47.26545" lon="-0.43231">
        <ele>74</ele>
        <time>2020-08-02T07:53:26Z</time>
      </trkpt>
      <trkpt lat="47.26546" lon="-0.43238">
        <ele>74.2</ele>
        <time>2020-08-02T07:53:27Z</time>
      </trkpt>
      <trkpt lat="47.26546" lon="-0.43243">
        <ele>74.4</ele>
        <time>2020-08-02T07:53:28Z</time>
      </trkpt>
      <trkpt lat="47.26547" lon="-0.43249">
        <ele>74.4</ele>
        <time>2020-08-02T07:53:29Z</time>
      </trkpt>
      <trkpt lat="47.26548" lon="-0.43255">
        <ele>74.6</ele>
        <time>2020-08-02T07:53:30Z</time>
      </trkpt>
      <trkpt lat="47.26548" lon="-0.43261">
        <ele>74.6</ele>
        <time>2020-08-02T07:53:31Z</time>
      </trkpt>
      <trkpt lat="47.26549" lon="-0.43268">
        <ele>74.6</ele>
        <time>2020-08-02T07:53:32Z</time>
      </trkpt>
      <trkpt lat="47.2655" lon="-0.43273">
        <ele>74.6</ele>
        <time>2020-08-02T07:53:33Z</time>
      </trkpt>
      <trkpt lat="47.2655" lon="-0.43278">
        <ele>74.8</ele>
        <time>2020-08-02T07:53:34Z</time>
      </trkpt>
      <trkpt lat="47.26552" lon="-0.43303">
        <ele>74.8</ele>
        <time>2020-08-02T07:53:38Z</time>
      </trkpt>
      <trkpt lat="47.26553" lon="-0.43313">
        <ele>74.8</ele>
        <time>2020-08-02T07:53:40Z</time>
      </trkpt>
      <trkpt lat="47.26554" lon="-0.4332">
        <ele>74.8</ele>
        <time>2020-08-02T07:53:41Z</time>
      </trkpt>
      <trkpt lat="47.26555" lon="-0.43326">
        <ele>74.8</ele>
        <time>2020-08-02T07:53:42Z</time>
      </trkpt>
      <trkpt lat="47.26556" lon="-0.43331">
        <ele>74.8</ele>
        <time>2020-08-02T07:53:43Z</time>
      </trkpt>
      <trkpt lat="47.26556" lon="-0.43336">
        <ele>74.8</ele>
        <time>2020-08-02T07:53:44Z</time>
      </trkpt>
      <trkpt lat="47.26558" lon="-0.43349">
        <ele>74.8</ele>
        <time>2020-08-02T07:53:46Z</time>
      </trkpt>
      <trkpt lat="47.26558" lon="-0.43355">
        <ele>74.8</ele>
        <time>2020-08-02T07:53:47Z</time>
      </trkpt>
      <trkpt lat="47.26559" lon="-0.43361">
        <ele>74.8</ele>
        <time>2020-08-02T07:53:48Z</time>
      </trkpt>
      <trkpt lat="47.2656" lon="-0.43365">
        <ele>74.8</ele>
        <time>2020-08-02T07:53:49Z</time>
      </trkpt>
      <trkpt lat="47.26561" lon="-0.43373">
        <ele>74.8</ele>
        <time>2020-08-02T07:53:50Z</time>
      </trkpt>
      <trkpt lat="47.26562" lon="-0.43378">
        <ele>74.8</ele>
        <time>2020-08-02T07:53:51Z</time>
      </trkpt>
      <trkpt lat="47.26563" lon="-0.43385">
        <ele>74.8</ele>
        <time>2020-08-02T07:53:52Z</time>
      </trkpt>
      <trkpt lat="47.26572" lon="-0.4345">
        <ele>74.6</ele>
        <time>2020-08-02T07:54:03Z</time>
      </trkpt>
      <trkpt lat="47.26573" lon="-0.43457">
        <ele>74.4</ele>
        <time>2020-08-02T07:54:04Z</time>
      </trkpt>
      <trkpt lat="47.26573" lon="-0.43462">
        <ele>74.4</ele>
        <time>2020-08-02T07:54:05Z</time>
      </trkpt>
      <trkpt lat="47.26574" lon="-0.43468">
        <ele>74.4</ele>
        <time>2020-08-02T07:54:06Z</time>
      </trkpt>
      <trkpt lat="47.26574" lon="-0.43472">
        <ele>74.4</ele>
        <time>2020-08-02T07:54:07Z</time>
      </trkpt>
      <trkpt lat="47.26574" lon="-0.43478">
        <ele>74.4</ele>
        <time>2020-08-02T07:54:08Z</time>
      </trkpt>
      <trkpt lat="47.26575" lon="-0.43485">
        <ele>74.4</ele>
        <time>2020-08-02T07:54:09Z</time>
      </trkpt>
      <trkpt lat="47.26576" lon="-0.43491">
        <ele>74.4</ele>
        <time>2020-08-02T07:54:10Z</time>
      </trkpt>
      <trkpt lat="47.26576" lon="-0.43497">
        <ele>74.4</ele>
        <time>2020-08-02T07:54:11Z</time>
      </trkpt>
      <trkpt lat="47.26577" lon="-0.43501">
        <ele>74.4</ele>
        <time>2020-08-02T07:54:12Z</time>
      </trkpt>
      <trkpt lat="47.26577" lon="-0.43507">
        <ele>74.4</ele>
        <time>2020-08-02T07:54:13Z</time>
      </trkpt>
      <trkpt lat="47.26578" lon="-0.43514">
        <ele>74.4</ele>
        <time>2020-08-02T07:54:14Z</time>
      </trkpt>
      <trkpt lat="47.26579" lon="-0.4352">
        <ele>74.4</ele>
        <time>2020-08-02T07:54:15Z</time>
      </trkpt>
      <trkpt lat="47.26579" lon="-0.43524">
        <ele>74.4</ele>
        <time>2020-08-02T07:54:16Z</time>
      </trkpt>
      <trkpt lat="47.26581" lon="-0.43543">
        <ele>74.4</ele>
        <time>2020-08-02T07:54:19Z</time>
      </trkpt>
      <trkpt lat="47.26581" lon="-0.43548">
        <ele>74.4</ele>
        <time>2020-08-02T07:54:20Z</time>
      </trkpt>
      <trkpt lat="47.26582" lon="-0.43553">
        <ele>74.4</ele>
        <time>2020-08-02T07:54:21Z</time>
      </trkpt>
      <trkpt lat="47.26582" lon="-0.43559">
        <ele>74.6</ele>
        <time>2020-08-02T07:54:22Z</time>
      </trkpt>
      <trkpt lat="47.26583" lon="-0.43566">
        <ele>74.6</ele>
        <time>2020-08-02T07:54:23Z</time>
      </trkpt>
      <trkpt lat="47.26583" lon="-0.43571">
        <ele>74.8</ele>
        <time>2020-08-02T07:54:24Z</time>
      </trkpt>
      <trkpt lat="47.26584" lon="-0.43577">
        <ele>75</ele>
        <time>2020-08-02T07:54:25Z</time>
      </trkpt>
      <trkpt lat="47.26584" lon="-0.43581">
        <ele>75.2</ele>
        <time>2020-08-02T07:54:26Z</time>
      </trkpt>
      <trkpt lat="47.26585" lon="-0.43587">
        <ele>75.2</ele>
        <time>2020-08-02T07:54:27Z</time>
      </trkpt>
      <trkpt lat="47.26586" lon="-0.43592">
        <ele>75.2</ele>
        <time>2020-08-02T07:54:28Z</time>
      </trkpt>
      <trkpt lat="47.26586" lon="-0.43599">
        <ele>75.2</ele>
        <time>2020-08-02T07:54:29Z</time>
      </trkpt>
      <trkpt lat="47.26586" lon="-0.43604">
        <ele>75.2</ele>
        <time>2020-08-02T07:54:30Z</time>
      </trkpt>
      <trkpt lat="47.26587" lon="-0.4361">
        <ele>75.4</ele>
        <time>2020-08-02T07:54:31Z</time>
      </trkpt>
      <trkpt lat="47.26588" lon="-0.43617">
        <ele>75.4</ele>
        <time>2020-08-02T07:54:32Z</time>
      </trkpt>
      <trkpt lat="47.26595" lon="-0.43675">
        <ele>75.8</ele>
        <time>2020-08-02T07:54:42Z</time>
      </trkpt>
      <trkpt lat="47.26596" lon="-0.43681">
        <ele>75.8</ele>
        <time>2020-08-02T07:54:43Z</time>
      </trkpt>
      <trkpt lat="47.26601" lon="-0.4372">
        <ele>75.8</ele>
        <time>2020-08-02T07:54:49Z</time>
      </trkpt>
      <trkpt lat="47.26601" lon="-0.43725">
        <ele>75.8</ele>
        <time>2020-08-02T07:54:50Z</time>
      </trkpt>
      <trkpt lat="47.26604" lon="-0.43745">
        <ele>75.8</ele>
        <time>2020-08-02T07:54:53Z</time>
      </trkpt>
      <trkpt lat="47.26605" lon="-0.4375">
        <ele>76</ele>
        <time>2020-08-02T07:54:54Z</time>
      </trkpt>
      <trkpt lat="47.26607" lon="-0.43772">
        <ele>76</ele>
        <time>2020-08-02T07:54:57Z</time>
      </trkpt>
      <trkpt lat="47.26611" lon="-0.4381">
        <ele>75.8</ele>
        <time>2020-08-02T07:55:03Z</time>
      </trkpt>
      <trkpt lat="47.26613" lon="-0.43831">
        <ele>75.8</ele>
        <time>2020-08-02T07:55:06Z</time>
      </trkpt>
      <trkpt lat="47.2662" lon="-0.43893">
        <ele>75.4</ele>
        <time>2020-08-02T07:55:15Z</time>
      </trkpt>
      <trkpt lat="47.2662" lon="-0.43899">
        <ele>75.4</ele>
        <time>2020-08-02T07:55:16Z</time>
      </trkpt>
      <trkpt lat="47.26621" lon="-0.43906">
        <ele>75.4</ele>
        <time>2020-08-02T07:55:17Z</time>
      </trkpt>
      <trkpt lat="47.26622" lon="-0.43911">
        <ele>75.4</ele>
        <time>2020-08-02T07:55:18Z</time>
      </trkpt>
      <trkpt lat="47.26623" lon="-0.43919">
        <ele>75.4</ele>
        <time>2020-08-02T07:55:19Z</time>
      </trkpt>
      <trkpt lat="47.26624" lon="-0.43925">
        <ele>75.4</ele>
        <time>2020-08-02T07:55:20Z</time>
      </trkpt>
      <trkpt lat="47.26625" lon="-0.43931">
        <ele>75.4</ele>
        <time>2020-08-02T07:55:21Z</time>
      </trkpt>
      <trkpt lat="47.26626" lon="-0.43936">
        <ele>75.4</ele>
        <time>2020-08-02T07:55:22Z</time>
      </trkpt>
      <trkpt lat="47.26627" lon="-0.43941">
        <ele>75.6</ele>
        <time>2020-08-02T07:55:23Z</time>
      </trkpt>
      <trkpt lat="47.26628" lon="-0.43947">
        <ele>75.4</ele>
        <time>2020-08-02T07:55:24Z</time>
      </trkpt>
      <trkpt lat="47.2663" lon="-0.43953">
        <ele>75.4</ele>
        <time>2020-08-02T07:55:25Z</time>
      </trkpt>
      <trkpt lat="47.26631" lon="-0.43961">
        <ele>75.4</ele>
        <time>2020-08-02T07:55:26Z</time>
      </trkpt>
      <trkpt lat="47.26632" lon="-0.43966">
        <ele>75.6</ele>
        <time>2020-08-02T07:55:27Z</time>
      </trkpt>
      <trkpt lat="47.26633" lon="-0.43973">
        <ele>75.6</ele>
        <time>2020-08-02T07:55:28Z</time>
      </trkpt>
      <trkpt lat="47.26634" lon="-0.43979">
        <ele>75.8</ele>
        <time>2020-08-02T07:55:29Z</time>
      </trkpt>
      <trkpt lat="47.26635" lon="-0.43985">
        <ele>76</ele>
        <time>2020-08-02T07:55:30Z</time>
      </trkpt>
      <trkpt lat="47.26636" lon="-0.43992">
        <ele>76</ele>
        <time>2020-08-02T07:55:31Z</time>
      </trkpt>
      <trkpt lat="47.26637" lon="-0.43996">
        <ele>76.2</ele>
        <time>2020-08-02T07:55:32Z</time>
      </trkpt>
      <trkpt lat="47.26638" lon="-0.44002">
        <ele>76.4</ele>
        <time>2020-08-02T07:55:33Z</time>
      </trkpt>
      <trkpt lat="47.26639" lon="-0.44008">
        <ele>76.6</ele>
        <time>2020-08-02T07:55:34Z</time>
      </trkpt>
      <trkpt lat="47.2664" lon="-0.44014">
        <ele>76.8</ele>
        <time>2020-08-02T07:55:35Z</time>
      </trkpt>
      <trkpt lat="47.26641" lon="-0.44018">
        <ele>76.8</ele>
        <time>2020-08-02T07:55:36Z</time>
      </trkpt>
      <trkpt lat="47.26642" lon="-0.44024">
        <ele>77</ele>
        <time>2020-08-02T07:55:37Z</time>
      </trkpt>
      <trkpt lat="47.26643" lon="-0.4403">
        <ele>77</ele>
        <time>2020-08-02T07:55:38Z</time>
      </trkpt>
      <trkpt lat="47.26644" lon="-0.44035">
        <ele>77.2</ele>
        <time>2020-08-02T07:55:39Z</time>
      </trkpt>
      <trkpt lat="47.26644" lon="-0.4404">
        <ele>77.2</ele>
        <time>2020-08-02T07:55:40Z</time>
      </trkpt>
      <trkpt lat="47.26645" lon="-0.44043">
        <ele>77.2</ele>
        <time>2020-08-02T07:55:41Z</time>
      </trkpt>
      <trkpt lat="47.26645" lon="-0.44046">
        <ele>77.4</ele>
        <time>2020-08-02T07:55:42Z</time>
      </trkpt>
      <trkpt lat="47.26647" lon="-0.44049">
        <ele>77.4</ele>
        <time>2020-08-02T07:55:43Z</time>
      </trkpt>
      <trkpt lat="47.26649" lon="-0.4405">
        <ele>77.6</ele>
        <time>2020-08-02T07:55:44Z</time>
      </trkpt>
      <trkpt lat="47.26651" lon="-0.4405">
        <ele>77.6</ele>
        <time>2020-08-02T07:55:45Z</time>
      </trkpt>
      <trkpt lat="47.26652" lon="-0.4405">
        <ele>77.6</ele>
        <time>2020-08-02T07:55:46Z</time>
      </trkpt>
      <trkpt lat="47.26654" lon="-0.44049">
        <ele>77.6</ele>
        <time>2020-08-02T07:55:47Z</time>
      </trkpt>
      <trkpt lat="47.26656" lon="-0.44048">
        <ele>77.6</ele>
        <time>2020-08-02T07:55:48Z</time>
      </trkpt>
      <trkpt lat="47.26658" lon="-0.44047">
        <ele>77.8</ele>
        <time>2020-08-02T07:55:49Z</time>
      </trkpt>
      <trkpt lat="47.2666" lon="-0.44046">
        <ele>77.8</ele>
        <time>2020-08-02T07:55:50Z</time>
      </trkpt>
      <trkpt lat="47.2667" lon="-0.44043">
        <ele>78</ele>
        <time>2020-08-02T07:55:53Z</time>
      </trkpt>
      <trkpt lat="47.26675" lon="-0.44041">
        <ele>78</ele>
        <time>2020-08-02T07:55:55Z</time>
      </trkpt>
      <trkpt lat="47.26678" lon="-0.4404">
        <ele>78</ele>
        <time>2020-08-02T07:55:56Z</time>
      </trkpt>
      <trkpt lat="47.26682" lon="-0.44039">
        <ele>78</ele>
        <time>2020-08-02T07:55:57Z</time>
      </trkpt>
      <trkpt lat="47.26686" lon="-0.44038">
        <ele>78</ele>
        <time>2020-08-02T07:55:58Z</time>
      </trkpt>
      <trkpt lat="47.26697" lon="-0.44034">
        <ele>78.2</ele>
        <time>2020-08-02T07:56:01Z</time>
      </trkpt>
      <trkpt lat="47.26701" lon="-0.44033">
        <ele>78.2</ele>
        <time>2020-08-02T07:56:02Z</time>
      </trkpt>
      <trkpt lat="47.26706" lon="-0.44032">
        <ele>78.2</ele>
        <time>2020-08-02T07:56:03Z</time>
      </trkpt>
      <trkpt lat="47.2674" lon="-0.44025">
        <ele>78.4</ele>
        <time>2020-08-02T07:56:11Z</time>
      </trkpt>
      <trkpt lat="47.26745" lon="-0.44024">
        <ele>78.4</ele>
        <time>2020-08-02T07:56:12Z</time>
      </trkpt>
      <trkpt lat="47.26749" lon="-0.44023">
        <ele>78.4</ele>
        <time>2020-08-02T07:56:13Z</time>
      </trkpt>
      <trkpt lat="47.26752" lon="-0.44023">
        <ele>78.4</ele>
        <time>2020-08-02T07:56:14Z</time>
      </trkpt>
      <trkpt lat="47.26766" lon="-0.44021">
        <ele>78.4</ele>
        <time>2020-08-02T07:56:17Z</time>
      </trkpt>
      <trkpt lat="47.26769" lon="-0.44021">
        <ele>78.4</ele>
        <time>2020-08-02T07:56:18Z</time>
      </trkpt>
      <trkpt lat="47.26774" lon="-0.4402">
        <ele>78.4</ele>
        <time>2020-08-02T07:56:19Z</time>
      </trkpt>
      <trkpt lat="47.26779" lon="-0.44019">
        <ele>78.4</ele>
        <time>2020-08-02T07:56:20Z</time>
      </trkpt>
      <trkpt lat="47.26783" lon="-0.44019">
        <ele>78.4</ele>
        <time>2020-08-02T07:56:21Z</time>
      </trkpt>
      <trkpt lat="47.26787" lon="-0.44018">
        <ele>78.4</ele>
        <time>2020-08-02T07:56:22Z</time>
      </trkpt>
      <trkpt lat="47.26791" lon="-0.44017">
        <ele>78.4</ele>
        <time>2020-08-02T07:56:23Z</time>
      </trkpt>
      <trkpt lat="47.26826" lon="-0.44009">
        <ele>78.8</ele>
        <time>2020-08-02T07:56:31Z</time>
      </trkpt>
      <trkpt lat="47.2683" lon="-0.44008">
        <ele>78.8</ele>
        <time>2020-08-02T07:56:32Z</time>
      </trkpt>
      <trkpt lat="47.26834" lon="-0.44007">
        <ele>78.8</ele>
        <time>2020-08-02T07:56:33Z</time>
      </trkpt>
      <trkpt lat="47.26839" lon="-0.44006">
        <ele>78.8</ele>
        <time>2020-08-02T07:56:34Z</time>
      </trkpt>
      <trkpt lat="47.26843" lon="-0.44004">
        <ele>78.8</ele>
        <time>2020-08-02T07:56:35Z</time>
      </trkpt>
      <trkpt lat="47.26847" lon="-0.44003">
        <ele>79</ele>
        <time>2020-08-02T07:56:36Z</time>
      </trkpt>
      <trkpt lat="47.26851" lon="-0.44001">
        <ele>79</ele>
        <time>2020-08-02T07:56:37Z</time>
      </trkpt>
      <trkpt lat="47.26859" lon="-0.43998">
        <ele>79.2</ele>
        <time>2020-08-02T07:56:39Z</time>
      </trkpt>
      <trkpt lat="47.26863" lon="-0.43997">
        <ele>79.2</ele>
        <time>2020-08-02T07:56:40Z</time>
      </trkpt>
      <trkpt lat="47.26866" lon="-0.43996">
        <ele>79.2</ele>
        <time>2020-08-02T07:56:41Z</time>
      </trkpt>
      <trkpt lat="47.2687" lon="-0.43994">
        <ele>79.2</ele>
        <time>2020-08-02T07:56:42Z</time>
      </trkpt>
      <trkpt lat="47.26875" lon="-0.43992">
        <ele>79.4</ele>
        <time>2020-08-02T07:56:43Z</time>
      </trkpt>
      <trkpt lat="47.26879" lon="-0.43991">
        <ele>79.4</ele>
        <time>2020-08-02T07:56:44Z</time>
      </trkpt>
      <trkpt lat="47.26883" lon="-0.43989">
        <ele>79.4</ele>
        <time>2020-08-02T07:56:45Z</time>
      </trkpt>
      <trkpt lat="47.26902" lon="-0.43982">
        <ele>79.6</ele>
        <time>2020-08-02T07:56:50Z</time>
      </trkpt>
      <trkpt lat="47.2691" lon="-0.43981">
        <ele>79.8</ele>
        <time>2020-08-02T07:56:52Z</time>
      </trkpt>
      <trkpt lat="47.26915" lon="-0.43981">
        <ele>79.6</ele>
        <time>2020-08-02T07:56:53Z</time>
      </trkpt>
      <trkpt lat="47.26919" lon="-0.43983">
        <ele>79.8</ele>
        <time>2020-08-02T07:56:54Z</time>
      </trkpt>
      <trkpt lat="47.26926" lon="-0.43986">
        <ele>79.8</ele>
        <time>2020-08-02T07:56:56Z</time>
      </trkpt>
      <trkpt lat="47.26931" lon="-0.4399">
        <ele>79.8</ele>
        <time>2020-08-02T07:56:57Z</time>
      </trkpt>
      <trkpt lat="47.26941" lon="-0.44001">
        <ele>80</ele>
        <time>2020-08-02T07:57:00Z</time>
      </trkpt>
      <trkpt lat="47.26944" lon="-0.44005">
        <ele>80.2</ele>
        <time>2020-08-02T07:57:01Z</time>
      </trkpt>
      <trkpt lat="47.26957" lon="-0.44022">
        <ele>80.2</ele>
        <time>2020-08-02T07:57:05Z</time>
      </trkpt>
      <trkpt lat="47.2696" lon="-0.44026">
        <ele>80.2</ele>
        <time>2020-08-02T07:57:06Z</time>
      </trkpt>
      <trkpt lat="47.26963" lon="-0.44031">
        <ele>80.2</ele>
        <time>2020-08-02T07:57:07Z</time>
      </trkpt>
      <trkpt lat="47.26966" lon="-0.44034">
        <ele>80.4</ele>
        <time>2020-08-02T07:57:08Z</time>
      </trkpt>
      <trkpt lat="47.26969" lon="-0.44037">
        <ele>80.4</ele>
        <time>2020-08-02T07:57:09Z</time>
      </trkpt>
      <trkpt lat="47.26971" lon="-0.44039">
        <ele>80.4</ele>
        <time>2020-08-02T07:57:10Z</time>
      </trkpt>
      <trkpt lat="47.26975" lon="-0.44042">
        <ele>80.6</ele>
        <time>2020-08-02T07:57:11Z</time>
      </trkpt>
      <trkpt lat="47.26977" lon="-0.44044">
        <ele>80.6</ele>
        <time>2020-08-02T07:57:12Z</time>
      </trkpt>
      <trkpt lat="47.2698" lon="-0.44048">
        <ele>80.6</ele>
        <time>2020-08-02T07:57:13Z</time>
      </trkpt>
      <trkpt lat="47.26982" lon="-0.4405">
        <ele>80.6</ele>
        <time>2020-08-02T07:57:14Z</time>
      </trkpt>
      <trkpt lat="47.26984" lon="-0.44053">
        <ele>80.8</ele>
        <time>2020-08-02T07:57:15Z</time>
      </trkpt>
      <trkpt lat="47.26986" lon="-0.44058">
        <ele>80.8</ele>
        <time>2020-08-02T07:57:16Z</time>
      </trkpt>
      <trkpt lat="47.26988" lon="-0.44066">
        <ele>81</ele>
        <time>2020-08-02T07:57:18Z</time>
      </trkpt>
      <trkpt lat="47.2699" lon="-0.44071">
        <ele>81.2</ele>
        <time>2020-08-02T07:57:19Z</time>
      </trkpt>
      <trkpt lat="47.26993" lon="-0.44075">
        <ele>81.2</ele>
        <time>2020-08-02T07:57:20Z</time>
      </trkpt>
      <trkpt lat="47.26997" lon="-0.44078">
        <ele>81.2</ele>
        <time>2020-08-02T07:57:21Z</time>
      </trkpt>
      <trkpt lat="47.27" lon="-0.4408">
        <ele>81.4</ele>
        <time>2020-08-02T07:57:22Z</time>
      </trkpt>
      <trkpt lat="47.27004" lon="-0.44081">
        <ele>81.4</ele>
        <time>2020-08-02T07:57:23Z</time>
      </trkpt>
      <trkpt lat="47.27007" lon="-0.44082">
        <ele>81.4</ele>
        <time>2020-08-02T07:57:24Z</time>
      </trkpt>
      <trkpt lat="47.27012" lon="-0.44082">
        <ele>81.4</ele>
        <time>2020-08-02T07:57:25Z</time>
      </trkpt>
      <trkpt lat="47.27016" lon="-0.44082">
        <ele>81.6</ele>
        <time>2020-08-02T07:57:26Z</time>
      </trkpt>
      <trkpt lat="47.27019" lon="-0.44081">
        <ele>81.6</ele>
        <time>2020-08-02T07:57:27Z</time>
      </trkpt>
      <trkpt lat="47.27034" lon="-0.44078">
        <ele>81.6</ele>
        <time>2020-08-02T07:57:31Z</time>
      </trkpt>
      <trkpt lat="47.27052" lon="-0.44075">
        <ele>81.6</ele>
        <time>2020-08-02T07:57:35Z</time>
      </trkpt>
      <trkpt lat="47.27095" lon="-0.44068">
        <ele>81.6</ele>
        <time>2020-08-02T07:57:45Z</time>
      </trkpt>
      <trkpt lat="47.27103" lon="-0.44067">
        <ele>81.6</ele>
        <time>2020-08-02T07:57:47Z</time>
      </trkpt>
      <trkpt lat="47.27116" lon="-0.44065">
        <ele>81.6</ele>
        <time>2020-08-02T07:57:50Z</time>
      </trkpt>
      <trkpt lat="47.27121" lon="-0.44065">
        <ele>81.6</ele>
        <time>2020-08-02T07:57:51Z</time>
      </trkpt>
      <trkpt lat="47.27125" lon="-0.44065">
        <ele>81.6</ele>
        <time>2020-08-02T07:57:52Z</time>
      </trkpt>
      <trkpt lat="47.27129" lon="-0.44064">
        <ele>81.4</ele>
        <time>2020-08-02T07:57:53Z</time>
      </trkpt>
      <trkpt lat="47.27166" lon="-0.44053">
        <ele>81.4</ele>
        <time>2020-08-02T07:58:01Z</time>
      </trkpt>
      <trkpt lat="47.2717" lon="-0.44051">
        <ele>81.4</ele>
        <time>2020-08-02T07:58:02Z</time>
      </trkpt>
      <trkpt lat="47.27184" lon="-0.44044">
        <ele>81.2</ele>
        <time>2020-08-02T07:58:05Z</time>
      </trkpt>
      <trkpt lat="47.27187" lon="-0.44042">
        <ele>81.2</ele>
        <time>2020-08-02T07:58:06Z</time>
      </trkpt>
      <trkpt lat="47.27192" lon="-0.44039">
        <ele>81.2</ele>
        <time>2020-08-02T07:58:07Z</time>
      </trkpt>
      <trkpt lat="47.27197" lon="-0.44037">
        <ele>81.2</ele>
        <time>2020-08-02T07:58:08Z</time>
      </trkpt>
      <trkpt lat="47.27201" lon="-0.44034">
        <ele>81</ele>
        <time>2020-08-02T07:58:09Z</time>
      </trkpt>
      <trkpt lat="47.27204" lon="-0.44032">
        <ele>81</ele>
        <time>2020-08-02T07:58:10Z</time>
      </trkpt>
      <trkpt lat="47.27218" lon="-0.44025">
        <ele>80.8</ele>
        <time>2020-08-02T07:58:13Z</time>
      </trkpt>
      <trkpt lat="47.27236" lon="-0.44013">
        <ele>80.4</ele>
        <time>2020-08-02T07:58:17Z</time>
      </trkpt>
      <trkpt lat="47.27259" lon="-0.43998">
        <ele>80.2</ele>
        <time>2020-08-02T07:58:22Z</time>
      </trkpt>
      <trkpt lat="47.27271" lon="-0.43989">
        <ele>80.2</ele>
        <time>2020-08-02T07:58:25Z</time>
      </trkpt>
      <trkpt lat="47.27275" lon="-0.43984">
        <ele>80</ele>
        <time>2020-08-02T07:58:26Z</time>
      </trkpt>
      <trkpt lat="47.27279" lon="-0.4398">
        <ele>80</ele>
        <time>2020-08-02T07:58:27Z</time>
      </trkpt>
      <trkpt lat="47.27287" lon="-0.43973">
        <ele>80</ele>
        <time>2020-08-02T07:58:29Z</time>
      </trkpt>
      <trkpt lat="47.2729" lon="-0.43969">
        <ele>80</ele>
        <time>2020-08-02T07:58:30Z</time>
      </trkpt>
      <trkpt lat="47.27294" lon="-0.43965">
        <ele>79.8</ele>
        <time>2020-08-02T07:58:31Z</time>
      </trkpt>
      <trkpt lat="47.27299" lon="-0.4396">
        <ele>79.8</ele>
        <time>2020-08-02T07:58:32Z</time>
      </trkpt>
      <trkpt lat="47.27303" lon="-0.43956">
        <ele>79.8</ele>
        <time>2020-08-02T07:58:33Z</time>
      </trkpt>
      <trkpt lat="47.27306" lon="-0.43953">
        <ele>79.8</ele>
        <time>2020-08-02T07:58:34Z</time>
      </trkpt>
      <trkpt lat="47.2731" lon="-0.43948">
        <ele>79.8</ele>
        <time>2020-08-02T07:58:35Z</time>
      </trkpt>
      <trkpt lat="47.27314" lon="-0.43945">
        <ele>79.8</ele>
        <time>2020-08-02T07:58:36Z</time>
      </trkpt>
      <trkpt lat="47.27318" lon="-0.43941">
        <ele>79.6</ele>
        <time>2020-08-02T07:58:37Z</time>
      </trkpt>
      <trkpt lat="47.27322" lon="-0.43937">
        <ele>79.8</ele>
        <time>2020-08-02T07:58:38Z</time>
      </trkpt>
      <trkpt lat="47.27326" lon="-0.43933">
        <ele>79.8</ele>
        <time>2020-08-02T07:58:39Z</time>
      </trkpt>
      <trkpt lat="47.2733" lon="-0.43929">
        <ele>79.8</ele>
        <time>2020-08-02T07:58:40Z</time>
      </trkpt>
      <trkpt lat="47.27334" lon="-0.43926">
        <ele>79.8</ele>
        <time>2020-08-02T07:58:41Z</time>
      </trkpt>
      <trkpt lat="47.27338" lon="-0.43922">
        <ele>79.8</ele>
        <time>2020-08-02T07:58:42Z</time>
      </trkpt>
      <trkpt lat="47.27341" lon="-0.4392">
        <ele>80</ele>
        <time>2020-08-02T07:58:43Z</time>
      </trkpt>
      <trkpt lat="47.27345" lon="-0.43917">
        <ele>80</ele>
        <time>2020-08-02T07:58:44Z</time>
      </trkpt>
      <trkpt lat="47.27351" lon="-0.43913">
        <ele>80</ele>
        <time>2020-08-02T07:58:45Z</time>
      </trkpt>
      <trkpt lat="47.27355" lon="-0.43911">
        <ele>80</ele>
        <time>2020-08-02T07:58:46Z</time>
      </trkpt>
      <trkpt lat="47.27359" lon="-0.43908">
        <ele>79.8</ele>
        <time>2020-08-02T07:58:47Z</time>
      </trkpt>
      <trkpt lat="47.27363" lon="-0.43906">
        <ele>79.8</ele>
        <time>2020-08-02T07:58:48Z</time>
      </trkpt>
      <trkpt lat="47.27368" lon="-0.43903">
        <ele>79.8</ele>
        <time>2020-08-02T07:58:49Z</time>
      </trkpt>
      <trkpt lat="47.27372" lon="-0.439">
        <ele>79.8</ele>
        <time>2020-08-02T07:58:50Z</time>
      </trkpt>
      <trkpt lat="47.27376" lon="-0.43898">
        <ele>79.8</ele>
        <time>2020-08-02T07:58:51Z</time>
      </trkpt>
      <trkpt lat="47.27384" lon="-0.43893">
        <ele>79.8</ele>
        <time>2020-08-02T07:58:53Z</time>
      </trkpt>
      <trkpt lat="47.27389" lon="-0.4389">
        <ele>79.8</ele>
        <time>2020-08-02T07:58:54Z</time>
      </trkpt>
      <trkpt lat="47.27393" lon="-0.43888">
        <ele>79.8</ele>
        <time>2020-08-02T07:58:55Z</time>
      </trkpt>
      <trkpt lat="47.27397" lon="-0.43885">
        <ele>79.8</ele>
        <time>2020-08-02T07:58:56Z</time>
      </trkpt>
      <trkpt lat="47.274" lon="-0.43883">
        <ele>79.6</ele>
        <time>2020-08-02T07:58:57Z</time>
      </trkpt>
      <trkpt lat="47.27404" lon="-0.43881">
        <ele>79.6</ele>
        <time>2020-08-02T07:58:58Z</time>
      </trkpt>
      <trkpt lat="47.27414" lon="-0.43875">
        <ele>79.6</ele>
        <time>2020-08-02T07:59:00Z</time>
      </trkpt>
      <trkpt lat="47.27418" lon="-0.43872">
        <ele>79.8</ele>
        <time>2020-08-02T07:59:01Z</time>
      </trkpt>
      <trkpt lat="47.27421" lon="-0.4387">
        <ele>79.8</ele>
        <time>2020-08-02T07:59:02Z</time>
      </trkpt>
      <trkpt lat="47.27426" lon="-0.43867">
        <ele>79.8</ele>
        <time>2020-08-02T07:59:03Z</time>
      </trkpt>
      <trkpt lat="47.27431" lon="-0.43864">
        <ele>79.8</ele>
        <time>2020-08-02T07:59:04Z</time>
      </trkpt>
      <trkpt lat="47.27435" lon="-0.43862">
        <ele>79.8</ele>
        <time>2020-08-02T07:59:05Z</time>
      </trkpt>
      <trkpt lat="47.27438" lon="-0.4386">
        <ele>80</ele>
        <time>2020-08-02T07:59:06Z</time>
      </trkpt>
      <trkpt lat="47.27442" lon="-0.43857">
        <ele>80.2</ele>
        <time>2020-08-02T07:59:07Z</time>
      </trkpt>
      <trkpt lat="47.27447" lon="-0.43854">
        <ele>80.2</ele>
        <time>2020-08-02T07:59:08Z</time>
      </trkpt>
      <trkpt lat="47.27451" lon="-0.43852">
        <ele>80.2</ele>
        <time>2020-08-02T07:59:09Z</time>
      </trkpt>
      <trkpt lat="47.27455" lon="-0.4385">
        <ele>80.2</ele>
        <time>2020-08-02T07:59:10Z</time>
      </trkpt>
      <trkpt lat="47.27458" lon="-0.43848">
        <ele>80.2</ele>
        <time>2020-08-02T07:59:11Z</time>
      </trkpt>
      <trkpt lat="47.27463" lon="-0.43846">
        <ele>80.4</ele>
        <time>2020-08-02T07:59:12Z</time>
      </trkpt>
      <trkpt lat="47.27467" lon="-0.43843">
        <ele>80.4</ele>
        <time>2020-08-02T07:59:13Z</time>
      </trkpt>
      <trkpt lat="47.27471" lon="-0.43841">
        <ele>80.4</ele>
        <time>2020-08-02T07:59:14Z</time>
      </trkpt>
      <trkpt lat="47.27475" lon="-0.4384">
        <ele>80.4</ele>
        <time>2020-08-02T07:59:15Z</time>
      </trkpt>
      <trkpt lat="47.27479" lon="-0.43837">
        <ele>80.4</ele>
        <time>2020-08-02T07:59:16Z</time>
      </trkpt>
      <trkpt lat="47.27484" lon="-0.43835">
        <ele>80.4</ele>
        <time>2020-08-02T07:59:17Z</time>
      </trkpt>
      <trkpt lat="47.27488" lon="-0.43832">
        <ele>80.4</ele>
        <time>2020-08-02T07:59:18Z</time>
      </trkpt>
      <trkpt lat="47.27493" lon="-0.4383">
        <ele>80.6</ele>
        <time>2020-08-02T07:59:19Z</time>
      </trkpt>
      <trkpt lat="47.27496" lon="-0.43829">
        <ele>80.6</ele>
        <time>2020-08-02T07:59:20Z</time>
      </trkpt>
      <trkpt lat="47.275" lon="-0.43827">
        <ele>81</ele>
        <time>2020-08-02T07:59:21Z</time>
      </trkpt>
      <trkpt lat="47.27505" lon="-0.43825">
        <ele>81</ele>
        <time>2020-08-02T07:59:22Z</time>
      </trkpt>
      <trkpt lat="47.27509" lon="-0.43824">
        <ele>81</ele>
        <time>2020-08-02T07:59:23Z</time>
      </trkpt>
      <trkpt lat="47.27522" lon="-0.4382">
        <ele>81</ele>
        <time>2020-08-02T07:59:26Z</time>
      </trkpt>
      <trkpt lat="47.27526" lon="-0.43818">
        <ele>81</ele>
        <time>2020-08-02T07:59:27Z</time>
      </trkpt>
      <trkpt lat="47.2753" lon="-0.43817">
        <ele>81</ele>
        <time>2020-08-02T07:59:28Z</time>
      </trkpt>
      <trkpt lat="47.27534" lon="-0.43816">
        <ele>81</ele>
        <time>2020-08-02T07:59:29Z</time>
      </trkpt>
      <trkpt lat="47.27538" lon="-0.43815">
        <ele>81</ele>
        <time>2020-08-02T07:59:30Z</time>
      </trkpt>
      <trkpt lat="47.27542" lon="-0.43815">
        <ele>81</ele>
        <time>2020-08-02T07:59:31Z</time>
      </trkpt>
      <trkpt lat="47.27547" lon="-0.43813">
        <ele>81</ele>
        <time>2020-08-02T07:59:32Z</time>
      </trkpt>
      <trkpt lat="47.2755" lon="-0.43811">
        <ele>81.4</ele>
        <time>2020-08-02T07:59:33Z</time>
      </trkpt>
      <trkpt lat="47.27553" lon="-0.4381">
        <ele>81.6</ele>
        <time>2020-08-02T07:59:34Z</time>
      </trkpt>
      <trkpt lat="47.27558" lon="-0.43809">
        <ele>81.8</ele>
        <time>2020-08-02T07:59:35Z</time>
      </trkpt>
      <trkpt lat="47.27562" lon="-0.43808">
        <ele>81.8</ele>
        <time>2020-08-02T07:59:36Z</time>
      </trkpt>
      <trkpt lat="47.27565" lon="-0.43806">
        <ele>82</ele>
        <time>2020-08-02T07:59:37Z</time>
      </trkpt>
      <trkpt lat="47.27568" lon="-0.43805">
        <ele>82</ele>
        <time>2020-08-02T07:59:38Z</time>
      </trkpt>
      <trkpt lat="47.27572" lon="-0.43803">
        <ele>82.2</ele>
        <time>2020-08-02T07:59:39Z</time>
      </trkpt>
      <trkpt lat="47.27576" lon="-0.43801">
        <ele>82.2</ele>
        <time>2020-08-02T07:59:40Z</time>
      </trkpt>
      <trkpt lat="47.2758" lon="-0.43799">
        <ele>82.2</ele>
        <time>2020-08-02T07:59:41Z</time>
      </trkpt>
      <trkpt lat="47.27584" lon="-0.43798">
        <ele>82.2</ele>
        <time>2020-08-02T07:59:42Z</time>
      </trkpt>
      <trkpt lat="47.27587" lon="-0.43796">
        <ele>82.4</ele>
        <time>2020-08-02T07:59:43Z</time>
      </trkpt>
      <trkpt lat="47.27591" lon="-0.43795">
        <ele>82.4</ele>
        <time>2020-08-02T07:59:44Z</time>
      </trkpt>
      <trkpt lat="47.27595" lon="-0.43793">
        <ele>82.4</ele>
        <time>2020-08-02T07:59:45Z</time>
      </trkpt>
      <trkpt lat="47.27623" lon="-0.43778">
        <ele>82.4</ele>
        <time>2020-08-02T07:59:52Z</time>
      </trkpt>
      <trkpt lat="47.27651" lon="-0.43763">
        <ele>82.8</ele>
        <time>2020-08-02T07:59:59Z</time>
      </trkpt>
      <trkpt lat="47.27666" lon="-0.43756">
        <ele>82.8</ele>
        <time>2020-08-02T08:00:03Z</time>
      </trkpt>
      <trkpt lat="47.27674" lon="-0.43751">
        <ele>82.6</ele>
        <time>2020-08-02T08:00:05Z</time>
      </trkpt>
      <trkpt lat="47.27686" lon="-0.43745">
        <ele>82.6</ele>
        <time>2020-08-02T08:00:08Z</time>
      </trkpt>
      <trkpt lat="47.27698" lon="-0.43739">
        <ele>82.4</ele>
        <time>2020-08-02T08:00:11Z</time>
      </trkpt>
      <trkpt lat="47.27732" lon="-0.43723">
        <ele>82.4</ele>
        <time>2020-08-02T08:00:19Z</time>
      </trkpt>
      <trkpt lat="47.27735" lon="-0.43722">
        <ele>82.4</ele>
        <time>2020-08-02T08:00:20Z</time>
      </trkpt>
      <trkpt lat="47.27739" lon="-0.43721">
        <ele>82.4</ele>
        <time>2020-08-02T08:00:21Z</time>
      </trkpt>
      <trkpt lat="47.27743" lon="-0.4372">
        <ele>82.4</ele>
        <time>2020-08-02T08:00:22Z</time>
      </trkpt>
      <trkpt lat="47.27746" lon="-0.43719">
        <ele>82.4</ele>
        <time>2020-08-02T08:00:23Z</time>
      </trkpt>
      <trkpt lat="47.2775" lon="-0.43718">
        <ele>82.4</ele>
        <time>2020-08-02T08:00:24Z</time>
      </trkpt>
      <trkpt lat="47.27753" lon="-0.43716">
        <ele>82.4</ele>
        <time>2020-08-02T08:00:25Z</time>
      </trkpt>
      <trkpt lat="47.27757" lon="-0.43714">
        <ele>82.4</ele>
        <time>2020-08-02T08:00:26Z</time>
      </trkpt>
      <trkpt lat="47.27762" lon="-0.43711">
        <ele>82.4</ele>
        <time>2020-08-02T08:00:27Z</time>
      </trkpt>
      <trkpt lat="47.27765" lon="-0.43705">
        <ele>82.4</ele>
        <time>2020-08-02T08:00:28Z</time>
      </trkpt>
      <trkpt lat="47.27766" lon="-0.437">
        <ele>82.2</ele>
        <time>2020-08-02T08:00:29Z</time>
      </trkpt>
      <trkpt lat="47.27767" lon="-0.43696">
        <ele>82.2</ele>
        <time>2020-08-02T08:00:30Z</time>
      </trkpt>
      <trkpt lat="47.27766" lon="-0.4369">
        <ele>82.2</ele>
        <time>2020-08-02T08:00:31Z</time>
      </trkpt>
      <trkpt lat="47.27765" lon="-0.43684">
        <ele>82.2</ele>
        <time>2020-08-02T08:00:32Z</time>
      </trkpt>
      <trkpt lat="47.27764" lon="-0.43679">
        <ele>82.2</ele>
        <time>2020-08-02T08:00:33Z</time>
      </trkpt>
      <trkpt lat="47.27764" lon="-0.43674">
        <ele>82.2</ele>
        <time>2020-08-02T08:00:34Z</time>
      </trkpt>
      <trkpt lat="47.2776" lon="-0.43655">
        <ele>82.2</ele>
        <time>2020-08-02T08:00:37Z</time>
      </trkpt>
      <trkpt lat="47.27759" lon="-0.43649">
        <ele>82.2</ele>
        <time>2020-08-02T08:00:38Z</time>
      </trkpt>
      <trkpt lat="47.27756" lon="-0.43622">
        <ele>82.4</ele>
        <time>2020-08-02T08:00:42Z</time>
      </trkpt>
      <trkpt lat="47.27753" lon="-0.43597">
        <ele>82.6</ele>
        <time>2020-08-02T08:00:46Z</time>
      </trkpt>
      <trkpt lat="47.27752" lon="-0.4359">
        <ele>82.6</ele>
        <time>2020-08-02T08:00:47Z</time>
      </trkpt>
      <trkpt lat="47.27748" lon="-0.43563">
        <ele>83</ele>
        <time>2020-08-02T08:00:51Z</time>
      </trkpt>
      <trkpt lat="47.27744" lon="-0.43537">
        <ele>83.2</ele>
        <time>2020-08-02T08:00:55Z</time>
      </trkpt>
      <trkpt lat="47.27743" lon="-0.43531">
        <ele>83.2</ele>
        <time>2020-08-02T08:00:56Z</time>
      </trkpt>
      <trkpt lat="47.27741" lon="-0.43511">
        <ele>83.4</ele>
        <time>2020-08-02T08:00:59Z</time>
      </trkpt>
      <trkpt lat="47.2774" lon="-0.43504">
        <ele>83.6</ele>
        <time>2020-08-02T08:01:00Z</time>
      </trkpt>
      <trkpt lat="47.27739" lon="-0.43497">
        <ele>83.6</ele>
        <time>2020-08-02T08:01:01Z</time>
      </trkpt>
      <trkpt lat="47.27736" lon="-0.43471">
        <ele>83.8</ele>
        <time>2020-08-02T08:01:05Z</time>
      </trkpt>
      <trkpt lat="47.27734" lon="-0.4346">
        <ele>83.8</ele>
        <time>2020-08-02T08:01:07Z</time>
      </trkpt>
      <trkpt lat="47.27734" lon="-0.43452">
        <ele>83.8</ele>
        <time>2020-08-02T08:01:08Z</time>
      </trkpt>
      <trkpt lat="47.27733" lon="-0.43446">
        <ele>83.8</ele>
        <time>2020-08-02T08:01:09Z</time>
      </trkpt>
      <trkpt lat="47.27732" lon="-0.4344">
        <ele>83.8</ele>
        <time>2020-08-02T08:01:10Z</time>
      </trkpt>
      <trkpt lat="47.27732" lon="-0.43435">
        <ele>83.8</ele>
        <time>2020-08-02T08:01:11Z</time>
      </trkpt>
      <trkpt lat="47.27731" lon="-0.43429">
        <ele>84</ele>
        <time>2020-08-02T08:01:12Z</time>
      </trkpt>
      <trkpt lat="47.27731" lon="-0.43421">
        <ele>84</ele>
        <time>2020-08-02T08:01:13Z</time>
      </trkpt>
      <trkpt lat="47.2773" lon="-0.43415">
        <ele>84</ele>
        <time>2020-08-02T08:01:14Z</time>
      </trkpt>
      <trkpt lat="47.2773" lon="-0.43408">
        <ele>84</ele>
        <time>2020-08-02T08:01:15Z</time>
      </trkpt>
      <trkpt lat="47.2773" lon="-0.43403">
        <ele>84</ele>
        <time>2020-08-02T08:01:16Z</time>
      </trkpt>
      <trkpt lat="47.2773" lon="-0.43395">
        <ele>84</ele>
        <time>2020-08-02T08:01:17Z</time>
      </trkpt>
      <trkpt lat="47.27729" lon="-0.43357">
        <ele>83.6</ele>
        <time>2020-08-02T08:01:23Z</time>
      </trkpt>
      <trkpt lat="47.27729" lon="-0.43351">
        <ele>83.4</ele>
        <time>2020-08-02T08:01:24Z</time>
      </trkpt>
      <trkpt lat="47.27728" lon="-0.43344">
        <ele>83.4</ele>
        <time>2020-08-02T08:01:25Z</time>
      </trkpt>
      <trkpt lat="47.27727" lon="-0.43329">
        <ele>83.4</ele>
        <time>2020-08-02T08:01:27Z</time>
      </trkpt>
      <trkpt lat="47.27726" lon="-0.4331">
        <ele>83.2</ele>
        <time>2020-08-02T08:01:30Z</time>
      </trkpt>
      <trkpt lat="47.27725" lon="-0.43296">
        <ele>83.2</ele>
        <time>2020-08-02T08:01:32Z</time>
      </trkpt>
      <trkpt lat="47.27723" lon="-0.4327">
        <ele>83</ele>
        <time>2020-08-02T08:01:36Z</time>
      </trkpt>
      <trkpt lat="47.27723" lon="-0.43263">
        <ele>83</ele>
        <time>2020-08-02T08:01:37Z</time>
      </trkpt>
      <trkpt lat="47.27722" lon="-0.43258">
        <ele>83</ele>
        <time>2020-08-02T08:01:38Z</time>
      </trkpt>
      <trkpt lat="47.27722" lon="-0.43252">
        <ele>83</ele>
        <time>2020-08-02T08:01:39Z</time>
      </trkpt>
      <trkpt lat="47.27721" lon="-0.43247">
        <ele>83</ele>
        <time>2020-08-02T08:01:40Z</time>
      </trkpt>
      <trkpt lat="47.27721" lon="-0.4324">
        <ele>83</ele>
        <time>2020-08-02T08:01:41Z</time>
      </trkpt>
      <trkpt lat="47.27721" lon="-0.43234">
        <ele>83</ele>
        <time>2020-08-02T08:01:42Z</time>
      </trkpt>
      <trkpt lat="47.27721" lon="-0.43229">
        <ele>82.8</ele>
        <time>2020-08-02T08:01:43Z</time>
      </trkpt>
      <trkpt lat="47.27721" lon="-0.43224">
        <ele>82.8</ele>
        <time>2020-08-02T08:01:44Z</time>
      </trkpt>
      <trkpt lat="47.27723" lon="-0.43219">
        <ele>82.8</ele>
        <time>2020-08-02T08:01:45Z</time>
      </trkpt>
      <trkpt lat="47.27726" lon="-0.43215">
        <ele>82.8</ele>
        <time>2020-08-02T08:01:46Z</time>
      </trkpt>
      <trkpt lat="47.27731" lon="-0.43213">
        <ele>82.6</ele>
        <time>2020-08-02T08:01:47Z</time>
      </trkpt>
      <trkpt lat="47.27734" lon="-0.43213">
        <ele>82.6</ele>
        <time>2020-08-02T08:01:48Z</time>
      </trkpt>
      <trkpt lat="47.27739" lon="-0.43214">
        <ele>82.6</ele>
        <time>2020-08-02T08:01:49Z</time>
      </trkpt>
      <trkpt lat="47.27743" lon="-0.43215">
        <ele>82.4</ele>
        <time>2020-08-02T08:01:50Z</time>
      </trkpt>
      <trkpt lat="47.27748" lon="-0.43216">
        <ele>82.4</ele>
        <time>2020-08-02T08:01:51Z</time>
      </trkpt>
      <trkpt lat="47.27753" lon="-0.43218">
        <ele>82.4</ele>
        <time>2020-08-02T08:01:52Z</time>
      </trkpt>
      <trkpt lat="47.27757" lon="-0.4322">
        <ele>82.4</ele>
        <time>2020-08-02T08:01:53Z</time>
      </trkpt>
      <trkpt lat="47.27766" lon="-0.43225">
        <ele>82.4</ele>
        <time>2020-08-02T08:01:55Z</time>
      </trkpt>
      <trkpt lat="47.27782" lon="-0.43237">
        <ele>82.2</ele>
        <time>2020-08-02T08:01:59Z</time>
      </trkpt>
      <trkpt lat="47.27785" lon="-0.43241">
        <ele>82.2</ele>
        <time>2020-08-02T08:02:00Z</time>
      </trkpt>
      <trkpt lat="47.27789" lon="-0.43245">
        <ele>82.2</ele>
        <time>2020-08-02T08:02:01Z</time>
      </trkpt>
      <trkpt lat="47.27793" lon="-0.43249">
        <ele>82</ele>
        <time>2020-08-02T08:02:02Z</time>
      </trkpt>
      <trkpt lat="47.278" lon="-0.43255">
        <ele>82</ele>
        <time>2020-08-02T08:02:04Z</time>
      </trkpt>
      <trkpt lat="47.27809" lon="-0.43263">
        <ele>82</ele>
        <time>2020-08-02T08:02:06Z</time>
      </trkpt>
      <trkpt lat="47.27811" lon="-0.43265">
        <ele>81.8</ele>
        <time>2020-08-02T08:02:07Z</time>
      </trkpt>
      <trkpt lat="47.27815" lon="-0.43268">
        <ele>81.8</ele>
        <time>2020-08-02T08:02:08Z</time>
      </trkpt>
      <trkpt lat="47.27819" lon="-0.43271">
        <ele>81.8</ele>
        <time>2020-08-02T08:02:09Z</time>
      </trkpt>
      <trkpt lat="47.27821" lon="-0.43273">
        <ele>81.8</ele>
        <time>2020-08-02T08:02:10Z</time>
      </trkpt>
      <trkpt lat="47.27825" lon="-0.43277">
        <ele>81.8</ele>
        <time>2020-08-02T08:02:11Z</time>
      </trkpt>
      <trkpt lat="47.27829" lon="-0.4328">
        <ele>81.6</ele>
        <time>2020-08-02T08:02:12Z</time>
      </trkpt>
      <trkpt lat="47.27832" lon="-0.43284">
        <ele>81.6</ele>
        <time>2020-08-02T08:02:13Z</time>
      </trkpt>
      <trkpt lat="47.27837" lon="-0.43288">
        <ele>81.6</ele>
        <time>2020-08-02T08:02:14Z</time>
      </trkpt>
      <trkpt lat="47.27841" lon="-0.43291">
        <ele>81.6</ele>
        <time>2020-08-02T08:02:15Z</time>
      </trkpt>
      <trkpt lat="47.27844" lon="-0.43293">
        <ele>81.6</ele>
        <time>2020-08-02T08:02:16Z</time>
      </trkpt>
      <trkpt lat="47.27848" lon="-0.43296">
        <ele>81.6</ele>
        <time>2020-08-02T08:02:17Z</time>
      </trkpt>
      <trkpt lat="47.27879" lon="-0.43319">
        <ele>81.2</ele>
        <time>2020-08-02T08:02:24Z</time>
      </trkpt>
      <trkpt lat="47.279" lon="-0.43334">
        <ele>80.8</ele>
        <time>2020-08-02T08:02:29Z</time>
      </trkpt>
      <trkpt lat="47.27906" lon="-0.43337">
        <ele>80.8</ele>
        <time>2020-08-02T08:02:30Z</time>
      </trkpt>
      <trkpt lat="47.27909" lon="-0.4334">
        <ele>80.6</ele>
        <time>2020-08-02T08:02:31Z</time>
      </trkpt>
      <trkpt lat="47.27913" lon="-0.43342">
        <ele>80.6</ele>
        <time>2020-08-02T08:02:32Z</time>
      </trkpt>
      <trkpt lat="47.27919" lon="-0.43344">
        <ele>80.6</ele>
        <time>2020-08-02T08:02:33Z</time>
      </trkpt>
      <trkpt lat="47.27928" lon="-0.43347">
        <ele>80.4</ele>
        <time>2020-08-02T08:02:35Z</time>
      </trkpt>
      <trkpt lat="47.27964" lon="-0.43351">
        <ele>80</ele>
        <time>2020-08-02T08:02:43Z</time>
      </trkpt>
      <trkpt lat="47.27969" lon="-0.43351">
        <ele>79.8</ele>
        <time>2020-08-02T08:02:44Z</time>
      </trkpt>
      <trkpt lat="47.27977" lon="-0.4335">
        <ele>79.8</ele>
        <time>2020-08-02T08:02:46Z</time>
      </trkpt>
      <trkpt lat="47.27982" lon="-0.4335">
        <ele>79.8</ele>
        <time>2020-08-02T08:02:47Z</time>
      </trkpt>
      <trkpt lat="47.27987" lon="-0.43349">
        <ele>79.8</ele>
        <time>2020-08-02T08:02:48Z</time>
      </trkpt>
      <trkpt lat="47.28001" lon="-0.43347">
        <ele>79.6</ele>
        <time>2020-08-02T08:02:51Z</time>
      </trkpt>
      <trkpt lat="47.28005" lon="-0.43346">
        <ele>79.6</ele>
        <time>2020-08-02T08:02:52Z</time>
      </trkpt>
      <trkpt lat="47.2801" lon="-0.43345">
        <ele>79.6</ele>
        <time>2020-08-02T08:02:53Z</time>
      </trkpt>
      <trkpt lat="47.28015" lon="-0.43345">
        <ele>79.6</ele>
        <time>2020-08-02T08:02:54Z</time>
      </trkpt>
      <trkpt lat="47.2802" lon="-0.43344">
        <ele>79.6</ele>
        <time>2020-08-02T08:02:55Z</time>
      </trkpt>
      <trkpt lat="47.28039" lon="-0.43342">
        <ele>79.4</ele>
        <time>2020-08-02T08:02:59Z</time>
      </trkpt>
      <trkpt lat="47.28044" lon="-0.43342">
        <ele>79.2</ele>
        <time>2020-08-02T08:03:00Z</time>
      </trkpt>
      <trkpt lat="47.28055" lon="-0.43341">
        <ele>79</ele>
        <time>2020-08-02T08:03:02Z</time>
      </trkpt>
      <trkpt lat="47.2808" lon="-0.43339">
        <ele>78.6</ele>
        <time>2020-08-02T08:03:07Z</time>
      </trkpt>
      <trkpt lat="47.28084" lon="-0.43339">
        <ele>78.6</ele>
        <time>2020-08-02T08:03:08Z</time>
      </trkpt>
      <trkpt lat="47.28098" lon="-0.43338">
        <ele>78.2</ele>
        <time>2020-08-02T08:03:11Z</time>
      </trkpt>
      <trkpt lat="47.28102" lon="-0.43338">
        <ele>78</ele>
        <time>2020-08-02T08:03:12Z</time>
      </trkpt>
      <trkpt lat="47.28107" lon="-0.43338">
        <ele>78</ele>
        <time>2020-08-02T08:03:13Z</time>
      </trkpt>
      <trkpt lat="47.28112" lon="-0.43337">
        <ele>77.8</ele>
        <time>2020-08-02T08:03:14Z</time>
      </trkpt>
      <trkpt lat="47.28117" lon="-0.43337">
        <ele>77.8</ele>
        <time>2020-08-02T08:03:15Z</time>
      </trkpt>
      <trkpt lat="47.28122" lon="-0.43336">
        <ele>77.6</ele>
        <time>2020-08-02T08:03:16Z</time>
      </trkpt>
      <trkpt lat="47.28127" lon="-0.43336">
        <ele>77.6</ele>
        <time>2020-08-02T08:03:17Z</time>
      </trkpt>
      <trkpt lat="47.28131" lon="-0.43336">
        <ele>77.6</ele>
        <time>2020-08-02T08:03:18Z</time>
      </trkpt>
      <trkpt lat="47.28136" lon="-0.43335">
        <ele>77.2</ele>
        <time>2020-08-02T08:03:19Z</time>
      </trkpt>
      <trkpt lat="47.28141" lon="-0.43335">
        <ele>77.2</ele>
        <time>2020-08-02T08:03:20Z</time>
      </trkpt>
      <trkpt lat="47.28146" lon="-0.43335">
        <ele>77.2</ele>
        <time>2020-08-02T08:03:21Z</time>
      </trkpt>
      <trkpt lat="47.2815" lon="-0.43334">
        <ele>77.2</ele>
        <time>2020-08-02T08:03:22Z</time>
      </trkpt>
      <trkpt lat="47.28154" lon="-0.43334">
        <ele>77.2</ele>
        <time>2020-08-02T08:03:23Z</time>
      </trkpt>
      <trkpt lat="47.28159" lon="-0.43333">
        <ele>77</ele>
        <time>2020-08-02T08:03:24Z</time>
      </trkpt>
      <trkpt lat="47.28164" lon="-0.43333">
        <ele>77.2</ele>
        <time>2020-08-02T08:03:25Z</time>
      </trkpt>
      <trkpt lat="47.28169" lon="-0.43332">
        <ele>77</ele>
        <time>2020-08-02T08:03:26Z</time>
      </trkpt>
      <trkpt lat="47.28174" lon="-0.43332">
        <ele>76.8</ele>
        <time>2020-08-02T08:03:27Z</time>
      </trkpt>
      <trkpt lat="47.28178" lon="-0.43332">
        <ele>76.8</ele>
        <time>2020-08-02T08:03:28Z</time>
      </trkpt>
      <trkpt lat="47.28182" lon="-0.43331">
        <ele>76.8</ele>
        <time>2020-08-02T08:03:29Z</time>
      </trkpt>
      <trkpt lat="47.28188" lon="-0.43331">
        <ele>76.8</ele>
        <time>2020-08-02T08:03:30Z</time>
      </trkpt>
      <trkpt lat="47.28192" lon="-0.4333">
        <ele>76.8</ele>
        <time>2020-08-02T08:03:31Z</time>
      </trkpt>
      <trkpt lat="47.28196" lon="-0.4333">
        <ele>76.8</ele>
        <time>2020-08-02T08:03:32Z</time>
      </trkpt>
      <trkpt lat="47.28201" lon="-0.43329">
        <ele>76.8</ele>
        <time>2020-08-02T08:03:33Z</time>
      </trkpt>
      <trkpt lat="47.28207" lon="-0.43329">
        <ele>76.8</ele>
        <time>2020-08-02T08:03:34Z</time>
      </trkpt>
      <trkpt lat="47.28211" lon="-0.43329">
        <ele>76.8</ele>
        <time>2020-08-02T08:03:35Z</time>
      </trkpt>
      <trkpt lat="47.28216" lon="-0.43328">
        <ele>76.8</ele>
        <time>2020-08-02T08:03:36Z</time>
      </trkpt>
      <trkpt lat="47.2822" lon="-0.43327">
        <ele>76.8</ele>
        <time>2020-08-02T08:03:37Z</time>
      </trkpt>
      <trkpt lat="47.2824" lon="-0.43325">
        <ele>76.6</ele>
        <time>2020-08-02T08:03:41Z</time>
      </trkpt>
      <trkpt lat="47.28245" lon="-0.43324">
        <ele>76.6</ele>
        <time>2020-08-02T08:03:42Z</time>
      </trkpt>
      <trkpt lat="47.28259" lon="-0.43324">
        <ele>76.4</ele>
        <time>2020-08-02T08:03:45Z</time>
      </trkpt>
      <trkpt lat="47.28264" lon="-0.43323">
        <ele>76.4</ele>
        <time>2020-08-02T08:03:46Z</time>
      </trkpt>
      <trkpt lat="47.28267" lon="-0.43323">
        <ele>76.4</ele>
        <time>2020-08-02T08:03:47Z</time>
      </trkpt>
      <trkpt lat="47.28273" lon="-0.43322">
        <ele>76.4</ele>
        <time>2020-08-02T08:03:48Z</time>
      </trkpt>
      <trkpt lat="47.28278" lon="-0.43322">
        <ele>76.4</ele>
        <time>2020-08-02T08:03:49Z</time>
      </trkpt>
      <trkpt lat="47.28282" lon="-0.43321">
        <ele>76.4</ele>
        <time>2020-08-02T08:03:50Z</time>
      </trkpt>
      <trkpt lat="47.28287" lon="-0.43321">
        <ele>76.4</ele>
        <time>2020-08-02T08:03:51Z</time>
      </trkpt>
      <trkpt lat="47.28292" lon="-0.4332">
        <ele>76.2</ele>
        <time>2020-08-02T08:03:52Z</time>
      </trkpt>
      <trkpt lat="47.28297" lon="-0.4332">
        <ele>76.2</ele>
        <time>2020-08-02T08:03:53Z</time>
      </trkpt>
      <trkpt lat="47.28308" lon="-0.43319">
        <ele>76.2</ele>
        <time>2020-08-02T08:03:55Z</time>
      </trkpt>
      <trkpt lat="47.28328" lon="-0.43318">
        <ele>76</ele>
        <time>2020-08-02T08:03:59Z</time>
      </trkpt>
      <trkpt lat="47.28341" lon="-0.43316">
        <ele>76</ele>
        <time>2020-08-02T08:04:02Z</time>
      </trkpt>
      <trkpt lat="47.28347" lon="-0.43315">
        <ele>75.8</ele>
        <time>2020-08-02T08:04:03Z</time>
      </trkpt>
      <trkpt lat="47.28351" lon="-0.43315">
        <ele>75.8</ele>
        <time>2020-08-02T08:04:04Z</time>
      </trkpt>
      <trkpt lat="47.28355" lon="-0.43314">
        <ele>75.8</ele>
        <time>2020-08-02T08:04:05Z</time>
      </trkpt>
      <trkpt lat="47.28359" lon="-0.43314">
        <ele>75.8</ele>
        <time>2020-08-02T08:04:06Z</time>
      </trkpt>
      <trkpt lat="47.28364" lon="-0.43314">
        <ele>75.8</ele>
        <time>2020-08-02T08:04:07Z</time>
      </trkpt>
      <trkpt lat="47.28368" lon="-0.43314">
        <ele>75.8</ele>
        <time>2020-08-02T08:04:08Z</time>
      </trkpt>
      <trkpt lat="47.28374" lon="-0.43313">
        <ele>75.8</ele>
        <time>2020-08-02T08:04:09Z</time>
      </trkpt>
      <trkpt lat="47.28377" lon="-0.43313">
        <ele>75.8</ele>
        <time>2020-08-02T08:04:10Z</time>
      </trkpt>
      <trkpt lat="47.28382" lon="-0.43313">
        <ele>75.8</ele>
        <time>2020-08-02T08:04:11Z</time>
      </trkpt>
      <trkpt lat="47.28387" lon="-0.43312">
        <ele>75.8</ele>
        <time>2020-08-02T08:04:12Z</time>
      </trkpt>
      <trkpt lat="47.28392" lon="-0.43312">
        <ele>75.8</ele>
        <time>2020-08-02T08:04:13Z</time>
      </trkpt>
      <trkpt lat="47.28396" lon="-0.43312">
        <ele>75.8</ele>
        <time>2020-08-02T08:04:14Z</time>
      </trkpt>
      <trkpt lat="47.28423" lon="-0.43309">
        <ele>75.8</ele>
        <time>2020-08-02T08:04:20Z</time>
      </trkpt>
      <trkpt lat="47.28432" lon="-0.43308">
        <ele>75.8</ele>
        <time>2020-08-02T08:04:22Z</time>
      </trkpt>
      <trkpt lat="47.28437" lon="-0.43308">
        <ele>75.8</ele>
        <time>2020-08-02T08:04:23Z</time>
      </trkpt>
      <trkpt lat="47.28441" lon="-0.43308">
        <ele>75.8</ele>
        <time>2020-08-02T08:04:24Z</time>
      </trkpt>
      <trkpt lat="47.2845" lon="-0.43307">
        <ele>76</ele>
        <time>2020-08-02T08:04:26Z</time>
      </trkpt>
      <trkpt lat="47.28455" lon="-0.43307">
        <ele>76</ele>
        <time>2020-08-02T08:04:27Z</time>
      </trkpt>
      <trkpt lat="47.2846" lon="-0.43306">
        <ele>76</ele>
        <time>2020-08-02T08:04:28Z</time>
      </trkpt>
      <trkpt lat="47.28464" lon="-0.43306">
        <ele>76</ele>
        <time>2020-08-02T08:04:29Z</time>
      </trkpt>
      <trkpt lat="47.28468" lon="-0.43305">
        <ele>76</ele>
        <time>2020-08-02T08:04:30Z</time>
      </trkpt>
      <trkpt lat="47.28487" lon="-0.43303">
        <ele>76</ele>
        <time>2020-08-02T08:04:34Z</time>
      </trkpt>
      <trkpt lat="47.28511" lon="-0.43301">
        <ele>75.8</ele>
        <time>2020-08-02T08:04:39Z</time>
      </trkpt>
      <trkpt lat="47.28525" lon="-0.43299">
        <ele>76</ele>
        <time>2020-08-02T08:04:42Z</time>
      </trkpt>
      <trkpt lat="47.28529" lon="-0.43299">
        <ele>76</ele>
        <time>2020-08-02T08:04:43Z</time>
      </trkpt>
      <trkpt lat="47.28534" lon="-0.43298">
        <ele>76</ele>
        <time>2020-08-02T08:04:44Z</time>
      </trkpt>
      <trkpt lat="47.28539" lon="-0.43298">
        <ele>76.2</ele>
        <time>2020-08-02T08:04:45Z</time>
      </trkpt>
      <trkpt lat="47.28543" lon="-0.43297">
        <ele>76.2</ele>
        <time>2020-08-02T08:04:46Z</time>
      </trkpt>
      <trkpt lat="47.28548" lon="-0.43297">
        <ele>76.2</ele>
        <time>2020-08-02T08:04:47Z</time>
      </trkpt>
      <trkpt lat="47.28552" lon="-0.43296">
        <ele>76.2</ele>
        <time>2020-08-02T08:04:48Z</time>
      </trkpt>
      <trkpt lat="47.28557" lon="-0.43296">
        <ele>76.2</ele>
        <time>2020-08-02T08:04:49Z</time>
      </trkpt>
      <trkpt lat="47.28561" lon="-0.43296">
        <ele>76.2</ele>
        <time>2020-08-02T08:04:50Z</time>
      </trkpt>
      <trkpt lat="47.28567" lon="-0.43296">
        <ele>76.2</ele>
        <time>2020-08-02T08:04:51Z</time>
      </trkpt>
      <trkpt lat="47.28571" lon="-0.43295">
        <ele>76</ele>
        <time>2020-08-02T08:04:52Z</time>
      </trkpt>
      <trkpt lat="47.28576" lon="-0.43295">
        <ele>76</ele>
        <time>2020-08-02T08:04:53Z</time>
      </trkpt>
      <trkpt lat="47.28596" lon="-0.43292">
        <ele>75.8</ele>
        <time>2020-08-02T08:04:57Z</time>
      </trkpt>
      <trkpt lat="47.28611" lon="-0.43291">
        <ele>75.8</ele>
        <time>2020-08-02T08:05:00Z</time>
      </trkpt>
      <trkpt lat="47.28625" lon="-0.43289">
        <ele>75.8</ele>
        <time>2020-08-02T08:05:03Z</time>
      </trkpt>
      <trkpt lat="47.28631" lon="-0.43288">
        <ele>75.8</ele>
        <time>2020-08-02T08:05:04Z</time>
      </trkpt>
      <trkpt lat="47.28636" lon="-0.43288">
        <ele>75.8</ele>
        <time>2020-08-02T08:05:05Z</time>
      </trkpt>
      <trkpt lat="47.2864" lon="-0.43288">
        <ele>75.8</ele>
        <time>2020-08-02T08:05:06Z</time>
      </trkpt>
      <trkpt lat="47.28645" lon="-0.43288">
        <ele>75.8</ele>
        <time>2020-08-02T08:05:07Z</time>
      </trkpt>
      <trkpt lat="47.28651" lon="-0.43287">
        <ele>75.8</ele>
        <time>2020-08-02T08:05:08Z</time>
      </trkpt>
      <trkpt lat="47.28655" lon="-0.43287">
        <ele>75.8</ele>
        <time>2020-08-02T08:05:09Z</time>
      </trkpt>
      <trkpt lat="47.2866" lon="-0.43287">
        <ele>76</ele>
        <time>2020-08-02T08:05:10Z</time>
      </trkpt>
      <trkpt lat="47.28665" lon="-0.43286">
        <ele>76</ele>
        <time>2020-08-02T08:05:11Z</time>
      </trkpt>
      <trkpt lat="47.28708" lon="-0.4328">
        <ele>75.8</ele>
        <time>2020-08-02T08:05:20Z</time>
      </trkpt>
      <trkpt lat="47.28712" lon="-0.43278">
        <ele>75.8</ele>
        <time>2020-08-02T08:05:21Z</time>
      </trkpt>
      <trkpt lat="47.28718" lon="-0.43276">
        <ele>75.8</ele>
        <time>2020-08-02T08:05:22Z</time>
      </trkpt>
      <trkpt lat="47.28723" lon="-0.43273">
        <ele>75.8</ele>
        <time>2020-08-02T08:05:23Z</time>
      </trkpt>
      <trkpt lat="47.28727" lon="-0.43271">
        <ele>75.6</ele>
        <time>2020-08-02T08:05:24Z</time>
      </trkpt>
      <trkpt lat="47.28732" lon="-0.43268">
        <ele>75.6</ele>
        <time>2020-08-02T08:05:25Z</time>
      </trkpt>
      <trkpt lat="47.28736" lon="-0.43266">
        <ele>75.6</ele>
        <time>2020-08-02T08:05:26Z</time>
      </trkpt>
      <trkpt lat="47.28741" lon="-0.43262">
        <ele>75.6</ele>
        <time>2020-08-02T08:05:27Z</time>
      </trkpt>
      <trkpt lat="47.28771" lon="-0.43244">
        <ele>75.2</ele>
        <time>2020-08-02T08:05:34Z</time>
      </trkpt>
      <trkpt lat="47.28775" lon="-0.43243">
        <ele>75.2</ele>
        <time>2020-08-02T08:05:35Z</time>
      </trkpt>
      <trkpt lat="47.2878" lon="-0.43241">
        <ele>75.2</ele>
        <time>2020-08-02T08:05:36Z</time>
      </trkpt>
      <trkpt lat="47.28785" lon="-0.43239">
        <ele>75.2</ele>
        <time>2020-08-02T08:05:37Z</time>
      </trkpt>
      <trkpt lat="47.28789" lon="-0.43239">
        <ele>75.2</ele>
        <time>2020-08-02T08:05:38Z</time>
      </trkpt>
      <trkpt lat="47.28794" lon="-0.43239">
        <ele>75</ele>
        <time>2020-08-02T08:05:39Z</time>
      </trkpt>
      <trkpt lat="47.28799" lon="-0.43241">
        <ele>75</ele>
        <time>2020-08-02T08:05:40Z</time>
      </trkpt>
      <trkpt lat="47.28805" lon="-0.43243">
        <ele>75</ele>
        <time>2020-08-02T08:05:41Z</time>
      </trkpt>
      <trkpt lat="47.2881" lon="-0.43247">
        <ele>75</ele>
        <time>2020-08-02T08:05:42Z</time>
      </trkpt>
      <trkpt lat="47.2885" lon="-0.43275">
        <ele>74.8</ele>
        <time>2020-08-02T08:05:51Z</time>
      </trkpt>
      <trkpt lat="47.28854" lon="-0.43279">
        <ele>74.8</ele>
        <time>2020-08-02T08:05:52Z</time>
      </trkpt>
      <trkpt lat="47.28858" lon="-0.43282">
        <ele>74.8</ele>
        <time>2020-08-02T08:05:53Z</time>
      </trkpt>
      <trkpt lat="47.28862" lon="-0.43284">
        <ele>74.8</ele>
        <time>2020-08-02T08:05:54Z</time>
      </trkpt>
      <trkpt lat="47.28868" lon="-0.43287">
        <ele>74.8</ele>
        <time>2020-08-02T08:05:55Z</time>
      </trkpt>
      <trkpt lat="47.28872" lon="-0.4329">
        <ele>74.6</ele>
        <time>2020-08-02T08:05:56Z</time>
      </trkpt>
      <trkpt lat="47.28881" lon="-0.43292">
        <ele>74.6</ele>
        <time>2020-08-02T08:05:58Z</time>
      </trkpt>
      <trkpt lat="47.28886" lon="-0.43292">
        <ele>74.6</ele>
        <time>2020-08-02T08:05:59Z</time>
      </trkpt>
      <trkpt lat="47.28892" lon="-0.4329">
        <ele>74.4</ele>
        <time>2020-08-02T08:06:00Z</time>
      </trkpt>
      <trkpt lat="47.28897" lon="-0.43287">
        <ele>74.4</ele>
        <time>2020-08-02T08:06:01Z</time>
      </trkpt>
      <trkpt lat="47.28901" lon="-0.43284">
        <ele>74.4</ele>
        <time>2020-08-02T08:06:02Z</time>
      </trkpt>
      <trkpt lat="47.28904" lon="-0.43281">
        <ele>74.2</ele>
        <time>2020-08-02T08:06:03Z</time>
      </trkpt>
      <trkpt lat="47.28907" lon="-0.43277">
        <ele>74.2</ele>
        <time>2020-08-02T08:06:04Z</time>
      </trkpt>
      <trkpt lat="47.28912" lon="-0.43273">
        <ele>74.2</ele>
        <time>2020-08-02T08:06:05Z</time>
      </trkpt>
      <trkpt lat="47.28916" lon="-0.43269">
        <ele>74.2</ele>
        <time>2020-08-02T08:06:06Z</time>
      </trkpt>
      <trkpt lat="47.28921" lon="-0.43265">
        <ele>74</ele>
        <time>2020-08-02T08:06:07Z</time>
      </trkpt>
      <trkpt lat="47.28924" lon="-0.43262">
        <ele>74</ele>
        <time>2020-08-02T08:06:08Z</time>
      </trkpt>
      <trkpt lat="47.28929" lon="-0.43258">
        <ele>74</ele>
        <time>2020-08-02T08:06:09Z</time>
      </trkpt>
      <trkpt lat="47.28933" lon="-0.43254">
        <ele>73.8</ele>
        <time>2020-08-02T08:06:10Z</time>
      </trkpt>
      <trkpt lat="47.28937" lon="-0.43251">
        <ele>73.8</ele>
        <time>2020-08-02T08:06:11Z</time>
      </trkpt>
      <trkpt lat="47.28941" lon="-0.43248">
        <ele>73.6</ele>
        <time>2020-08-02T08:06:12Z</time>
      </trkpt>
      <trkpt lat="47.28945" lon="-0.43244">
        <ele>73.6</ele>
        <time>2020-08-02T08:06:13Z</time>
      </trkpt>
      <trkpt lat="47.28949" lon="-0.43241">
        <ele>73.6</ele>
        <time>2020-08-02T08:06:14Z</time>
      </trkpt>
      <trkpt lat="47.28953" lon="-0.43239">
        <ele>73.6</ele>
        <time>2020-08-02T08:06:15Z</time>
      </trkpt>
      <trkpt lat="47.28957" lon="-0.43236">
        <ele>73.6</ele>
        <time>2020-08-02T08:06:16Z</time>
      </trkpt>
      <trkpt lat="47.28959" lon="-0.43234">
        <ele>73.6</ele>
        <time>2020-08-02T08:06:17Z</time>
      </trkpt>
      <trkpt lat="47.28964" lon="-0.43231">
        <ele>73.6</ele>
        <time>2020-08-02T08:06:18Z</time>
      </trkpt>
      <trkpt lat="47.28967" lon="-0.43228">
        <ele>73.4</ele>
        <time>2020-08-02T08:06:19Z</time>
      </trkpt>
      <trkpt lat="47.2897" lon="-0.43225">
        <ele>73.4</ele>
        <time>2020-08-02T08:06:20Z</time>
      </trkpt>
      <trkpt lat="47.28973" lon="-0.43222">
        <ele>73.4</ele>
        <time>2020-08-02T08:06:21Z</time>
      </trkpt>
      <trkpt lat="47.28976" lon="-0.43219">
        <ele>73.4</ele>
        <time>2020-08-02T08:06:22Z</time>
      </trkpt>
      <trkpt lat="47.2898" lon="-0.43215">
        <ele>73.4</ele>
        <time>2020-08-02T08:06:23Z</time>
      </trkpt>
      <trkpt lat="47.28984" lon="-0.43211">
        <ele>73.4</ele>
        <time>2020-08-02T08:06:24Z</time>
      </trkpt>
      <trkpt lat="47.28988" lon="-0.43208">
        <ele>73.4</ele>
        <time>2020-08-02T08:06:25Z</time>
      </trkpt>
      <trkpt lat="47.28991" lon="-0.43205">
        <ele>73.2</ele>
        <time>2020-08-02T08:06:26Z</time>
      </trkpt>
      <trkpt lat="47.28995" lon="-0.43202">
        <ele>73.2</ele>
        <time>2020-08-02T08:06:27Z</time>
      </trkpt>
      <trkpt lat="47.29" lon="-0.43198">
        <ele>73.2</ele>
        <time>2020-08-02T08:06:28Z</time>
      </trkpt>
      <trkpt lat="47.2902" lon="-0.43183">
        <ele>73.2</ele>
        <time>2020-08-02T08:06:33Z</time>
      </trkpt>
      <trkpt lat="47.29037" lon="-0.43166">
        <ele>73.4</ele>
        <time>2020-08-02T08:06:37Z</time>
      </trkpt>
      <trkpt lat="47.29054" lon="-0.43149">
        <ele>72.8</ele>
        <time>2020-08-02T08:06:41Z</time>
      </trkpt>
      <trkpt lat="47.29074" lon="-0.4313">
        <ele>72.2</ele>
        <time>2020-08-02T08:06:46Z</time>
      </trkpt>
      <trkpt lat="47.29078" lon="-0.43126">
        <ele>72.2</ele>
        <time>2020-08-02T08:06:47Z</time>
      </trkpt>
      <trkpt lat="47.29081" lon="-0.43123">
        <ele>72.2</ele>
        <time>2020-08-02T08:06:48Z</time>
      </trkpt>
      <trkpt lat="47.29084" lon="-0.4312">
        <ele>72.2</ele>
        <time>2020-08-02T08:06:49Z</time>
      </trkpt>
      <trkpt lat="47.29088" lon="-0.43117">
        <ele>72.4</ele>
        <time>2020-08-02T08:06:50Z</time>
      </trkpt>
      <trkpt lat="47.29092" lon="-0.43113">
        <ele>72.6</ele>
        <time>2020-08-02T08:06:51Z</time>
      </trkpt>
      <trkpt lat="47.29096" lon="-0.43109">
        <ele>72.6</ele>
        <time>2020-08-02T08:06:52Z</time>
      </trkpt>
      <trkpt lat="47.29099" lon="-0.43106">
        <ele>73</ele>
        <time>2020-08-02T08:06:53Z</time>
      </trkpt>
      <trkpt lat="47.29102" lon="-0.43103">
        <ele>73.2</ele>
        <time>2020-08-02T08:06:54Z</time>
      </trkpt>
      <trkpt lat="47.29106" lon="-0.43099">
        <ele>73.4</ele>
        <time>2020-08-02T08:06:55Z</time>
      </trkpt>
      <trkpt lat="47.2911" lon="-0.43096">
        <ele>73.8</ele>
        <time>2020-08-02T08:06:56Z</time>
      </trkpt>
      <trkpt lat="47.29113" lon="-0.43093">
        <ele>74</ele>
        <time>2020-08-02T08:06:57Z</time>
      </trkpt>
      <trkpt lat="47.29116" lon="-0.4309">
        <ele>74.2</ele>
        <time>2020-08-02T08:06:58Z</time>
      </trkpt>
      <trkpt lat="47.29119" lon="-0.43087">
        <ele>74.4</ele>
        <time>2020-08-02T08:06:59Z</time>
      </trkpt>
      <trkpt lat="47.29123" lon="-0.43083">
        <ele>74.4</ele>
        <time>2020-08-02T08:07:00Z</time>
      </trkpt>
      <trkpt lat="47.29127" lon="-0.4308">
        <ele>74.6</ele>
        <time>2020-08-02T08:07:01Z</time>
      </trkpt>
      <trkpt lat="47.29131" lon="-0.43076">
        <ele>74.8</ele>
        <time>2020-08-02T08:07:02Z</time>
      </trkpt>
      <trkpt lat="47.29134" lon="-0.43074">
        <ele>74.8</ele>
        <time>2020-08-02T08:07:03Z</time>
      </trkpt>
      <trkpt lat="47.29138" lon="-0.4307">
        <ele>74.8</ele>
        <time>2020-08-02T08:07:04Z</time>
      </trkpt>
      <trkpt lat="47.29142" lon="-0.43067">
        <ele>74.8</ele>
        <time>2020-08-02T08:07:05Z</time>
      </trkpt>
      <trkpt lat="47.29146" lon="-0.43065">
        <ele>74.8</ele>
        <time>2020-08-02T08:07:06Z</time>
      </trkpt>
      <trkpt lat="47.2915" lon="-0.43062">
        <ele>74.8</ele>
        <time>2020-08-02T08:07:07Z</time>
      </trkpt>
      <trkpt lat="47.29158" lon="-0.43057">
        <ele>74.8</ele>
        <time>2020-08-02T08:07:09Z</time>
      </trkpt>
      <trkpt lat="47.29192" lon="-0.43036">
        <ele>74.8</ele>
        <time>2020-08-02T08:07:17Z</time>
      </trkpt>
      <trkpt lat="47.29224" lon="-0.43015">
        <ele>75</ele>
        <time>2020-08-02T08:07:25Z</time>
      </trkpt>
      <trkpt lat="47.29229" lon="-0.43013">
        <ele>75</ele>
        <time>2020-08-02T08:07:26Z</time>
      </trkpt>
      <trkpt lat="47.29233" lon="-0.4301">
        <ele>75</ele>
        <time>2020-08-02T08:07:27Z</time>
      </trkpt>
      <trkpt lat="47.29255" lon="-0.42997">
        <ele>75</ele>
        <time>2020-08-02T08:07:32Z</time>
      </trkpt>
      <trkpt lat="47.2926" lon="-0.42994">
        <ele>74.8</ele>
        <time>2020-08-02T08:07:33Z</time>
      </trkpt>
      <trkpt lat="47.29294" lon="-0.42972">
        <ele>74.4</ele>
        <time>2020-08-02T08:07:41Z</time>
      </trkpt>
      <trkpt lat="47.29299" lon="-0.42969">
        <ele>74.2</ele>
        <time>2020-08-02T08:07:42Z</time>
      </trkpt>
      <trkpt lat="47.29303" lon="-0.42966">
        <ele>74</ele>
        <time>2020-08-02T08:07:43Z</time>
      </trkpt>
      <trkpt lat="47.29307" lon="-0.42963">
        <ele>74</ele>
        <time>2020-08-02T08:07:44Z</time>
      </trkpt>
      <trkpt lat="47.29311" lon="-0.42961">
        <ele>74</ele>
        <time>2020-08-02T08:07:45Z</time>
      </trkpt>
      <trkpt lat="47.29316" lon="-0.42958">
        <ele>73.8</ele>
        <time>2020-08-02T08:07:46Z</time>
      </trkpt>
      <trkpt lat="47.2932" lon="-0.42955">
        <ele>73.8</ele>
        <time>2020-08-02T08:07:47Z</time>
      </trkpt>
      <trkpt lat="47.29347" lon="-0.42937">
        <ele>73.4</ele>
        <time>2020-08-02T08:07:53Z</time>
      </trkpt>
      <trkpt lat="47.29379" lon="-0.42917">
        <ele>73.6</ele>
        <time>2020-08-02T08:08:00Z</time>
      </trkpt>
      <trkpt lat="47.29392" lon="-0.42909">
        <ele>73.2</ele>
        <time>2020-08-02T08:08:03Z</time>
      </trkpt>
      <trkpt lat="47.29402" lon="-0.42903">
        <ele>72.8</ele>
        <time>2020-08-02T08:08:05Z</time>
      </trkpt>
      <trkpt lat="47.29425" lon="-0.42888">
        <ele>72.6</ele>
        <time>2020-08-02T08:08:10Z</time>
      </trkpt>
      <trkpt lat="47.29429" lon="-0.42885">
        <ele>72.6</ele>
        <time>2020-08-02T08:08:11Z</time>
      </trkpt>
      <trkpt lat="47.29434" lon="-0.42882">
        <ele>72.6</ele>
        <time>2020-08-02T08:08:12Z</time>
      </trkpt>
      <trkpt lat="47.29438" lon="-0.42879">
        <ele>72.6</ele>
        <time>2020-08-02T08:08:13Z</time>
      </trkpt>
      <trkpt lat="47.29442" lon="-0.42876">
        <ele>72.6</ele>
        <time>2020-08-02T08:08:14Z</time>
      </trkpt>
      <trkpt lat="47.29447" lon="-0.42874">
        <ele>72.6</ele>
        <time>2020-08-02T08:08:15Z</time>
      </trkpt>
      <trkpt lat="47.29451" lon="-0.42871">
        <ele>72.6</ele>
        <time>2020-08-02T08:08:16Z</time>
      </trkpt>
      <trkpt lat="47.29455" lon="-0.42868">
        <ele>72.6</ele>
        <time>2020-08-02T08:08:17Z</time>
      </trkpt>
      <trkpt lat="47.2946" lon="-0.42865">
        <ele>72.6</ele>
        <time>2020-08-02T08:08:18Z</time>
      </trkpt>
      <trkpt lat="47.29464" lon="-0.42862">
        <ele>72.6</ele>
        <time>2020-08-02T08:08:19Z</time>
      </trkpt>
      <trkpt lat="47.29469" lon="-0.42859">
        <ele>72.6</ele>
        <time>2020-08-02T08:08:20Z</time>
      </trkpt>
      <trkpt lat="47.29483" lon="-0.4285">
        <ele>72.8</ele>
        <time>2020-08-02T08:08:23Z</time>
      </trkpt>
      <trkpt lat="47.29523" lon="-0.42823">
        <ele>72.4</ele>
        <time>2020-08-02T08:08:32Z</time>
      </trkpt>
      <trkpt lat="47.2956" lon="-0.42799">
        <ele>72.2</ele>
        <time>2020-08-02T08:08:40Z</time>
      </trkpt>
      <trkpt lat="47.2957" lon="-0.42793">
        <ele>72</ele>
        <time>2020-08-02T08:08:42Z</time>
      </trkpt>
      <trkpt lat="47.29575" lon="-0.4279">
        <ele>72</ele>
        <time>2020-08-02T08:08:43Z</time>
      </trkpt>
      <trkpt lat="47.29579" lon="-0.42787">
        <ele>72</ele>
        <time>2020-08-02T08:08:44Z</time>
      </trkpt>
      <trkpt lat="47.29583" lon="-0.42785">
        <ele>71.8</ele>
        <time>2020-08-02T08:08:45Z</time>
      </trkpt>
      <trkpt lat="47.29588" lon="-0.42782">
        <ele>71.6</ele>
        <time>2020-08-02T08:08:46Z</time>
      </trkpt>
      <trkpt lat="47.29592" lon="-0.4278">
        <ele>71.6</ele>
        <time>2020-08-02T08:08:47Z</time>
      </trkpt>
      <trkpt lat="47.29595" lon="-0.42777">
        <ele>71.6</ele>
        <time>2020-08-02T08:08:48Z</time>
      </trkpt>
      <trkpt lat="47.29599" lon="-0.42774">
        <ele>71.6</ele>
        <time>2020-08-02T08:08:49Z</time>
      </trkpt>
      <trkpt lat="47.29603" lon="-0.42772">
        <ele>71.6</ele>
        <time>2020-08-02T08:08:50Z</time>
      </trkpt>
      <trkpt lat="47.29606" lon="-0.42768">
        <ele>71.6</ele>
        <time>2020-08-02T08:08:51Z</time>
      </trkpt>
      <trkpt lat="47.29608" lon="-0.42764">
        <ele>71.6</ele>
        <time>2020-08-02T08:08:52Z</time>
      </trkpt>
      <trkpt lat="47.29608" lon="-0.42759">
        <ele>71.6</ele>
        <time>2020-08-02T08:08:53Z</time>
      </trkpt>
      <trkpt lat="47.29607" lon="-0.42754">
        <ele>71.4</ele>
        <time>2020-08-02T08:08:54Z</time>
      </trkpt>
      <trkpt lat="47.29606" lon="-0.4275">
        <ele>71.4</ele>
        <time>2020-08-02T08:08:55Z</time>
      </trkpt>
      <trkpt lat="47.29604" lon="-0.42746">
        <ele>71.4</ele>
        <time>2020-08-02T08:08:56Z</time>
      </trkpt>
      <trkpt lat="47.29603" lon="-0.42742">
        <ele>71.4</ele>
        <time>2020-08-02T08:08:57Z</time>
      </trkpt>
      <trkpt lat="47.29586" lon="-0.42701">
        <ele>71.2</ele>
        <time>2020-08-02T08:09:05Z</time>
      </trkpt>
      <trkpt lat="47.29573" lon="-0.42661">
        <ele>71.2</ele>
        <time>2020-08-02T08:09:12Z</time>
      </trkpt>
      <trkpt lat="47.29562" lon="-0.42606">
        <ele>71</ele>
        <time>2020-08-02T08:09:21Z</time>
      </trkpt>
      <trkpt lat="47.2955" lon="-0.42555">
        <ele>71</ele>
        <time>2020-08-02T08:09:29Z</time>
      </trkpt>
      <trkpt lat="47.29546" lon="-0.42537">
        <ele>71.2</ele>
        <time>2020-08-02T08:09:32Z</time>
      </trkpt>
      <trkpt lat="47.29544" lon="-0.42531">
        <ele>71.2</ele>
        <time>2020-08-02T08:09:33Z</time>
      </trkpt>
      <trkpt lat="47.29543" lon="-0.42525">
        <ele>71.2</ele>
        <time>2020-08-02T08:09:34Z</time>
      </trkpt>
      <trkpt lat="47.29541" lon="-0.4252">
        <ele>71</ele>
        <time>2020-08-02T08:09:35Z</time>
      </trkpt>
      <trkpt lat="47.29539" lon="-0.42515">
        <ele>71</ele>
        <time>2020-08-02T08:09:36Z</time>
      </trkpt>
      <trkpt lat="47.29538" lon="-0.42509">
        <ele>71</ele>
        <time>2020-08-02T08:09:37Z</time>
      </trkpt>
      <trkpt lat="47.29536" lon="-0.42504">
        <ele>70.8</ele>
        <time>2020-08-02T08:09:38Z</time>
      </trkpt>
      <trkpt lat="47.29534" lon="-0.42499">
        <ele>70.6</ele>
        <time>2020-08-02T08:09:39Z</time>
      </trkpt>
      <trkpt lat="47.29532" lon="-0.42494">
        <ele>70.6</ele>
        <time>2020-08-02T08:09:40Z</time>
      </trkpt>
      <trkpt lat="47.2953" lon="-0.4249">
        <ele>70.4</ele>
        <time>2020-08-02T08:09:41Z</time>
      </trkpt>
      <trkpt lat="47.29528" lon="-0.42485">
        <ele>70.2</ele>
        <time>2020-08-02T08:09:42Z</time>
      </trkpt>
      <trkpt lat="47.29526" lon="-0.42481">
        <ele>70</ele>
        <time>2020-08-02T08:09:43Z</time>
      </trkpt>
      <trkpt lat="47.29523" lon="-0.42477">
        <ele>70</ele>
        <time>2020-08-02T08:09:44Z</time>
      </trkpt>
      <trkpt lat="47.2952" lon="-0.42475">
        <ele>69.8</ele>
        <time>2020-08-02T08:09:45Z</time>
      </trkpt>
      <trkpt lat="47.29518" lon="-0.42474">
        <ele>69.6</ele>
        <time>2020-08-02T08:09:46Z</time>
      </trkpt>
      <trkpt lat="47.29514" lon="-0.42474">
        <ele>69.6</ele>
        <time>2020-08-02T08:09:47Z</time>
      </trkpt>
      <trkpt lat="47.2951" lon="-0.42474">
        <ele>69.4</ele>
        <time>2020-08-02T08:09:48Z</time>
      </trkpt>
      <trkpt lat="47.29507" lon="-0.42475">
        <ele>69.4</ele>
        <time>2020-08-02T08:09:49Z</time>
      </trkpt>
      <trkpt lat="47.29503" lon="-0.42477">
        <ele>69.4</ele>
        <time>2020-08-02T08:09:50Z</time>
      </trkpt>
      <trkpt lat="47.295" lon="-0.42478">
        <ele>69.4</ele>
        <time>2020-08-02T08:09:51Z</time>
      </trkpt>
      <trkpt lat="47.29496" lon="-0.4248">
        <ele>69.4</ele>
        <time>2020-08-02T08:09:52Z</time>
      </trkpt>
      <trkpt lat="47.29483" lon="-0.42485">
        <ele>69.2</ele>
        <time>2020-08-02T08:09:55Z</time>
      </trkpt>
      <trkpt lat="47.29471" lon="-0.42486">
        <ele>69.2</ele>
        <time>2020-08-02T08:09:58Z</time>
      </trkpt>
      <trkpt lat="47.29466" lon="-0.42484">
        <ele>69.2</ele>
        <time>2020-08-02T08:09:59Z</time>
      </trkpt>
      <trkpt lat="47.29462" lon="-0.42481">
        <ele>69.2</ele>
        <time>2020-08-02T08:10:00Z</time>
      </trkpt>
      <trkpt lat="47.29459" lon="-0.42477">
        <ele>69.2</ele>
        <time>2020-08-02T08:10:01Z</time>
      </trkpt>
      <trkpt lat="47.29456" lon="-0.42471">
        <ele>69.2</ele>
        <time>2020-08-02T08:10:02Z</time>
      </trkpt>
      <trkpt lat="47.29454" lon="-0.42464">
        <ele>69.2</ele>
        <time>2020-08-02T08:10:03Z</time>
      </trkpt>
      <trkpt lat="47.29453" lon="-0.42457">
        <ele>69.2</ele>
        <time>2020-08-02T08:10:04Z</time>
      </trkpt>
      <trkpt lat="47.29441" lon="-0.4241">
        <ele>69.2</ele>
        <time>2020-08-02T08:10:11Z</time>
      </trkpt>
      <trkpt lat="47.29434" lon="-0.42383">
        <ele>68.8</ele>
        <time>2020-08-02T08:10:15Z</time>
      </trkpt>
      <trkpt lat="47.29432" lon="-0.42375">
        <ele>68.8</ele>
        <time>2020-08-02T08:10:16Z</time>
      </trkpt>
      <trkpt lat="47.29431" lon="-0.42369">
        <ele>68.6</ele>
        <time>2020-08-02T08:10:17Z</time>
      </trkpt>
      <trkpt lat="47.29429" lon="-0.42362">
        <ele>68.6</ele>
        <time>2020-08-02T08:10:18Z</time>
      </trkpt>
      <trkpt lat="47.29428" lon="-0.42357">
        <ele>68.4</ele>
        <time>2020-08-02T08:10:19Z</time>
      </trkpt>
      <trkpt lat="47.29427" lon="-0.42351">
        <ele>68.4</ele>
        <time>2020-08-02T08:10:20Z</time>
      </trkpt>
      <trkpt lat="47.29425" lon="-0.42343">
        <ele>68.2</ele>
        <time>2020-08-02T08:10:21Z</time>
      </trkpt>
      <trkpt lat="47.29423" lon="-0.42337">
        <ele>68.2</ele>
        <time>2020-08-02T08:10:22Z</time>
      </trkpt>
      <trkpt lat="47.29422" lon="-0.42331">
        <ele>68</ele>
        <time>2020-08-02T08:10:23Z</time>
      </trkpt>
      <trkpt lat="47.29421" lon="-0.42326">
        <ele>68</ele>
        <time>2020-08-02T08:10:24Z</time>
      </trkpt>
      <trkpt lat="47.29419" lon="-0.4232">
        <ele>68</ele>
        <time>2020-08-02T08:10:25Z</time>
      </trkpt>
      <trkpt lat="47.29417" lon="-0.42314">
        <ele>67.8</ele>
        <time>2020-08-02T08:10:26Z</time>
      </trkpt>
      <trkpt lat="47.29416" lon="-0.42308">
        <ele>67.8</ele>
        <time>2020-08-02T08:10:27Z</time>
      </trkpt>
      <trkpt lat="47.29414" lon="-0.42302">
        <ele>67.8</ele>
        <time>2020-08-02T08:10:28Z</time>
      </trkpt>
      <trkpt lat="47.29413" lon="-0.42295">
        <ele>67.8</ele>
        <time>2020-08-02T08:10:29Z</time>
      </trkpt>
      <trkpt lat="47.29411" lon="-0.42289">
        <ele>67.6</ele>
        <time>2020-08-02T08:10:30Z</time>
      </trkpt>
      <trkpt lat="47.29409" lon="-0.42283">
        <ele>67.4</ele>
        <time>2020-08-02T08:10:31Z</time>
      </trkpt>
      <trkpt lat="47.29407" lon="-0.42275">
        <ele>67.2</ele>
        <time>2020-08-02T08:10:32Z</time>
      </trkpt>
      <trkpt lat="47.29406" lon="-0.4227">
        <ele>67.2</ele>
        <time>2020-08-02T08:10:33Z</time>
      </trkpt>
      <trkpt lat="47.29401" lon="-0.42252">
        <ele>66.8</ele>
        <time>2020-08-02T08:10:36Z</time>
      </trkpt>
      <trkpt lat="47.29399" lon="-0.42246">
        <ele>66.8</ele>
        <time>2020-08-02T08:10:37Z</time>
      </trkpt>
      <trkpt lat="47.29398" lon="-0.4224">
        <ele>66.4</ele>
        <time>2020-08-02T08:10:38Z</time>
      </trkpt>
      <trkpt lat="47.29396" lon="-0.42234">
        <ele>66</ele>
        <time>2020-08-02T08:10:39Z</time>
      </trkpt>
      <trkpt lat="47.29394" lon="-0.42228">
        <ele>66</ele>
        <time>2020-08-02T08:10:40Z</time>
      </trkpt>
      <trkpt lat="47.29393" lon="-0.42221">
        <ele>65.8</ele>
        <time>2020-08-02T08:10:41Z</time>
      </trkpt>
      <trkpt lat="47.29391" lon="-0.42215">
        <ele>65.8</ele>
        <time>2020-08-02T08:10:42Z</time>
      </trkpt>
      <trkpt lat="47.2939" lon="-0.42209">
        <ele>65.6</ele>
        <time>2020-08-02T08:10:43Z</time>
      </trkpt>
      <trkpt lat="47.29388" lon="-0.42203">
        <ele>65.6</ele>
        <time>2020-08-02T08:10:44Z</time>
      </trkpt>
      <trkpt lat="47.29386" lon="-0.42195">
        <ele>65.4</ele>
        <time>2020-08-02T08:10:45Z</time>
      </trkpt>
      <trkpt lat="47.29384" lon="-0.42189">
        <ele>65.4</ele>
        <time>2020-08-02T08:10:46Z</time>
      </trkpt>
      <trkpt lat="47.29383" lon="-0.42182">
        <ele>65.4</ele>
        <time>2020-08-02T08:10:47Z</time>
      </trkpt>
      <trkpt lat="47.29383" lon="-0.42177">
        <ele>65.4</ele>
        <time>2020-08-02T08:10:48Z</time>
      </trkpt>
      <trkpt lat="47.29385" lon="-0.42171">
        <ele>65.4</ele>
        <time>2020-08-02T08:10:49Z</time>
      </trkpt>
      <trkpt lat="47.29388" lon="-0.42166">
        <ele>65.6</ele>
        <time>2020-08-02T08:10:50Z</time>
      </trkpt>
      <trkpt lat="47.29392" lon="-0.42163">
        <ele>65.6</ele>
        <time>2020-08-02T08:10:51Z</time>
      </trkpt>
      <trkpt lat="47.29397" lon="-0.4216">
        <ele>65.6</ele>
        <time>2020-08-02T08:10:52Z</time>
      </trkpt>
      <trkpt lat="47.294" lon="-0.42159">
        <ele>65.6</ele>
        <time>2020-08-02T08:10:53Z</time>
      </trkpt>
      <trkpt lat="47.29405" lon="-0.42156">
        <ele>65.6</ele>
        <time>2020-08-02T08:10:54Z</time>
      </trkpt>
      <trkpt lat="47.2941" lon="-0.42152">
        <ele>65.4</ele>
        <time>2020-08-02T08:10:55Z</time>
      </trkpt>
      <trkpt lat="47.29415" lon="-0.42149">
        <ele>65.6</ele>
        <time>2020-08-02T08:10:56Z</time>
      </trkpt>
      <trkpt lat="47.2942" lon="-0.42146">
        <ele>65.6</ele>
        <time>2020-08-02T08:10:57Z</time>
      </trkpt>
      <trkpt lat="47.29429" lon="-0.42141">
        <ele>65.4</ele>
        <time>2020-08-02T08:10:59Z</time>
      </trkpt>
      <trkpt lat="47.29438" lon="-0.42136">
        <ele>65.4</ele>
        <time>2020-08-02T08:11:01Z</time>
      </trkpt>
      <trkpt lat="47.29447" lon="-0.42132">
        <ele>65.2</ele>
        <time>2020-08-02T08:11:03Z</time>
      </trkpt>
      <trkpt lat="47.29452" lon="-0.42129">
        <ele>65.2</ele>
        <time>2020-08-02T08:11:04Z</time>
      </trkpt>
      <trkpt lat="47.29456" lon="-0.42127">
        <ele>65.2</ele>
        <time>2020-08-02T08:11:05Z</time>
      </trkpt>
      <trkpt lat="47.2946" lon="-0.42125">
        <ele>65.2</ele>
        <time>2020-08-02T08:11:06Z</time>
      </trkpt>
      <trkpt lat="47.29464" lon="-0.42124">
        <ele>65.2</ele>
        <time>2020-08-02T08:11:07Z</time>
      </trkpt>
      <trkpt lat="47.29469" lon="-0.42122">
        <ele>65.2</ele>
        <time>2020-08-02T08:11:08Z</time>
      </trkpt>
      <trkpt lat="47.29474" lon="-0.4212">
        <ele>65.2</ele>
        <time>2020-08-02T08:11:09Z</time>
      </trkpt>
      <trkpt lat="47.29478" lon="-0.42119">
        <ele>65.4</ele>
        <time>2020-08-02T08:11:10Z</time>
      </trkpt>
      <trkpt lat="47.29483" lon="-0.42117">
        <ele>65.4</ele>
        <time>2020-08-02T08:11:11Z</time>
      </trkpt>
      <trkpt lat="47.29487" lon="-0.42116">
        <ele>65.6</ele>
        <time>2020-08-02T08:11:12Z</time>
      </trkpt>
      <trkpt lat="47.29492" lon="-0.42116">
        <ele>65.6</ele>
        <time>2020-08-02T08:11:13Z</time>
      </trkpt>
      <trkpt lat="47.29497" lon="-0.42116">
        <ele>65.8</ele>
        <time>2020-08-02T08:11:14Z</time>
      </trkpt>
      <trkpt lat="47.29502" lon="-0.42116">
        <ele>65.8</ele>
        <time>2020-08-02T08:11:15Z</time>
      </trkpt>
      <trkpt lat="47.29506" lon="-0.42115">
        <ele>65.8</ele>
        <time>2020-08-02T08:11:16Z</time>
      </trkpt>
      <trkpt lat="47.29511" lon="-0.42115">
        <ele>65.8</ele>
        <time>2020-08-02T08:11:17Z</time>
      </trkpt>
      <trkpt lat="47.29515" lon="-0.42115">
        <ele>65.8</ele>
        <time>2020-08-02T08:11:18Z</time>
      </trkpt>
      <trkpt lat="47.29521" lon="-0.42115">
        <ele>66</ele>
        <time>2020-08-02T08:11:19Z</time>
      </trkpt>
      <trkpt lat="47.29524" lon="-0.42115">
        <ele>66</ele>
        <time>2020-08-02T08:11:20Z</time>
      </trkpt>
      <trkpt lat="47.2953" lon="-0.42115">
        <ele>66</ele>
        <time>2020-08-02T08:11:21Z</time>
      </trkpt>
      <trkpt lat="47.29534" lon="-0.42115">
        <ele>65.8</ele>
        <time>2020-08-02T08:11:22Z</time>
      </trkpt>
      <trkpt lat="47.29537" lon="-0.42114">
        <ele>65.8</ele>
        <time>2020-08-02T08:11:23Z</time>
      </trkpt>
      <trkpt lat="47.29542" lon="-0.42114">
        <ele>65.8</ele>
        <time>2020-08-02T08:11:24Z</time>
      </trkpt>
      <trkpt lat="47.29547" lon="-0.42112">
        <ele>65.8</ele>
        <time>2020-08-02T08:11:25Z</time>
      </trkpt>
      <trkpt lat="47.29551" lon="-0.4211">
        <ele>65.8</ele>
        <time>2020-08-02T08:11:26Z</time>
      </trkpt>
      <trkpt lat="47.29556" lon="-0.42109">
        <ele>65.6</ele>
        <time>2020-08-02T08:11:27Z</time>
      </trkpt>
      <trkpt lat="47.29569" lon="-0.42105">
        <ele>65.6</ele>
        <time>2020-08-02T08:11:30Z</time>
      </trkpt>
      <trkpt lat="47.29573" lon="-0.42103">
        <ele>65.6</ele>
        <time>2020-08-02T08:11:31Z</time>
      </trkpt>
      <trkpt lat="47.29581" lon="-0.42099">
        <ele>65.6</ele>
        <time>2020-08-02T08:11:33Z</time>
      </trkpt>
      <trkpt lat="47.29613" lon="-0.42081">
        <ele>65.8</ele>
        <time>2020-08-02T08:11:40Z</time>
      </trkpt>
      <trkpt lat="47.2962" lon="-0.42077">
        <ele>65.8</ele>
        <time>2020-08-02T08:11:42Z</time>
      </trkpt>
      <trkpt lat="47.29646" lon="-0.42063">
        <ele>65.4</ele>
        <time>2020-08-02T08:11:48Z</time>
      </trkpt>
      <trkpt lat="47.29651" lon="-0.42061">
        <ele>65.4</ele>
        <time>2020-08-02T08:11:49Z</time>
      </trkpt>
      <trkpt lat="47.29654" lon="-0.42058">
        <ele>65.4</ele>
        <time>2020-08-02T08:11:50Z</time>
      </trkpt>
      <trkpt lat="47.29657" lon="-0.42054">
        <ele>65.4</ele>
        <time>2020-08-02T08:11:51Z</time>
      </trkpt>
      <trkpt lat="47.29658" lon="-0.42051">
        <ele>65.4</ele>
        <time>2020-08-02T08:11:52Z</time>
      </trkpt>
      <trkpt lat="47.29659" lon="-0.42045">
        <ele>65.4</ele>
        <time>2020-08-02T08:11:53Z</time>
      </trkpt>
      <trkpt lat="47.29658" lon="-0.42039">
        <ele>65.4</ele>
        <time>2020-08-02T08:11:54Z</time>
      </trkpt>
      <trkpt lat="47.29657" lon="-0.42034">
        <ele>65.4</ele>
        <time>2020-08-02T08:11:55Z</time>
      </trkpt>
      <trkpt lat="47.29656" lon="-0.42029">
        <ele>65.4</ele>
        <time>2020-08-02T08:11:56Z</time>
      </trkpt>
      <trkpt lat="47.29654" lon="-0.42025">
        <ele>65.4</ele>
        <time>2020-08-02T08:11:57Z</time>
      </trkpt>
      <trkpt lat="47.29652" lon="-0.42019">
        <ele>65.2</ele>
        <time>2020-08-02T08:11:58Z</time>
      </trkpt>
      <trkpt lat="47.2965" lon="-0.42013">
        <ele>65.2</ele>
        <time>2020-08-02T08:11:59Z</time>
      </trkpt>
      <trkpt lat="47.29648" lon="-0.42008">
        <ele>65.2</ele>
        <time>2020-08-02T08:12:00Z</time>
      </trkpt>
      <trkpt lat="47.29646" lon="-0.42002">
        <ele>65.2</ele>
        <time>2020-08-02T08:12:01Z</time>
      </trkpt>
      <trkpt lat="47.29645" lon="-0.41998">
        <ele>65.2</ele>
        <time>2020-08-02T08:12:02Z</time>
      </trkpt>
      <trkpt lat="47.29642" lon="-0.41991">
        <ele>65.2</ele>
        <time>2020-08-02T08:12:03Z</time>
      </trkpt>
      <trkpt lat="47.29638" lon="-0.41978">
        <ele>65.2</ele>
        <time>2020-08-02T08:12:05Z</time>
      </trkpt>
      <trkpt lat="47.29635" lon="-0.41973">
        <ele>65.2</ele>
        <time>2020-08-02T08:12:06Z</time>
      </trkpt>
      <trkpt lat="47.29631" lon="-0.4196">
        <ele>65.2</ele>
        <time>2020-08-02T08:12:08Z</time>
      </trkpt>
      <trkpt lat="47.29608" lon="-0.41907">
        <ele>66</ele>
        <time>2020-08-02T08:12:17Z</time>
      </trkpt>
      <trkpt lat="47.29595" lon="-0.41878">
        <ele>66</ele>
        <time>2020-08-02T08:12:22Z</time>
      </trkpt>
      <trkpt lat="47.29593" lon="-0.41873">
        <ele>66</ele>
        <time>2020-08-02T08:12:23Z</time>
      </trkpt>
      <trkpt lat="47.29587" lon="-0.41861">
        <ele>66</ele>
        <time>2020-08-02T08:12:25Z</time>
      </trkpt>
      <trkpt lat="47.29585" lon="-0.41855">
        <ele>66</ele>
        <time>2020-08-02T08:12:26Z</time>
      </trkpt>
      <trkpt lat="47.29583" lon="-0.4185">
        <ele>66</ele>
        <time>2020-08-02T08:12:27Z</time>
      </trkpt>
      <trkpt lat="47.2958" lon="-0.41844">
        <ele>66.2</ele>
        <time>2020-08-02T08:12:28Z</time>
      </trkpt>
      <trkpt lat="47.29578" lon="-0.41838">
        <ele>66.2</ele>
        <time>2020-08-02T08:12:29Z</time>
      </trkpt>
      <trkpt lat="47.29575" lon="-0.41832">
        <ele>66.2</ele>
        <time>2020-08-02T08:12:30Z</time>
      </trkpt>
      <trkpt lat="47.29573" lon="-0.41827">
        <ele>66.4</ele>
        <time>2020-08-02T08:12:31Z</time>
      </trkpt>
      <trkpt lat="47.2957" lon="-0.41821">
        <ele>66.6</ele>
        <time>2020-08-02T08:12:32Z</time>
      </trkpt>
      <trkpt lat="47.29565" lon="-0.41809">
        <ele>66.8</ele>
        <time>2020-08-02T08:12:34Z</time>
      </trkpt>
      <trkpt lat="47.2956" lon="-0.41798">
        <ele>67</ele>
        <time>2020-08-02T08:12:36Z</time>
      </trkpt>
      <trkpt lat="47.29558" lon="-0.41792">
        <ele>67</ele>
        <time>2020-08-02T08:12:37Z</time>
      </trkpt>
      <trkpt lat="47.29555" lon="-0.41786">
        <ele>67.2</ele>
        <time>2020-08-02T08:12:38Z</time>
      </trkpt>
      <trkpt lat="47.29553" lon="-0.41781">
        <ele>67.2</ele>
        <time>2020-08-02T08:12:39Z</time>
      </trkpt>
      <trkpt lat="47.29535" lon="-0.41737">
        <ele>68</ele>
        <time>2020-08-02T08:12:46Z</time>
      </trkpt>
      <trkpt lat="47.29525" lon="-0.41714">
        <ele>68.2</ele>
        <time>2020-08-02T08:12:50Z</time>
      </trkpt>
      <trkpt lat="47.29523" lon="-0.41708">
        <ele>68.2</ele>
        <time>2020-08-02T08:12:51Z</time>
      </trkpt>
      <trkpt lat="47.29521" lon="-0.41702">
        <ele>68.2</ele>
        <time>2020-08-02T08:12:52Z</time>
      </trkpt>
      <trkpt lat="47.29518" lon="-0.41697">
        <ele>68.4</ele>
        <time>2020-08-02T08:12:53Z</time>
      </trkpt>
      <trkpt lat="47.29516" lon="-0.41692">
        <ele>68.4</ele>
        <time>2020-08-02T08:12:54Z</time>
      </trkpt>
      <trkpt lat="47.29513" lon="-0.41686">
        <ele>68.4</ele>
        <time>2020-08-02T08:12:55Z</time>
      </trkpt>
      <trkpt lat="47.29511" lon="-0.41681">
        <ele>68.4</ele>
        <time>2020-08-02T08:12:56Z</time>
      </trkpt>
      <trkpt lat="47.2951" lon="-0.41676">
        <ele>68.4</ele>
        <time>2020-08-02T08:12:57Z</time>
      </trkpt>
      <trkpt lat="47.29508" lon="-0.41671">
        <ele>68.4</ele>
        <time>2020-08-02T08:12:58Z</time>
      </trkpt>
      <trkpt lat="47.29508" lon="-0.41665">
        <ele>68.6</ele>
        <time>2020-08-02T08:12:59Z</time>
      </trkpt>
      <trkpt lat="47.2951" lon="-0.4166">
        <ele>68.6</ele>
        <time>2020-08-02T08:13:00Z</time>
      </trkpt>
      <trkpt lat="47.29513" lon="-0.41657">
        <ele>68.6</ele>
        <time>2020-08-02T08:13:01Z</time>
      </trkpt>
      <trkpt lat="47.29516" lon="-0.41657">
        <ele>68.6</ele>
        <time>2020-08-02T08:13:02Z</time>
      </trkpt>
      <trkpt lat="47.2952" lon="-0.41658">
        <ele>68.6</ele>
        <time>2020-08-02T08:13:03Z</time>
      </trkpt>
      <trkpt lat="47.29529" lon="-0.41662">
        <ele>68.6</ele>
        <time>2020-08-02T08:13:05Z</time>
      </trkpt>
      <trkpt lat="47.29547" lon="-0.41671">
        <ele>68.4</ele>
        <time>2020-08-02T08:13:09Z</time>
      </trkpt>
      <trkpt lat="47.29556" lon="-0.41675">
        <ele>68.2</ele>
        <time>2020-08-02T08:13:11Z</time>
      </trkpt>
      <trkpt lat="47.2958" lon="-0.41684">
        <ele>67.8</ele>
        <time>2020-08-02T08:13:16Z</time>
      </trkpt>
      <trkpt lat="47.296" lon="-0.41689">
        <ele>67.6</ele>
        <time>2020-08-02T08:13:20Z</time>
      </trkpt>
      <trkpt lat="47.29615" lon="-0.41695">
        <ele>67.4</ele>
        <time>2020-08-02T08:13:23Z</time>
      </trkpt>
      <trkpt lat="47.29649" lon="-0.41706">
        <ele>67</ele>
        <time>2020-08-02T08:13:30Z</time>
      </trkpt>
      <trkpt lat="47.29653" lon="-0.41707">
        <ele>67</ele>
        <time>2020-08-02T08:13:31Z</time>
      </trkpt>
      <trkpt lat="47.29658" lon="-0.41708">
        <ele>67</ele>
        <time>2020-08-02T08:13:32Z</time>
      </trkpt>
      <trkpt lat="47.29662" lon="-0.41709">
        <ele>66.8</ele>
        <time>2020-08-02T08:13:33Z</time>
      </trkpt>
      <trkpt lat="47.29667" lon="-0.4171">
        <ele>66.8</ele>
        <time>2020-08-02T08:13:34Z</time>
      </trkpt>
      <trkpt lat="47.29672" lon="-0.41711">
        <ele>66.8</ele>
        <time>2020-08-02T08:13:35Z</time>
      </trkpt>
      <trkpt lat="47.29676" lon="-0.41712">
        <ele>66.6</ele>
        <time>2020-08-02T08:13:36Z</time>
      </trkpt>
      <trkpt lat="47.2968" lon="-0.41713">
        <ele>66.6</ele>
        <time>2020-08-02T08:13:37Z</time>
      </trkpt>
      <trkpt lat="47.29684" lon="-0.41713">
        <ele>66.4</ele>
        <time>2020-08-02T08:13:38Z</time>
      </trkpt>
      <trkpt lat="47.29687" lon="-0.41713">
        <ele>66.4</ele>
        <time>2020-08-02T08:13:39Z</time>
      </trkpt>
      <trkpt lat="47.29691" lon="-0.41713">
        <ele>66.4</ele>
        <time>2020-08-02T08:13:40Z</time>
      </trkpt>
      <trkpt lat="47.29694" lon="-0.41712">
        <ele>66.2</ele>
        <time>2020-08-02T08:13:41Z</time>
      </trkpt>
      <trkpt lat="47.29697" lon="-0.41709">
        <ele>66.2</ele>
        <time>2020-08-02T08:13:42Z</time>
      </trkpt>
      <trkpt lat="47.29698" lon="-0.41704">
        <ele>66.2</ele>
        <time>2020-08-02T08:13:43Z</time>
      </trkpt>
      <trkpt lat="47.29698" lon="-0.41699">
        <ele>66.2</ele>
        <time>2020-08-02T08:13:44Z</time>
      </trkpt>
      <trkpt lat="47.29697" lon="-0.41692">
        <ele>66.2</ele>
        <time>2020-08-02T08:13:45Z</time>
      </trkpt>
      <trkpt lat="47.29695" lon="-0.41679">
        <ele>66.2</ele>
        <time>2020-08-02T08:13:47Z</time>
      </trkpt>
      <trkpt lat="47.29687" lon="-0.41625">
        <ele>66.6</ele>
        <time>2020-08-02T08:13:55Z</time>
      </trkpt>
      <trkpt lat="47.29686" lon="-0.41618">
        <ele>66.6</ele>
        <time>2020-08-02T08:13:56Z</time>
      </trkpt>
      <trkpt lat="47.29677" lon="-0.41563">
        <ele>67</ele>
        <time>2020-08-02T08:14:04Z</time>
      </trkpt>
      <trkpt lat="47.29676" lon="-0.41557">
        <ele>67.2</ele>
        <time>2020-08-02T08:14:05Z</time>
      </trkpt>
      <trkpt lat="47.29675" lon="-0.4155">
        <ele>67.2</ele>
        <time>2020-08-02T08:14:06Z</time>
      </trkpt>
      <trkpt lat="47.29674" lon="-0.41544">
        <ele>67.2</ele>
        <time>2020-08-02T08:14:07Z</time>
      </trkpt>
      <trkpt lat="47.29673" lon="-0.41537">
        <ele>67.4</ele>
        <time>2020-08-02T08:14:08Z</time>
      </trkpt>
      <trkpt lat="47.29672" lon="-0.41531">
        <ele>67.4</ele>
        <time>2020-08-02T08:14:09Z</time>
      </trkpt>
      <trkpt lat="47.29672" lon="-0.41525">
        <ele>67.4</ele>
        <time>2020-08-02T08:14:10Z</time>
      </trkpt>
      <trkpt lat="47.29671" lon="-0.4152">
        <ele>67.4</ele>
        <time>2020-08-02T08:14:11Z</time>
      </trkpt>
      <trkpt lat="47.29671" lon="-0.41514">
        <ele>67.4</ele>
        <time>2020-08-02T08:14:12Z</time>
      </trkpt>
      <trkpt lat="47.29672" lon="-0.41508">
        <ele>67.4</ele>
        <time>2020-08-02T08:14:13Z</time>
      </trkpt>
      <trkpt lat="47.29673" lon="-0.41502">
        <ele>67.4</ele>
        <time>2020-08-02T08:14:14Z</time>
      </trkpt>
      <trkpt lat="47.29675" lon="-0.41497">
        <ele>67.4</ele>
        <time>2020-08-02T08:14:15Z</time>
      </trkpt>
      <trkpt lat="47.29678" lon="-0.41491">
        <ele>67.4</ele>
        <time>2020-08-02T08:14:16Z</time>
      </trkpt>
      <trkpt lat="47.29681" lon="-0.41487">
        <ele>67.4</ele>
        <time>2020-08-02T08:14:17Z</time>
      </trkpt>
      <trkpt lat="47.29685" lon="-0.41481">
        <ele>67.4</ele>
        <time>2020-08-02T08:14:18Z</time>
      </trkpt>
      <trkpt lat="47.29688" lon="-0.41476">
        <ele>67.2</ele>
        <time>2020-08-02T08:14:19Z</time>
      </trkpt>
      <trkpt lat="47.29699" lon="-0.41452">
        <ele>67.2</ele>
        <time>2020-08-02T08:14:23Z</time>
      </trkpt>
      <trkpt lat="47.29701" lon="-0.41445">
        <ele>67.2</ele>
        <time>2020-08-02T08:14:24Z</time>
      </trkpt>
      <trkpt lat="47.29702" lon="-0.41439">
        <ele>67.2</ele>
        <time>2020-08-02T08:14:25Z</time>
      </trkpt>
      <trkpt lat="47.29703" lon="-0.41432">
        <ele>67.2</ele>
        <time>2020-08-02T08:14:26Z</time>
      </trkpt>
      <trkpt lat="47.29703" lon="-0.41425">
        <ele>67</ele>
        <time>2020-08-02T08:14:27Z</time>
      </trkpt>
      <trkpt lat="47.29702" lon="-0.41418">
        <ele>66.8</ele>
        <time>2020-08-02T08:14:28Z</time>
      </trkpt>
      <trkpt lat="47.29697" lon="-0.41373">
        <ele>66.8</ele>
        <time>2020-08-02T08:14:34Z</time>
      </trkpt>
      <trkpt lat="47.29698" lon="-0.41366">
        <ele>66.8</ele>
        <time>2020-08-02T08:14:35Z</time>
      </trkpt>
      <trkpt lat="47.29699" lon="-0.41358">
        <ele>66.8</ele>
        <time>2020-08-02T08:14:36Z</time>
      </trkpt>
      <trkpt lat="47.297" lon="-0.41351">
        <ele>66.8</ele>
        <time>2020-08-02T08:14:37Z</time>
      </trkpt>
      <trkpt lat="47.29703" lon="-0.41336">
        <ele>66.8</ele>
        <time>2020-08-02T08:14:39Z</time>
      </trkpt>
      <trkpt lat="47.29708" lon="-0.41316">
        <ele>66.8</ele>
        <time>2020-08-02T08:14:42Z</time>
      </trkpt>
      <trkpt lat="47.2971" lon="-0.41309">
        <ele>67</ele>
        <time>2020-08-02T08:14:43Z</time>
      </trkpt>
      <trkpt lat="47.29711" lon="-0.41302">
        <ele>67</ele>
        <time>2020-08-02T08:14:44Z</time>
      </trkpt>
      <trkpt lat="47.29713" lon="-0.41295">
        <ele>67</ele>
        <time>2020-08-02T08:14:45Z</time>
      </trkpt>
      <trkpt lat="47.29715" lon="-0.41289">
        <ele>67</ele>
        <time>2020-08-02T08:14:46Z</time>
      </trkpt>
      <trkpt lat="47.29717" lon="-0.41283">
        <ele>67</ele>
        <time>2020-08-02T08:14:47Z</time>
      </trkpt>
      <trkpt lat="47.29718" lon="-0.41277">
        <ele>67</ele>
        <time>2020-08-02T08:14:48Z</time>
      </trkpt>
      <trkpt lat="47.2972" lon="-0.4127">
        <ele>67</ele>
        <time>2020-08-02T08:14:49Z</time>
      </trkpt>
      <trkpt lat="47.29721" lon="-0.41264">
        <ele>67</ele>
        <time>2020-08-02T08:14:50Z</time>
      </trkpt>
      <trkpt lat="47.29723" lon="-0.41257">
        <ele>67</ele>
        <time>2020-08-02T08:14:51Z</time>
      </trkpt>
      <trkpt lat="47.29725" lon="-0.4125">
        <ele>67</ele>
        <time>2020-08-02T08:14:52Z</time>
      </trkpt>
      <trkpt lat="47.29727" lon="-0.41243">
        <ele>67</ele>
        <time>2020-08-02T08:14:53Z</time>
      </trkpt>
      <trkpt lat="47.29729" lon="-0.41237">
        <ele>67</ele>
        <time>2020-08-02T08:14:54Z</time>
      </trkpt>
      <trkpt lat="47.29731" lon="-0.41231">
        <ele>67</ele>
        <time>2020-08-02T08:14:55Z</time>
      </trkpt>
      <trkpt lat="47.29733" lon="-0.41225">
        <ele>67</ele>
        <time>2020-08-02T08:14:56Z</time>
      </trkpt>
      <trkpt lat="47.29735" lon="-0.41218">
        <ele>66.8</ele>
        <time>2020-08-02T08:14:57Z</time>
      </trkpt>
      <trkpt lat="47.29737" lon="-0.41212">
        <ele>66.8</ele>
        <time>2020-08-02T08:14:58Z</time>
      </trkpt>
      <trkpt lat="47.29738" lon="-0.41205">
        <ele>66.8</ele>
        <time>2020-08-02T08:14:59Z</time>
      </trkpt>
      <trkpt lat="47.29739" lon="-0.41198">
        <ele>66.8</ele>
        <time>2020-08-02T08:15:00Z</time>
      </trkpt>
      <trkpt lat="47.2974" lon="-0.41191">
        <ele>66.8</ele>
        <time>2020-08-02T08:15:01Z</time>
      </trkpt>
      <trkpt lat="47.2974" lon="-0.41183">
        <ele>66.8</ele>
        <time>2020-08-02T08:15:02Z</time>
      </trkpt>
      <trkpt lat="47.29741" lon="-0.41176">
        <ele>66.6</ele>
        <time>2020-08-02T08:15:03Z</time>
      </trkpt>
      <trkpt lat="47.2974" lon="-0.41168">
        <ele>66.6</ele>
        <time>2020-08-02T08:15:04Z</time>
      </trkpt>
      <trkpt lat="47.2974" lon="-0.41154">
        <ele>66.6</ele>
        <time>2020-08-02T08:15:06Z</time>
      </trkpt>
      <trkpt lat="47.2974" lon="-0.41147">
        <ele>66.6</ele>
        <time>2020-08-02T08:15:07Z</time>
      </trkpt>
      <trkpt lat="47.29739" lon="-0.41141">
        <ele>66.6</ele>
        <time>2020-08-02T08:15:08Z</time>
      </trkpt>
      <trkpt lat="47.29738" lon="-0.41133">
        <ele>66.6</ele>
        <time>2020-08-02T08:15:09Z</time>
      </trkpt>
      <trkpt lat="47.29737" lon="-0.41126">
        <ele>66.6</ele>
        <time>2020-08-02T08:15:10Z</time>
      </trkpt>
      <trkpt lat="47.29736" lon="-0.41121">
        <ele>66.6</ele>
        <time>2020-08-02T08:15:11Z</time>
      </trkpt>
      <trkpt lat="47.29735" lon="-0.41115">
        <ele>66.6</ele>
        <time>2020-08-02T08:15:12Z</time>
      </trkpt>
      <trkpt lat="47.29733" lon="-0.41108">
        <ele>66.6</ele>
        <time>2020-08-02T08:15:13Z</time>
      </trkpt>
      <trkpt lat="47.29732" lon="-0.41101">
        <ele>66.6</ele>
        <time>2020-08-02T08:15:14Z</time>
      </trkpt>
      <trkpt lat="47.29729" lon="-0.41089">
        <ele>66.6</ele>
        <time>2020-08-02T08:15:15Z</time>
      </trkpt>
      <trkpt lat="47.29727" lon="-0.41079">
        <ele>66.6</ele>
        <time>2020-08-02T08:15:16Z</time>
      </trkpt>
      <trkpt lat="47.29724" lon="-0.41067">
        <ele>66.6</ele>
        <time>2020-08-02T08:15:17Z</time>
      </trkpt>
      <trkpt lat="47.29724" lon="-0.4106">
        <ele>66.6</ele>
        <time>2020-08-02T08:15:18Z</time>
      </trkpt>
      <trkpt lat="47.29725" lon="-0.41049">
        <ele>66.6</ele>
        <time>2020-08-02T08:15:19Z</time>
      </trkpt>
      <trkpt lat="47.29726" lon="-0.41034">
        <ele>66.8</ele>
        <time>2020-08-02T08:15:21Z</time>
      </trkpt>
      <trkpt lat="47.29725" lon="-0.41025">
        <ele>66.6</ele>
        <time>2020-08-02T08:15:22Z</time>
      </trkpt>
      <trkpt lat="47.29726" lon="-0.41017">
        <ele>66.8</ele>
        <time>2020-08-02T08:15:23Z</time>
      </trkpt>
      <trkpt lat="47.29729" lon="-0.40995">
        <ele>66.8</ele>
        <time>2020-08-02T08:15:26Z</time>
      </trkpt>
      <trkpt lat="47.29729" lon="-0.40989">
        <ele>66.8</ele>
        <time>2020-08-02T08:15:27Z</time>
      </trkpt>
      <trkpt lat="47.2973" lon="-0.40982">
        <ele>66.8</ele>
        <time>2020-08-02T08:15:28Z</time>
      </trkpt>
      <trkpt lat="47.29731" lon="-0.40974">
        <ele>66.8</ele>
        <time>2020-08-02T08:15:29Z</time>
      </trkpt>
      <trkpt lat="47.29732" lon="-0.40969">
        <ele>66.8</ele>
        <time>2020-08-02T08:15:30Z</time>
      </trkpt>
      <trkpt lat="47.29732" lon="-0.40962">
        <ele>66.6</ele>
        <time>2020-08-02T08:15:31Z</time>
      </trkpt>
      <trkpt lat="47.29734" lon="-0.40956">
        <ele>66.6</ele>
        <time>2020-08-02T08:15:32Z</time>
      </trkpt>
      <trkpt lat="47.29736" lon="-0.40951">
        <ele>66.8</ele>
        <time>2020-08-02T08:15:33Z</time>
      </trkpt>
      <trkpt lat="47.29739" lon="-0.40945">
        <ele>66.8</ele>
        <time>2020-08-02T08:15:34Z</time>
      </trkpt>
      <trkpt lat="47.29743" lon="-0.40939">
        <ele>66.8</ele>
        <time>2020-08-02T08:15:35Z</time>
      </trkpt>
      <trkpt lat="47.29748" lon="-0.40934">
        <ele>66.8</ele>
        <time>2020-08-02T08:15:36Z</time>
      </trkpt>
      <trkpt lat="47.29752" lon="-0.4093">
        <ele>66.8</ele>
        <time>2020-08-02T08:15:37Z</time>
      </trkpt>
      <trkpt lat="47.29757" lon="-0.40923">
        <ele>66.8</ele>
        <time>2020-08-02T08:15:38Z</time>
      </trkpt>
      <trkpt lat="47.29768" lon="-0.40908">
        <ele>66.8</ele>
        <time>2020-08-02T08:15:41Z</time>
      </trkpt>
      <trkpt lat="47.29772" lon="-0.40904">
        <ele>66.8</ele>
        <time>2020-08-02T08:15:42Z</time>
      </trkpt>
      <trkpt lat="47.29782" lon="-0.40894">
        <ele>66.8</ele>
        <time>2020-08-02T08:15:44Z</time>
      </trkpt>
      <trkpt lat="47.29798" lon="-0.40873">
        <ele>66.4</ele>
        <time>2020-08-02T08:15:48Z</time>
      </trkpt>
      <trkpt lat="47.29819" lon="-0.40847">
        <ele>66.2</ele>
        <time>2020-08-02T08:15:53Z</time>
      </trkpt>
      <trkpt lat="47.29838" lon="-0.40828">
        <ele>66</ele>
        <time>2020-08-02T08:15:57Z</time>
      </trkpt>
      <trkpt lat="47.29843" lon="-0.40825">
        <ele>66</ele>
        <time>2020-08-02T08:15:58Z</time>
      </trkpt>
      <trkpt lat="47.29849" lon="-0.40823">
        <ele>66</ele>
        <time>2020-08-02T08:15:59Z</time>
      </trkpt>
      <trkpt lat="47.29855" lon="-0.40823">
        <ele>65.8</ele>
        <time>2020-08-02T08:16:00Z</time>
      </trkpt>
      <trkpt lat="47.29862" lon="-0.40823">
        <ele>65.8</ele>
        <time>2020-08-02T08:16:01Z</time>
      </trkpt>
      <trkpt lat="47.29868" lon="-0.40824">
        <ele>65.8</ele>
        <time>2020-08-02T08:16:02Z</time>
      </trkpt>
      <trkpt lat="47.29873" lon="-0.40826">
        <ele>65.8</ele>
        <time>2020-08-02T08:16:03Z</time>
      </trkpt>
      <trkpt lat="47.2989" lon="-0.40836">
        <ele>65.8</ele>
        <time>2020-08-02T08:16:06Z</time>
      </trkpt>
      <trkpt lat="47.29895" lon="-0.4084">
        <ele>65.8</ele>
        <time>2020-08-02T08:16:07Z</time>
      </trkpt>
      <trkpt lat="47.29899" lon="-0.40844">
        <ele>65.8</ele>
        <time>2020-08-02T08:16:08Z</time>
      </trkpt>
      <trkpt lat="47.29904" lon="-0.40848">
        <ele>65.8</ele>
        <time>2020-08-02T08:16:09Z</time>
      </trkpt>
      <trkpt lat="47.2991" lon="-0.40853">
        <ele>65.6</ele>
        <time>2020-08-02T08:16:10Z</time>
      </trkpt>
      <trkpt lat="47.29914" lon="-0.40856">
        <ele>65.6</ele>
        <time>2020-08-02T08:16:11Z</time>
      </trkpt>
      <trkpt lat="47.29918" lon="-0.4086">
        <ele>65.6</ele>
        <time>2020-08-02T08:16:12Z</time>
      </trkpt>
      <trkpt lat="47.29923" lon="-0.40863">
        <ele>65.8</ele>
        <time>2020-08-02T08:16:13Z</time>
      </trkpt>
      <trkpt lat="47.29927" lon="-0.40865">
        <ele>65.8</ele>
        <time>2020-08-02T08:16:14Z</time>
      </trkpt>
      <trkpt lat="47.29932" lon="-0.40867">
        <ele>65.8</ele>
        <time>2020-08-02T08:16:15Z</time>
      </trkpt>
      <trkpt lat="47.29937" lon="-0.40868">
        <ele>65.8</ele>
        <time>2020-08-02T08:16:16Z</time>
      </trkpt>
      <trkpt lat="47.29942" lon="-0.40868">
        <ele>65.8</ele>
        <time>2020-08-02T08:16:17Z</time>
      </trkpt>
      <trkpt lat="47.29945" lon="-0.40868">
        <ele>65.8</ele>
        <time>2020-08-02T08:16:18Z</time>
      </trkpt>
      <trkpt lat="47.2995" lon="-0.40868">
        <ele>65.8</ele>
        <time>2020-08-02T08:16:19Z</time>
      </trkpt>
      <trkpt lat="47.29974" lon="-0.40865">
        <ele>65.6</ele>
        <time>2020-08-02T08:16:23Z</time>
      </trkpt>
      <trkpt lat="47.29978" lon="-0.40864">
        <ele>65.6</ele>
        <time>2020-08-02T08:16:24Z</time>
      </trkpt>
      <trkpt lat="47.29989" lon="-0.40862">
        <ele>65.2</ele>
        <time>2020-08-02T08:16:26Z</time>
      </trkpt>
      <trkpt lat="47.29994" lon="-0.40862">
        <ele>65.2</ele>
        <time>2020-08-02T08:16:27Z</time>
      </trkpt>
      <trkpt lat="47.30026" lon="-0.40857">
        <ele>64.8</ele>
        <time>2020-08-02T08:16:33Z</time>
      </trkpt>
      <trkpt lat="47.30032" lon="-0.40856">
        <ele>64.8</ele>
        <time>2020-08-02T08:16:34Z</time>
      </trkpt>
      <trkpt lat="47.30037" lon="-0.40855">
        <ele>64.8</ele>
        <time>2020-08-02T08:16:35Z</time>
      </trkpt>
      <trkpt lat="47.30042" lon="-0.40855">
        <ele>64.8</ele>
        <time>2020-08-02T08:16:36Z</time>
      </trkpt>
      <trkpt lat="47.30049" lon="-0.40854">
        <ele>64.8</ele>
        <time>2020-08-02T08:16:37Z</time>
      </trkpt>
      <trkpt lat="47.30054" lon="-0.40853">
        <ele>64.8</ele>
        <time>2020-08-02T08:16:38Z</time>
      </trkpt>
      <trkpt lat="47.30058" lon="-0.40852">
        <ele>64.6</ele>
        <time>2020-08-02T08:16:39Z</time>
      </trkpt>
      <trkpt lat="47.30063" lon="-0.40852">
        <ele>64.6</ele>
        <time>2020-08-02T08:16:40Z</time>
      </trkpt>
      <trkpt lat="47.30068" lon="-0.40851">
        <ele>64.6</ele>
        <time>2020-08-02T08:16:41Z</time>
      </trkpt>
      <trkpt lat="47.30073" lon="-0.40851">
        <ele>64.6</ele>
        <time>2020-08-02T08:16:42Z</time>
      </trkpt>
      <trkpt lat="47.30078" lon="-0.4085">
        <ele>64.6</ele>
        <time>2020-08-02T08:16:43Z</time>
      </trkpt>
      <trkpt lat="47.30083" lon="-0.40849">
        <ele>64.6</ele>
        <time>2020-08-02T08:16:44Z</time>
      </trkpt>
      <trkpt lat="47.30087" lon="-0.40848">
        <ele>64.6</ele>
        <time>2020-08-02T08:16:45Z</time>
      </trkpt>
      <trkpt lat="47.30091" lon="-0.40848">
        <ele>64.6</ele>
        <time>2020-08-02T08:16:46Z</time>
      </trkpt>
      <trkpt lat="47.30096" lon="-0.40847">
        <ele>64.6</ele>
        <time>2020-08-02T08:16:47Z</time>
      </trkpt>
      <trkpt lat="47.30115" lon="-0.40843">
        <ele>64.6</ele>
        <time>2020-08-02T08:16:51Z</time>
      </trkpt>
      <trkpt lat="47.3012" lon="-0.40843">
        <ele>64.6</ele>
        <time>2020-08-02T08:16:52Z</time>
      </trkpt>
      <trkpt lat="47.30123" lon="-0.40842">
        <ele>64.8</ele>
        <time>2020-08-02T08:16:53Z</time>
      </trkpt>
      <trkpt lat="47.30127" lon="-0.40841">
        <ele>64.8</ele>
        <time>2020-08-02T08:16:54Z</time>
      </trkpt>
      <trkpt lat="47.3013" lon="-0.40841">
        <ele>64.8</ele>
        <time>2020-08-02T08:16:55Z</time>
      </trkpt>
      <trkpt lat="47.30133" lon="-0.40839">
        <ele>64.8</ele>
        <time>2020-08-02T08:16:56Z</time>
      </trkpt>
      <trkpt lat="47.30136" lon="-0.40839">
        <ele>64.8</ele>
        <time>2020-08-02T08:16:57Z</time>
      </trkpt>
      <trkpt lat="47.30138" lon="-0.40837">
        <ele>65</ele>
        <time>2020-08-02T08:16:58Z</time>
      </trkpt>
      <trkpt lat="47.30141" lon="-0.40836">
        <ele>65</ele>
        <time>2020-08-02T08:16:59Z</time>
      </trkpt>
      <trkpt lat="47.30144" lon="-0.40835">
        <ele>65.2</ele>
        <time>2020-08-02T08:17:00Z</time>
      </trkpt>
      <trkpt lat="47.30147" lon="-0.40834">
        <ele>65.2</ele>
        <time>2020-08-02T08:17:01Z</time>
      </trkpt>
      <trkpt lat="47.3015" lon="-0.40834">
        <ele>65.2</ele>
        <time>2020-08-02T08:17:02Z</time>
      </trkpt>
      <trkpt lat="47.30154" lon="-0.40833">
        <ele>65.2</ele>
        <time>2020-08-02T08:17:03Z</time>
      </trkpt>
      <trkpt lat="47.30169" lon="-0.40828">
        <ele>65.4</ele>
        <time>2020-08-02T08:17:07Z</time>
      </trkpt>
      <trkpt lat="47.30173" lon="-0.40827">
        <ele>65.4</ele>
        <time>2020-08-02T08:17:08Z</time>
      </trkpt>
      <trkpt lat="47.30176" lon="-0.40825">
        <ele>65.4</ele>
        <time>2020-08-02T08:17:09Z</time>
      </trkpt>
      <trkpt lat="47.3018" lon="-0.40824">
        <ele>65.4</ele>
        <time>2020-08-02T08:17:10Z</time>
      </trkpt>
      <trkpt lat="47.30189" lon="-0.40821">
        <ele>65.2</ele>
        <time>2020-08-02T08:17:12Z</time>
      </trkpt>
      <trkpt lat="47.30201" lon="-0.40818">
        <ele>65.2</ele>
        <time>2020-08-02T08:17:15Z</time>
      </trkpt>
      <trkpt lat="47.30205" lon="-0.40817">
        <ele>65.2</ele>
        <time>2020-08-02T08:17:16Z</time>
      </trkpt>
      <trkpt lat="47.3021" lon="-0.40816">
        <ele>65.2</ele>
        <time>2020-08-02T08:17:17Z</time>
      </trkpt>
      <trkpt lat="47.30219" lon="-0.40814">
        <ele>65.2</ele>
        <time>2020-08-02T08:17:19Z</time>
      </trkpt>
      <trkpt lat="47.30255" lon="-0.40803">
        <ele>65.2</ele>
        <time>2020-08-02T08:17:27Z</time>
      </trkpt>
      <trkpt lat="47.30264" lon="-0.40801">
        <ele>65.4</ele>
        <time>2020-08-02T08:17:29Z</time>
      </trkpt>
      <trkpt lat="47.30268" lon="-0.408">
        <ele>65.4</ele>
        <time>2020-08-02T08:17:30Z</time>
      </trkpt>
      <trkpt lat="47.30273" lon="-0.40798">
        <ele>65.4</ele>
        <time>2020-08-02T08:17:31Z</time>
      </trkpt>
      <trkpt lat="47.30277" lon="-0.40797">
        <ele>65.4</ele>
        <time>2020-08-02T08:17:32Z</time>
      </trkpt>
      <trkpt lat="47.30301" lon="-0.40791">
        <ele>65.2</ele>
        <time>2020-08-02T08:17:37Z</time>
      </trkpt>
      <trkpt lat="47.30328" lon="-0.40783">
        <ele>65</ele>
        <time>2020-08-02T08:17:43Z</time>
      </trkpt>
      <trkpt lat="47.30332" lon="-0.40782">
        <ele>65</ele>
        <time>2020-08-02T08:17:44Z</time>
      </trkpt>
      <trkpt lat="47.30336" lon="-0.40781">
        <ele>65</ele>
        <time>2020-08-02T08:17:45Z</time>
      </trkpt>
      <trkpt lat="47.3034" lon="-0.4078">
        <ele>65</ele>
        <time>2020-08-02T08:17:46Z</time>
      </trkpt>
      <trkpt lat="47.30344" lon="-0.40779">
        <ele>65</ele>
        <time>2020-08-02T08:17:47Z</time>
      </trkpt>
      <trkpt lat="47.30348" lon="-0.40777">
        <ele>65</ele>
        <time>2020-08-02T08:17:48Z</time>
      </trkpt>
      <trkpt lat="47.30352" lon="-0.40777">
        <ele>65</ele>
        <time>2020-08-02T08:17:49Z</time>
      </trkpt>
      <trkpt lat="47.30356" lon="-0.40776">
        <ele>65</ele>
        <time>2020-08-02T08:17:50Z</time>
      </trkpt>
      <trkpt lat="47.3036" lon="-0.40775">
        <ele>64.8</ele>
        <time>2020-08-02T08:17:51Z</time>
      </trkpt>
      <trkpt lat="47.30364" lon="-0.40774">
        <ele>64.8</ele>
        <time>2020-08-02T08:17:52Z</time>
      </trkpt>
      <trkpt lat="47.30368" lon="-0.40772">
        <ele>64.8</ele>
        <time>2020-08-02T08:17:53Z</time>
      </trkpt>
      <trkpt lat="47.30373" lon="-0.40771">
        <ele>64.8</ele>
        <time>2020-08-02T08:17:54Z</time>
      </trkpt>
      <trkpt lat="47.30409" lon="-0.4076">
        <ele>64.8</ele>
        <time>2020-08-02T08:18:02Z</time>
      </trkpt>
      <trkpt lat="47.30441" lon="-0.40751">
        <ele>64.8</ele>
        <time>2020-08-02T08:18:09Z</time>
      </trkpt>
      <trkpt lat="47.30446" lon="-0.4075">
        <ele>64.8</ele>
        <time>2020-08-02T08:18:10Z</time>
      </trkpt>
      <trkpt lat="47.3045" lon="-0.40748">
        <ele>64.8</ele>
        <time>2020-08-02T08:18:11Z</time>
      </trkpt>
      <trkpt lat="47.30455" lon="-0.40746">
        <ele>64.8</ele>
        <time>2020-08-02T08:18:12Z</time>
      </trkpt>
      <trkpt lat="47.30459" lon="-0.40745">
        <ele>64.6</ele>
        <time>2020-08-02T08:18:13Z</time>
      </trkpt>
      <trkpt lat="47.30463" lon="-0.40744">
        <ele>64.6</ele>
        <time>2020-08-02T08:18:14Z</time>
      </trkpt>
      <trkpt lat="47.30468" lon="-0.40742">
        <ele>64.6</ele>
        <time>2020-08-02T08:18:15Z</time>
      </trkpt>
      <trkpt lat="47.30497" lon="-0.40734">
        <ele>64.2</ele>
        <time>2020-08-02T08:18:21Z</time>
      </trkpt>
      <trkpt lat="47.30536" lon="-0.40722">
        <ele>63.8</ele>
        <time>2020-08-02T08:18:29Z</time>
      </trkpt>
      <trkpt lat="47.3054" lon="-0.40721">
        <ele>63.8</ele>
        <time>2020-08-02T08:18:30Z</time>
      </trkpt>
      <trkpt lat="47.30545" lon="-0.40719">
        <ele>63.8</ele>
        <time>2020-08-02T08:18:31Z</time>
      </trkpt>
      <trkpt lat="47.3055" lon="-0.40718">
        <ele>63.6</ele>
        <time>2020-08-02T08:18:32Z</time>
      </trkpt>
      <trkpt lat="47.30555" lon="-0.40716">
        <ele>63.4</ele>
        <time>2020-08-02T08:18:33Z</time>
      </trkpt>
      <trkpt lat="47.3056" lon="-0.40715">
        <ele>63.4</ele>
        <time>2020-08-02T08:18:34Z</time>
      </trkpt>
      <trkpt lat="47.30565" lon="-0.40713">
        <ele>63.4</ele>
        <time>2020-08-02T08:18:35Z</time>
      </trkpt>
      <trkpt lat="47.3057" lon="-0.40712">
        <ele>63.2</ele>
        <time>2020-08-02T08:18:36Z</time>
      </trkpt>
      <trkpt lat="47.30575" lon="-0.4071">
        <ele>63.2</ele>
        <time>2020-08-02T08:18:37Z</time>
      </trkpt>
      <trkpt lat="47.3058" lon="-0.40709">
        <ele>63.2</ele>
        <time>2020-08-02T08:18:38Z</time>
      </trkpt>
      <trkpt lat="47.30591" lon="-0.40706">
        <ele>62.8</ele>
        <time>2020-08-02T08:18:40Z</time>
      </trkpt>
      <trkpt lat="47.30607" lon="-0.40702">
        <ele>62</ele>
        <time>2020-08-02T08:18:43Z</time>
      </trkpt>
      <trkpt lat="47.30632" lon="-0.40694">
        <ele>61.2</ele>
        <time>2020-08-02T08:18:48Z</time>
      </trkpt>
      <trkpt lat="47.30653" lon="-0.40689">
        <ele>61</ele>
        <time>2020-08-02T08:18:52Z</time>
      </trkpt>
      <trkpt lat="47.30668" lon="-0.40684">
        <ele>60.8</ele>
        <time>2020-08-02T08:18:55Z</time>
      </trkpt>
      <trkpt lat="47.30684" lon="-0.4068">
        <ele>60.2</ele>
        <time>2020-08-02T08:18:58Z</time>
      </trkpt>
      <trkpt lat="47.30688" lon="-0.40678">
        <ele>60.2</ele>
        <time>2020-08-02T08:18:59Z</time>
      </trkpt>
      <trkpt lat="47.30693" lon="-0.40676">
        <ele>59.8</ele>
        <time>2020-08-02T08:19:00Z</time>
      </trkpt>
      <trkpt lat="47.30699" lon="-0.40675">
        <ele>59.8</ele>
        <time>2020-08-02T08:19:01Z</time>
      </trkpt>
      <trkpt lat="47.30704" lon="-0.40674">
        <ele>60</ele>
        <time>2020-08-02T08:19:02Z</time>
      </trkpt>
      <trkpt lat="47.30709" lon="-0.40672">
        <ele>60</ele>
        <time>2020-08-02T08:19:03Z</time>
      </trkpt>
      <trkpt lat="47.30714" lon="-0.40671">
        <ele>59.8</ele>
        <time>2020-08-02T08:19:04Z</time>
      </trkpt>
      <trkpt lat="47.30719" lon="-0.4067">
        <ele>59.8</ele>
        <time>2020-08-02T08:19:05Z</time>
      </trkpt>
      <trkpt lat="47.30724" lon="-0.40669">
        <ele>59.8</ele>
        <time>2020-08-02T08:19:06Z</time>
      </trkpt>
      <trkpt lat="47.30729" lon="-0.4067">
        <ele>59.8</ele>
        <time>2020-08-02T08:19:07Z</time>
      </trkpt>
      <trkpt lat="47.30734" lon="-0.40669">
        <ele>59.8</ele>
        <time>2020-08-02T08:19:08Z</time>
      </trkpt>
      <trkpt lat="47.30739" lon="-0.40669">
        <ele>59.8</ele>
        <time>2020-08-02T08:19:09Z</time>
      </trkpt>
      <trkpt lat="47.30744" lon="-0.40668">
        <ele>59.6</ele>
        <time>2020-08-02T08:19:10Z</time>
      </trkpt>
      <trkpt lat="47.30748" lon="-0.40668">
        <ele>59.6</ele>
        <time>2020-08-02T08:19:11Z</time>
      </trkpt>
      <trkpt lat="47.30753" lon="-0.40668">
        <ele>59.6</ele>
        <time>2020-08-02T08:19:12Z</time>
      </trkpt>
      <trkpt lat="47.30758" lon="-0.40668">
        <ele>59.6</ele>
        <time>2020-08-02T08:19:13Z</time>
      </trkpt>
      <trkpt lat="47.30763" lon="-0.40668">
        <ele>59.4</ele>
        <time>2020-08-02T08:19:14Z</time>
      </trkpt>
      <trkpt lat="47.30768" lon="-0.40668">
        <ele>59.4</ele>
        <time>2020-08-02T08:19:15Z</time>
      </trkpt>
      <trkpt lat="47.30772" lon="-0.40668">
        <ele>59.4</ele>
        <time>2020-08-02T08:19:16Z</time>
      </trkpt>
      <trkpt lat="47.30777" lon="-0.40667">
        <ele>59.2</ele>
        <time>2020-08-02T08:19:17Z</time>
      </trkpt>
      <trkpt lat="47.30781" lon="-0.40667">
        <ele>59.2</ele>
        <time>2020-08-02T08:19:18Z</time>
      </trkpt>
      <trkpt lat="47.30785" lon="-0.40667">
        <ele>59.2</ele>
        <time>2020-08-02T08:19:19Z</time>
      </trkpt>
      <trkpt lat="47.30789" lon="-0.40667">
        <ele>59.2</ele>
        <time>2020-08-02T08:19:20Z</time>
      </trkpt>
      <trkpt lat="47.30792" lon="-0.40666">
        <ele>59.2</ele>
        <time>2020-08-02T08:19:21Z</time>
      </trkpt>
      <trkpt lat="47.30796" lon="-0.40666">
        <ele>59.2</ele>
        <time>2020-08-02T08:19:22Z</time>
      </trkpt>
      <trkpt lat="47.30799" lon="-0.40667">
        <ele>59.2</ele>
        <time>2020-08-02T08:19:23Z</time>
      </trkpt>
      <trkpt lat="47.30803" lon="-0.40667">
        <ele>59.2</ele>
        <time>2020-08-02T08:19:24Z</time>
      </trkpt>
      <trkpt lat="47.30822" lon="-0.40672">
        <ele>59</ele>
        <time>2020-08-02T08:19:29Z</time>
      </trkpt>
      <trkpt lat="47.30826" lon="-0.40675">
        <ele>59</ele>
        <time>2020-08-02T08:19:30Z</time>
      </trkpt>
      <trkpt lat="47.30846" lon="-0.40689">
        <ele>58.6</ele>
        <time>2020-08-02T08:19:35Z</time>
      </trkpt>
      <trkpt lat="47.30853" lon="-0.40694">
        <ele>58.8</ele>
        <time>2020-08-02T08:19:37Z</time>
      </trkpt>
      <trkpt lat="47.30893" lon="-0.40725">
        <ele>58.6</ele>
        <time>2020-08-02T08:19:46Z</time>
      </trkpt>
      <trkpt lat="47.30923" lon="-0.40747">
        <ele>58.8</ele>
        <time>2020-08-02T08:19:53Z</time>
      </trkpt>
      <trkpt lat="47.30928" lon="-0.4075">
        <ele>58.8</ele>
        <time>2020-08-02T08:19:54Z</time>
      </trkpt>
      <trkpt lat="47.30932" lon="-0.40754">
        <ele>58.8</ele>
        <time>2020-08-02T08:19:55Z</time>
      </trkpt>
      <trkpt lat="47.30936" lon="-0.40758">
        <ele>58.8</ele>
        <time>2020-08-02T08:19:56Z</time>
      </trkpt>
      <trkpt lat="47.3094" lon="-0.40761">
        <ele>58.6</ele>
        <time>2020-08-02T08:19:57Z</time>
      </trkpt>
      <trkpt lat="47.30945" lon="-0.40765">
        <ele>58.6</ele>
        <time>2020-08-02T08:19:58Z</time>
      </trkpt>
      <trkpt lat="47.30949" lon="-0.40768">
        <ele>58.4</ele>
        <time>2020-08-02T08:19:59Z</time>
      </trkpt>
      <trkpt lat="47.30954" lon="-0.40771">
        <ele>58.4</ele>
        <time>2020-08-02T08:20:00Z</time>
      </trkpt>
      <trkpt lat="47.30966" lon="-0.40781">
        <ele>58.4</ele>
        <time>2020-08-02T08:20:03Z</time>
      </trkpt>
      <trkpt lat="47.30979" lon="-0.40793">
        <ele>58.4</ele>
        <time>2020-08-02T08:20:06Z</time>
      </trkpt>
      <trkpt lat="47.30983" lon="-0.40796">
        <ele>58.2</ele>
        <time>2020-08-02T08:20:07Z</time>
      </trkpt>
      <trkpt lat="47.30987" lon="-0.408">
        <ele>58.2</ele>
        <time>2020-08-02T08:20:08Z</time>
      </trkpt>
      <trkpt lat="47.30992" lon="-0.40805">
        <ele>58.2</ele>
        <time>2020-08-02T08:20:09Z</time>
      </trkpt>
      <trkpt lat="47.30996" lon="-0.4081">
        <ele>58.2</ele>
        <time>2020-08-02T08:20:10Z</time>
      </trkpt>
      <trkpt lat="47.31005" lon="-0.40818">
        <ele>58</ele>
        <time>2020-08-02T08:20:12Z</time>
      </trkpt>
      <trkpt lat="47.31035" lon="-0.40849">
        <ele>57.6</ele>
        <time>2020-08-02T08:20:19Z</time>
      </trkpt>
      <trkpt lat="47.31048" lon="-0.40864">
        <ele>57.4</ele>
        <time>2020-08-02T08:20:22Z</time>
      </trkpt>
      <trkpt lat="47.31087" lon="-0.40909">
        <ele>57.2</ele>
        <time>2020-08-02T08:20:31Z</time>
      </trkpt>
      <trkpt lat="47.31099" lon="-0.40925">
        <ele>57.2</ele>
        <time>2020-08-02T08:20:34Z</time>
      </trkpt>
      <trkpt lat="47.31102" lon="-0.40931">
        <ele>57.2</ele>
        <time>2020-08-02T08:20:35Z</time>
      </trkpt>
      <trkpt lat="47.31105" lon="-0.40937">
        <ele>57.2</ele>
        <time>2020-08-02T08:20:36Z</time>
      </trkpt>
      <trkpt lat="47.31109" lon="-0.40944">
        <ele>57.2</ele>
        <time>2020-08-02T08:20:37Z</time>
      </trkpt>
      <trkpt lat="47.31112" lon="-0.4095">
        <ele>57.2</ele>
        <time>2020-08-02T08:20:38Z</time>
      </trkpt>
      <trkpt lat="47.31115" lon="-0.40956">
        <ele>57.2</ele>
        <time>2020-08-02T08:20:39Z</time>
      </trkpt>
      <trkpt lat="47.31118" lon="-0.40962">
        <ele>57.2</ele>
        <time>2020-08-02T08:20:40Z</time>
      </trkpt>
      <trkpt lat="47.31143" lon="-0.41016">
        <ele>57</ele>
        <time>2020-08-02T08:20:48Z</time>
      </trkpt>
      <trkpt lat="47.31152" lon="-0.41035">
        <ele>56.8</ele>
        <time>2020-08-02T08:20:51Z</time>
      </trkpt>
      <trkpt lat="47.31155" lon="-0.41041">
        <ele>56.8</ele>
        <time>2020-08-02T08:20:52Z</time>
      </trkpt>
      <trkpt lat="47.31158" lon="-0.41048">
        <ele>56.8</ele>
        <time>2020-08-02T08:20:53Z</time>
      </trkpt>
      <trkpt lat="47.3116" lon="-0.41054">
        <ele>56.8</ele>
        <time>2020-08-02T08:20:54Z</time>
      </trkpt>
      <trkpt lat="47.31163" lon="-0.4106">
        <ele>57</ele>
        <time>2020-08-02T08:20:55Z</time>
      </trkpt>
      <trkpt lat="47.31166" lon="-0.41066">
        <ele>57</ele>
        <time>2020-08-02T08:20:56Z</time>
      </trkpt>
      <trkpt lat="47.3117" lon="-0.41073">
        <ele>57.2</ele>
        <time>2020-08-02T08:20:57Z</time>
      </trkpt>
      <trkpt lat="47.31173" lon="-0.4108">
        <ele>57.2</ele>
        <time>2020-08-02T08:20:58Z</time>
      </trkpt>
      <trkpt lat="47.31176" lon="-0.41086">
        <ele>57.2</ele>
        <time>2020-08-02T08:20:59Z</time>
      </trkpt>
      <trkpt lat="47.31179" lon="-0.41092">
        <ele>57.4</ele>
        <time>2020-08-02T08:21:00Z</time>
      </trkpt>
      <trkpt lat="47.31191" lon="-0.41118">
        <ele>57.2</ele>
        <time>2020-08-02T08:21:04Z</time>
      </trkpt>
      <trkpt lat="47.31194" lon="-0.41124">
        <ele>57</ele>
        <time>2020-08-02T08:21:05Z</time>
      </trkpt>
      <trkpt lat="47.31196" lon="-0.4113">
        <ele>57</ele>
        <time>2020-08-02T08:21:06Z</time>
      </trkpt>
      <trkpt lat="47.31199" lon="-0.41136">
        <ele>57</ele>
        <time>2020-08-02T08:21:07Z</time>
      </trkpt>
      <trkpt lat="47.31202" lon="-0.41142">
        <ele>56.8</ele>
        <time>2020-08-02T08:21:08Z</time>
      </trkpt>
      <trkpt lat="47.31205" lon="-0.41148">
        <ele>56.8</ele>
        <time>2020-08-02T08:21:09Z</time>
      </trkpt>
      <trkpt lat="47.31208" lon="-0.41155">
        <ele>56.6</ele>
        <time>2020-08-02T08:21:10Z</time>
      </trkpt>
      <trkpt lat="47.31212" lon="-0.41161">
        <ele>56.6</ele>
        <time>2020-08-02T08:21:11Z</time>
      </trkpt>
      <trkpt lat="47.31215" lon="-0.41167">
        <ele>56.6</ele>
        <time>2020-08-02T08:21:12Z</time>
      </trkpt>
      <trkpt lat="47.31219" lon="-0.41173">
        <ele>56.6</ele>
        <time>2020-08-02T08:21:13Z</time>
      </trkpt>
      <trkpt lat="47.31222" lon="-0.41179">
        <ele>56.6</ele>
        <time>2020-08-02T08:21:14Z</time>
      </trkpt>
      <trkpt lat="47.31226" lon="-0.41185">
        <ele>56.6</ele>
        <time>2020-08-02T08:21:15Z</time>
      </trkpt>
      <trkpt lat="47.3123" lon="-0.4119">
        <ele>56.6</ele>
        <time>2020-08-02T08:21:16Z</time>
      </trkpt>
      <trkpt lat="47.31246" lon="-0.41212">
        <ele>56.8</ele>
        <time>2020-08-02T08:21:20Z</time>
      </trkpt>
      <trkpt lat="47.31249" lon="-0.41217">
        <ele>56.8</ele>
        <time>2020-08-02T08:21:21Z</time>
      </trkpt>
      <trkpt lat="47.31253" lon="-0.41223">
        <ele>56.8</ele>
        <time>2020-08-02T08:21:22Z</time>
      </trkpt>
      <trkpt lat="47.31257" lon="-0.41228">
        <ele>56.8</ele>
        <time>2020-08-02T08:21:23Z</time>
      </trkpt>
      <trkpt lat="47.31261" lon="-0.41233">
        <ele>56.6</ele>
        <time>2020-08-02T08:21:24Z</time>
      </trkpt>
      <trkpt lat="47.31264" lon="-0.41238">
        <ele>56.6</ele>
        <time>2020-08-02T08:21:25Z</time>
      </trkpt>
      <trkpt lat="47.31276" lon="-0.41254">
        <ele>56.6</ele>
        <time>2020-08-02T08:21:28Z</time>
      </trkpt>
      <trkpt lat="47.31279" lon="-0.41259">
        <ele>56.6</ele>
        <time>2020-08-02T08:21:29Z</time>
      </trkpt>
      <trkpt lat="47.31283" lon="-0.41264">
        <ele>56.8</ele>
        <time>2020-08-02T08:21:30Z</time>
      </trkpt>
      <trkpt lat="47.31287" lon="-0.41269">
        <ele>56.6</ele>
        <time>2020-08-02T08:21:31Z</time>
      </trkpt>
      <trkpt lat="47.31291" lon="-0.41275">
        <ele>56.6</ele>
        <time>2020-08-02T08:21:32Z</time>
      </trkpt>
      <trkpt lat="47.31294" lon="-0.4128">
        <ele>56.6</ele>
        <time>2020-08-02T08:21:33Z</time>
      </trkpt>
      <trkpt lat="47.31298" lon="-0.41285">
        <ele>56.6</ele>
        <time>2020-08-02T08:21:34Z</time>
      </trkpt>
      <trkpt lat="47.31301" lon="-0.4129">
        <ele>56.6</ele>
        <time>2020-08-02T08:21:35Z</time>
      </trkpt>
      <trkpt lat="47.31305" lon="-0.41295">
        <ele>56.4</ele>
        <time>2020-08-02T08:21:36Z</time>
      </trkpt>
      <trkpt lat="47.31308" lon="-0.413">
        <ele>56.4</ele>
        <time>2020-08-02T08:21:37Z</time>
      </trkpt>
      <trkpt lat="47.31312" lon="-0.41305">
        <ele>56.4</ele>
        <time>2020-08-02T08:21:38Z</time>
      </trkpt>
      <trkpt lat="47.31316" lon="-0.4131">
        <ele>56.4</ele>
        <time>2020-08-02T08:21:39Z</time>
      </trkpt>
      <trkpt lat="47.31319" lon="-0.41315">
        <ele>56.4</ele>
        <time>2020-08-02T08:21:40Z</time>
      </trkpt>
      <trkpt lat="47.31323" lon="-0.4132">
        <ele>56.4</ele>
        <time>2020-08-02T08:21:41Z</time>
      </trkpt>
      <trkpt lat="47.31326" lon="-0.41325">
        <ele>56.4</ele>
        <time>2020-08-02T08:21:42Z</time>
      </trkpt>
      <trkpt lat="47.3133" lon="-0.4133">
        <ele>56.4</ele>
        <time>2020-08-02T08:21:43Z</time>
      </trkpt>
      <trkpt lat="47.31334" lon="-0.41335">
        <ele>56.4</ele>
        <time>2020-08-02T08:21:44Z</time>
      </trkpt>
      <trkpt lat="47.31338" lon="-0.4134">
        <ele>56.4</ele>
        <time>2020-08-02T08:21:45Z</time>
      </trkpt>
      <trkpt lat="47.31342" lon="-0.41344">
        <ele>56.2</ele>
        <time>2020-08-02T08:21:46Z</time>
      </trkpt>
      <trkpt lat="47.31346" lon="-0.41349">
        <ele>56.2</ele>
        <time>2020-08-02T08:21:47Z</time>
      </trkpt>
      <trkpt lat="47.31364" lon="-0.41373">
        <ele>56</ele>
        <time>2020-08-02T08:21:52Z</time>
      </trkpt>
      <trkpt lat="47.31375" lon="-0.41388">
        <ele>56</ele>
        <time>2020-08-02T08:21:55Z</time>
      </trkpt>
      <trkpt lat="47.31378" lon="-0.41393">
        <ele>56</ele>
        <time>2020-08-02T08:21:56Z</time>
      </trkpt>
      <trkpt lat="47.31381" lon="-0.41399">
        <ele>56</ele>
        <time>2020-08-02T08:21:57Z</time>
      </trkpt>
      <trkpt lat="47.31384" lon="-0.41405">
        <ele>56</ele>
        <time>2020-08-02T08:21:58Z</time>
      </trkpt>
      <trkpt lat="47.31387" lon="-0.41411">
        <ele>56</ele>
        <time>2020-08-02T08:21:59Z</time>
      </trkpt>
      <trkpt lat="47.31389" lon="-0.41417">
        <ele>56</ele>
        <time>2020-08-02T08:22:00Z</time>
      </trkpt>
      <trkpt lat="47.31392" lon="-0.41424">
        <ele>56</ele>
        <time>2020-08-02T08:22:01Z</time>
      </trkpt>
      <trkpt lat="47.31394" lon="-0.4143">
        <ele>56</ele>
        <time>2020-08-02T08:22:02Z</time>
      </trkpt>
      <trkpt lat="47.31396" lon="-0.41437">
        <ele>56</ele>
        <time>2020-08-02T08:22:03Z</time>
      </trkpt>
      <trkpt lat="47.31399" lon="-0.41443">
        <ele>56</ele>
        <time>2020-08-02T08:22:04Z</time>
      </trkpt>
      <trkpt lat="47.31401" lon="-0.41449">
        <ele>56.2</ele>
        <time>2020-08-02T08:22:05Z</time>
      </trkpt>
      <trkpt lat="47.31404" lon="-0.41455">
        <ele>56.2</ele>
        <time>2020-08-02T08:22:06Z</time>
      </trkpt>
      <trkpt lat="47.31406" lon="-0.41461">
        <ele>56.2</ele>
        <time>2020-08-02T08:22:07Z</time>
      </trkpt>
      <trkpt lat="47.31408" lon="-0.41468">
        <ele>56.2</ele>
        <time>2020-08-02T08:22:08Z</time>
      </trkpt>
      <trkpt lat="47.31411" lon="-0.41475">
        <ele>56.2</ele>
        <time>2020-08-02T08:22:09Z</time>
      </trkpt>
      <trkpt lat="47.31414" lon="-0.41481">
        <ele>56.2</ele>
        <time>2020-08-02T08:22:10Z</time>
      </trkpt>
      <trkpt lat="47.31416" lon="-0.41488">
        <ele>56.2</ele>
        <time>2020-08-02T08:22:11Z</time>
      </trkpt>
      <trkpt lat="47.31434" lon="-0.41532">
        <ele>56</ele>
        <time>2020-08-02T08:22:18Z</time>
      </trkpt>
      <trkpt lat="47.31436" lon="-0.41538">
        <ele>56</ele>
        <time>2020-08-02T08:22:19Z</time>
      </trkpt>
      <trkpt lat="47.31438" lon="-0.41543">
        <ele>56</ele>
        <time>2020-08-02T08:22:20Z</time>
      </trkpt>
      <trkpt lat="47.3144" lon="-0.41549">
        <ele>56</ele>
        <time>2020-08-02T08:22:21Z</time>
      </trkpt>
      <trkpt lat="47.31442" lon="-0.41553">
        <ele>55.8</ele>
        <time>2020-08-02T08:22:22Z</time>
      </trkpt>
      <trkpt lat="47.31444" lon="-0.41558">
        <ele>55.8</ele>
        <time>2020-08-02T08:22:23Z</time>
      </trkpt>
      <trkpt lat="47.31446" lon="-0.41561">
        <ele>55.8</ele>
        <time>2020-08-02T08:22:24Z</time>
      </trkpt>
      <trkpt lat="47.31448" lon="-0.41566">
        <ele>55.8</ele>
        <time>2020-08-02T08:22:25Z</time>
      </trkpt>
      <trkpt lat="47.31451" lon="-0.41575">
        <ele>55.8</ele>
        <time>2020-08-02T08:22:27Z</time>
      </trkpt>
      <trkpt lat="47.31453" lon="-0.4158">
        <ele>55.8</ele>
        <time>2020-08-02T08:22:28Z</time>
      </trkpt>
      <trkpt lat="47.31455" lon="-0.41585">
        <ele>55.8</ele>
        <time>2020-08-02T08:22:29Z</time>
      </trkpt>
      <trkpt lat="47.31457" lon="-0.4159">
        <ele>55.8</ele>
        <time>2020-08-02T08:22:30Z</time>
      </trkpt>
      <trkpt lat="47.31459" lon="-0.41595">
        <ele>55.8</ele>
        <time>2020-08-02T08:22:31Z</time>
      </trkpt>
      <trkpt lat="47.31461" lon="-0.416">
        <ele>56</ele>
        <time>2020-08-02T08:22:32Z</time>
      </trkpt>
      <trkpt lat="47.31463" lon="-0.41605">
        <ele>56</ele>
        <time>2020-08-02T08:22:33Z</time>
      </trkpt>
      <trkpt lat="47.31468" lon="-0.41613">
        <ele>56.2</ele>
        <time>2020-08-02T08:22:35Z</time>
      </trkpt>
      <trkpt lat="47.31471" lon="-0.41616">
        <ele>56.4</ele>
        <time>2020-08-02T08:22:36Z</time>
      </trkpt>
      <trkpt lat="47.31474" lon="-0.41617">
        <ele>56.6</ele>
        <time>2020-08-02T08:22:37Z</time>
      </trkpt>
      <trkpt lat="47.31477" lon="-0.41615">
        <ele>56.6</ele>
        <time>2020-08-02T08:22:38Z</time>
      </trkpt>
      <trkpt lat="47.31479" lon="-0.41611">
        <ele>56.6</ele>
        <time>2020-08-02T08:22:39Z</time>
      </trkpt>
      <trkpt lat="47.31481" lon="-0.41607">
        <ele>56.8</ele>
        <time>2020-08-02T08:22:40Z</time>
      </trkpt>
      <trkpt lat="47.31483" lon="-0.41603">
        <ele>57</ele>
        <time>2020-08-02T08:22:41Z</time>
      </trkpt>
      <trkpt lat="47.31486" lon="-0.41599">
        <ele>57</ele>
        <time>2020-08-02T08:22:42Z</time>
      </trkpt>
      <trkpt lat="47.31488" lon="-0.41595">
        <ele>57</ele>
        <time>2020-08-02T08:22:43Z</time>
      </trkpt>
      <trkpt lat="47.3149" lon="-0.41591">
        <ele>57</ele>
        <time>2020-08-02T08:22:44Z</time>
      </trkpt>
      <trkpt lat="47.31491" lon="-0.41586">
        <ele>57.2</ele>
        <time>2020-08-02T08:22:45Z</time>
      </trkpt>
      <trkpt lat="47.31493" lon="-0.41582">
        <ele>57.2</ele>
        <time>2020-08-02T08:22:46Z</time>
      </trkpt>
      <trkpt lat="47.31495" lon="-0.41577">
        <ele>57.2</ele>
        <time>2020-08-02T08:22:47Z</time>
      </trkpt>
      <trkpt lat="47.31496" lon="-0.41571">
        <ele>57.2</ele>
        <time>2020-08-02T08:22:48Z</time>
      </trkpt>
      <trkpt lat="47.31498" lon="-0.41568">
        <ele>57.2</ele>
        <time>2020-08-02T08:22:49Z</time>
      </trkpt>
      <trkpt lat="47.31501" lon="-0.41564">
        <ele>57.2</ele>
        <time>2020-08-02T08:22:50Z</time>
      </trkpt>
      <trkpt lat="47.31504" lon="-0.4156">
        <ele>57.2</ele>
        <time>2020-08-02T08:22:51Z</time>
      </trkpt>
      <trkpt lat="47.31506" lon="-0.41555">
        <ele>57.2</ele>
        <time>2020-08-02T08:22:52Z</time>
      </trkpt>
      <trkpt lat="47.31507" lon="-0.41551">
        <ele>57.2</ele>
        <time>2020-08-02T08:22:53Z</time>
      </trkpt>
      <trkpt lat="47.3152" lon="-0.41524">
        <ele>57.4</ele>
        <time>2020-08-02T08:22:59Z</time>
      </trkpt>
      <trkpt lat="47.31523" lon="-0.41519">
        <ele>57.6</ele>
        <time>2020-08-02T08:23:00Z</time>
      </trkpt>
      <trkpt lat="47.31544" lon="-0.41474">
        <ele>58.4</ele>
        <time>2020-08-02T08:23:09Z</time>
      </trkpt>
      <trkpt lat="47.31549" lon="-0.41463">
        <ele>58.4</ele>
        <time>2020-08-02T08:23:11Z</time>
      </trkpt>
      <trkpt lat="47.31564" lon="-0.41433">
        <ele>59.4</ele>
        <time>2020-08-02T08:23:17Z</time>
      </trkpt>
      <trkpt lat="47.31566" lon="-0.41428">
        <ele>59.4</ele>
        <time>2020-08-02T08:23:18Z</time>
      </trkpt>
      <trkpt lat="47.31569" lon="-0.41424">
        <ele>59.4</ele>
        <time>2020-08-02T08:23:19Z</time>
      </trkpt>
      <trkpt lat="47.31571" lon="-0.41419">
        <ele>59.6</ele>
        <time>2020-08-02T08:23:20Z</time>
      </trkpt>
      <trkpt lat="47.31574" lon="-0.41415">
        <ele>59.6</ele>
        <time>2020-08-02T08:23:21Z</time>
      </trkpt>
      <trkpt lat="47.31576" lon="-0.41411">
        <ele>59.8</ele>
        <time>2020-08-02T08:23:22Z</time>
      </trkpt>
      <trkpt lat="47.31579" lon="-0.41408">
        <ele>60</ele>
        <time>2020-08-02T08:23:23Z</time>
      </trkpt>
      <trkpt lat="47.31583" lon="-0.41407">
        <ele>60.2</ele>
        <time>2020-08-02T08:23:24Z</time>
      </trkpt>
      <trkpt lat="47.31586" lon="-0.41407">
        <ele>60.2</ele>
        <time>2020-08-02T08:23:25Z</time>
      </trkpt>
      <trkpt lat="47.31589" lon="-0.41408">
        <ele>60.4</ele>
        <time>2020-08-02T08:23:26Z</time>
      </trkpt>
      <trkpt lat="47.31592" lon="-0.4141">
        <ele>60.6</ele>
        <time>2020-08-02T08:23:27Z</time>
      </trkpt>
      <trkpt lat="47.31594" lon="-0.41413">
        <ele>60.8</ele>
        <time>2020-08-02T08:23:28Z</time>
      </trkpt>
      <trkpt lat="47.31597" lon="-0.41415">
        <ele>61</ele>
        <time>2020-08-02T08:23:29Z</time>
      </trkpt>
      <trkpt lat="47.31599" lon="-0.41417">
        <ele>61.2</ele>
        <time>2020-08-02T08:23:30Z</time>
      </trkpt>
      <trkpt lat="47.31602" lon="-0.41419">
        <ele>61.2</ele>
        <time>2020-08-02T08:23:31Z</time>
      </trkpt>
      <trkpt lat="47.31604" lon="-0.4142">
        <ele>61.2</ele>
        <time>2020-08-02T08:23:32Z</time>
      </trkpt>
      <trkpt lat="47.31607" lon="-0.4142">
        <ele>61.2</ele>
        <time>2020-08-02T08:23:33Z</time>
      </trkpt>
      <trkpt lat="47.31609" lon="-0.41421">
        <ele>61.2</ele>
        <time>2020-08-02T08:23:34Z</time>
      </trkpt>
      <trkpt lat="47.3161" lon="-0.41421">
        <ele>61.4</ele>
        <time>2020-08-02T08:23:35Z</time>
      </trkpt>
      <trkpt lat="47.3161" lon="-0.41421">
        <ele>61.4</ele>
        <time>2020-08-02T08:23:38Z</time>
      </trkpt>
      <trkpt lat="47.3161" lon="-0.41421">
        <ele>61.2</ele>
        <time>2020-08-02T08:23:57Z</time>
      </trkpt>
      <trkpt lat="47.3161" lon="-0.41421">
        <ele>61</ele>
        <time>2020-08-02T08:25:05Z</time>
      </trkpt>
      <trkpt lat="47.31611" lon="-0.41422">
        <ele>61</ele>
        <time>2020-08-02T08:25:06Z</time>
      </trkpt>
      <trkpt lat="47.31613" lon="-0.41423">
        <ele>61</ele>
        <time>2020-08-02T08:25:07Z</time>
      </trkpt>
      <trkpt lat="47.31615" lon="-0.41424">
        <ele>61</ele>
        <time>2020-08-02T08:25:08Z</time>
      </trkpt>
      <trkpt lat="47.31623" lon="-0.4143">
        <ele>61.2</ele>
        <time>2020-08-02T08:25:12Z</time>
      </trkpt>
      <trkpt lat="47.31625" lon="-0.41432">
        <ele>61.2</ele>
        <time>2020-08-02T08:25:13Z</time>
      </trkpt>
      <trkpt lat="47.31632" lon="-0.41437">
        <ele>61.4</ele>
        <time>2020-08-02T08:25:17Z</time>
      </trkpt>
      <trkpt lat="47.31634" lon="-0.41439">
        <ele>61.4</ele>
        <time>2020-08-02T08:25:18Z</time>
      </trkpt>
      <trkpt lat="47.31643" lon="-0.41445">
        <ele>61.6</ele>
        <time>2020-08-02T08:25:22Z</time>
      </trkpt>
      <trkpt lat="47.31646" lon="-0.41448">
        <ele>61.6</ele>
        <time>2020-08-02T08:25:23Z</time>
      </trkpt>
      <trkpt lat="47.31652" lon="-0.41454">
        <ele>61.8</ele>
        <time>2020-08-02T08:25:25Z</time>
      </trkpt>
      <trkpt lat="47.31661" lon="-0.41463">
        <ele>61.8</ele>
        <time>2020-08-02T08:25:28Z</time>
      </trkpt>
      <trkpt lat="47.31668" lon="-0.41468">
        <ele>61.8</ele>
        <time>2020-08-02T08:25:30Z</time>
      </trkpt>
      <trkpt lat="47.31675" lon="-0.41473">
        <ele>61.8</ele>
        <time>2020-08-02T08:25:32Z</time>
      </trkpt>
      <trkpt lat="47.31697" lon="-0.41493">
        <ele>62.2</ele>
        <time>2020-08-02T08:25:39Z</time>
      </trkpt>
      <trkpt lat="47.31701" lon="-0.41497">
        <ele>62.2</ele>
        <time>2020-08-02T08:25:40Z</time>
      </trkpt>
      <trkpt lat="47.31717" lon="-0.41515">
        <ele>62.6</ele>
        <time>2020-08-02T08:25:45Z</time>
      </trkpt>
      <trkpt lat="47.31721" lon="-0.41517">
        <ele>62.6</ele>
        <time>2020-08-02T08:25:46Z</time>
      </trkpt>
      <trkpt lat="47.31725" lon="-0.41521">
        <ele>62.6</ele>
        <time>2020-08-02T08:25:47Z</time>
      </trkpt>
      <trkpt lat="47.31754" lon="-0.41545">
        <ele>62.8</ele>
        <time>2020-08-02T08:25:55Z</time>
      </trkpt>
      <trkpt lat="47.31766" lon="-0.41554">
        <ele>62.8</ele>
        <time>2020-08-02T08:25:58Z</time>
      </trkpt>
      <trkpt lat="47.31781" lon="-0.41567">
        <ele>62.8</ele>
        <time>2020-08-02T08:26:02Z</time>
      </trkpt>
      <trkpt lat="47.31809" lon="-0.41593">
        <ele>62.8</ele>
        <time>2020-08-02T08:26:09Z</time>
      </trkpt>
      <trkpt lat="47.31827" lon="-0.41611">
        <ele>62.6</ele>
        <time>2020-08-02T08:26:14Z</time>
      </trkpt>
      <trkpt lat="47.31831" lon="-0.41615">
        <ele>62.6</ele>
        <time>2020-08-02T08:26:15Z</time>
      </trkpt>
      <trkpt lat="47.31834" lon="-0.41618">
        <ele>62.6</ele>
        <time>2020-08-02T08:26:16Z</time>
      </trkpt>
      <trkpt lat="47.31838" lon="-0.41622">
        <ele>62.4</ele>
        <time>2020-08-02T08:26:17Z</time>
      </trkpt>
      <trkpt lat="47.31841" lon="-0.41625">
        <ele>62.4</ele>
        <time>2020-08-02T08:26:18Z</time>
      </trkpt>
      <trkpt lat="47.31844" lon="-0.41628">
        <ele>62.4</ele>
        <time>2020-08-02T08:26:19Z</time>
      </trkpt>
      <trkpt lat="47.31847" lon="-0.41631">
        <ele>62.4</ele>
        <time>2020-08-02T08:26:20Z</time>
      </trkpt>
      <trkpt lat="47.31849" lon="-0.41634">
        <ele>62.4</ele>
        <time>2020-08-02T08:26:21Z</time>
      </trkpt>
      <trkpt lat="47.3185" lon="-0.41638">
        <ele>62.4</ele>
        <time>2020-08-02T08:26:22Z</time>
      </trkpt>
      <trkpt lat="47.31851" lon="-0.41642">
        <ele>62.4</ele>
        <time>2020-08-02T08:26:23Z</time>
      </trkpt>
      <trkpt lat="47.3185" lon="-0.41647">
        <ele>62.4</ele>
        <time>2020-08-02T08:26:24Z</time>
      </trkpt>
      <trkpt lat="47.31849" lon="-0.41651">
        <ele>62.4</ele>
        <time>2020-08-02T08:26:25Z</time>
      </trkpt>
      <trkpt lat="47.31842" lon="-0.41674">
        <ele>62.2</ele>
        <time>2020-08-02T08:26:29Z</time>
      </trkpt>
      <trkpt lat="47.31832" lon="-0.41704">
        <ele>61.6</ele>
        <time>2020-08-02T08:26:33Z</time>
      </trkpt>
      <trkpt lat="47.31829" lon="-0.41713">
        <ele>61.4</ele>
        <time>2020-08-02T08:26:34Z</time>
      </trkpt>
      <trkpt lat="47.31821" lon="-0.41738">
        <ele>60.8</ele>
        <time>2020-08-02T08:26:37Z</time>
      </trkpt>
      <trkpt lat="47.31818" lon="-0.41747">
        <ele>60.4</ele>
        <time>2020-08-02T08:26:38Z</time>
      </trkpt>
      <trkpt lat="47.31817" lon="-0.41755">
        <ele>60.2</ele>
        <time>2020-08-02T08:26:39Z</time>
      </trkpt>
      <trkpt lat="47.31817" lon="-0.41765">
        <ele>60.2</ele>
        <time>2020-08-02T08:26:40Z</time>
      </trkpt>
      <trkpt lat="47.31819" lon="-0.41774">
        <ele>60</ele>
        <time>2020-08-02T08:26:41Z</time>
      </trkpt>
      <trkpt lat="47.31823" lon="-0.41781">
        <ele>59.8</ele>
        <time>2020-08-02T08:26:42Z</time>
      </trkpt>
      <trkpt lat="47.31829" lon="-0.41786">
        <ele>59.8</ele>
        <time>2020-08-02T08:26:43Z</time>
      </trkpt>
      <trkpt lat="47.3184" lon="-0.41793">
        <ele>59.8</ele>
        <time>2020-08-02T08:26:45Z</time>
      </trkpt>
      <trkpt lat="47.31845" lon="-0.41797">
        <ele>59.8</ele>
        <time>2020-08-02T08:26:46Z</time>
      </trkpt>
      <trkpt lat="47.3185" lon="-0.418">
        <ele>59.8</ele>
        <time>2020-08-02T08:26:47Z</time>
      </trkpt>
      <trkpt lat="47.31855" lon="-0.41803">
        <ele>60</ele>
        <time>2020-08-02T08:26:48Z</time>
      </trkpt>
      <trkpt lat="47.31859" lon="-0.41806">
        <ele>60</ele>
        <time>2020-08-02T08:26:49Z</time>
      </trkpt>
      <trkpt lat="47.31864" lon="-0.41809">
        <ele>60</ele>
        <time>2020-08-02T08:26:50Z</time>
      </trkpt>
      <trkpt lat="47.31877" lon="-0.41818">
        <ele>60</ele>
        <time>2020-08-02T08:26:53Z</time>
      </trkpt>
      <trkpt lat="47.31882" lon="-0.41822">
        <ele>60</ele>
        <time>2020-08-02T08:26:54Z</time>
      </trkpt>
      <trkpt lat="47.31887" lon="-0.41825">
        <ele>60</ele>
        <time>2020-08-02T08:26:55Z</time>
      </trkpt>
      <trkpt lat="47.31892" lon="-0.41829">
        <ele>59.8</ele>
        <time>2020-08-02T08:26:56Z</time>
      </trkpt>
      <trkpt lat="47.31897" lon="-0.41832">
        <ele>59.8</ele>
        <time>2020-08-02T08:26:57Z</time>
      </trkpt>
      <trkpt lat="47.31901" lon="-0.41834">
        <ele>59.6</ele>
        <time>2020-08-02T08:26:58Z</time>
      </trkpt>
      <trkpt lat="47.31906" lon="-0.41838">
        <ele>59.6</ele>
        <time>2020-08-02T08:26:59Z</time>
      </trkpt>
      <trkpt lat="47.31921" lon="-0.41848">
        <ele>59.4</ele>
        <time>2020-08-02T08:27:02Z</time>
      </trkpt>
      <trkpt lat="47.31949" lon="-0.41868">
        <ele>59.4</ele>
        <time>2020-08-02T08:27:08Z</time>
      </trkpt>
      <trkpt lat="47.31954" lon="-0.41871">
        <ele>59.2</ele>
        <time>2020-08-02T08:27:09Z</time>
      </trkpt>
      <trkpt lat="47.31958" lon="-0.41874">
        <ele>59.2</ele>
        <time>2020-08-02T08:27:10Z</time>
      </trkpt>
      <trkpt lat="47.31963" lon="-0.41878">
        <ele>59</ele>
        <time>2020-08-02T08:27:11Z</time>
      </trkpt>
      <trkpt lat="47.31967" lon="-0.41881">
        <ele>58.8</ele>
        <time>2020-08-02T08:27:12Z</time>
      </trkpt>
      <trkpt lat="47.31971" lon="-0.41884">
        <ele>58.8</ele>
        <time>2020-08-02T08:27:13Z</time>
      </trkpt>
      <trkpt lat="47.31976" lon="-0.41887">
        <ele>58.6</ele>
        <time>2020-08-02T08:27:14Z</time>
      </trkpt>
      <trkpt lat="47.3198" lon="-0.41889">
        <ele>58.6</ele>
        <time>2020-08-02T08:27:15Z</time>
      </trkpt>
      <trkpt lat="47.31985" lon="-0.41892">
        <ele>58.6</ele>
        <time>2020-08-02T08:27:16Z</time>
      </trkpt>
      <trkpt lat="47.31989" lon="-0.41895">
        <ele>58.6</ele>
        <time>2020-08-02T08:27:17Z</time>
      </trkpt>
      <trkpt lat="47.31993" lon="-0.41897">
        <ele>58.6</ele>
        <time>2020-08-02T08:27:18Z</time>
      </trkpt>
      <trkpt lat="47.31997" lon="-0.419">
        <ele>58.4</ele>
        <time>2020-08-02T08:27:19Z</time>
      </trkpt>
      <trkpt lat="47.32001" lon="-0.41902">
        <ele>58.4</ele>
        <time>2020-08-02T08:27:20Z</time>
      </trkpt>
      <trkpt lat="47.32006" lon="-0.41903">
        <ele>58.4</ele>
        <time>2020-08-02T08:27:21Z</time>
      </trkpt>
      <trkpt lat="47.3201" lon="-0.41904">
        <ele>58.6</ele>
        <time>2020-08-02T08:27:22Z</time>
      </trkpt>
      <trkpt lat="47.32014" lon="-0.41905">
        <ele>58.6</ele>
        <time>2020-08-02T08:27:23Z</time>
      </trkpt>
      <trkpt lat="47.32018" lon="-0.41907">
        <ele>58.6</ele>
        <time>2020-08-02T08:27:24Z</time>
      </trkpt>
      <trkpt lat="47.32023" lon="-0.41908">
        <ele>58.6</ele>
        <time>2020-08-02T08:27:25Z</time>
      </trkpt>
      <trkpt lat="47.32027" lon="-0.41909">
        <ele>58.8</ele>
        <time>2020-08-02T08:27:26Z</time>
      </trkpt>
      <trkpt lat="47.32031" lon="-0.41911">
        <ele>58.8</ele>
        <time>2020-08-02T08:27:27Z</time>
      </trkpt>
      <trkpt lat="47.32035" lon="-0.41912">
        <ele>58.8</ele>
        <time>2020-08-02T08:27:28Z</time>
      </trkpt>
      <trkpt lat="47.32039" lon="-0.41913">
        <ele>58.8</ele>
        <time>2020-08-02T08:27:29Z</time>
      </trkpt>
      <trkpt lat="47.32043" lon="-0.41915">
        <ele>58.8</ele>
        <time>2020-08-02T08:27:30Z</time>
      </trkpt>
      <trkpt lat="47.32047" lon="-0.41916">
        <ele>58.8</ele>
        <time>2020-08-02T08:27:31Z</time>
      </trkpt>
      <trkpt lat="47.32051" lon="-0.41918">
        <ele>58.8</ele>
        <time>2020-08-02T08:27:32Z</time>
      </trkpt>
      <trkpt lat="47.32056" lon="-0.4192">
        <ele>58.8</ele>
        <time>2020-08-02T08:27:33Z</time>
      </trkpt>
      <trkpt lat="47.3206" lon="-0.41922">
        <ele>58.8</ele>
        <time>2020-08-02T08:27:34Z</time>
      </trkpt>
      <trkpt lat="47.32064" lon="-0.41923">
        <ele>58.8</ele>
        <time>2020-08-02T08:27:35Z</time>
      </trkpt>
      <trkpt lat="47.32102" lon="-0.41939">
        <ele>58.8</ele>
        <time>2020-08-02T08:27:44Z</time>
      </trkpt>
      <trkpt lat="47.32106" lon="-0.41941">
        <ele>58.8</ele>
        <time>2020-08-02T08:27:45Z</time>
      </trkpt>
      <trkpt lat="47.32128" lon="-0.4195">
        <ele>58.8</ele>
        <time>2020-08-02T08:27:50Z</time>
      </trkpt>
      <trkpt lat="47.32132" lon="-0.41952">
        <ele>58.8</ele>
        <time>2020-08-02T08:27:51Z</time>
      </trkpt>
      <trkpt lat="47.32136" lon="-0.41954">
        <ele>58.8</ele>
        <time>2020-08-02T08:27:52Z</time>
      </trkpt>
      <trkpt lat="47.3214" lon="-0.41955">
        <ele>58.8</ele>
        <time>2020-08-02T08:27:53Z</time>
      </trkpt>
      <trkpt lat="47.32145" lon="-0.41957">
        <ele>58.8</ele>
        <time>2020-08-02T08:27:54Z</time>
      </trkpt>
      <trkpt lat="47.32149" lon="-0.41958">
        <ele>58.8</ele>
        <time>2020-08-02T08:27:55Z</time>
      </trkpt>
      <trkpt lat="47.32153" lon="-0.4196">
        <ele>58.8</ele>
        <time>2020-08-02T08:27:56Z</time>
      </trkpt>
      <trkpt lat="47.32158" lon="-0.41962">
        <ele>58.8</ele>
        <time>2020-08-02T08:27:57Z</time>
      </trkpt>
      <trkpt lat="47.32166" lon="-0.41966">
        <ele>58.8</ele>
        <time>2020-08-02T08:27:59Z</time>
      </trkpt>
      <trkpt lat="47.3217" lon="-0.41968">
        <ele>58.8</ele>
        <time>2020-08-02T08:28:00Z</time>
      </trkpt>
      <trkpt lat="47.32175" lon="-0.4197">
        <ele>58.8</ele>
        <time>2020-08-02T08:28:01Z</time>
      </trkpt>
      <trkpt lat="47.32179" lon="-0.41972">
        <ele>58.8</ele>
        <time>2020-08-02T08:28:02Z</time>
      </trkpt>
      <trkpt lat="47.32218" lon="-0.41989">
        <ele>58.8</ele>
        <time>2020-08-02T08:28:11Z</time>
      </trkpt>
      <trkpt lat="47.32259" lon="-0.42007">
        <ele>58.4</ele>
        <time>2020-08-02T08:28:20Z</time>
      </trkpt>
      <trkpt lat="47.32263" lon="-0.42009">
        <ele>58.4</ele>
        <time>2020-08-02T08:28:21Z</time>
      </trkpt>
      <trkpt lat="47.32268" lon="-0.42011">
        <ele>58.4</ele>
        <time>2020-08-02T08:28:22Z</time>
      </trkpt>
      <trkpt lat="47.32272" lon="-0.42012">
        <ele>58.4</ele>
        <time>2020-08-02T08:28:23Z</time>
      </trkpt>
      <trkpt lat="47.32277" lon="-0.42014">
        <ele>58.4</ele>
        <time>2020-08-02T08:28:24Z</time>
      </trkpt>
      <trkpt lat="47.32282" lon="-0.42016">
        <ele>58.4</ele>
        <time>2020-08-02T08:28:25Z</time>
      </trkpt>
      <trkpt lat="47.32286" lon="-0.42018">
        <ele>58.4</ele>
        <time>2020-08-02T08:28:26Z</time>
      </trkpt>
      <trkpt lat="47.32291" lon="-0.4202">
        <ele>58.4</ele>
        <time>2020-08-02T08:28:27Z</time>
      </trkpt>
      <trkpt lat="47.323" lon="-0.42024">
        <ele>58.6</ele>
        <time>2020-08-02T08:28:29Z</time>
      </trkpt>
      <trkpt lat="47.3233" lon="-0.42037">
        <ele>58.8</ele>
        <time>2020-08-02T08:28:36Z</time>
      </trkpt>
      <trkpt lat="47.32335" lon="-0.42039">
        <ele>58.8</ele>
        <time>2020-08-02T08:28:37Z</time>
      </trkpt>
      <trkpt lat="47.32339" lon="-0.42041">
        <ele>58.8</ele>
        <time>2020-08-02T08:28:38Z</time>
      </trkpt>
      <trkpt lat="47.32343" lon="-0.42043">
        <ele>58.8</ele>
        <time>2020-08-02T08:28:39Z</time>
      </trkpt>
      <trkpt lat="47.32347" lon="-0.42045">
        <ele>58.8</ele>
        <time>2020-08-02T08:28:40Z</time>
      </trkpt>
      <trkpt lat="47.32352" lon="-0.42046">
        <ele>58.8</ele>
        <time>2020-08-02T08:28:41Z</time>
      </trkpt>
      <trkpt lat="47.32356" lon="-0.42048">
        <ele>58.8</ele>
        <time>2020-08-02T08:28:42Z</time>
      </trkpt>
      <trkpt lat="47.32361" lon="-0.4205">
        <ele>58.8</ele>
        <time>2020-08-02T08:28:43Z</time>
      </trkpt>
      <trkpt lat="47.32365" lon="-0.42052">
        <ele>58.8</ele>
        <time>2020-08-02T08:28:44Z</time>
      </trkpt>
      <trkpt lat="47.32388" lon="-0.42062">
        <ele>59</ele>
        <time>2020-08-02T08:28:49Z</time>
      </trkpt>
      <trkpt lat="47.32406" lon="-0.42069">
        <ele>59</ele>
        <time>2020-08-02T08:28:53Z</time>
      </trkpt>
      <trkpt lat="47.3241" lon="-0.42071">
        <ele>59</ele>
        <time>2020-08-02T08:28:54Z</time>
      </trkpt>
      <trkpt lat="47.32414" lon="-0.42073">
        <ele>59</ele>
        <time>2020-08-02T08:28:55Z</time>
      </trkpt>
      <trkpt lat="47.32419" lon="-0.42076">
        <ele>59</ele>
        <time>2020-08-02T08:28:56Z</time>
      </trkpt>
      <trkpt lat="47.32423" lon="-0.42078">
        <ele>59</ele>
        <time>2020-08-02T08:28:57Z</time>
      </trkpt>
      <trkpt lat="47.32427" lon="-0.4208">
        <ele>59</ele>
        <time>2020-08-02T08:28:58Z</time>
      </trkpt>
      <trkpt lat="47.32432" lon="-0.42083">
        <ele>59</ele>
        <time>2020-08-02T08:28:59Z</time>
      </trkpt>
      <trkpt lat="47.32436" lon="-0.42085">
        <ele>59</ele>
        <time>2020-08-02T08:29:00Z</time>
      </trkpt>
      <trkpt lat="47.32465" lon="-0.42103">
        <ele>59.2</ele>
        <time>2020-08-02T08:29:07Z</time>
      </trkpt>
      <trkpt lat="47.32469" lon="-0.42106">
        <ele>59.2</ele>
        <time>2020-08-02T08:29:08Z</time>
      </trkpt>
      <trkpt lat="47.32472" lon="-0.42109">
        <ele>59.2</ele>
        <time>2020-08-02T08:29:09Z</time>
      </trkpt>
      <trkpt lat="47.32476" lon="-0.42112">
        <ele>59.4</ele>
        <time>2020-08-02T08:29:10Z</time>
      </trkpt>
      <trkpt lat="47.32479" lon="-0.42115">
        <ele>59.4</ele>
        <time>2020-08-02T08:29:11Z</time>
      </trkpt>
      <trkpt lat="47.32483" lon="-0.42117">
        <ele>59.4</ele>
        <time>2020-08-02T08:29:12Z</time>
      </trkpt>
      <trkpt lat="47.32487" lon="-0.4212">
        <ele>59.6</ele>
        <time>2020-08-02T08:29:13Z</time>
      </trkpt>
      <trkpt lat="47.32491" lon="-0.42122">
        <ele>59.6</ele>
        <time>2020-08-02T08:29:14Z</time>
      </trkpt>
      <trkpt lat="47.32495" lon="-0.42124">
        <ele>59.6</ele>
        <time>2020-08-02T08:29:15Z</time>
      </trkpt>
      <trkpt lat="47.32499" lon="-0.42126">
        <ele>59.6</ele>
        <time>2020-08-02T08:29:16Z</time>
      </trkpt>
      <trkpt lat="47.32507" lon="-0.4213">
        <ele>59.6</ele>
        <time>2020-08-02T08:29:18Z</time>
      </trkpt>
      <trkpt lat="47.32515" lon="-0.42136">
        <ele>59.6</ele>
        <time>2020-08-02T08:29:20Z</time>
      </trkpt>
      <trkpt lat="47.3252" lon="-0.42137">
        <ele>59.6</ele>
        <time>2020-08-02T08:29:21Z</time>
      </trkpt>
      <trkpt lat="47.32528" lon="-0.42142">
        <ele>59.6</ele>
        <time>2020-08-02T08:29:23Z</time>
      </trkpt>
      <trkpt lat="47.32545" lon="-0.42151">
        <ele>59.8</ele>
        <time>2020-08-02T08:29:27Z</time>
      </trkpt>
      <trkpt lat="47.32562" lon="-0.42161">
        <ele>59.8</ele>
        <time>2020-08-02T08:29:31Z</time>
      </trkpt>
      <trkpt lat="47.32574" lon="-0.42169">
        <ele>59.8</ele>
        <time>2020-08-02T08:29:34Z</time>
      </trkpt>
      <trkpt lat="47.32579" lon="-0.42172">
        <ele>59.8</ele>
        <time>2020-08-02T08:29:35Z</time>
      </trkpt>
      <trkpt lat="47.32583" lon="-0.42174">
        <ele>60</ele>
        <time>2020-08-02T08:29:36Z</time>
      </trkpt>
      <trkpt lat="47.32592" lon="-0.42179">
        <ele>60</ele>
        <time>2020-08-02T08:29:38Z</time>
      </trkpt>
      <trkpt lat="47.32623" lon="-0.42198">
        <ele>60.4</ele>
        <time>2020-08-02T08:29:45Z</time>
      </trkpt>
      <trkpt lat="47.32631" lon="-0.42203">
        <ele>60.6</ele>
        <time>2020-08-02T08:29:47Z</time>
      </trkpt>
      <trkpt lat="47.3264" lon="-0.42208">
        <ele>60.6</ele>
        <time>2020-08-02T08:29:49Z</time>
      </trkpt>
      <trkpt lat="47.32644" lon="-0.42211">
        <ele>60.6</ele>
        <time>2020-08-02T08:29:50Z</time>
      </trkpt>
      <trkpt lat="47.32648" lon="-0.42214">
        <ele>60.8</ele>
        <time>2020-08-02T08:29:51Z</time>
      </trkpt>
      <trkpt lat="47.32652" lon="-0.42216">
        <ele>60.8</ele>
        <time>2020-08-02T08:29:52Z</time>
      </trkpt>
      <trkpt lat="47.32656" lon="-0.42219">
        <ele>61</ele>
        <time>2020-08-02T08:29:53Z</time>
      </trkpt>
      <trkpt lat="47.3266" lon="-0.42222">
        <ele>61</ele>
        <time>2020-08-02T08:29:54Z</time>
      </trkpt>
      <trkpt lat="47.32663" lon="-0.42224">
        <ele>61</ele>
        <time>2020-08-02T08:29:55Z</time>
      </trkpt>
      <trkpt lat="47.32667" lon="-0.42227">
        <ele>61.2</ele>
        <time>2020-08-02T08:29:56Z</time>
      </trkpt>
      <trkpt lat="47.32672" lon="-0.4223">
        <ele>61.2</ele>
        <time>2020-08-02T08:29:57Z</time>
      </trkpt>
      <trkpt lat="47.32676" lon="-0.42233">
        <ele>61.4</ele>
        <time>2020-08-02T08:29:58Z</time>
      </trkpt>
      <trkpt lat="47.32681" lon="-0.42235">
        <ele>61.4</ele>
        <time>2020-08-02T08:29:59Z</time>
      </trkpt>
      <trkpt lat="47.32685" lon="-0.42238">
        <ele>61.4</ele>
        <time>2020-08-02T08:30:00Z</time>
      </trkpt>
      <trkpt lat="47.32693" lon="-0.42245">
        <ele>61.6</ele>
        <time>2020-08-02T08:30:02Z</time>
      </trkpt>
      <trkpt lat="47.32697" lon="-0.42249">
        <ele>61.8</ele>
        <time>2020-08-02T08:30:03Z</time>
      </trkpt>
      <trkpt lat="47.32699" lon="-0.42255">
        <ele>61.8</ele>
        <time>2020-08-02T08:30:04Z</time>
      </trkpt>
      <trkpt lat="47.327" lon="-0.42261">
        <ele>62</ele>
        <time>2020-08-02T08:30:05Z</time>
      </trkpt>
      <trkpt lat="47.32701" lon="-0.42268">
        <ele>62</ele>
        <time>2020-08-02T08:30:06Z</time>
      </trkpt>
      <trkpt lat="47.32701" lon="-0.42283">
        <ele>62.4</ele>
        <time>2020-08-02T08:30:08Z</time>
      </trkpt>
      <trkpt lat="47.32701" lon="-0.4229">
        <ele>62.4</ele>
        <time>2020-08-02T08:30:09Z</time>
      </trkpt>
      <trkpt lat="47.32701" lon="-0.42297">
        <ele>62.6</ele>
        <time>2020-08-02T08:30:10Z</time>
      </trkpt>
      <trkpt lat="47.32701" lon="-0.42304">
        <ele>62.8</ele>
        <time>2020-08-02T08:30:11Z</time>
      </trkpt>
      <trkpt lat="47.32702" lon="-0.42311">
        <ele>63</ele>
        <time>2020-08-02T08:30:12Z</time>
      </trkpt>
      <trkpt lat="47.32703" lon="-0.42318">
        <ele>63</ele>
        <time>2020-08-02T08:30:13Z</time>
      </trkpt>
      <trkpt lat="47.32703" lon="-0.42325">
        <ele>63.2</ele>
        <time>2020-08-02T08:30:14Z</time>
      </trkpt>
      <trkpt lat="47.32703" lon="-0.42332">
        <ele>63.2</ele>
        <time>2020-08-02T08:30:15Z</time>
      </trkpt>
      <trkpt lat="47.32703" lon="-0.42339">
        <ele>63.2</ele>
        <time>2020-08-02T08:30:16Z</time>
      </trkpt>
      <trkpt lat="47.32702" lon="-0.42347">
        <ele>63.6</ele>
        <time>2020-08-02T08:30:17Z</time>
      </trkpt>
      <trkpt lat="47.32702" lon="-0.42354">
        <ele>63.8</ele>
        <time>2020-08-02T08:30:18Z</time>
      </trkpt>
      <trkpt lat="47.32702" lon="-0.42362">
        <ele>64</ele>
        <time>2020-08-02T08:30:19Z</time>
      </trkpt>
      <trkpt lat="47.32702" lon="-0.42371">
        <ele>64.2</ele>
        <time>2020-08-02T08:30:20Z</time>
      </trkpt>
      <trkpt lat="47.32703" lon="-0.42378">
        <ele>64.2</ele>
        <time>2020-08-02T08:30:21Z</time>
      </trkpt>
      <trkpt lat="47.32703" lon="-0.42386">
        <ele>64.2</ele>
        <time>2020-08-02T08:30:22Z</time>
      </trkpt>
      <trkpt lat="47.32705" lon="-0.42394">
        <ele>64.2</ele>
        <time>2020-08-02T08:30:23Z</time>
      </trkpt>
      <trkpt lat="47.32706" lon="-0.42402">
        <ele>64.4</ele>
        <time>2020-08-02T08:30:24Z</time>
      </trkpt>
      <trkpt lat="47.32707" lon="-0.4241">
        <ele>64.4</ele>
        <time>2020-08-02T08:30:25Z</time>
      </trkpt>
      <trkpt lat="47.32709" lon="-0.42418">
        <ele>64.4</ele>
        <time>2020-08-02T08:30:26Z</time>
      </trkpt>
      <trkpt lat="47.32713" lon="-0.42442">
        <ele>64.6</ele>
        <time>2020-08-02T08:30:29Z</time>
      </trkpt>
      <trkpt lat="47.32727" lon="-0.42519">
        <ele>64.6</ele>
        <time>2020-08-02T08:30:38Z</time>
      </trkpt>
      <trkpt lat="47.32728" lon="-0.42528">
        <ele>64.6</ele>
        <time>2020-08-02T08:30:39Z</time>
      </trkpt>
      <trkpt lat="47.32729" lon="-0.42543">
        <ele>64.6</ele>
        <time>2020-08-02T08:30:41Z</time>
      </trkpt>
      <trkpt lat="47.32729" lon="-0.42551">
        <ele>64.6</ele>
        <time>2020-08-02T08:30:42Z</time>
      </trkpt>
      <trkpt lat="47.32729" lon="-0.42558">
        <ele>64.6</ele>
        <time>2020-08-02T08:30:43Z</time>
      </trkpt>
      <trkpt lat="47.3273" lon="-0.42565">
        <ele>64.6</ele>
        <time>2020-08-02T08:30:44Z</time>
      </trkpt>
      <trkpt lat="47.3273" lon="-0.42573">
        <ele>64.6</ele>
        <time>2020-08-02T08:30:45Z</time>
      </trkpt>
      <trkpt lat="47.3273" lon="-0.42587">
        <ele>64.8</ele>
        <time>2020-08-02T08:30:47Z</time>
      </trkpt>
      <trkpt lat="47.32731" lon="-0.42594">
        <ele>64.8</ele>
        <time>2020-08-02T08:30:48Z</time>
      </trkpt>
      <trkpt lat="47.32731" lon="-0.426">
        <ele>64.8</ele>
        <time>2020-08-02T08:30:49Z</time>
      </trkpt>
      <trkpt lat="47.32731" lon="-0.42608">
        <ele>65</ele>
        <time>2020-08-02T08:30:50Z</time>
      </trkpt>
      <trkpt lat="47.32731" lon="-0.42613">
        <ele>65</ele>
        <time>2020-08-02T08:30:51Z</time>
      </trkpt>
      <trkpt lat="47.32731" lon="-0.42619">
        <ele>65</ele>
        <time>2020-08-02T08:30:52Z</time>
      </trkpt>
      <trkpt lat="47.32732" lon="-0.42625">
        <ele>65</ele>
        <time>2020-08-02T08:30:53Z</time>
      </trkpt>
      <trkpt lat="47.32732" lon="-0.42632">
        <ele>65</ele>
        <time>2020-08-02T08:30:54Z</time>
      </trkpt>
      <trkpt lat="47.32732" lon="-0.42638">
        <ele>65</ele>
        <time>2020-08-02T08:30:55Z</time>
      </trkpt>
      <trkpt lat="47.32733" lon="-0.42644">
        <ele>65</ele>
        <time>2020-08-02T08:30:56Z</time>
      </trkpt>
      <trkpt lat="47.32733" lon="-0.42651">
        <ele>65</ele>
        <time>2020-08-02T08:30:57Z</time>
      </trkpt>
      <trkpt lat="47.32734" lon="-0.42657">
        <ele>65</ele>
        <time>2020-08-02T08:30:58Z</time>
      </trkpt>
      <trkpt lat="47.32734" lon="-0.42663">
        <ele>65</ele>
        <time>2020-08-02T08:30:59Z</time>
      </trkpt>
      <trkpt lat="47.32734" lon="-0.4267">
        <ele>65</ele>
        <time>2020-08-02T08:31:00Z</time>
      </trkpt>
      <trkpt lat="47.32737" lon="-0.42703">
        <ele>65</ele>
        <time>2020-08-02T08:31:05Z</time>
      </trkpt>
      <trkpt lat="47.32739" lon="-0.42717">
        <ele>65</ele>
        <time>2020-08-02T08:31:07Z</time>
      </trkpt>
      <trkpt lat="47.32744" lon="-0.42749">
        <ele>65</ele>
        <time>2020-08-02T08:31:11Z</time>
      </trkpt>
      <trkpt lat="47.3275" lon="-0.42796">
        <ele>64.4</ele>
        <time>2020-08-02T08:31:18Z</time>
      </trkpt>
      <trkpt lat="47.32751" lon="-0.4281">
        <ele>64.4</ele>
        <time>2020-08-02T08:31:21Z</time>
      </trkpt>
      <trkpt lat="47.32756" lon="-0.42867">
        <ele>64.2</ele>
        <time>2020-08-02T08:31:29Z</time>
      </trkpt>
      <trkpt lat="47.32757" lon="-0.42873">
        <ele>64</ele>
        <time>2020-08-02T08:31:30Z</time>
      </trkpt>
      <trkpt lat="47.32758" lon="-0.4288">
        <ele>64</ele>
        <time>2020-08-02T08:31:31Z</time>
      </trkpt>
      <trkpt lat="47.32759" lon="-0.42887">
        <ele>64</ele>
        <time>2020-08-02T08:31:32Z</time>
      </trkpt>
      <trkpt lat="47.3276" lon="-0.42899">
        <ele>64.2</ele>
        <time>2020-08-02T08:31:33Z</time>
      </trkpt>
      <trkpt lat="47.3276" lon="-0.42899">
        <ele>64</ele>
        <time>2020-08-02T08:31:34Z</time>
      </trkpt>
      <trkpt lat="47.32763" lon="-0.42912">
        <ele>64</ele>
        <time>2020-08-02T08:31:35Z</time>
      </trkpt>
      <trkpt lat="47.32763" lon="-0.42912">
        <ele>64.2</ele>
        <time>2020-08-02T08:31:36Z</time>
      </trkpt>
      <trkpt lat="47.32766" lon="-0.42925">
        <ele>64.2</ele>
        <time>2020-08-02T08:31:37Z</time>
      </trkpt>
      <trkpt lat="47.32768" lon="-0.42932">
        <ele>64.2</ele>
        <time>2020-08-02T08:31:38Z</time>
      </trkpt>
      <trkpt lat="47.32768" lon="-0.42932">
        <ele>64.2</ele>
        <time>2020-08-02T08:31:39Z</time>
      </trkpt>
      <trkpt lat="47.32772" lon="-0.42945">
        <ele>64.2</ele>
        <time>2020-08-02T08:31:40Z</time>
      </trkpt>
      <trkpt lat="47.32774" lon="-0.42952">
        <ele>64.2</ele>
        <time>2020-08-02T08:31:41Z</time>
      </trkpt>
      <trkpt lat="47.32777" lon="-0.42959">
        <ele>64.2</ele>
        <time>2020-08-02T08:31:42Z</time>
      </trkpt>
      <trkpt lat="47.32786" lon="-0.4298">
        <ele>64.2</ele>
        <time>2020-08-02T08:31:45Z</time>
      </trkpt>
      <trkpt lat="47.32807" lon="-0.43032">
        <ele>64.6</ele>
        <time>2020-08-02T08:31:53Z</time>
      </trkpt>
      <trkpt lat="47.3281" lon="-0.43038">
        <ele>64.6</ele>
        <time>2020-08-02T08:31:54Z</time>
      </trkpt>
      <trkpt lat="47.32812" lon="-0.43046">
        <ele>64.6</ele>
        <time>2020-08-02T08:31:55Z</time>
      </trkpt>
      <trkpt lat="47.32813" lon="-0.43054">
        <ele>64.6</ele>
        <time>2020-08-02T08:31:56Z</time>
      </trkpt>
      <trkpt lat="47.32814" lon="-0.43061">
        <ele>64.6</ele>
        <time>2020-08-02T08:31:57Z</time>
      </trkpt>
      <trkpt lat="47.32816" lon="-0.43069">
        <ele>64.6</ele>
        <time>2020-08-02T08:31:58Z</time>
      </trkpt>
      <trkpt lat="47.32817" lon="-0.43076">
        <ele>64.6</ele>
        <time>2020-08-02T08:31:59Z</time>
      </trkpt>
      <trkpt lat="47.32819" lon="-0.43092">
        <ele>64.6</ele>
        <time>2020-08-02T08:32:01Z</time>
      </trkpt>
      <trkpt lat="47.32823" lon="-0.43122">
        <ele>64.6</ele>
        <time>2020-08-02T08:32:05Z</time>
      </trkpt>
      <trkpt lat="47.32825" lon="-0.4313">
        <ele>64.6</ele>
        <time>2020-08-02T08:32:06Z</time>
      </trkpt>
      <trkpt lat="47.32825" lon="-0.4313">
        <ele>64.8</ele>
        <time>2020-08-02T08:32:07Z</time>
      </trkpt>
      <trkpt lat="47.32826" lon="-0.43145">
        <ele>64.8</ele>
        <time>2020-08-02T08:32:08Z</time>
      </trkpt>
      <trkpt lat="47.32828" lon="-0.43152">
        <ele>65</ele>
        <time>2020-08-02T08:32:09Z</time>
      </trkpt>
      <trkpt lat="47.32829" lon="-0.4316">
        <ele>65</ele>
        <time>2020-08-02T08:32:10Z</time>
      </trkpt>
      <trkpt lat="47.3283" lon="-0.43167">
        <ele>65</ele>
        <time>2020-08-02T08:32:11Z</time>
      </trkpt>
      <trkpt lat="47.3283" lon="-0.43167">
        <ele>65</ele>
        <time>2020-08-02T08:32:12Z</time>
      </trkpt>
      <trkpt lat="47.32833" lon="-0.43182">
        <ele>65</ele>
        <time>2020-08-02T08:32:13Z</time>
      </trkpt>
      <trkpt lat="47.32835" lon="-0.43189">
        <ele>65.2</ele>
        <time>2020-08-02T08:32:14Z</time>
      </trkpt>
      <trkpt lat="47.32836" lon="-0.43196">
        <ele>65.2</ele>
        <time>2020-08-02T08:32:15Z</time>
      </trkpt>
      <trkpt lat="47.32845" lon="-0.43224">
        <ele>65.2</ele>
        <time>2020-08-02T08:32:19Z</time>
      </trkpt>
      <trkpt lat="47.32848" lon="-0.43231">
        <ele>65.2</ele>
        <time>2020-08-02T08:32:20Z</time>
      </trkpt>
      <trkpt lat="47.32848" lon="-0.43231">
        <ele>65.2</ele>
        <time>2020-08-02T08:32:21Z</time>
      </trkpt>
      <trkpt lat="47.32853" lon="-0.43243">
        <ele>65.2</ele>
        <time>2020-08-02T08:32:22Z</time>
      </trkpt>
      <trkpt lat="47.32856" lon="-0.43249">
        <ele>65.2</ele>
        <time>2020-08-02T08:32:23Z</time>
      </trkpt>
      <trkpt lat="47.32858" lon="-0.43256">
        <ele>65.2</ele>
        <time>2020-08-02T08:32:24Z</time>
      </trkpt>
      <trkpt lat="47.32861" lon="-0.43262">
        <ele>65.2</ele>
        <time>2020-08-02T08:32:25Z</time>
      </trkpt>
      <trkpt lat="47.32861" lon="-0.43262">
        <ele>65</ele>
        <time>2020-08-02T08:32:26Z</time>
      </trkpt>
      <trkpt lat="47.32867" lon="-0.43274">
        <ele>65</ele>
        <time>2020-08-02T08:32:27Z</time>
      </trkpt>
      <trkpt lat="47.32869" lon="-0.4328">
        <ele>65</ele>
        <time>2020-08-02T08:32:28Z</time>
      </trkpt>
      <trkpt lat="47.32872" lon="-0.43286">
        <ele>65</ele>
        <time>2020-08-02T08:32:29Z</time>
      </trkpt>
      <trkpt lat="47.32875" lon="-0.43293">
        <ele>65</ele>
        <time>2020-08-02T08:32:30Z</time>
      </trkpt>
      <trkpt lat="47.32878" lon="-0.43299">
        <ele>65</ele>
        <time>2020-08-02T08:32:31Z</time>
      </trkpt>
      <trkpt lat="47.32889" lon="-0.43326">
        <ele>65</ele>
        <time>2020-08-02T08:32:36Z</time>
      </trkpt>
      <trkpt lat="47.32905" lon="-0.43378">
        <ele>64.8</ele>
        <time>2020-08-02T08:32:42Z</time>
      </trkpt>
      <trkpt lat="47.32907" lon="-0.43387">
        <ele>64.6</ele>
        <time>2020-08-02T08:32:43Z</time>
      </trkpt>
      <trkpt lat="47.32909" lon="-0.43395">
        <ele>64.6</ele>
        <time>2020-08-02T08:32:44Z</time>
      </trkpt>
      <trkpt lat="47.32913" lon="-0.43411">
        <ele>64.6</ele>
        <time>2020-08-02T08:32:46Z</time>
      </trkpt>
      <trkpt lat="47.32921" lon="-0.43459">
        <ele>64</ele>
        <time>2020-08-02T08:32:52Z</time>
      </trkpt>
      <trkpt lat="47.32923" lon="-0.43476">
        <ele>64</ele>
        <time>2020-08-02T08:32:54Z</time>
      </trkpt>
      <trkpt lat="47.32923" lon="-0.43476">
        <ele>64</ele>
        <time>2020-08-02T08:32:55Z</time>
      </trkpt>
      <trkpt lat="47.32924" lon="-0.43493">
        <ele>63.8</ele>
        <time>2020-08-02T08:32:56Z</time>
      </trkpt>
      <trkpt lat="47.32924" lon="-0.43501">
        <ele>63.8</ele>
        <time>2020-08-02T08:32:57Z</time>
      </trkpt>
      <trkpt lat="47.32924" lon="-0.43517">
        <ele>63.8</ele>
        <time>2020-08-02T08:32:59Z</time>
      </trkpt>
      <trkpt lat="47.32925" lon="-0.4355">
        <ele>63.6</ele>
        <time>2020-08-02T08:33:03Z</time>
      </trkpt>
      <trkpt lat="47.32925" lon="-0.4355">
        <ele>63.6</ele>
        <time>2020-08-02T08:33:04Z</time>
      </trkpt>
      <trkpt lat="47.32924" lon="-0.43609">
        <ele>63.6</ele>
        <time>2020-08-02T08:33:10Z</time>
      </trkpt>
      <trkpt lat="47.32924" lon="-0.43617">
        <ele>63.6</ele>
        <time>2020-08-02T08:33:11Z</time>
      </trkpt>
      <trkpt lat="47.32924" lon="-0.43626">
        <ele>63.8</ele>
        <time>2020-08-02T08:33:12Z</time>
      </trkpt>
      <trkpt lat="47.32924" lon="-0.43634">
        <ele>63.8</ele>
        <time>2020-08-02T08:33:13Z</time>
      </trkpt>
      <trkpt lat="47.32924" lon="-0.43634">
        <ele>63.8</ele>
        <time>2020-08-02T08:33:14Z</time>
      </trkpt>
      <trkpt lat="47.32924" lon="-0.4365">
        <ele>63.8</ele>
        <time>2020-08-02T08:33:15Z</time>
      </trkpt>
      <trkpt lat="47.32923" lon="-0.43657">
        <ele>63.8</ele>
        <time>2020-08-02T08:33:16Z</time>
      </trkpt>
      <trkpt lat="47.32924" lon="-0.43665">
        <ele>63.8</ele>
        <time>2020-08-02T08:33:17Z</time>
      </trkpt>
      <trkpt lat="47.32924" lon="-0.43673">
        <ele>63.8</ele>
        <time>2020-08-02T08:33:18Z</time>
      </trkpt>
      <trkpt lat="47.32924" lon="-0.4368">
        <ele>63.8</ele>
        <time>2020-08-02T08:33:19Z</time>
      </trkpt>
      <trkpt lat="47.32925" lon="-0.43687">
        <ele>63.6</ele>
        <time>2020-08-02T08:33:20Z</time>
      </trkpt>
      <trkpt lat="47.32925" lon="-0.43694">
        <ele>63.6</ele>
        <time>2020-08-02T08:33:21Z</time>
      </trkpt>
      <trkpt lat="47.32926" lon="-0.43701">
        <ele>63.6</ele>
        <time>2020-08-02T08:33:22Z</time>
      </trkpt>
      <trkpt lat="47.32926" lon="-0.43701">
        <ele>63.4</ele>
        <time>2020-08-02T08:33:23Z</time>
      </trkpt>
      <trkpt lat="47.32933" lon="-0.4371">
        <ele>63.4</ele>
        <time>2020-08-02T08:33:24Z</time>
      </trkpt>
      <trkpt lat="47.32937" lon="-0.43713">
        <ele>63.4</ele>
        <time>2020-08-02T08:33:25Z</time>
      </trkpt>
      <trkpt lat="47.32942" lon="-0.43713">
        <ele>63.2</ele>
        <time>2020-08-02T08:33:26Z</time>
      </trkpt>
      <trkpt lat="47.32946" lon="-0.43712">
        <ele>63</ele>
        <time>2020-08-02T08:33:27Z</time>
      </trkpt>
      <trkpt lat="47.32946" lon="-0.43712">
        <ele>63</ele>
        <time>2020-08-02T08:33:28Z</time>
      </trkpt>
      <trkpt lat="47.32955" lon="-0.43711">
        <ele>62.8</ele>
        <time>2020-08-02T08:33:29Z</time>
      </trkpt>
      <trkpt lat="47.3296" lon="-0.43711">
        <ele>62.6</ele>
        <time>2020-08-02T08:33:30Z</time>
      </trkpt>
      <trkpt lat="47.32964" lon="-0.4371">
        <ele>62.4</ele>
        <time>2020-08-02T08:33:31Z</time>
      </trkpt>
      <trkpt lat="47.32969" lon="-0.4371">
        <ele>62.4</ele>
        <time>2020-08-02T08:33:32Z</time>
      </trkpt>
      <trkpt lat="47.32974" lon="-0.43709">
        <ele>62.4</ele>
        <time>2020-08-02T08:33:33Z</time>
      </trkpt>
      <trkpt lat="47.32979" lon="-0.43709">
        <ele>62.4</ele>
        <time>2020-08-02T08:33:34Z</time>
      </trkpt>
      <trkpt lat="47.32983" lon="-0.43709">
        <ele>62.4</ele>
        <time>2020-08-02T08:33:35Z</time>
      </trkpt>
      <trkpt lat="47.32988" lon="-0.43709">
        <ele>62.2</ele>
        <time>2020-08-02T08:33:36Z</time>
      </trkpt>
      <trkpt lat="47.33011" lon="-0.43707">
        <ele>62.2</ele>
        <time>2020-08-02T08:33:41Z</time>
      </trkpt>
      <trkpt lat="47.33011" lon="-0.43707">
        <ele>62.2</ele>
        <time>2020-08-02T08:33:42Z</time>
      </trkpt>
      <trkpt lat="47.33061" lon="-0.43706">
        <ele>61.6</ele>
        <time>2020-08-02T08:33:51Z</time>
      </trkpt>
      <trkpt lat="47.331" lon="-0.43706">
        <ele>61</ele>
        <time>2020-08-02T08:33:59Z</time>
      </trkpt>
      <trkpt lat="47.33105" lon="-0.43706">
        <ele>61</ele>
        <time>2020-08-02T08:34:00Z</time>
      </trkpt>
      <trkpt lat="47.33105" lon="-0.43706">
        <ele>61</ele>
        <time>2020-08-02T08:34:01Z</time>
      </trkpt>
      <trkpt lat="47.33115" lon="-0.43705">
        <ele>61</ele>
        <time>2020-08-02T08:34:02Z</time>
      </trkpt>
      <trkpt lat="47.3312" lon="-0.43705">
        <ele>60.8</ele>
        <time>2020-08-02T08:34:03Z</time>
      </trkpt>
      <trkpt lat="47.33125" lon="-0.43704">
        <ele>60.8</ele>
        <time>2020-08-02T08:34:04Z</time>
      </trkpt>
      <trkpt lat="47.3313" lon="-0.43703">
        <ele>60.8</ele>
        <time>2020-08-02T08:34:05Z</time>
      </trkpt>
      <trkpt lat="47.33135" lon="-0.43703">
        <ele>60.8</ele>
        <time>2020-08-02T08:34:06Z</time>
      </trkpt>
      <trkpt lat="47.3314" lon="-0.43703">
        <ele>60.6</ele>
        <time>2020-08-02T08:34:07Z</time>
      </trkpt>
      <trkpt lat="47.33145" lon="-0.43702">
        <ele>60.6</ele>
        <time>2020-08-02T08:34:08Z</time>
      </trkpt>
      <trkpt lat="47.3315" lon="-0.43702">
        <ele>60.6</ele>
        <time>2020-08-02T08:34:09Z</time>
      </trkpt>
      <trkpt lat="47.3315" lon="-0.43702">
        <ele>60.4</ele>
        <time>2020-08-02T08:34:10Z</time>
      </trkpt>
      <trkpt lat="47.33159" lon="-0.43702">
        <ele>60.4</ele>
        <time>2020-08-02T08:34:11Z</time>
      </trkpt>
      <trkpt lat="47.33164" lon="-0.43702">
        <ele>60.2</ele>
        <time>2020-08-02T08:34:12Z</time>
      </trkpt>
      <trkpt lat="47.33169" lon="-0.43703">
        <ele>60.2</ele>
        <time>2020-08-02T08:34:13Z</time>
      </trkpt>
      <trkpt lat="47.33174" lon="-0.43704">
        <ele>60.2</ele>
        <time>2020-08-02T08:34:14Z</time>
      </trkpt>
      <trkpt lat="47.33174" lon="-0.43704">
        <ele>60.2</ele>
        <time>2020-08-02T08:34:15Z</time>
      </trkpt>
      <trkpt lat="47.33183" lon="-0.43707">
        <ele>60.2</ele>
        <time>2020-08-02T08:34:16Z</time>
      </trkpt>
      <trkpt lat="47.33187" lon="-0.43709">
        <ele>60.2</ele>
        <time>2020-08-02T08:34:17Z</time>
      </trkpt>
      <trkpt lat="47.33191" lon="-0.4371">
        <ele>60.2</ele>
        <time>2020-08-02T08:34:18Z</time>
      </trkpt>
      <trkpt lat="47.33195" lon="-0.43712">
        <ele>60</ele>
        <time>2020-08-02T08:34:19Z</time>
      </trkpt>
      <trkpt lat="47.33195" lon="-0.43712">
        <ele>60</ele>
        <time>2020-08-02T08:34:20Z</time>
      </trkpt>
      <trkpt lat="47.33203" lon="-0.43715">
        <ele>60</ele>
        <time>2020-08-02T08:34:21Z</time>
      </trkpt>
      <trkpt lat="47.33206" lon="-0.43717">
        <ele>59.8</ele>
        <time>2020-08-02T08:34:22Z</time>
      </trkpt>
      <trkpt lat="47.3321" lon="-0.4372">
        <ele>59.8</ele>
        <time>2020-08-02T08:34:23Z</time>
      </trkpt>
      <trkpt lat="47.33214" lon="-0.43722">
        <ele>59.8</ele>
        <time>2020-08-02T08:34:24Z</time>
      </trkpt>
      <trkpt lat="47.33218" lon="-0.43724">
        <ele>59.8</ele>
        <time>2020-08-02T08:34:25Z</time>
      </trkpt>
      <trkpt lat="47.33222" lon="-0.43726">
        <ele>59.8</ele>
        <time>2020-08-02T08:34:26Z</time>
      </trkpt>
      <trkpt lat="47.33226" lon="-0.43728">
        <ele>59.8</ele>
        <time>2020-08-02T08:34:27Z</time>
      </trkpt>
      <trkpt lat="47.3323" lon="-0.4373">
        <ele>59.8</ele>
        <time>2020-08-02T08:34:28Z</time>
      </trkpt>
      <trkpt lat="47.3323" lon="-0.4373">
        <ele>59.8</ele>
        <time>2020-08-02T08:34:29Z</time>
      </trkpt>
      <trkpt lat="47.33238" lon="-0.43733">
        <ele>59.8</ele>
        <time>2020-08-02T08:34:30Z</time>
      </trkpt>
      <trkpt lat="47.3325" lon="-0.4374">
        <ele>59.8</ele>
        <time>2020-08-02T08:34:33Z</time>
      </trkpt>
      <trkpt lat="47.3325" lon="-0.4374">
        <ele>59.8</ele>
        <time>2020-08-02T08:34:34Z</time>
      </trkpt>
      <trkpt lat="47.33265" lon="-0.43748">
        <ele>59.6</ele>
        <time>2020-08-02T08:34:37Z</time>
      </trkpt>
      <trkpt lat="47.33277" lon="-0.43754">
        <ele>59.6</ele>
        <time>2020-08-02T08:34:40Z</time>
      </trkpt>
      <trkpt lat="47.33281" lon="-0.43757">
        <ele>59.6</ele>
        <time>2020-08-02T08:34:41Z</time>
      </trkpt>
      <trkpt lat="47.33284" lon="-0.43759">
        <ele>59.6</ele>
        <time>2020-08-02T08:34:42Z</time>
      </trkpt>
      <trkpt lat="47.33288" lon="-0.43761">
        <ele>59.6</ele>
        <time>2020-08-02T08:34:43Z</time>
      </trkpt>
      <trkpt lat="47.33292" lon="-0.43763">
        <ele>59.6</ele>
        <time>2020-08-02T08:34:44Z</time>
      </trkpt>
      <trkpt lat="47.33297" lon="-0.43764">
        <ele>59.6</ele>
        <time>2020-08-02T08:34:45Z</time>
      </trkpt>
      <trkpt lat="47.333" lon="-0.43765">
        <ele>59.6</ele>
        <time>2020-08-02T08:34:46Z</time>
      </trkpt>
      <trkpt lat="47.33304" lon="-0.43767">
        <ele>59.6</ele>
        <time>2020-08-02T08:34:47Z</time>
      </trkpt>
      <trkpt lat="47.33304" lon="-0.43767">
        <ele>59.6</ele>
        <time>2020-08-02T08:34:48Z</time>
      </trkpt>
      <trkpt lat="47.33311" lon="-0.43772">
        <ele>59.4</ele>
        <time>2020-08-02T08:34:49Z</time>
      </trkpt>
      <trkpt lat="47.33314" lon="-0.43775">
        <ele>59.4</ele>
        <time>2020-08-02T08:34:50Z</time>
      </trkpt>
      <trkpt lat="47.33317" lon="-0.43776">
        <ele>59.4</ele>
        <time>2020-08-02T08:34:51Z</time>
      </trkpt>
      <trkpt lat="47.33319" lon="-0.43778">
        <ele>59.4</ele>
        <time>2020-08-02T08:34:52Z</time>
      </trkpt>
      <trkpt lat="47.33324" lon="-0.43781">
        <ele>59.4</ele>
        <time>2020-08-02T08:34:54Z</time>
      </trkpt>
      <trkpt lat="47.33326" lon="-0.43782">
        <ele>59.6</ele>
        <time>2020-08-02T08:34:55Z</time>
      </trkpt>
      <trkpt lat="47.33328" lon="-0.43784">
        <ele>59.6</ele>
        <time>2020-08-02T08:34:56Z</time>
      </trkpt>
      <trkpt lat="47.3333" lon="-0.43787">
        <ele>59.6</ele>
        <time>2020-08-02T08:34:57Z</time>
      </trkpt>
      <trkpt lat="47.33333" lon="-0.4379">
        <ele>59.6</ele>
        <time>2020-08-02T08:34:58Z</time>
      </trkpt>
      <trkpt lat="47.33335" lon="-0.43793">
        <ele>59.6</ele>
        <time>2020-08-02T08:34:59Z</time>
      </trkpt>
      <trkpt lat="47.33342" lon="-0.43802">
        <ele>59.6</ele>
        <time>2020-08-02T08:35:02Z</time>
      </trkpt>
      <trkpt lat="47.33355" lon="-0.43818">
        <ele>59.6</ele>
        <time>2020-08-02T08:35:07Z</time>
      </trkpt>
      <trkpt lat="47.33366" lon="-0.43831">
        <ele>59.6</ele>
        <time>2020-08-02T08:35:09Z</time>
      </trkpt>
      <trkpt lat="47.33368" lon="-0.43834">
        <ele>59.6</ele>
        <time>2020-08-02T08:35:10Z</time>
      </trkpt>
      <trkpt lat="47.33372" lon="-0.43839">
        <ele>59.6</ele>
        <time>2020-08-02T08:35:11Z</time>
      </trkpt>
      <trkpt lat="47.33381" lon="-0.43853">
        <ele>59.6</ele>
        <time>2020-08-02T08:35:14Z</time>
      </trkpt>
      <trkpt lat="47.33389" lon="-0.43866">
        <ele>59.6</ele>
        <time>2020-08-02T08:35:17Z</time>
      </trkpt>
      <trkpt lat="47.33395" lon="-0.43875">
        <ele>59.6</ele>
        <time>2020-08-02T08:35:19Z</time>
      </trkpt>
      <trkpt lat="47.33398" lon="-0.43881">
        <ele>59.6</ele>
        <time>2020-08-02T08:35:20Z</time>
      </trkpt>
      <trkpt lat="47.33398" lon="-0.43881">
        <ele>59.8</ele>
        <time>2020-08-02T08:35:21Z</time>
      </trkpt>
      <trkpt lat="47.33402" lon="-0.43891">
        <ele>59.8</ele>
        <time>2020-08-02T08:35:22Z</time>
      </trkpt>
      <trkpt lat="47.33405" lon="-0.43896">
        <ele>59.8</ele>
        <time>2020-08-02T08:35:23Z</time>
      </trkpt>
      <trkpt lat="47.33407" lon="-0.43899">
        <ele>60</ele>
        <time>2020-08-02T08:35:24Z</time>
      </trkpt>
      <trkpt lat="47.3341" lon="-0.43904">
        <ele>60</ele>
        <time>2020-08-02T08:35:25Z</time>
      </trkpt>
      <trkpt lat="47.3341" lon="-0.43904">
        <ele>60</ele>
        <time>2020-08-02T08:35:26Z</time>
      </trkpt>
      <trkpt lat="47.33417" lon="-0.43913">
        <ele>60</ele>
        <time>2020-08-02T08:35:27Z</time>
      </trkpt>
      <trkpt lat="47.3342" lon="-0.43919">
        <ele>60</ele>
        <time>2020-08-02T08:35:28Z</time>
      </trkpt>
      <trkpt lat="47.33423" lon="-0.43924">
        <ele>60</ele>
        <time>2020-08-02T08:35:29Z</time>
      </trkpt>
      <trkpt lat="47.33427" lon="-0.43928">
        <ele>60</ele>
        <time>2020-08-02T08:35:30Z</time>
      </trkpt>
      <trkpt lat="47.3345" lon="-0.4396">
        <ele>60</ele>
        <time>2020-08-02T08:35:36Z</time>
      </trkpt>
      <trkpt lat="47.33454" lon="-0.43964">
        <ele>60</ele>
        <time>2020-08-02T08:35:37Z</time>
      </trkpt>
      <trkpt lat="47.33458" lon="-0.43968">
        <ele>60</ele>
        <time>2020-08-02T08:35:38Z</time>
      </trkpt>
      <trkpt lat="47.33461" lon="-0.43973">
        <ele>60</ele>
        <time>2020-08-02T08:35:39Z</time>
      </trkpt>
      <trkpt lat="47.33473" lon="-0.43986">
        <ele>60.2</ele>
        <time>2020-08-02T08:35:42Z</time>
      </trkpt>
      <trkpt lat="47.33478" lon="-0.43989">
        <ele>60.2</ele>
        <time>2020-08-02T08:35:43Z</time>
      </trkpt>
      <trkpt lat="47.33482" lon="-0.43992">
        <ele>60.2</ele>
        <time>2020-08-02T08:35:45Z</time>
      </trkpt>
      <trkpt lat="47.33494" lon="-0.44001">
        <ele>60.4</ele>
        <time>2020-08-02T08:35:47Z</time>
      </trkpt>
      <trkpt lat="47.33498" lon="-0.44004">
        <ele>60.4</ele>
        <time>2020-08-02T08:35:48Z</time>
      </trkpt>
      <trkpt lat="47.33502" lon="-0.44006">
        <ele>60.4</ele>
        <time>2020-08-02T08:35:49Z</time>
      </trkpt>
      <trkpt lat="47.33505" lon="-0.44008">
        <ele>60.4</ele>
        <time>2020-08-02T08:35:50Z</time>
      </trkpt>
      <trkpt lat="47.33509" lon="-0.44009">
        <ele>60.4</ele>
        <time>2020-08-02T08:35:51Z</time>
      </trkpt>
      <trkpt lat="47.33512" lon="-0.4401">
        <ele>60.6</ele>
        <time>2020-08-02T08:35:52Z</time>
      </trkpt>
      <trkpt lat="47.33515" lon="-0.44011">
        <ele>60.6</ele>
        <time>2020-08-02T08:35:53Z</time>
      </trkpt>
      <trkpt lat="47.33522" lon="-0.44013">
        <ele>60.8</ele>
        <time>2020-08-02T08:35:55Z</time>
      </trkpt>
      <trkpt lat="47.33526" lon="-0.44014">
        <ele>60.8</ele>
        <time>2020-08-02T08:35:56Z</time>
      </trkpt>
      <trkpt lat="47.33529" lon="-0.44014">
        <ele>61</ele>
        <time>2020-08-02T08:35:57Z</time>
      </trkpt>
      <trkpt lat="47.33533" lon="-0.44014">
        <ele>61</ele>
        <time>2020-08-02T08:35:58Z</time>
      </trkpt>
      <trkpt lat="47.33533" lon="-0.44014">
        <ele>61</ele>
        <time>2020-08-02T08:35:59Z</time>
      </trkpt>
      <trkpt lat="47.3354" lon="-0.44014">
        <ele>61.2</ele>
        <time>2020-08-02T08:36:00Z</time>
      </trkpt>
      <trkpt lat="47.33543" lon="-0.44013">
        <ele>61.2</ele>
        <time>2020-08-02T08:36:01Z</time>
      </trkpt>
      <trkpt lat="47.33547" lon="-0.44011">
        <ele>61.4</ele>
        <time>2020-08-02T08:36:02Z</time>
      </trkpt>
      <trkpt lat="47.3355" lon="-0.44009">
        <ele>61.4</ele>
        <time>2020-08-02T08:36:03Z</time>
      </trkpt>
      <trkpt lat="47.33554" lon="-0.44007">
        <ele>61.4</ele>
        <time>2020-08-02T08:36:04Z</time>
      </trkpt>
      <trkpt lat="47.33557" lon="-0.44004">
        <ele>61.6</ele>
        <time>2020-08-02T08:36:05Z</time>
      </trkpt>
      <trkpt lat="47.33561" lon="-0.44001">
        <ele>61.6</ele>
        <time>2020-08-02T08:36:06Z</time>
      </trkpt>
      <trkpt lat="47.33567" lon="-0.43993">
        <ele>61.6</ele>
        <time>2020-08-02T08:36:08Z</time>
      </trkpt>
      <trkpt lat="47.33573" lon="-0.43982">
        <ele>61.6</ele>
        <time>2020-08-02T08:36:10Z</time>
      </trkpt>
      <trkpt lat="47.33579" lon="-0.43973">
        <ele>61.8</ele>
        <time>2020-08-02T08:36:12Z</time>
      </trkpt>
      <trkpt lat="47.33579" lon="-0.43973">
        <ele>61.8</ele>
        <time>2020-08-02T08:36:13Z</time>
      </trkpt>
      <trkpt lat="47.33587" lon="-0.43968">
        <ele>61.8</ele>
        <time>2020-08-02T08:36:14Z</time>
      </trkpt>
      <trkpt lat="47.33591" lon="-0.43966">
        <ele>61.8</ele>
        <time>2020-08-02T08:36:15Z</time>
      </trkpt>
      <trkpt lat="47.33595" lon="-0.43966">
        <ele>62</ele>
        <time>2020-08-02T08:36:16Z</time>
      </trkpt>
      <trkpt lat="47.33599" lon="-0.43968">
        <ele>62</ele>
        <time>2020-08-02T08:36:17Z</time>
      </trkpt>
      <trkpt lat="47.33599" lon="-0.43968">
        <ele>62</ele>
        <time>2020-08-02T08:36:18Z</time>
      </trkpt>
      <trkpt lat="47.33603" lon="-0.43971">
        <ele>62</ele>
        <time>2020-08-02T08:36:19Z</time>
      </trkpt>
      <trkpt lat="47.33611" lon="-0.43977">
        <ele>62</ele>
        <time>2020-08-02T08:36:20Z</time>
      </trkpt>
      <trkpt lat="47.33615" lon="-0.43981">
        <ele>62</ele>
        <time>2020-08-02T08:36:21Z</time>
      </trkpt>
      <trkpt lat="47.33629" lon="-0.43993">
        <ele>61.8</ele>
        <time>2020-08-02T08:36:25Z</time>
      </trkpt>
      <trkpt lat="47.33632" lon="-0.43996">
        <ele>61.8</ele>
        <time>2020-08-02T08:36:26Z</time>
      </trkpt>
      <trkpt lat="47.33633" lon="-0.44">
        <ele>61.8</ele>
        <time>2020-08-02T08:36:27Z</time>
      </trkpt>
      <trkpt lat="47.33635" lon="-0.44004">
        <ele>61.8</ele>
        <time>2020-08-02T08:36:28Z</time>
      </trkpt>
      <trkpt lat="47.33637" lon="-0.44007">
        <ele>61.8</ele>
        <time>2020-08-02T08:36:29Z</time>
      </trkpt>
      <trkpt lat="47.33638" lon="-0.44011">
        <ele>61.8</ele>
        <time>2020-08-02T08:36:30Z</time>
      </trkpt>
      <trkpt lat="47.3364" lon="-0.44014">
        <ele>61.8</ele>
        <time>2020-08-02T08:36:31Z</time>
      </trkpt>
      <trkpt lat="47.3364" lon="-0.44014">
        <ele>61.8</ele>
        <time>2020-08-02T08:36:32Z</time>
      </trkpt>
      <trkpt lat="47.3364" lon="-0.44024">
        <ele>61.8</ele>
        <time>2020-08-02T08:36:33Z</time>
      </trkpt>
      <trkpt lat="47.33641" lon="-0.44031">
        <ele>62</ele>
        <time>2020-08-02T08:36:34Z</time>
      </trkpt>
      <trkpt lat="47.33641" lon="-0.44036">
        <ele>62</ele>
        <time>2020-08-02T08:36:35Z</time>
      </trkpt>
      <trkpt lat="47.33642" lon="-0.44042">
        <ele>62.2</ele>
        <time>2020-08-02T08:36:36Z</time>
      </trkpt>
      <trkpt lat="47.33644" lon="-0.44049">
        <ele>62.2</ele>
        <time>2020-08-02T08:36:37Z</time>
      </trkpt>
      <trkpt lat="47.33647" lon="-0.44062">
        <ele>62.2</ele>
        <time>2020-08-02T08:36:39Z</time>
      </trkpt>
      <trkpt lat="47.33649" lon="-0.44069">
        <ele>62.2</ele>
        <time>2020-08-02T08:36:40Z</time>
      </trkpt>
      <trkpt lat="47.33652" lon="-0.44081">
        <ele>62</ele>
        <time>2020-08-02T08:36:42Z</time>
      </trkpt>
      <trkpt lat="47.33652" lon="-0.44087">
        <ele>61.6</ele>
        <time>2020-08-02T08:36:43Z</time>
      </trkpt>
      <trkpt lat="47.33651" lon="-0.44093">
        <ele>61.4</ele>
        <time>2020-08-02T08:36:44Z</time>
      </trkpt>
      <trkpt lat="47.3365" lon="-0.44099">
        <ele>61</ele>
        <time>2020-08-02T08:36:45Z</time>
      </trkpt>
      <trkpt lat="47.3365" lon="-0.44099">
        <ele>60.8</ele>
        <time>2020-08-02T08:36:46Z</time>
      </trkpt>
      <trkpt lat="47.33649" lon="-0.44112">
        <ele>60.8</ele>
        <time>2020-08-02T08:36:47Z</time>
      </trkpt>
      <trkpt lat="47.33649" lon="-0.44119">
        <ele>60.8</ele>
        <time>2020-08-02T08:36:48Z</time>
      </trkpt>
      <trkpt lat="47.33649" lon="-0.44135">
        <ele>60.6</ele>
        <time>2020-08-02T08:36:50Z</time>
      </trkpt>
      <trkpt lat="47.33648" lon="-0.44151">
        <ele>60.6</ele>
        <time>2020-08-02T08:36:52Z</time>
      </trkpt>
      <trkpt lat="47.33646" lon="-0.44205">
        <ele>60</ele>
        <time>2020-08-02T08:36:59Z</time>
      </trkpt>
      <trkpt lat="47.33646" lon="-0.44231">
        <ele>59.6</ele>
        <time>2020-08-02T08:37:02Z</time>
      </trkpt>
      <trkpt lat="47.33647" lon="-0.44248">
        <ele>58.8</ele>
        <time>2020-08-02T08:37:05Z</time>
      </trkpt>
      <trkpt lat="47.33646" lon="-0.44276">
        <ele>58.6</ele>
        <time>2020-08-02T08:37:07Z</time>
      </trkpt>
      <trkpt lat="47.33645" lon="-0.44285">
        <ele>58.4</ele>
        <time>2020-08-02T08:37:08Z</time>
      </trkpt>
      <trkpt lat="47.33642" lon="-0.44311">
        <ele>57.6</ele>
        <time>2020-08-02T08:37:11Z</time>
      </trkpt>
      <trkpt lat="47.33641" lon="-0.44319">
        <ele>57.4</ele>
        <time>2020-08-02T08:37:12Z</time>
      </trkpt>
      <trkpt lat="47.33639" lon="-0.44335">
        <ele>57</ele>
        <time>2020-08-02T08:37:14Z</time>
      </trkpt>
      <trkpt lat="47.33639" lon="-0.44342">
        <ele>57</ele>
        <time>2020-08-02T08:37:15Z</time>
      </trkpt>
      <trkpt lat="47.33639" lon="-0.44349">
        <ele>56.6</ele>
        <time>2020-08-02T08:37:16Z</time>
      </trkpt>
      <trkpt lat="47.33639" lon="-0.44356">
        <ele>56.6</ele>
        <time>2020-08-02T08:37:17Z</time>
      </trkpt>
      <trkpt lat="47.3364" lon="-0.44363">
        <ele>56.4</ele>
        <time>2020-08-02T08:37:18Z</time>
      </trkpt>
      <trkpt lat="47.3364" lon="-0.44363">
        <ele>56.2</ele>
        <time>2020-08-02T08:37:19Z</time>
      </trkpt>
      <trkpt lat="47.33642" lon="-0.44375">
        <ele>56.2</ele>
        <time>2020-08-02T08:37:20Z</time>
      </trkpt>
      <trkpt lat="47.33642" lon="-0.44384">
        <ele>56</ele>
        <time>2020-08-02T08:37:21Z</time>
      </trkpt>
      <trkpt lat="47.33641" lon="-0.4439">
        <ele>55.6</ele>
        <time>2020-08-02T08:37:22Z</time>
      </trkpt>
      <trkpt lat="47.33639" lon="-0.44398">
        <ele>55.6</ele>
        <time>2020-08-02T08:37:23Z</time>
      </trkpt>
      <trkpt lat="47.33635" lon="-0.44406">
        <ele>55.2</ele>
        <time>2020-08-02T08:37:24Z</time>
      </trkpt>
      <trkpt lat="47.3363" lon="-0.44414">
        <ele>55</ele>
        <time>2020-08-02T08:37:25Z</time>
      </trkpt>
      <trkpt lat="47.33621" lon="-0.44428">
        <ele>54.4</ele>
        <time>2020-08-02T08:37:27Z</time>
      </trkpt>
      <trkpt lat="47.33615" lon="-0.44435">
        <ele>54.2</ele>
        <time>2020-08-02T08:37:28Z</time>
      </trkpt>
      <trkpt lat="47.33605" lon="-0.44449">
        <ele>54</ele>
        <time>2020-08-02T08:37:30Z</time>
      </trkpt>
      <trkpt lat="47.33599" lon="-0.44455">
        <ele>53.6</ele>
        <time>2020-08-02T08:37:31Z</time>
      </trkpt>
      <trkpt lat="47.33594" lon="-0.44461">
        <ele>53.2</ele>
        <time>2020-08-02T08:37:32Z</time>
      </trkpt>
      <trkpt lat="47.33594" lon="-0.44461">
        <ele>52.8</ele>
        <time>2020-08-02T08:37:33Z</time>
      </trkpt>
      <trkpt lat="47.33584" lon="-0.44471">
        <ele>52.8</ele>
        <time>2020-08-02T08:37:34Z</time>
      </trkpt>
      <trkpt lat="47.33579" lon="-0.44477">
        <ele>52.6</ele>
        <time>2020-08-02T08:37:35Z</time>
      </trkpt>
      <trkpt lat="47.33574" lon="-0.44482">
        <ele>52.4</ele>
        <time>2020-08-02T08:37:36Z</time>
      </trkpt>
      <trkpt lat="47.33569" lon="-0.44488">
        <ele>52.4</ele>
        <time>2020-08-02T08:37:37Z</time>
      </trkpt>
      <trkpt lat="47.33565" lon="-0.44494">
        <ele>52.2</ele>
        <time>2020-08-02T08:37:38Z</time>
      </trkpt>
      <trkpt lat="47.3356" lon="-0.445">
        <ele>52.2</ele>
        <time>2020-08-02T08:37:39Z</time>
      </trkpt>
      <trkpt lat="47.33556" lon="-0.44505">
        <ele>52</ele>
        <time>2020-08-02T08:37:40Z</time>
      </trkpt>
      <trkpt lat="47.33552" lon="-0.4451">
        <ele>51.8</ele>
        <time>2020-08-02T08:37:41Z</time>
      </trkpt>
      <trkpt lat="47.33547" lon="-0.44514">
        <ele>51.8</ele>
        <time>2020-08-02T08:37:42Z</time>
      </trkpt>
      <trkpt lat="47.33542" lon="-0.44518">
        <ele>51.6</ele>
        <time>2020-08-02T08:37:43Z</time>
      </trkpt>
      <trkpt lat="47.33537" lon="-0.44521">
        <ele>51.6</ele>
        <time>2020-08-02T08:37:44Z</time>
      </trkpt>
      <trkpt lat="47.33531" lon="-0.44522">
        <ele>51.4</ele>
        <time>2020-08-02T08:37:45Z</time>
      </trkpt>
      <trkpt lat="47.33525" lon="-0.44524">
        <ele>51.4</ele>
        <time>2020-08-02T08:37:46Z</time>
      </trkpt>
      <trkpt lat="47.33525" lon="-0.44524">
        <ele>51.4</ele>
        <time>2020-08-02T08:37:47Z</time>
      </trkpt>
      <trkpt lat="47.33515" lon="-0.44525">
        <ele>51.4</ele>
        <time>2020-08-02T08:37:48Z</time>
      </trkpt>
      <trkpt lat="47.33509" lon="-0.44524">
        <ele>51.2</ele>
        <time>2020-08-02T08:37:49Z</time>
      </trkpt>
      <trkpt lat="47.33509" lon="-0.44524">
        <ele>51</ele>
        <time>2020-08-02T08:37:50Z</time>
      </trkpt>
      <trkpt lat="47.33498" lon="-0.44523">
        <ele>51</ele>
        <time>2020-08-02T08:37:51Z</time>
      </trkpt>
      <trkpt lat="47.33498" lon="-0.44523">
        <ele>50.8</ele>
        <time>2020-08-02T08:37:52Z</time>
      </trkpt>
      <trkpt lat="47.3348" lon="-0.44523">
        <ele>50.4</ele>
        <time>2020-08-02T08:37:54Z</time>
      </trkpt>
      <trkpt lat="47.33453" lon="-0.44525">
        <ele>49.8</ele>
        <time>2020-08-02T08:37:58Z</time>
      </trkpt>
      <trkpt lat="47.33425" lon="-0.44524">
        <ele>48.8</ele>
        <time>2020-08-02T08:38:02Z</time>
      </trkpt>
      <trkpt lat="47.33418" lon="-0.44523">
        <ele>48.6</ele>
        <time>2020-08-02T08:38:03Z</time>
      </trkpt>
      <trkpt lat="47.33405" lon="-0.4452">
        <ele>48.2</ele>
        <time>2020-08-02T08:38:05Z</time>
      </trkpt>
      <trkpt lat="47.33381" lon="-0.4451">
        <ele>47.8</ele>
        <time>2020-08-02T08:38:09Z</time>
      </trkpt>
      <trkpt lat="47.33376" lon="-0.44509">
        <ele>47.8</ele>
        <time>2020-08-02T08:38:10Z</time>
      </trkpt>
      <trkpt lat="47.33372" lon="-0.44508">
        <ele>47.8</ele>
        <time>2020-08-02T08:38:11Z</time>
      </trkpt>
      <trkpt lat="47.33367" lon="-0.44507">
        <ele>47.8</ele>
        <time>2020-08-02T08:38:12Z</time>
      </trkpt>
      <trkpt lat="47.33363" lon="-0.44506">
        <ele>47.8</ele>
        <time>2020-08-02T08:38:13Z</time>
      </trkpt>
      <trkpt lat="47.33359" lon="-0.44505">
        <ele>47.8</ele>
        <time>2020-08-02T08:38:14Z</time>
      </trkpt>
      <trkpt lat="47.33355" lon="-0.44505">
        <ele>47.8</ele>
        <time>2020-08-02T08:38:15Z</time>
      </trkpt>
      <trkpt lat="47.33351" lon="-0.44505">
        <ele>47.8</ele>
        <time>2020-08-02T08:38:16Z</time>
      </trkpt>
      <trkpt lat="47.33351" lon="-0.44505">
        <ele>47.8</ele>
        <time>2020-08-02T08:38:17Z</time>
      </trkpt>
      <trkpt lat="47.33343" lon="-0.44505">
        <ele>47.8</ele>
        <time>2020-08-02T08:38:18Z</time>
      </trkpt>
      <trkpt lat="47.33314" lon="-0.44512">
        <ele>48</ele>
        <time>2020-08-02T08:38:24Z</time>
      </trkpt>
      <trkpt lat="47.33301" lon="-0.44515">
        <ele>47.8</ele>
        <time>2020-08-02T08:38:26Z</time>
      </trkpt>
      <trkpt lat="47.33289" lon="-0.44516">
        <ele>47.6</ele>
        <time>2020-08-02T08:38:28Z</time>
      </trkpt>
      <trkpt lat="47.33277" lon="-0.44518">
        <ele>47</ele>
        <time>2020-08-02T08:38:30Z</time>
      </trkpt>
      <trkpt lat="47.33272" lon="-0.4452">
        <ele>46.8</ele>
        <time>2020-08-02T08:38:31Z</time>
      </trkpt>
      <trkpt lat="47.33267" lon="-0.44521">
        <ele>46.6</ele>
        <time>2020-08-02T08:38:32Z</time>
      </trkpt>
      <trkpt lat="47.33263" lon="-0.44523">
        <ele>46.2</ele>
        <time>2020-08-02T08:38:33Z</time>
      </trkpt>
      <trkpt lat="47.33263" lon="-0.44523">
        <ele>46</ele>
        <time>2020-08-02T08:38:34Z</time>
      </trkpt>
      <trkpt lat="47.33256" lon="-0.44526">
        <ele>46</ele>
        <time>2020-08-02T08:38:35Z</time>
      </trkpt>
      <trkpt lat="47.33253" lon="-0.44527">
        <ele>45.8</ele>
        <time>2020-08-02T08:38:36Z</time>
      </trkpt>
      <trkpt lat="47.3325" lon="-0.44527">
        <ele>46</ele>
        <time>2020-08-02T08:38:37Z</time>
      </trkpt>
      <trkpt lat="47.33248" lon="-0.44527">
        <ele>46</ele>
        <time>2020-08-02T08:38:38Z</time>
      </trkpt>
      <trkpt lat="47.33245" lon="-0.44528">
        <ele>46</ele>
        <time>2020-08-02T08:38:39Z</time>
      </trkpt>
      <trkpt lat="47.33244" lon="-0.44528">
        <ele>46</ele>
        <time>2020-08-02T08:38:40Z</time>
      </trkpt>
      <trkpt lat="47.33243" lon="-0.44529">
        <ele>46</ele>
        <time>2020-08-02T08:38:41Z</time>
      </trkpt>
      <trkpt lat="47.33243" lon="-0.44529">
        <ele>46.2</ele>
        <time>2020-08-02T08:38:42Z</time>
      </trkpt>
      <trkpt lat="47.33243" lon="-0.44529">
        <ele>46.2</ele>
        <time>2020-08-02T08:38:43Z</time>
      </trkpt>
      <trkpt lat="47.33243" lon="-0.44529">
        <ele>46.4</ele>
        <time>2020-08-02T08:38:52Z</time>
      </trkpt>
      <trkpt lat="47.33243" lon="-0.44529">
        <ele>46.4</ele>
        <time>2020-08-02T08:39:11Z</time>
      </trkpt>
      <trkpt lat="47.33243" lon="-0.4453">
        <ele>46.6</ele>
        <time>2020-08-02T08:39:15Z</time>
      </trkpt>
      <trkpt lat="47.3324" lon="-0.44532">
        <ele>46.6</ele>
        <time>2020-08-02T08:40:28Z</time>
      </trkpt>
      <trkpt lat="47.33235" lon="-0.44531">
        <ele>46.8</ele>
        <time>2020-08-02T08:40:31Z</time>
      </trkpt>
      <trkpt lat="47.33228" lon="-0.44531">
        <ele>47.2</ele>
        <time>2020-08-02T08:40:34Z</time>
      </trkpt>
      <trkpt lat="47.33226" lon="-0.4453">
        <ele>47.2</ele>
        <time>2020-08-02T08:40:35Z</time>
      </trkpt>
      <trkpt lat="47.33223" lon="-0.44529">
        <ele>47.4</ele>
        <time>2020-08-02T08:40:36Z</time>
      </trkpt>
      <trkpt lat="47.33221" lon="-0.44528">
        <ele>47.4</ele>
        <time>2020-08-02T08:40:37Z</time>
      </trkpt>
      <trkpt lat="47.33219" lon="-0.44528">
        <ele>47.4</ele>
        <time>2020-08-02T08:40:38Z</time>
      </trkpt>
      <trkpt lat="47.33217" lon="-0.44527">
        <ele>47.6</ele>
        <time>2020-08-02T08:40:39Z</time>
      </trkpt>
      <trkpt lat="47.33215" lon="-0.44527">
        <ele>47.8</ele>
        <time>2020-08-02T08:40:40Z</time>
      </trkpt>
      <trkpt lat="47.33213" lon="-0.44527">
        <ele>47.8</ele>
        <time>2020-08-02T08:40:41Z</time>
      </trkpt>
      <trkpt lat="47.3321" lon="-0.44527">
        <ele>47.8</ele>
        <time>2020-08-02T08:40:42Z</time>
      </trkpt>
      <trkpt lat="47.33207" lon="-0.44526">
        <ele>48</ele>
        <time>2020-08-02T08:40:43Z</time>
      </trkpt>
      <trkpt lat="47.33203" lon="-0.44524">
        <ele>48.2</ele>
        <time>2020-08-02T08:40:44Z</time>
      </trkpt>
      <trkpt lat="47.33203" lon="-0.44524">
        <ele>48.4</ele>
        <time>2020-08-02T08:40:45Z</time>
      </trkpt>
      <trkpt lat="47.33199" lon="-0.44519">
        <ele>48.6</ele>
        <time>2020-08-02T08:40:46Z</time>
      </trkpt>
      <trkpt lat="47.33195" lon="-0.44516">
        <ele>49.2</ele>
        <time>2020-08-02T08:40:47Z</time>
      </trkpt>
      <trkpt lat="47.3319" lon="-0.44515">
        <ele>49.4</ele>
        <time>2020-08-02T08:40:48Z</time>
      </trkpt>
      <trkpt lat="47.33188" lon="-0.44513">
        <ele>49.6</ele>
        <time>2020-08-02T08:40:49Z</time>
      </trkpt>
      <trkpt lat="47.33186" lon="-0.44511">
        <ele>49.6</ele>
        <time>2020-08-02T08:40:50Z</time>
      </trkpt>
      <trkpt lat="47.33184" lon="-0.44508">
        <ele>49.8</ele>
        <time>2020-08-02T08:40:51Z</time>
      </trkpt>
      <trkpt lat="47.33181" lon="-0.44504">
        <ele>50</ele>
        <time>2020-08-02T08:40:52Z</time>
      </trkpt>
      <trkpt lat="47.33177" lon="-0.44502">
        <ele>50</ele>
        <time>2020-08-02T08:40:53Z</time>
      </trkpt>
      <trkpt lat="47.33177" lon="-0.44502">
        <ele>50.2</ele>
        <time>2020-08-02T08:40:54Z</time>
      </trkpt>
      <trkpt lat="47.33171" lon="-0.44499">
        <ele>50.2</ele>
        <time>2020-08-02T08:40:55Z</time>
      </trkpt>
      <trkpt lat="47.33168" lon="-0.44499">
        <ele>50.2</ele>
        <time>2020-08-02T08:40:56Z</time>
      </trkpt>
      <trkpt lat="47.33166" lon="-0.44498">
        <ele>50.4</ele>
        <time>2020-08-02T08:40:57Z</time>
      </trkpt>
      <trkpt lat="47.33161" lon="-0.44495">
        <ele>50.4</ele>
        <time>2020-08-02T08:40:58Z</time>
      </trkpt>
      <trkpt lat="47.33159" lon="-0.44492">
        <ele>50.6</ele>
        <time>2020-08-02T08:40:59Z</time>
      </trkpt>
      <trkpt lat="47.33155" lon="-0.44492">
        <ele>50.6</ele>
        <time>2020-08-02T08:41:00Z</time>
      </trkpt>
      <trkpt lat="47.33153" lon="-0.44492">
        <ele>50.8</ele>
        <time>2020-08-02T08:41:01Z</time>
      </trkpt>
      <trkpt lat="47.3315" lon="-0.44493">
        <ele>51</ele>
        <time>2020-08-02T08:41:02Z</time>
      </trkpt>
      <trkpt lat="47.33147" lon="-0.44492">
        <ele>51.4</ele>
        <time>2020-08-02T08:41:03Z</time>
      </trkpt>
      <trkpt lat="47.33144" lon="-0.44491">
        <ele>51.6</ele>
        <time>2020-08-02T08:41:04Z</time>
      </trkpt>
      <trkpt lat="47.3314" lon="-0.44492">
        <ele>51.6</ele>
        <time>2020-08-02T08:41:05Z</time>
      </trkpt>
      <trkpt lat="47.33139" lon="-0.44492">
        <ele>52.2</ele>
        <time>2020-08-02T08:41:06Z</time>
      </trkpt>
      <trkpt lat="47.33137" lon="-0.44492">
        <ele>52.4</ele>
        <time>2020-08-02T08:41:07Z</time>
      </trkpt>
      <trkpt lat="47.33135" lon="-0.4449">
        <ele>52.6</ele>
        <time>2020-08-02T08:41:08Z</time>
      </trkpt>
      <trkpt lat="47.33131" lon="-0.44489">
        <ele>52.6</ele>
        <time>2020-08-02T08:41:09Z</time>
      </trkpt>
      <trkpt lat="47.3313" lon="-0.44489">
        <ele>52.8</ele>
        <time>2020-08-02T08:41:10Z</time>
      </trkpt>
      <trkpt lat="47.33126" lon="-0.4449">
        <ele>53.2</ele>
        <time>2020-08-02T08:41:11Z</time>
      </trkpt>
      <trkpt lat="47.33124" lon="-0.44491">
        <ele>53.6</ele>
        <time>2020-08-02T08:41:12Z</time>
      </trkpt>
      <trkpt lat="47.33123" lon="-0.4449">
        <ele>53.8</ele>
        <time>2020-08-02T08:41:13Z</time>
      </trkpt>
      <trkpt lat="47.33121" lon="-0.44491">
        <ele>54</ele>
        <time>2020-08-02T08:41:14Z</time>
      </trkpt>
      <trkpt lat="47.3312" lon="-0.44493">
        <ele>54.2</ele>
        <time>2020-08-02T08:41:15Z</time>
      </trkpt>
      <trkpt lat="47.33116" lon="-0.44495">
        <ele>54.6</ele>
        <time>2020-08-02T08:41:16Z</time>
      </trkpt>
      <trkpt lat="47.33114" lon="-0.44497">
        <ele>54.6</ele>
        <time>2020-08-02T08:41:17Z</time>
      </trkpt>
      <trkpt lat="47.33112" lon="-0.44497">
        <ele>55</ele>
        <time>2020-08-02T08:41:18Z</time>
      </trkpt>
      <trkpt lat="47.3311" lon="-0.44497">
        <ele>55</ele>
        <time>2020-08-02T08:41:19Z</time>
      </trkpt>
      <trkpt lat="47.33107" lon="-0.44498">
        <ele>55.2</ele>
        <time>2020-08-02T08:41:20Z</time>
      </trkpt>
      <trkpt lat="47.33104" lon="-0.44499">
        <ele>55.2</ele>
        <time>2020-08-02T08:41:21Z</time>
      </trkpt>
      <trkpt lat="47.33103" lon="-0.44498">
        <ele>55.4</ele>
        <time>2020-08-02T08:41:22Z</time>
      </trkpt>
      <trkpt lat="47.33101" lon="-0.44498">
        <ele>55.6</ele>
        <time>2020-08-02T08:41:23Z</time>
      </trkpt>
      <trkpt lat="47.33097" lon="-0.44499">
        <ele>55.6</ele>
        <time>2020-08-02T08:41:24Z</time>
      </trkpt>
      <trkpt lat="47.33094" lon="-0.445">
        <ele>55.8</ele>
        <time>2020-08-02T08:41:25Z</time>
      </trkpt>
      <trkpt lat="47.33092" lon="-0.44501">
        <ele>55.8</ele>
        <time>2020-08-02T08:41:26Z</time>
      </trkpt>
      <trkpt lat="47.3309" lon="-0.44501">
        <ele>56</ele>
        <time>2020-08-02T08:41:27Z</time>
      </trkpt>
      <trkpt lat="47.33089" lon="-0.44501">
        <ele>56.2</ele>
        <time>2020-08-02T08:41:28Z</time>
      </trkpt>
      <trkpt lat="47.33085" lon="-0.44502">
        <ele>56.4</ele>
        <time>2020-08-02T08:41:29Z</time>
      </trkpt>
      <trkpt lat="47.33084" lon="-0.44501">
        <ele>56.6</ele>
        <time>2020-08-02T08:41:30Z</time>
      </trkpt>
      <trkpt lat="47.33082" lon="-0.44501">
        <ele>56.6</ele>
        <time>2020-08-02T08:41:31Z</time>
      </trkpt>
      <trkpt lat="47.33081" lon="-0.44501">
        <ele>56.8</ele>
        <time>2020-08-02T08:41:32Z</time>
      </trkpt>
      <trkpt lat="47.3308" lon="-0.445">
        <ele>57</ele>
        <time>2020-08-02T08:41:33Z</time>
      </trkpt>
      <trkpt lat="47.3308" lon="-0.445">
        <ele>57</ele>
        <time>2020-08-02T08:41:34Z</time>
      </trkpt>
      <trkpt lat="47.33077" lon="-0.44498">
        <ele>57.4</ele>
        <time>2020-08-02T08:41:35Z</time>
      </trkpt>
      <trkpt lat="47.33076" lon="-0.44499">
        <ele>57.4</ele>
        <time>2020-08-02T08:41:36Z</time>
      </trkpt>
      <trkpt lat="47.33074" lon="-0.44498">
        <ele>57.6</ele>
        <time>2020-08-02T08:41:37Z</time>
      </trkpt>
      <trkpt lat="47.33072" lon="-0.44497">
        <ele>57.8</ele>
        <time>2020-08-02T08:41:38Z</time>
      </trkpt>
      <trkpt lat="47.33071" lon="-0.44492">
        <ele>58</ele>
        <time>2020-08-02T08:41:39Z</time>
      </trkpt>
      <trkpt lat="47.33071" lon="-0.44492">
        <ele>58.2</ele>
        <time>2020-08-02T08:41:40Z</time>
      </trkpt>
      <trkpt lat="47.33066" lon="-0.44491">
        <ele>58.4</ele>
        <time>2020-08-02T08:41:41Z</time>
      </trkpt>
      <trkpt lat="47.33064" lon="-0.44492">
        <ele>58.6</ele>
        <time>2020-08-02T08:41:42Z</time>
      </trkpt>
      <trkpt lat="47.33063" lon="-0.44492">
        <ele>58.6</ele>
        <time>2020-08-02T08:41:43Z</time>
      </trkpt>
      <trkpt lat="47.33062" lon="-0.44492">
        <ele>58.8</ele>
        <time>2020-08-02T08:41:44Z</time>
      </trkpt>
      <trkpt lat="47.3306" lon="-0.44491">
        <ele>59.2</ele>
        <time>2020-08-02T08:41:45Z</time>
      </trkpt>
      <trkpt lat="47.33059" lon="-0.4449">
        <ele>59.4</ele>
        <time>2020-08-02T08:41:46Z</time>
      </trkpt>
      <trkpt lat="47.33058" lon="-0.4449">
        <ele>59.6</ele>
        <time>2020-08-02T08:41:47Z</time>
      </trkpt>
      <trkpt lat="47.33054" lon="-0.44492">
        <ele>59.8</ele>
        <time>2020-08-02T08:41:48Z</time>
      </trkpt>
      <trkpt lat="47.33054" lon="-0.44493">
        <ele>60</ele>
        <time>2020-08-02T08:41:49Z</time>
      </trkpt>
      <trkpt lat="47.33054" lon="-0.44493">
        <ele>60</ele>
        <time>2020-08-02T08:41:50Z</time>
      </trkpt>
      <trkpt lat="47.3305" lon="-0.44492">
        <ele>60.2</ele>
        <time>2020-08-02T08:41:51Z</time>
      </trkpt>
      <trkpt lat="47.33047" lon="-0.44493">
        <ele>60.2</ele>
        <time>2020-08-02T08:41:52Z</time>
      </trkpt>
      <trkpt lat="47.33047" lon="-0.44493">
        <ele>60.4</ele>
        <time>2020-08-02T08:41:53Z</time>
      </trkpt>
      <trkpt lat="47.33039" lon="-0.44494">
        <ele>60.8</ele>
        <time>2020-08-02T08:41:54Z</time>
      </trkpt>
      <trkpt lat="47.33037" lon="-0.44495">
        <ele>60.8</ele>
        <time>2020-08-02T08:41:55Z</time>
      </trkpt>
      <trkpt lat="47.33034" lon="-0.44495">
        <ele>61</ele>
        <time>2020-08-02T08:41:56Z</time>
      </trkpt>
      <trkpt lat="47.33032" lon="-0.44494">
        <ele>61</ele>
        <time>2020-08-02T08:41:57Z</time>
      </trkpt>
      <trkpt lat="47.3303" lon="-0.44494">
        <ele>61</ele>
        <time>2020-08-02T08:41:58Z</time>
      </trkpt>
      <trkpt lat="47.33029" lon="-0.44494">
        <ele>61.2</ele>
        <time>2020-08-02T08:41:59Z</time>
      </trkpt>
      <trkpt lat="47.33027" lon="-0.44495">
        <ele>61.2</ele>
        <time>2020-08-02T08:42:00Z</time>
      </trkpt>
      <trkpt lat="47.33025" lon="-0.44495">
        <ele>61.4</ele>
        <time>2020-08-02T08:42:01Z</time>
      </trkpt>
      <trkpt lat="47.33022" lon="-0.44493">
        <ele>61.4</ele>
        <time>2020-08-02T08:42:02Z</time>
      </trkpt>
      <trkpt lat="47.33018" lon="-0.44492">
        <ele>61.6</ele>
        <time>2020-08-02T08:42:03Z</time>
      </trkpt>
      <trkpt lat="47.33016" lon="-0.44491">
        <ele>61.6</ele>
        <time>2020-08-02T08:42:04Z</time>
      </trkpt>
      <trkpt lat="47.33016" lon="-0.44491">
        <ele>61.6</ele>
        <time>2020-08-02T08:42:05Z</time>
      </trkpt>
      <trkpt lat="47.33016" lon="-0.44491">
        <ele>61.8</ele>
        <time>2020-08-02T08:42:06Z</time>
      </trkpt>
      <trkpt lat="47.33016" lon="-0.44491">
        <ele>61.8</ele>
        <time>2020-08-02T08:42:07Z</time>
      </trkpt>
      <trkpt lat="47.33014" lon="-0.4449">
        <ele>62</ele>
        <time>2020-08-02T08:42:10Z</time>
      </trkpt>
      <trkpt lat="47.33013" lon="-0.4449">
        <ele>62</ele>
        <time>2020-08-02T08:42:11Z</time>
      </trkpt>
      <trkpt lat="47.33013" lon="-0.4449">
        <ele>62</ele>
        <time>2020-08-02T08:42:12Z</time>
      </trkpt>
      <trkpt lat="47.33004" lon="-0.4449">
        <ele>62</ele>
        <time>2020-08-02T08:42:14Z</time>
      </trkpt>
      <trkpt lat="47.33002" lon="-0.44488">
        <ele>62</ele>
        <time>2020-08-02T08:42:15Z</time>
      </trkpt>
      <trkpt lat="47.32996" lon="-0.44486">
        <ele>62.2</ele>
        <time>2020-08-02T08:42:17Z</time>
      </trkpt>
      <trkpt lat="47.32994" lon="-0.44485">
        <ele>62.2</ele>
        <time>2020-08-02T08:42:18Z</time>
      </trkpt>
      <trkpt lat="47.32991" lon="-0.44485">
        <ele>62.2</ele>
        <time>2020-08-02T08:42:20Z</time>
      </trkpt>
      <trkpt lat="47.32989" lon="-0.44485">
        <ele>62.2</ele>
        <time>2020-08-02T08:42:21Z</time>
      </trkpt>
      <trkpt lat="47.32988" lon="-0.44486">
        <ele>62.2</ele>
        <time>2020-08-02T08:42:22Z</time>
      </trkpt>
      <trkpt lat="47.32986" lon="-0.44486">
        <ele>62.4</ele>
        <time>2020-08-02T08:42:23Z</time>
      </trkpt>
      <trkpt lat="47.32984" lon="-0.44487">
        <ele>62.4</ele>
        <time>2020-08-02T08:42:24Z</time>
      </trkpt>
      <trkpt lat="47.32982" lon="-0.44488">
        <ele>62.4</ele>
        <time>2020-08-02T08:42:25Z</time>
      </trkpt>
      <trkpt lat="47.3298" lon="-0.44488">
        <ele>62.6</ele>
        <time>2020-08-02T08:42:26Z</time>
      </trkpt>
      <trkpt lat="47.32978" lon="-0.44488">
        <ele>62.6</ele>
        <time>2020-08-02T08:42:27Z</time>
      </trkpt>
      <trkpt lat="47.32976" lon="-0.44487">
        <ele>62.6</ele>
        <time>2020-08-02T08:42:28Z</time>
      </trkpt>
      <trkpt lat="47.32973" lon="-0.44487">
        <ele>62.8</ele>
        <time>2020-08-02T08:42:29Z</time>
      </trkpt>
      <trkpt lat="47.3297" lon="-0.44487">
        <ele>62.8</ele>
        <time>2020-08-02T08:42:30Z</time>
      </trkpt>
      <trkpt lat="47.32968" lon="-0.44485">
        <ele>62.8</ele>
        <time>2020-08-02T08:42:31Z</time>
      </trkpt>
      <trkpt lat="47.32966" lon="-0.44483">
        <ele>62.8</ele>
        <time>2020-08-02T08:42:32Z</time>
      </trkpt>
      <trkpt lat="47.32964" lon="-0.44482">
        <ele>62.8</ele>
        <time>2020-08-02T08:42:33Z</time>
      </trkpt>
      <trkpt lat="47.32961" lon="-0.44482">
        <ele>62.8</ele>
        <time>2020-08-02T08:42:34Z</time>
      </trkpt>
      <trkpt lat="47.32959" lon="-0.44482">
        <ele>63</ele>
        <time>2020-08-02T08:42:35Z</time>
      </trkpt>
      <trkpt lat="47.32955" lon="-0.44481">
        <ele>63.2</ele>
        <time>2020-08-02T08:42:37Z</time>
      </trkpt>
      <trkpt lat="47.32952" lon="-0.44481">
        <ele>63.2</ele>
        <time>2020-08-02T08:42:38Z</time>
      </trkpt>
      <trkpt lat="47.32946" lon="-0.4448">
        <ele>63.4</ele>
        <time>2020-08-02T08:42:40Z</time>
      </trkpt>
      <trkpt lat="47.32944" lon="-0.4448">
        <ele>63.4</ele>
        <time>2020-08-02T08:42:41Z</time>
      </trkpt>
      <trkpt lat="47.32941" lon="-0.44479">
        <ele>63.4</ele>
        <time>2020-08-02T08:42:42Z</time>
      </trkpt>
      <trkpt lat="47.32939" lon="-0.44478">
        <ele>63.4</ele>
        <time>2020-08-02T08:42:43Z</time>
      </trkpt>
      <trkpt lat="47.32937" lon="-0.44478">
        <ele>63.6</ele>
        <time>2020-08-02T08:42:44Z</time>
      </trkpt>
      <trkpt lat="47.32934" lon="-0.44477">
        <ele>63.6</ele>
        <time>2020-08-02T08:42:45Z</time>
      </trkpt>
      <trkpt lat="47.32926" lon="-0.44478">
        <ele>63.6</ele>
        <time>2020-08-02T08:42:47Z</time>
      </trkpt>
      <trkpt lat="47.32923" lon="-0.44479">
        <ele>63.6</ele>
        <time>2020-08-02T08:42:48Z</time>
      </trkpt>
      <trkpt lat="47.32919" lon="-0.44481">
        <ele>63.6</ele>
        <time>2020-08-02T08:42:49Z</time>
      </trkpt>
      <trkpt lat="47.32906" lon="-0.44492">
        <ele>63.4</ele>
        <time>2020-08-02T08:42:52Z</time>
      </trkpt>
      <trkpt lat="47.32898" lon="-0.44501">
        <ele>63.2</ele>
        <time>2020-08-02T08:42:54Z</time>
      </trkpt>
      <trkpt lat="47.32896" lon="-0.44503">
        <ele>63.2</ele>
        <time>2020-08-02T08:42:55Z</time>
      </trkpt>
      <trkpt lat="47.32893" lon="-0.44509">
        <ele>63</ele>
        <time>2020-08-02T08:42:56Z</time>
      </trkpt>
      <trkpt lat="47.3289" lon="-0.44517">
        <ele>62.8</ele>
        <time>2020-08-02T08:42:57Z</time>
      </trkpt>
      <trkpt lat="47.32884" lon="-0.44527">
        <ele>62.8</ele>
        <time>2020-08-02T08:42:59Z</time>
      </trkpt>
      <trkpt lat="47.32882" lon="-0.44532">
        <ele>62.6</ele>
        <time>2020-08-02T08:43:00Z</time>
      </trkpt>
      <trkpt lat="47.32877" lon="-0.44542">
        <ele>62.6</ele>
        <time>2020-08-02T08:43:02Z</time>
      </trkpt>
      <trkpt lat="47.32873" lon="-0.44546">
        <ele>62.6</ele>
        <time>2020-08-02T08:43:03Z</time>
      </trkpt>
      <trkpt lat="47.32868" lon="-0.44551">
        <ele>62.6</ele>
        <time>2020-08-02T08:43:04Z</time>
      </trkpt>
      <trkpt lat="47.32863" lon="-0.44555">
        <ele>62.6</ele>
        <time>2020-08-02T08:43:05Z</time>
      </trkpt>
      <trkpt lat="47.3286" lon="-0.44566">
        <ele>62.6</ele>
        <time>2020-08-02T08:43:07Z</time>
      </trkpt>
      <trkpt lat="47.32858" lon="-0.44573">
        <ele>62.6</ele>
        <time>2020-08-02T08:43:08Z</time>
      </trkpt>
      <trkpt lat="47.32856" lon="-0.44577">
        <ele>62.6</ele>
        <time>2020-08-02T08:43:09Z</time>
      </trkpt>
      <trkpt lat="47.32854" lon="-0.44583">
        <ele>62.4</ele>
        <time>2020-08-02T08:43:10Z</time>
      </trkpt>
      <trkpt lat="47.3285" lon="-0.44588">
        <ele>62.4</ele>
        <time>2020-08-02T08:43:11Z</time>
      </trkpt>
      <trkpt lat="47.32846" lon="-0.44594">
        <ele>62.2</ele>
        <time>2020-08-02T08:43:12Z</time>
      </trkpt>
      <trkpt lat="47.32843" lon="-0.446">
        <ele>62.2</ele>
        <time>2020-08-02T08:43:13Z</time>
      </trkpt>
      <trkpt lat="47.32841" lon="-0.44606">
        <ele>62.2</ele>
        <time>2020-08-02T08:43:14Z</time>
      </trkpt>
      <trkpt lat="47.32836" lon="-0.44613">
        <ele>62.2</ele>
        <time>2020-08-02T08:43:15Z</time>
      </trkpt>
      <trkpt lat="47.32831" lon="-0.4462">
        <ele>62.2</ele>
        <time>2020-08-02T08:43:16Z</time>
      </trkpt>
      <trkpt lat="47.32829" lon="-0.44626">
        <ele>62.2</ele>
        <time>2020-08-02T08:43:17Z</time>
      </trkpt>
      <trkpt lat="47.32827" lon="-0.44632">
        <ele>62.2</ele>
        <time>2020-08-02T08:43:18Z</time>
      </trkpt>
      <trkpt lat="47.32826" lon="-0.44638">
        <ele>62</ele>
        <time>2020-08-02T08:43:19Z</time>
      </trkpt>
      <trkpt lat="47.32825" lon="-0.44643">
        <ele>61.8</ele>
        <time>2020-08-02T08:43:20Z</time>
      </trkpt>
      <trkpt lat="47.3282" lon="-0.44654">
        <ele>61.8</ele>
        <time>2020-08-02T08:43:22Z</time>
      </trkpt>
      <trkpt lat="47.32816" lon="-0.44659">
        <ele>61.6</ele>
        <time>2020-08-02T08:43:23Z</time>
      </trkpt>
      <trkpt lat="47.32813" lon="-0.44664">
        <ele>61.6</ele>
        <time>2020-08-02T08:43:24Z</time>
      </trkpt>
      <trkpt lat="47.32808" lon="-0.44669">
        <ele>61.8</ele>
        <time>2020-08-02T08:43:25Z</time>
      </trkpt>
      <trkpt lat="47.328" lon="-0.44681">
        <ele>61.4</ele>
        <time>2020-08-02T08:43:27Z</time>
      </trkpt>
      <trkpt lat="47.32797" lon="-0.44687">
        <ele>61.4</ele>
        <time>2020-08-02T08:43:28Z</time>
      </trkpt>
      <trkpt lat="47.32794" lon="-0.44693">
        <ele>61.2</ele>
        <time>2020-08-02T08:43:29Z</time>
      </trkpt>
      <trkpt lat="47.32788" lon="-0.44705">
        <ele>60.8</ele>
        <time>2020-08-02T08:43:31Z</time>
      </trkpt>
      <trkpt lat="47.32779" lon="-0.44723">
        <ele>60.8</ele>
        <time>2020-08-02T08:43:34Z</time>
      </trkpt>
      <trkpt lat="47.32771" lon="-0.44738">
        <ele>60.6</ele>
        <time>2020-08-02T08:43:37Z</time>
      </trkpt>
      <trkpt lat="47.32769" lon="-0.44744">
        <ele>60.6</ele>
        <time>2020-08-02T08:43:38Z</time>
      </trkpt>
      <trkpt lat="47.32767" lon="-0.4475">
        <ele>60.4</ele>
        <time>2020-08-02T08:43:39Z</time>
      </trkpt>
      <trkpt lat="47.32765" lon="-0.44755">
        <ele>60.4</ele>
        <time>2020-08-02T08:43:40Z</time>
      </trkpt>
      <trkpt lat="47.32762" lon="-0.44761">
        <ele>60.4</ele>
        <time>2020-08-02T08:43:41Z</time>
      </trkpt>
      <trkpt lat="47.32755" lon="-0.44775">
        <ele>60.4</ele>
        <time>2020-08-02T08:43:43Z</time>
      </trkpt>
      <trkpt lat="47.32748" lon="-0.44786">
        <ele>60</ele>
        <time>2020-08-02T08:43:45Z</time>
      </trkpt>
      <trkpt lat="47.32746" lon="-0.44792">
        <ele>59.8</ele>
        <time>2020-08-02T08:43:46Z</time>
      </trkpt>
      <trkpt lat="47.32742" lon="-0.44799">
        <ele>59.6</ele>
        <time>2020-08-02T08:43:47Z</time>
      </trkpt>
      <trkpt lat="47.32733" lon="-0.44811">
        <ele>59.4</ele>
        <time>2020-08-02T08:43:49Z</time>
      </trkpt>
      <trkpt lat="47.32729" lon="-0.44817">
        <ele>59.4</ele>
        <time>2020-08-02T08:43:50Z</time>
      </trkpt>
      <trkpt lat="47.32725" lon="-0.44823">
        <ele>59.4</ele>
        <time>2020-08-02T08:43:51Z</time>
      </trkpt>
      <trkpt lat="47.32722" lon="-0.44829">
        <ele>59.4</ele>
        <time>2020-08-02T08:43:52Z</time>
      </trkpt>
      <trkpt lat="47.32719" lon="-0.44836">
        <ele>59.4</ele>
        <time>2020-08-02T08:43:53Z</time>
      </trkpt>
      <trkpt lat="47.32715" lon="-0.44842">
        <ele>59.4</ele>
        <time>2020-08-02T08:43:54Z</time>
      </trkpt>
      <trkpt lat="47.32715" lon="-0.44842">
        <ele>59.4</ele>
        <time>2020-08-02T08:43:55Z</time>
      </trkpt>
      <trkpt lat="47.32708" lon="-0.44854">
        <ele>59.4</ele>
        <time>2020-08-02T08:43:56Z</time>
      </trkpt>
      <trkpt lat="47.32704" lon="-0.44861">
        <ele>59.4</ele>
        <time>2020-08-02T08:43:57Z</time>
      </trkpt>
      <trkpt lat="47.32701" lon="-0.44867">
        <ele>59.4</ele>
        <time>2020-08-02T08:43:58Z</time>
      </trkpt>
      <trkpt lat="47.32698" lon="-0.44873">
        <ele>59.4</ele>
        <time>2020-08-02T08:43:59Z</time>
      </trkpt>
      <trkpt lat="47.32695" lon="-0.4488">
        <ele>59.4</ele>
        <time>2020-08-02T08:44:00Z</time>
      </trkpt>
      <trkpt lat="47.32692" lon="-0.44887">
        <ele>59.2</ele>
        <time>2020-08-02T08:44:01Z</time>
      </trkpt>
      <trkpt lat="47.32688" lon="-0.44893">
        <ele>59.2</ele>
        <time>2020-08-02T08:44:02Z</time>
      </trkpt>
      <trkpt lat="47.32684" lon="-0.44898">
        <ele>59</ele>
        <time>2020-08-02T08:44:03Z</time>
      </trkpt>
      <trkpt lat="47.32679" lon="-0.44905">
        <ele>59</ele>
        <time>2020-08-02T08:44:04Z</time>
      </trkpt>
      <trkpt lat="47.32675" lon="-0.44913">
        <ele>59</ele>
        <time>2020-08-02T08:44:05Z</time>
      </trkpt>
      <trkpt lat="47.32672" lon="-0.44918">
        <ele>59</ele>
        <time>2020-08-02T08:44:06Z</time>
      </trkpt>
      <trkpt lat="47.32665" lon="-0.44926">
        <ele>59</ele>
        <time>2020-08-02T08:44:07Z</time>
      </trkpt>
      <trkpt lat="47.32661" lon="-0.44932">
        <ele>59</ele>
        <time>2020-08-02T08:44:08Z</time>
      </trkpt>
      <trkpt lat="47.32657" lon="-0.44943">
        <ele>59</ele>
        <time>2020-08-02T08:44:10Z</time>
      </trkpt>
      <trkpt lat="47.32651" lon="-0.44952">
        <ele>58.8</ele>
        <time>2020-08-02T08:44:12Z</time>
      </trkpt>
      <trkpt lat="47.32647" lon="-0.44959">
        <ele>58.8</ele>
        <time>2020-08-02T08:44:13Z</time>
      </trkpt>
      <trkpt lat="47.32643" lon="-0.44963">
        <ele>58.8</ele>
        <time>2020-08-02T08:44:14Z</time>
      </trkpt>
      <trkpt lat="47.3264" lon="-0.44968">
        <ele>58.8</ele>
        <time>2020-08-02T08:44:15Z</time>
      </trkpt>
      <trkpt lat="47.32637" lon="-0.44973">
        <ele>58.8</ele>
        <time>2020-08-02T08:44:16Z</time>
      </trkpt>
      <trkpt lat="47.32635" lon="-0.44977">
        <ele>58.8</ele>
        <time>2020-08-02T08:44:17Z</time>
      </trkpt>
      <trkpt lat="47.32631" lon="-0.44981">
        <ele>58.8</ele>
        <time>2020-08-02T08:44:18Z</time>
      </trkpt>
      <trkpt lat="47.32621" lon="-0.44996">
        <ele>58.8</ele>
        <time>2020-08-02T08:44:21Z</time>
      </trkpt>
      <trkpt lat="47.32609" lon="-0.45015">
        <ele>58.4</ele>
        <time>2020-08-02T08:44:25Z</time>
      </trkpt>
      <trkpt lat="47.32606" lon="-0.4502">
        <ele>58.2</ele>
        <time>2020-08-02T08:44:26Z</time>
      </trkpt>
      <trkpt lat="47.32603" lon="-0.45025">
        <ele>58.2</ele>
        <time>2020-08-02T08:44:27Z</time>
      </trkpt>
      <trkpt lat="47.32599" lon="-0.4503">
        <ele>58.2</ele>
        <time>2020-08-02T08:44:28Z</time>
      </trkpt>
      <trkpt lat="47.32596" lon="-0.45035">
        <ele>58</ele>
        <time>2020-08-02T08:44:29Z</time>
      </trkpt>
      <trkpt lat="47.32593" lon="-0.45038">
        <ele>58</ele>
        <time>2020-08-02T08:44:30Z</time>
      </trkpt>
      <trkpt lat="47.32589" lon="-0.45043">
        <ele>58</ele>
        <time>2020-08-02T08:44:31Z</time>
      </trkpt>
      <trkpt lat="47.32584" lon="-0.45047">
        <ele>58</ele>
        <time>2020-08-02T08:44:32Z</time>
      </trkpt>
      <trkpt lat="47.3258" lon="-0.45053">
        <ele>58</ele>
        <time>2020-08-02T08:44:33Z</time>
      </trkpt>
      <trkpt lat="47.32577" lon="-0.45058">
        <ele>58.2</ele>
        <time>2020-08-02T08:44:34Z</time>
      </trkpt>
      <trkpt lat="47.32573" lon="-0.45062">
        <ele>58.2</ele>
        <time>2020-08-02T08:44:35Z</time>
      </trkpt>
      <trkpt lat="47.32569" lon="-0.45067">
        <ele>58.2</ele>
        <time>2020-08-02T08:44:36Z</time>
      </trkpt>
      <trkpt lat="47.32565" lon="-0.45073">
        <ele>58.2</ele>
        <time>2020-08-02T08:44:37Z</time>
      </trkpt>
      <trkpt lat="47.32554" lon="-0.45081">
        <ele>58.2</ele>
        <time>2020-08-02T08:44:39Z</time>
      </trkpt>
      <trkpt lat="47.32549" lon="-0.45084">
        <ele>58.2</ele>
        <time>2020-08-02T08:44:40Z</time>
      </trkpt>
      <trkpt lat="47.32544" lon="-0.45088">
        <ele>58.2</ele>
        <time>2020-08-02T08:44:41Z</time>
      </trkpt>
      <trkpt lat="47.32528" lon="-0.45103">
        <ele>58</ele>
        <time>2020-08-02T08:44:44Z</time>
      </trkpt>
      <trkpt lat="47.32523" lon="-0.45108">
        <ele>58</ele>
        <time>2020-08-02T08:44:45Z</time>
      </trkpt>
      <trkpt lat="47.32519" lon="-0.45111">
        <ele>57.8</ele>
        <time>2020-08-02T08:44:46Z</time>
      </trkpt>
      <trkpt lat="47.32519" lon="-0.45111">
        <ele>57.8</ele>
        <time>2020-08-02T08:44:47Z</time>
      </trkpt>
      <trkpt lat="47.32512" lon="-0.45114">
        <ele>57.8</ele>
        <time>2020-08-02T08:44:48Z</time>
      </trkpt>
      <trkpt lat="47.32507" lon="-0.45117">
        <ele>57.8</ele>
        <time>2020-08-02T08:44:49Z</time>
      </trkpt>
      <trkpt lat="47.32502" lon="-0.4512">
        <ele>57.8</ele>
        <time>2020-08-02T08:44:50Z</time>
      </trkpt>
      <trkpt lat="47.32497" lon="-0.45123">
        <ele>57.6</ele>
        <time>2020-08-02T08:44:51Z</time>
      </trkpt>
      <trkpt lat="47.32493" lon="-0.45126">
        <ele>57.6</ele>
        <time>2020-08-02T08:44:52Z</time>
      </trkpt>
      <trkpt lat="47.32488" lon="-0.45129">
        <ele>57.6</ele>
        <time>2020-08-02T08:44:53Z</time>
      </trkpt>
      <trkpt lat="47.32484" lon="-0.45133">
        <ele>57.6</ele>
        <time>2020-08-02T08:44:54Z</time>
      </trkpt>
      <trkpt lat="47.32479" lon="-0.45135">
        <ele>57.6</ele>
        <time>2020-08-02T08:44:55Z</time>
      </trkpt>
      <trkpt lat="47.32475" lon="-0.45137">
        <ele>57.4</ele>
        <time>2020-08-02T08:44:56Z</time>
      </trkpt>
      <trkpt lat="47.32471" lon="-0.4514">
        <ele>57.4</ele>
        <time>2020-08-02T08:44:57Z</time>
      </trkpt>
      <trkpt lat="47.32471" lon="-0.4514">
        <ele>57.2</ele>
        <time>2020-08-02T08:44:58Z</time>
      </trkpt>
      <trkpt lat="47.32465" lon="-0.45144">
        <ele>57.2</ele>
        <time>2020-08-02T08:44:59Z</time>
      </trkpt>
      <trkpt lat="47.3246" lon="-0.45146">
        <ele>57</ele>
        <time>2020-08-02T08:45:00Z</time>
      </trkpt>
      <trkpt lat="47.32456" lon="-0.45148">
        <ele>57</ele>
        <time>2020-08-02T08:45:01Z</time>
      </trkpt>
      <trkpt lat="47.32451" lon="-0.45149">
        <ele>56.8</ele>
        <time>2020-08-02T08:45:02Z</time>
      </trkpt>
      <trkpt lat="47.32446" lon="-0.45152">
        <ele>56.6</ele>
        <time>2020-08-02T08:45:03Z</time>
      </trkpt>
      <trkpt lat="47.32441" lon="-0.45154">
        <ele>56.6</ele>
        <time>2020-08-02T08:45:04Z</time>
      </trkpt>
      <trkpt lat="47.32437" lon="-0.45157">
        <ele>56.4</ele>
        <time>2020-08-02T08:45:05Z</time>
      </trkpt>
      <trkpt lat="47.32433" lon="-0.45159">
        <ele>56.2</ele>
        <time>2020-08-02T08:45:06Z</time>
      </trkpt>
      <trkpt lat="47.32429" lon="-0.45162">
        <ele>56.2</ele>
        <time>2020-08-02T08:45:07Z</time>
      </trkpt>
      <trkpt lat="47.32425" lon="-0.45165">
        <ele>56.2</ele>
        <time>2020-08-02T08:45:08Z</time>
      </trkpt>
      <trkpt lat="47.3242" lon="-0.45169">
        <ele>56.2</ele>
        <time>2020-08-02T08:45:09Z</time>
      </trkpt>
      <trkpt lat="47.32408" lon="-0.45179">
        <ele>56.2</ele>
        <time>2020-08-02T08:45:11Z</time>
      </trkpt>
      <trkpt lat="47.32403" lon="-0.45182">
        <ele>56.2</ele>
        <time>2020-08-02T08:45:12Z</time>
      </trkpt>
      <trkpt lat="47.3239" lon="-0.4519">
        <ele>56</ele>
        <time>2020-08-02T08:45:14Z</time>
      </trkpt>
      <trkpt lat="47.32386" lon="-0.45196">
        <ele>55.6</ele>
        <time>2020-08-02T08:45:15Z</time>
      </trkpt>
      <trkpt lat="47.32381" lon="-0.45201">
        <ele>55.6</ele>
        <time>2020-08-02T08:45:16Z</time>
      </trkpt>
      <trkpt lat="47.32381" lon="-0.45201">
        <ele>55.4</ele>
        <time>2020-08-02T08:45:17Z</time>
      </trkpt>
      <trkpt lat="47.32373" lon="-0.45204">
        <ele>55.4</ele>
        <time>2020-08-02T08:45:18Z</time>
      </trkpt>
      <trkpt lat="47.32368" lon="-0.45207">
        <ele>55.4</ele>
        <time>2020-08-02T08:45:19Z</time>
      </trkpt>
      <trkpt lat="47.32364" lon="-0.45209">
        <ele>55.2</ele>
        <time>2020-08-02T08:45:20Z</time>
      </trkpt>
      <trkpt lat="47.3236" lon="-0.45209">
        <ele>55.2</ele>
        <time>2020-08-02T08:45:21Z</time>
      </trkpt>
      <trkpt lat="47.32356" lon="-0.45209">
        <ele>55</ele>
        <time>2020-08-02T08:45:22Z</time>
      </trkpt>
      <trkpt lat="47.3235" lon="-0.45212">
        <ele>55</ele>
        <time>2020-08-02T08:45:23Z</time>
      </trkpt>
      <trkpt lat="47.32344" lon="-0.45214">
        <ele>55</ele>
        <time>2020-08-02T08:45:24Z</time>
      </trkpt>
      <trkpt lat="47.32339" lon="-0.45218">
        <ele>55</ele>
        <time>2020-08-02T08:45:25Z</time>
      </trkpt>
      <trkpt lat="47.32336" lon="-0.45221">
        <ele>55</ele>
        <time>2020-08-02T08:45:26Z</time>
      </trkpt>
      <trkpt lat="47.32332" lon="-0.45223">
        <ele>54.8</ele>
        <time>2020-08-02T08:45:27Z</time>
      </trkpt>
      <trkpt lat="47.32314" lon="-0.45234">
        <ele>54.6</ele>
        <time>2020-08-02T08:45:31Z</time>
      </trkpt>
      <trkpt lat="47.32309" lon="-0.45238">
        <ele>54.4</ele>
        <time>2020-08-02T08:45:32Z</time>
      </trkpt>
      <trkpt lat="47.32304" lon="-0.4524">
        <ele>54.4</ele>
        <time>2020-08-02T08:45:33Z</time>
      </trkpt>
      <trkpt lat="47.32299" lon="-0.45242">
        <ele>54.4</ele>
        <time>2020-08-02T08:45:34Z</time>
      </trkpt>
      <trkpt lat="47.32294" lon="-0.45246">
        <ele>54.4</ele>
        <time>2020-08-02T08:45:35Z</time>
      </trkpt>
      <trkpt lat="47.32289" lon="-0.45249">
        <ele>54.4</ele>
        <time>2020-08-02T08:45:36Z</time>
      </trkpt>
      <trkpt lat="47.32285" lon="-0.45251">
        <ele>54.4</ele>
        <time>2020-08-02T08:45:37Z</time>
      </trkpt>
      <trkpt lat="47.3228" lon="-0.45254">
        <ele>54.4</ele>
        <time>2020-08-02T08:45:38Z</time>
      </trkpt>
      <trkpt lat="47.32252" lon="-0.45271">
        <ele>53.6</ele>
        <time>2020-08-02T08:45:43Z</time>
      </trkpt>
      <trkpt lat="47.32245" lon="-0.45275">
        <ele>53.6</ele>
        <time>2020-08-02T08:45:44Z</time>
      </trkpt>
      <trkpt lat="47.3224" lon="-0.45279">
        <ele>53.6</ele>
        <time>2020-08-02T08:45:45Z</time>
      </trkpt>
      <trkpt lat="47.32235" lon="-0.45283">
        <ele>53.2</ele>
        <time>2020-08-02T08:45:46Z</time>
      </trkpt>
      <trkpt lat="47.3223" lon="-0.45287">
        <ele>53.2</ele>
        <time>2020-08-02T08:45:47Z</time>
      </trkpt>
      <trkpt lat="47.32226" lon="-0.45291">
        <ele>53</ele>
        <time>2020-08-02T08:45:48Z</time>
      </trkpt>
      <trkpt lat="47.32221" lon="-0.45293">
        <ele>52.8</ele>
        <time>2020-08-02T08:45:49Z</time>
      </trkpt>
      <trkpt lat="47.32217" lon="-0.45296">
        <ele>52.8</ele>
        <time>2020-08-02T08:45:50Z</time>
      </trkpt>
      <trkpt lat="47.32211" lon="-0.45301">
        <ele>52.6</ele>
        <time>2020-08-02T08:45:51Z</time>
      </trkpt>
      <trkpt lat="47.32205" lon="-0.45307">
        <ele>52.6</ele>
        <time>2020-08-02T08:45:52Z</time>
      </trkpt>
      <trkpt lat="47.32199" lon="-0.45313">
        <ele>52.6</ele>
        <time>2020-08-02T08:45:53Z</time>
      </trkpt>
      <trkpt lat="47.32194" lon="-0.45319">
        <ele>52.4</ele>
        <time>2020-08-02T08:45:54Z</time>
      </trkpt>
      <trkpt lat="47.32189" lon="-0.45323">
        <ele>52.2</ele>
        <time>2020-08-02T08:45:55Z</time>
      </trkpt>
      <trkpt lat="47.3218" lon="-0.45334">
        <ele>52.2</ele>
        <time>2020-08-02T08:45:57Z</time>
      </trkpt>
      <trkpt lat="47.32175" lon="-0.45339">
        <ele>52</ele>
        <time>2020-08-02T08:45:58Z</time>
      </trkpt>
      <trkpt lat="47.3217" lon="-0.45343">
        <ele>52</ele>
        <time>2020-08-02T08:45:59Z</time>
      </trkpt>
      <trkpt lat="47.32165" lon="-0.45348">
        <ele>52</ele>
        <time>2020-08-02T08:46:00Z</time>
      </trkpt>
      <trkpt lat="47.32155" lon="-0.45358">
        <ele>51.6</ele>
        <time>2020-08-02T08:46:02Z</time>
      </trkpt>
      <trkpt lat="47.3215" lon="-0.45365">
        <ele>51.6</ele>
        <time>2020-08-02T08:46:03Z</time>
      </trkpt>
      <trkpt lat="47.32143" lon="-0.45372">
        <ele>51.2</ele>
        <time>2020-08-02T08:46:05Z</time>
      </trkpt>
      <trkpt lat="47.32132" lon="-0.45385">
        <ele>51</ele>
        <time>2020-08-02T08:46:07Z</time>
      </trkpt>
      <trkpt lat="47.32127" lon="-0.45392">
        <ele>51</ele>
        <time>2020-08-02T08:46:08Z</time>
      </trkpt>
      <trkpt lat="47.32124" lon="-0.45397">
        <ele>51</ele>
        <time>2020-08-02T08:46:09Z</time>
      </trkpt>
      <trkpt lat="47.32121" lon="-0.45402">
        <ele>51</ele>
        <time>2020-08-02T08:46:10Z</time>
      </trkpt>
      <trkpt lat="47.32119" lon="-0.45408">
        <ele>50.8</ele>
        <time>2020-08-02T08:46:11Z</time>
      </trkpt>
      <trkpt lat="47.32114" lon="-0.45414">
        <ele>50.8</ele>
        <time>2020-08-02T08:46:12Z</time>
      </trkpt>
      <trkpt lat="47.32111" lon="-0.45421">
        <ele>50.8</ele>
        <time>2020-08-02T08:46:13Z</time>
      </trkpt>
      <trkpt lat="47.32108" lon="-0.45427">
        <ele>50.8</ele>
        <time>2020-08-02T08:46:14Z</time>
      </trkpt>
      <trkpt lat="47.32106" lon="-0.45433">
        <ele>50.6</ele>
        <time>2020-08-02T08:46:15Z</time>
      </trkpt>
      <trkpt lat="47.32104" lon="-0.45436">
        <ele>50.4</ele>
        <time>2020-08-02T08:46:16Z</time>
      </trkpt>
      <trkpt lat="47.32099" lon="-0.45441">
        <ele>50.4</ele>
        <time>2020-08-02T08:46:17Z</time>
      </trkpt>
      <trkpt lat="47.32096" lon="-0.45444">
        <ele>50.4</ele>
        <time>2020-08-02T08:46:18Z</time>
      </trkpt>
      <trkpt lat="47.32093" lon="-0.4545">
        <ele>50.4</ele>
        <time>2020-08-02T08:46:19Z</time>
      </trkpt>
      <trkpt lat="47.32086" lon="-0.45461">
        <ele>50.2</ele>
        <time>2020-08-02T08:46:22Z</time>
      </trkpt>
      <trkpt lat="47.32081" lon="-0.45471">
        <ele>50</ele>
        <time>2020-08-02T08:46:23Z</time>
      </trkpt>
      <trkpt lat="47.32078" lon="-0.45476">
        <ele>50</ele>
        <time>2020-08-02T08:46:24Z</time>
      </trkpt>
      <trkpt lat="47.32075" lon="-0.45482">
        <ele>49.8</ele>
        <time>2020-08-02T08:46:25Z</time>
      </trkpt>
      <trkpt lat="47.32072" lon="-0.45487">
        <ele>49.8</ele>
        <time>2020-08-02T08:46:26Z</time>
      </trkpt>
      <trkpt lat="47.32069" lon="-0.45493">
        <ele>49.6</ele>
        <time>2020-08-02T08:46:27Z</time>
      </trkpt>
      <trkpt lat="47.32065" lon="-0.45499">
        <ele>49.6</ele>
        <time>2020-08-02T08:46:28Z</time>
      </trkpt>
      <trkpt lat="47.32063" lon="-0.45505">
        <ele>49.4</ele>
        <time>2020-08-02T08:46:29Z</time>
      </trkpt>
      <trkpt lat="47.3206" lon="-0.4551">
        <ele>49.2</ele>
        <time>2020-08-02T08:46:30Z</time>
      </trkpt>
      <trkpt lat="47.32057" lon="-0.45516">
        <ele>49.2</ele>
        <time>2020-08-02T08:46:31Z</time>
      </trkpt>
      <trkpt lat="47.32054" lon="-0.45521">
        <ele>49.2</ele>
        <time>2020-08-02T08:46:32Z</time>
      </trkpt>
      <trkpt lat="47.32051" lon="-0.45526">
        <ele>49.2</ele>
        <time>2020-08-02T08:46:33Z</time>
      </trkpt>
      <trkpt lat="47.32032" lon="-0.45554">
        <ele>49</ele>
        <time>2020-08-02T08:46:38Z</time>
      </trkpt>
      <trkpt lat="47.32028" lon="-0.4556">
        <ele>48.8</ele>
        <time>2020-08-02T08:46:39Z</time>
      </trkpt>
      <trkpt lat="47.32006" lon="-0.45594">
        <ele>48.6</ele>
        <time>2020-08-02T08:46:45Z</time>
      </trkpt>
      <trkpt lat="47.32003" lon="-0.456">
        <ele>48.6</ele>
        <time>2020-08-02T08:46:46Z</time>
      </trkpt>
      <trkpt lat="47.32001" lon="-0.45605">
        <ele>48.6</ele>
        <time>2020-08-02T08:46:47Z</time>
      </trkpt>
      <trkpt lat="47.31998" lon="-0.4561">
        <ele>48.4</ele>
        <time>2020-08-02T08:46:48Z</time>
      </trkpt>
      <trkpt lat="47.31995" lon="-0.45616">
        <ele>48.4</ele>
        <time>2020-08-02T08:46:49Z</time>
      </trkpt>
      <trkpt lat="47.31991" lon="-0.45621">
        <ele>48.4</ele>
        <time>2020-08-02T08:46:50Z</time>
      </trkpt>
      <trkpt lat="47.31988" lon="-0.45624">
        <ele>48.4</ele>
        <time>2020-08-02T08:46:51Z</time>
      </trkpt>
      <trkpt lat="47.31982" lon="-0.45634">
        <ele>48.4</ele>
        <time>2020-08-02T08:46:53Z</time>
      </trkpt>
      <trkpt lat="47.31979" lon="-0.45637">
        <ele>48.4</ele>
        <time>2020-08-02T08:46:54Z</time>
      </trkpt>
      <trkpt lat="47.31976" lon="-0.45642">
        <ele>48.4</ele>
        <time>2020-08-02T08:46:55Z</time>
      </trkpt>
      <trkpt lat="47.31973" lon="-0.45646">
        <ele>48.4</ele>
        <time>2020-08-02T08:46:56Z</time>
      </trkpt>
      <trkpt lat="47.31969" lon="-0.45652">
        <ele>48.4</ele>
        <time>2020-08-02T08:46:57Z</time>
      </trkpt>
      <trkpt lat="47.31966" lon="-0.45655">
        <ele>48.4</ele>
        <time>2020-08-02T08:46:58Z</time>
      </trkpt>
      <trkpt lat="47.31963" lon="-0.4566">
        <ele>48.4</ele>
        <time>2020-08-02T08:46:59Z</time>
      </trkpt>
      <trkpt lat="47.31961" lon="-0.45664">
        <ele>48.4</ele>
        <time>2020-08-02T08:47:00Z</time>
      </trkpt>
      <trkpt lat="47.31957" lon="-0.45668">
        <ele>48.4</ele>
        <time>2020-08-02T08:47:01Z</time>
      </trkpt>
      <trkpt lat="47.31955" lon="-0.45672">
        <ele>48.4</ele>
        <time>2020-08-02T08:47:02Z</time>
      </trkpt>
      <trkpt lat="47.31953" lon="-0.45676">
        <ele>48.4</ele>
        <time>2020-08-02T08:47:03Z</time>
      </trkpt>
      <trkpt lat="47.31952" lon="-0.4568">
        <ele>48.4</ele>
        <time>2020-08-02T08:47:04Z</time>
      </trkpt>
      <trkpt lat="47.31951" lon="-0.45681">
        <ele>48.4</ele>
        <time>2020-08-02T08:47:05Z</time>
      </trkpt>
      <trkpt lat="47.31948" lon="-0.45684">
        <ele>48.6</ele>
        <time>2020-08-02T08:47:06Z</time>
      </trkpt>
      <trkpt lat="47.31941" lon="-0.45688">
        <ele>48.6</ele>
        <time>2020-08-02T08:47:07Z</time>
      </trkpt>
      <trkpt lat="47.31938" lon="-0.4569">
        <ele>48.6</ele>
        <time>2020-08-02T08:47:08Z</time>
      </trkpt>
      <trkpt lat="47.31936" lon="-0.45692">
        <ele>48.6</ele>
        <time>2020-08-02T08:47:09Z</time>
      </trkpt>
      <trkpt lat="47.31935" lon="-0.45692">
        <ele>48.6</ele>
        <time>2020-08-02T08:47:10Z</time>
      </trkpt>
      <trkpt lat="47.31933" lon="-0.45692">
        <ele>48.6</ele>
        <time>2020-08-02T08:47:11Z</time>
      </trkpt>
      <trkpt lat="47.31932" lon="-0.45692">
        <ele>48.8</ele>
        <time>2020-08-02T08:47:12Z</time>
      </trkpt>
      <trkpt lat="47.31931" lon="-0.45691">
        <ele>48.8</ele>
        <time>2020-08-02T08:47:13Z</time>
      </trkpt>
      <trkpt lat="47.31929" lon="-0.45688">
        <ele>48.8</ele>
        <time>2020-08-02T08:47:14Z</time>
      </trkpt>
      <trkpt lat="47.31928" lon="-0.45685">
        <ele>48.8</ele>
        <time>2020-08-02T08:47:15Z</time>
      </trkpt>
      <trkpt lat="47.31925" lon="-0.45677">
        <ele>48.8</ele>
        <time>2020-08-02T08:47:17Z</time>
      </trkpt>
      <trkpt lat="47.31924" lon="-0.45673">
        <ele>48.8</ele>
        <time>2020-08-02T08:47:18Z</time>
      </trkpt>
      <trkpt lat="47.31922" lon="-0.45664">
        <ele>48.8</ele>
        <time>2020-08-02T08:47:20Z</time>
      </trkpt>
      <trkpt lat="47.31921" lon="-0.4566">
        <ele>48.6</ele>
        <time>2020-08-02T08:47:21Z</time>
      </trkpt>
      <trkpt lat="47.31919" lon="-0.45655">
        <ele>48.4</ele>
        <time>2020-08-02T08:47:22Z</time>
      </trkpt>
      <trkpt lat="47.31918" lon="-0.45649">
        <ele>48.2</ele>
        <time>2020-08-02T08:47:23Z</time>
      </trkpt>
      <trkpt lat="47.31916" lon="-0.45643">
        <ele>47.8</ele>
        <time>2020-08-02T08:47:24Z</time>
      </trkpt>
      <trkpt lat="47.31915" lon="-0.45637">
        <ele>47.4</ele>
        <time>2020-08-02T08:47:25Z</time>
      </trkpt>
      <trkpt lat="47.31906" lon="-0.45609">
        <ele>46.8</ele>
        <time>2020-08-02T08:47:28Z</time>
      </trkpt>
      <trkpt lat="47.31902" lon="-0.45599">
        <ele>46.2</ele>
        <time>2020-08-02T08:47:29Z</time>
      </trkpt>
      <trkpt lat="47.31896" lon="-0.4558">
        <ele>45.8</ele>
        <time>2020-08-02T08:47:31Z</time>
      </trkpt>
      <trkpt lat="47.31894" lon="-0.45571">
        <ele>45.4</ele>
        <time>2020-08-02T08:47:32Z</time>
      </trkpt>
      <trkpt lat="47.31892" lon="-0.45563">
        <ele>45.4</ele>
        <time>2020-08-02T08:47:33Z</time>
      </trkpt>
      <trkpt lat="47.31889" lon="-0.45555">
        <ele>45.2</ele>
        <time>2020-08-02T08:47:34Z</time>
      </trkpt>
      <trkpt lat="47.31878" lon="-0.45514">
        <ele>44.8</ele>
        <time>2020-08-02T08:47:39Z</time>
      </trkpt>
      <trkpt lat="47.31876" lon="-0.45507">
        <ele>44.8</ele>
        <time>2020-08-02T08:47:40Z</time>
      </trkpt>
      <trkpt lat="47.31875" lon="-0.45501">
        <ele>44.8</ele>
        <time>2020-08-02T08:47:41Z</time>
      </trkpt>
      <trkpt lat="47.31873" lon="-0.45495">
        <ele>44.6</ele>
        <time>2020-08-02T08:47:42Z</time>
      </trkpt>
      <trkpt lat="47.31872" lon="-0.45487">
        <ele>44.6</ele>
        <time>2020-08-02T08:47:43Z</time>
      </trkpt>
      <trkpt lat="47.3187" lon="-0.4548">
        <ele>44.4</ele>
        <time>2020-08-02T08:47:44Z</time>
      </trkpt>
      <trkpt lat="47.31868" lon="-0.45473">
        <ele>44.4</ele>
        <time>2020-08-02T08:47:45Z</time>
      </trkpt>
      <trkpt lat="47.31866" lon="-0.45465">
        <ele>44.4</ele>
        <time>2020-08-02T08:47:46Z</time>
      </trkpt>
      <trkpt lat="47.31864" lon="-0.4546">
        <ele>44.4</ele>
        <time>2020-08-02T08:47:47Z</time>
      </trkpt>
      <trkpt lat="47.31862" lon="-0.45453">
        <ele>44.4</ele>
        <time>2020-08-02T08:47:48Z</time>
      </trkpt>
      <trkpt lat="47.31861" lon="-0.45446">
        <ele>44.2</ele>
        <time>2020-08-02T08:47:49Z</time>
      </trkpt>
      <trkpt lat="47.31859" lon="-0.45439">
        <ele>44.2</ele>
        <time>2020-08-02T08:47:50Z</time>
      </trkpt>
      <trkpt lat="47.31857" lon="-0.45432">
        <ele>44.2</ele>
        <time>2020-08-02T08:47:51Z</time>
      </trkpt>
      <trkpt lat="47.31856" lon="-0.45425">
        <ele>44.2</ele>
        <time>2020-08-02T08:47:52Z</time>
      </trkpt>
      <trkpt lat="47.31854" lon="-0.45419">
        <ele>44.2</ele>
        <time>2020-08-02T08:47:53Z</time>
      </trkpt>
      <trkpt lat="47.31852" lon="-0.45412">
        <ele>44.4</ele>
        <time>2020-08-02T08:47:54Z</time>
      </trkpt>
      <trkpt lat="47.31851" lon="-0.45406">
        <ele>44.4</ele>
        <time>2020-08-02T08:47:55Z</time>
      </trkpt>
      <trkpt lat="47.31849" lon="-0.45401">
        <ele>44.4</ele>
        <time>2020-08-02T08:47:56Z</time>
      </trkpt>
      <trkpt lat="47.31848" lon="-0.45395">
        <ele>44.4</ele>
        <time>2020-08-02T08:47:57Z</time>
      </trkpt>
      <trkpt lat="47.31846" lon="-0.45389">
        <ele>44.4</ele>
        <time>2020-08-02T08:47:58Z</time>
      </trkpt>
      <trkpt lat="47.31845" lon="-0.45382">
        <ele>44.4</ele>
        <time>2020-08-02T08:47:59Z</time>
      </trkpt>
      <trkpt lat="47.31843" lon="-0.45375">
        <ele>44.6</ele>
        <time>2020-08-02T08:48:00Z</time>
      </trkpt>
      <trkpt lat="47.31842" lon="-0.4537">
        <ele>44.6</ele>
        <time>2020-08-02T08:48:01Z</time>
      </trkpt>
      <trkpt lat="47.3184" lon="-0.45364">
        <ele>44.4</ele>
        <time>2020-08-02T08:48:02Z</time>
      </trkpt>
      <trkpt lat="47.31839" lon="-0.45357">
        <ele>44.4</ele>
        <time>2020-08-02T08:48:03Z</time>
      </trkpt>
      <trkpt lat="47.31837" lon="-0.45352">
        <ele>44.6</ele>
        <time>2020-08-02T08:48:04Z</time>
      </trkpt>
      <trkpt lat="47.31835" lon="-0.45345">
        <ele>44.4</ele>
        <time>2020-08-02T08:48:05Z</time>
      </trkpt>
      <trkpt lat="47.31834" lon="-0.4534">
        <ele>44.2</ele>
        <time>2020-08-02T08:48:06Z</time>
      </trkpt>
      <trkpt lat="47.31833" lon="-0.45334">
        <ele>44.2</ele>
        <time>2020-08-02T08:48:07Z</time>
      </trkpt>
      <trkpt lat="47.31829" lon="-0.45321">
        <ele>44.4</ele>
        <time>2020-08-02T08:48:09Z</time>
      </trkpt>
      <trkpt lat="47.31816" lon="-0.45275">
        <ele>45</ele>
        <time>2020-08-02T08:48:16Z</time>
      </trkpt>
      <trkpt lat="47.31813" lon="-0.45268">
        <ele>45</ele>
        <time>2020-08-02T08:48:17Z</time>
      </trkpt>
      <trkpt lat="47.31806" lon="-0.4525">
        <ele>45.2</ele>
        <time>2020-08-02T08:48:20Z</time>
      </trkpt>
      <trkpt lat="47.31803" lon="-0.45246">
        <ele>45.2</ele>
        <time>2020-08-02T08:48:21Z</time>
      </trkpt>
      <trkpt lat="47.31799" lon="-0.45242">
        <ele>45.2</ele>
        <time>2020-08-02T08:48:22Z</time>
      </trkpt>
      <trkpt lat="47.31795" lon="-0.4524">
        <ele>45.4</ele>
        <time>2020-08-02T08:48:23Z</time>
      </trkpt>
      <trkpt lat="47.31791" lon="-0.45239">
        <ele>45.6</ele>
        <time>2020-08-02T08:48:24Z</time>
      </trkpt>
      <trkpt lat="47.31787" lon="-0.4524">
        <ele>45.8</ele>
        <time>2020-08-02T08:48:25Z</time>
      </trkpt>
      <trkpt lat="47.31784" lon="-0.45242">
        <ele>45.8</ele>
        <time>2020-08-02T08:48:26Z</time>
      </trkpt>
      <trkpt lat="47.3178" lon="-0.45244">
        <ele>46</ele>
        <time>2020-08-02T08:48:27Z</time>
      </trkpt>
      <trkpt lat="47.31777" lon="-0.45245">
        <ele>46</ele>
        <time>2020-08-02T08:48:28Z</time>
      </trkpt>
      <trkpt lat="47.31774" lon="-0.45247">
        <ele>46.2</ele>
        <time>2020-08-02T08:48:29Z</time>
      </trkpt>
      <trkpt lat="47.31771" lon="-0.45249">
        <ele>46.2</ele>
        <time>2020-08-02T08:48:30Z</time>
      </trkpt>
      <trkpt lat="47.31767" lon="-0.4525">
        <ele>46.4</ele>
        <time>2020-08-02T08:48:31Z</time>
      </trkpt>
      <trkpt lat="47.31764" lon="-0.45251">
        <ele>46.6</ele>
        <time>2020-08-02T08:48:32Z</time>
      </trkpt>
      <trkpt lat="47.31762" lon="-0.45253">
        <ele>46.6</ele>
        <time>2020-08-02T08:48:33Z</time>
      </trkpt>
      <trkpt lat="47.31758" lon="-0.45254">
        <ele>46.6</ele>
        <time>2020-08-02T08:48:34Z</time>
      </trkpt>
      <trkpt lat="47.31756" lon="-0.45256">
        <ele>46.8</ele>
        <time>2020-08-02T08:48:35Z</time>
      </trkpt>
      <trkpt lat="47.31752" lon="-0.45258">
        <ele>46.8</ele>
        <time>2020-08-02T08:48:36Z</time>
      </trkpt>
      <trkpt lat="47.31749" lon="-0.4526">
        <ele>47.2</ele>
        <time>2020-08-02T08:48:37Z</time>
      </trkpt>
      <trkpt lat="47.31746" lon="-0.45262">
        <ele>47.2</ele>
        <time>2020-08-02T08:48:38Z</time>
      </trkpt>
      <trkpt lat="47.31742" lon="-0.45263">
        <ele>47.4</ele>
        <time>2020-08-02T08:48:39Z</time>
      </trkpt>
      <trkpt lat="47.31739" lon="-0.45265">
        <ele>47.4</ele>
        <time>2020-08-02T08:48:40Z</time>
      </trkpt>
      <trkpt lat="47.31736" lon="-0.45267">
        <ele>47.6</ele>
        <time>2020-08-02T08:48:41Z</time>
      </trkpt>
      <trkpt lat="47.31736" lon="-0.45267">
        <ele>47.8</ele>
        <time>2020-08-02T08:48:42Z</time>
      </trkpt>
      <trkpt lat="47.31729" lon="-0.4527">
        <ele>47.8</ele>
        <time>2020-08-02T08:48:43Z</time>
      </trkpt>
      <trkpt lat="47.31726" lon="-0.45271">
        <ele>48</ele>
        <time>2020-08-02T08:48:44Z</time>
      </trkpt>
      <trkpt lat="47.31722" lon="-0.45273">
        <ele>48.2</ele>
        <time>2020-08-02T08:48:45Z</time>
      </trkpt>
      <trkpt lat="47.31719" lon="-0.45275">
        <ele>48.2</ele>
        <time>2020-08-02T08:48:46Z</time>
      </trkpt>
      <trkpt lat="47.31716" lon="-0.45276">
        <ele>48.4</ele>
        <time>2020-08-02T08:48:47Z</time>
      </trkpt>
      <trkpt lat="47.31712" lon="-0.45279">
        <ele>48.6</ele>
        <time>2020-08-02T08:48:48Z</time>
      </trkpt>
      <trkpt lat="47.31709" lon="-0.45281">
        <ele>48.8</ele>
        <time>2020-08-02T08:48:49Z</time>
      </trkpt>
      <trkpt lat="47.31706" lon="-0.45282">
        <ele>48.8</ele>
        <time>2020-08-02T08:48:50Z</time>
      </trkpt>
      <trkpt lat="47.31703" lon="-0.45284">
        <ele>49</ele>
        <time>2020-08-02T08:48:51Z</time>
      </trkpt>
      <trkpt lat="47.31699" lon="-0.45286">
        <ele>49</ele>
        <time>2020-08-02T08:48:52Z</time>
      </trkpt>
      <trkpt lat="47.31697" lon="-0.45289">
        <ele>49.2</ele>
        <time>2020-08-02T08:48:53Z</time>
      </trkpt>
      <trkpt lat="47.31693" lon="-0.45291">
        <ele>49.4</ele>
        <time>2020-08-02T08:48:54Z</time>
      </trkpt>
      <trkpt lat="47.3169" lon="-0.45293">
        <ele>49.6</ele>
        <time>2020-08-02T08:48:55Z</time>
      </trkpt>
      <trkpt lat="47.31687" lon="-0.45293">
        <ele>49.6</ele>
        <time>2020-08-02T08:48:56Z</time>
      </trkpt>
      <trkpt lat="47.31683" lon="-0.45293">
        <ele>49.8</ele>
        <time>2020-08-02T08:48:57Z</time>
      </trkpt>
      <trkpt lat="47.31679" lon="-0.45291">
        <ele>49.8</ele>
        <time>2020-08-02T08:48:58Z</time>
      </trkpt>
      <trkpt lat="47.31677" lon="-0.45292">
        <ele>52</ele>
        <time>2020-08-02T08:51:08Z</time>
      </trkpt>
      <trkpt lat="47.31677" lon="-0.45292">
        <ele>52</ele>
        <time>2020-08-02T08:51:09Z</time>
      </trkpt>
      <trkpt lat="47.3168" lon="-0.45303">
        <ele>51.8</ele>
        <time>2020-08-02T08:51:10Z</time>
      </trkpt>
      <trkpt lat="47.31679" lon="-0.45308">
        <ele>51.8</ele>
        <time>2020-08-02T08:51:11Z</time>
      </trkpt>
      <trkpt lat="47.31677" lon="-0.45313">
        <ele>51.6</ele>
        <time>2020-08-02T08:51:12Z</time>
      </trkpt>
      <trkpt lat="47.31675" lon="-0.45317">
        <ele>51.6</ele>
        <time>2020-08-02T08:51:13Z</time>
      </trkpt>
      <trkpt lat="47.31672" lon="-0.45321">
        <ele>51.4</ele>
        <time>2020-08-02T08:51:14Z</time>
      </trkpt>
      <trkpt lat="47.31668" lon="-0.45324">
        <ele>51.4</ele>
        <time>2020-08-02T08:51:15Z</time>
      </trkpt>
      <trkpt lat="47.31665" lon="-0.45327">
        <ele>51.4</ele>
        <time>2020-08-02T08:51:16Z</time>
      </trkpt>
      <trkpt lat="47.31658" lon="-0.45331">
        <ele>51.4</ele>
        <time>2020-08-02T08:51:18Z</time>
      </trkpt>
      <trkpt lat="47.31654" lon="-0.45333">
        <ele>51.4</ele>
        <time>2020-08-02T08:51:19Z</time>
      </trkpt>
      <trkpt lat="47.31651" lon="-0.45335">
        <ele>51.4</ele>
        <time>2020-08-02T08:51:20Z</time>
      </trkpt>
      <trkpt lat="47.31647" lon="-0.45337">
        <ele>51.8</ele>
        <time>2020-08-02T08:51:21Z</time>
      </trkpt>
      <trkpt lat="47.31644" lon="-0.45338">
        <ele>52</ele>
        <time>2020-08-02T08:51:22Z</time>
      </trkpt>
      <trkpt lat="47.31641" lon="-0.4534">
        <ele>52.2</ele>
        <time>2020-08-02T08:51:23Z</time>
      </trkpt>
      <trkpt lat="47.31639" lon="-0.45341">
        <ele>52.2</ele>
        <time>2020-08-02T08:51:24Z</time>
      </trkpt>
      <trkpt lat="47.31637" lon="-0.45343">
        <ele>52.4</ele>
        <time>2020-08-02T08:51:25Z</time>
      </trkpt>
      <trkpt lat="47.31634" lon="-0.45345">
        <ele>52.6</ele>
        <time>2020-08-02T08:51:26Z</time>
      </trkpt>
      <trkpt lat="47.31632" lon="-0.45346">
        <ele>52.6</ele>
        <time>2020-08-02T08:51:27Z</time>
      </trkpt>
      <trkpt lat="47.31631" lon="-0.45348">
        <ele>52.8</ele>
        <time>2020-08-02T08:51:28Z</time>
      </trkpt>
      <trkpt lat="47.31629" lon="-0.4535">
        <ele>52.8</ele>
        <time>2020-08-02T08:51:29Z</time>
      </trkpt>
      <trkpt lat="47.31627" lon="-0.45352">
        <ele>52.8</ele>
        <time>2020-08-02T08:51:30Z</time>
      </trkpt>
      <trkpt lat="47.31625" lon="-0.45352">
        <ele>53</ele>
        <time>2020-08-02T08:51:31Z</time>
      </trkpt>
      <trkpt lat="47.31623" lon="-0.45352">
        <ele>53</ele>
        <time>2020-08-02T08:51:32Z</time>
      </trkpt>
      <trkpt lat="47.31621" lon="-0.45352">
        <ele>53.2</ele>
        <time>2020-08-02T08:51:33Z</time>
      </trkpt>
      <trkpt lat="47.31619" lon="-0.45353">
        <ele>53.6</ele>
        <time>2020-08-02T08:51:34Z</time>
      </trkpt>
      <trkpt lat="47.31617" lon="-0.45355">
        <ele>53.6</ele>
        <time>2020-08-02T08:51:35Z</time>
      </trkpt>
      <trkpt lat="47.31615" lon="-0.45356">
        <ele>53.8</ele>
        <time>2020-08-02T08:51:36Z</time>
      </trkpt>
      <trkpt lat="47.31613" lon="-0.45358">
        <ele>53.8</ele>
        <time>2020-08-02T08:51:37Z</time>
      </trkpt>
      <trkpt lat="47.3161" lon="-0.4536">
        <ele>54</ele>
        <time>2020-08-02T08:51:38Z</time>
      </trkpt>
      <trkpt lat="47.31609" lon="-0.45361">
        <ele>54.2</ele>
        <time>2020-08-02T08:51:39Z</time>
      </trkpt>
      <trkpt lat="47.31607" lon="-0.45363">
        <ele>54.4</ele>
        <time>2020-08-02T08:51:40Z</time>
      </trkpt>
      <trkpt lat="47.31605" lon="-0.45364">
        <ele>54.4</ele>
        <time>2020-08-02T08:51:41Z</time>
      </trkpt>
      <trkpt lat="47.31603" lon="-0.45365">
        <ele>54.6</ele>
        <time>2020-08-02T08:51:42Z</time>
      </trkpt>
      <trkpt lat="47.31601" lon="-0.45367">
        <ele>54.6</ele>
        <time>2020-08-02T08:51:43Z</time>
      </trkpt>
      <trkpt lat="47.31601" lon="-0.45369">
        <ele>54.6</ele>
        <time>2020-08-02T08:51:44Z</time>
      </trkpt>
      <trkpt lat="47.316" lon="-0.4537">
        <ele>54.8</ele>
        <time>2020-08-02T08:51:45Z</time>
      </trkpt>
      <trkpt lat="47.31598" lon="-0.45371">
        <ele>54.8</ele>
        <time>2020-08-02T08:51:46Z</time>
      </trkpt>
      <trkpt lat="47.31597" lon="-0.45371">
        <ele>54.8</ele>
        <time>2020-08-02T08:51:47Z</time>
      </trkpt>
      <trkpt lat="47.31596" lon="-0.45372">
        <ele>55</ele>
        <time>2020-08-02T08:51:48Z</time>
      </trkpt>
      <trkpt lat="47.31595" lon="-0.45373">
        <ele>55</ele>
        <time>2020-08-02T08:51:49Z</time>
      </trkpt>
      <trkpt lat="47.31594" lon="-0.45375">
        <ele>55.2</ele>
        <time>2020-08-02T08:51:50Z</time>
      </trkpt>
      <trkpt lat="47.31592" lon="-0.45376">
        <ele>55.2</ele>
        <time>2020-08-02T08:51:51Z</time>
      </trkpt>
      <trkpt lat="47.31591" lon="-0.45377">
        <ele>55.4</ele>
        <time>2020-08-02T08:51:52Z</time>
      </trkpt>
      <trkpt lat="47.31589" lon="-0.45378">
        <ele>55.8</ele>
        <time>2020-08-02T08:51:53Z</time>
      </trkpt>
      <trkpt lat="47.31588" lon="-0.45379">
        <ele>55.8</ele>
        <time>2020-08-02T08:51:54Z</time>
      </trkpt>
      <trkpt lat="47.31587" lon="-0.4538">
        <ele>56</ele>
        <time>2020-08-02T08:51:55Z</time>
      </trkpt>
      <trkpt lat="47.31587" lon="-0.4538">
        <ele>56.2</ele>
        <time>2020-08-02T08:51:56Z</time>
      </trkpt>
      <trkpt lat="47.31585" lon="-0.45381">
        <ele>56.2</ele>
        <time>2020-08-02T08:51:57Z</time>
      </trkpt>
      <trkpt lat="47.31584" lon="-0.45382">
        <ele>56.4</ele>
        <time>2020-08-02T08:51:58Z</time>
      </trkpt>
      <trkpt lat="47.31581" lon="-0.45383">
        <ele>56.6</ele>
        <time>2020-08-02T08:51:59Z</time>
      </trkpt>
      <trkpt lat="47.31579" lon="-0.45384">
        <ele>56.8</ele>
        <time>2020-08-02T08:52:00Z</time>
      </trkpt>
      <trkpt lat="47.31577" lon="-0.45385">
        <ele>56.8</ele>
        <time>2020-08-02T08:52:01Z</time>
      </trkpt>
      <trkpt lat="47.31575" lon="-0.45386">
        <ele>57</ele>
        <time>2020-08-02T08:52:02Z</time>
      </trkpt>
      <trkpt lat="47.31572" lon="-0.45387">
        <ele>57.2</ele>
        <time>2020-08-02T08:52:03Z</time>
      </trkpt>
      <trkpt lat="47.31569" lon="-0.45388">
        <ele>57.2</ele>
        <time>2020-08-02T08:52:04Z</time>
      </trkpt>
      <trkpt lat="47.31567" lon="-0.45389">
        <ele>57.6</ele>
        <time>2020-08-02T08:52:05Z</time>
      </trkpt>
      <trkpt lat="47.31564" lon="-0.4539">
        <ele>57.6</ele>
        <time>2020-08-02T08:52:06Z</time>
      </trkpt>
      <trkpt lat="47.31562" lon="-0.45392">
        <ele>57.8</ele>
        <time>2020-08-02T08:52:07Z</time>
      </trkpt>
      <trkpt lat="47.31559" lon="-0.45394">
        <ele>57.8</ele>
        <time>2020-08-02T08:52:08Z</time>
      </trkpt>
      <trkpt lat="47.31558" lon="-0.45394">
        <ele>58</ele>
        <time>2020-08-02T08:52:09Z</time>
      </trkpt>
      <trkpt lat="47.31555" lon="-0.45396">
        <ele>58.2</ele>
        <time>2020-08-02T08:52:10Z</time>
      </trkpt>
      <trkpt lat="47.31552" lon="-0.45397">
        <ele>58.2</ele>
        <time>2020-08-02T08:52:11Z</time>
      </trkpt>
      <trkpt lat="47.31549" lon="-0.45399">
        <ele>58.8</ele>
        <time>2020-08-02T08:52:12Z</time>
      </trkpt>
      <trkpt lat="47.31545" lon="-0.45402">
        <ele>59.2</ele>
        <time>2020-08-02T08:52:13Z</time>
      </trkpt>
      <trkpt lat="47.31541" lon="-0.45403">
        <ele>59.4</ele>
        <time>2020-08-02T08:52:14Z</time>
      </trkpt>
      <trkpt lat="47.31537" lon="-0.45404">
        <ele>59.6</ele>
        <time>2020-08-02T08:52:15Z</time>
      </trkpt>
      <trkpt lat="47.31534" lon="-0.45405">
        <ele>60</ele>
        <time>2020-08-02T08:52:16Z</time>
      </trkpt>
      <trkpt lat="47.3153" lon="-0.45408">
        <ele>60.4</ele>
        <time>2020-08-02T08:52:17Z</time>
      </trkpt>
      <trkpt lat="47.31525" lon="-0.45408">
        <ele>60.4</ele>
        <time>2020-08-02T08:52:18Z</time>
      </trkpt>
      <trkpt lat="47.31522" lon="-0.45409">
        <ele>60.6</ele>
        <time>2020-08-02T08:52:19Z</time>
      </trkpt>
      <trkpt lat="47.31519" lon="-0.4541">
        <ele>60.6</ele>
        <time>2020-08-02T08:52:20Z</time>
      </trkpt>
      <trkpt lat="47.31517" lon="-0.45411">
        <ele>60.8</ele>
        <time>2020-08-02T08:52:21Z</time>
      </trkpt>
      <trkpt lat="47.31511" lon="-0.45416">
        <ele>61</ele>
        <time>2020-08-02T08:52:22Z</time>
      </trkpt>
      <trkpt lat="47.31502" lon="-0.45418">
        <ele>61.2</ele>
        <time>2020-08-02T08:52:23Z</time>
      </trkpt>
      <trkpt lat="47.31498" lon="-0.45419">
        <ele>61.6</ele>
        <time>2020-08-02T08:52:24Z</time>
      </trkpt>
      <trkpt lat="47.31494" lon="-0.4542">
        <ele>61.8</ele>
        <time>2020-08-02T08:52:25Z</time>
      </trkpt>
      <trkpt lat="47.31489" lon="-0.45423">
        <ele>62</ele>
        <time>2020-08-02T08:52:26Z</time>
      </trkpt>
      <trkpt lat="47.31486" lon="-0.45425">
        <ele>62</ele>
        <time>2020-08-02T08:52:27Z</time>
      </trkpt>
      <trkpt lat="47.31483" lon="-0.45427">
        <ele>62.4</ele>
        <time>2020-08-02T08:52:28Z</time>
      </trkpt>
      <trkpt lat="47.3148" lon="-0.45429">
        <ele>62.4</ele>
        <time>2020-08-02T08:52:29Z</time>
      </trkpt>
      <trkpt lat="47.31477" lon="-0.45432">
        <ele>62.8</ele>
        <time>2020-08-02T08:52:30Z</time>
      </trkpt>
      <trkpt lat="47.31473" lon="-0.45435">
        <ele>63.2</ele>
        <time>2020-08-02T08:52:31Z</time>
      </trkpt>
      <trkpt lat="47.31466" lon="-0.45435">
        <ele>63.2</ele>
        <time>2020-08-02T08:52:32Z</time>
      </trkpt>
      <trkpt lat="47.31462" lon="-0.45438">
        <ele>63.4</ele>
        <time>2020-08-02T08:52:33Z</time>
      </trkpt>
      <trkpt lat="47.3146" lon="-0.4544">
        <ele>63.6</ele>
        <time>2020-08-02T08:52:34Z</time>
      </trkpt>
      <trkpt lat="47.31459" lon="-0.45442">
        <ele>63.8</ele>
        <time>2020-08-02T08:52:35Z</time>
      </trkpt>
      <trkpt lat="47.31457" lon="-0.45445">
        <ele>64.2</ele>
        <time>2020-08-02T08:52:36Z</time>
      </trkpt>
      <trkpt lat="47.31453" lon="-0.45448">
        <ele>64.4</ele>
        <time>2020-08-02T08:52:37Z</time>
      </trkpt>
      <trkpt lat="47.31451" lon="-0.45448">
        <ele>64.6</ele>
        <time>2020-08-02T08:52:38Z</time>
      </trkpt>
      <trkpt lat="47.31446" lon="-0.45452">
        <ele>64.8</ele>
        <time>2020-08-02T08:52:39Z</time>
      </trkpt>
      <trkpt lat="47.31443" lon="-0.45456">
        <ele>65</ele>
        <time>2020-08-02T08:52:40Z</time>
      </trkpt>
      <trkpt lat="47.31441" lon="-0.45458">
        <ele>65</ele>
        <time>2020-08-02T08:52:41Z</time>
      </trkpt>
      <trkpt lat="47.3144" lon="-0.45462">
        <ele>65.2</ele>
        <time>2020-08-02T08:52:42Z</time>
      </trkpt>
      <trkpt lat="47.31438" lon="-0.45464">
        <ele>65.4</ele>
        <time>2020-08-02T08:52:43Z</time>
      </trkpt>
      <trkpt lat="47.31439" lon="-0.45466">
        <ele>65.6</ele>
        <time>2020-08-02T08:52:44Z</time>
      </trkpt>
      <trkpt lat="47.31435" lon="-0.45469">
        <ele>65.8</ele>
        <time>2020-08-02T08:52:45Z</time>
      </trkpt>
      <trkpt lat="47.31433" lon="-0.45472">
        <ele>65.8</ele>
        <time>2020-08-02T08:52:46Z</time>
      </trkpt>
      <trkpt lat="47.3143" lon="-0.45474">
        <ele>66</ele>
        <time>2020-08-02T08:52:47Z</time>
      </trkpt>
      <trkpt lat="47.31428" lon="-0.45473">
        <ele>66</ele>
        <time>2020-08-02T08:52:48Z</time>
      </trkpt>
      <trkpt lat="47.31425" lon="-0.45475">
        <ele>66</ele>
        <time>2020-08-02T08:52:49Z</time>
      </trkpt>
      <trkpt lat="47.3142" lon="-0.45478">
        <ele>66</ele>
        <time>2020-08-02T08:52:50Z</time>
      </trkpt>
      <trkpt lat="47.31418" lon="-0.4548">
        <ele>66</ele>
        <time>2020-08-02T08:52:52Z</time>
      </trkpt>
      <trkpt lat="47.3141" lon="-0.45484">
        <ele>66.4</ele>
        <time>2020-08-02T08:52:55Z</time>
      </trkpt>
      <trkpt lat="47.31406" lon="-0.45486">
        <ele>66.4</ele>
        <time>2020-08-02T08:52:56Z</time>
      </trkpt>
      <trkpt lat="47.31403" lon="-0.45485">
        <ele>66.4</ele>
        <time>2020-08-02T08:52:57Z</time>
      </trkpt>
      <trkpt lat="47.31401" lon="-0.45485">
        <ele>66.4</ele>
        <time>2020-08-02T08:52:58Z</time>
      </trkpt>
      <trkpt lat="47.31398" lon="-0.45486">
        <ele>66.4</ele>
        <time>2020-08-02T08:52:59Z</time>
      </trkpt>
      <trkpt lat="47.31396" lon="-0.45487">
        <ele>66.4</ele>
        <time>2020-08-02T08:53:00Z</time>
      </trkpt>
      <trkpt lat="47.31392" lon="-0.4549">
        <ele>66.6</ele>
        <time>2020-08-02T08:53:02Z</time>
      </trkpt>
      <trkpt lat="47.31386" lon="-0.45493">
        <ele>66.6</ele>
        <time>2020-08-02T08:53:03Z</time>
      </trkpt>
      <trkpt lat="47.31383" lon="-0.45493">
        <ele>66.8</ele>
        <time>2020-08-02T08:53:04Z</time>
      </trkpt>
      <trkpt lat="47.31382" lon="-0.45492">
        <ele>66.8</ele>
        <time>2020-08-02T08:53:05Z</time>
      </trkpt>
      <trkpt lat="47.31379" lon="-0.45492">
        <ele>66.8</ele>
        <time>2020-08-02T08:53:06Z</time>
      </trkpt>
      <trkpt lat="47.31376" lon="-0.45492">
        <ele>66.8</ele>
        <time>2020-08-02T08:53:07Z</time>
      </trkpt>
      <trkpt lat="47.31373" lon="-0.45496">
        <ele>67</ele>
        <time>2020-08-02T08:53:08Z</time>
      </trkpt>
      <trkpt lat="47.3137" lon="-0.45497">
        <ele>67</ele>
        <time>2020-08-02T08:53:09Z</time>
      </trkpt>
      <trkpt lat="47.31367" lon="-0.45498">
        <ele>67</ele>
        <time>2020-08-02T08:53:10Z</time>
      </trkpt>
      <trkpt lat="47.31361" lon="-0.455">
        <ele>67.2</ele>
        <time>2020-08-02T08:53:12Z</time>
      </trkpt>
      <trkpt lat="47.3135" lon="-0.45503">
        <ele>67.2</ele>
        <time>2020-08-02T08:53:16Z</time>
      </trkpt>
      <trkpt lat="47.31341" lon="-0.45505">
        <ele>67.2</ele>
        <time>2020-08-02T08:53:19Z</time>
      </trkpt>
      <trkpt lat="47.31338" lon="-0.45505">
        <ele>67.2</ele>
        <time>2020-08-02T08:53:20Z</time>
      </trkpt>
      <trkpt lat="47.31319" lon="-0.4551">
        <ele>67.4</ele>
        <time>2020-08-02T08:53:26Z</time>
      </trkpt>
      <trkpt lat="47.31314" lon="-0.45512">
        <ele>67.6</ele>
        <time>2020-08-02T08:53:28Z</time>
      </trkpt>
      <trkpt lat="47.31312" lon="-0.45514">
        <ele>67.6</ele>
        <time>2020-08-02T08:53:29Z</time>
      </trkpt>
      <trkpt lat="47.31309" lon="-0.45515">
        <ele>67.6</ele>
        <time>2020-08-02T08:53:30Z</time>
      </trkpt>
      <trkpt lat="47.31305" lon="-0.45517">
        <ele>67.8</ele>
        <time>2020-08-02T08:53:31Z</time>
      </trkpt>
      <trkpt lat="47.31302" lon="-0.45518">
        <ele>67.8</ele>
        <time>2020-08-02T08:53:32Z</time>
      </trkpt>
      <trkpt lat="47.31298" lon="-0.45518">
        <ele>67.8</ele>
        <time>2020-08-02T08:53:33Z</time>
      </trkpt>
      <trkpt lat="47.31294" lon="-0.45519">
        <ele>68</ele>
        <time>2020-08-02T08:53:34Z</time>
      </trkpt>
      <trkpt lat="47.31291" lon="-0.45519">
        <ele>68</ele>
        <time>2020-08-02T08:53:35Z</time>
      </trkpt>
      <trkpt lat="47.31289" lon="-0.4552">
        <ele>68</ele>
        <time>2020-08-02T08:53:36Z</time>
      </trkpt>
      <trkpt lat="47.31286" lon="-0.4552">
        <ele>68</ele>
        <time>2020-08-02T08:53:37Z</time>
      </trkpt>
      <trkpt lat="47.31283" lon="-0.45521">
        <ele>68</ele>
        <time>2020-08-02T08:53:38Z</time>
      </trkpt>
      <trkpt lat="47.31271" lon="-0.45527">
        <ele>68.2</ele>
        <time>2020-08-02T08:53:41Z</time>
      </trkpt>
      <trkpt lat="47.31269" lon="-0.45526">
        <ele>68.2</ele>
        <time>2020-08-02T08:53:42Z</time>
      </trkpt>
      <trkpt lat="47.31263" lon="-0.45527">
        <ele>68.4</ele>
        <time>2020-08-02T08:53:44Z</time>
      </trkpt>
      <trkpt lat="47.31256" lon="-0.45529">
        <ele>68.4</ele>
        <time>2020-08-02T08:53:46Z</time>
      </trkpt>
      <trkpt lat="47.31254" lon="-0.45528">
        <ele>68.4</ele>
        <time>2020-08-02T08:53:47Z</time>
      </trkpt>
      <trkpt lat="47.31252" lon="-0.45527">
        <ele>68.4</ele>
        <time>2020-08-02T08:53:48Z</time>
      </trkpt>
      <trkpt lat="47.31247" lon="-0.45527">
        <ele>68.6</ele>
        <time>2020-08-02T08:53:50Z</time>
      </trkpt>
      <trkpt lat="47.31247" lon="-0.45527">
        <ele>68.6</ele>
        <time>2020-08-02T08:53:51Z</time>
      </trkpt>
      <trkpt lat="47.31245" lon="-0.45527">
        <ele>68.6</ele>
        <time>2020-08-02T08:53:52Z</time>
      </trkpt>
      <trkpt lat="47.31243" lon="-0.45528">
        <ele>68.6</ele>
        <time>2020-08-02T08:53:53Z</time>
      </trkpt>
      <trkpt lat="47.31242" lon="-0.45529">
        <ele>68.6</ele>
        <time>2020-08-02T08:53:54Z</time>
      </trkpt>
      <trkpt lat="47.31241" lon="-0.4553">
        <ele>68.8</ele>
        <time>2020-08-02T08:53:55Z</time>
      </trkpt>
      <trkpt lat="47.3124" lon="-0.45531">
        <ele>68.8</ele>
        <time>2020-08-02T08:53:56Z</time>
      </trkpt>
      <trkpt lat="47.3124" lon="-0.45531">
        <ele>68.8</ele>
        <time>2020-08-02T08:53:57Z</time>
      </trkpt>
      <trkpt lat="47.3124" lon="-0.45531">
        <ele>69.2</ele>
        <time>2020-08-02T08:54:02Z</time>
      </trkpt>
      <trkpt lat="47.3124" lon="-0.45531">
        <ele>69</ele>
        <time>2020-08-02T08:54:22Z</time>
      </trkpt>
      <trkpt lat="47.31237" lon="-0.45531">
        <ele>68.4</ele>
        <time>2020-08-02T08:56:58Z</time>
      </trkpt>
      <trkpt lat="47.31236" lon="-0.45531">
        <ele>68.4</ele>
        <time>2020-08-02T08:56:59Z</time>
      </trkpt>
      <trkpt lat="47.31235" lon="-0.45532">
        <ele>68.4</ele>
        <time>2020-08-02T08:57:00Z</time>
      </trkpt>
      <trkpt lat="47.31231" lon="-0.45533">
        <ele>68.4</ele>
        <time>2020-08-02T08:57:02Z</time>
      </trkpt>
      <trkpt lat="47.3123" lon="-0.45534">
        <ele>68.4</ele>
        <time>2020-08-02T08:57:03Z</time>
      </trkpt>
      <trkpt lat="47.31228" lon="-0.45534">
        <ele>68.6</ele>
        <time>2020-08-02T08:57:04Z</time>
      </trkpt>
      <trkpt lat="47.31225" lon="-0.45535">
        <ele>68.6</ele>
        <time>2020-08-02T08:57:06Z</time>
      </trkpt>
      <trkpt lat="47.31223" lon="-0.45535">
        <ele>68.6</ele>
        <time>2020-08-02T08:57:07Z</time>
      </trkpt>
      <trkpt lat="47.31221" lon="-0.45536">
        <ele>68.6</ele>
        <time>2020-08-02T08:57:08Z</time>
      </trkpt>
      <trkpt lat="47.31219" lon="-0.45537">
        <ele>68.6</ele>
        <time>2020-08-02T08:57:09Z</time>
      </trkpt>
      <trkpt lat="47.31216" lon="-0.45537">
        <ele>68.6</ele>
        <time>2020-08-02T08:57:10Z</time>
      </trkpt>
      <trkpt lat="47.31207" lon="-0.45539">
        <ele>68.8</ele>
        <time>2020-08-02T08:57:13Z</time>
      </trkpt>
      <trkpt lat="47.3119" lon="-0.45547">
        <ele>69</ele>
        <time>2020-08-02T08:57:18Z</time>
      </trkpt>
      <trkpt lat="47.31187" lon="-0.45548">
        <ele>69</ele>
        <time>2020-08-02T08:57:19Z</time>
      </trkpt>
      <trkpt lat="47.31184" lon="-0.4555">
        <ele>69</ele>
        <time>2020-08-02T08:57:20Z</time>
      </trkpt>
      <trkpt lat="47.31176" lon="-0.45552">
        <ele>69.2</ele>
        <time>2020-08-02T08:57:22Z</time>
      </trkpt>
      <trkpt lat="47.31173" lon="-0.45553">
        <ele>69.2</ele>
        <time>2020-08-02T08:57:23Z</time>
      </trkpt>
      <trkpt lat="47.31162" lon="-0.45559">
        <ele>69.4</ele>
        <time>2020-08-02T08:57:26Z</time>
      </trkpt>
      <trkpt lat="47.31157" lon="-0.45562">
        <ele>69.4</ele>
        <time>2020-08-02T08:57:27Z</time>
      </trkpt>
      <trkpt lat="47.31153" lon="-0.45563">
        <ele>69.4</ele>
        <time>2020-08-02T08:57:28Z</time>
      </trkpt>
      <trkpt lat="47.31149" lon="-0.45564">
        <ele>69.6</ele>
        <time>2020-08-02T08:57:29Z</time>
      </trkpt>
      <trkpt lat="47.31145" lon="-0.45565">
        <ele>69.6</ele>
        <time>2020-08-02T08:57:30Z</time>
      </trkpt>
      <trkpt lat="47.31141" lon="-0.45566">
        <ele>69.6</ele>
        <time>2020-08-02T08:57:31Z</time>
      </trkpt>
      <trkpt lat="47.31121" lon="-0.45573">
        <ele>70</ele>
        <time>2020-08-02T08:57:35Z</time>
      </trkpt>
      <trkpt lat="47.31117" lon="-0.45574">
        <ele>70</ele>
        <time>2020-08-02T08:57:36Z</time>
      </trkpt>
      <trkpt lat="47.31084" lon="-0.45582">
        <ele>70.2</ele>
        <time>2020-08-02T08:57:44Z</time>
      </trkpt>
      <trkpt lat="47.31081" lon="-0.45582">
        <ele>70.2</ele>
        <time>2020-08-02T08:57:45Z</time>
      </trkpt>
      <trkpt lat="47.31066" lon="-0.45584">
        <ele>70.2</ele>
        <time>2020-08-02T08:57:49Z</time>
      </trkpt>
      <trkpt lat="47.31058" lon="-0.45585">
        <ele>70</ele>
        <time>2020-08-02T08:57:51Z</time>
      </trkpt>
      <trkpt lat="47.31055" lon="-0.45586">
        <ele>70</ele>
        <time>2020-08-02T08:57:52Z</time>
      </trkpt>
      <trkpt lat="47.31051" lon="-0.45587">
        <ele>69.8</ele>
        <time>2020-08-02T08:57:53Z</time>
      </trkpt>
      <trkpt lat="47.31034" lon="-0.4559">
        <ele>69.4</ele>
        <time>2020-08-02T08:57:58Z</time>
      </trkpt>
      <trkpt lat="47.3103" lon="-0.45591">
        <ele>69.2</ele>
        <time>2020-08-02T08:57:59Z</time>
      </trkpt>
      <trkpt lat="47.31025" lon="-0.45592">
        <ele>69.2</ele>
        <time>2020-08-02T08:58:00Z</time>
      </trkpt>
      <trkpt lat="47.31022" lon="-0.45592">
        <ele>69.2</ele>
        <time>2020-08-02T08:58:01Z</time>
      </trkpt>
      <trkpt lat="47.31017" lon="-0.45592">
        <ele>69.2</ele>
        <time>2020-08-02T08:58:02Z</time>
      </trkpt>
      <trkpt lat="47.31002" lon="-0.45594">
        <ele>69</ele>
        <time>2020-08-02T08:58:05Z</time>
      </trkpt>
      <trkpt lat="47.30996" lon="-0.45595">
        <ele>68.8</ele>
        <time>2020-08-02T08:58:06Z</time>
      </trkpt>
      <trkpt lat="47.3097" lon="-0.45596">
        <ele>68.2</ele>
        <time>2020-08-02T08:58:11Z</time>
      </trkpt>
      <trkpt lat="47.30964" lon="-0.45597">
        <ele>68.2</ele>
        <time>2020-08-02T08:58:12Z</time>
      </trkpt>
      <trkpt lat="47.30958" lon="-0.45598">
        <ele>68.2</ele>
        <time>2020-08-02T08:58:13Z</time>
      </trkpt>
      <trkpt lat="47.30949" lon="-0.45597">
        <ele>68</ele>
        <time>2020-08-02T08:58:15Z</time>
      </trkpt>
      <trkpt lat="47.30933" lon="-0.45599">
        <ele>68.2</ele>
        <time>2020-08-02T08:58:18Z</time>
      </trkpt>
      <trkpt lat="47.30928" lon="-0.45601">
        <ele>68.2</ele>
        <time>2020-08-02T08:58:19Z</time>
      </trkpt>
      <trkpt lat="47.30923" lon="-0.45602">
        <ele>68.2</ele>
        <time>2020-08-02T08:58:20Z</time>
      </trkpt>
      <trkpt lat="47.30919" lon="-0.45602">
        <ele>68.2</ele>
        <time>2020-08-02T08:58:21Z</time>
      </trkpt>
      <trkpt lat="47.30913" lon="-0.45602">
        <ele>68.2</ele>
        <time>2020-08-02T08:58:22Z</time>
      </trkpt>
      <trkpt lat="47.30909" lon="-0.45602">
        <ele>68.2</ele>
        <time>2020-08-02T08:58:23Z</time>
      </trkpt>
      <trkpt lat="47.30903" lon="-0.45602">
        <ele>68.2</ele>
        <time>2020-08-02T08:58:24Z</time>
      </trkpt>
      <trkpt lat="47.30899" lon="-0.456">
        <ele>68.2</ele>
        <time>2020-08-02T08:58:25Z</time>
      </trkpt>
      <trkpt lat="47.30893" lon="-0.45601">
        <ele>68.2</ele>
        <time>2020-08-02T08:58:26Z</time>
      </trkpt>
      <trkpt lat="47.30889" lon="-0.45602">
        <ele>68.2</ele>
        <time>2020-08-02T08:58:27Z</time>
      </trkpt>
      <trkpt lat="47.30872" lon="-0.45605">
        <ele>68.2</ele>
        <time>2020-08-02T08:58:30Z</time>
      </trkpt>
      <trkpt lat="47.30855" lon="-0.45607">
        <ele>68.2</ele>
        <time>2020-08-02T08:58:33Z</time>
      </trkpt>
      <trkpt lat="47.30852" lon="-0.45607">
        <ele>68.2</ele>
        <time>2020-08-02T08:58:34Z</time>
      </trkpt>
      <trkpt lat="47.30846" lon="-0.45606">
        <ele>68.2</ele>
        <time>2020-08-02T08:58:35Z</time>
      </trkpt>
      <trkpt lat="47.30841" lon="-0.45606">
        <ele>68</ele>
        <time>2020-08-02T08:58:36Z</time>
      </trkpt>
      <trkpt lat="47.30837" lon="-0.45606">
        <ele>68</ele>
        <time>2020-08-02T08:58:37Z</time>
      </trkpt>
      <trkpt lat="47.30831" lon="-0.45606">
        <ele>68</ele>
        <time>2020-08-02T08:58:38Z</time>
      </trkpt>
      <trkpt lat="47.30827" lon="-0.45606">
        <ele>68</ele>
        <time>2020-08-02T08:58:39Z</time>
      </trkpt>
      <trkpt lat="47.30821" lon="-0.45607">
        <ele>68</ele>
        <time>2020-08-02T08:58:40Z</time>
      </trkpt>
      <trkpt lat="47.30815" lon="-0.45608">
        <ele>68</ele>
        <time>2020-08-02T08:58:41Z</time>
      </trkpt>
      <trkpt lat="47.30809" lon="-0.45609">
        <ele>67.8</ele>
        <time>2020-08-02T08:58:42Z</time>
      </trkpt>
      <trkpt lat="47.30805" lon="-0.4561">
        <ele>67.8</ele>
        <time>2020-08-02T08:58:43Z</time>
      </trkpt>
      <trkpt lat="47.308" lon="-0.45611">
        <ele>67.8</ele>
        <time>2020-08-02T08:58:44Z</time>
      </trkpt>
      <trkpt lat="47.30796" lon="-0.45613">
        <ele>67.8</ele>
        <time>2020-08-02T08:58:45Z</time>
      </trkpt>
      <trkpt lat="47.30793" lon="-0.45615">
        <ele>67.6</ele>
        <time>2020-08-02T08:58:46Z</time>
      </trkpt>
      <trkpt lat="47.30791" lon="-0.45617">
        <ele>67.2</ele>
        <time>2020-08-02T08:58:47Z</time>
      </trkpt>
      <trkpt lat="47.30789" lon="-0.4562">
        <ele>67.2</ele>
        <time>2020-08-02T08:58:48Z</time>
      </trkpt>
      <trkpt lat="47.30785" lon="-0.45622">
        <ele>67</ele>
        <time>2020-08-02T08:58:49Z</time>
      </trkpt>
      <trkpt lat="47.30782" lon="-0.45623">
        <ele>67</ele>
        <time>2020-08-02T08:58:50Z</time>
      </trkpt>
      <trkpt lat="47.30777" lon="-0.45623">
        <ele>66.8</ele>
        <time>2020-08-02T08:58:51Z</time>
      </trkpt>
      <trkpt lat="47.30772" lon="-0.45623">
        <ele>66.8</ele>
        <time>2020-08-02T08:58:52Z</time>
      </trkpt>
      <trkpt lat="47.30767" lon="-0.45622">
        <ele>66.8</ele>
        <time>2020-08-02T08:58:53Z</time>
      </trkpt>
      <trkpt lat="47.30736" lon="-0.4562">
        <ele>66.6</ele>
        <time>2020-08-02T08:58:59Z</time>
      </trkpt>
      <trkpt lat="47.3073" lon="-0.45619">
        <ele>66.6</ele>
        <time>2020-08-02T08:59:00Z</time>
      </trkpt>
      <trkpt lat="47.30725" lon="-0.45618">
        <ele>66.8</ele>
        <time>2020-08-02T08:59:01Z</time>
      </trkpt>
      <trkpt lat="47.3072" lon="-0.45617">
        <ele>66.6</ele>
        <time>2020-08-02T08:59:02Z</time>
      </trkpt>
      <trkpt lat="47.30716" lon="-0.45616">
        <ele>66.8</ele>
        <time>2020-08-02T08:59:03Z</time>
      </trkpt>
      <trkpt lat="47.30711" lon="-0.45614">
        <ele>66.8</ele>
        <time>2020-08-02T08:59:04Z</time>
      </trkpt>
      <trkpt lat="47.30707" lon="-0.45613">
        <ele>67</ele>
        <time>2020-08-02T08:59:05Z</time>
      </trkpt>
      <trkpt lat="47.30703" lon="-0.4561">
        <ele>67.2</ele>
        <time>2020-08-02T08:59:06Z</time>
      </trkpt>
      <trkpt lat="47.30698" lon="-0.45608">
        <ele>67.2</ele>
        <time>2020-08-02T08:59:07Z</time>
      </trkpt>
      <trkpt lat="47.30694" lon="-0.45606">
        <ele>67.4</ele>
        <time>2020-08-02T08:59:08Z</time>
      </trkpt>
      <trkpt lat="47.30689" lon="-0.45604">
        <ele>67.6</ele>
        <time>2020-08-02T08:59:09Z</time>
      </trkpt>
      <trkpt lat="47.30685" lon="-0.45602">
        <ele>67.8</ele>
        <time>2020-08-02T08:59:10Z</time>
      </trkpt>
      <trkpt lat="47.30679" lon="-0.45599">
        <ele>67.8</ele>
        <time>2020-08-02T08:59:11Z</time>
      </trkpt>
      <trkpt lat="47.30675" lon="-0.45597">
        <ele>68</ele>
        <time>2020-08-02T08:59:12Z</time>
      </trkpt>
      <trkpt lat="47.3067" lon="-0.45595">
        <ele>68</ele>
        <time>2020-08-02T08:59:13Z</time>
      </trkpt>
      <trkpt lat="47.30665" lon="-0.45593">
        <ele>68</ele>
        <time>2020-08-02T08:59:14Z</time>
      </trkpt>
      <trkpt lat="47.3066" lon="-0.45591">
        <ele>68.2</ele>
        <time>2020-08-02T08:59:15Z</time>
      </trkpt>
      <trkpt lat="47.30655" lon="-0.45589">
        <ele>68.4</ele>
        <time>2020-08-02T08:59:16Z</time>
      </trkpt>
      <trkpt lat="47.30651" lon="-0.45587">
        <ele>68.4</ele>
        <time>2020-08-02T08:59:17Z</time>
      </trkpt>
      <trkpt lat="47.30646" lon="-0.45585">
        <ele>68.6</ele>
        <time>2020-08-02T08:59:18Z</time>
      </trkpt>
      <trkpt lat="47.3064" lon="-0.45584">
        <ele>68.6</ele>
        <time>2020-08-02T08:59:19Z</time>
      </trkpt>
      <trkpt lat="47.30635" lon="-0.45582">
        <ele>68.8</ele>
        <time>2020-08-02T08:59:20Z</time>
      </trkpt>
      <trkpt lat="47.30631" lon="-0.45581">
        <ele>68.8</ele>
        <time>2020-08-02T08:59:21Z</time>
      </trkpt>
      <trkpt lat="47.30615" lon="-0.45575">
        <ele>68.8</ele>
        <time>2020-08-02T08:59:24Z</time>
      </trkpt>
      <trkpt lat="47.30594" lon="-0.4557">
        <ele>69</ele>
        <time>2020-08-02T08:59:28Z</time>
      </trkpt>
      <trkpt lat="47.30588" lon="-0.45571">
        <ele>69</ele>
        <time>2020-08-02T08:59:29Z</time>
      </trkpt>
      <trkpt lat="47.30584" lon="-0.45573">
        <ele>69</ele>
        <time>2020-08-02T08:59:30Z</time>
      </trkpt>
      <trkpt lat="47.30579" lon="-0.45575">
        <ele>69</ele>
        <time>2020-08-02T08:59:31Z</time>
      </trkpt>
      <trkpt lat="47.30558" lon="-0.45583">
        <ele>69</ele>
        <time>2020-08-02T08:59:35Z</time>
      </trkpt>
      <trkpt lat="47.30553" lon="-0.45585">
        <ele>69</ele>
        <time>2020-08-02T08:59:36Z</time>
      </trkpt>
      <trkpt lat="47.30532" lon="-0.45591">
        <ele>69.2</ele>
        <time>2020-08-02T08:59:40Z</time>
      </trkpt>
      <trkpt lat="47.30527" lon="-0.45593">
        <ele>69.4</ele>
        <time>2020-08-02T08:59:41Z</time>
      </trkpt>
      <trkpt lat="47.30522" lon="-0.45595">
        <ele>69.4</ele>
        <time>2020-08-02T08:59:42Z</time>
      </trkpt>
      <trkpt lat="47.30517" lon="-0.45597">
        <ele>69.4</ele>
        <time>2020-08-02T08:59:43Z</time>
      </trkpt>
      <trkpt lat="47.30512" lon="-0.45599">
        <ele>69.4</ele>
        <time>2020-08-02T08:59:44Z</time>
      </trkpt>
      <trkpt lat="47.30508" lon="-0.456">
        <ele>69.4</ele>
        <time>2020-08-02T08:59:45Z</time>
      </trkpt>
      <trkpt lat="47.30503" lon="-0.45602">
        <ele>69.4</ele>
        <time>2020-08-02T08:59:46Z</time>
      </trkpt>
      <trkpt lat="47.30497" lon="-0.45604">
        <ele>69.4</ele>
        <time>2020-08-02T08:59:47Z</time>
      </trkpt>
      <trkpt lat="47.30492" lon="-0.45606">
        <ele>69.4</ele>
        <time>2020-08-02T08:59:48Z</time>
      </trkpt>
      <trkpt lat="47.30489" lon="-0.45607">
        <ele>69.4</ele>
        <time>2020-08-02T08:59:49Z</time>
      </trkpt>
      <trkpt lat="47.30484" lon="-0.45609">
        <ele>69.4</ele>
        <time>2020-08-02T08:59:50Z</time>
      </trkpt>
      <trkpt lat="47.30478" lon="-0.45611">
        <ele>69.6</ele>
        <time>2020-08-02T08:59:51Z</time>
      </trkpt>
      <trkpt lat="47.30474" lon="-0.45612">
        <ele>69.6</ele>
        <time>2020-08-02T08:59:52Z</time>
      </trkpt>
      <trkpt lat="47.30469" lon="-0.45614">
        <ele>69.6</ele>
        <time>2020-08-02T08:59:53Z</time>
      </trkpt>
      <trkpt lat="47.30465" lon="-0.45615">
        <ele>69.6</ele>
        <time>2020-08-02T08:59:54Z</time>
      </trkpt>
      <trkpt lat="47.3046" lon="-0.45617">
        <ele>69.8</ele>
        <time>2020-08-02T08:59:55Z</time>
      </trkpt>
      <trkpt lat="47.30455" lon="-0.45618">
        <ele>70</ele>
        <time>2020-08-02T08:59:56Z</time>
      </trkpt>
      <trkpt lat="47.30451" lon="-0.4562">
        <ele>70</ele>
        <time>2020-08-02T08:59:57Z</time>
      </trkpt>
      <trkpt lat="47.30445" lon="-0.45622">
        <ele>70.2</ele>
        <time>2020-08-02T08:59:58Z</time>
      </trkpt>
      <trkpt lat="47.30442" lon="-0.45623">
        <ele>70.4</ele>
        <time>2020-08-02T08:59:59Z</time>
      </trkpt>
      <trkpt lat="47.30437" lon="-0.45624">
        <ele>70.4</ele>
        <time>2020-08-02T09:00:00Z</time>
      </trkpt>
      <trkpt lat="47.30433" lon="-0.45625">
        <ele>70.6</ele>
        <time>2020-08-02T09:00:01Z</time>
      </trkpt>
      <trkpt lat="47.30428" lon="-0.45627">
        <ele>70.6</ele>
        <time>2020-08-02T09:00:02Z</time>
      </trkpt>
      <trkpt lat="47.30424" lon="-0.45628">
        <ele>70.6</ele>
        <time>2020-08-02T09:00:03Z</time>
      </trkpt>
      <trkpt lat="47.30419" lon="-0.45629">
        <ele>70.6</ele>
        <time>2020-08-02T09:00:04Z</time>
      </trkpt>
      <trkpt lat="47.30415" lon="-0.45631">
        <ele>70.8</ele>
        <time>2020-08-02T09:00:05Z</time>
      </trkpt>
      <trkpt lat="47.3041" lon="-0.45632">
        <ele>70.8</ele>
        <time>2020-08-02T09:00:06Z</time>
      </trkpt>
      <trkpt lat="47.30407" lon="-0.45634">
        <ele>71</ele>
        <time>2020-08-02T09:00:07Z</time>
      </trkpt>
      <trkpt lat="47.30403" lon="-0.45635">
        <ele>71</ele>
        <time>2020-08-02T09:00:08Z</time>
      </trkpt>
      <trkpt lat="47.30399" lon="-0.45636">
        <ele>71.2</ele>
        <time>2020-08-02T09:00:09Z</time>
      </trkpt>
      <trkpt lat="47.30395" lon="-0.45637">
        <ele>71.4</ele>
        <time>2020-08-02T09:00:10Z</time>
      </trkpt>
      <trkpt lat="47.30391" lon="-0.45638">
        <ele>71.4</ele>
        <time>2020-08-02T09:00:11Z</time>
      </trkpt>
      <trkpt lat="47.30387" lon="-0.45639">
        <ele>71.6</ele>
        <time>2020-08-02T09:00:12Z</time>
      </trkpt>
      <trkpt lat="47.30383" lon="-0.4564">
        <ele>71.6</ele>
        <time>2020-08-02T09:00:13Z</time>
      </trkpt>
      <trkpt lat="47.30379" lon="-0.45641">
        <ele>71.6</ele>
        <time>2020-08-02T09:00:14Z</time>
      </trkpt>
      <trkpt lat="47.30374" lon="-0.45642">
        <ele>71.6</ele>
        <time>2020-08-02T09:00:15Z</time>
      </trkpt>
      <trkpt lat="47.30371" lon="-0.45643">
        <ele>71.6</ele>
        <time>2020-08-02T09:00:16Z</time>
      </trkpt>
      <trkpt lat="47.30366" lon="-0.45644">
        <ele>71.4</ele>
        <time>2020-08-02T09:00:17Z</time>
      </trkpt>
      <trkpt lat="47.30362" lon="-0.45645">
        <ele>71.4</ele>
        <time>2020-08-02T09:00:18Z</time>
      </trkpt>
      <trkpt lat="47.30357" lon="-0.45648">
        <ele>71.4</ele>
        <time>2020-08-02T09:00:19Z</time>
      </trkpt>
      <trkpt lat="47.30333" lon="-0.45659">
        <ele>71.4</ele>
        <time>2020-08-02T09:00:24Z</time>
      </trkpt>
      <trkpt lat="47.30313" lon="-0.45664">
        <ele>72</ele>
        <time>2020-08-02T09:00:29Z</time>
      </trkpt>
      <trkpt lat="47.30308" lon="-0.45665">
        <ele>72.2</ele>
        <time>2020-08-02T09:00:30Z</time>
      </trkpt>
      <trkpt lat="47.30305" lon="-0.45666">
        <ele>72.2</ele>
        <time>2020-08-02T09:00:31Z</time>
      </trkpt>
      <trkpt lat="47.30301" lon="-0.45666">
        <ele>72.4</ele>
        <time>2020-08-02T09:00:32Z</time>
      </trkpt>
      <trkpt lat="47.30296" lon="-0.45667">
        <ele>72.4</ele>
        <time>2020-08-02T09:00:33Z</time>
      </trkpt>
      <trkpt lat="47.30292" lon="-0.45668">
        <ele>72.4</ele>
        <time>2020-08-02T09:00:34Z</time>
      </trkpt>
      <trkpt lat="47.30289" lon="-0.45668">
        <ele>72.6</ele>
        <time>2020-08-02T09:00:35Z</time>
      </trkpt>
      <trkpt lat="47.30284" lon="-0.45669">
        <ele>72.6</ele>
        <time>2020-08-02T09:00:36Z</time>
      </trkpt>
      <trkpt lat="47.3028" lon="-0.45669">
        <ele>72.6</ele>
        <time>2020-08-02T09:00:37Z</time>
      </trkpt>
      <trkpt lat="47.30276" lon="-0.4567">
        <ele>72.8</ele>
        <time>2020-08-02T09:00:38Z</time>
      </trkpt>
      <trkpt lat="47.30253" lon="-0.45672">
        <ele>73</ele>
        <time>2020-08-02T09:00:44Z</time>
      </trkpt>
      <trkpt lat="47.3025" lon="-0.45673">
        <ele>73</ele>
        <time>2020-08-02T09:00:45Z</time>
      </trkpt>
      <trkpt lat="47.30247" lon="-0.45673">
        <ele>73.2</ele>
        <time>2020-08-02T09:00:46Z</time>
      </trkpt>
      <trkpt lat="47.30237" lon="-0.45674">
        <ele>73.2</ele>
        <time>2020-08-02T09:00:49Z</time>
      </trkpt>
      <trkpt lat="47.30234" lon="-0.45674">
        <ele>73.4</ele>
        <time>2020-08-02T09:00:50Z</time>
      </trkpt>
      <trkpt lat="47.3023" lon="-0.45674">
        <ele>73.4</ele>
        <time>2020-08-02T09:00:51Z</time>
      </trkpt>
      <trkpt lat="47.30228" lon="-0.45674">
        <ele>74</ele>
        <time>2020-08-02T09:03:50Z</time>
      </trkpt>
      <trkpt lat="47.30231" lon="-0.45679">
        <ele>74</ele>
        <time>2020-08-02T09:03:51Z</time>
      </trkpt>
      <trkpt lat="47.30233" lon="-0.45685">
        <ele>74</ele>
        <time>2020-08-02T09:03:52Z</time>
      </trkpt>
      <trkpt lat="47.30233" lon="-0.45692">
        <ele>74</ele>
        <time>2020-08-02T09:03:53Z</time>
      </trkpt>
      <trkpt lat="47.30237" lon="-0.45747">
        <ele>73.2</ele>
        <time>2020-08-02T09:04:00Z</time>
      </trkpt>
      <trkpt lat="47.30238" lon="-0.45754">
        <ele>73.2</ele>
        <time>2020-08-02T09:04:01Z</time>
      </trkpt>
      <trkpt lat="47.30239" lon="-0.45777">
        <ele>72.4</ele>
        <time>2020-08-02T09:04:04Z</time>
      </trkpt>
      <trkpt lat="47.30241" lon="-0.45794">
        <ele>72</ele>
        <time>2020-08-02T09:04:06Z</time>
      </trkpt>
      <trkpt lat="47.30242" lon="-0.45807">
        <ele>71.8</ele>
        <time>2020-08-02T09:04:08Z</time>
      </trkpt>
      <trkpt lat="47.30243" lon="-0.45815">
        <ele>71.6</ele>
        <time>2020-08-02T09:04:09Z</time>
      </trkpt>
      <trkpt lat="47.30243" lon="-0.45823">
        <ele>71.4</ele>
        <time>2020-08-02T09:04:10Z</time>
      </trkpt>
      <trkpt lat="47.30243" lon="-0.45831">
        <ele>71.2</ele>
        <time>2020-08-02T09:04:11Z</time>
      </trkpt>
      <trkpt lat="47.30244" lon="-0.45839">
        <ele>71</ele>
        <time>2020-08-02T09:04:12Z</time>
      </trkpt>
      <trkpt lat="47.30245" lon="-0.45847">
        <ele>71</ele>
        <time>2020-08-02T09:04:13Z</time>
      </trkpt>
      <trkpt lat="47.30249" lon="-0.45909">
        <ele>70.2</ele>
        <time>2020-08-02T09:04:20Z</time>
      </trkpt>
      <trkpt lat="47.30249" lon="-0.45916">
        <ele>69.8</ele>
        <time>2020-08-02T09:04:21Z</time>
      </trkpt>
      <trkpt lat="47.3025" lon="-0.45933">
        <ele>69.4</ele>
        <time>2020-08-02T09:04:23Z</time>
      </trkpt>
      <trkpt lat="47.30251" lon="-0.45949">
        <ele>69</ele>
        <time>2020-08-02T09:04:25Z</time>
      </trkpt>
      <trkpt lat="47.3025" lon="-0.45958">
        <ele>69</ele>
        <time>2020-08-02T09:04:26Z</time>
      </trkpt>
      <trkpt lat="47.30249" lon="-0.45966">
        <ele>68.8</ele>
        <time>2020-08-02T09:04:27Z</time>
      </trkpt>
      <trkpt lat="47.30248" lon="-0.45975">
        <ele>68.8</ele>
        <time>2020-08-02T09:04:28Z</time>
      </trkpt>
      <trkpt lat="47.30246" lon="-0.45983">
        <ele>68.6</ele>
        <time>2020-08-02T09:04:29Z</time>
      </trkpt>
      <trkpt lat="47.3024" lon="-0.46">
        <ele>68.4</ele>
        <time>2020-08-02T09:04:31Z</time>
      </trkpt>
      <trkpt lat="47.30233" lon="-0.46016">
        <ele>68</ele>
        <time>2020-08-02T09:04:33Z</time>
      </trkpt>
      <trkpt lat="47.30207" lon="-0.46067">
        <ele>67</ele>
        <time>2020-08-02T09:04:39Z</time>
      </trkpt>
      <trkpt lat="47.30187" lon="-0.46109">
        <ele>65.6</ele>
        <time>2020-08-02T09:04:43Z</time>
      </trkpt>
      <trkpt lat="47.30183" lon="-0.4612">
        <ele>65.4</ele>
        <time>2020-08-02T09:04:44Z</time>
      </trkpt>
      <trkpt lat="47.3018" lon="-0.46129">
        <ele>65.2</ele>
        <time>2020-08-02T09:04:45Z</time>
      </trkpt>
      <trkpt lat="47.3017" lon="-0.46163">
        <ele>64.6</ele>
        <time>2020-08-02T09:04:48Z</time>
      </trkpt>
      <trkpt lat="47.30163" lon="-0.46185">
        <ele>64.6</ele>
        <time>2020-08-02T09:04:50Z</time>
      </trkpt>
      <trkpt lat="47.3016" lon="-0.46195">
        <ele>64.6</ele>
        <time>2020-08-02T09:04:51Z</time>
      </trkpt>
      <trkpt lat="47.30157" lon="-0.46205">
        <ele>64.6</ele>
        <time>2020-08-02T09:04:52Z</time>
      </trkpt>
      <trkpt lat="47.30154" lon="-0.46215">
        <ele>64.6</ele>
        <time>2020-08-02T09:04:53Z</time>
      </trkpt>
      <trkpt lat="47.30152" lon="-0.46224">
        <ele>64.6</ele>
        <time>2020-08-02T09:04:54Z</time>
      </trkpt>
      <trkpt lat="47.30149" lon="-0.46232">
        <ele>64.8</ele>
        <time>2020-08-02T09:04:55Z</time>
      </trkpt>
      <trkpt lat="47.30146" lon="-0.4624">
        <ele>64.8</ele>
        <time>2020-08-02T09:04:56Z</time>
      </trkpt>
      <trkpt lat="47.30144" lon="-0.46246">
        <ele>64.8</ele>
        <time>2020-08-02T09:04:57Z</time>
      </trkpt>
      <trkpt lat="47.30142" lon="-0.46254">
        <ele>64.8</ele>
        <time>2020-08-02T09:04:58Z</time>
      </trkpt>
      <trkpt lat="47.3014" lon="-0.46262">
        <ele>64.8</ele>
        <time>2020-08-02T09:04:59Z</time>
      </trkpt>
      <trkpt lat="47.30138" lon="-0.46269">
        <ele>64.8</ele>
        <time>2020-08-02T09:05:00Z</time>
      </trkpt>
      <trkpt lat="47.30133" lon="-0.46284">
        <ele>65</ele>
        <time>2020-08-02T09:05:02Z</time>
      </trkpt>
      <trkpt lat="47.3013" lon="-0.46292">
        <ele>65</ele>
        <time>2020-08-02T09:05:03Z</time>
      </trkpt>
      <trkpt lat="47.30129" lon="-0.46298">
        <ele>65</ele>
        <time>2020-08-02T09:05:04Z</time>
      </trkpt>
      <trkpt lat="47.30126" lon="-0.46305">
        <ele>65</ele>
        <time>2020-08-02T09:05:05Z</time>
      </trkpt>
      <trkpt lat="47.30124" lon="-0.46312">
        <ele>65.2</ele>
        <time>2020-08-02T09:05:06Z</time>
      </trkpt>
      <trkpt lat="47.30123" lon="-0.46319">
        <ele>65.2</ele>
        <time>2020-08-02T09:05:07Z</time>
      </trkpt>
      <trkpt lat="47.30119" lon="-0.46339">
        <ele>65.4</ele>
        <time>2020-08-02T09:05:10Z</time>
      </trkpt>
      <trkpt lat="47.30118" lon="-0.46346">
        <ele>65.4</ele>
        <time>2020-08-02T09:05:11Z</time>
      </trkpt>
      <trkpt lat="47.30117" lon="-0.46354">
        <ele>65.4</ele>
        <time>2020-08-02T09:05:12Z</time>
      </trkpt>
      <trkpt lat="47.30116" lon="-0.46362">
        <ele>65.4</ele>
        <time>2020-08-02T09:05:13Z</time>
      </trkpt>
      <trkpt lat="47.30115" lon="-0.46369">
        <ele>65.6</ele>
        <time>2020-08-02T09:05:14Z</time>
      </trkpt>
      <trkpt lat="47.30115" lon="-0.46377">
        <ele>65.6</ele>
        <time>2020-08-02T09:05:15Z</time>
      </trkpt>
      <trkpt lat="47.30114" lon="-0.46384">
        <ele>65.6</ele>
        <time>2020-08-02T09:05:16Z</time>
      </trkpt>
      <trkpt lat="47.30113" lon="-0.46394">
        <ele>65.6</ele>
        <time>2020-08-02T09:05:17Z</time>
      </trkpt>
      <trkpt lat="47.30112" lon="-0.46408">
        <ele>65.6</ele>
        <time>2020-08-02T09:05:19Z</time>
      </trkpt>
      <trkpt lat="47.30111" lon="-0.46415">
        <ele>65.6</ele>
        <time>2020-08-02T09:05:20Z</time>
      </trkpt>
      <trkpt lat="47.3011" lon="-0.46422">
        <ele>65.8</ele>
        <time>2020-08-02T09:05:21Z</time>
      </trkpt>
      <trkpt lat="47.30108" lon="-0.46429">
        <ele>65.8</ele>
        <time>2020-08-02T09:05:22Z</time>
      </trkpt>
      <trkpt lat="47.30107" lon="-0.46436">
        <ele>65.8</ele>
        <time>2020-08-02T09:05:23Z</time>
      </trkpt>
      <trkpt lat="47.30105" lon="-0.46443">
        <ele>65.8</ele>
        <time>2020-08-02T09:05:24Z</time>
      </trkpt>
      <trkpt lat="47.30104" lon="-0.4645">
        <ele>66.2</ele>
        <time>2020-08-02T09:05:25Z</time>
      </trkpt>
      <trkpt lat="47.30103" lon="-0.46456">
        <ele>66</ele>
        <time>2020-08-02T09:05:26Z</time>
      </trkpt>
      <trkpt lat="47.30101" lon="-0.46464">
        <ele>66</ele>
        <time>2020-08-02T09:05:27Z</time>
      </trkpt>
      <trkpt lat="47.301" lon="-0.4647">
        <ele>66</ele>
        <time>2020-08-02T09:05:28Z</time>
      </trkpt>
      <trkpt lat="47.30099" lon="-0.46477">
        <ele>66</ele>
        <time>2020-08-02T09:05:29Z</time>
      </trkpt>
      <trkpt lat="47.30097" lon="-0.46484">
        <ele>66</ele>
        <time>2020-08-02T09:05:30Z</time>
      </trkpt>
      <trkpt lat="47.30096" lon="-0.46489">
        <ele>66.2</ele>
        <time>2020-08-02T09:05:31Z</time>
      </trkpt>
      <trkpt lat="47.30094" lon="-0.46496">
        <ele>66.2</ele>
        <time>2020-08-02T09:05:32Z</time>
      </trkpt>
      <trkpt lat="47.30092" lon="-0.46502">
        <ele>66.2</ele>
        <time>2020-08-02T09:05:33Z</time>
      </trkpt>
      <trkpt lat="47.30091" lon="-0.46509">
        <ele>66.2</ele>
        <time>2020-08-02T09:05:34Z</time>
      </trkpt>
      <trkpt lat="47.30089" lon="-0.46516">
        <ele>66.4</ele>
        <time>2020-08-02T09:05:35Z</time>
      </trkpt>
      <trkpt lat="47.30087" lon="-0.46523">
        <ele>66.4</ele>
        <time>2020-08-02T09:05:36Z</time>
      </trkpt>
      <trkpt lat="47.3008" lon="-0.46542">
        <ele>66.4</ele>
        <time>2020-08-02T09:05:39Z</time>
      </trkpt>
      <trkpt lat="47.30078" lon="-0.46547">
        <ele>66.4</ele>
        <time>2020-08-02T09:05:40Z</time>
      </trkpt>
      <trkpt lat="47.30076" lon="-0.46553">
        <ele>66.4</ele>
        <time>2020-08-02T09:05:41Z</time>
      </trkpt>
      <trkpt lat="47.30073" lon="-0.46559">
        <ele>66.6</ele>
        <time>2020-08-02T09:05:42Z</time>
      </trkpt>
      <trkpt lat="47.30063" lon="-0.46584">
        <ele>66.6</ele>
        <time>2020-08-02T09:05:46Z</time>
      </trkpt>
      <trkpt lat="47.30061" lon="-0.4659">
        <ele>66.6</ele>
        <time>2020-08-02T09:05:47Z</time>
      </trkpt>
      <trkpt lat="47.30059" lon="-0.46595">
        <ele>66.6</ele>
        <time>2020-08-02T09:05:48Z</time>
      </trkpt>
      <trkpt lat="47.30057" lon="-0.46601">
        <ele>66.6</ele>
        <time>2020-08-02T09:05:49Z</time>
      </trkpt>
      <trkpt lat="47.30054" lon="-0.46608">
        <ele>66.8</ele>
        <time>2020-08-02T09:05:50Z</time>
      </trkpt>
      <trkpt lat="47.30052" lon="-0.46612">
        <ele>66.8</ele>
        <time>2020-08-02T09:05:51Z</time>
      </trkpt>
      <trkpt lat="47.3005" lon="-0.46617">
        <ele>66.8</ele>
        <time>2020-08-02T09:05:52Z</time>
      </trkpt>
      <trkpt lat="47.30047" lon="-0.46624">
        <ele>67</ele>
        <time>2020-08-02T09:05:53Z</time>
      </trkpt>
      <trkpt lat="47.30046" lon="-0.46628">
        <ele>67</ele>
        <time>2020-08-02T09:05:54Z</time>
      </trkpt>
      <trkpt lat="47.30044" lon="-0.46633">
        <ele>67</ele>
        <time>2020-08-02T09:05:55Z</time>
      </trkpt>
      <trkpt lat="47.30041" lon="-0.46638">
        <ele>67</ele>
        <time>2020-08-02T09:05:56Z</time>
      </trkpt>
      <trkpt lat="47.30039" lon="-0.46643">
        <ele>67</ele>
        <time>2020-08-02T09:05:57Z</time>
      </trkpt>
      <trkpt lat="47.30037" lon="-0.46648">
        <ele>67</ele>
        <time>2020-08-02T09:05:58Z</time>
      </trkpt>
      <trkpt lat="47.30035" lon="-0.46651">
        <ele>67.2</ele>
        <time>2020-08-02T09:05:59Z</time>
      </trkpt>
      <trkpt lat="47.30033" lon="-0.46655">
        <ele>67.2</ele>
        <time>2020-08-02T09:06:00Z</time>
      </trkpt>
      <trkpt lat="47.30032" lon="-0.4666">
        <ele>67.2</ele>
        <time>2020-08-02T09:06:01Z</time>
      </trkpt>
      <trkpt lat="47.30031" lon="-0.46664">
        <ele>67.2</ele>
        <time>2020-08-02T09:06:02Z</time>
      </trkpt>
      <trkpt lat="47.30032" lon="-0.46669">
        <ele>67.2</ele>
        <time>2020-08-02T09:06:03Z</time>
      </trkpt>
      <trkpt lat="47.30035" lon="-0.46673">
        <ele>67.2</ele>
        <time>2020-08-02T09:06:04Z</time>
      </trkpt>
      <trkpt lat="47.30036" lon="-0.46676">
        <ele>67.2</ele>
        <time>2020-08-02T09:06:05Z</time>
      </trkpt>
      <trkpt lat="47.30039" lon="-0.46679">
        <ele>67.2</ele>
        <time>2020-08-02T09:06:06Z</time>
      </trkpt>
      <trkpt lat="47.30042" lon="-0.46682">
        <ele>67.2</ele>
        <time>2020-08-02T09:06:07Z</time>
      </trkpt>
      <trkpt lat="47.30044" lon="-0.46685">
        <ele>67.2</ele>
        <time>2020-08-02T09:06:08Z</time>
      </trkpt>
      <trkpt lat="47.30047" lon="-0.46688">
        <ele>67</ele>
        <time>2020-08-02T09:06:09Z</time>
      </trkpt>
      <trkpt lat="47.30051" lon="-0.46692">
        <ele>67</ele>
        <time>2020-08-02T09:06:10Z</time>
      </trkpt>
      <trkpt lat="47.30061" lon="-0.46703">
        <ele>66</ele>
        <time>2020-08-02T09:06:13Z</time>
      </trkpt>
      <trkpt lat="47.30065" lon="-0.46707">
        <ele>66</ele>
        <time>2020-08-02T09:06:14Z</time>
      </trkpt>
      <trkpt lat="47.30072" lon="-0.46716">
        <ele>66</ele>
        <time>2020-08-02T09:06:16Z</time>
      </trkpt>
      <trkpt lat="47.30075" lon="-0.4672">
        <ele>65.8</ele>
        <time>2020-08-02T09:06:17Z</time>
      </trkpt>
      <trkpt lat="47.30088" lon="-0.46736">
        <ele>65.8</ele>
        <time>2020-08-02T09:06:21Z</time>
      </trkpt>
      <trkpt lat="47.30094" lon="-0.46745">
        <ele>65.8</ele>
        <time>2020-08-02T09:06:23Z</time>
      </trkpt>
      <trkpt lat="47.30096" lon="-0.46749">
        <ele>65.8</ele>
        <time>2020-08-02T09:06:24Z</time>
      </trkpt>
      <trkpt lat="47.30099" lon="-0.46752">
        <ele>66</ele>
        <time>2020-08-02T09:06:25Z</time>
      </trkpt>
      <trkpt lat="47.30102" lon="-0.46756">
        <ele>66</ele>
        <time>2020-08-02T09:06:26Z</time>
      </trkpt>
      <trkpt lat="47.30105" lon="-0.46759">
        <ele>66</ele>
        <time>2020-08-02T09:06:27Z</time>
      </trkpt>
      <trkpt lat="47.30107" lon="-0.46762">
        <ele>66</ele>
        <time>2020-08-02T09:06:28Z</time>
      </trkpt>
      <trkpt lat="47.30108" lon="-0.46766">
        <ele>66</ele>
        <time>2020-08-02T09:06:29Z</time>
      </trkpt>
      <trkpt lat="47.30108" lon="-0.46769">
        <ele>66</ele>
        <time>2020-08-02T09:06:30Z</time>
      </trkpt>
      <trkpt lat="47.30109" lon="-0.46773">
        <ele>66</ele>
        <time>2020-08-02T09:06:31Z</time>
      </trkpt>
      <trkpt lat="47.3011" lon="-0.46775">
        <ele>66.2</ele>
        <time>2020-08-02T09:06:32Z</time>
      </trkpt>
      <trkpt lat="47.3011" lon="-0.46777">
        <ele>66.2</ele>
        <time>2020-08-02T09:06:33Z</time>
      </trkpt>
      <trkpt lat="47.30109" lon="-0.4678">
        <ele>66.2</ele>
        <time>2020-08-02T09:06:34Z</time>
      </trkpt>
      <trkpt lat="47.30108" lon="-0.46782">
        <ele>66.2</ele>
        <time>2020-08-02T09:06:35Z</time>
      </trkpt>
      <trkpt lat="47.30107" lon="-0.46784">
        <ele>66.2</ele>
        <time>2020-08-02T09:06:36Z</time>
      </trkpt>
      <trkpt lat="47.30106" lon="-0.46786">
        <ele>66</ele>
        <time>2020-08-02T09:06:37Z</time>
      </trkpt>
      <trkpt lat="47.30104" lon="-0.46789">
        <ele>66</ele>
        <time>2020-08-02T09:06:38Z</time>
      </trkpt>
      <trkpt lat="47.30103" lon="-0.46791">
        <ele>66</ele>
        <time>2020-08-02T09:06:39Z</time>
      </trkpt>
      <trkpt lat="47.30101" lon="-0.46794">
        <ele>66</ele>
        <time>2020-08-02T09:06:40Z</time>
      </trkpt>
      <trkpt lat="47.301" lon="-0.46796">
        <ele>66</ele>
        <time>2020-08-02T09:06:41Z</time>
      </trkpt>
      <trkpt lat="47.30098" lon="-0.46799">
        <ele>66.2</ele>
        <time>2020-08-02T09:06:42Z</time>
      </trkpt>
      <trkpt lat="47.30097" lon="-0.468">
        <ele>66.2</ele>
        <time>2020-08-02T09:06:43Z</time>
      </trkpt>
      <trkpt lat="47.30095" lon="-0.46803">
        <ele>66.4</ele>
        <time>2020-08-02T09:06:44Z</time>
      </trkpt>
      <trkpt lat="47.30092" lon="-0.46808">
        <ele>66.4</ele>
        <time>2020-08-02T09:06:46Z</time>
      </trkpt>
      <trkpt lat="47.3009" lon="-0.4681">
        <ele>66.6</ele>
        <time>2020-08-02T09:06:47Z</time>
      </trkpt>
      <trkpt lat="47.30088" lon="-0.46812">
        <ele>66.6</ele>
        <time>2020-08-02T09:06:48Z</time>
      </trkpt>
      <trkpt lat="47.30087" lon="-0.46815">
        <ele>66.6</ele>
        <time>2020-08-02T09:06:49Z</time>
      </trkpt>
      <trkpt lat="47.30083" lon="-0.4682">
        <ele>66.8</ele>
        <time>2020-08-02T09:06:51Z</time>
      </trkpt>
      <trkpt lat="47.30081" lon="-0.46824">
        <ele>66.8</ele>
        <time>2020-08-02T09:06:52Z</time>
      </trkpt>
      <trkpt lat="47.30072" lon="-0.46834">
        <ele>66.8</ele>
        <time>2020-08-02T09:06:54Z</time>
      </trkpt>
      <trkpt lat="47.30066" lon="-0.46842">
        <ele>66.8</ele>
        <time>2020-08-02T09:06:56Z</time>
      </trkpt>
      <trkpt lat="47.30064" lon="-0.46847">
        <ele>66.8</ele>
        <time>2020-08-02T09:06:57Z</time>
      </trkpt>
      <trkpt lat="47.30062" lon="-0.46851">
        <ele>66.8</ele>
        <time>2020-08-02T09:06:58Z</time>
      </trkpt>
      <trkpt lat="47.3006" lon="-0.46855">
        <ele>67</ele>
        <time>2020-08-02T09:06:59Z</time>
      </trkpt>
      <trkpt lat="47.30057" lon="-0.4686">
        <ele>67</ele>
        <time>2020-08-02T09:07:00Z</time>
      </trkpt>
      <trkpt lat="47.3005" lon="-0.46869">
        <ele>67</ele>
        <time>2020-08-02T09:07:02Z</time>
      </trkpt>
      <trkpt lat="47.30043" lon="-0.4688">
        <ele>67.2</ele>
        <time>2020-08-02T09:07:04Z</time>
      </trkpt>
      <trkpt lat="47.3004" lon="-0.46885">
        <ele>67.2</ele>
        <time>2020-08-02T09:07:05Z</time>
      </trkpt>
      <trkpt lat="47.30037" lon="-0.46889">
        <ele>67.4</ele>
        <time>2020-08-02T09:07:06Z</time>
      </trkpt>
      <trkpt lat="47.3003" lon="-0.469">
        <ele>67.4</ele>
        <time>2020-08-02T09:07:08Z</time>
      </trkpt>
      <trkpt lat="47.30026" lon="-0.46906">
        <ele>67.4</ele>
        <time>2020-08-02T09:07:09Z</time>
      </trkpt>
      <trkpt lat="47.30016" lon="-0.46926">
        <ele>67.4</ele>
        <time>2020-08-02T09:07:12Z</time>
      </trkpt>
      <trkpt lat="47.30012" lon="-0.46933">
        <ele>67.4</ele>
        <time>2020-08-02T09:07:13Z</time>
      </trkpt>
      <trkpt lat="47.30008" lon="-0.46942">
        <ele>67.4</ele>
        <time>2020-08-02T09:07:14Z</time>
      </trkpt>
      <trkpt lat="47.30006" lon="-0.46947">
        <ele>67.6</ele>
        <time>2020-08-02T09:07:15Z</time>
      </trkpt>
      <trkpt lat="47.30004" lon="-0.46953">
        <ele>67.6</ele>
        <time>2020-08-02T09:07:16Z</time>
      </trkpt>
      <trkpt lat="47.30001" lon="-0.46958">
        <ele>67.8</ele>
        <time>2020-08-02T09:07:17Z</time>
      </trkpt>
      <trkpt lat="47.29997" lon="-0.46963">
        <ele>68</ele>
        <time>2020-08-02T09:07:18Z</time>
      </trkpt>
      <trkpt lat="47.29994" lon="-0.46969">
        <ele>68.2</ele>
        <time>2020-08-02T09:07:19Z</time>
      </trkpt>
      <trkpt lat="47.29991" lon="-0.46974">
        <ele>68.2</ele>
        <time>2020-08-02T09:07:20Z</time>
      </trkpt>
      <trkpt lat="47.29989" lon="-0.46979">
        <ele>68.2</ele>
        <time>2020-08-02T09:07:21Z</time>
      </trkpt>
      <trkpt lat="47.29987" lon="-0.46985">
        <ele>68.4</ele>
        <time>2020-08-02T09:07:22Z</time>
      </trkpt>
      <trkpt lat="47.29983" lon="-0.46991">
        <ele>68.6</ele>
        <time>2020-08-02T09:07:23Z</time>
      </trkpt>
      <trkpt lat="47.2998" lon="-0.46997">
        <ele>68.8</ele>
        <time>2020-08-02T09:07:24Z</time>
      </trkpt>
      <trkpt lat="47.29977" lon="-0.47005">
        <ele>69</ele>
        <time>2020-08-02T09:07:25Z</time>
      </trkpt>
      <trkpt lat="47.29975" lon="-0.47011">
        <ele>69</ele>
        <time>2020-08-02T09:07:26Z</time>
      </trkpt>
      <trkpt lat="47.29973" lon="-0.47018">
        <ele>69.2</ele>
        <time>2020-08-02T09:07:27Z</time>
      </trkpt>
      <trkpt lat="47.29971" lon="-0.47026">
        <ele>69.2</ele>
        <time>2020-08-02T09:07:28Z</time>
      </trkpt>
      <trkpt lat="47.29969" lon="-0.47035">
        <ele>69.4</ele>
        <time>2020-08-02T09:07:29Z</time>
      </trkpt>
      <trkpt lat="47.29968" lon="-0.47044">
        <ele>69.4</ele>
        <time>2020-08-02T09:07:30Z</time>
      </trkpt>
      <trkpt lat="47.29968" lon="-0.4705">
        <ele>69.4</ele>
        <time>2020-08-02T09:07:31Z</time>
      </trkpt>
      <trkpt lat="47.29967" lon="-0.47058">
        <ele>69.4</ele>
        <time>2020-08-02T09:07:32Z</time>
      </trkpt>
      <trkpt lat="47.29966" lon="-0.47066">
        <ele>69.6</ele>
        <time>2020-08-02T09:07:33Z</time>
      </trkpt>
      <trkpt lat="47.29965" lon="-0.47073">
        <ele>70</ele>
        <time>2020-08-02T09:07:34Z</time>
      </trkpt>
      <trkpt lat="47.29963" lon="-0.4708">
        <ele>70.2</ele>
        <time>2020-08-02T09:07:35Z</time>
      </trkpt>
      <trkpt lat="47.29963" lon="-0.47088">
        <ele>70.4</ele>
        <time>2020-08-02T09:07:36Z</time>
      </trkpt>
      <trkpt lat="47.29962" lon="-0.47094">
        <ele>70.4</ele>
        <time>2020-08-02T09:07:37Z</time>
      </trkpt>
      <trkpt lat="47.29962" lon="-0.47101">
        <ele>70.6</ele>
        <time>2020-08-02T09:07:38Z</time>
      </trkpt>
      <trkpt lat="47.29961" lon="-0.47109">
        <ele>70.6</ele>
        <time>2020-08-02T09:07:39Z</time>
      </trkpt>
      <trkpt lat="47.29961" lon="-0.47114">
        <ele>70.8</ele>
        <time>2020-08-02T09:07:40Z</time>
      </trkpt>
      <trkpt lat="47.29961" lon="-0.4712">
        <ele>70.8</ele>
        <time>2020-08-02T09:07:41Z</time>
      </trkpt>
      <trkpt lat="47.29961" lon="-0.47124">
        <ele>71</ele>
        <time>2020-08-02T09:07:42Z</time>
      </trkpt>
      <trkpt lat="47.29961" lon="-0.4713">
        <ele>71.2</ele>
        <time>2020-08-02T09:07:43Z</time>
      </trkpt>
      <trkpt lat="47.29961" lon="-0.47137">
        <ele>71.4</ele>
        <time>2020-08-02T09:07:44Z</time>
      </trkpt>
      <trkpt lat="47.29961" lon="-0.47144">
        <ele>71.4</ele>
        <time>2020-08-02T09:07:45Z</time>
      </trkpt>
      <trkpt lat="47.29961" lon="-0.47149">
        <ele>71.6</ele>
        <time>2020-08-02T09:07:46Z</time>
      </trkpt>
      <trkpt lat="47.2996" lon="-0.47155">
        <ele>71.6</ele>
        <time>2020-08-02T09:07:47Z</time>
      </trkpt>
      <trkpt lat="47.2996" lon="-0.4716">
        <ele>71.8</ele>
        <time>2020-08-02T09:07:48Z</time>
      </trkpt>
      <trkpt lat="47.29961" lon="-0.47163">
        <ele>72.2</ele>
        <time>2020-08-02T09:07:49Z</time>
      </trkpt>
      <trkpt lat="47.29961" lon="-0.47167">
        <ele>72.4</ele>
        <time>2020-08-02T09:07:50Z</time>
      </trkpt>
      <trkpt lat="47.29961" lon="-0.47171">
        <ele>72.6</ele>
        <time>2020-08-02T09:07:51Z</time>
      </trkpt>
      <trkpt lat="47.29961" lon="-0.47175">
        <ele>72.6</ele>
        <time>2020-08-02T09:07:52Z</time>
      </trkpt>
      <trkpt lat="47.29961" lon="-0.47179">
        <ele>72.8</ele>
        <time>2020-08-02T09:07:53Z</time>
      </trkpt>
      <trkpt lat="47.2996" lon="-0.47184">
        <ele>73</ele>
        <time>2020-08-02T09:07:54Z</time>
      </trkpt>
      <trkpt lat="47.2996" lon="-0.47188">
        <ele>73</ele>
        <time>2020-08-02T09:07:55Z</time>
      </trkpt>
      <trkpt lat="47.2996" lon="-0.47193">
        <ele>73.2</ele>
        <time>2020-08-02T09:07:56Z</time>
      </trkpt>
      <trkpt lat="47.2996" lon="-0.47197">
        <ele>73.2</ele>
        <time>2020-08-02T09:07:57Z</time>
      </trkpt>
      <trkpt lat="47.29959" lon="-0.47203">
        <ele>73.2</ele>
        <time>2020-08-02T09:07:58Z</time>
      </trkpt>
      <trkpt lat="47.2996" lon="-0.47207">
        <ele>73.2</ele>
        <time>2020-08-02T09:07:59Z</time>
      </trkpt>
      <trkpt lat="47.2996" lon="-0.47212">
        <ele>73.4</ele>
        <time>2020-08-02T09:08:00Z</time>
      </trkpt>
      <trkpt lat="47.2996" lon="-0.47222">
        <ele>73.6</ele>
        <time>2020-08-02T09:08:02Z</time>
      </trkpt>
      <trkpt lat="47.2996" lon="-0.47226">
        <ele>73.8</ele>
        <time>2020-08-02T09:08:03Z</time>
      </trkpt>
      <trkpt lat="47.29959" lon="-0.47231">
        <ele>74</ele>
        <time>2020-08-02T09:08:04Z</time>
      </trkpt>
      <trkpt lat="47.29959" lon="-0.47236">
        <ele>74</ele>
        <time>2020-08-02T09:08:05Z</time>
      </trkpt>
      <trkpt lat="47.29959" lon="-0.47242">
        <ele>74.4</ele>
        <time>2020-08-02T09:08:06Z</time>
      </trkpt>
      <trkpt lat="47.29958" lon="-0.47246">
        <ele>74.2</ele>
        <time>2020-08-02T09:08:07Z</time>
      </trkpt>
      <trkpt lat="47.29958" lon="-0.47251">
        <ele>74.4</ele>
        <time>2020-08-02T09:08:08Z</time>
      </trkpt>
      <trkpt lat="47.29958" lon="-0.47255">
        <ele>74.8</ele>
        <time>2020-08-02T09:08:09Z</time>
      </trkpt>
      <trkpt lat="47.29957" lon="-0.4726">
        <ele>74.6</ele>
        <time>2020-08-02T09:08:10Z</time>
      </trkpt>
      <trkpt lat="47.29956" lon="-0.47264">
        <ele>74.8</ele>
        <time>2020-08-02T09:08:11Z</time>
      </trkpt>
      <trkpt lat="47.29955" lon="-0.47268">
        <ele>75</ele>
        <time>2020-08-02T09:08:12Z</time>
      </trkpt>
      <trkpt lat="47.29954" lon="-0.47271">
        <ele>75</ele>
        <time>2020-08-02T09:08:13Z</time>
      </trkpt>
      <trkpt lat="47.29953" lon="-0.47274">
        <ele>75</ele>
        <time>2020-08-02T09:08:14Z</time>
      </trkpt>
      <trkpt lat="47.29952" lon="-0.47277">
        <ele>75.2</ele>
        <time>2020-08-02T09:08:15Z</time>
      </trkpt>
      <trkpt lat="47.29951" lon="-0.4728">
        <ele>75.4</ele>
        <time>2020-08-02T09:08:16Z</time>
      </trkpt>
      <trkpt lat="47.2995" lon="-0.47284">
        <ele>75.4</ele>
        <time>2020-08-02T09:08:17Z</time>
      </trkpt>
      <trkpt lat="47.29948" lon="-0.47288">
        <ele>75.4</ele>
        <time>2020-08-02T09:08:18Z</time>
      </trkpt>
      <trkpt lat="47.29946" lon="-0.47292">
        <ele>75.4</ele>
        <time>2020-08-02T09:08:19Z</time>
      </trkpt>
      <trkpt lat="47.29945" lon="-0.47295">
        <ele>75.6</ele>
        <time>2020-08-02T09:08:20Z</time>
      </trkpt>
      <trkpt lat="47.29943" lon="-0.47299">
        <ele>75.6</ele>
        <time>2020-08-02T09:08:21Z</time>
      </trkpt>
      <trkpt lat="47.29941" lon="-0.47302">
        <ele>75.8</ele>
        <time>2020-08-02T09:08:22Z</time>
      </trkpt>
      <trkpt lat="47.29938" lon="-0.47307">
        <ele>76</ele>
        <time>2020-08-02T09:08:23Z</time>
      </trkpt>
      <trkpt lat="47.29935" lon="-0.47311">
        <ele>76.2</ele>
        <time>2020-08-02T09:08:24Z</time>
      </trkpt>
      <trkpt lat="47.29933" lon="-0.47318">
        <ele>76.4</ele>
        <time>2020-08-02T09:08:25Z</time>
      </trkpt>
      <trkpt lat="47.29929" lon="-0.47324">
        <ele>76.6</ele>
        <time>2020-08-02T09:08:26Z</time>
      </trkpt>
      <trkpt lat="47.29927" lon="-0.47328">
        <ele>76.6</ele>
        <time>2020-08-02T09:08:27Z</time>
      </trkpt>
      <trkpt lat="47.29925" lon="-0.47331">
        <ele>76.6</ele>
        <time>2020-08-02T09:08:28Z</time>
      </trkpt>
      <trkpt lat="47.29923" lon="-0.47334">
        <ele>76.6</ele>
        <time>2020-08-02T09:08:29Z</time>
      </trkpt>
      <trkpt lat="47.2992" lon="-0.47337">
        <ele>76.8</ele>
        <time>2020-08-02T09:08:30Z</time>
      </trkpt>
      <trkpt lat="47.29917" lon="-0.4734">
        <ele>76.8</ele>
        <time>2020-08-02T09:08:31Z</time>
      </trkpt>
      <trkpt lat="47.29914" lon="-0.47343">
        <ele>76.8</ele>
        <time>2020-08-02T09:08:32Z</time>
      </trkpt>
      <trkpt lat="47.29906" lon="-0.47347">
        <ele>76.8</ele>
        <time>2020-08-02T09:08:34Z</time>
      </trkpt>
      <trkpt lat="47.29902" lon="-0.47349">
        <ele>76.8</ele>
        <time>2020-08-02T09:08:35Z</time>
      </trkpt>
      <trkpt lat="47.29898" lon="-0.47352">
        <ele>76.8</ele>
        <time>2020-08-02T09:08:36Z</time>
      </trkpt>
      <trkpt lat="47.29891" lon="-0.47358">
        <ele>76.6</ele>
        <time>2020-08-02T09:08:37Z</time>
      </trkpt>
      <trkpt lat="47.29887" lon="-0.47364">
        <ele>76.6</ele>
        <time>2020-08-02T09:08:38Z</time>
      </trkpt>
      <trkpt lat="47.29882" lon="-0.47366">
        <ele>76.6</ele>
        <time>2020-08-02T09:08:39Z</time>
      </trkpt>
      <trkpt lat="47.29879" lon="-0.47368">
        <ele>76.6</ele>
        <time>2020-08-02T09:08:40Z</time>
      </trkpt>
      <trkpt lat="47.29871" lon="-0.47373">
        <ele>76.6</ele>
        <time>2020-08-02T09:08:42Z</time>
      </trkpt>
      <trkpt lat="47.29859" lon="-0.47381">
        <ele>76.6</ele>
        <time>2020-08-02T09:08:45Z</time>
      </trkpt>
      <trkpt lat="47.29853" lon="-0.47384">
        <ele>76.8</ele>
        <time>2020-08-02T09:08:46Z</time>
      </trkpt>
      <trkpt lat="47.29842" lon="-0.47389">
        <ele>76.8</ele>
        <time>2020-08-02T09:08:49Z</time>
      </trkpt>
      <trkpt lat="47.29838" lon="-0.47388">
        <ele>76.8</ele>
        <time>2020-08-02T09:08:51Z</time>
      </trkpt>
      <trkpt lat="47.29835" lon="-0.47389">
        <ele>76.8</ele>
        <time>2020-08-02T09:08:52Z</time>
      </trkpt>
      <trkpt lat="47.29833" lon="-0.4739">
        <ele>76.8</ele>
        <time>2020-08-02T09:08:53Z</time>
      </trkpt>
      <trkpt lat="47.29832" lon="-0.47391">
        <ele>76.8</ele>
        <time>2020-08-02T09:08:54Z</time>
      </trkpt>
      <trkpt lat="47.29828" lon="-0.47393">
        <ele>76.8</ele>
        <time>2020-08-02T09:08:55Z</time>
      </trkpt>
      <trkpt lat="47.29824" lon="-0.47396">
        <ele>76.8</ele>
        <time>2020-08-02T09:08:56Z</time>
      </trkpt>
      <trkpt lat="47.29821" lon="-0.47398">
        <ele>76.8</ele>
        <time>2020-08-02T09:08:57Z</time>
      </trkpt>
      <trkpt lat="47.29818" lon="-0.47399">
        <ele>76.8</ele>
        <time>2020-08-02T09:08:58Z</time>
      </trkpt>
      <trkpt lat="47.29815" lon="-0.474">
        <ele>76.8</ele>
        <time>2020-08-02T09:08:59Z</time>
      </trkpt>
      <trkpt lat="47.2981" lon="-0.47403">
        <ele>76.8</ele>
        <time>2020-08-02T09:09:00Z</time>
      </trkpt>
      <trkpt lat="47.29808" lon="-0.47405">
        <ele>76.8</ele>
        <time>2020-08-02T09:09:01Z</time>
      </trkpt>
      <trkpt lat="47.29807" lon="-0.47404">
        <ele>77</ele>
        <time>2020-08-02T09:09:02Z</time>
      </trkpt>
      <trkpt lat="47.29806" lon="-0.47405">
        <ele>77</ele>
        <time>2020-08-02T09:09:03Z</time>
      </trkpt>
      <trkpt lat="47.29805" lon="-0.47406">
        <ele>77</ele>
        <time>2020-08-02T09:09:04Z</time>
      </trkpt>
      <trkpt lat="47.29805" lon="-0.47404">
        <ele>77.2</ele>
        <time>2020-08-02T09:09:05Z</time>
      </trkpt>
      <trkpt lat="47.29804" lon="-0.47404">
        <ele>77.2</ele>
        <time>2020-08-02T09:09:06Z</time>
      </trkpt>
      <trkpt lat="47.29804" lon="-0.47405">
        <ele>77.2</ele>
        <time>2020-08-02T09:09:07Z</time>
      </trkpt>
      <trkpt lat="47.29804" lon="-0.47406">
        <ele>77.4</ele>
        <time>2020-08-02T09:09:08Z</time>
      </trkpt>
      <trkpt lat="47.29803" lon="-0.47406">
        <ele>77.4</ele>
        <time>2020-08-02T09:09:09Z</time>
      </trkpt>
      <trkpt lat="47.29802" lon="-0.47407">
        <ele>77.4</ele>
        <time>2020-08-02T09:09:10Z</time>
      </trkpt>
      <trkpt lat="47.29799" lon="-0.47406">
        <ele>77.4</ele>
        <time>2020-08-02T09:09:11Z</time>
      </trkpt>
      <trkpt lat="47.29798" lon="-0.47407">
        <ele>77.6</ele>
        <time>2020-08-02T09:09:12Z</time>
      </trkpt>
      <trkpt lat="47.29795" lon="-0.47408">
        <ele>77.6</ele>
        <time>2020-08-02T09:09:13Z</time>
      </trkpt>
      <trkpt lat="47.29792" lon="-0.47408">
        <ele>77.6</ele>
        <time>2020-08-02T09:09:14Z</time>
      </trkpt>
      <trkpt lat="47.2979" lon="-0.4741">
        <ele>77.6</ele>
        <time>2020-08-02T09:09:15Z</time>
      </trkpt>
      <trkpt lat="47.29789" lon="-0.47411">
        <ele>77.6</ele>
        <time>2020-08-02T09:09:16Z</time>
      </trkpt>
      <trkpt lat="47.29788" lon="-0.47411">
        <ele>77.6</ele>
        <time>2020-08-02T09:09:17Z</time>
      </trkpt>
      <trkpt lat="47.29788" lon="-0.47411">
        <ele>77.6</ele>
        <time>2020-08-02T09:09:18Z</time>
      </trkpt>
      <trkpt lat="47.29788" lon="-0.47411">
        <ele>77.6</ele>
        <time>2020-08-02T09:09:19Z</time>
      </trkpt>
      <trkpt lat="47.29788" lon="-0.47411">
        <ele>77.6</ele>
        <time>2020-08-02T09:09:24Z</time>
      </trkpt>
      <trkpt lat="47.29788" lon="-0.47411">
        <ele>77.4</ele>
        <time>2020-08-02T09:09:42Z</time>
      </trkpt>
      <trkpt lat="47.2978" lon="-0.47414">
        <ele>77.2</ele>
        <time>2020-08-02T09:10:04Z</time>
      </trkpt>
      <trkpt lat="47.29772" lon="-0.47419">
        <ele>77.2</ele>
        <time>2020-08-02T09:10:07Z</time>
      </trkpt>
      <trkpt lat="47.29768" lon="-0.47421">
        <ele>77.2</ele>
        <time>2020-08-02T09:10:08Z</time>
      </trkpt>
      <trkpt lat="47.29754" lon="-0.47428">
        <ele>77</ele>
        <time>2020-08-02T09:10:12Z</time>
      </trkpt>
      <trkpt lat="47.2975" lon="-0.47431">
        <ele>77</ele>
        <time>2020-08-02T09:10:13Z</time>
      </trkpt>
      <trkpt lat="47.29746" lon="-0.47435">
        <ele>76.8</ele>
        <time>2020-08-02T09:10:14Z</time>
      </trkpt>
      <trkpt lat="47.29742" lon="-0.47439">
        <ele>77</ele>
        <time>2020-08-02T09:10:15Z</time>
      </trkpt>
      <trkpt lat="47.29736" lon="-0.47444">
        <ele>77</ele>
        <time>2020-08-02T09:10:17Z</time>
      </trkpt>
      <trkpt lat="47.2973" lon="-0.47451">
        <ele>77</ele>
        <time>2020-08-02T09:10:19Z</time>
      </trkpt>
      <trkpt lat="47.29721" lon="-0.47458">
        <ele>77.2</ele>
        <time>2020-08-02T09:10:20Z</time>
      </trkpt>
      <trkpt lat="47.29718" lon="-0.47462">
        <ele>77.2</ele>
        <time>2020-08-02T09:10:21Z</time>
      </trkpt>
      <trkpt lat="47.29713" lon="-0.47468">
        <ele>77</ele>
        <time>2020-08-02T09:10:22Z</time>
      </trkpt>
      <trkpt lat="47.29709" lon="-0.47477">
        <ele>77</ele>
        <time>2020-08-02T09:10:24Z</time>
      </trkpt>
      <trkpt lat="47.29706" lon="-0.47483">
        <ele>77</ele>
        <time>2020-08-02T09:10:25Z</time>
      </trkpt>
      <trkpt lat="47.29703" lon="-0.47488">
        <ele>77.2</ele>
        <time>2020-08-02T09:10:26Z</time>
      </trkpt>
      <trkpt lat="47.297" lon="-0.47495">
        <ele>77.2</ele>
        <time>2020-08-02T09:10:27Z</time>
      </trkpt>
      <trkpt lat="47.29695" lon="-0.47504">
        <ele>77.2</ele>
        <time>2020-08-02T09:10:28Z</time>
      </trkpt>
      <trkpt lat="47.29685" lon="-0.4752">
        <ele>77</ele>
        <time>2020-08-02T09:10:31Z</time>
      </trkpt>
      <trkpt lat="47.29682" lon="-0.47525">
        <ele>77.2</ele>
        <time>2020-08-02T09:10:32Z</time>
      </trkpt>
      <trkpt lat="47.2968" lon="-0.47532">
        <ele>77.2</ele>
        <time>2020-08-02T09:10:33Z</time>
      </trkpt>
      <trkpt lat="47.29678" lon="-0.47537">
        <ele>77.2</ele>
        <time>2020-08-02T09:10:34Z</time>
      </trkpt>
      <trkpt lat="47.29669" lon="-0.47553">
        <ele>77.2</ele>
        <time>2020-08-02T09:10:37Z</time>
      </trkpt>
      <trkpt lat="47.2967" lon="-0.47558">
        <ele>77.2</ele>
        <time>2020-08-02T09:10:38Z</time>
      </trkpt>
      <trkpt lat="47.2967" lon="-0.47562">
        <ele>77.2</ele>
        <time>2020-08-02T09:10:39Z</time>
      </trkpt>
      <trkpt lat="47.29669" lon="-0.47566">
        <ele>77.2</ele>
        <time>2020-08-02T09:10:40Z</time>
      </trkpt>
      <trkpt lat="47.29669" lon="-0.4757">
        <ele>77.2</ele>
        <time>2020-08-02T09:10:41Z</time>
      </trkpt>
      <trkpt lat="47.29668" lon="-0.47574">
        <ele>77.4</ele>
        <time>2020-08-02T09:10:42Z</time>
      </trkpt>
      <trkpt lat="47.29665" lon="-0.47578">
        <ele>77.4</ele>
        <time>2020-08-02T09:10:43Z</time>
      </trkpt>
      <trkpt lat="47.29661" lon="-0.47583">
        <ele>77.4</ele>
        <time>2020-08-02T09:10:44Z</time>
      </trkpt>
      <trkpt lat="47.2966" lon="-0.47588">
        <ele>77.4</ele>
        <time>2020-08-02T09:10:45Z</time>
      </trkpt>
      <trkpt lat="47.29658" lon="-0.4759">
        <ele>77.4</ele>
        <time>2020-08-02T09:10:46Z</time>
      </trkpt>
      <trkpt lat="47.29656" lon="-0.47592">
        <ele>77.4</ele>
        <time>2020-08-02T09:10:47Z</time>
      </trkpt>
      <trkpt lat="47.29655" lon="-0.47596">
        <ele>77.6</ele>
        <time>2020-08-02T09:10:48Z</time>
      </trkpt>
      <trkpt lat="47.29654" lon="-0.47598">
        <ele>77.6</ele>
        <time>2020-08-02T09:10:49Z</time>
      </trkpt>
      <trkpt lat="47.29653" lon="-0.47601">
        <ele>77.6</ele>
        <time>2020-08-02T09:10:50Z</time>
      </trkpt>
      <trkpt lat="47.29651" lon="-0.47604">
        <ele>77.6</ele>
        <time>2020-08-02T09:10:51Z</time>
      </trkpt>
      <trkpt lat="47.29648" lon="-0.47608">
        <ele>77.6</ele>
        <time>2020-08-02T09:10:52Z</time>
      </trkpt>
      <trkpt lat="47.29646" lon="-0.47611">
        <ele>77.6</ele>
        <time>2020-08-02T09:10:53Z</time>
      </trkpt>
      <trkpt lat="47.29643" lon="-0.47614">
        <ele>77.6</ele>
        <time>2020-08-02T09:10:54Z</time>
      </trkpt>
      <trkpt lat="47.2964" lon="-0.47618">
        <ele>77.6</ele>
        <time>2020-08-02T09:10:55Z</time>
      </trkpt>
      <trkpt lat="47.29637" lon="-0.47623">
        <ele>77.6</ele>
        <time>2020-08-02T09:10:56Z</time>
      </trkpt>
      <trkpt lat="47.29635" lon="-0.47626">
        <ele>77.6</ele>
        <time>2020-08-02T09:10:57Z</time>
      </trkpt>
      <trkpt lat="47.29633" lon="-0.47629">
        <ele>77.6</ele>
        <time>2020-08-02T09:10:58Z</time>
      </trkpt>
      <trkpt lat="47.29631" lon="-0.47632">
        <ele>77.6</ele>
        <time>2020-08-02T09:10:59Z</time>
      </trkpt>
      <trkpt lat="47.29628" lon="-0.47635">
        <ele>77.6</ele>
        <time>2020-08-02T09:11:00Z</time>
      </trkpt>
      <trkpt lat="47.29625" lon="-0.47639">
        <ele>77.6</ele>
        <time>2020-08-02T09:11:01Z</time>
      </trkpt>
      <trkpt lat="47.29618" lon="-0.47644">
        <ele>77.6</ele>
        <time>2020-08-02T09:11:02Z</time>
      </trkpt>
      <trkpt lat="47.29615" lon="-0.47648">
        <ele>77.6</ele>
        <time>2020-08-02T09:11:03Z</time>
      </trkpt>
      <trkpt lat="47.29611" lon="-0.47651">
        <ele>77.8</ele>
        <time>2020-08-02T09:11:04Z</time>
      </trkpt>
      <trkpt lat="47.29607" lon="-0.47657">
        <ele>77.8</ele>
        <time>2020-08-02T09:11:06Z</time>
      </trkpt>
      <trkpt lat="47.29605" lon="-0.47661">
        <ele>78</ele>
        <time>2020-08-02T09:11:07Z</time>
      </trkpt>
      <trkpt lat="47.29602" lon="-0.47666">
        <ele>78</ele>
        <time>2020-08-02T09:11:08Z</time>
      </trkpt>
      <trkpt lat="47.29598" lon="-0.47671">
        <ele>78</ele>
        <time>2020-08-02T09:11:09Z</time>
      </trkpt>
      <trkpt lat="47.29595" lon="-0.47675">
        <ele>78</ele>
        <time>2020-08-02T09:11:10Z</time>
      </trkpt>
      <trkpt lat="47.2959" lon="-0.47681">
        <ele>78.2</ele>
        <time>2020-08-02T09:11:12Z</time>
      </trkpt>
      <trkpt lat="47.29587" lon="-0.47686">
        <ele>78.2</ele>
        <time>2020-08-02T09:11:13Z</time>
      </trkpt>
      <trkpt lat="47.29584" lon="-0.4769">
        <ele>78.4</ele>
        <time>2020-08-02T09:11:14Z</time>
      </trkpt>
      <trkpt lat="47.2958" lon="-0.47694">
        <ele>78.4</ele>
        <time>2020-08-02T09:11:15Z</time>
      </trkpt>
      <trkpt lat="47.29578" lon="-0.47699">
        <ele>78.6</ele>
        <time>2020-08-02T09:11:16Z</time>
      </trkpt>
      <trkpt lat="47.29575" lon="-0.47704">
        <ele>78.6</ele>
        <time>2020-08-02T09:11:17Z</time>
      </trkpt>
      <trkpt lat="47.29569" lon="-0.47708">
        <ele>78.6</ele>
        <time>2020-08-02T09:11:18Z</time>
      </trkpt>
      <trkpt lat="47.29566" lon="-0.47711">
        <ele>78.8</ele>
        <time>2020-08-02T09:11:19Z</time>
      </trkpt>
      <trkpt lat="47.29559" lon="-0.47723">
        <ele>78.8</ele>
        <time>2020-08-02T09:11:21Z</time>
      </trkpt>
      <trkpt lat="47.29555" lon="-0.47732">
        <ele>78.8</ele>
        <time>2020-08-02T09:11:22Z</time>
      </trkpt>
      <trkpt lat="47.29552" lon="-0.47736">
        <ele>79</ele>
        <time>2020-08-02T09:11:23Z</time>
      </trkpt>
      <trkpt lat="47.29552" lon="-0.47736">
        <ele>79.2</ele>
        <time>2020-08-02T09:11:24Z</time>
      </trkpt>
      <trkpt lat="47.29551" lon="-0.47747">
        <ele>79.2</ele>
        <time>2020-08-02T09:11:27Z</time>
      </trkpt>
      <trkpt lat="47.2955" lon="-0.47751">
        <ele>79.4</ele>
        <time>2020-08-02T09:11:28Z</time>
      </trkpt>
      <trkpt lat="47.29548" lon="-0.47756">
        <ele>79.4</ele>
        <time>2020-08-02T09:11:29Z</time>
      </trkpt>
      <trkpt lat="47.29546" lon="-0.47762">
        <ele>79.4</ele>
        <time>2020-08-02T09:11:30Z</time>
      </trkpt>
      <trkpt lat="47.29542" lon="-0.47773">
        <ele>79.4</ele>
        <time>2020-08-02T09:11:32Z</time>
      </trkpt>
      <trkpt lat="47.29539" lon="-0.47779">
        <ele>79.4</ele>
        <time>2020-08-02T09:11:33Z</time>
      </trkpt>
      <trkpt lat="47.29537" lon="-0.47783">
        <ele>79.4</ele>
        <time>2020-08-02T09:11:34Z</time>
      </trkpt>
      <trkpt lat="47.29536" lon="-0.47787">
        <ele>79.4</ele>
        <time>2020-08-02T09:11:35Z</time>
      </trkpt>
      <trkpt lat="47.29533" lon="-0.4779">
        <ele>79.4</ele>
        <time>2020-08-02T09:11:36Z</time>
      </trkpt>
      <trkpt lat="47.29529" lon="-0.47797">
        <ele>79.4</ele>
        <time>2020-08-02T09:11:37Z</time>
      </trkpt>
      <trkpt lat="47.29526" lon="-0.4781">
        <ele>79.6</ele>
        <time>2020-08-02T09:11:39Z</time>
      </trkpt>
      <trkpt lat="47.29519" lon="-0.47829">
        <ele>79.6</ele>
        <time>2020-08-02T09:11:42Z</time>
      </trkpt>
      <trkpt lat="47.29517" lon="-0.47835">
        <ele>79.6</ele>
        <time>2020-08-02T09:11:43Z</time>
      </trkpt>
      <trkpt lat="47.29516" lon="-0.4784">
        <ele>79.6</ele>
        <time>2020-08-02T09:11:44Z</time>
      </trkpt>
      <trkpt lat="47.29514" lon="-0.47845">
        <ele>79.6</ele>
        <time>2020-08-02T09:11:45Z</time>
      </trkpt>
      <trkpt lat="47.29512" lon="-0.4785">
        <ele>79.8</ele>
        <time>2020-08-02T09:11:46Z</time>
      </trkpt>
      <trkpt lat="47.29511" lon="-0.47854">
        <ele>79.8</ele>
        <time>2020-08-02T09:11:47Z</time>
      </trkpt>
      <trkpt lat="47.29509" lon="-0.47858">
        <ele>79.8</ele>
        <time>2020-08-02T09:11:48Z</time>
      </trkpt>
      <trkpt lat="47.29508" lon="-0.47862">
        <ele>79.8</ele>
        <time>2020-08-02T09:11:49Z</time>
      </trkpt>
      <trkpt lat="47.29506" lon="-0.47868">
        <ele>79.8</ele>
        <time>2020-08-02T09:11:50Z</time>
      </trkpt>
      <trkpt lat="47.29504" lon="-0.47874">
        <ele>79.8</ele>
        <time>2020-08-02T09:11:51Z</time>
      </trkpt>
      <trkpt lat="47.295" lon="-0.4788">
        <ele>80</ele>
        <time>2020-08-02T09:11:53Z</time>
      </trkpt>
      <trkpt lat="47.29498" lon="-0.47883">
        <ele>80</ele>
        <time>2020-08-02T09:11:54Z</time>
      </trkpt>
      <trkpt lat="47.29495" lon="-0.47886">
        <ele>80</ele>
        <time>2020-08-02T09:11:55Z</time>
      </trkpt>
      <trkpt lat="47.29493" lon="-0.47891">
        <ele>80</ele>
        <time>2020-08-02T09:11:56Z</time>
      </trkpt>
      <trkpt lat="47.29492" lon="-0.47895">
        <ele>80</ele>
        <time>2020-08-02T09:11:57Z</time>
      </trkpt>
      <trkpt lat="47.29492" lon="-0.479">
        <ele>80.2</ele>
        <time>2020-08-02T09:11:58Z</time>
      </trkpt>
      <trkpt lat="47.29491" lon="-0.47903">
        <ele>80.2</ele>
        <time>2020-08-02T09:11:59Z</time>
      </trkpt>
      <trkpt lat="47.29491" lon="-0.47906">
        <ele>80.2</ele>
        <time>2020-08-02T09:12:00Z</time>
      </trkpt>
      <trkpt lat="47.29489" lon="-0.4791">
        <ele>80.2</ele>
        <time>2020-08-02T09:12:01Z</time>
      </trkpt>
      <trkpt lat="47.29487" lon="-0.47913">
        <ele>80.4</ele>
        <time>2020-08-02T09:12:02Z</time>
      </trkpt>
      <trkpt lat="47.29483" lon="-0.47927">
        <ele>80.6</ele>
        <time>2020-08-02T09:12:05Z</time>
      </trkpt>
      <trkpt lat="47.29481" lon="-0.47932">
        <ele>80.6</ele>
        <time>2020-08-02T09:12:06Z</time>
      </trkpt>
      <trkpt lat="47.29478" lon="-0.47937">
        <ele>80.8</ele>
        <time>2020-08-02T09:12:07Z</time>
      </trkpt>
      <trkpt lat="47.29475" lon="-0.47945">
        <ele>80.8</ele>
        <time>2020-08-02T09:12:08Z</time>
      </trkpt>
      <trkpt lat="47.29472" lon="-0.47948">
        <ele>80.8</ele>
        <time>2020-08-02T09:12:09Z</time>
      </trkpt>
      <trkpt lat="47.2947" lon="-0.4795">
        <ele>80.6</ele>
        <time>2020-08-02T09:12:10Z</time>
      </trkpt>
      <trkpt lat="47.29469" lon="-0.47953">
        <ele>80.6</ele>
        <time>2020-08-02T09:12:11Z</time>
      </trkpt>
      <trkpt lat="47.29467" lon="-0.47956">
        <ele>80.8</ele>
        <time>2020-08-02T09:12:12Z</time>
      </trkpt>
      <trkpt lat="47.29465" lon="-0.47959">
        <ele>80.8</ele>
        <time>2020-08-02T09:12:13Z</time>
      </trkpt>
      <trkpt lat="47.29458" lon="-0.47966">
        <ele>81</ele>
        <time>2020-08-02T09:12:15Z</time>
      </trkpt>
      <trkpt lat="47.29456" lon="-0.47969">
        <ele>81</ele>
        <time>2020-08-02T09:12:16Z</time>
      </trkpt>
      <trkpt lat="47.29455" lon="-0.47972">
        <ele>81</ele>
        <time>2020-08-02T09:12:17Z</time>
      </trkpt>
      <trkpt lat="47.29454" lon="-0.47976">
        <ele>81</ele>
        <time>2020-08-02T09:12:18Z</time>
      </trkpt>
      <trkpt lat="47.29451" lon="-0.47981">
        <ele>81.2</ele>
        <time>2020-08-02T09:12:19Z</time>
      </trkpt>
      <trkpt lat="47.29449" lon="-0.47984">
        <ele>81.2</ele>
        <time>2020-08-02T09:12:20Z</time>
      </trkpt>
      <trkpt lat="47.29448" lon="-0.47987">
        <ele>81.2</ele>
        <time>2020-08-02T09:12:21Z</time>
      </trkpt>
      <trkpt lat="47.29446" lon="-0.47992">
        <ele>81.2</ele>
        <time>2020-08-02T09:12:22Z</time>
      </trkpt>
      <trkpt lat="47.29443" lon="-0.47995">
        <ele>81.2</ele>
        <time>2020-08-02T09:12:23Z</time>
      </trkpt>
      <trkpt lat="47.2944" lon="-0.48">
        <ele>81.4</ele>
        <time>2020-08-02T09:12:24Z</time>
      </trkpt>
      <trkpt lat="47.29437" lon="-0.48004">
        <ele>81.6</ele>
        <time>2020-08-02T09:12:25Z</time>
      </trkpt>
      <trkpt lat="47.29435" lon="-0.48007">
        <ele>81.8</ele>
        <time>2020-08-02T09:12:26Z</time>
      </trkpt>
      <trkpt lat="47.29425" lon="-0.4802">
        <ele>81.8</ele>
        <time>2020-08-02T09:12:29Z</time>
      </trkpt>
      <trkpt lat="47.29423" lon="-0.48024">
        <ele>81.8</ele>
        <time>2020-08-02T09:12:30Z</time>
      </trkpt>
      <trkpt lat="47.29422" lon="-0.48029">
        <ele>81.8</ele>
        <time>2020-08-02T09:12:31Z</time>
      </trkpt>
      <trkpt lat="47.29417" lon="-0.48037">
        <ele>81.8</ele>
        <time>2020-08-02T09:12:33Z</time>
      </trkpt>
      <trkpt lat="47.29411" lon="-0.48046">
        <ele>82</ele>
        <time>2020-08-02T09:12:36Z</time>
      </trkpt>
      <trkpt lat="47.2941" lon="-0.48049">
        <ele>82</ele>
        <time>2020-08-02T09:12:37Z</time>
      </trkpt>
      <trkpt lat="47.29407" lon="-0.48052">
        <ele>82.2</ele>
        <time>2020-08-02T09:12:38Z</time>
      </trkpt>
      <trkpt lat="47.29405" lon="-0.48054">
        <ele>82.2</ele>
        <time>2020-08-02T09:12:39Z</time>
      </trkpt>
      <trkpt lat="47.29402" lon="-0.48057">
        <ele>82.4</ele>
        <time>2020-08-02T09:12:40Z</time>
      </trkpt>
      <trkpt lat="47.29402" lon="-0.4806">
        <ele>82.4</ele>
        <time>2020-08-02T09:12:41Z</time>
      </trkpt>
      <trkpt lat="47.294" lon="-0.48062">
        <ele>82.4</ele>
        <time>2020-08-02T09:12:42Z</time>
      </trkpt>
      <trkpt lat="47.294" lon="-0.48063">
        <ele>82.4</ele>
        <time>2020-08-02T09:12:43Z</time>
      </trkpt>
      <trkpt lat="47.294" lon="-0.48063">
        <ele>82.4</ele>
        <time>2020-08-02T09:12:44Z</time>
      </trkpt>
      <trkpt lat="47.29399" lon="-0.48065">
        <ele>82.4</ele>
        <time>2020-08-02T09:12:45Z</time>
      </trkpt>
      <trkpt lat="47.29397" lon="-0.48069">
        <ele>82.4</ele>
        <time>2020-08-02T09:12:47Z</time>
      </trkpt>
      <trkpt lat="47.29395" lon="-0.48072">
        <ele>82.4</ele>
        <time>2020-08-02T09:12:48Z</time>
      </trkpt>
      <trkpt lat="47.29392" lon="-0.48074">
        <ele>82.4</ele>
        <time>2020-08-02T09:12:49Z</time>
      </trkpt>
      <trkpt lat="47.29391" lon="-0.48076">
        <ele>82.4</ele>
        <time>2020-08-02T09:12:50Z</time>
      </trkpt>
      <trkpt lat="47.29391" lon="-0.48079">
        <ele>82.4</ele>
        <time>2020-08-02T09:12:51Z</time>
      </trkpt>
      <trkpt lat="47.2939" lon="-0.4808">
        <ele>82.4</ele>
        <time>2020-08-02T09:12:52Z</time>
      </trkpt>
      <trkpt lat="47.2939" lon="-0.48081">
        <ele>82.4</ele>
        <time>2020-08-02T09:12:53Z</time>
      </trkpt>
      <trkpt lat="47.29389" lon="-0.48081">
        <ele>82.4</ele>
        <time>2020-08-02T09:12:54Z</time>
      </trkpt>
      <trkpt lat="47.2939" lon="-0.4808">
        <ele>82.4</ele>
        <time>2020-08-02T09:12:55Z</time>
      </trkpt>
      <trkpt lat="47.29389" lon="-0.48086">
        <ele>82.4</ele>
        <time>2020-08-02T09:12:58Z</time>
      </trkpt>
      <trkpt lat="47.29388" lon="-0.48087">
        <ele>82.4</ele>
        <time>2020-08-02T09:12:59Z</time>
      </trkpt>
      <trkpt lat="47.29387" lon="-0.48089">
        <ele>82.4</ele>
        <time>2020-08-02T09:13:00Z</time>
      </trkpt>
      <trkpt lat="47.29386" lon="-0.48092">
        <ele>82.4</ele>
        <time>2020-08-02T09:13:01Z</time>
      </trkpt>
      <trkpt lat="47.29385" lon="-0.48095">
        <ele>82.4</ele>
        <time>2020-08-02T09:13:03Z</time>
      </trkpt>
      <trkpt lat="47.29384" lon="-0.48098">
        <ele>82.4</ele>
        <time>2020-08-02T09:13:04Z</time>
      </trkpt>
      <trkpt lat="47.29382" lon="-0.48103">
        <ele>82.2</ele>
        <time>2020-08-02T09:13:07Z</time>
      </trkpt>
      <trkpt lat="47.29381" lon="-0.48105">
        <ele>82.2</ele>
        <time>2020-08-02T09:13:08Z</time>
      </trkpt>
      <trkpt lat="47.29379" lon="-0.48111">
        <ele>82</ele>
        <time>2020-08-02T09:13:11Z</time>
      </trkpt>
      <trkpt lat="47.29378" lon="-0.48113">
        <ele>82</ele>
        <time>2020-08-02T09:13:12Z</time>
      </trkpt>
      <trkpt lat="47.29377" lon="-0.48114">
        <ele>82</ele>
        <time>2020-08-02T09:13:13Z</time>
      </trkpt>
      <trkpt lat="47.29377" lon="-0.48115">
        <ele>82</ele>
        <time>2020-08-02T09:13:14Z</time>
      </trkpt>
      <trkpt lat="47.29377" lon="-0.48116">
        <ele>82</ele>
        <time>2020-08-02T09:13:15Z</time>
      </trkpt>
      <trkpt lat="47.29377" lon="-0.48118">
        <ele>82</ele>
        <time>2020-08-02T09:13:16Z</time>
      </trkpt>
      <trkpt lat="47.29377" lon="-0.4812">
        <ele>81.8</ele>
        <time>2020-08-02T09:13:17Z</time>
      </trkpt>
      <trkpt lat="47.29376" lon="-0.48122">
        <ele>81.8</ele>
        <time>2020-08-02T09:13:18Z</time>
      </trkpt>
      <trkpt lat="47.29376" lon="-0.48124">
        <ele>81.8</ele>
        <time>2020-08-02T09:13:19Z</time>
      </trkpt>
      <trkpt lat="47.29375" lon="-0.48127">
        <ele>81.8</ele>
        <time>2020-08-02T09:13:20Z</time>
      </trkpt>
      <trkpt lat="47.29375" lon="-0.48128">
        <ele>82</ele>
        <time>2020-08-02T09:13:21Z</time>
      </trkpt>
      <trkpt lat="47.29374" lon="-0.48131">
        <ele>82</ele>
        <time>2020-08-02T09:13:22Z</time>
      </trkpt>
      <trkpt lat="47.29374" lon="-0.48133">
        <ele>82</ele>
        <time>2020-08-02T09:13:23Z</time>
      </trkpt>
      <trkpt lat="47.2937" lon="-0.48143">
        <ele>82.2</ele>
        <time>2020-08-02T09:13:26Z</time>
      </trkpt>
      <trkpt lat="47.29368" lon="-0.48147">
        <ele>82.2</ele>
        <time>2020-08-02T09:13:27Z</time>
      </trkpt>
      <trkpt lat="47.29367" lon="-0.4815">
        <ele>82.4</ele>
        <time>2020-08-02T09:13:28Z</time>
      </trkpt>
      <trkpt lat="47.29365" lon="-0.48158">
        <ele>82.6</ele>
        <time>2020-08-02T09:13:30Z</time>
      </trkpt>
      <trkpt lat="47.29365" lon="-0.48161">
        <ele>82.6</ele>
        <time>2020-08-02T09:13:31Z</time>
      </trkpt>
      <trkpt lat="47.29361" lon="-0.48167">
        <ele>82.8</ele>
        <time>2020-08-02T09:13:33Z</time>
      </trkpt>
      <trkpt lat="47.29359" lon="-0.48173">
        <ele>83</ele>
        <time>2020-08-02T09:13:34Z</time>
      </trkpt>
      <trkpt lat="47.29358" lon="-0.48176">
        <ele>83</ele>
        <time>2020-08-02T09:13:35Z</time>
      </trkpt>
      <trkpt lat="47.29357" lon="-0.4818">
        <ele>83</ele>
        <time>2020-08-02T09:13:36Z</time>
      </trkpt>
      <trkpt lat="47.29354" lon="-0.48189">
        <ele>83.2</ele>
        <time>2020-08-02T09:13:39Z</time>
      </trkpt>
      <trkpt lat="47.29353" lon="-0.48192">
        <ele>83.2</ele>
        <time>2020-08-02T09:13:40Z</time>
      </trkpt>
      <trkpt lat="47.29351" lon="-0.48196">
        <ele>83.2</ele>
        <time>2020-08-02T09:13:41Z</time>
      </trkpt>
      <trkpt lat="47.2935" lon="-0.482">
        <ele>83.2</ele>
        <time>2020-08-02T09:13:42Z</time>
      </trkpt>
      <trkpt lat="47.29349" lon="-0.48204">
        <ele>83.2</ele>
        <time>2020-08-02T09:13:43Z</time>
      </trkpt>
      <trkpt lat="47.29348" lon="-0.48208">
        <ele>83.2</ele>
        <time>2020-08-02T09:13:44Z</time>
      </trkpt>
      <trkpt lat="47.29347" lon="-0.48212">
        <ele>83.2</ele>
        <time>2020-08-02T09:13:45Z</time>
      </trkpt>
      <trkpt lat="47.29345" lon="-0.48215">
        <ele>83.2</ele>
        <time>2020-08-02T09:13:46Z</time>
      </trkpt>
      <trkpt lat="47.29344" lon="-0.48218">
        <ele>83.2</ele>
        <time>2020-08-02T09:13:47Z</time>
      </trkpt>
      <trkpt lat="47.29343" lon="-0.48222">
        <ele>83.2</ele>
        <time>2020-08-02T09:13:48Z</time>
      </trkpt>
      <trkpt lat="47.2934" lon="-0.48228">
        <ele>83.2</ele>
        <time>2020-08-02T09:13:49Z</time>
      </trkpt>
      <trkpt lat="47.29337" lon="-0.48233">
        <ele>83.2</ele>
        <time>2020-08-02T09:13:50Z</time>
      </trkpt>
      <trkpt lat="47.29334" lon="-0.48244">
        <ele>83</ele>
        <time>2020-08-02T09:13:52Z</time>
      </trkpt>
      <trkpt lat="47.29332" lon="-0.48248">
        <ele>83.2</ele>
        <time>2020-08-02T09:13:53Z</time>
      </trkpt>
      <trkpt lat="47.29331" lon="-0.48251">
        <ele>83.2</ele>
        <time>2020-08-02T09:13:54Z</time>
      </trkpt>
      <trkpt lat="47.29329" lon="-0.48255">
        <ele>83.2</ele>
        <time>2020-08-02T09:13:55Z</time>
      </trkpt>
      <trkpt lat="47.29328" lon="-0.48259">
        <ele>83.2</ele>
        <time>2020-08-02T09:13:56Z</time>
      </trkpt>
      <trkpt lat="47.29326" lon="-0.48261">
        <ele>83.2</ele>
        <time>2020-08-02T09:13:57Z</time>
      </trkpt>
      <trkpt lat="47.29324" lon="-0.48265">
        <ele>83.2</ele>
        <time>2020-08-02T09:13:58Z</time>
      </trkpt>
      <trkpt lat="47.29323" lon="-0.48268">
        <ele>83.2</ele>
        <time>2020-08-02T09:13:59Z</time>
      </trkpt>
      <trkpt lat="47.29322" lon="-0.48273">
        <ele>83.2</ele>
        <time>2020-08-02T09:14:00Z</time>
      </trkpt>
      <trkpt lat="47.29318" lon="-0.4828">
        <ele>83.2</ele>
        <time>2020-08-02T09:14:02Z</time>
      </trkpt>
      <trkpt lat="47.29315" lon="-0.48284">
        <ele>83.2</ele>
        <time>2020-08-02T09:14:03Z</time>
      </trkpt>
      <trkpt lat="47.29313" lon="-0.48289">
        <ele>83.2</ele>
        <time>2020-08-02T09:14:04Z</time>
      </trkpt>
      <trkpt lat="47.29311" lon="-0.48293">
        <ele>83.2</ele>
        <time>2020-08-02T09:14:05Z</time>
      </trkpt>
      <trkpt lat="47.2931" lon="-0.48296">
        <ele>83.2</ele>
        <time>2020-08-02T09:14:06Z</time>
      </trkpt>
      <trkpt lat="47.29308" lon="-0.48303">
        <ele>83.2</ele>
        <time>2020-08-02T09:14:07Z</time>
      </trkpt>
      <trkpt lat="47.29306" lon="-0.48305">
        <ele>83.2</ele>
        <time>2020-08-02T09:14:08Z</time>
      </trkpt>
      <trkpt lat="47.29302" lon="-0.48309">
        <ele>83.2</ele>
        <time>2020-08-02T09:14:09Z</time>
      </trkpt>
      <trkpt lat="47.29295" lon="-0.4832">
        <ele>83.4</ele>
        <time>2020-08-02T09:14:10Z</time>
      </trkpt>
      <trkpt lat="47.29293" lon="-0.48324">
        <ele>83.4</ele>
        <time>2020-08-02T09:14:11Z</time>
      </trkpt>
      <trkpt lat="47.29293" lon="-0.48329">
        <ele>83.4</ele>
        <time>2020-08-02T09:14:12Z</time>
      </trkpt>
      <trkpt lat="47.29292" lon="-0.48333">
        <ele>83.4</ele>
        <time>2020-08-02T09:14:13Z</time>
      </trkpt>
      <trkpt lat="47.2929" lon="-0.4834">
        <ele>83.4</ele>
        <time>2020-08-02T09:14:14Z</time>
      </trkpt>
      <trkpt lat="47.29285" lon="-0.48357">
        <ele>83.4</ele>
        <time>2020-08-02T09:14:17Z</time>
      </trkpt>
      <trkpt lat="47.29284" lon="-0.48362">
        <ele>83.4</ele>
        <time>2020-08-02T09:14:18Z</time>
      </trkpt>
      <trkpt lat="47.29283" lon="-0.48365">
        <ele>83.4</ele>
        <time>2020-08-02T09:14:19Z</time>
      </trkpt>
      <trkpt lat="47.29283" lon="-0.48373">
        <ele>83.6</ele>
        <time>2020-08-02T09:14:21Z</time>
      </trkpt>
      <trkpt lat="47.29283" lon="-0.48376">
        <ele>83.6</ele>
        <time>2020-08-02T09:14:22Z</time>
      </trkpt>
      <trkpt lat="47.29282" lon="-0.48382">
        <ele>83.6</ele>
        <time>2020-08-02T09:14:23Z</time>
      </trkpt>
      <trkpt lat="47.29282" lon="-0.48386">
        <ele>83.6</ele>
        <time>2020-08-02T09:14:24Z</time>
      </trkpt>
      <trkpt lat="47.29281" lon="-0.48391">
        <ele>83.6</ele>
        <time>2020-08-02T09:14:25Z</time>
      </trkpt>
      <trkpt lat="47.29279" lon="-0.48396">
        <ele>83.4</ele>
        <time>2020-08-02T09:14:26Z</time>
      </trkpt>
      <trkpt lat="47.29279" lon="-0.48399">
        <ele>83.4</ele>
        <time>2020-08-02T09:14:27Z</time>
      </trkpt>
      <trkpt lat="47.29278" lon="-0.48404">
        <ele>83.4</ele>
        <time>2020-08-02T09:14:28Z</time>
      </trkpt>
      <trkpt lat="47.29277" lon="-0.48408">
        <ele>83.4</ele>
        <time>2020-08-02T09:14:29Z</time>
      </trkpt>
      <trkpt lat="47.29276" lon="-0.48414">
        <ele>83.4</ele>
        <time>2020-08-02T09:14:30Z</time>
      </trkpt>
      <trkpt lat="47.29275" lon="-0.48419">
        <ele>83.2</ele>
        <time>2020-08-02T09:14:31Z</time>
      </trkpt>
      <trkpt lat="47.29274" lon="-0.4843">
        <ele>83</ele>
        <time>2020-08-02T09:14:33Z</time>
      </trkpt>
      <trkpt lat="47.29273" lon="-0.48434">
        <ele>83</ele>
        <time>2020-08-02T09:14:34Z</time>
      </trkpt>
      <trkpt lat="47.29274" lon="-0.48436">
        <ele>83</ele>
        <time>2020-08-02T09:14:35Z</time>
      </trkpt>
      <trkpt lat="47.29272" lon="-0.48444">
        <ele>83</ele>
        <time>2020-08-02T09:14:36Z</time>
      </trkpt>
      <trkpt lat="47.29271" lon="-0.48449">
        <ele>83</ele>
        <time>2020-08-02T09:14:37Z</time>
      </trkpt>
      <trkpt lat="47.29269" lon="-0.48454">
        <ele>83</ele>
        <time>2020-08-02T09:14:38Z</time>
      </trkpt>
      <trkpt lat="47.29269" lon="-0.48459">
        <ele>83.2</ele>
        <time>2020-08-02T09:14:39Z</time>
      </trkpt>
      <trkpt lat="47.2927" lon="-0.48466">
        <ele>83.2</ele>
        <time>2020-08-02T09:14:40Z</time>
      </trkpt>
      <trkpt lat="47.2927" lon="-0.48471">
        <ele>83.2</ele>
        <time>2020-08-02T09:14:41Z</time>
      </trkpt>
      <trkpt lat="47.29271" lon="-0.48479">
        <ele>83.2</ele>
        <time>2020-08-02T09:14:42Z</time>
      </trkpt>
      <trkpt lat="47.29272" lon="-0.48486">
        <ele>83.2</ele>
        <time>2020-08-02T09:14:44Z</time>
      </trkpt>
      <trkpt lat="47.29272" lon="-0.48489">
        <ele>83.2</ele>
        <time>2020-08-02T09:14:45Z</time>
      </trkpt>
      <trkpt lat="47.29271" lon="-0.48497">
        <ele>83.2</ele>
        <time>2020-08-02T09:14:46Z</time>
      </trkpt>
      <trkpt lat="47.29269" lon="-0.48504">
        <ele>83.2</ele>
        <time>2020-08-02T09:14:47Z</time>
      </trkpt>
      <trkpt lat="47.29268" lon="-0.48509">
        <ele>83</ele>
        <time>2020-08-02T09:14:48Z</time>
      </trkpt>
      <trkpt lat="47.29268" lon="-0.48515">
        <ele>83</ele>
        <time>2020-08-02T09:14:49Z</time>
      </trkpt>
      <trkpt lat="47.29269" lon="-0.48519">
        <ele>83.2</ele>
        <time>2020-08-02T09:14:50Z</time>
      </trkpt>
      <trkpt lat="47.29271" lon="-0.48529">
        <ele>83</ele>
        <time>2020-08-02T09:14:52Z</time>
      </trkpt>
      <trkpt lat="47.29271" lon="-0.48536">
        <ele>83</ele>
        <time>2020-08-02T09:14:53Z</time>
      </trkpt>
      <trkpt lat="47.2927" lon="-0.48558">
        <ele>82.8</ele>
        <time>2020-08-02T09:14:56Z</time>
      </trkpt>
      <trkpt lat="47.29271" lon="-0.48564">
        <ele>82.8</ele>
        <time>2020-08-02T09:14:57Z</time>
      </trkpt>
      <trkpt lat="47.29273" lon="-0.48568">
        <ele>82.6</ele>
        <time>2020-08-02T09:14:58Z</time>
      </trkpt>
      <trkpt lat="47.29275" lon="-0.48572">
        <ele>82.6</ele>
        <time>2020-08-02T09:14:59Z</time>
      </trkpt>
      <trkpt lat="47.29276" lon="-0.48575">
        <ele>82.4</ele>
        <time>2020-08-02T09:15:00Z</time>
      </trkpt>
      <trkpt lat="47.29276" lon="-0.4858">
        <ele>82.2</ele>
        <time>2020-08-02T09:15:01Z</time>
      </trkpt>
      <trkpt lat="47.29275" lon="-0.48585">
        <ele>82.2</ele>
        <time>2020-08-02T09:15:02Z</time>
      </trkpt>
      <trkpt lat="47.29274" lon="-0.48589">
        <ele>82.2</ele>
        <time>2020-08-02T09:15:03Z</time>
      </trkpt>
      <trkpt lat="47.29272" lon="-0.48591">
        <ele>82.2</ele>
        <time>2020-08-02T09:15:04Z</time>
      </trkpt>
      <trkpt lat="47.29271" lon="-0.48592">
        <ele>82.2</ele>
        <time>2020-08-02T09:15:05Z</time>
      </trkpt>
      <trkpt lat="47.29269" lon="-0.48592">
        <ele>82.2</ele>
        <time>2020-08-02T09:15:06Z</time>
      </trkpt>
      <trkpt lat="47.29266" lon="-0.48593">
        <ele>82.2</ele>
        <time>2020-08-02T09:15:07Z</time>
      </trkpt>
      <trkpt lat="47.29263" lon="-0.48592">
        <ele>82.2</ele>
        <time>2020-08-02T09:15:08Z</time>
      </trkpt>
      <trkpt lat="47.29256" lon="-0.48591">
        <ele>82.2</ele>
        <time>2020-08-02T09:15:10Z</time>
      </trkpt>
      <trkpt lat="47.29247" lon="-0.4859">
        <ele>82.4</ele>
        <time>2020-08-02T09:15:12Z</time>
      </trkpt>
      <trkpt lat="47.29239" lon="-0.48589">
        <ele>82.4</ele>
        <time>2020-08-02T09:15:14Z</time>
      </trkpt>
      <trkpt lat="47.29236" lon="-0.48589">
        <ele>82.4</ele>
        <time>2020-08-02T09:15:15Z</time>
      </trkpt>
      <trkpt lat="47.29224" lon="-0.48588">
        <ele>82.4</ele>
        <time>2020-08-02T09:15:18Z</time>
      </trkpt>
      <trkpt lat="47.29204" lon="-0.48587">
        <ele>82.4</ele>
        <time>2020-08-02T09:15:23Z</time>
      </trkpt>
      <trkpt lat="47.29201" lon="-0.48586">
        <ele>82.2</ele>
        <time>2020-08-02T09:15:24Z</time>
      </trkpt>
      <trkpt lat="47.29196" lon="-0.48585">
        <ele>82.2</ele>
        <time>2020-08-02T09:15:25Z</time>
      </trkpt>
      <trkpt lat="47.29193" lon="-0.48584">
        <ele>82.2</ele>
        <time>2020-08-02T09:15:26Z</time>
      </trkpt>
      <trkpt lat="47.2919" lon="-0.48583">
        <ele>82.2</ele>
        <time>2020-08-02T09:15:27Z</time>
      </trkpt>
      <trkpt lat="47.29186" lon="-0.48582">
        <ele>82.2</ele>
        <time>2020-08-02T09:15:28Z</time>
      </trkpt>
      <trkpt lat="47.29182" lon="-0.48581">
        <ele>82.2</ele>
        <time>2020-08-02T09:15:29Z</time>
      </trkpt>
      <trkpt lat="47.29178" lon="-0.48579">
        <ele>82.2</ele>
        <time>2020-08-02T09:15:30Z</time>
      </trkpt>
      <trkpt lat="47.29174" lon="-0.48577">
        <ele>82.2</ele>
        <time>2020-08-02T09:15:31Z</time>
      </trkpt>
      <trkpt lat="47.2917" lon="-0.48574">
        <ele>82.2</ele>
        <time>2020-08-02T09:15:32Z</time>
      </trkpt>
      <trkpt lat="47.29167" lon="-0.48572">
        <ele>82.2</ele>
        <time>2020-08-02T09:15:33Z</time>
      </trkpt>
      <trkpt lat="47.29158" lon="-0.48567">
        <ele>82.2</ele>
        <time>2020-08-02T09:15:35Z</time>
      </trkpt>
      <trkpt lat="47.29153" lon="-0.48566">
        <ele>82</ele>
        <time>2020-08-02T09:15:36Z</time>
      </trkpt>
      <trkpt lat="47.29149" lon="-0.48566">
        <ele>82</ele>
        <time>2020-08-02T09:15:37Z</time>
      </trkpt>
      <trkpt lat="47.29145" lon="-0.48566">
        <ele>82</ele>
        <time>2020-08-02T09:15:38Z</time>
      </trkpt>
      <trkpt lat="47.2914" lon="-0.48567">
        <ele>81.8</ele>
        <time>2020-08-02T09:15:39Z</time>
      </trkpt>
      <trkpt lat="47.29136" lon="-0.48568">
        <ele>81.8</ele>
        <time>2020-08-02T09:15:40Z</time>
      </trkpt>
      <trkpt lat="47.2911" lon="-0.48572">
        <ele>81.8</ele>
        <time>2020-08-02T09:15:46Z</time>
      </trkpt>
      <trkpt lat="47.29062" lon="-0.48579">
        <ele>82.2</ele>
        <time>2020-08-02T09:15:56Z</time>
      </trkpt>
      <trkpt lat="47.29048" lon="-0.48578">
        <ele>82.4</ele>
        <time>2020-08-02T09:15:59Z</time>
      </trkpt>
      <trkpt lat="47.29044" lon="-0.48577">
        <ele>82.4</ele>
        <time>2020-08-02T09:16:00Z</time>
      </trkpt>
      <trkpt lat="47.2904" lon="-0.48573">
        <ele>82.4</ele>
        <time>2020-08-02T09:16:01Z</time>
      </trkpt>
      <trkpt lat="47.29036" lon="-0.48569">
        <ele>82.4</ele>
        <time>2020-08-02T09:16:02Z</time>
      </trkpt>
      <trkpt lat="47.29032" lon="-0.48564">
        <ele>82.4</ele>
        <time>2020-08-02T09:16:03Z</time>
      </trkpt>
      <trkpt lat="47.29025" lon="-0.48554">
        <ele>82.4</ele>
        <time>2020-08-02T09:16:05Z</time>
      </trkpt>
      <trkpt lat="47.29022" lon="-0.48548">
        <ele>82.4</ele>
        <time>2020-08-02T09:16:06Z</time>
      </trkpt>
      <trkpt lat="47.28998" lon="-0.48495">
        <ele>83</ele>
        <time>2020-08-02T09:16:15Z</time>
      </trkpt>
      <trkpt lat="47.28995" lon="-0.48489">
        <ele>83</ele>
        <time>2020-08-02T09:16:16Z</time>
      </trkpt>
      <trkpt lat="47.28992" lon="-0.48483">
        <ele>83</ele>
        <time>2020-08-02T09:16:17Z</time>
      </trkpt>
      <trkpt lat="47.28964" lon="-0.48422">
        <ele>83.4</ele>
        <time>2020-08-02T09:16:27Z</time>
      </trkpt>
      <trkpt lat="47.28949" lon="-0.4839">
        <ele>83.4</ele>
        <time>2020-08-02T09:16:32Z</time>
      </trkpt>
      <trkpt lat="47.28944" lon="-0.48378">
        <ele>83.6</ele>
        <time>2020-08-02T09:16:34Z</time>
      </trkpt>
      <trkpt lat="47.28938" lon="-0.48366">
        <ele>83.4</ele>
        <time>2020-08-02T09:16:36Z</time>
      </trkpt>
      <trkpt lat="47.28936" lon="-0.48361">
        <ele>83.4</ele>
        <time>2020-08-02T09:16:37Z</time>
      </trkpt>
      <trkpt lat="47.28933" lon="-0.48357">
        <ele>83.6</ele>
        <time>2020-08-02T09:16:38Z</time>
      </trkpt>
      <trkpt lat="47.28929" lon="-0.48353">
        <ele>83.6</ele>
        <time>2020-08-02T09:16:39Z</time>
      </trkpt>
      <trkpt lat="47.28926" lon="-0.48352">
        <ele>83.8</ele>
        <time>2020-08-02T09:16:40Z</time>
      </trkpt>
      <trkpt lat="47.28922" lon="-0.48354">
        <ele>83.8</ele>
        <time>2020-08-02T09:16:41Z</time>
      </trkpt>
      <trkpt lat="47.28918" lon="-0.48356">
        <ele>83.8</ele>
        <time>2020-08-02T09:16:42Z</time>
      </trkpt>
      <trkpt lat="47.28913" lon="-0.48359">
        <ele>84</ele>
        <time>2020-08-02T09:16:43Z</time>
      </trkpt>
      <trkpt lat="47.28909" lon="-0.48362">
        <ele>84</ele>
        <time>2020-08-02T09:16:44Z</time>
      </trkpt>
      <trkpt lat="47.28861" lon="-0.48389">
        <ele>84.4</ele>
        <time>2020-08-02T09:16:54Z</time>
      </trkpt>
      <trkpt lat="47.28835" lon="-0.48404">
        <ele>85</ele>
        <time>2020-08-02T09:17:00Z</time>
      </trkpt>
      <trkpt lat="47.28821" lon="-0.48412">
        <ele>85.2</ele>
        <time>2020-08-02T09:17:03Z</time>
      </trkpt>
      <trkpt lat="47.28816" lon="-0.48415">
        <ele>85.4</ele>
        <time>2020-08-02T09:17:04Z</time>
      </trkpt>
      <trkpt lat="47.28811" lon="-0.48417">
        <ele>85.4</ele>
        <time>2020-08-02T09:17:05Z</time>
      </trkpt>
      <trkpt lat="47.28807" lon="-0.4842">
        <ele>85.6</ele>
        <time>2020-08-02T09:17:06Z</time>
      </trkpt>
      <trkpt lat="47.28803" lon="-0.48423">
        <ele>85.6</ele>
        <time>2020-08-02T09:17:07Z</time>
      </trkpt>
      <trkpt lat="47.28799" lon="-0.48427">
        <ele>85.6</ele>
        <time>2020-08-02T09:17:08Z</time>
      </trkpt>
      <trkpt lat="47.28795" lon="-0.4843">
        <ele>85.6</ele>
        <time>2020-08-02T09:17:09Z</time>
      </trkpt>
      <trkpt lat="47.28791" lon="-0.48434">
        <ele>85.8</ele>
        <time>2020-08-02T09:17:10Z</time>
      </trkpt>
      <trkpt lat="47.28788" lon="-0.48438">
        <ele>85.8</ele>
        <time>2020-08-02T09:17:11Z</time>
      </trkpt>
      <trkpt lat="47.28784" lon="-0.48442">
        <ele>86</ele>
        <time>2020-08-02T09:17:12Z</time>
      </trkpt>
      <trkpt lat="47.2878" lon="-0.48446">
        <ele>86.2</ele>
        <time>2020-08-02T09:17:13Z</time>
      </trkpt>
      <trkpt lat="47.28777" lon="-0.4845">
        <ele>86.4</ele>
        <time>2020-08-02T09:17:14Z</time>
      </trkpt>
      <trkpt lat="47.28773" lon="-0.48455">
        <ele>86.6</ele>
        <time>2020-08-02T09:17:15Z</time>
      </trkpt>
      <trkpt lat="47.28769" lon="-0.48459">
        <ele>86.8</ele>
        <time>2020-08-02T09:17:16Z</time>
      </trkpt>
      <trkpt lat="47.28765" lon="-0.48463">
        <ele>86.8</ele>
        <time>2020-08-02T09:17:17Z</time>
      </trkpt>
      <trkpt lat="47.28762" lon="-0.48468">
        <ele>86.8</ele>
        <time>2020-08-02T09:17:18Z</time>
      </trkpt>
      <trkpt lat="47.28758" lon="-0.48473">
        <ele>86.8</ele>
        <time>2020-08-02T09:17:19Z</time>
      </trkpt>
      <trkpt lat="47.28754" lon="-0.48477">
        <ele>86.8</ele>
        <time>2020-08-02T09:17:20Z</time>
      </trkpt>
      <trkpt lat="47.28751" lon="-0.48482">
        <ele>86.8</ele>
        <time>2020-08-02T09:17:21Z</time>
      </trkpt>
      <trkpt lat="47.28721" lon="-0.48519">
        <ele>87.2</ele>
        <time>2020-08-02T09:17:29Z</time>
      </trkpt>
      <trkpt lat="47.28705" lon="-0.48538">
        <ele>87.6</ele>
        <time>2020-08-02T09:17:33Z</time>
      </trkpt>
      <trkpt lat="47.28694" lon="-0.48552">
        <ele>87.6</ele>
        <time>2020-08-02T09:17:36Z</time>
      </trkpt>
      <trkpt lat="47.2869" lon="-0.48557">
        <ele>87.6</ele>
        <time>2020-08-02T09:17:37Z</time>
      </trkpt>
      <trkpt lat="47.28687" lon="-0.48563">
        <ele>87.6</ele>
        <time>2020-08-02T09:17:38Z</time>
      </trkpt>
      <trkpt lat="47.28683" lon="-0.48568">
        <ele>87.6</ele>
        <time>2020-08-02T09:17:39Z</time>
      </trkpt>
      <trkpt lat="47.28679" lon="-0.48573">
        <ele>87.8</ele>
        <time>2020-08-02T09:17:40Z</time>
      </trkpt>
      <trkpt lat="47.28677" lon="-0.48577">
        <ele>87.8</ele>
        <time>2020-08-02T09:17:41Z</time>
      </trkpt>
      <trkpt lat="47.28674" lon="-0.48582">
        <ele>87.8</ele>
        <time>2020-08-02T09:17:42Z</time>
      </trkpt>
      <trkpt lat="47.2867" lon="-0.48587">
        <ele>88</ele>
        <time>2020-08-02T09:17:43Z</time>
      </trkpt>
      <trkpt lat="47.28667" lon="-0.48592">
        <ele>88</ele>
        <time>2020-08-02T09:17:44Z</time>
      </trkpt>
      <trkpt lat="47.28664" lon="-0.48596">
        <ele>88</ele>
        <time>2020-08-02T09:17:45Z</time>
      </trkpt>
      <trkpt lat="47.28661" lon="-0.48602">
        <ele>88.2</ele>
        <time>2020-08-02T09:17:46Z</time>
      </trkpt>
      <trkpt lat="47.28658" lon="-0.48607">
        <ele>88.2</ele>
        <time>2020-08-02T09:17:47Z</time>
      </trkpt>
      <trkpt lat="47.28655" lon="-0.48612">
        <ele>88.4</ele>
        <time>2020-08-02T09:17:48Z</time>
      </trkpt>
      <trkpt lat="47.28652" lon="-0.48616">
        <ele>88.4</ele>
        <time>2020-08-02T09:17:49Z</time>
      </trkpt>
      <trkpt lat="47.2865" lon="-0.48621">
        <ele>88.4</ele>
        <time>2020-08-02T09:17:50Z</time>
      </trkpt>
      <trkpt lat="47.28647" lon="-0.48625">
        <ele>88.4</ele>
        <time>2020-08-02T09:17:51Z</time>
      </trkpt>
      <trkpt lat="47.28644" lon="-0.4863">
        <ele>88.4</ele>
        <time>2020-08-02T09:17:52Z</time>
      </trkpt>
      <trkpt lat="47.28642" lon="-0.48634">
        <ele>88.4</ele>
        <time>2020-08-02T09:17:53Z</time>
      </trkpt>
      <trkpt lat="47.28638" lon="-0.48638">
        <ele>88.4</ele>
        <time>2020-08-02T09:17:54Z</time>
      </trkpt>
      <trkpt lat="47.28637" lon="-0.48641">
        <ele>88.4</ele>
        <time>2020-08-02T09:17:55Z</time>
      </trkpt>
      <trkpt lat="47.28635" lon="-0.48645">
        <ele>88.4</ele>
        <time>2020-08-02T09:17:56Z</time>
      </trkpt>
      <trkpt lat="47.28633" lon="-0.48648">
        <ele>88.4</ele>
        <time>2020-08-02T09:17:57Z</time>
      </trkpt>
      <trkpt lat="47.28632" lon="-0.48651">
        <ele>88.6</ele>
        <time>2020-08-02T09:17:58Z</time>
      </trkpt>
      <trkpt lat="47.2863" lon="-0.48654">
        <ele>88.6</ele>
        <time>2020-08-02T09:17:59Z</time>
      </trkpt>
      <trkpt lat="47.28629" lon="-0.48656">
        <ele>88.6</ele>
        <time>2020-08-02T09:18:00Z</time>
      </trkpt>
      <trkpt lat="47.28627" lon="-0.48658">
        <ele>88.6</ele>
        <time>2020-08-02T09:18:01Z</time>
      </trkpt>
      <trkpt lat="47.28626" lon="-0.48661">
        <ele>88.6</ele>
        <time>2020-08-02T09:18:02Z</time>
      </trkpt>
      <trkpt lat="47.28623" lon="-0.48665">
        <ele>88.4</ele>
        <time>2020-08-02T09:18:04Z</time>
      </trkpt>
      <trkpt lat="47.28621" lon="-0.48667">
        <ele>88.4</ele>
        <time>2020-08-02T09:18:05Z</time>
      </trkpt>
      <trkpt lat="47.28621" lon="-0.48668">
        <ele>88.4</ele>
        <time>2020-08-02T09:18:06Z</time>
      </trkpt>
      <trkpt lat="47.2862" lon="-0.4867">
        <ele>88.4</ele>
        <time>2020-08-02T09:18:07Z</time>
      </trkpt>
      <trkpt lat="47.28618" lon="-0.48671">
        <ele>88.4</ele>
        <time>2020-08-02T09:18:08Z</time>
      </trkpt>
      <trkpt lat="47.28617" lon="-0.48673">
        <ele>88.4</ele>
        <time>2020-08-02T09:18:09Z</time>
      </trkpt>
      <trkpt lat="47.28616" lon="-0.48675">
        <ele>88.4</ele>
        <time>2020-08-02T09:18:11Z</time>
      </trkpt>
      <trkpt lat="47.28614" lon="-0.48677">
        <ele>88.6</ele>
        <time>2020-08-02T09:18:12Z</time>
      </trkpt>
      <trkpt lat="47.28613" lon="-0.48679">
        <ele>88.6</ele>
        <time>2020-08-02T09:18:13Z</time>
      </trkpt>
      <trkpt lat="47.28612" lon="-0.48681">
        <ele>88.6</ele>
        <time>2020-08-02T09:18:14Z</time>
      </trkpt>
      <trkpt lat="47.28611" lon="-0.48682">
        <ele>88.6</ele>
        <time>2020-08-02T09:18:15Z</time>
      </trkpt>
      <trkpt lat="47.2861" lon="-0.48684">
        <ele>88.6</ele>
        <time>2020-08-02T09:18:16Z</time>
      </trkpt>
      <trkpt lat="47.28609" lon="-0.48686">
        <ele>88.6</ele>
        <time>2020-08-02T09:18:17Z</time>
      </trkpt>
      <trkpt lat="47.28608" lon="-0.48688">
        <ele>88.6</ele>
        <time>2020-08-02T09:18:18Z</time>
      </trkpt>
      <trkpt lat="47.28605" lon="-0.48692">
        <ele>88.6</ele>
        <time>2020-08-02T09:18:20Z</time>
      </trkpt>
      <trkpt lat="47.28603" lon="-0.48695">
        <ele>88.6</ele>
        <time>2020-08-02T09:18:22Z</time>
      </trkpt>
      <trkpt lat="47.28602" lon="-0.48696">
        <ele>88.6</ele>
        <time>2020-08-02T09:18:23Z</time>
      </trkpt>
      <trkpt lat="47.28592" lon="-0.48713">
        <ele>88.6</ele>
        <time>2020-08-02T09:18:29Z</time>
      </trkpt>
      <trkpt lat="47.28589" lon="-0.48719">
        <ele>88.6</ele>
        <time>2020-08-02T09:18:31Z</time>
      </trkpt>
      <trkpt lat="47.28587" lon="-0.48721">
        <ele>88.6</ele>
        <time>2020-08-02T09:18:32Z</time>
      </trkpt>
      <trkpt lat="47.28575" lon="-0.48738">
        <ele>88.8</ele>
        <time>2020-08-02T09:18:37Z</time>
      </trkpt>
      <trkpt lat="47.28563" lon="-0.48754">
        <ele>88.8</ele>
        <time>2020-08-02T09:18:42Z</time>
      </trkpt>
      <trkpt lat="47.2856" lon="-0.48758">
        <ele>88.8</ele>
        <time>2020-08-02T09:18:43Z</time>
      </trkpt>
      <trkpt lat="47.28554" lon="-0.48765">
        <ele>89</ele>
        <time>2020-08-02T09:18:45Z</time>
      </trkpt>
      <trkpt lat="47.28543" lon="-0.4878">
        <ele>89</ele>
        <time>2020-08-02T09:18:49Z</time>
      </trkpt>
      <trkpt lat="47.28529" lon="-0.488">
        <ele>89.2</ele>
        <time>2020-08-02T09:18:54Z</time>
      </trkpt>
      <trkpt lat="47.28524" lon="-0.48807">
        <ele>89.2</ele>
        <time>2020-08-02T09:18:56Z</time>
      </trkpt>
      <trkpt lat="47.28508" lon="-0.48835">
        <ele>89</ele>
        <time>2020-08-02T09:19:02Z</time>
      </trkpt>
      <trkpt lat="47.28502" lon="-0.48848">
        <ele>88.8</ele>
        <time>2020-08-02T09:19:05Z</time>
      </trkpt>
      <trkpt lat="47.28491" lon="-0.48876">
        <ele>88.8</ele>
        <time>2020-08-02T09:19:10Z</time>
      </trkpt>
      <trkpt lat="47.28487" lon="-0.48885">
        <ele>88.8</ele>
        <time>2020-08-02T09:19:12Z</time>
      </trkpt>
      <trkpt lat="47.28485" lon="-0.48889">
        <ele>88.8</ele>
        <time>2020-08-02T09:19:13Z</time>
      </trkpt>
      <trkpt lat="47.28482" lon="-0.48894">
        <ele>88.8</ele>
        <time>2020-08-02T09:19:14Z</time>
      </trkpt>
      <trkpt lat="47.28479" lon="-0.489">
        <ele>89</ele>
        <time>2020-08-02T09:19:15Z</time>
      </trkpt>
      <trkpt lat="47.28476" lon="-0.48905">
        <ele>89.2</ele>
        <time>2020-08-02T09:19:16Z</time>
      </trkpt>
      <trkpt lat="47.28473" lon="-0.48909">
        <ele>89.4</ele>
        <time>2020-08-02T09:19:17Z</time>
      </trkpt>
      <trkpt lat="47.28468" lon="-0.48917">
        <ele>89.6</ele>
        <time>2020-08-02T09:19:19Z</time>
      </trkpt>
      <trkpt lat="47.28461" lon="-0.48924">
        <ele>89.6</ele>
        <time>2020-08-02T09:19:21Z</time>
      </trkpt>
      <trkpt lat="47.28459" lon="-0.48927">
        <ele>89.6</ele>
        <time>2020-08-02T09:19:22Z</time>
      </trkpt>
      <trkpt lat="47.28456" lon="-0.4893">
        <ele>89.8</ele>
        <time>2020-08-02T09:19:23Z</time>
      </trkpt>
      <trkpt lat="47.28452" lon="-0.48934">
        <ele>89.8</ele>
        <time>2020-08-02T09:19:24Z</time>
      </trkpt>
      <trkpt lat="47.28449" lon="-0.48937">
        <ele>89.8</ele>
        <time>2020-08-02T09:19:25Z</time>
      </trkpt>
      <trkpt lat="47.28446" lon="-0.4894">
        <ele>89.8</ele>
        <time>2020-08-02T09:19:26Z</time>
      </trkpt>
      <trkpt lat="47.28439" lon="-0.48945">
        <ele>89.8</ele>
        <time>2020-08-02T09:19:28Z</time>
      </trkpt>
      <trkpt lat="47.28436" lon="-0.48948">
        <ele>89.8</ele>
        <time>2020-08-02T09:19:29Z</time>
      </trkpt>
      <trkpt lat="47.28432" lon="-0.48951">
        <ele>89.8</ele>
        <time>2020-08-02T09:19:30Z</time>
      </trkpt>
      <trkpt lat="47.28429" lon="-0.48954">
        <ele>89.8</ele>
        <time>2020-08-02T09:19:31Z</time>
      </trkpt>
      <trkpt lat="47.28426" lon="-0.48956">
        <ele>89.8</ele>
        <time>2020-08-02T09:19:32Z</time>
      </trkpt>
      <trkpt lat="47.28421" lon="-0.4896">
        <ele>89.8</ele>
        <time>2020-08-02T09:19:33Z</time>
      </trkpt>
      <trkpt lat="47.28403" lon="-0.48975">
        <ele>89.8</ele>
        <time>2020-08-02T09:19:38Z</time>
      </trkpt>
      <trkpt lat="47.28386" lon="-0.48987">
        <ele>90</ele>
        <time>2020-08-02T09:19:43Z</time>
      </trkpt>
      <trkpt lat="47.28384" lon="-0.48989">
        <ele>90.2</ele>
        <time>2020-08-02T09:19:44Z</time>
      </trkpt>
      <trkpt lat="47.28382" lon="-0.48991">
        <ele>90.2</ele>
        <time>2020-08-02T09:19:45Z</time>
      </trkpt>
      <trkpt lat="47.28379" lon="-0.48992">
        <ele>90.2</ele>
        <time>2020-08-02T09:19:46Z</time>
      </trkpt>
      <trkpt lat="47.28377" lon="-0.48992">
        <ele>90.2</ele>
        <time>2020-08-02T09:19:47Z</time>
      </trkpt>
      <trkpt lat="47.28374" lon="-0.4899">
        <ele>90.4</ele>
        <time>2020-08-02T09:19:48Z</time>
      </trkpt>
      <trkpt lat="47.28372" lon="-0.48987">
        <ele>90.4</ele>
        <time>2020-08-02T09:19:49Z</time>
      </trkpt>
      <trkpt lat="47.28371" lon="-0.48984">
        <ele>90.4</ele>
        <time>2020-08-02T09:19:50Z</time>
      </trkpt>
      <trkpt lat="47.28369" lon="-0.4898">
        <ele>90.4</ele>
        <time>2020-08-02T09:19:51Z</time>
      </trkpt>
      <trkpt lat="47.28367" lon="-0.48971">
        <ele>90.4</ele>
        <time>2020-08-02T09:19:53Z</time>
      </trkpt>
      <trkpt lat="47.28367" lon="-0.48967">
        <ele>90.4</ele>
        <time>2020-08-02T09:19:54Z</time>
      </trkpt>
      <trkpt lat="47.28365" lon="-0.48964">
        <ele>90.4</ele>
        <time>2020-08-02T09:19:55Z</time>
      </trkpt>
      <trkpt lat="47.28364" lon="-0.4896">
        <ele>90.4</ele>
        <time>2020-08-02T09:19:56Z</time>
      </trkpt>
      <trkpt lat="47.28362" lon="-0.48956">
        <ele>90.4</ele>
        <time>2020-08-02T09:19:57Z</time>
      </trkpt>
      <trkpt lat="47.28361" lon="-0.48952">
        <ele>90.4</ele>
        <time>2020-08-02T09:19:58Z</time>
      </trkpt>
      <trkpt lat="47.28359" lon="-0.48949">
        <ele>90.4</ele>
        <time>2020-08-02T09:19:59Z</time>
      </trkpt>
      <trkpt lat="47.28358" lon="-0.48945">
        <ele>90.4</ele>
        <time>2020-08-02T09:20:00Z</time>
      </trkpt>
      <trkpt lat="47.28356" lon="-0.48941">
        <ele>90.4</ele>
        <time>2020-08-02T09:20:01Z</time>
      </trkpt>
      <trkpt lat="47.28353" lon="-0.48935">
        <ele>90.4</ele>
        <time>2020-08-02T09:20:02Z</time>
      </trkpt>
      <trkpt lat="47.28351" lon="-0.4893">
        <ele>90.4</ele>
        <time>2020-08-02T09:20:03Z</time>
      </trkpt>
      <trkpt lat="47.28349" lon="-0.48926">
        <ele>90.4</ele>
        <time>2020-08-02T09:20:04Z</time>
      </trkpt>
      <trkpt lat="47.28347" lon="-0.48921">
        <ele>90.4</ele>
        <time>2020-08-02T09:20:05Z</time>
      </trkpt>
      <trkpt lat="47.28335" lon="-0.48899">
        <ele>90.2</ele>
        <time>2020-08-02T09:20:09Z</time>
      </trkpt>
      <trkpt lat="47.28308" lon="-0.4885">
        <ele>90.2</ele>
        <time>2020-08-02T09:20:18Z</time>
      </trkpt>
      <trkpt lat="47.28298" lon="-0.48832">
        <ele>90</ele>
        <time>2020-08-02T09:20:21Z</time>
      </trkpt>
      <trkpt lat="47.28292" lon="-0.48823">
        <ele>90</ele>
        <time>2020-08-02T09:20:23Z</time>
      </trkpt>
      <trkpt lat="47.28289" lon="-0.48818">
        <ele>90</ele>
        <time>2020-08-02T09:20:24Z</time>
      </trkpt>
      <trkpt lat="47.28286" lon="-0.48813">
        <ele>90</ele>
        <time>2020-08-02T09:20:25Z</time>
      </trkpt>
      <trkpt lat="47.28282" lon="-0.48807">
        <ele>90</ele>
        <time>2020-08-02T09:20:26Z</time>
      </trkpt>
      <trkpt lat="47.2828" lon="-0.48802">
        <ele>90</ele>
        <time>2020-08-02T09:20:27Z</time>
      </trkpt>
      <trkpt lat="47.28277" lon="-0.48798">
        <ele>90</ele>
        <time>2020-08-02T09:20:28Z</time>
      </trkpt>
      <trkpt lat="47.28274" lon="-0.48792">
        <ele>90</ele>
        <time>2020-08-02T09:20:29Z</time>
      </trkpt>
      <trkpt lat="47.2827" lon="-0.48786">
        <ele>90</ele>
        <time>2020-08-02T09:20:30Z</time>
      </trkpt>
      <trkpt lat="47.28268" lon="-0.48782">
        <ele>90</ele>
        <time>2020-08-02T09:20:31Z</time>
      </trkpt>
      <trkpt lat="47.28261" lon="-0.48769">
        <ele>89.6</ele>
        <time>2020-08-02T09:20:33Z</time>
      </trkpt>
      <trkpt lat="47.28235" lon="-0.48723">
        <ele>89.6</ele>
        <time>2020-08-02T09:20:41Z</time>
      </trkpt>
      <trkpt lat="47.28224" lon="-0.48698">
        <ele>89.4</ele>
        <time>2020-08-02T09:20:45Z</time>
      </trkpt>
      <trkpt lat="47.28221" lon="-0.48692">
        <ele>89.4</ele>
        <time>2020-08-02T09:20:46Z</time>
      </trkpt>
      <trkpt lat="47.28218" lon="-0.48686">
        <ele>89.4</ele>
        <time>2020-08-02T09:20:47Z</time>
      </trkpt>
      <trkpt lat="47.28215" lon="-0.48678">
        <ele>89.4</ele>
        <time>2020-08-02T09:20:48Z</time>
      </trkpt>
      <trkpt lat="47.28212" lon="-0.48672">
        <ele>89.6</ele>
        <time>2020-08-02T09:20:49Z</time>
      </trkpt>
      <trkpt lat="47.28211" lon="-0.48666">
        <ele>89.6</ele>
        <time>2020-08-02T09:20:50Z</time>
      </trkpt>
      <trkpt lat="47.28208" lon="-0.4866">
        <ele>89.6</ele>
        <time>2020-08-02T09:20:51Z</time>
      </trkpt>
      <trkpt lat="47.28205" lon="-0.48652">
        <ele>89.4</ele>
        <time>2020-08-02T09:20:52Z</time>
      </trkpt>
      <trkpt lat="47.28202" lon="-0.48646">
        <ele>89.4</ele>
        <time>2020-08-02T09:20:53Z</time>
      </trkpt>
      <trkpt lat="47.282" lon="-0.48641">
        <ele>89.4</ele>
        <time>2020-08-02T09:20:54Z</time>
      </trkpt>
      <trkpt lat="47.28197" lon="-0.48634">
        <ele>89.4</ele>
        <time>2020-08-02T09:20:55Z</time>
      </trkpt>
      <trkpt lat="47.28192" lon="-0.48621">
        <ele>89.6</ele>
        <time>2020-08-02T09:20:57Z</time>
      </trkpt>
      <trkpt lat="47.28189" lon="-0.48614">
        <ele>89.6</ele>
        <time>2020-08-02T09:20:58Z</time>
      </trkpt>
      <trkpt lat="47.28168" lon="-0.48562">
        <ele>89.4</ele>
        <time>2020-08-02T09:21:06Z</time>
      </trkpt>
      <trkpt lat="47.28139" lon="-0.48501">
        <ele>89.2</ele>
        <time>2020-08-02T09:21:15Z</time>
      </trkpt>
      <trkpt lat="47.28114" lon="-0.48448">
        <ele>89.2</ele>
        <time>2020-08-02T09:21:23Z</time>
      </trkpt>
      <trkpt lat="47.28107" lon="-0.48434">
        <ele>89.2</ele>
        <time>2020-08-02T09:21:25Z</time>
      </trkpt>
      <trkpt lat="47.28105" lon="-0.48429">
        <ele>89.4</ele>
        <time>2020-08-02T09:21:26Z</time>
      </trkpt>
      <trkpt lat="47.28102" lon="-0.48422">
        <ele>89.4</ele>
        <time>2020-08-02T09:21:27Z</time>
      </trkpt>
      <trkpt lat="47.28098" lon="-0.48416">
        <ele>89.2</ele>
        <time>2020-08-02T09:21:28Z</time>
      </trkpt>
      <trkpt lat="47.28095" lon="-0.48409">
        <ele>89.2</ele>
        <time>2020-08-02T09:21:29Z</time>
      </trkpt>
      <trkpt lat="47.28091" lon="-0.48401">
        <ele>89.2</ele>
        <time>2020-08-02T09:21:30Z</time>
      </trkpt>
      <trkpt lat="47.28089" lon="-0.48396">
        <ele>89.2</ele>
        <time>2020-08-02T09:21:31Z</time>
      </trkpt>
      <trkpt lat="47.28086" lon="-0.4839">
        <ele>89.4</ele>
        <time>2020-08-02T09:21:32Z</time>
      </trkpt>
      <trkpt lat="47.28082" lon="-0.48384">
        <ele>89.4</ele>
        <time>2020-08-02T09:21:33Z</time>
      </trkpt>
      <trkpt lat="47.28079" lon="-0.48379">
        <ele>89.4</ele>
        <time>2020-08-02T09:21:34Z</time>
      </trkpt>
      <trkpt lat="47.28074" lon="-0.48373">
        <ele>89.4</ele>
        <time>2020-08-02T09:21:35Z</time>
      </trkpt>
      <trkpt lat="47.28071" lon="-0.4837">
        <ele>89.4</ele>
        <time>2020-08-02T09:21:36Z</time>
      </trkpt>
      <trkpt lat="47.28067" lon="-0.48366">
        <ele>89.6</ele>
        <time>2020-08-02T09:21:37Z</time>
      </trkpt>
      <trkpt lat="47.28062" lon="-0.48364">
        <ele>89.6</ele>
        <time>2020-08-02T09:21:38Z</time>
      </trkpt>
      <trkpt lat="47.28057" lon="-0.48364">
        <ele>89.6</ele>
        <time>2020-08-02T09:21:39Z</time>
      </trkpt>
      <trkpt lat="47.28053" lon="-0.48364">
        <ele>89.8</ele>
        <time>2020-08-02T09:21:40Z</time>
      </trkpt>
      <trkpt lat="47.28049" lon="-0.48366">
        <ele>89.8</ele>
        <time>2020-08-02T09:21:41Z</time>
      </trkpt>
      <trkpt lat="47.28043" lon="-0.48368">
        <ele>89.8</ele>
        <time>2020-08-02T09:21:42Z</time>
      </trkpt>
      <trkpt lat="47.2804" lon="-0.4837">
        <ele>89.8</ele>
        <time>2020-08-02T09:21:43Z</time>
      </trkpt>
      <trkpt lat="47.28035" lon="-0.48373">
        <ele>89.8</ele>
        <time>2020-08-02T09:21:44Z</time>
      </trkpt>
      <trkpt lat="47.28031" lon="-0.48375">
        <ele>89.8</ele>
        <time>2020-08-02T09:21:45Z</time>
      </trkpt>
      <trkpt lat="47.28027" lon="-0.48377">
        <ele>89.8</ele>
        <time>2020-08-02T09:21:46Z</time>
      </trkpt>
      <trkpt lat="47.28023" lon="-0.4838">
        <ele>89.8</ele>
        <time>2020-08-02T09:21:47Z</time>
      </trkpt>
      <trkpt lat="47.28018" lon="-0.48383">
        <ele>89.8</ele>
        <time>2020-08-02T09:21:48Z</time>
      </trkpt>
      <trkpt lat="47.28014" lon="-0.48385">
        <ele>89.8</ele>
        <time>2020-08-02T09:21:49Z</time>
      </trkpt>
      <trkpt lat="47.28009" lon="-0.48388">
        <ele>89.8</ele>
        <time>2020-08-02T09:21:50Z</time>
      </trkpt>
      <trkpt lat="47.2798" lon="-0.48408">
        <ele>89.6</ele>
        <time>2020-08-02T09:21:56Z</time>
      </trkpt>
      <trkpt lat="47.27949" lon="-0.4843">
        <ele>88.8</ele>
        <time>2020-08-02T09:22:03Z</time>
      </trkpt>
      <trkpt lat="47.27944" lon="-0.48433">
        <ele>88.6</ele>
        <time>2020-08-02T09:22:04Z</time>
      </trkpt>
      <trkpt lat="47.27938" lon="-0.48437">
        <ele>88.6</ele>
        <time>2020-08-02T09:22:05Z</time>
      </trkpt>
      <trkpt lat="47.27899" lon="-0.48465">
        <ele>87.6</ele>
        <time>2020-08-02T09:22:13Z</time>
      </trkpt>
      <trkpt lat="47.27894" lon="-0.48468">
        <ele>87.2</ele>
        <time>2020-08-02T09:22:14Z</time>
      </trkpt>
      <trkpt lat="47.27872" lon="-0.48481">
        <ele>86.4</ele>
        <time>2020-08-02T09:22:18Z</time>
      </trkpt>
      <trkpt lat="47.27853" lon="-0.48492">
        <ele>85.4</ele>
        <time>2020-08-02T09:22:21Z</time>
      </trkpt>
      <trkpt lat="47.27842" lon="-0.48499">
        <ele>84.8</ele>
        <time>2020-08-02T09:22:23Z</time>
      </trkpt>
      <trkpt lat="47.2782" lon="-0.48513">
        <ele>84</ele>
        <time>2020-08-02T09:22:26Z</time>
      </trkpt>
      <trkpt lat="47.27806" lon="-0.48522">
        <ele>83.2</ele>
        <time>2020-08-02T09:22:28Z</time>
      </trkpt>
      <trkpt lat="47.27794" lon="-0.48532">
        <ele>82.4</ele>
        <time>2020-08-02T09:22:30Z</time>
      </trkpt>
      <trkpt lat="47.27788" lon="-0.48537">
        <ele>82.2</ele>
        <time>2020-08-02T09:22:31Z</time>
      </trkpt>
      <trkpt lat="47.27781" lon="-0.48542">
        <ele>81.6</ele>
        <time>2020-08-02T09:22:32Z</time>
      </trkpt>
      <trkpt lat="47.27775" lon="-0.48547">
        <ele>81</ele>
        <time>2020-08-02T09:22:33Z</time>
      </trkpt>
      <trkpt lat="47.27769" lon="-0.48551">
        <ele>80.8</ele>
        <time>2020-08-02T09:22:34Z</time>
      </trkpt>
      <trkpt lat="47.27764" lon="-0.48554">
        <ele>80.6</ele>
        <time>2020-08-02T09:22:35Z</time>
      </trkpt>
      <trkpt lat="47.2776" lon="-0.48557">
        <ele>80.6</ele>
        <time>2020-08-02T09:22:36Z</time>
      </trkpt>
      <trkpt lat="47.27756" lon="-0.48557">
        <ele>80.4</ele>
        <time>2020-08-02T09:22:37Z</time>
      </trkpt>
      <trkpt lat="47.27752" lon="-0.48556">
        <ele>80.2</ele>
        <time>2020-08-02T09:22:38Z</time>
      </trkpt>
      <trkpt lat="47.2775" lon="-0.48555">
        <ele>80.2</ele>
        <time>2020-08-02T09:22:39Z</time>
      </trkpt>
      <trkpt lat="47.27746" lon="-0.48552">
        <ele>80.2</ele>
        <time>2020-08-02T09:22:40Z</time>
      </trkpt>
      <trkpt lat="47.27743" lon="-0.48549">
        <ele>80</ele>
        <time>2020-08-02T09:22:41Z</time>
      </trkpt>
      <trkpt lat="47.2774" lon="-0.48544">
        <ele>80</ele>
        <time>2020-08-02T09:22:42Z</time>
      </trkpt>
      <trkpt lat="47.27728" lon="-0.4853">
        <ele>80</ele>
        <time>2020-08-02T09:22:45Z</time>
      </trkpt>
      <trkpt lat="47.27719" lon="-0.48521">
        <ele>80</ele>
        <time>2020-08-02T09:22:47Z</time>
      </trkpt>
      <trkpt lat="47.27711" lon="-0.48513">
        <ele>80</ele>
        <time>2020-08-02T09:22:49Z</time>
      </trkpt>
      <trkpt lat="47.27708" lon="-0.4851">
        <ele>80</ele>
        <time>2020-08-02T09:22:50Z</time>
      </trkpt>
      <trkpt lat="47.27704" lon="-0.48507">
        <ele>80</ele>
        <time>2020-08-02T09:22:51Z</time>
      </trkpt>
      <trkpt lat="47.277" lon="-0.48505">
        <ele>80</ele>
        <time>2020-08-02T09:22:52Z</time>
      </trkpt>
      <trkpt lat="47.27697" lon="-0.48501">
        <ele>80</ele>
        <time>2020-08-02T09:22:53Z</time>
      </trkpt>
      <trkpt lat="47.27694" lon="-0.48498">
        <ele>80.2</ele>
        <time>2020-08-02T09:22:54Z</time>
      </trkpt>
      <trkpt lat="47.2769" lon="-0.48496">
        <ele>80.2</ele>
        <time>2020-08-02T09:22:55Z</time>
      </trkpt>
      <trkpt lat="47.27687" lon="-0.48493">
        <ele>80.2</ele>
        <time>2020-08-02T09:22:56Z</time>
      </trkpt>
      <trkpt lat="47.27684" lon="-0.4849">
        <ele>80.4</ele>
        <time>2020-08-02T09:22:57Z</time>
      </trkpt>
      <trkpt lat="47.27681" lon="-0.48488">
        <ele>80.4</ele>
        <time>2020-08-02T09:22:58Z</time>
      </trkpt>
      <trkpt lat="47.27679" lon="-0.48486">
        <ele>80.6</ele>
        <time>2020-08-02T09:22:59Z</time>
      </trkpt>
      <trkpt lat="47.27676" lon="-0.48484">
        <ele>80.6</ele>
        <time>2020-08-02T09:23:00Z</time>
      </trkpt>
      <trkpt lat="47.27673" lon="-0.48482">
        <ele>80.8</ele>
        <time>2020-08-02T09:23:01Z</time>
      </trkpt>
      <trkpt lat="47.2767" lon="-0.4848">
        <ele>81</ele>
        <time>2020-08-02T09:23:02Z</time>
      </trkpt>
      <trkpt lat="47.27667" lon="-0.48478">
        <ele>81.2</ele>
        <time>2020-08-02T09:23:03Z</time>
      </trkpt>
      <trkpt lat="47.27664" lon="-0.48476">
        <ele>81.2</ele>
        <time>2020-08-02T09:23:04Z</time>
      </trkpt>
      <trkpt lat="47.2766" lon="-0.48473">
        <ele>81.2</ele>
        <time>2020-08-02T09:23:05Z</time>
      </trkpt>
      <trkpt lat="47.27656" lon="-0.4847">
        <ele>81.4</ele>
        <time>2020-08-02T09:23:06Z</time>
      </trkpt>
      <trkpt lat="47.27652" lon="-0.48467">
        <ele>81.4</ele>
        <time>2020-08-02T09:23:07Z</time>
      </trkpt>
      <trkpt lat="47.27649" lon="-0.48464">
        <ele>81.6</ele>
        <time>2020-08-02T09:23:08Z</time>
      </trkpt>
      <trkpt lat="47.27646" lon="-0.4846">
        <ele>81.6</ele>
        <time>2020-08-02T09:23:09Z</time>
      </trkpt>
      <trkpt lat="47.27643" lon="-0.48455">
        <ele>81.6</ele>
        <time>2020-08-02T09:23:10Z</time>
      </trkpt>
      <trkpt lat="47.2764" lon="-0.48451">
        <ele>81.4</ele>
        <time>2020-08-02T09:23:11Z</time>
      </trkpt>
      <trkpt lat="47.27633" lon="-0.48437">
        <ele>81.4</ele>
        <time>2020-08-02T09:23:14Z</time>
      </trkpt>
      <trkpt lat="47.2763" lon="-0.48434">
        <ele>81.4</ele>
        <time>2020-08-02T09:23:15Z</time>
      </trkpt>
      <trkpt lat="47.27628" lon="-0.48433">
        <ele>81.6</ele>
        <time>2020-08-02T09:23:16Z</time>
      </trkpt>
      <trkpt lat="47.27626" lon="-0.48433">
        <ele>81.6</ele>
        <time>2020-08-02T09:23:17Z</time>
      </trkpt>
      <trkpt lat="47.27625" lon="-0.48433">
        <ele>81.8</ele>
        <time>2020-08-02T09:23:18Z</time>
      </trkpt>
      <trkpt lat="47.27625" lon="-0.48433">
        <ele>81.8</ele>
        <time>2020-08-02T09:23:19Z</time>
      </trkpt>
      <trkpt lat="47.27625" lon="-0.48433">
        <ele>82</ele>
        <time>2020-08-02T09:23:22Z</time>
      </trkpt>
      <trkpt lat="47.27625" lon="-0.48433">
        <ele>82.2</ele>
        <time>2020-08-02T09:23:32Z</time>
      </trkpt>
      <trkpt lat="47.27624" lon="-0.48435">
        <ele>82.2</ele>
        <time>2020-08-02T09:23:38Z</time>
      </trkpt>
      <trkpt lat="47.27623" lon="-0.48435">
        <ele>82.2</ele>
        <time>2020-08-02T09:23:40Z</time>
      </trkpt>
      <trkpt lat="47.27622" lon="-0.48436">
        <ele>82.2</ele>
        <time>2020-08-02T09:23:41Z</time>
      </trkpt>
      <trkpt lat="47.27621" lon="-0.48436">
        <ele>82.2</ele>
        <time>2020-08-02T09:23:44Z</time>
      </trkpt>
      <trkpt lat="47.2762" lon="-0.48437">
        <ele>82.4</ele>
        <time>2020-08-02T09:23:46Z</time>
      </trkpt>
      <trkpt lat="47.2762" lon="-0.48436">
        <ele>86.8</ele>
      </trkpt>
      <trkpt lat="47.2762" lon="-0.48437">
        <ele>82.4</ele>
        <time>2020-08-02T09:23:51Z</time>
      </trkpt>
    </trkseg>
  </trk>
  <trk>
    <name><![CDATA[VTT Anjou - Chavagnes - Notre dame d'Allençon_2]]></name>
    <trkseg>
      <trkpt lat="47.27765" lon="-0.4834">
        <ele>86.8</ele>
        <time>2020-08-02T07:06:26Z</time>
      </trkpt>
      <trkpt lat="47.27765" lon="-0.4834">
        <ele>86.8</ele>
        <time>2020-08-02T07:06:26Z</time>
      </trkpt>
      <trkpt lat="47.27765" lon="-0.4834">
        <ele>86.6</ele>
        <time>2020-08-02T07:06:35Z</time>
      </trkpt>
      <trkpt lat="47.27767" lon="-0.48339">
        <ele>86.4</ele>
        <time>2020-08-02T07:06:45Z</time>
      </trkpt>
      <trkpt lat="47.27769" lon="-0.48339">
        <ele>86.4</ele>
        <time>2020-08-02T07:06:46Z</time>
      </trkpt>
      <trkpt lat="47.2777" lon="-0.4834">
        <ele>86.4</ele>
        <time>2020-08-02T07:06:47Z</time>
      </trkpt>
      <trkpt lat="47.27772" lon="-0.4834">
        <ele>86.4</ele>
        <time>2020-08-02T07:06:48Z</time>
      </trkpt>
      <trkpt lat="47.27778" lon="-0.48344">
        <ele>86.2</ele>
        <time>2020-08-02T07:06:51Z</time>
      </trkpt>
      <trkpt lat="47.27778" lon="-0.48346">
        <ele>86.2</ele>
        <time>2020-08-02T07:06:52Z</time>
      </trkpt>
      <trkpt lat="47.27778" lon="-0.48347">
        <ele>86</ele>
        <time>2020-08-02T07:06:53Z</time>
      </trkpt>
      <trkpt lat="47.27776" lon="-0.48348">
        <ele>86</ele>
        <time>2020-08-02T07:06:54Z</time>
      </trkpt>
      <trkpt lat="47.27774" lon="-0.48349">
        <ele>85.8</ele>
        <time>2020-08-02T07:06:55Z</time>
      </trkpt>
      <trkpt lat="47.2777" lon="-0.48352">
        <ele>85.6</ele>
        <time>2020-08-02T07:06:57Z</time>
      </trkpt>
      <trkpt lat="47.27768" lon="-0.48354">
        <ele>85</ele>
        <time>2020-08-02T07:06:58Z</time>
      </trkpt>
      <trkpt lat="47.27765" lon="-0.48357">
        <ele>85</ele>
        <time>2020-08-02T07:06:59Z</time>
      </trkpt>
      <trkpt lat="47.27762" lon="-0.48359">
        <ele>84.8</ele>
        <time>2020-08-02T07:07:00Z</time>
      </trkpt>
      <trkpt lat="47.27759" lon="-0.48362">
        <ele>84.8</ele>
        <time>2020-08-02T07:07:01Z</time>
      </trkpt>
      <trkpt lat="47.27756" lon="-0.48365">
        <ele>84.6</ele>
        <time>2020-08-02T07:07:02Z</time>
      </trkpt>
      <trkpt lat="47.27747" lon="-0.48372">
        <ele>84.6</ele>
        <time>2020-08-02T07:07:05Z</time>
      </trkpt>
      <trkpt lat="47.27741" lon="-0.48378">
        <ele>84.4</ele>
        <time>2020-08-02T07:07:07Z</time>
      </trkpt>
      <trkpt lat="47.27737" lon="-0.48382">
        <ele>84.4</ele>
        <time>2020-08-02T07:07:08Z</time>
      </trkpt>
      <trkpt lat="47.27717" lon="-0.48407">
        <ele>83.8</ele>
        <time>2020-08-02T07:07:14Z</time>
      </trkpt>
      <trkpt lat="47.2771" lon="-0.48416">
        <ele>83.6</ele>
        <time>2020-08-02T07:07:16Z</time>
      </trkpt>
      <trkpt lat="47.27707" lon="-0.48421">
        <ele>83.6</ele>
        <time>2020-08-02T07:07:17Z</time>
      </trkpt>
      <trkpt lat="47.27698" lon="-0.48436">
        <ele>83.4</ele>
        <time>2020-08-02T07:07:20Z</time>
      </trkpt>
      <trkpt lat="47.27691" lon="-0.48447">
        <ele>83.2</ele>
        <time>2020-08-02T07:07:22Z</time>
      </trkpt>
      <trkpt lat="47.27689" lon="-0.48453">
        <ele>83.2</ele>
        <time>2020-08-02T07:07:23Z</time>
      </trkpt>
      <trkpt lat="47.27686" lon="-0.48459">
        <ele>83</ele>
        <time>2020-08-02T07:07:24Z</time>
      </trkpt>
      <trkpt lat="47.27682" lon="-0.48468">
        <ele>82.8</ele>
        <time>2020-08-02T07:07:26Z</time>
      </trkpt>
      <trkpt lat="47.2768" lon="-0.48471">
        <ele>82.4</ele>
        <time>2020-08-02T07:07:27Z</time>
      </trkpt>
      <trkpt lat="47.27679" lon="-0.48474">
        <ele>82.2</ele>
        <time>2020-08-02T07:07:28Z</time>
      </trkpt>
      <trkpt lat="47.27679" lon="-0.48475">
        <ele>82.2</ele>
        <time>2020-08-02T07:07:29Z</time>
      </trkpt>
      <trkpt lat="47.27679" lon="-0.48477">
        <ele>82</ele>
        <time>2020-08-02T07:07:30Z</time>
      </trkpt>
      <trkpt lat="47.27678" lon="-0.48478">
        <ele>81.8</ele>
        <time>2020-08-02T07:07:31Z</time>
      </trkpt>
      <trkpt lat="47.27677" lon="-0.48479">
        <ele>81.8</ele>
        <time>2020-08-02T07:07:32Z</time>
      </trkpt>
      <trkpt lat="47.27675" lon="-0.4848">
        <ele>81.6</ele>
        <time>2020-08-02T07:07:33Z</time>
      </trkpt>
      <trkpt lat="47.27673" lon="-0.4848">
        <ele>81.4</ele>
        <time>2020-08-02T07:07:34Z</time>
      </trkpt>
      <trkpt lat="47.2767" lon="-0.48479">
        <ele>81.4</ele>
        <time>2020-08-02T07:07:35Z</time>
      </trkpt>
      <trkpt lat="47.27667" lon="-0.48476">
        <ele>81.4</ele>
        <time>2020-08-02T07:07:36Z</time>
      </trkpt>
      <trkpt lat="47.27664" lon="-0.48474">
        <ele>81.4</ele>
        <time>2020-08-02T07:07:37Z</time>
      </trkpt>
      <trkpt lat="47.27661" lon="-0.48473">
        <ele>81.2</ele>
        <time>2020-08-02T07:07:38Z</time>
      </trkpt>
      <trkpt lat="47.27657" lon="-0.48474">
        <ele>81.2</ele>
        <time>2020-08-02T07:07:39Z</time>
      </trkpt>
      <trkpt lat="47.27653" lon="-0.48475">
        <ele>81</ele>
        <time>2020-08-02T07:07:40Z</time>
      </trkpt>
      <trkpt lat="47.27649" lon="-0.48477">
        <ele>81</ele>
        <time>2020-08-02T07:07:41Z</time>
      </trkpt>
      <trkpt lat="47.27646" lon="-0.4848">
        <ele>81</ele>
        <time>2020-08-02T07:07:42Z</time>
      </trkpt>
      <trkpt lat="47.27643" lon="-0.48483">
        <ele>81</ele>
        <time>2020-08-02T07:07:43Z</time>
      </trkpt>
      <trkpt lat="47.2764" lon="-0.48487">
        <ele>80.8</ele>
        <time>2020-08-02T07:07:44Z</time>
      </trkpt>
      <trkpt lat="47.27637" lon="-0.48492">
        <ele>80.6</ele>
        <time>2020-08-02T07:07:45Z</time>
      </trkpt>
      <trkpt lat="47.27614" lon="-0.48521">
        <ele>80.6</ele>
        <time>2020-08-02T07:07:52Z</time>
      </trkpt>
      <trkpt lat="47.2761" lon="-0.48525">
        <ele>80.6</ele>
        <time>2020-08-02T07:07:53Z</time>
      </trkpt>
      <trkpt lat="47.27589" lon="-0.48549">
        <ele>81.2</ele>
        <time>2020-08-02T07:07:59Z</time>
      </trkpt>
      <trkpt lat="47.27586" lon="-0.48553">
        <ele>81.4</ele>
        <time>2020-08-02T07:08:00Z</time>
      </trkpt>
      <trkpt lat="47.27583" lon="-0.48556">
        <ele>81.6</ele>
        <time>2020-08-02T07:08:01Z</time>
      </trkpt>
      <trkpt lat="47.2758" lon="-0.48559">
        <ele>81.8</ele>
        <time>2020-08-02T07:08:02Z</time>
      </trkpt>
      <trkpt lat="47.27577" lon="-0.48563">
        <ele>82</ele>
        <time>2020-08-02T07:08:03Z</time>
      </trkpt>
      <trkpt lat="47.27573" lon="-0.48566">
        <ele>82.2</ele>
        <time>2020-08-02T07:08:04Z</time>
      </trkpt>
      <trkpt lat="47.2757" lon="-0.4857">
        <ele>82.4</ele>
        <time>2020-08-02T07:08:05Z</time>
      </trkpt>
      <trkpt lat="47.27566" lon="-0.48573">
        <ele>82.4</ele>
        <time>2020-08-02T07:08:06Z</time>
      </trkpt>
      <trkpt lat="47.27563" lon="-0.48577">
        <ele>82.6</ele>
        <time>2020-08-02T07:08:07Z</time>
      </trkpt>
      <trkpt lat="47.2756" lon="-0.48581">
        <ele>82.8</ele>
        <time>2020-08-02T07:08:08Z</time>
      </trkpt>
      <trkpt lat="47.27557" lon="-0.48585">
        <ele>82.8</ele>
        <time>2020-08-02T07:08:09Z</time>
      </trkpt>
      <trkpt lat="47.27554" lon="-0.48589">
        <ele>83</ele>
        <time>2020-08-02T07:08:10Z</time>
      </trkpt>
      <trkpt lat="47.27551" lon="-0.48593">
        <ele>83.2</ele>
        <time>2020-08-02T07:08:11Z</time>
      </trkpt>
      <trkpt lat="47.27548" lon="-0.48597">
        <ele>83.4</ele>
        <time>2020-08-02T07:08:12Z</time>
      </trkpt>
      <trkpt lat="47.27545" lon="-0.486">
        <ele>83.4</ele>
        <time>2020-08-02T07:08:13Z</time>
      </trkpt>
      <trkpt lat="47.27542" lon="-0.48604">
        <ele>83.6</ele>
        <time>2020-08-02T07:08:14Z</time>
      </trkpt>
      <trkpt lat="47.27538" lon="-0.48607">
        <ele>83.6</ele>
        <time>2020-08-02T07:08:15Z</time>
      </trkpt>
      <trkpt lat="47.27535" lon="-0.4861">
        <ele>83.6</ele>
        <time>2020-08-02T07:08:16Z</time>
      </trkpt>
      <trkpt lat="47.27531" lon="-0.48613">
        <ele>83.6</ele>
        <time>2020-08-02T07:08:17Z</time>
      </trkpt>
      <trkpt lat="47.27528" lon="-0.48617">
        <ele>83.6</ele>
        <time>2020-08-02T07:08:18Z</time>
      </trkpt>
      <trkpt lat="47.27525" lon="-0.4862">
        <ele>83.8</ele>
        <time>2020-08-02T07:08:19Z</time>
      </trkpt>
      <trkpt lat="47.27522" lon="-0.48624">
        <ele>83.8</ele>
        <time>2020-08-02T07:08:20Z</time>
      </trkpt>
      <trkpt lat="47.27519" lon="-0.48627">
        <ele>83.8</ele>
        <time>2020-08-02T07:08:21Z</time>
      </trkpt>
      <trkpt lat="47.27513" lon="-0.48635">
        <ele>83.8</ele>
        <time>2020-08-02T07:08:23Z</time>
      </trkpt>
      <trkpt lat="47.27506" lon="-0.48643">
        <ele>84</ele>
        <time>2020-08-02T07:08:25Z</time>
      </trkpt>
      <trkpt lat="47.27486" lon="-0.48664">
        <ele>84.2</ele>
        <time>2020-08-02T07:08:31Z</time>
      </trkpt>
      <trkpt lat="47.2746" lon="-0.48701">
        <ele>84</ele>
        <time>2020-08-02T07:08:39Z</time>
      </trkpt>
      <trkpt lat="47.27445" lon="-0.48723">
        <ele>82.8</ele>
        <time>2020-08-02T07:08:43Z</time>
      </trkpt>
      <trkpt lat="47.27439" lon="-0.48735">
        <ele>82.4</ele>
        <time>2020-08-02T07:08:45Z</time>
      </trkpt>
      <trkpt lat="47.27438" lon="-0.4874">
        <ele>82.2</ele>
        <time>2020-08-02T07:08:46Z</time>
      </trkpt>
      <trkpt lat="47.27436" lon="-0.48745">
        <ele>81.8</ele>
        <time>2020-08-02T07:08:47Z</time>
      </trkpt>
      <trkpt lat="47.27435" lon="-0.48749">
        <ele>81.6</ele>
        <time>2020-08-02T07:08:48Z</time>
      </trkpt>
      <trkpt lat="47.27434" lon="-0.48752">
        <ele>81.4</ele>
        <time>2020-08-02T07:08:49Z</time>
      </trkpt>
      <trkpt lat="47.27433" lon="-0.48756">
        <ele>81.2</ele>
        <time>2020-08-02T07:08:50Z</time>
      </trkpt>
      <trkpt lat="47.27431" lon="-0.4876">
        <ele>81</ele>
        <time>2020-08-02T07:08:51Z</time>
      </trkpt>
      <trkpt lat="47.2743" lon="-0.48764">
        <ele>80.8</ele>
        <time>2020-08-02T07:08:52Z</time>
      </trkpt>
      <trkpt lat="47.27423" lon="-0.48785">
        <ele>79.4</ele>
        <time>2020-08-02T07:08:56Z</time>
      </trkpt>
      <trkpt lat="47.27421" lon="-0.4879">
        <ele>79.4</ele>
        <time>2020-08-02T07:08:57Z</time>
      </trkpt>
      <trkpt lat="47.27417" lon="-0.48798">
        <ele>78.6</ele>
        <time>2020-08-02T07:08:59Z</time>
      </trkpt>
      <trkpt lat="47.27414" lon="-0.48802">
        <ele>78.2</ele>
        <time>2020-08-02T07:09:00Z</time>
      </trkpt>
      <trkpt lat="47.27411" lon="-0.48806">
        <ele>78.2</ele>
        <time>2020-08-02T07:09:01Z</time>
      </trkpt>
      <trkpt lat="47.27409" lon="-0.4881">
        <ele>77.8</ele>
        <time>2020-08-02T07:09:02Z</time>
      </trkpt>
      <trkpt lat="47.27405" lon="-0.48815">
        <ele>77.6</ele>
        <time>2020-08-02T07:09:03Z</time>
      </trkpt>
      <trkpt lat="47.27399" lon="-0.4882">
        <ele>77</ele>
        <time>2020-08-02T07:09:04Z</time>
      </trkpt>
      <trkpt lat="47.27394" lon="-0.48826">
        <ele>76.8</ele>
        <time>2020-08-02T07:09:05Z</time>
      </trkpt>
      <trkpt lat="47.27385" lon="-0.48836">
        <ele>75.2</ele>
        <time>2020-08-02T07:09:07Z</time>
      </trkpt>
      <trkpt lat="47.27379" lon="-0.48842">
        <ele>75</ele>
        <time>2020-08-02T07:09:08Z</time>
      </trkpt>
      <trkpt lat="47.27367" lon="-0.48855">
        <ele>74.2</ele>
        <time>2020-08-02T07:09:10Z</time>
      </trkpt>
      <trkpt lat="47.27361" lon="-0.48862">
        <ele>73.8</ele>
        <time>2020-08-02T07:09:11Z</time>
      </trkpt>
      <trkpt lat="47.27351" lon="-0.48875">
        <ele>73.2</ele>
        <time>2020-08-02T07:09:13Z</time>
      </trkpt>
      <trkpt lat="47.27346" lon="-0.48882">
        <ele>72.6</ele>
        <time>2020-08-02T07:09:14Z</time>
      </trkpt>
      <trkpt lat="47.27342" lon="-0.48887">
        <ele>72.2</ele>
        <time>2020-08-02T07:09:15Z</time>
      </trkpt>
      <trkpt lat="47.27338" lon="-0.48892">
        <ele>71.4</ele>
        <time>2020-08-02T07:09:16Z</time>
      </trkpt>
      <trkpt lat="47.27334" lon="-0.48896">
        <ele>71.2</ele>
        <time>2020-08-02T07:09:17Z</time>
      </trkpt>
      <trkpt lat="47.2733" lon="-0.48901">
        <ele>70.6</ele>
        <time>2020-08-02T07:09:18Z</time>
      </trkpt>
      <trkpt lat="47.27325" lon="-0.48906">
        <ele>70</ele>
        <time>2020-08-02T07:09:19Z</time>
      </trkpt>
      <trkpt lat="47.27321" lon="-0.48911">
        <ele>69.6</ele>
        <time>2020-08-02T07:09:20Z</time>
      </trkpt>
      <trkpt lat="47.27318" lon="-0.48915">
        <ele>69.2</ele>
        <time>2020-08-02T07:09:21Z</time>
      </trkpt>
      <trkpt lat="47.27313" lon="-0.48921">
        <ele>69</ele>
        <time>2020-08-02T07:09:22Z</time>
      </trkpt>
      <trkpt lat="47.27309" lon="-0.48928">
        <ele>68.8</ele>
        <time>2020-08-02T07:09:23Z</time>
      </trkpt>
      <trkpt lat="47.27307" lon="-0.48933">
        <ele>68.6</ele>
        <time>2020-08-02T07:09:24Z</time>
      </trkpt>
      <trkpt lat="47.27305" lon="-0.48937">
        <ele>68.2</ele>
        <time>2020-08-02T07:09:25Z</time>
      </trkpt>
      <trkpt lat="47.27304" lon="-0.48942">
        <ele>67.8</ele>
        <time>2020-08-02T07:09:26Z</time>
      </trkpt>
      <trkpt lat="47.273" lon="-0.48948">
        <ele>67.6</ele>
        <time>2020-08-02T07:09:27Z</time>
      </trkpt>
      <trkpt lat="47.27298" lon="-0.48952">
        <ele>67.4</ele>
        <time>2020-08-02T07:09:28Z</time>
      </trkpt>
      <trkpt lat="47.27295" lon="-0.48955">
        <ele>67.2</ele>
        <time>2020-08-02T07:09:29Z</time>
      </trkpt>
      <trkpt lat="47.27293" lon="-0.48959">
        <ele>67.2</ele>
        <time>2020-08-02T07:09:30Z</time>
      </trkpt>
      <trkpt lat="47.2729" lon="-0.48963">
        <ele>66.8</ele>
        <time>2020-08-02T07:09:31Z</time>
      </trkpt>
      <trkpt lat="47.27286" lon="-0.48965">
        <ele>66.6</ele>
        <time>2020-08-02T07:09:32Z</time>
      </trkpt>
      <trkpt lat="47.27282" lon="-0.48967">
        <ele>66.2</ele>
        <time>2020-08-02T07:09:33Z</time>
      </trkpt>
      <trkpt lat="47.27278" lon="-0.48968">
        <ele>66</ele>
        <time>2020-08-02T07:09:34Z</time>
      </trkpt>
      <trkpt lat="47.27274" lon="-0.4897">
        <ele>65.8</ele>
        <time>2020-08-02T07:09:35Z</time>
      </trkpt>
      <trkpt lat="47.2727" lon="-0.48971">
        <ele>65.8</ele>
        <time>2020-08-02T07:09:36Z</time>
      </trkpt>
      <trkpt lat="47.27266" lon="-0.48973">
        <ele>65.6</ele>
        <time>2020-08-02T07:09:37Z</time>
      </trkpt>
      <trkpt lat="47.27263" lon="-0.48974">
        <ele>65.6</ele>
        <time>2020-08-02T07:09:38Z</time>
      </trkpt>
      <trkpt lat="47.27259" lon="-0.48975">
        <ele>65.6</ele>
        <time>2020-08-02T07:09:39Z</time>
      </trkpt>
      <trkpt lat="47.27256" lon="-0.48976">
        <ele>65.4</ele>
        <time>2020-08-02T07:09:40Z</time>
      </trkpt>
      <trkpt lat="47.27254" lon="-0.48976">
        <ele>65.4</ele>
        <time>2020-08-02T07:09:41Z</time>
      </trkpt>
      <trkpt lat="47.27251" lon="-0.48975">
        <ele>65.4</ele>
        <time>2020-08-02T07:09:42Z</time>
      </trkpt>
      <trkpt lat="47.2725" lon="-0.48973">
        <ele>65.4</ele>
        <time>2020-08-02T07:09:43Z</time>
      </trkpt>
      <trkpt lat="47.27248" lon="-0.48971">
        <ele>65.4</ele>
        <time>2020-08-02T07:09:44Z</time>
      </trkpt>
      <trkpt lat="47.27247" lon="-0.48967">
        <ele>65.4</ele>
        <time>2020-08-02T07:09:45Z</time>
      </trkpt>
      <trkpt lat="47.27245" lon="-0.48964">
        <ele>65.4</ele>
        <time>2020-08-02T07:09:46Z</time>
      </trkpt>
      <trkpt lat="47.27243" lon="-0.48958">
        <ele>65.4</ele>
        <time>2020-08-02T07:09:48Z</time>
      </trkpt>
      <trkpt lat="47.27241" lon="-0.48952">
        <ele>65.6</ele>
        <time>2020-08-02T07:09:50Z</time>
      </trkpt>
      <trkpt lat="47.27241" lon="-0.48949">
        <ele>65.6</ele>
        <time>2020-08-02T07:09:51Z</time>
      </trkpt>
      <trkpt lat="47.2724" lon="-0.48946">
        <ele>65.8</ele>
        <time>2020-08-02T07:09:52Z</time>
      </trkpt>
      <trkpt lat="47.27239" lon="-0.48943">
        <ele>65.8</ele>
        <time>2020-08-02T07:09:53Z</time>
      </trkpt>
      <trkpt lat="47.27239" lon="-0.4894">
        <ele>66</ele>
        <time>2020-08-02T07:09:54Z</time>
      </trkpt>
      <trkpt lat="47.27237" lon="-0.48933">
        <ele>66.4</ele>
        <time>2020-08-02T07:09:56Z</time>
      </trkpt>
      <trkpt lat="47.27235" lon="-0.48926">
        <ele>66.8</ele>
        <time>2020-08-02T07:09:58Z</time>
      </trkpt>
      <trkpt lat="47.27234" lon="-0.48922">
        <ele>67</ele>
        <time>2020-08-02T07:09:59Z</time>
      </trkpt>
      <trkpt lat="47.27233" lon="-0.48918">
        <ele>67.2</ele>
        <time>2020-08-02T07:10:00Z</time>
      </trkpt>
      <trkpt lat="47.27232" lon="-0.48914">
        <ele>67.2</ele>
        <time>2020-08-02T07:10:01Z</time>
      </trkpt>
      <trkpt lat="47.27231" lon="-0.4891">
        <ele>67.6</ele>
        <time>2020-08-02T07:10:02Z</time>
      </trkpt>
      <trkpt lat="47.2723" lon="-0.48906">
        <ele>67.6</ele>
        <time>2020-08-02T07:10:03Z</time>
      </trkpt>
      <trkpt lat="47.27229" lon="-0.48901">
        <ele>67.8</ele>
        <time>2020-08-02T07:10:04Z</time>
      </trkpt>
      <trkpt lat="47.27228" lon="-0.48896">
        <ele>68</ele>
        <time>2020-08-02T07:10:05Z</time>
      </trkpt>
      <trkpt lat="47.27226" lon="-0.48891">
        <ele>68.2</ele>
        <time>2020-08-02T07:10:06Z</time>
      </trkpt>
      <trkpt lat="47.27224" lon="-0.48887">
        <ele>68.4</ele>
        <time>2020-08-02T07:10:07Z</time>
      </trkpt>
      <trkpt lat="47.27222" lon="-0.48883">
        <ele>68.6</ele>
        <time>2020-08-02T07:10:08Z</time>
      </trkpt>
      <trkpt lat="47.27221" lon="-0.48879">
        <ele>68.8</ele>
        <time>2020-08-02T07:10:09Z</time>
      </trkpt>
      <trkpt lat="47.27219" lon="-0.48875">
        <ele>68.8</ele>
        <time>2020-08-02T07:10:10Z</time>
      </trkpt>
      <trkpt lat="47.27217" lon="-0.48872">
        <ele>69.2</ele>
        <time>2020-08-02T07:10:11Z</time>
      </trkpt>
      <trkpt lat="47.27215" lon="-0.48868">
        <ele>69.4</ele>
        <time>2020-08-02T07:10:12Z</time>
      </trkpt>
      <trkpt lat="47.27213" lon="-0.48864">
        <ele>69.8</ele>
        <time>2020-08-02T07:10:13Z</time>
      </trkpt>
      <trkpt lat="47.27211" lon="-0.4886">
        <ele>70</ele>
        <time>2020-08-02T07:10:14Z</time>
      </trkpt>
      <trkpt lat="47.27209" lon="-0.48856">
        <ele>70</ele>
        <time>2020-08-02T07:10:15Z</time>
      </trkpt>
      <trkpt lat="47.27207" lon="-0.48852">
        <ele>70.4</ele>
        <time>2020-08-02T07:10:16Z</time>
      </trkpt>
      <trkpt lat="47.27205" lon="-0.48848">
        <ele>70.6</ele>
        <time>2020-08-02T07:10:17Z</time>
      </trkpt>
      <trkpt lat="47.27203" lon="-0.48844">
        <ele>71</ele>
        <time>2020-08-02T07:10:18Z</time>
      </trkpt>
      <trkpt lat="47.27201" lon="-0.4884">
        <ele>71.2</ele>
        <time>2020-08-02T07:10:19Z</time>
      </trkpt>
      <trkpt lat="47.272" lon="-0.48836">
        <ele>71.4</ele>
        <time>2020-08-02T07:10:20Z</time>
      </trkpt>
      <trkpt lat="47.27197" lon="-0.48832">
        <ele>71.6</ele>
        <time>2020-08-02T07:10:21Z</time>
      </trkpt>
      <trkpt lat="47.27196" lon="-0.48828">
        <ele>71.8</ele>
        <time>2020-08-02T07:10:22Z</time>
      </trkpt>
      <trkpt lat="47.27194" lon="-0.48824">
        <ele>72.2</ele>
        <time>2020-08-02T07:10:23Z</time>
      </trkpt>
      <trkpt lat="47.27192" lon="-0.4882">
        <ele>72.2</ele>
        <time>2020-08-02T07:10:24Z</time>
      </trkpt>
      <trkpt lat="47.2719" lon="-0.48816">
        <ele>72.6</ele>
        <time>2020-08-02T07:10:25Z</time>
      </trkpt>
      <trkpt lat="47.27188" lon="-0.48812">
        <ele>73</ele>
        <time>2020-08-02T07:10:26Z</time>
      </trkpt>
      <trkpt lat="47.27186" lon="-0.48808">
        <ele>73.2</ele>
        <time>2020-08-02T07:10:27Z</time>
      </trkpt>
      <trkpt lat="47.27184" lon="-0.48805">
        <ele>73.4</ele>
        <time>2020-08-02T07:10:28Z</time>
      </trkpt>
      <trkpt lat="47.27182" lon="-0.48801">
        <ele>73.6</ele>
        <time>2020-08-02T07:10:29Z</time>
      </trkpt>
      <trkpt lat="47.2718" lon="-0.48797">
        <ele>74</ele>
        <time>2020-08-02T07:10:30Z</time>
      </trkpt>
      <trkpt lat="47.27178" lon="-0.48794">
        <ele>74.4</ele>
        <time>2020-08-02T07:10:31Z</time>
      </trkpt>
      <trkpt lat="47.27176" lon="-0.4879">
        <ele>74.6</ele>
        <time>2020-08-02T07:10:32Z</time>
      </trkpt>
      <trkpt lat="47.27174" lon="-0.48787">
        <ele>74.8</ele>
        <time>2020-08-02T07:10:33Z</time>
      </trkpt>
      <trkpt lat="47.27172" lon="-0.48783">
        <ele>75</ele>
        <time>2020-08-02T07:10:34Z</time>
      </trkpt>
      <trkpt lat="47.27171" lon="-0.48779">
        <ele>75.4</ele>
        <time>2020-08-02T07:10:35Z</time>
      </trkpt>
      <trkpt lat="47.27169" lon="-0.48775">
        <ele>75.6</ele>
        <time>2020-08-02T07:10:36Z</time>
      </trkpt>
      <trkpt lat="47.27167" lon="-0.48771">
        <ele>75.6</ele>
        <time>2020-08-02T07:10:37Z</time>
      </trkpt>
      <trkpt lat="47.27166" lon="-0.48767">
        <ele>76</ele>
        <time>2020-08-02T07:10:38Z</time>
      </trkpt>
      <trkpt lat="47.27164" lon="-0.48763">
        <ele>76</ele>
        <time>2020-08-02T07:10:39Z</time>
      </trkpt>
      <trkpt lat="47.27163" lon="-0.48759">
        <ele>76.4</ele>
        <time>2020-08-02T07:10:40Z</time>
      </trkpt>
      <trkpt lat="47.27161" lon="-0.48754">
        <ele>76.6</ele>
        <time>2020-08-02T07:10:41Z</time>
      </trkpt>
      <trkpt lat="47.2716" lon="-0.4875">
        <ele>76.8</ele>
        <time>2020-08-02T07:10:42Z</time>
      </trkpt>
      <trkpt lat="47.27159" lon="-0.48745">
        <ele>77</ele>
        <time>2020-08-02T07:10:43Z</time>
      </trkpt>
      <trkpt lat="47.27157" lon="-0.48741">
        <ele>77</ele>
        <time>2020-08-02T07:10:44Z</time>
      </trkpt>
      <trkpt lat="47.27156" lon="-0.48736">
        <ele>77.2</ele>
        <time>2020-08-02T07:10:45Z</time>
      </trkpt>
      <trkpt lat="47.27154" lon="-0.48731">
        <ele>77.2</ele>
        <time>2020-08-02T07:10:46Z</time>
      </trkpt>
      <trkpt lat="47.27153" lon="-0.48727">
        <ele>77.4</ele>
        <time>2020-08-02T07:10:47Z</time>
      </trkpt>
      <trkpt lat="47.27151" lon="-0.48723">
        <ele>77.6</ele>
        <time>2020-08-02T07:10:48Z</time>
      </trkpt>
      <trkpt lat="47.2715" lon="-0.4872">
        <ele>77.8</ele>
        <time>2020-08-02T07:10:49Z</time>
      </trkpt>
      <trkpt lat="47.27149" lon="-0.48716">
        <ele>77.8</ele>
        <time>2020-08-02T07:10:50Z</time>
      </trkpt>
      <trkpt lat="47.27148" lon="-0.48712">
        <ele>78</ele>
        <time>2020-08-02T07:10:51Z</time>
      </trkpt>
      <trkpt lat="47.27147" lon="-0.48708">
        <ele>78.2</ele>
        <time>2020-08-02T07:10:52Z</time>
      </trkpt>
      <trkpt lat="47.27145" lon="-0.48705">
        <ele>78.2</ele>
        <time>2020-08-02T07:10:53Z</time>
      </trkpt>
      <trkpt lat="47.27144" lon="-0.48701">
        <ele>78.2</ele>
        <time>2020-08-02T07:10:54Z</time>
      </trkpt>
      <trkpt lat="47.27143" lon="-0.48697">
        <ele>78.2</ele>
        <time>2020-08-02T07:10:55Z</time>
      </trkpt>
      <trkpt lat="47.27141" lon="-0.48693">
        <ele>78.4</ele>
        <time>2020-08-02T07:10:56Z</time>
      </trkpt>
      <trkpt lat="47.2714" lon="-0.48689">
        <ele>78.6</ele>
        <time>2020-08-02T07:10:57Z</time>
      </trkpt>
      <trkpt lat="47.27139" lon="-0.48686">
        <ele>78.6</ele>
        <time>2020-08-02T07:10:58Z</time>
      </trkpt>
      <trkpt lat="47.27138" lon="-0.48682">
        <ele>78.8</ele>
        <time>2020-08-02T07:10:59Z</time>
      </trkpt>
      <trkpt lat="47.27136" lon="-0.48679">
        <ele>78.8</ele>
        <time>2020-08-02T07:11:00Z</time>
      </trkpt>
      <trkpt lat="47.27135" lon="-0.48676">
        <ele>79</ele>
        <time>2020-08-02T07:11:01Z</time>
      </trkpt>
      <trkpt lat="47.27133" lon="-0.48672">
        <ele>79.2</ele>
        <time>2020-08-02T07:11:02Z</time>
      </trkpt>
      <trkpt lat="47.27131" lon="-0.4867">
        <ele>79.4</ele>
        <time>2020-08-02T07:11:03Z</time>
      </trkpt>
      <trkpt lat="47.27129" lon="-0.48667">
        <ele>79.8</ele>
        <time>2020-08-02T07:11:04Z</time>
      </trkpt>
      <trkpt lat="47.27126" lon="-0.48666">
        <ele>80</ele>
        <time>2020-08-02T07:11:05Z</time>
      </trkpt>
      <trkpt lat="47.27124" lon="-0.48664">
        <ele>80</ele>
        <time>2020-08-02T07:11:06Z</time>
      </trkpt>
      <trkpt lat="47.27121" lon="-0.48663">
        <ele>80.4</ele>
        <time>2020-08-02T07:11:07Z</time>
      </trkpt>
      <trkpt lat="47.27118" lon="-0.48663">
        <ele>80.6</ele>
        <time>2020-08-02T07:11:08Z</time>
      </trkpt>
      <trkpt lat="47.27115" lon="-0.48664">
        <ele>81</ele>
        <time>2020-08-02T07:11:09Z</time>
      </trkpt>
      <trkpt lat="47.27112" lon="-0.48664">
        <ele>81.2</ele>
        <time>2020-08-02T07:11:10Z</time>
      </trkpt>
      <trkpt lat="47.2711" lon="-0.48665">
        <ele>81.4</ele>
        <time>2020-08-02T07:11:11Z</time>
      </trkpt>
      <trkpt lat="47.27107" lon="-0.48667">
        <ele>81.6</ele>
        <time>2020-08-02T07:11:12Z</time>
      </trkpt>
      <trkpt lat="47.27104" lon="-0.48669">
        <ele>81.8</ele>
        <time>2020-08-02T07:11:13Z</time>
      </trkpt>
      <trkpt lat="47.27102" lon="-0.48671">
        <ele>82</ele>
        <time>2020-08-02T07:11:14Z</time>
      </trkpt>
      <trkpt lat="47.27099" lon="-0.48673">
        <ele>82</ele>
        <time>2020-08-02T07:11:15Z</time>
      </trkpt>
      <trkpt lat="47.27096" lon="-0.48675">
        <ele>82</ele>
        <time>2020-08-02T07:11:16Z</time>
      </trkpt>
      <trkpt lat="47.27094" lon="-0.48677">
        <ele>82.2</ele>
        <time>2020-08-02T07:11:17Z</time>
      </trkpt>
      <trkpt lat="47.27091" lon="-0.48679">
        <ele>82.4</ele>
        <time>2020-08-02T07:11:18Z</time>
      </trkpt>
      <trkpt lat="47.27089" lon="-0.48681">
        <ele>82.4</ele>
        <time>2020-08-02T07:11:19Z</time>
      </trkpt>
      <trkpt lat="47.27085" lon="-0.48683">
        <ele>82.6</ele>
        <time>2020-08-02T07:11:20Z</time>
      </trkpt>
      <trkpt lat="47.27083" lon="-0.48685">
        <ele>82.6</ele>
        <time>2020-08-02T07:11:21Z</time>
      </trkpt>
      <trkpt lat="47.2708" lon="-0.48687">
        <ele>82.8</ele>
        <time>2020-08-02T07:11:22Z</time>
      </trkpt>
      <trkpt lat="47.27077" lon="-0.48689">
        <ele>82.8</ele>
        <time>2020-08-02T07:11:23Z</time>
      </trkpt>
      <trkpt lat="47.27075" lon="-0.48691">
        <ele>82.8</ele>
        <time>2020-08-02T07:11:24Z</time>
      </trkpt>
      <trkpt lat="47.27073" lon="-0.48694">
        <ele>83</ele>
        <time>2020-08-02T07:11:25Z</time>
      </trkpt>
      <trkpt lat="47.27071" lon="-0.48697">
        <ele>83</ele>
        <time>2020-08-02T07:11:26Z</time>
      </trkpt>
      <trkpt lat="47.27065" lon="-0.48707">
        <ele>83.2</ele>
        <time>2020-08-02T07:11:29Z</time>
      </trkpt>
      <trkpt lat="47.27063" lon="-0.4871">
        <ele>83</ele>
        <time>2020-08-02T07:11:30Z</time>
      </trkpt>
      <trkpt lat="47.27056" lon="-0.48721">
        <ele>83.4</ele>
        <time>2020-08-02T07:11:33Z</time>
      </trkpt>
      <trkpt lat="47.27053" lon="-0.48724">
        <ele>83.4</ele>
        <time>2020-08-02T07:11:34Z</time>
      </trkpt>
      <trkpt lat="47.27031" lon="-0.48745">
        <ele>84</ele>
        <time>2020-08-02T07:11:41Z</time>
      </trkpt>
      <trkpt lat="47.27006" lon="-0.48768">
        <ele>84.2</ele>
        <time>2020-08-02T07:11:49Z</time>
      </trkpt>
      <trkpt lat="47.27003" lon="-0.48771">
        <ele>84.2</ele>
        <time>2020-08-02T07:11:50Z</time>
      </trkpt>
      <trkpt lat="47.27" lon="-0.48773">
        <ele>84.4</ele>
        <time>2020-08-02T07:11:51Z</time>
      </trkpt>
      <trkpt lat="47.26997" lon="-0.48776">
        <ele>84.4</ele>
        <time>2020-08-02T07:11:52Z</time>
      </trkpt>
      <trkpt lat="47.26993" lon="-0.48779">
        <ele>84.4</ele>
        <time>2020-08-02T07:11:53Z</time>
      </trkpt>
      <trkpt lat="47.2699" lon="-0.48782">
        <ele>84.6</ele>
        <time>2020-08-02T07:11:54Z</time>
      </trkpt>
      <trkpt lat="47.26987" lon="-0.48785">
        <ele>84.6</ele>
        <time>2020-08-02T07:11:55Z</time>
      </trkpt>
      <trkpt lat="47.26968" lon="-0.48802">
        <ele>85.2</ele>
        <time>2020-08-02T07:12:01Z</time>
      </trkpt>
      <trkpt lat="47.26962" lon="-0.48809">
        <ele>85.4</ele>
        <time>2020-08-02T07:12:03Z</time>
      </trkpt>
      <trkpt lat="47.26959" lon="-0.48812">
        <ele>85.4</ele>
        <time>2020-08-02T07:12:04Z</time>
      </trkpt>
      <trkpt lat="47.26956" lon="-0.48814">
        <ele>85.6</ele>
        <time>2020-08-02T07:12:05Z</time>
      </trkpt>
      <trkpt lat="47.26952" lon="-0.48818">
        <ele>85.6</ele>
        <time>2020-08-02T07:12:06Z</time>
      </trkpt>
      <trkpt lat="47.26949" lon="-0.48821">
        <ele>85.6</ele>
        <time>2020-08-02T07:12:07Z</time>
      </trkpt>
      <trkpt lat="47.26946" lon="-0.48824">
        <ele>85.8</ele>
        <time>2020-08-02T07:12:08Z</time>
      </trkpt>
      <trkpt lat="47.2693" lon="-0.4884">
        <ele>85.8</ele>
        <time>2020-08-02T07:12:13Z</time>
      </trkpt>
      <trkpt lat="47.26911" lon="-0.48859">
        <ele>85.8</ele>
        <time>2020-08-02T07:12:19Z</time>
      </trkpt>
      <trkpt lat="47.26908" lon="-0.48863">
        <ele>86</ele>
        <time>2020-08-02T07:12:20Z</time>
      </trkpt>
      <trkpt lat="47.26905" lon="-0.48866">
        <ele>86.2</ele>
        <time>2020-08-02T07:12:21Z</time>
      </trkpt>
      <trkpt lat="47.26902" lon="-0.48869">
        <ele>86.2</ele>
        <time>2020-08-02T07:12:22Z</time>
      </trkpt>
      <trkpt lat="47.26899" lon="-0.48873">
        <ele>86.4</ele>
        <time>2020-08-02T07:12:23Z</time>
      </trkpt>
      <trkpt lat="47.26896" lon="-0.48876">
        <ele>86.4</ele>
        <time>2020-08-02T07:12:24Z</time>
      </trkpt>
      <trkpt lat="47.26892" lon="-0.48878">
        <ele>86.4</ele>
        <time>2020-08-02T07:12:25Z</time>
      </trkpt>
      <trkpt lat="47.26889" lon="-0.48878">
        <ele>86.4</ele>
        <time>2020-08-02T07:12:26Z</time>
      </trkpt>
      <trkpt lat="47.26885" lon="-0.48878">
        <ele>86.4</ele>
        <time>2020-08-02T07:12:27Z</time>
      </trkpt>
      <trkpt lat="47.26881" lon="-0.48876">
        <ele>86.4</ele>
        <time>2020-08-02T07:12:28Z</time>
      </trkpt>
      <trkpt lat="47.26879" lon="-0.48874">
        <ele>86.2</ele>
        <time>2020-08-02T07:12:29Z</time>
      </trkpt>
      <trkpt lat="47.26875" lon="-0.48873">
        <ele>86.4</ele>
        <time>2020-08-02T07:12:30Z</time>
      </trkpt>
      <trkpt lat="47.26872" lon="-0.48874">
        <ele>86.4</ele>
        <time>2020-08-02T07:12:31Z</time>
      </trkpt>
      <trkpt lat="47.26869" lon="-0.48877">
        <ele>86.2</ele>
        <time>2020-08-02T07:12:32Z</time>
      </trkpt>
      <trkpt lat="47.26866" lon="-0.4888">
        <ele>86.2</ele>
        <time>2020-08-02T07:12:33Z</time>
      </trkpt>
      <trkpt lat="47.26863" lon="-0.48883">
        <ele>86.2</ele>
        <time>2020-08-02T07:12:34Z</time>
      </trkpt>
      <trkpt lat="47.2686" lon="-0.48886">
        <ele>86.2</ele>
        <time>2020-08-02T07:12:35Z</time>
      </trkpt>
      <trkpt lat="47.26857" lon="-0.4889">
        <ele>86.2</ele>
        <time>2020-08-02T07:12:36Z</time>
      </trkpt>
      <trkpt lat="47.26854" lon="-0.48894">
        <ele>86.2</ele>
        <time>2020-08-02T07:12:37Z</time>
      </trkpt>
      <trkpt lat="47.26852" lon="-0.489">
        <ele>86.2</ele>
        <time>2020-08-02T07:12:38Z</time>
      </trkpt>
      <trkpt lat="47.2685" lon="-0.48905">
        <ele>86</ele>
        <time>2020-08-02T07:12:39Z</time>
      </trkpt>
      <trkpt lat="47.26848" lon="-0.48911">
        <ele>86</ele>
        <time>2020-08-02T07:12:40Z</time>
      </trkpt>
      <trkpt lat="47.26846" lon="-0.48917">
        <ele>86</ele>
        <time>2020-08-02T07:12:41Z</time>
      </trkpt>
      <trkpt lat="47.26845" lon="-0.4892">
        <ele>86</ele>
        <time>2020-08-02T07:12:42Z</time>
      </trkpt>
      <trkpt lat="47.26844" lon="-0.48924">
        <ele>86</ele>
        <time>2020-08-02T07:12:43Z</time>
      </trkpt>
      <trkpt lat="47.26843" lon="-0.48928">
        <ele>85.8</ele>
        <time>2020-08-02T07:12:44Z</time>
      </trkpt>
      <trkpt lat="47.26842" lon="-0.48932">
        <ele>85.6</ele>
        <time>2020-08-02T07:12:45Z</time>
      </trkpt>
      <trkpt lat="47.26841" lon="-0.48935">
        <ele>85.6</ele>
        <time>2020-08-02T07:12:46Z</time>
      </trkpt>
      <trkpt lat="47.2684" lon="-0.48938">
        <ele>85.4</ele>
        <time>2020-08-02T07:12:47Z</time>
      </trkpt>
      <trkpt lat="47.26839" lon="-0.48941">
        <ele>85.4</ele>
        <time>2020-08-02T07:12:48Z</time>
      </trkpt>
      <trkpt lat="47.26837" lon="-0.48944">
        <ele>85.4</ele>
        <time>2020-08-02T07:12:49Z</time>
      </trkpt>
      <trkpt lat="47.26831" lon="-0.48954">
        <ele>85</ele>
        <time>2020-08-02T07:12:52Z</time>
      </trkpt>
      <trkpt lat="47.26828" lon="-0.48957">
        <ele>84.8</ele>
        <time>2020-08-02T07:12:53Z</time>
      </trkpt>
      <trkpt lat="47.26822" lon="-0.48965">
        <ele>84.6</ele>
        <time>2020-08-02T07:12:55Z</time>
      </trkpt>
      <trkpt lat="47.26815" lon="-0.48973">
        <ele>84.4</ele>
        <time>2020-08-02T07:12:57Z</time>
      </trkpt>
      <trkpt lat="47.268" lon="-0.48994">
        <ele>83.4</ele>
        <time>2020-08-02T07:13:01Z</time>
      </trkpt>
      <trkpt lat="47.2679" lon="-0.49006">
        <ele>83</ele>
        <time>2020-08-02T07:13:03Z</time>
      </trkpt>
      <trkpt lat="47.26772" lon="-0.49029">
        <ele>82</ele>
        <time>2020-08-02T07:13:06Z</time>
      </trkpt>
      <trkpt lat="47.2676" lon="-0.49046">
        <ele>81.4</ele>
        <time>2020-08-02T07:13:08Z</time>
      </trkpt>
      <trkpt lat="47.26747" lon="-0.49061">
        <ele>80.4</ele>
        <time>2020-08-02T07:13:10Z</time>
      </trkpt>
      <trkpt lat="47.26741" lon="-0.49068">
        <ele>79.4</ele>
        <time>2020-08-02T07:13:11Z</time>
      </trkpt>
      <trkpt lat="47.26734" lon="-0.49076">
        <ele>78.8</ele>
        <time>2020-08-02T07:13:12Z</time>
      </trkpt>
      <trkpt lat="47.26728" lon="-0.49084">
        <ele>78.2</ele>
        <time>2020-08-02T07:13:13Z</time>
      </trkpt>
      <trkpt lat="47.26722" lon="-0.49091">
        <ele>77.6</ele>
        <time>2020-08-02T07:13:14Z</time>
      </trkpt>
      <trkpt lat="47.26718" lon="-0.49096">
        <ele>76.8</ele>
        <time>2020-08-02T07:13:15Z</time>
      </trkpt>
      <trkpt lat="47.26712" lon="-0.49104">
        <ele>76.6</ele>
        <time>2020-08-02T07:13:16Z</time>
      </trkpt>
      <trkpt lat="47.26708" lon="-0.4911">
        <ele>75.8</ele>
        <time>2020-08-02T07:13:17Z</time>
      </trkpt>
      <trkpt lat="47.26704" lon="-0.49115">
        <ele>73.4</ele>
        <time>2020-08-02T07:13:18Z</time>
      </trkpt>
      <trkpt lat="47.26701" lon="-0.49118">
        <ele>72.6</ele>
        <time>2020-08-02T07:13:19Z</time>
      </trkpt>
      <trkpt lat="47.26698" lon="-0.49119">
        <ele>70.6</ele>
        <time>2020-08-02T07:13:20Z</time>
      </trkpt>
      <trkpt lat="47.26694" lon="-0.49118">
        <ele>69.6</ele>
        <time>2020-08-02T07:13:21Z</time>
      </trkpt>
      <trkpt lat="47.26691" lon="-0.49115">
        <ele>68.4</ele>
        <time>2020-08-02T07:13:22Z</time>
      </trkpt>
      <trkpt lat="47.26689" lon="-0.49112">
        <ele>67.2</ele>
        <time>2020-08-02T07:13:23Z</time>
      </trkpt>
      <trkpt lat="47.26687" lon="-0.4911">
        <ele>66.8</ele>
        <time>2020-08-02T07:13:24Z</time>
      </trkpt>
      <trkpt lat="47.26685" lon="-0.49105">
        <ele>66.2</ele>
        <time>2020-08-02T07:13:25Z</time>
      </trkpt>
      <trkpt lat="47.26683" lon="-0.49101">
        <ele>66</ele>
        <time>2020-08-02T07:13:26Z</time>
      </trkpt>
      <trkpt lat="47.26679" lon="-0.49095">
        <ele>65.6</ele>
        <time>2020-08-02T07:13:28Z</time>
      </trkpt>
      <trkpt lat="47.26674" lon="-0.49087">
        <ele>65.4</ele>
        <time>2020-08-02T07:13:30Z</time>
      </trkpt>
      <trkpt lat="47.26672" lon="-0.49084">
        <ele>65.4</ele>
        <time>2020-08-02T07:13:31Z</time>
      </trkpt>
      <trkpt lat="47.26671" lon="-0.49081">
        <ele>65.4</ele>
        <time>2020-08-02T07:13:32Z</time>
      </trkpt>
      <trkpt lat="47.26669" lon="-0.49078">
        <ele>65.4</ele>
        <time>2020-08-02T07:13:33Z</time>
      </trkpt>
      <trkpt lat="47.26667" lon="-0.49074">
        <ele>65.2</ele>
        <time>2020-08-02T07:13:34Z</time>
      </trkpt>
      <trkpt lat="47.26665" lon="-0.49071">
        <ele>65.2</ele>
        <time>2020-08-02T07:13:35Z</time>
      </trkpt>
      <trkpt lat="47.26663" lon="-0.49067">
        <ele>65</ele>
        <time>2020-08-02T07:13:36Z</time>
      </trkpt>
      <trkpt lat="47.2666" lon="-0.49063">
        <ele>65</ele>
        <time>2020-08-02T07:13:37Z</time>
      </trkpt>
      <trkpt lat="47.26658" lon="-0.49059">
        <ele>64.8</ele>
        <time>2020-08-02T07:13:38Z</time>
      </trkpt>
      <trkpt lat="47.2665" lon="-0.4904">
        <ele>64.6</ele>
        <time>2020-08-02T07:13:42Z</time>
      </trkpt>
      <trkpt lat="47.26646" lon="-0.49031">
        <ele>64.4</ele>
        <time>2020-08-02T07:13:44Z</time>
      </trkpt>
      <trkpt lat="47.26644" lon="-0.49028">
        <ele>64.4</ele>
        <time>2020-08-02T07:13:45Z</time>
      </trkpt>
      <trkpt lat="47.26643" lon="-0.49025">
        <ele>64.4</ele>
        <time>2020-08-02T07:13:46Z</time>
      </trkpt>
      <trkpt lat="47.26642" lon="-0.49023">
        <ele>64.4</ele>
        <time>2020-08-02T07:13:47Z</time>
      </trkpt>
      <trkpt lat="47.26641" lon="-0.49021">
        <ele>64.4</ele>
        <time>2020-08-02T07:13:48Z</time>
      </trkpt>
      <trkpt lat="47.2664" lon="-0.49018">
        <ele>64.4</ele>
        <time>2020-08-02T07:13:49Z</time>
      </trkpt>
      <trkpt lat="47.26639" lon="-0.49016">
        <ele>64.2</ele>
        <time>2020-08-02T07:13:50Z</time>
      </trkpt>
      <trkpt lat="47.26639" lon="-0.49014">
        <ele>64.2</ele>
        <time>2020-08-02T07:13:51Z</time>
      </trkpt>
      <trkpt lat="47.26638" lon="-0.49011">
        <ele>64.2</ele>
        <time>2020-08-02T07:13:52Z</time>
      </trkpt>
      <trkpt lat="47.26637" lon="-0.49008">
        <ele>64.2</ele>
        <time>2020-08-02T07:13:53Z</time>
      </trkpt>
      <trkpt lat="47.26634" lon="-0.49001">
        <ele>64.2</ele>
        <time>2020-08-02T07:13:55Z</time>
      </trkpt>
      <trkpt lat="47.26628" lon="-0.4899">
        <ele>64.2</ele>
        <time>2020-08-02T07:13:58Z</time>
      </trkpt>
      <trkpt lat="47.26627" lon="-0.48987">
        <ele>64.2</ele>
        <time>2020-08-02T07:13:59Z</time>
      </trkpt>
      <trkpt lat="47.26625" lon="-0.48983">
        <ele>64.2</ele>
        <time>2020-08-02T07:14:00Z</time>
      </trkpt>
      <trkpt lat="47.26621" lon="-0.48974">
        <ele>64</ele>
        <time>2020-08-02T07:14:02Z</time>
      </trkpt>
      <trkpt lat="47.2662" lon="-0.48969">
        <ele>64</ele>
        <time>2020-08-02T07:14:03Z</time>
      </trkpt>
      <trkpt lat="47.26617" lon="-0.4896">
        <ele>64</ele>
        <time>2020-08-02T07:14:05Z</time>
      </trkpt>
      <trkpt lat="47.26615" lon="-0.48956">
        <ele>63.8</ele>
        <time>2020-08-02T07:14:06Z</time>
      </trkpt>
      <trkpt lat="47.26612" lon="-0.48952">
        <ele>63.8</ele>
        <time>2020-08-02T07:14:07Z</time>
      </trkpt>
      <trkpt lat="47.26611" lon="-0.48948">
        <ele>63.6</ele>
        <time>2020-08-02T07:14:08Z</time>
      </trkpt>
      <trkpt lat="47.26609" lon="-0.48944">
        <ele>63.6</ele>
        <time>2020-08-02T07:14:09Z</time>
      </trkpt>
      <trkpt lat="47.26609" lon="-0.48939">
        <ele>63.6</ele>
        <time>2020-08-02T07:14:10Z</time>
      </trkpt>
      <trkpt lat="47.2661" lon="-0.48934">
        <ele>63.6</ele>
        <time>2020-08-02T07:14:11Z</time>
      </trkpt>
      <trkpt lat="47.26611" lon="-0.48928">
        <ele>63.6</ele>
        <time>2020-08-02T07:14:12Z</time>
      </trkpt>
      <trkpt lat="47.26613" lon="-0.48922">
        <ele>63.6</ele>
        <time>2020-08-02T07:14:13Z</time>
      </trkpt>
      <trkpt lat="47.26616" lon="-0.48914">
        <ele>63.6</ele>
        <time>2020-08-02T07:14:15Z</time>
      </trkpt>
      <trkpt lat="47.26617" lon="-0.4891">
        <ele>63.6</ele>
        <time>2020-08-02T07:14:16Z</time>
      </trkpt>
      <trkpt lat="47.26619" lon="-0.48907">
        <ele>63.8</ele>
        <time>2020-08-02T07:14:17Z</time>
      </trkpt>
      <trkpt lat="47.2662" lon="-0.48904">
        <ele>64</ele>
        <time>2020-08-02T07:14:18Z</time>
      </trkpt>
      <trkpt lat="47.26622" lon="-0.48901">
        <ele>64.4</ele>
        <time>2020-08-02T07:14:19Z</time>
      </trkpt>
      <trkpt lat="47.26623" lon="-0.48899">
        <ele>64.8</ele>
        <time>2020-08-02T07:14:20Z</time>
      </trkpt>
      <trkpt lat="47.26625" lon="-0.48896">
        <ele>65</ele>
        <time>2020-08-02T07:14:21Z</time>
      </trkpt>
      <trkpt lat="47.26626" lon="-0.48893">
        <ele>65.8</ele>
        <time>2020-08-02T07:14:22Z</time>
      </trkpt>
      <trkpt lat="47.26627" lon="-0.4889">
        <ele>66</ele>
        <time>2020-08-02T07:14:23Z</time>
      </trkpt>
      <trkpt lat="47.26628" lon="-0.48887">
        <ele>66.4</ele>
        <time>2020-08-02T07:14:24Z</time>
      </trkpt>
      <trkpt lat="47.2663" lon="-0.48884">
        <ele>66.6</ele>
        <time>2020-08-02T07:14:25Z</time>
      </trkpt>
      <trkpt lat="47.26631" lon="-0.48881">
        <ele>67</ele>
        <time>2020-08-02T07:14:26Z</time>
      </trkpt>
      <trkpt lat="47.26633" lon="-0.48879">
        <ele>67.2</ele>
        <time>2020-08-02T07:14:27Z</time>
      </trkpt>
      <trkpt lat="47.26634" lon="-0.48877">
        <ele>67.4</ele>
        <time>2020-08-02T07:14:28Z</time>
      </trkpt>
      <trkpt lat="47.26635" lon="-0.48874">
        <ele>67.8</ele>
        <time>2020-08-02T07:14:29Z</time>
      </trkpt>
      <trkpt lat="47.26637" lon="-0.48872">
        <ele>68</ele>
        <time>2020-08-02T07:14:30Z</time>
      </trkpt>
      <trkpt lat="47.26638" lon="-0.48869">
        <ele>68.2</ele>
        <time>2020-08-02T07:14:31Z</time>
      </trkpt>
      <trkpt lat="47.26639" lon="-0.48867">
        <ele>68.4</ele>
        <time>2020-08-02T07:14:32Z</time>
      </trkpt>
      <trkpt lat="47.2664" lon="-0.48864">
        <ele>68.8</ele>
        <time>2020-08-02T07:14:33Z</time>
      </trkpt>
      <trkpt lat="47.26642" lon="-0.48862">
        <ele>69.4</ele>
        <time>2020-08-02T07:14:34Z</time>
      </trkpt>
      <trkpt lat="47.26643" lon="-0.48859">
        <ele>69.6</ele>
        <time>2020-08-02T07:14:35Z</time>
      </trkpt>
      <trkpt lat="47.26645" lon="-0.48856">
        <ele>70</ele>
        <time>2020-08-02T07:14:36Z</time>
      </trkpt>
      <trkpt lat="47.26646" lon="-0.48853">
        <ele>70</ele>
        <time>2020-08-02T07:14:37Z</time>
      </trkpt>
      <trkpt lat="47.26646" lon="-0.4885">
        <ele>70.4</ele>
        <time>2020-08-02T07:14:38Z</time>
      </trkpt>
      <trkpt lat="47.26647" lon="-0.48848">
        <ele>70.8</ele>
        <time>2020-08-02T07:14:39Z</time>
      </trkpt>
      <trkpt lat="47.26648" lon="-0.48845">
        <ele>71</ele>
        <time>2020-08-02T07:14:40Z</time>
      </trkpt>
      <trkpt lat="47.26648" lon="-0.48842">
        <ele>71.2</ele>
        <time>2020-08-02T07:14:41Z</time>
      </trkpt>
      <trkpt lat="47.26649" lon="-0.48839">
        <ele>71.4</ele>
        <time>2020-08-02T07:14:42Z</time>
      </trkpt>
      <trkpt lat="47.2665" lon="-0.48836">
        <ele>72</ele>
        <time>2020-08-02T07:14:43Z</time>
      </trkpt>
      <trkpt lat="47.26651" lon="-0.48833">
        <ele>72.2</ele>
        <time>2020-08-02T07:14:44Z</time>
      </trkpt>
      <trkpt lat="47.26651" lon="-0.4883">
        <ele>72.8</ele>
        <time>2020-08-02T07:14:45Z</time>
      </trkpt>
      <trkpt lat="47.26651" lon="-0.48827">
        <ele>73.6</ele>
        <time>2020-08-02T07:14:46Z</time>
      </trkpt>
      <trkpt lat="47.26651" lon="-0.48824">
        <ele>73.8</ele>
        <time>2020-08-02T07:14:47Z</time>
      </trkpt>
      <trkpt lat="47.26651" lon="-0.48822">
        <ele>74.2</ele>
        <time>2020-08-02T07:14:48Z</time>
      </trkpt>
      <trkpt lat="47.26651" lon="-0.48819">
        <ele>74.4</ele>
        <time>2020-08-02T07:14:49Z</time>
      </trkpt>
      <trkpt lat="47.26651" lon="-0.48816">
        <ele>74.6</ele>
        <time>2020-08-02T07:14:50Z</time>
      </trkpt>
      <trkpt lat="47.26651" lon="-0.48813">
        <ele>75</ele>
        <time>2020-08-02T07:14:51Z</time>
      </trkpt>
      <trkpt lat="47.26651" lon="-0.4881">
        <ele>75.2</ele>
        <time>2020-08-02T07:14:52Z</time>
      </trkpt>
      <trkpt lat="47.26652" lon="-0.48807">
        <ele>75.4</ele>
        <time>2020-08-02T07:14:53Z</time>
      </trkpt>
      <trkpt lat="47.26652" lon="-0.48804">
        <ele>75.6</ele>
        <time>2020-08-02T07:14:54Z</time>
      </trkpt>
      <trkpt lat="47.26653" lon="-0.48801">
        <ele>75.8</ele>
        <time>2020-08-02T07:14:55Z</time>
      </trkpt>
      <trkpt lat="47.26653" lon="-0.48798">
        <ele>76</ele>
        <time>2020-08-02T07:14:56Z</time>
      </trkpt>
      <trkpt lat="47.26654" lon="-0.48795">
        <ele>76.4</ele>
        <time>2020-08-02T07:14:57Z</time>
      </trkpt>
      <trkpt lat="47.26654" lon="-0.48792">
        <ele>76.8</ele>
        <time>2020-08-02T07:14:58Z</time>
      </trkpt>
      <trkpt lat="47.26655" lon="-0.4879">
        <ele>76.8</ele>
        <time>2020-08-02T07:14:59Z</time>
      </trkpt>
      <trkpt lat="47.26656" lon="-0.48788">
        <ele>77</ele>
        <time>2020-08-02T07:15:00Z</time>
      </trkpt>
      <trkpt lat="47.26657" lon="-0.48785">
        <ele>77.2</ele>
        <time>2020-08-02T07:15:01Z</time>
      </trkpt>
      <trkpt lat="47.26658" lon="-0.48783">
        <ele>77.2</ele>
        <time>2020-08-02T07:15:02Z</time>
      </trkpt>
      <trkpt lat="47.26659" lon="-0.4878">
        <ele>77.4</ele>
        <time>2020-08-02T07:15:03Z</time>
      </trkpt>
      <trkpt lat="47.2666" lon="-0.48777">
        <ele>77.8</ele>
        <time>2020-08-02T07:15:04Z</time>
      </trkpt>
      <trkpt lat="47.26661" lon="-0.48774">
        <ele>78.2</ele>
        <time>2020-08-02T07:15:05Z</time>
      </trkpt>
      <trkpt lat="47.26661" lon="-0.48772">
        <ele>78.4</ele>
        <time>2020-08-02T07:15:06Z</time>
      </trkpt>
      <trkpt lat="47.26662" lon="-0.48769">
        <ele>78.6</ele>
        <time>2020-08-02T07:15:07Z</time>
      </trkpt>
      <trkpt lat="47.26663" lon="-0.48765">
        <ele>78.8</ele>
        <time>2020-08-02T07:15:08Z</time>
      </trkpt>
      <trkpt lat="47.26664" lon="-0.48762">
        <ele>79</ele>
        <time>2020-08-02T07:15:09Z</time>
      </trkpt>
      <trkpt lat="47.26664" lon="-0.48758">
        <ele>79.2</ele>
        <time>2020-08-02T07:15:10Z</time>
      </trkpt>
      <trkpt lat="47.26665" lon="-0.48755">
        <ele>79.2</ele>
        <time>2020-08-02T07:15:11Z</time>
      </trkpt>
      <trkpt lat="47.26666" lon="-0.48752">
        <ele>79.6</ele>
        <time>2020-08-02T07:15:12Z</time>
      </trkpt>
      <trkpt lat="47.26667" lon="-0.48749">
        <ele>79.8</ele>
        <time>2020-08-02T07:15:13Z</time>
      </trkpt>
      <trkpt lat="47.26668" lon="-0.48745">
        <ele>79.8</ele>
        <time>2020-08-02T07:15:14Z</time>
      </trkpt>
      <trkpt lat="47.26668" lon="-0.48742">
        <ele>80</ele>
        <time>2020-08-02T07:15:15Z</time>
      </trkpt>
      <trkpt lat="47.26669" lon="-0.48738">
        <ele>80</ele>
        <time>2020-08-02T07:15:16Z</time>
      </trkpt>
      <trkpt lat="47.2667" lon="-0.48735">
        <ele>80.2</ele>
        <time>2020-08-02T07:15:17Z</time>
      </trkpt>
      <trkpt lat="47.2667" lon="-0.48731">
        <ele>80.2</ele>
        <time>2020-08-02T07:15:18Z</time>
      </trkpt>
      <trkpt lat="47.26671" lon="-0.48728">
        <ele>80.4</ele>
        <time>2020-08-02T07:15:19Z</time>
      </trkpt>
      <trkpt lat="47.26671" lon="-0.48724">
        <ele>80.4</ele>
        <time>2020-08-02T07:15:20Z</time>
      </trkpt>
      <trkpt lat="47.26672" lon="-0.48721">
        <ele>80.2</ele>
        <time>2020-08-02T07:15:21Z</time>
      </trkpt>
      <trkpt lat="47.26672" lon="-0.48717">
        <ele>80.4</ele>
        <time>2020-08-02T07:15:22Z</time>
      </trkpt>
      <trkpt lat="47.26673" lon="-0.48714">
        <ele>80.4</ele>
        <time>2020-08-02T07:15:23Z</time>
      </trkpt>
      <trkpt lat="47.26673" lon="-0.4871">
        <ele>80.4</ele>
        <time>2020-08-02T07:15:24Z</time>
      </trkpt>
      <trkpt lat="47.26675" lon="-0.48702">
        <ele>80.4</ele>
        <time>2020-08-02T07:15:26Z</time>
      </trkpt>
      <trkpt lat="47.26675" lon="-0.48699">
        <ele>80.6</ele>
        <time>2020-08-02T07:15:27Z</time>
      </trkpt>
      <trkpt lat="47.26676" lon="-0.48692">
        <ele>80.6</ele>
        <time>2020-08-02T07:15:29Z</time>
      </trkpt>
      <trkpt lat="47.26676" lon="-0.48688">
        <ele>80.6</ele>
        <time>2020-08-02T07:15:30Z</time>
      </trkpt>
      <trkpt lat="47.26678" lon="-0.48681">
        <ele>80.8</ele>
        <time>2020-08-02T07:15:32Z</time>
      </trkpt>
      <trkpt lat="47.2668" lon="-0.48667">
        <ele>81</ele>
        <time>2020-08-02T07:15:36Z</time>
      </trkpt>
      <trkpt lat="47.26681" lon="-0.48663">
        <ele>81</ele>
        <time>2020-08-02T07:15:37Z</time>
      </trkpt>
      <trkpt lat="47.26681" lon="-0.48659">
        <ele>81</ele>
        <time>2020-08-02T07:15:38Z</time>
      </trkpt>
      <trkpt lat="47.26682" lon="-0.48655">
        <ele>81.2</ele>
        <time>2020-08-02T07:15:39Z</time>
      </trkpt>
      <trkpt lat="47.26685" lon="-0.48643">
        <ele>81.2</ele>
        <time>2020-08-02T07:15:42Z</time>
      </trkpt>
      <trkpt lat="47.26686" lon="-0.48639">
        <ele>81.2</ele>
        <time>2020-08-02T07:15:43Z</time>
      </trkpt>
      <trkpt lat="47.26691" lon="-0.48621">
        <ele>81.2</ele>
        <time>2020-08-02T07:15:47Z</time>
      </trkpt>
      <trkpt lat="47.26693" lon="-0.48617">
        <ele>81.2</ele>
        <time>2020-08-02T07:15:48Z</time>
      </trkpt>
      <trkpt lat="47.26694" lon="-0.48612">
        <ele>81.2</ele>
        <time>2020-08-02T07:15:49Z</time>
      </trkpt>
      <trkpt lat="47.267" lon="-0.4859">
        <ele>81.2</ele>
        <time>2020-08-02T07:15:53Z</time>
      </trkpt>
      <trkpt lat="47.2671" lon="-0.4855">
        <ele>80.4</ele>
        <time>2020-08-02T07:15:58Z</time>
      </trkpt>
      <trkpt lat="47.2672" lon="-0.48508">
        <ele>79</ele>
        <time>2020-08-02T07:16:02Z</time>
      </trkpt>
      <trkpt lat="47.26723" lon="-0.48497">
        <ele>78.6</ele>
        <time>2020-08-02T07:16:03Z</time>
      </trkpt>
      <trkpt lat="47.26727" lon="-0.48487">
        <ele>78</ele>
        <time>2020-08-02T07:16:04Z</time>
      </trkpt>
      <trkpt lat="47.26731" lon="-0.48476">
        <ele>78</ele>
        <time>2020-08-02T07:16:05Z</time>
      </trkpt>
      <trkpt lat="47.26745" lon="-0.48446">
        <ele>76.4</ele>
        <time>2020-08-02T07:16:08Z</time>
      </trkpt>
      <trkpt lat="47.26749" lon="-0.48436">
        <ele>75.4</ele>
        <time>2020-08-02T07:16:09Z</time>
      </trkpt>
      <trkpt lat="47.26754" lon="-0.48426">
        <ele>75.2</ele>
        <time>2020-08-02T07:16:10Z</time>
      </trkpt>
      <trkpt lat="47.26764" lon="-0.48408">
        <ele>73.6</ele>
        <time>2020-08-02T07:16:12Z</time>
      </trkpt>
      <trkpt lat="47.26778" lon="-0.48382">
        <ele>72.8</ele>
        <time>2020-08-02T07:16:15Z</time>
      </trkpt>
      <trkpt lat="47.26782" lon="-0.48376">
        <ele>72.2</ele>
        <time>2020-08-02T07:16:16Z</time>
      </trkpt>
      <trkpt lat="47.26786" lon="-0.48372">
        <ele>72</ele>
        <time>2020-08-02T07:16:17Z</time>
      </trkpt>
      <trkpt lat="47.26789" lon="-0.48369">
        <ele>71.8</ele>
        <time>2020-08-02T07:16:18Z</time>
      </trkpt>
      <trkpt lat="47.26793" lon="-0.48367">
        <ele>71.4</ele>
        <time>2020-08-02T07:16:19Z</time>
      </trkpt>
      <trkpt lat="47.26795" lon="-0.48365">
        <ele>71.2</ele>
        <time>2020-08-02T07:16:20Z</time>
      </trkpt>
      <trkpt lat="47.26796" lon="-0.48363">
        <ele>71</ele>
        <time>2020-08-02T07:16:21Z</time>
      </trkpt>
      <trkpt lat="47.26797" lon="-0.48361">
        <ele>71</ele>
        <time>2020-08-02T07:16:22Z</time>
      </trkpt>
      <trkpt lat="47.26797" lon="-0.48359">
        <ele>71</ele>
        <time>2020-08-02T07:16:23Z</time>
      </trkpt>
      <trkpt lat="47.26798" lon="-0.48356">
        <ele>71</ele>
        <time>2020-08-02T07:16:24Z</time>
      </trkpt>
      <trkpt lat="47.26798" lon="-0.48352">
        <ele>71</ele>
        <time>2020-08-02T07:16:25Z</time>
      </trkpt>
      <trkpt lat="47.26798" lon="-0.48348">
        <ele>71</ele>
        <time>2020-08-02T07:16:26Z</time>
      </trkpt>
      <trkpt lat="47.26799" lon="-0.48343">
        <ele>71</ele>
        <time>2020-08-02T07:16:27Z</time>
      </trkpt>
      <trkpt lat="47.268" lon="-0.48338">
        <ele>71</ele>
        <time>2020-08-02T07:16:28Z</time>
      </trkpt>
      <trkpt lat="47.26806" lon="-0.48307">
        <ele>71</ele>
        <time>2020-08-02T07:16:34Z</time>
      </trkpt>
      <trkpt lat="47.26806" lon="-0.48302">
        <ele>70.8</ele>
        <time>2020-08-02T07:16:35Z</time>
      </trkpt>
      <trkpt lat="47.26811" lon="-0.48275">
        <ele>69.8</ele>
        <time>2020-08-02T07:16:40Z</time>
      </trkpt>
      <trkpt lat="47.26813" lon="-0.48265">
        <ele>69.4</ele>
        <time>2020-08-02T07:16:42Z</time>
      </trkpt>
      <trkpt lat="47.26814" lon="-0.4826">
        <ele>69.2</ele>
        <time>2020-08-02T07:16:43Z</time>
      </trkpt>
      <trkpt lat="47.26815" lon="-0.48256">
        <ele>69.2</ele>
        <time>2020-08-02T07:16:44Z</time>
      </trkpt>
      <trkpt lat="47.26816" lon="-0.48252">
        <ele>69</ele>
        <time>2020-08-02T07:16:45Z</time>
      </trkpt>
      <trkpt lat="47.26816" lon="-0.48247">
        <ele>69</ele>
        <time>2020-08-02T07:16:46Z</time>
      </trkpt>
      <trkpt lat="47.26816" lon="-0.48243">
        <ele>69</ele>
        <time>2020-08-02T07:16:47Z</time>
      </trkpt>
      <trkpt lat="47.26816" lon="-0.48239">
        <ele>69.2</ele>
        <time>2020-08-02T07:16:48Z</time>
      </trkpt>
      <trkpt lat="47.26814" lon="-0.48235">
        <ele>69.2</ele>
        <time>2020-08-02T07:16:49Z</time>
      </trkpt>
      <trkpt lat="47.26812" lon="-0.48231">
        <ele>69.2</ele>
        <time>2020-08-02T07:16:50Z</time>
      </trkpt>
      <trkpt lat="47.2681" lon="-0.48228">
        <ele>69.2</ele>
        <time>2020-08-02T07:16:51Z</time>
      </trkpt>
      <trkpt lat="47.26809" lon="-0.48224">
        <ele>69.2</ele>
        <time>2020-08-02T07:16:52Z</time>
      </trkpt>
      <trkpt lat="47.26807" lon="-0.4822">
        <ele>69.4</ele>
        <time>2020-08-02T07:16:53Z</time>
      </trkpt>
      <trkpt lat="47.26806" lon="-0.48217">
        <ele>69.6</ele>
        <time>2020-08-02T07:16:54Z</time>
      </trkpt>
      <trkpt lat="47.26795" lon="-0.48191">
        <ele>69.8</ele>
        <time>2020-08-02T07:17:00Z</time>
      </trkpt>
      <trkpt lat="47.26789" lon="-0.48173">
        <ele>70.4</ele>
        <time>2020-08-02T07:17:04Z</time>
      </trkpt>
      <trkpt lat="47.26787" lon="-0.48169">
        <ele>70.4</ele>
        <time>2020-08-02T07:17:05Z</time>
      </trkpt>
      <trkpt lat="47.26785" lon="-0.48165">
        <ele>70.6</ele>
        <time>2020-08-02T07:17:06Z</time>
      </trkpt>
      <trkpt lat="47.26783" lon="-0.48161">
        <ele>71</ele>
        <time>2020-08-02T07:17:07Z</time>
      </trkpt>
      <trkpt lat="47.26782" lon="-0.48157">
        <ele>71.2</ele>
        <time>2020-08-02T07:17:08Z</time>
      </trkpt>
      <trkpt lat="47.2678" lon="-0.48153">
        <ele>71.6</ele>
        <time>2020-08-02T07:17:09Z</time>
      </trkpt>
      <trkpt lat="47.26779" lon="-0.48148">
        <ele>71.8</ele>
        <time>2020-08-02T07:17:10Z</time>
      </trkpt>
      <trkpt lat="47.26777" lon="-0.48144">
        <ele>72.2</ele>
        <time>2020-08-02T07:17:11Z</time>
      </trkpt>
      <trkpt lat="47.26776" lon="-0.48139">
        <ele>72.4</ele>
        <time>2020-08-02T07:17:12Z</time>
      </trkpt>
      <trkpt lat="47.26774" lon="-0.48134">
        <ele>72.6</ele>
        <time>2020-08-02T07:17:13Z</time>
      </trkpt>
      <trkpt lat="47.26773" lon="-0.4813">
        <ele>73</ele>
        <time>2020-08-02T07:17:14Z</time>
      </trkpt>
      <trkpt lat="47.26771" lon="-0.48125">
        <ele>73.2</ele>
        <time>2020-08-02T07:17:15Z</time>
      </trkpt>
      <trkpt lat="47.2677" lon="-0.48121">
        <ele>73.8</ele>
        <time>2020-08-02T07:17:16Z</time>
      </trkpt>
      <trkpt lat="47.2677" lon="-0.48116">
        <ele>74</ele>
        <time>2020-08-02T07:17:17Z</time>
      </trkpt>
      <trkpt lat="47.26769" lon="-0.48111">
        <ele>74.4</ele>
        <time>2020-08-02T07:17:18Z</time>
      </trkpt>
      <trkpt lat="47.26768" lon="-0.48107">
        <ele>74.6</ele>
        <time>2020-08-02T07:17:19Z</time>
      </trkpt>
      <trkpt lat="47.26768" lon="-0.48102">
        <ele>74.8</ele>
        <time>2020-08-02T07:17:20Z</time>
      </trkpt>
      <trkpt lat="47.26767" lon="-0.48097">
        <ele>75.2</ele>
        <time>2020-08-02T07:17:21Z</time>
      </trkpt>
      <trkpt lat="47.26767" lon="-0.48092">
        <ele>75.4</ele>
        <time>2020-08-02T07:17:22Z</time>
      </trkpt>
      <trkpt lat="47.26767" lon="-0.48087">
        <ele>76</ele>
        <time>2020-08-02T07:17:23Z</time>
      </trkpt>
      <trkpt lat="47.26766" lon="-0.48083">
        <ele>76.2</ele>
        <time>2020-08-02T07:17:24Z</time>
      </trkpt>
      <trkpt lat="47.26766" lon="-0.48078">
        <ele>76.4</ele>
        <time>2020-08-02T07:17:25Z</time>
      </trkpt>
      <trkpt lat="47.26766" lon="-0.48073">
        <ele>76.8</ele>
        <time>2020-08-02T07:17:26Z</time>
      </trkpt>
      <trkpt lat="47.26766" lon="-0.48069">
        <ele>77</ele>
        <time>2020-08-02T07:17:27Z</time>
      </trkpt>
      <trkpt lat="47.26766" lon="-0.48064">
        <ele>77.4</ele>
        <time>2020-08-02T07:17:28Z</time>
      </trkpt>
      <trkpt lat="47.26765" lon="-0.4806">
        <ele>77.6</ele>
        <time>2020-08-02T07:17:29Z</time>
      </trkpt>
      <trkpt lat="47.26765" lon="-0.48055">
        <ele>78</ele>
        <time>2020-08-02T07:17:30Z</time>
      </trkpt>
      <trkpt lat="47.26765" lon="-0.48051">
        <ele>78.2</ele>
        <time>2020-08-02T07:17:31Z</time>
      </trkpt>
      <trkpt lat="47.26764" lon="-0.48046">
        <ele>78.2</ele>
        <time>2020-08-02T07:17:32Z</time>
      </trkpt>
      <trkpt lat="47.26764" lon="-0.48042">
        <ele>78.4</ele>
        <time>2020-08-02T07:17:33Z</time>
      </trkpt>
      <trkpt lat="47.26763" lon="-0.48037">
        <ele>78.6</ele>
        <time>2020-08-02T07:17:34Z</time>
      </trkpt>
      <trkpt lat="47.26763" lon="-0.48033">
        <ele>78.8</ele>
        <time>2020-08-02T07:17:35Z</time>
      </trkpt>
      <trkpt lat="47.26762" lon="-0.48028">
        <ele>79</ele>
        <time>2020-08-02T07:17:36Z</time>
      </trkpt>
      <trkpt lat="47.26762" lon="-0.48024">
        <ele>78.8</ele>
        <time>2020-08-02T07:17:37Z</time>
      </trkpt>
      <trkpt lat="47.26762" lon="-0.48019">
        <ele>79</ele>
        <time>2020-08-02T07:17:38Z</time>
      </trkpt>
      <trkpt lat="47.26762" lon="-0.48015">
        <ele>79.2</ele>
        <time>2020-08-02T07:17:39Z</time>
      </trkpt>
      <trkpt lat="47.26761" lon="-0.4801">
        <ele>79.4</ele>
        <time>2020-08-02T07:17:40Z</time>
      </trkpt>
      <trkpt lat="47.26761" lon="-0.48006">
        <ele>79.6</ele>
        <time>2020-08-02T07:17:41Z</time>
      </trkpt>
      <trkpt lat="47.26761" lon="-0.48002">
        <ele>79.8</ele>
        <time>2020-08-02T07:17:42Z</time>
      </trkpt>
      <trkpt lat="47.2676" lon="-0.47998">
        <ele>79.8</ele>
        <time>2020-08-02T07:17:43Z</time>
      </trkpt>
      <trkpt lat="47.2676" lon="-0.47993">
        <ele>80</ele>
        <time>2020-08-02T07:17:44Z</time>
      </trkpt>
      <trkpt lat="47.2676" lon="-0.47989">
        <ele>80</ele>
        <time>2020-08-02T07:17:45Z</time>
      </trkpt>
      <trkpt lat="47.2676" lon="-0.47985">
        <ele>80</ele>
        <time>2020-08-02T07:17:46Z</time>
      </trkpt>
      <trkpt lat="47.26759" lon="-0.47981">
        <ele>80.6</ele>
        <time>2020-08-02T07:17:47Z</time>
      </trkpt>
      <trkpt lat="47.26759" lon="-0.47977">
        <ele>80.6</ele>
        <time>2020-08-02T07:17:48Z</time>
      </trkpt>
      <trkpt lat="47.26759" lon="-0.47972">
        <ele>80.8</ele>
        <time>2020-08-02T07:17:49Z</time>
      </trkpt>
      <trkpt lat="47.26759" lon="-0.47968">
        <ele>80.8</ele>
        <time>2020-08-02T07:17:50Z</time>
      </trkpt>
      <trkpt lat="47.26758" lon="-0.47964">
        <ele>81</ele>
        <time>2020-08-02T07:17:51Z</time>
      </trkpt>
      <trkpt lat="47.26758" lon="-0.4796">
        <ele>81</ele>
        <time>2020-08-02T07:17:52Z</time>
      </trkpt>
      <trkpt lat="47.26758" lon="-0.47956">
        <ele>81</ele>
        <time>2020-08-02T07:17:53Z</time>
      </trkpt>
      <trkpt lat="47.26757" lon="-0.47953">
        <ele>81.2</ele>
        <time>2020-08-02T07:17:54Z</time>
      </trkpt>
      <trkpt lat="47.26757" lon="-0.47949">
        <ele>81.2</ele>
        <time>2020-08-02T07:17:55Z</time>
      </trkpt>
      <trkpt lat="47.26757" lon="-0.47945">
        <ele>81</ele>
        <time>2020-08-02T07:17:56Z</time>
      </trkpt>
      <trkpt lat="47.26756" lon="-0.47941">
        <ele>81.2</ele>
        <time>2020-08-02T07:17:57Z</time>
      </trkpt>
      <trkpt lat="47.26756" lon="-0.47937">
        <ele>81.2</ele>
        <time>2020-08-02T07:17:58Z</time>
      </trkpt>
      <trkpt lat="47.26756" lon="-0.47933">
        <ele>81.4</ele>
        <time>2020-08-02T07:17:59Z</time>
      </trkpt>
      <trkpt lat="47.26755" lon="-0.47925">
        <ele>81.4</ele>
        <time>2020-08-02T07:18:01Z</time>
      </trkpt>
      <trkpt lat="47.26754" lon="-0.47916">
        <ele>81.6</ele>
        <time>2020-08-02T07:18:03Z</time>
      </trkpt>
      <trkpt lat="47.26752" lon="-0.47904">
        <ele>81.6</ele>
        <time>2020-08-02T07:18:06Z</time>
      </trkpt>
      <trkpt lat="47.26752" lon="-0.479">
        <ele>81.8</ele>
        <time>2020-08-02T07:18:07Z</time>
      </trkpt>
      <trkpt lat="47.26751" lon="-0.47891">
        <ele>82</ele>
        <time>2020-08-02T07:18:09Z</time>
      </trkpt>
      <trkpt lat="47.2675" lon="-0.47887">
        <ele>82</ele>
        <time>2020-08-02T07:18:10Z</time>
      </trkpt>
      <trkpt lat="47.2675" lon="-0.47883">
        <ele>82.2</ele>
        <time>2020-08-02T07:18:11Z</time>
      </trkpt>
      <trkpt lat="47.26749" lon="-0.47879">
        <ele>82.2</ele>
        <time>2020-08-02T07:18:12Z</time>
      </trkpt>
      <trkpt lat="47.26748" lon="-0.47875">
        <ele>82.2</ele>
        <time>2020-08-02T07:18:13Z</time>
      </trkpt>
      <trkpt lat="47.26748" lon="-0.4787">
        <ele>82.4</ele>
        <time>2020-08-02T07:18:14Z</time>
      </trkpt>
      <trkpt lat="47.26747" lon="-0.47866">
        <ele>82.4</ele>
        <time>2020-08-02T07:18:15Z</time>
      </trkpt>
      <trkpt lat="47.26747" lon="-0.47861">
        <ele>82.6</ele>
        <time>2020-08-02T07:18:16Z</time>
      </trkpt>
      <trkpt lat="47.26746" lon="-0.47853">
        <ele>82.6</ele>
        <time>2020-08-02T07:18:18Z</time>
      </trkpt>
      <trkpt lat="47.26746" lon="-0.47844">
        <ele>82.8</ele>
        <time>2020-08-02T07:18:20Z</time>
      </trkpt>
      <trkpt lat="47.26745" lon="-0.47836">
        <ele>83</ele>
        <time>2020-08-02T07:18:22Z</time>
      </trkpt>
      <trkpt lat="47.26744" lon="-0.47823">
        <ele>83.4</ele>
        <time>2020-08-02T07:18:25Z</time>
      </trkpt>
      <trkpt lat="47.26743" lon="-0.47819">
        <ele>83.6</ele>
        <time>2020-08-02T07:18:26Z</time>
      </trkpt>
      <trkpt lat="47.26743" lon="-0.47815">
        <ele>83.6</ele>
        <time>2020-08-02T07:18:27Z</time>
      </trkpt>
      <trkpt lat="47.26742" lon="-0.4781">
        <ele>83.4</ele>
        <time>2020-08-02T07:18:28Z</time>
      </trkpt>
      <trkpt lat="47.26739" lon="-0.47788">
        <ele>83.8</ele>
        <time>2020-08-02T07:18:33Z</time>
      </trkpt>
      <trkpt lat="47.26739" lon="-0.47783">
        <ele>83.8</ele>
        <time>2020-08-02T07:18:34Z</time>
      </trkpt>
      <trkpt lat="47.26735" lon="-0.4774">
        <ele>83.8</ele>
        <time>2020-08-02T07:18:43Z</time>
      </trkpt>
      <trkpt lat="47.26734" lon="-0.47724">
        <ele>83.8</ele>
        <time>2020-08-02T07:18:46Z</time>
      </trkpt>
      <trkpt lat="47.26732" lon="-0.47701">
        <ele>83.2</ele>
        <time>2020-08-02T07:18:50Z</time>
      </trkpt>
      <trkpt lat="47.2673" lon="-0.47676">
        <ele>83</ele>
        <time>2020-08-02T07:18:54Z</time>
      </trkpt>
      <trkpt lat="47.26727" lon="-0.47642">
        <ele>82.2</ele>
        <time>2020-08-02T07:18:59Z</time>
      </trkpt>
      <trkpt lat="47.26727" lon="-0.47634">
        <ele>82</ele>
        <time>2020-08-02T07:19:00Z</time>
      </trkpt>
      <trkpt lat="47.26728" lon="-0.47592">
        <ele>81.4</ele>
        <time>2020-08-02T07:19:05Z</time>
      </trkpt>
      <trkpt lat="47.26729" lon="-0.47583">
        <ele>81.2</ele>
        <time>2020-08-02T07:19:06Z</time>
      </trkpt>
      <trkpt lat="47.2673" lon="-0.47574">
        <ele>81</ele>
        <time>2020-08-02T07:19:07Z</time>
      </trkpt>
      <trkpt lat="47.26734" lon="-0.47518">
        <ele>80</ele>
        <time>2020-08-02T07:19:13Z</time>
      </trkpt>
      <trkpt lat="47.26735" lon="-0.47509">
        <ele>79.6</ele>
        <time>2020-08-02T07:19:14Z</time>
      </trkpt>
      <trkpt lat="47.26735" lon="-0.47467">
        <ele>78.6</ele>
        <time>2020-08-02T07:19:18Z</time>
      </trkpt>
      <trkpt lat="47.26734" lon="-0.47439">
        <ele>77.8</ele>
        <time>2020-08-02T07:19:21Z</time>
      </trkpt>
      <trkpt lat="47.26733" lon="-0.4743">
        <ele>77.8</ele>
        <time>2020-08-02T07:19:22Z</time>
      </trkpt>
      <trkpt lat="47.26733" lon="-0.47422">
        <ele>77.8</ele>
        <time>2020-08-02T07:19:23Z</time>
      </trkpt>
      <trkpt lat="47.26733" lon="-0.47415">
        <ele>77.8</ele>
        <time>2020-08-02T07:19:24Z</time>
      </trkpt>
      <trkpt lat="47.26732" lon="-0.47407">
        <ele>77.6</ele>
        <time>2020-08-02T07:19:25Z</time>
      </trkpt>
      <trkpt lat="47.26732" lon="-0.47399">
        <ele>77.6</ele>
        <time>2020-08-02T07:19:26Z</time>
      </trkpt>
      <trkpt lat="47.26732" lon="-0.47392">
        <ele>77.6</ele>
        <time>2020-08-02T07:19:27Z</time>
      </trkpt>
      <trkpt lat="47.26733" lon="-0.47386">
        <ele>77.6</ele>
        <time>2020-08-02T07:19:28Z</time>
      </trkpt>
      <trkpt lat="47.26735" lon="-0.4738">
        <ele>77.6</ele>
        <time>2020-08-02T07:19:29Z</time>
      </trkpt>
      <trkpt lat="47.26736" lon="-0.47373">
        <ele>77.6</ele>
        <time>2020-08-02T07:19:30Z</time>
      </trkpt>
      <trkpt lat="47.26738" lon="-0.47367">
        <ele>77.8</ele>
        <time>2020-08-02T07:19:31Z</time>
      </trkpt>
      <trkpt lat="47.26739" lon="-0.47362">
        <ele>77.8</ele>
        <time>2020-08-02T07:19:32Z</time>
      </trkpt>
      <trkpt lat="47.26741" lon="-0.47356">
        <ele>78</ele>
        <time>2020-08-02T07:19:33Z</time>
      </trkpt>
      <trkpt lat="47.26742" lon="-0.47351">
        <ele>78</ele>
        <time>2020-08-02T07:19:34Z</time>
      </trkpt>
      <trkpt lat="47.26743" lon="-0.47346">
        <ele>78.2</ele>
        <time>2020-08-02T07:19:35Z</time>
      </trkpt>
      <trkpt lat="47.26744" lon="-0.47341">
        <ele>78.4</ele>
        <time>2020-08-02T07:19:36Z</time>
      </trkpt>
      <trkpt lat="47.26746" lon="-0.47336">
        <ele>78.8</ele>
        <time>2020-08-02T07:19:37Z</time>
      </trkpt>
      <trkpt lat="47.26747" lon="-0.47332">
        <ele>79.2</ele>
        <time>2020-08-02T07:19:38Z</time>
      </trkpt>
      <trkpt lat="47.26749" lon="-0.47327">
        <ele>79.4</ele>
        <time>2020-08-02T07:19:39Z</time>
      </trkpt>
      <trkpt lat="47.2675" lon="-0.47323">
        <ele>79.6</ele>
        <time>2020-08-02T07:19:40Z</time>
      </trkpt>
      <trkpt lat="47.26752" lon="-0.47318">
        <ele>79.8</ele>
        <time>2020-08-02T07:19:41Z</time>
      </trkpt>
      <trkpt lat="47.26754" lon="-0.47314">
        <ele>79.8</ele>
        <time>2020-08-02T07:19:42Z</time>
      </trkpt>
      <trkpt lat="47.26755" lon="-0.47309">
        <ele>80.4</ele>
        <time>2020-08-02T07:19:43Z</time>
      </trkpt>
      <trkpt lat="47.26757" lon="-0.47305">
        <ele>80.4</ele>
        <time>2020-08-02T07:19:44Z</time>
      </trkpt>
      <trkpt lat="47.26759" lon="-0.473">
        <ele>80.8</ele>
        <time>2020-08-02T07:19:45Z</time>
      </trkpt>
      <trkpt lat="47.26761" lon="-0.47295">
        <ele>81</ele>
        <time>2020-08-02T07:19:46Z</time>
      </trkpt>
      <trkpt lat="47.26763" lon="-0.47289">
        <ele>81.4</ele>
        <time>2020-08-02T07:19:47Z</time>
      </trkpt>
      <trkpt lat="47.26764" lon="-0.47285">
        <ele>81.6</ele>
        <time>2020-08-02T07:19:48Z</time>
      </trkpt>
      <trkpt lat="47.26766" lon="-0.47281">
        <ele>81.8</ele>
        <time>2020-08-02T07:19:49Z</time>
      </trkpt>
      <trkpt lat="47.26767" lon="-0.47276">
        <ele>82</ele>
        <time>2020-08-02T07:19:50Z</time>
      </trkpt>
      <trkpt lat="47.26769" lon="-0.47272">
        <ele>82.2</ele>
        <time>2020-08-02T07:19:51Z</time>
      </trkpt>
      <trkpt lat="47.2677" lon="-0.47268">
        <ele>82.4</ele>
        <time>2020-08-02T07:19:52Z</time>
      </trkpt>
      <trkpt lat="47.26771" lon="-0.47263">
        <ele>82.6</ele>
        <time>2020-08-02T07:19:53Z</time>
      </trkpt>
      <trkpt lat="47.26773" lon="-0.47258">
        <ele>83</ele>
        <time>2020-08-02T07:19:54Z</time>
      </trkpt>
      <trkpt lat="47.26774" lon="-0.47254">
        <ele>83.2</ele>
        <time>2020-08-02T07:19:55Z</time>
      </trkpt>
      <trkpt lat="47.26776" lon="-0.4725">
        <ele>83.4</ele>
        <time>2020-08-02T07:19:56Z</time>
      </trkpt>
      <trkpt lat="47.26778" lon="-0.47246">
        <ele>83.6</ele>
        <time>2020-08-02T07:19:57Z</time>
      </trkpt>
      <trkpt lat="47.2678" lon="-0.47242">
        <ele>83.6</ele>
        <time>2020-08-02T07:19:58Z</time>
      </trkpt>
      <trkpt lat="47.26782" lon="-0.47238">
        <ele>84</ele>
        <time>2020-08-02T07:19:59Z</time>
      </trkpt>
      <trkpt lat="47.26783" lon="-0.47233">
        <ele>84</ele>
        <time>2020-08-02T07:20:00Z</time>
      </trkpt>
      <trkpt lat="47.26783" lon="-0.4723">
        <ele>84.2</ele>
        <time>2020-08-02T07:20:01Z</time>
      </trkpt>
      <trkpt lat="47.26782" lon="-0.47227">
        <ele>84.4</ele>
        <time>2020-08-02T07:20:02Z</time>
      </trkpt>
      <trkpt lat="47.2678" lon="-0.47224">
        <ele>84.4</ele>
        <time>2020-08-02T07:20:03Z</time>
      </trkpt>
      <trkpt lat="47.26778" lon="-0.47222">
        <ele>84.6</ele>
        <time>2020-08-02T07:20:04Z</time>
      </trkpt>
      <trkpt lat="47.26776" lon="-0.47219">
        <ele>84.6</ele>
        <time>2020-08-02T07:20:05Z</time>
      </trkpt>
      <trkpt lat="47.26774" lon="-0.47215">
        <ele>84.6</ele>
        <time>2020-08-02T07:20:06Z</time>
      </trkpt>
      <trkpt lat="47.26772" lon="-0.47211">
        <ele>84.6</ele>
        <time>2020-08-02T07:20:07Z</time>
      </trkpt>
      <trkpt lat="47.26769" lon="-0.47209">
        <ele>84.6</ele>
        <time>2020-08-02T07:20:08Z</time>
      </trkpt>
      <trkpt lat="47.26767" lon="-0.47207">
        <ele>84.6</ele>
        <time>2020-08-02T07:20:09Z</time>
      </trkpt>
      <trkpt lat="47.26765" lon="-0.47205">
        <ele>84.6</ele>
        <time>2020-08-02T07:20:10Z</time>
      </trkpt>
      <trkpt lat="47.26753" lon="-0.47194">
        <ele>84.2</ele>
        <time>2020-08-02T07:20:14Z</time>
      </trkpt>
      <trkpt lat="47.26748" lon="-0.4719">
        <ele>84</ele>
        <time>2020-08-02T07:20:16Z</time>
      </trkpt>
      <trkpt lat="47.26742" lon="-0.47187">
        <ele>83.6</ele>
        <time>2020-08-02T07:20:18Z</time>
      </trkpt>
      <trkpt lat="47.26738" lon="-0.47185">
        <ele>83.4</ele>
        <time>2020-08-02T07:20:19Z</time>
      </trkpt>
      <trkpt lat="47.26731" lon="-0.47181">
        <ele>83.2</ele>
        <time>2020-08-02T07:20:21Z</time>
      </trkpt>
      <trkpt lat="47.26728" lon="-0.47178">
        <ele>83</ele>
        <time>2020-08-02T07:20:22Z</time>
      </trkpt>
      <trkpt lat="47.26724" lon="-0.47175">
        <ele>82.8</ele>
        <time>2020-08-02T07:20:23Z</time>
      </trkpt>
      <trkpt lat="47.26721" lon="-0.47172">
        <ele>82.6</ele>
        <time>2020-08-02T07:20:24Z</time>
      </trkpt>
      <trkpt lat="47.26715" lon="-0.47165">
        <ele>82.4</ele>
        <time>2020-08-02T07:20:26Z</time>
      </trkpt>
      <trkpt lat="47.26713" lon="-0.47162">
        <ele>82.4</ele>
        <time>2020-08-02T07:20:27Z</time>
      </trkpt>
      <trkpt lat="47.2671" lon="-0.47158">
        <ele>82.4</ele>
        <time>2020-08-02T07:20:28Z</time>
      </trkpt>
      <trkpt lat="47.26708" lon="-0.47155">
        <ele>82.4</ele>
        <time>2020-08-02T07:20:29Z</time>
      </trkpt>
      <trkpt lat="47.26706" lon="-0.47151">
        <ele>82.4</ele>
        <time>2020-08-02T07:20:30Z</time>
      </trkpt>
      <trkpt lat="47.26704" lon="-0.47147">
        <ele>82.8</ele>
        <time>2020-08-02T07:20:31Z</time>
      </trkpt>
      <trkpt lat="47.26703" lon="-0.47143">
        <ele>82.8</ele>
        <time>2020-08-02T07:20:32Z</time>
      </trkpt>
      <trkpt lat="47.26701" lon="-0.47139">
        <ele>82.8</ele>
        <time>2020-08-02T07:20:33Z</time>
      </trkpt>
      <trkpt lat="47.26699" lon="-0.47136">
        <ele>83</ele>
        <time>2020-08-02T07:20:34Z</time>
      </trkpt>
      <trkpt lat="47.26698" lon="-0.47132">
        <ele>83.2</ele>
        <time>2020-08-02T07:20:35Z</time>
      </trkpt>
      <trkpt lat="47.26696" lon="-0.47128">
        <ele>83.2</ele>
        <time>2020-08-02T07:20:36Z</time>
      </trkpt>
      <trkpt lat="47.26695" lon="-0.47124">
        <ele>83.4</ele>
        <time>2020-08-02T07:20:37Z</time>
      </trkpt>
      <trkpt lat="47.26693" lon="-0.47121">
        <ele>83.4</ele>
        <time>2020-08-02T07:20:38Z</time>
      </trkpt>
      <trkpt lat="47.26691" lon="-0.47118">
        <ele>83.6</ele>
        <time>2020-08-02T07:20:39Z</time>
      </trkpt>
      <trkpt lat="47.2669" lon="-0.47115">
        <ele>83.6</ele>
        <time>2020-08-02T07:20:40Z</time>
      </trkpt>
      <trkpt lat="47.26688" lon="-0.47113">
        <ele>83.6</ele>
        <time>2020-08-02T07:20:41Z</time>
      </trkpt>
      <trkpt lat="47.26686" lon="-0.47111">
        <ele>84</ele>
        <time>2020-08-02T07:20:42Z</time>
      </trkpt>
      <trkpt lat="47.26684" lon="-0.47111">
        <ele>84.2</ele>
        <time>2020-08-02T07:20:43Z</time>
      </trkpt>
      <trkpt lat="47.26682" lon="-0.47112">
        <ele>84.4</ele>
        <time>2020-08-02T07:20:44Z</time>
      </trkpt>
      <trkpt lat="47.26679" lon="-0.47115">
        <ele>84.4</ele>
        <time>2020-08-02T07:20:45Z</time>
      </trkpt>
      <trkpt lat="47.26678" lon="-0.47119">
        <ele>84.6</ele>
        <time>2020-08-02T07:20:46Z</time>
      </trkpt>
      <trkpt lat="47.26675" lon="-0.47123">
        <ele>84.8</ele>
        <time>2020-08-02T07:20:47Z</time>
      </trkpt>
      <trkpt lat="47.26672" lon="-0.47127">
        <ele>84.8</ele>
        <time>2020-08-02T07:20:48Z</time>
      </trkpt>
      <trkpt lat="47.26668" lon="-0.4713">
        <ele>84.8</ele>
        <time>2020-08-02T07:20:49Z</time>
      </trkpt>
      <trkpt lat="47.26665" lon="-0.47131">
        <ele>84.8</ele>
        <time>2020-08-02T07:20:50Z</time>
      </trkpt>
      <trkpt lat="47.26662" lon="-0.47132">
        <ele>84.8</ele>
        <time>2020-08-02T07:20:51Z</time>
      </trkpt>
      <trkpt lat="47.26658" lon="-0.47134">
        <ele>84.8</ele>
        <time>2020-08-02T07:20:52Z</time>
      </trkpt>
      <trkpt lat="47.26654" lon="-0.47135">
        <ele>84.8</ele>
        <time>2020-08-02T07:20:53Z</time>
      </trkpt>
      <trkpt lat="47.26646" lon="-0.47137">
        <ele>84.6</ele>
        <time>2020-08-02T07:20:55Z</time>
      </trkpt>
      <trkpt lat="47.26643" lon="-0.47138">
        <ele>84.8</ele>
        <time>2020-08-02T07:20:56Z</time>
      </trkpt>
      <trkpt lat="47.26625" lon="-0.47144">
        <ele>84.8</ele>
        <time>2020-08-02T07:21:01Z</time>
      </trkpt>
      <trkpt lat="47.26622" lon="-0.47146">
        <ele>84.8</ele>
        <time>2020-08-02T07:21:02Z</time>
      </trkpt>
      <trkpt lat="47.26617" lon="-0.47147">
        <ele>84.8</ele>
        <time>2020-08-02T07:21:03Z</time>
      </trkpt>
      <trkpt lat="47.26614" lon="-0.47148">
        <ele>85</ele>
        <time>2020-08-02T07:21:04Z</time>
      </trkpt>
      <trkpt lat="47.26611" lon="-0.47149">
        <ele>85</ele>
        <time>2020-08-02T07:21:05Z</time>
      </trkpt>
      <trkpt lat="47.26607" lon="-0.47151">
        <ele>85.2</ele>
        <time>2020-08-02T07:21:06Z</time>
      </trkpt>
      <trkpt lat="47.26604" lon="-0.47152">
        <ele>85</ele>
        <time>2020-08-02T07:21:07Z</time>
      </trkpt>
      <trkpt lat="47.266" lon="-0.47153">
        <ele>85</ele>
        <time>2020-08-02T07:21:08Z</time>
      </trkpt>
      <trkpt lat="47.26597" lon="-0.47154">
        <ele>85</ele>
        <time>2020-08-02T07:21:09Z</time>
      </trkpt>
      <trkpt lat="47.26593" lon="-0.47155">
        <ele>85</ele>
        <time>2020-08-02T07:21:10Z</time>
      </trkpt>
      <trkpt lat="47.26589" lon="-0.47157">
        <ele>85.2</ele>
        <time>2020-08-02T07:21:11Z</time>
      </trkpt>
      <trkpt lat="47.26586" lon="-0.47157">
        <ele>85.2</ele>
        <time>2020-08-02T07:21:12Z</time>
      </trkpt>
      <trkpt lat="47.26583" lon="-0.47158">
        <ele>85.2</ele>
        <time>2020-08-02T07:21:13Z</time>
      </trkpt>
      <trkpt lat="47.26579" lon="-0.47159">
        <ele>85.4</ele>
        <time>2020-08-02T07:21:14Z</time>
      </trkpt>
      <trkpt lat="47.26576" lon="-0.47159">
        <ele>85.4</ele>
        <time>2020-08-02T07:21:15Z</time>
      </trkpt>
      <trkpt lat="47.26573" lon="-0.4716">
        <ele>85.4</ele>
        <time>2020-08-02T07:21:16Z</time>
      </trkpt>
      <trkpt lat="47.26569" lon="-0.47163">
        <ele>85.4</ele>
        <time>2020-08-02T07:21:17Z</time>
      </trkpt>
      <trkpt lat="47.26568" lon="-0.47166">
        <ele>85.4</ele>
        <time>2020-08-02T07:21:18Z</time>
      </trkpt>
      <trkpt lat="47.26565" lon="-0.4717">
        <ele>85.6</ele>
        <time>2020-08-02T07:21:19Z</time>
      </trkpt>
      <trkpt lat="47.26562" lon="-0.47175">
        <ele>85.6</ele>
        <time>2020-08-02T07:21:20Z</time>
      </trkpt>
      <trkpt lat="47.26559" lon="-0.47179">
        <ele>85.6</ele>
        <time>2020-08-02T07:21:21Z</time>
      </trkpt>
      <trkpt lat="47.26557" lon="-0.47185">
        <ele>85.6</ele>
        <time>2020-08-02T07:21:22Z</time>
      </trkpt>
      <trkpt lat="47.26555" lon="-0.47192">
        <ele>85.4</ele>
        <time>2020-08-02T07:21:23Z</time>
      </trkpt>
      <trkpt lat="47.26553" lon="-0.472">
        <ele>85.4</ele>
        <time>2020-08-02T07:21:24Z</time>
      </trkpt>
      <trkpt lat="47.2655" lon="-0.47207">
        <ele>84.8</ele>
        <time>2020-08-02T07:21:25Z</time>
      </trkpt>
      <trkpt lat="47.26543" lon="-0.47221">
        <ele>84.4</ele>
        <time>2020-08-02T07:21:27Z</time>
      </trkpt>
      <trkpt lat="47.26539" lon="-0.47229">
        <ele>84</ele>
        <time>2020-08-02T07:21:28Z</time>
      </trkpt>
      <trkpt lat="47.26535" lon="-0.47236">
        <ele>84</ele>
        <time>2020-08-02T07:21:29Z</time>
      </trkpt>
      <trkpt lat="47.26521" lon="-0.47256">
        <ele>83</ele>
        <time>2020-08-02T07:21:32Z</time>
      </trkpt>
      <trkpt lat="47.26517" lon="-0.47262">
        <ele>82.4</ele>
        <time>2020-08-02T07:21:33Z</time>
      </trkpt>
      <trkpt lat="47.26508" lon="-0.47275">
        <ele>82</ele>
        <time>2020-08-02T07:21:35Z</time>
      </trkpt>
      <trkpt lat="47.26503" lon="-0.47281">
        <ele>81.8</ele>
        <time>2020-08-02T07:21:36Z</time>
      </trkpt>
      <trkpt lat="47.26496" lon="-0.47293">
        <ele>81.6</ele>
        <time>2020-08-02T07:21:38Z</time>
      </trkpt>
      <trkpt lat="47.26493" lon="-0.47299">
        <ele>81.4</ele>
        <time>2020-08-02T07:21:39Z</time>
      </trkpt>
      <trkpt lat="47.2649" lon="-0.47306">
        <ele>81.4</ele>
        <time>2020-08-02T07:21:40Z</time>
      </trkpt>
      <trkpt lat="47.26487" lon="-0.47311">
        <ele>81.4</ele>
        <time>2020-08-02T07:21:41Z</time>
      </trkpt>
      <trkpt lat="47.26483" lon="-0.47315">
        <ele>81.6</ele>
        <time>2020-08-02T07:21:42Z</time>
      </trkpt>
      <trkpt lat="47.26478" lon="-0.47317">
        <ele>81.6</ele>
        <time>2020-08-02T07:21:43Z</time>
      </trkpt>
      <trkpt lat="47.26474" lon="-0.47318">
        <ele>81.6</ele>
        <time>2020-08-02T07:21:44Z</time>
      </trkpt>
      <trkpt lat="47.26469" lon="-0.4732">
        <ele>81.6</ele>
        <time>2020-08-02T07:21:45Z</time>
      </trkpt>
      <trkpt lat="47.26465" lon="-0.4732">
        <ele>81.6</ele>
        <time>2020-08-02T07:21:46Z</time>
      </trkpt>
      <trkpt lat="47.26461" lon="-0.4732">
        <ele>81.8</ele>
        <time>2020-08-02T07:21:47Z</time>
      </trkpt>
      <trkpt lat="47.26459" lon="-0.4732">
        <ele>81.8</ele>
        <time>2020-08-02T07:21:48Z</time>
      </trkpt>
      <trkpt lat="47.26455" lon="-0.47318">
        <ele>82</ele>
        <time>2020-08-02T07:21:49Z</time>
      </trkpt>
      <trkpt lat="47.26453" lon="-0.47315">
        <ele>82.2</ele>
        <time>2020-08-02T07:21:50Z</time>
      </trkpt>
      <trkpt lat="47.2645" lon="-0.47311">
        <ele>82</ele>
        <time>2020-08-02T07:21:51Z</time>
      </trkpt>
      <trkpt lat="47.26446" lon="-0.47304">
        <ele>82.4</ele>
        <time>2020-08-02T07:21:53Z</time>
      </trkpt>
      <trkpt lat="47.26443" lon="-0.473">
        <ele>82.8</ele>
        <time>2020-08-02T07:21:54Z</time>
      </trkpt>
      <trkpt lat="47.26441" lon="-0.47296">
        <ele>83.2</ele>
        <time>2020-08-02T07:21:55Z</time>
      </trkpt>
      <trkpt lat="47.26438" lon="-0.47292">
        <ele>83.4</ele>
        <time>2020-08-02T07:21:56Z</time>
      </trkpt>
      <trkpt lat="47.26436" lon="-0.47288">
        <ele>83.8</ele>
        <time>2020-08-02T07:21:57Z</time>
      </trkpt>
      <trkpt lat="47.26434" lon="-0.47284">
        <ele>84</ele>
        <time>2020-08-02T07:21:58Z</time>
      </trkpt>
      <trkpt lat="47.26432" lon="-0.47281">
        <ele>84</ele>
        <time>2020-08-02T07:21:59Z</time>
      </trkpt>
      <trkpt lat="47.2643" lon="-0.47277">
        <ele>84.2</ele>
        <time>2020-08-02T07:22:00Z</time>
      </trkpt>
      <trkpt lat="47.26427" lon="-0.47275">
        <ele>84.4</ele>
        <time>2020-08-02T07:22:01Z</time>
      </trkpt>
      <trkpt lat="47.26424" lon="-0.47274">
        <ele>84.6</ele>
        <time>2020-08-02T07:22:02Z</time>
      </trkpt>
      <trkpt lat="47.26421" lon="-0.47274">
        <ele>84.8</ele>
        <time>2020-08-02T07:22:03Z</time>
      </trkpt>
      <trkpt lat="47.26419" lon="-0.47275">
        <ele>85</ele>
        <time>2020-08-02T07:22:04Z</time>
      </trkpt>
      <trkpt lat="47.26417" lon="-0.47278">
        <ele>85.2</ele>
        <time>2020-08-02T07:22:05Z</time>
      </trkpt>
      <trkpt lat="47.26415" lon="-0.4728">
        <ele>85.4</ele>
        <time>2020-08-02T07:22:06Z</time>
      </trkpt>
      <trkpt lat="47.26414" lon="-0.47282">
        <ele>85.6</ele>
        <time>2020-08-02T07:22:07Z</time>
      </trkpt>
      <trkpt lat="47.26413" lon="-0.47284">
        <ele>85.8</ele>
        <time>2020-08-02T07:22:08Z</time>
      </trkpt>
      <trkpt lat="47.26412" lon="-0.47284">
        <ele>85.8</ele>
        <time>2020-08-02T07:22:09Z</time>
      </trkpt>
      <trkpt lat="47.26412" lon="-0.47284">
        <ele>86</ele>
        <time>2020-08-02T07:22:10Z</time>
      </trkpt>
      <trkpt lat="47.26412" lon="-0.47284">
        <ele>86</ele>
        <time>2020-08-02T07:22:11Z</time>
      </trkpt>
      <trkpt lat="47.26413" lon="-0.47283">
        <ele>86.2</ele>
        <time>2020-08-02T07:22:17Z</time>
      </trkpt>
      <trkpt lat="47.26414" lon="-0.47282">
        <ele>86.2</ele>
        <time>2020-08-02T07:22:18Z</time>
      </trkpt>
      <trkpt lat="47.26415" lon="-0.47281">
        <ele>86.2</ele>
        <time>2020-08-02T07:22:19Z</time>
      </trkpt>
      <trkpt lat="47.26418" lon="-0.47277">
        <ele>86</ele>
        <time>2020-08-02T07:22:21Z</time>
      </trkpt>
      <trkpt lat="47.26418" lon="-0.47275">
        <ele>86.2</ele>
        <time>2020-08-02T07:22:22Z</time>
      </trkpt>
      <trkpt lat="47.26417" lon="-0.47275">
        <ele>87</ele>
        <time>2020-08-02T07:23:08Z</time>
      </trkpt>
      <trkpt lat="47.26416" lon="-0.47279">
        <ele>86.8</ele>
        <time>2020-08-02T07:23:09Z</time>
      </trkpt>
      <trkpt lat="47.26414" lon="-0.47282">
        <ele>86.8</ele>
        <time>2020-08-02T07:23:10Z</time>
      </trkpt>
      <trkpt lat="47.26409" lon="-0.47286">
        <ele>86.8</ele>
        <time>2020-08-02T07:23:12Z</time>
      </trkpt>
      <trkpt lat="47.26406" lon="-0.47289">
        <ele>86.6</ele>
        <time>2020-08-02T07:23:13Z</time>
      </trkpt>
      <trkpt lat="47.26403" lon="-0.47291">
        <ele>86.4</ele>
        <time>2020-08-02T07:23:14Z</time>
      </trkpt>
      <trkpt lat="47.26401" lon="-0.47294">
        <ele>86.4</ele>
        <time>2020-08-02T07:23:15Z</time>
      </trkpt>
      <trkpt lat="47.26399" lon="-0.47296">
        <ele>86.4</ele>
        <time>2020-08-02T07:23:16Z</time>
      </trkpt>
      <trkpt lat="47.26396" lon="-0.47299">
        <ele>86.2</ele>
        <time>2020-08-02T07:23:17Z</time>
      </trkpt>
      <trkpt lat="47.26394" lon="-0.47302">
        <ele>86.2</ele>
        <time>2020-08-02T07:23:18Z</time>
      </trkpt>
      <trkpt lat="47.26391" lon="-0.47304">
        <ele>86</ele>
        <time>2020-08-02T07:23:19Z</time>
      </trkpt>
      <trkpt lat="47.26388" lon="-0.47306">
        <ele>86</ele>
        <time>2020-08-02T07:23:20Z</time>
      </trkpt>
      <trkpt lat="47.26386" lon="-0.47309">
        <ele>86</ele>
        <time>2020-08-02T07:23:21Z</time>
      </trkpt>
      <trkpt lat="47.26381" lon="-0.47314">
        <ele>85.8</ele>
        <time>2020-08-02T07:23:23Z</time>
      </trkpt>
      <trkpt lat="47.26368" lon="-0.47328">
        <ele>85.4</ele>
        <time>2020-08-02T07:23:27Z</time>
      </trkpt>
      <trkpt lat="47.2635" lon="-0.47345">
        <ele>85</ele>
        <time>2020-08-02T07:23:32Z</time>
      </trkpt>
      <trkpt lat="47.26347" lon="-0.47348">
        <ele>84.8</ele>
        <time>2020-08-02T07:23:33Z</time>
      </trkpt>
      <trkpt lat="47.26343" lon="-0.47352">
        <ele>84.8</ele>
        <time>2020-08-02T07:23:34Z</time>
      </trkpt>
      <trkpt lat="47.26341" lon="-0.47354">
        <ele>84.6</ele>
        <time>2020-08-02T07:23:35Z</time>
      </trkpt>
      <trkpt lat="47.26339" lon="-0.47355">
        <ele>84.4</ele>
        <time>2020-08-02T07:23:36Z</time>
      </trkpt>
      <trkpt lat="47.26338" lon="-0.47355">
        <ele>84.2</ele>
        <time>2020-08-02T07:23:37Z</time>
      </trkpt>
      <trkpt lat="47.26336" lon="-0.47354">
        <ele>84</ele>
        <time>2020-08-02T07:23:38Z</time>
      </trkpt>
      <trkpt lat="47.26334" lon="-0.47351">
        <ele>84</ele>
        <time>2020-08-02T07:23:39Z</time>
      </trkpt>
      <trkpt lat="47.26333" lon="-0.47348">
        <ele>83.8</ele>
        <time>2020-08-02T07:23:40Z</time>
      </trkpt>
      <trkpt lat="47.26332" lon="-0.47345">
        <ele>83.8</ele>
        <time>2020-08-02T07:23:41Z</time>
      </trkpt>
      <trkpt lat="47.26331" lon="-0.47341">
        <ele>83.6</ele>
        <time>2020-08-02T07:23:42Z</time>
      </trkpt>
      <trkpt lat="47.26329" lon="-0.47336">
        <ele>83.6</ele>
        <time>2020-08-02T07:23:43Z</time>
      </trkpt>
      <trkpt lat="47.26328" lon="-0.47332">
        <ele>83.4</ele>
        <time>2020-08-02T07:23:44Z</time>
      </trkpt>
      <trkpt lat="47.26326" lon="-0.47327">
        <ele>83.4</ele>
        <time>2020-08-02T07:23:45Z</time>
      </trkpt>
      <trkpt lat="47.26323" lon="-0.47318">
        <ele>83.2</ele>
        <time>2020-08-02T07:23:47Z</time>
      </trkpt>
      <trkpt lat="47.26322" lon="-0.47313">
        <ele>83.2</ele>
        <time>2020-08-02T07:23:48Z</time>
      </trkpt>
      <trkpt lat="47.2632" lon="-0.47309">
        <ele>83</ele>
        <time>2020-08-02T07:23:49Z</time>
      </trkpt>
      <trkpt lat="47.26319" lon="-0.47304">
        <ele>83</ele>
        <time>2020-08-02T07:23:50Z</time>
      </trkpt>
      <trkpt lat="47.26313" lon="-0.47287">
        <ele>82.8</ele>
        <time>2020-08-02T07:23:54Z</time>
      </trkpt>
      <trkpt lat="47.26311" lon="-0.47283">
        <ele>82.8</ele>
        <time>2020-08-02T07:23:55Z</time>
      </trkpt>
      <trkpt lat="47.26292" lon="-0.47229">
        <ele>82.4</ele>
        <time>2020-08-02T07:24:05Z</time>
      </trkpt>
      <trkpt lat="47.26286" lon="-0.47212">
        <ele>81.8</ele>
        <time>2020-08-02T07:24:08Z</time>
      </trkpt>
      <trkpt lat="47.26283" lon="-0.47201">
        <ele>81.6</ele>
        <time>2020-08-02T07:24:10Z</time>
      </trkpt>
      <trkpt lat="47.26279" lon="-0.4719">
        <ele>81.4</ele>
        <time>2020-08-02T07:24:12Z</time>
      </trkpt>
      <trkpt lat="47.26277" lon="-0.47186">
        <ele>81.2</ele>
        <time>2020-08-02T07:24:13Z</time>
      </trkpt>
      <trkpt lat="47.26275" lon="-0.47179">
        <ele>80.8</ele>
        <time>2020-08-02T07:24:14Z</time>
      </trkpt>
      <trkpt lat="47.26273" lon="-0.47173">
        <ele>80.6</ele>
        <time>2020-08-02T07:24:15Z</time>
      </trkpt>
      <trkpt lat="47.26271" lon="-0.47168">
        <ele>80.4</ele>
        <time>2020-08-02T07:24:16Z</time>
      </trkpt>
      <trkpt lat="47.26269" lon="-0.47163">
        <ele>80.2</ele>
        <time>2020-08-02T07:24:17Z</time>
      </trkpt>
      <trkpt lat="47.26267" lon="-0.47157">
        <ele>80.2</ele>
        <time>2020-08-02T07:24:18Z</time>
      </trkpt>
      <trkpt lat="47.26265" lon="-0.47151">
        <ele>80</ele>
        <time>2020-08-02T07:24:19Z</time>
      </trkpt>
      <trkpt lat="47.26263" lon="-0.47146">
        <ele>79.8</ele>
        <time>2020-08-02T07:24:20Z</time>
      </trkpt>
      <trkpt lat="47.26261" lon="-0.4714">
        <ele>79.6</ele>
        <time>2020-08-02T07:24:21Z</time>
      </trkpt>
      <trkpt lat="47.26259" lon="-0.47135">
        <ele>79.4</ele>
        <time>2020-08-02T07:24:22Z</time>
      </trkpt>
      <trkpt lat="47.26252" lon="-0.47114">
        <ele>78.6</ele>
        <time>2020-08-02T07:24:26Z</time>
      </trkpt>
      <trkpt lat="47.26252" lon="-0.4711">
        <ele>78.4</ele>
        <time>2020-08-02T07:24:27Z</time>
      </trkpt>
      <trkpt lat="47.26252" lon="-0.47105">
        <ele>78.2</ele>
        <time>2020-08-02T07:24:28Z</time>
      </trkpt>
      <trkpt lat="47.26254" lon="-0.47101">
        <ele>78.2</ele>
        <time>2020-08-02T07:24:29Z</time>
      </trkpt>
      <trkpt lat="47.26256" lon="-0.47097">
        <ele>78</ele>
        <time>2020-08-02T07:24:30Z</time>
      </trkpt>
      <trkpt lat="47.26258" lon="-0.47094">
        <ele>77.8</ele>
        <time>2020-08-02T07:24:31Z</time>
      </trkpt>
      <trkpt lat="47.26262" lon="-0.47086">
        <ele>78</ele>
        <time>2020-08-02T07:24:33Z</time>
      </trkpt>
      <trkpt lat="47.26265" lon="-0.47083">
        <ele>77.8</ele>
        <time>2020-08-02T07:24:34Z</time>
      </trkpt>
      <trkpt lat="47.26269" lon="-0.47075">
        <ele>78</ele>
        <time>2020-08-02T07:24:36Z</time>
      </trkpt>
      <trkpt lat="47.26272" lon="-0.47072">
        <ele>78.2</ele>
        <time>2020-08-02T07:24:37Z</time>
      </trkpt>
      <trkpt lat="47.26277" lon="-0.47064">
        <ele>78.4</ele>
        <time>2020-08-02T07:24:39Z</time>
      </trkpt>
      <trkpt lat="47.26282" lon="-0.47057">
        <ele>78.6</ele>
        <time>2020-08-02T07:24:41Z</time>
      </trkpt>
      <trkpt lat="47.26287" lon="-0.47049">
        <ele>79</ele>
        <time>2020-08-02T07:24:43Z</time>
      </trkpt>
      <trkpt lat="47.2629" lon="-0.47045">
        <ele>79</ele>
        <time>2020-08-02T07:24:44Z</time>
      </trkpt>
      <trkpt lat="47.26293" lon="-0.47042">
        <ele>79.2</ele>
        <time>2020-08-02T07:24:45Z</time>
      </trkpt>
      <trkpt lat="47.26296" lon="-0.47038">
        <ele>79.6</ele>
        <time>2020-08-02T07:24:46Z</time>
      </trkpt>
      <trkpt lat="47.26299" lon="-0.47034">
        <ele>79.8</ele>
        <time>2020-08-02T07:24:47Z</time>
      </trkpt>
      <trkpt lat="47.26301" lon="-0.4703">
        <ele>79.8</ele>
        <time>2020-08-02T07:24:48Z</time>
      </trkpt>
      <trkpt lat="47.26304" lon="-0.47027">
        <ele>80</ele>
        <time>2020-08-02T07:24:49Z</time>
      </trkpt>
      <trkpt lat="47.26307" lon="-0.47023">
        <ele>80.4</ele>
        <time>2020-08-02T07:24:50Z</time>
      </trkpt>
      <trkpt lat="47.2631" lon="-0.4702">
        <ele>80.6</ele>
        <time>2020-08-02T07:24:51Z</time>
      </trkpt>
      <trkpt lat="47.26313" lon="-0.47016">
        <ele>80.8</ele>
        <time>2020-08-02T07:24:52Z</time>
      </trkpt>
      <trkpt lat="47.26316" lon="-0.47012">
        <ele>80.8</ele>
        <time>2020-08-02T07:24:53Z</time>
      </trkpt>
      <trkpt lat="47.26319" lon="-0.47009">
        <ele>81.2</ele>
        <time>2020-08-02T07:24:54Z</time>
      </trkpt>
      <trkpt lat="47.26322" lon="-0.47006">
        <ele>81</ele>
        <time>2020-08-02T07:24:55Z</time>
      </trkpt>
      <trkpt lat="47.26325" lon="-0.47003">
        <ele>81.2</ele>
        <time>2020-08-02T07:24:56Z</time>
      </trkpt>
      <trkpt lat="47.26328" lon="-0.47">
        <ele>81.4</ele>
        <time>2020-08-02T07:24:57Z</time>
      </trkpt>
      <trkpt lat="47.2633" lon="-0.46998">
        <ele>81.4</ele>
        <time>2020-08-02T07:24:58Z</time>
      </trkpt>
      <trkpt lat="47.26333" lon="-0.46995">
        <ele>81.8</ele>
        <time>2020-08-02T07:24:59Z</time>
      </trkpt>
      <trkpt lat="47.26335" lon="-0.46992">
        <ele>82</ele>
        <time>2020-08-02T07:25:00Z</time>
      </trkpt>
      <trkpt lat="47.26337" lon="-0.46989">
        <ele>82.2</ele>
        <time>2020-08-02T07:25:01Z</time>
      </trkpt>
      <trkpt lat="47.26339" lon="-0.46985">
        <ele>82.4</ele>
        <time>2020-08-02T07:25:02Z</time>
      </trkpt>
      <trkpt lat="47.2634" lon="-0.46982">
        <ele>82.6</ele>
        <time>2020-08-02T07:25:03Z</time>
      </trkpt>
      <trkpt lat="47.26339" lon="-0.46979">
        <ele>82.8</ele>
        <time>2020-08-02T07:25:04Z</time>
      </trkpt>
      <trkpt lat="47.26338" lon="-0.46976">
        <ele>82.8</ele>
        <time>2020-08-02T07:25:05Z</time>
      </trkpt>
      <trkpt lat="47.26337" lon="-0.46973">
        <ele>83</ele>
        <time>2020-08-02T07:25:06Z</time>
      </trkpt>
      <trkpt lat="47.26336" lon="-0.4697">
        <ele>83.2</ele>
        <time>2020-08-02T07:25:07Z</time>
      </trkpt>
      <trkpt lat="47.26335" lon="-0.46967">
        <ele>83.2</ele>
        <time>2020-08-02T07:25:08Z</time>
      </trkpt>
      <trkpt lat="47.26333" lon="-0.46964">
        <ele>83.2</ele>
        <time>2020-08-02T07:25:09Z</time>
      </trkpt>
      <trkpt lat="47.26332" lon="-0.4696">
        <ele>83.2</ele>
        <time>2020-08-02T07:25:10Z</time>
      </trkpt>
      <trkpt lat="47.2633" lon="-0.46957">
        <ele>83.2</ele>
        <time>2020-08-02T07:25:11Z</time>
      </trkpt>
      <trkpt lat="47.26328" lon="-0.46954">
        <ele>83.2</ele>
        <time>2020-08-02T07:25:12Z</time>
      </trkpt>
      <trkpt lat="47.26327" lon="-0.46951">
        <ele>83.2</ele>
        <time>2020-08-02T07:25:13Z</time>
      </trkpt>
      <trkpt lat="47.26326" lon="-0.46949">
        <ele>83.2</ele>
        <time>2020-08-02T07:25:14Z</time>
      </trkpt>
      <trkpt lat="47.26325" lon="-0.46947">
        <ele>83.2</ele>
        <time>2020-08-02T07:25:15Z</time>
      </trkpt>
      <trkpt lat="47.26324" lon="-0.46945">
        <ele>82.8</ele>
        <time>2020-08-02T07:25:16Z</time>
      </trkpt>
      <trkpt lat="47.26324" lon="-0.46943">
        <ele>82.8</ele>
        <time>2020-08-02T07:25:17Z</time>
      </trkpt>
      <trkpt lat="47.26323" lon="-0.46942">
        <ele>82.8</ele>
        <time>2020-08-02T07:25:18Z</time>
      </trkpt>
      <trkpt lat="47.26323" lon="-0.4694">
        <ele>82.8</ele>
        <time>2020-08-02T07:25:19Z</time>
      </trkpt>
      <trkpt lat="47.26322" lon="-0.46938">
        <ele>82.8</ele>
        <time>2020-08-02T07:25:20Z</time>
      </trkpt>
      <trkpt lat="47.26321" lon="-0.46936">
        <ele>82.8</ele>
        <time>2020-08-02T07:25:21Z</time>
      </trkpt>
      <trkpt lat="47.26319" lon="-0.46929">
        <ele>82.8</ele>
        <time>2020-08-02T07:25:23Z</time>
      </trkpt>
      <trkpt lat="47.2632" lon="-0.46926">
        <ele>82.4</ele>
        <time>2020-08-02T07:25:24Z</time>
      </trkpt>
      <trkpt lat="47.26323" lon="-0.46924">
        <ele>82.4</ele>
        <time>2020-08-02T07:25:25Z</time>
      </trkpt>
      <trkpt lat="47.26325" lon="-0.46922">
        <ele>82.4</ele>
        <time>2020-08-02T07:25:26Z</time>
      </trkpt>
      <trkpt lat="47.26328" lon="-0.4692">
        <ele>82.4</ele>
        <time>2020-08-02T07:25:27Z</time>
      </trkpt>
      <trkpt lat="47.26331" lon="-0.46918">
        <ele>82.4</ele>
        <time>2020-08-02T07:25:28Z</time>
      </trkpt>
      <trkpt lat="47.26337" lon="-0.46915">
        <ele>82.4</ele>
        <time>2020-08-02T07:25:30Z</time>
      </trkpt>
      <trkpt lat="47.2634" lon="-0.46912">
        <ele>82.6</ele>
        <time>2020-08-02T07:25:31Z</time>
      </trkpt>
      <trkpt lat="47.26348" lon="-0.46907">
        <ele>82.8</ele>
        <time>2020-08-02T07:25:34Z</time>
      </trkpt>
      <trkpt lat="47.26351" lon="-0.46905">
        <ele>83</ele>
        <time>2020-08-02T07:25:35Z</time>
      </trkpt>
      <trkpt lat="47.26356" lon="-0.46902">
        <ele>83.4</ele>
        <time>2020-08-02T07:25:37Z</time>
      </trkpt>
      <trkpt lat="47.26359" lon="-0.469">
        <ele>83.6</ele>
        <time>2020-08-02T07:25:38Z</time>
      </trkpt>
      <trkpt lat="47.26362" lon="-0.46899">
        <ele>83.8</ele>
        <time>2020-08-02T07:25:39Z</time>
      </trkpt>
      <trkpt lat="47.26365" lon="-0.46897">
        <ele>84.2</ele>
        <time>2020-08-02T07:25:40Z</time>
      </trkpt>
      <trkpt lat="47.26367" lon="-0.46896">
        <ele>84.4</ele>
        <time>2020-08-02T07:25:41Z</time>
      </trkpt>
      <trkpt lat="47.2637" lon="-0.46894">
        <ele>84.6</ele>
        <time>2020-08-02T07:25:42Z</time>
      </trkpt>
      <trkpt lat="47.26373" lon="-0.46893">
        <ele>84.8</ele>
        <time>2020-08-02T07:25:43Z</time>
      </trkpt>
      <trkpt lat="47.26375" lon="-0.46891">
        <ele>84.8</ele>
        <time>2020-08-02T07:25:44Z</time>
      </trkpt>
      <trkpt lat="47.26378" lon="-0.4689">
        <ele>85</ele>
        <time>2020-08-02T07:25:45Z</time>
      </trkpt>
      <trkpt lat="47.2638" lon="-0.46888">
        <ele>85.2</ele>
        <time>2020-08-02T07:25:46Z</time>
      </trkpt>
      <trkpt lat="47.26383" lon="-0.46887">
        <ele>85.4</ele>
        <time>2020-08-02T07:25:47Z</time>
      </trkpt>
      <trkpt lat="47.26386" lon="-0.46886">
        <ele>85.4</ele>
        <time>2020-08-02T07:25:48Z</time>
      </trkpt>
      <trkpt lat="47.26389" lon="-0.46885">
        <ele>85.8</ele>
        <time>2020-08-02T07:25:49Z</time>
      </trkpt>
      <trkpt lat="47.26392" lon="-0.46883">
        <ele>86</ele>
        <time>2020-08-02T07:25:50Z</time>
      </trkpt>
      <trkpt lat="47.26394" lon="-0.46882">
        <ele>86.2</ele>
        <time>2020-08-02T07:25:51Z</time>
      </trkpt>
      <trkpt lat="47.26397" lon="-0.46881">
        <ele>86.2</ele>
        <time>2020-08-02T07:25:52Z</time>
      </trkpt>
      <trkpt lat="47.26399" lon="-0.4688">
        <ele>86.2</ele>
        <time>2020-08-02T07:25:53Z</time>
      </trkpt>
      <trkpt lat="47.26401" lon="-0.46879">
        <ele>86.2</ele>
        <time>2020-08-02T07:25:54Z</time>
      </trkpt>
      <trkpt lat="47.26404" lon="-0.46877">
        <ele>86.4</ele>
        <time>2020-08-02T07:25:55Z</time>
      </trkpt>
      <trkpt lat="47.26407" lon="-0.46876">
        <ele>86.4</ele>
        <time>2020-08-02T07:25:56Z</time>
      </trkpt>
      <trkpt lat="47.2641" lon="-0.46875">
        <ele>86.8</ele>
        <time>2020-08-02T07:25:57Z</time>
      </trkpt>
      <trkpt lat="47.26412" lon="-0.46873">
        <ele>87</ele>
        <time>2020-08-02T07:25:58Z</time>
      </trkpt>
      <trkpt lat="47.26415" lon="-0.46872">
        <ele>87</ele>
        <time>2020-08-02T07:25:59Z</time>
      </trkpt>
      <trkpt lat="47.26417" lon="-0.46872">
        <ele>87.2</ele>
        <time>2020-08-02T07:26:00Z</time>
      </trkpt>
      <trkpt lat="47.2642" lon="-0.46871">
        <ele>87.4</ele>
        <time>2020-08-02T07:26:01Z</time>
      </trkpt>
      <trkpt lat="47.26422" lon="-0.4687">
        <ele>87.6</ele>
        <time>2020-08-02T07:26:02Z</time>
      </trkpt>
      <trkpt lat="47.26425" lon="-0.46869">
        <ele>87.8</ele>
        <time>2020-08-02T07:26:03Z</time>
      </trkpt>
      <trkpt lat="47.26427" lon="-0.46867">
        <ele>88</ele>
        <time>2020-08-02T07:26:04Z</time>
      </trkpt>
      <trkpt lat="47.26429" lon="-0.46865">
        <ele>88</ele>
        <time>2020-08-02T07:26:05Z</time>
      </trkpt>
      <trkpt lat="47.26431" lon="-0.46864">
        <ele>88.2</ele>
        <time>2020-08-02T07:26:06Z</time>
      </trkpt>
      <trkpt lat="47.26433" lon="-0.46862">
        <ele>88.4</ele>
        <time>2020-08-02T07:26:07Z</time>
      </trkpt>
      <trkpt lat="47.26434" lon="-0.4686">
        <ele>88.4</ele>
        <time>2020-08-02T07:26:08Z</time>
      </trkpt>
      <trkpt lat="47.26434" lon="-0.46858">
        <ele>88.6</ele>
        <time>2020-08-02T07:26:09Z</time>
      </trkpt>
      <trkpt lat="47.26433" lon="-0.46855">
        <ele>88.8</ele>
        <time>2020-08-02T07:26:10Z</time>
      </trkpt>
      <trkpt lat="47.26433" lon="-0.46852">
        <ele>89</ele>
        <time>2020-08-02T07:26:11Z</time>
      </trkpt>
      <trkpt lat="47.26433" lon="-0.46848">
        <ele>89</ele>
        <time>2020-08-02T07:26:12Z</time>
      </trkpt>
      <trkpt lat="47.26433" lon="-0.46847">
        <ele>89.2</ele>
        <time>2020-08-02T07:26:13Z</time>
      </trkpt>
      <trkpt lat="47.26433" lon="-0.46844">
        <ele>89.2</ele>
        <time>2020-08-02T07:26:14Z</time>
      </trkpt>
      <trkpt lat="47.26433" lon="-0.46843">
        <ele>89.2</ele>
        <time>2020-08-02T07:26:15Z</time>
      </trkpt>
      <trkpt lat="47.26433" lon="-0.46843">
        <ele>89.2</ele>
        <time>2020-08-02T07:26:16Z</time>
      </trkpt>
      <trkpt lat="47.26432" lon="-0.46843">
        <ele>89</ele>
        <time>2020-08-02T07:26:26Z</time>
      </trkpt>
      <trkpt lat="47.26429" lon="-0.46843">
        <ele>89</ele>
        <time>2020-08-02T07:26:29Z</time>
      </trkpt>
      <trkpt lat="47.26427" lon="-0.46843">
        <ele>89</ele>
        <time>2020-08-02T07:26:30Z</time>
      </trkpt>
      <trkpt lat="47.26424" lon="-0.46842">
        <ele>88.8</ele>
        <time>2020-08-02T07:26:31Z</time>
      </trkpt>
      <trkpt lat="47.26417" lon="-0.46842">
        <ele>88.8</ele>
        <time>2020-08-02T07:26:33Z</time>
      </trkpt>
      <trkpt lat="47.26405" lon="-0.46842">
        <ele>88.6</ele>
        <time>2020-08-02T07:26:36Z</time>
      </trkpt>
      <trkpt lat="47.264" lon="-0.46842">
        <ele>88.4</ele>
        <time>2020-08-02T07:26:37Z</time>
      </trkpt>
      <trkpt lat="47.26374" lon="-0.46838">
        <ele>87.6</ele>
        <time>2020-08-02T07:26:42Z</time>
      </trkpt>
      <trkpt lat="47.26337" lon="-0.46827">
        <ele>86.2</ele>
        <time>2020-08-02T07:26:48Z</time>
      </trkpt>
      <trkpt lat="47.26332" lon="-0.46825">
        <ele>86.2</ele>
        <time>2020-08-02T07:26:49Z</time>
      </trkpt>
      <trkpt lat="47.26309" lon="-0.46816">
        <ele>84.8</ele>
        <time>2020-08-02T07:26:52Z</time>
      </trkpt>
      <trkpt lat="47.26288" lon="-0.46806">
        <ele>83.4</ele>
        <time>2020-08-02T07:26:55Z</time>
      </trkpt>
      <trkpt lat="47.26257" lon="-0.46792">
        <ele>82.2</ele>
        <time>2020-08-02T07:26:59Z</time>
      </trkpt>
      <trkpt lat="47.26249" lon="-0.46788">
        <ele>82</ele>
        <time>2020-08-02T07:27:00Z</time>
      </trkpt>
      <trkpt lat="47.26236" lon="-0.46779">
        <ele>81</ele>
        <time>2020-08-02T07:27:02Z</time>
      </trkpt>
      <trkpt lat="47.26205" lon="-0.46759">
        <ele>79.8</ele>
        <time>2020-08-02T07:27:06Z</time>
      </trkpt>
      <trkpt lat="47.2616" lon="-0.46729">
        <ele>78.6</ele>
        <time>2020-08-02T07:27:12Z</time>
      </trkpt>
      <trkpt lat="47.26132" lon="-0.46713">
        <ele>77.6</ele>
        <time>2020-08-02T07:27:16Z</time>
      </trkpt>
      <trkpt lat="47.26126" lon="-0.4671">
        <ele>77.6</ele>
        <time>2020-08-02T07:27:17Z</time>
      </trkpt>
      <trkpt lat="47.26118" lon="-0.46706">
        <ele>77.4</ele>
        <time>2020-08-02T07:27:18Z</time>
      </trkpt>
      <trkpt lat="47.26111" lon="-0.46703">
        <ele>77.2</ele>
        <time>2020-08-02T07:27:19Z</time>
      </trkpt>
      <trkpt lat="47.26104" lon="-0.467">
        <ele>77</ele>
        <time>2020-08-02T07:27:20Z</time>
      </trkpt>
      <trkpt lat="47.26099" lon="-0.46697">
        <ele>76.6</ele>
        <time>2020-08-02T07:27:21Z</time>
      </trkpt>
      <trkpt lat="47.2609" lon="-0.46694">
        <ele>76.4</ele>
        <time>2020-08-02T07:27:22Z</time>
      </trkpt>
      <trkpt lat="47.26083" lon="-0.46691">
        <ele>76</ele>
        <time>2020-08-02T07:27:23Z</time>
      </trkpt>
      <trkpt lat="47.26077" lon="-0.46688">
        <ele>75.8</ele>
        <time>2020-08-02T07:27:24Z</time>
      </trkpt>
      <trkpt lat="47.2607" lon="-0.46685">
        <ele>75.6</ele>
        <time>2020-08-02T07:27:25Z</time>
      </trkpt>
      <trkpt lat="47.26064" lon="-0.46683">
        <ele>75.6</ele>
        <time>2020-08-02T07:27:26Z</time>
      </trkpt>
      <trkpt lat="47.26058" lon="-0.46681">
        <ele>75.4</ele>
        <time>2020-08-02T07:27:27Z</time>
      </trkpt>
      <trkpt lat="47.26052" lon="-0.4668">
        <ele>75.4</ele>
        <time>2020-08-02T07:27:28Z</time>
      </trkpt>
      <trkpt lat="47.26046" lon="-0.46679">
        <ele>75.4</ele>
        <time>2020-08-02T07:27:29Z</time>
      </trkpt>
      <trkpt lat="47.26041" lon="-0.46679">
        <ele>75.4</ele>
        <time>2020-08-02T07:27:30Z</time>
      </trkpt>
      <trkpt lat="47.26034" lon="-0.46678">
        <ele>75.4</ele>
        <time>2020-08-02T07:27:31Z</time>
      </trkpt>
      <trkpt lat="47.26028" lon="-0.46678">
        <ele>75.2</ele>
        <time>2020-08-02T07:27:32Z</time>
      </trkpt>
      <trkpt lat="47.26021" lon="-0.46678">
        <ele>75.2</ele>
        <time>2020-08-02T07:27:33Z</time>
      </trkpt>
      <trkpt lat="47.26015" lon="-0.46678">
        <ele>75.2</ele>
        <time>2020-08-02T07:27:34Z</time>
      </trkpt>
      <trkpt lat="47.26008" lon="-0.46678">
        <ele>74.8</ele>
        <time>2020-08-02T07:27:35Z</time>
      </trkpt>
      <trkpt lat="47.26001" lon="-0.46677">
        <ele>74.8</ele>
        <time>2020-08-02T07:27:36Z</time>
      </trkpt>
      <trkpt lat="47.25995" lon="-0.46677">
        <ele>74.6</ele>
        <time>2020-08-02T07:27:37Z</time>
      </trkpt>
      <trkpt lat="47.25987" lon="-0.46676">
        <ele>74.4</ele>
        <time>2020-08-02T07:27:38Z</time>
      </trkpt>
      <trkpt lat="47.25981" lon="-0.46676">
        <ele>74.4</ele>
        <time>2020-08-02T07:27:39Z</time>
      </trkpt>
      <trkpt lat="47.25964" lon="-0.46672">
        <ele>74.2</ele>
        <time>2020-08-02T07:27:41Z</time>
      </trkpt>
      <trkpt lat="47.25949" lon="-0.46668">
        <ele>73.6</ele>
        <time>2020-08-02T07:27:43Z</time>
      </trkpt>
      <trkpt lat="47.25929" lon="-0.46661">
        <ele>72.4</ele>
        <time>2020-08-02T07:27:45Z</time>
      </trkpt>
      <trkpt lat="47.25919" lon="-0.46658">
        <ele>71.8</ele>
        <time>2020-08-02T07:27:46Z</time>
      </trkpt>
      <trkpt lat="47.25911" lon="-0.46658">
        <ele>70.2</ele>
        <time>2020-08-02T07:27:47Z</time>
      </trkpt>
      <trkpt lat="47.25902" lon="-0.46659">
        <ele>69.4</ele>
        <time>2020-08-02T07:27:48Z</time>
      </trkpt>
      <trkpt lat="47.25894" lon="-0.46663">
        <ele>68</ele>
        <time>2020-08-02T07:27:49Z</time>
      </trkpt>
      <trkpt lat="47.25887" lon="-0.46667">
        <ele>66.6</ele>
        <time>2020-08-02T07:27:50Z</time>
      </trkpt>
      <trkpt lat="47.2588" lon="-0.46671">
        <ele>66</ele>
        <time>2020-08-02T07:27:51Z</time>
      </trkpt>
      <trkpt lat="47.25873" lon="-0.46672">
        <ele>65.2</ele>
        <time>2020-08-02T07:27:52Z</time>
      </trkpt>
      <trkpt lat="47.25866" lon="-0.46671">
        <ele>65</ele>
        <time>2020-08-02T07:27:53Z</time>
      </trkpt>
      <trkpt lat="47.2586" lon="-0.46667">
        <ele>64.6</ele>
        <time>2020-08-02T07:27:54Z</time>
      </trkpt>
      <trkpt lat="47.25854" lon="-0.4666">
        <ele>64.2</ele>
        <time>2020-08-02T07:27:55Z</time>
      </trkpt>
      <trkpt lat="47.25849" lon="-0.46652">
        <ele>63.4</ele>
        <time>2020-08-02T07:27:56Z</time>
      </trkpt>
      <trkpt lat="47.25845" lon="-0.46642">
        <ele>62.8</ele>
        <time>2020-08-02T07:27:57Z</time>
      </trkpt>
      <trkpt lat="47.25829" lon="-0.46601">
        <ele>61.4</ele>
        <time>2020-08-02T07:28:01Z</time>
      </trkpt>
      <trkpt lat="47.25826" lon="-0.46593">
        <ele>61.4</ele>
        <time>2020-08-02T07:28:02Z</time>
      </trkpt>
      <trkpt lat="47.2581" lon="-0.46552">
        <ele>60.2</ele>
        <time>2020-08-02T07:28:06Z</time>
      </trkpt>
      <trkpt lat="47.25805" lon="-0.46544">
        <ele>60</ele>
        <time>2020-08-02T07:28:07Z</time>
      </trkpt>
      <trkpt lat="47.25799" lon="-0.46538">
        <ele>59.8</ele>
        <time>2020-08-02T07:28:08Z</time>
      </trkpt>
      <trkpt lat="47.25794" lon="-0.46532">
        <ele>59.4</ele>
        <time>2020-08-02T07:28:09Z</time>
      </trkpt>
      <trkpt lat="47.2579" lon="-0.46523">
        <ele>59.4</ele>
        <time>2020-08-02T07:28:10Z</time>
      </trkpt>
      <trkpt lat="47.25786" lon="-0.46515">
        <ele>59.2</ele>
        <time>2020-08-02T07:28:11Z</time>
      </trkpt>
      <trkpt lat="47.25783" lon="-0.46506">
        <ele>59</ele>
        <time>2020-08-02T07:28:12Z</time>
      </trkpt>
      <trkpt lat="47.25779" lon="-0.46498">
        <ele>58.8</ele>
        <time>2020-08-02T07:28:13Z</time>
      </trkpt>
      <trkpt lat="47.25777" lon="-0.4649">
        <ele>59</ele>
        <time>2020-08-02T07:28:14Z</time>
      </trkpt>
      <trkpt lat="47.25774" lon="-0.46483">
        <ele>59</ele>
        <time>2020-08-02T07:28:15Z</time>
      </trkpt>
      <trkpt lat="47.2577" lon="-0.46474">
        <ele>58.8</ele>
        <time>2020-08-02T07:28:16Z</time>
      </trkpt>
      <trkpt lat="47.25767" lon="-0.46466">
        <ele>58.8</ele>
        <time>2020-08-02T07:28:17Z</time>
      </trkpt>
      <trkpt lat="47.25764" lon="-0.46458">
        <ele>58.8</ele>
        <time>2020-08-02T07:28:18Z</time>
      </trkpt>
      <trkpt lat="47.2576" lon="-0.4645">
        <ele>59</ele>
        <time>2020-08-02T07:28:19Z</time>
      </trkpt>
      <trkpt lat="47.25757" lon="-0.46443">
        <ele>59</ele>
        <time>2020-08-02T07:28:20Z</time>
      </trkpt>
      <trkpt lat="47.25753" lon="-0.46436">
        <ele>58.8</ele>
        <time>2020-08-02T07:28:21Z</time>
      </trkpt>
      <trkpt lat="47.2575" lon="-0.46429">
        <ele>59</ele>
        <time>2020-08-02T07:28:22Z</time>
      </trkpt>
      <trkpt lat="47.25748" lon="-0.46423">
        <ele>59</ele>
        <time>2020-08-02T07:28:23Z</time>
      </trkpt>
      <trkpt lat="47.25744" lon="-0.46416">
        <ele>59</ele>
        <time>2020-08-02T07:28:24Z</time>
      </trkpt>
      <trkpt lat="47.2574" lon="-0.46408">
        <ele>59</ele>
        <time>2020-08-02T07:28:25Z</time>
      </trkpt>
      <trkpt lat="47.25736" lon="-0.46401">
        <ele>58.8</ele>
        <time>2020-08-02T07:28:26Z</time>
      </trkpt>
      <trkpt lat="47.25733" lon="-0.46395">
        <ele>58.8</ele>
        <time>2020-08-02T07:28:27Z</time>
      </trkpt>
      <trkpt lat="47.25729" lon="-0.46389">
        <ele>58.8</ele>
        <time>2020-08-02T07:28:28Z</time>
      </trkpt>
      <trkpt lat="47.25725" lon="-0.46383">
        <ele>59</ele>
        <time>2020-08-02T07:28:29Z</time>
      </trkpt>
      <trkpt lat="47.25721" lon="-0.46376">
        <ele>59</ele>
        <time>2020-08-02T07:28:30Z</time>
      </trkpt>
      <trkpt lat="47.25717" lon="-0.4637">
        <ele>59</ele>
        <time>2020-08-02T07:28:31Z</time>
      </trkpt>
      <trkpt lat="47.25713" lon="-0.46363">
        <ele>59</ele>
        <time>2020-08-02T07:28:32Z</time>
      </trkpt>
      <trkpt lat="47.25709" lon="-0.46357">
        <ele>59</ele>
        <time>2020-08-02T07:28:33Z</time>
      </trkpt>
      <trkpt lat="47.25706" lon="-0.46352">
        <ele>59</ele>
        <time>2020-08-02T07:28:34Z</time>
      </trkpt>
      <trkpt lat="47.25702" lon="-0.46344">
        <ele>59</ele>
        <time>2020-08-02T07:28:35Z</time>
      </trkpt>
      <trkpt lat="47.25698" lon="-0.46338">
        <ele>59</ele>
        <time>2020-08-02T07:28:36Z</time>
      </trkpt>
      <trkpt lat="47.25695" lon="-0.46332">
        <ele>59.2</ele>
        <time>2020-08-02T07:28:37Z</time>
      </trkpt>
      <trkpt lat="47.25692" lon="-0.46327">
        <ele>59.2</ele>
        <time>2020-08-02T07:28:38Z</time>
      </trkpt>
      <trkpt lat="47.25688" lon="-0.46321">
        <ele>59.2</ele>
        <time>2020-08-02T07:28:39Z</time>
      </trkpt>
      <trkpt lat="47.25684" lon="-0.46315">
        <ele>59.2</ele>
        <time>2020-08-02T07:28:40Z</time>
      </trkpt>
      <trkpt lat="47.25681" lon="-0.46309">
        <ele>59</ele>
        <time>2020-08-02T07:28:41Z</time>
      </trkpt>
      <trkpt lat="47.25677" lon="-0.46304">
        <ele>59.2</ele>
        <time>2020-08-02T07:28:42Z</time>
      </trkpt>
      <trkpt lat="47.25674" lon="-0.46299">
        <ele>59.2</ele>
        <time>2020-08-02T07:28:43Z</time>
      </trkpt>
      <trkpt lat="47.25671" lon="-0.46294">
        <ele>59.2</ele>
        <time>2020-08-02T07:28:44Z</time>
      </trkpt>
      <trkpt lat="47.25667" lon="-0.46288">
        <ele>59.2</ele>
        <time>2020-08-02T07:28:45Z</time>
      </trkpt>
      <trkpt lat="47.25664" lon="-0.46284">
        <ele>59</ele>
        <time>2020-08-02T07:28:46Z</time>
      </trkpt>
      <trkpt lat="47.25661" lon="-0.46278">
        <ele>59</ele>
        <time>2020-08-02T07:28:47Z</time>
      </trkpt>
      <trkpt lat="47.25657" lon="-0.46273">
        <ele>59</ele>
        <time>2020-08-02T07:28:48Z</time>
      </trkpt>
      <trkpt lat="47.25654" lon="-0.46268">
        <ele>59</ele>
        <time>2020-08-02T07:28:49Z</time>
      </trkpt>
      <trkpt lat="47.25651" lon="-0.46263">
        <ele>59</ele>
        <time>2020-08-02T07:28:50Z</time>
      </trkpt>
      <trkpt lat="47.25648" lon="-0.46259">
        <ele>59</ele>
        <time>2020-08-02T07:28:51Z</time>
      </trkpt>
      <trkpt lat="47.25645" lon="-0.46254">
        <ele>58.8</ele>
        <time>2020-08-02T07:28:52Z</time>
      </trkpt>
      <trkpt lat="47.25639" lon="-0.46244">
        <ele>59.2</ele>
        <time>2020-08-02T07:28:54Z</time>
      </trkpt>
      <trkpt lat="47.25636" lon="-0.46239">
        <ele>59</ele>
        <time>2020-08-02T07:28:55Z</time>
      </trkpt>
      <trkpt lat="47.25633" lon="-0.46235">
        <ele>59</ele>
        <time>2020-08-02T07:28:56Z</time>
      </trkpt>
      <trkpt lat="47.2563" lon="-0.46229">
        <ele>59</ele>
        <time>2020-08-02T07:28:57Z</time>
      </trkpt>
      <trkpt lat="47.25627" lon="-0.46224">
        <ele>59</ele>
        <time>2020-08-02T07:28:58Z</time>
      </trkpt>
      <trkpt lat="47.25623" lon="-0.46219">
        <ele>59</ele>
        <time>2020-08-02T07:28:59Z</time>
      </trkpt>
      <trkpt lat="47.25621" lon="-0.46214">
        <ele>59.2</ele>
        <time>2020-08-02T07:29:00Z</time>
      </trkpt>
      <trkpt lat="47.25617" lon="-0.46208">
        <ele>59.2</ele>
        <time>2020-08-02T07:29:01Z</time>
      </trkpt>
      <trkpt lat="47.25613" lon="-0.46202">
        <ele>59.2</ele>
        <time>2020-08-02T07:29:02Z</time>
      </trkpt>
      <trkpt lat="47.25609" lon="-0.46196">
        <ele>59.2</ele>
        <time>2020-08-02T07:29:03Z</time>
      </trkpt>
      <trkpt lat="47.25605" lon="-0.46191">
        <ele>59.2</ele>
        <time>2020-08-02T07:29:04Z</time>
      </trkpt>
      <trkpt lat="47.25602" lon="-0.46186">
        <ele>59.2</ele>
        <time>2020-08-02T07:29:05Z</time>
      </trkpt>
      <trkpt lat="47.25598" lon="-0.4618">
        <ele>59.2</ele>
        <time>2020-08-02T07:29:06Z</time>
      </trkpt>
      <trkpt lat="47.25594" lon="-0.46173">
        <ele>59.2</ele>
        <time>2020-08-02T07:29:07Z</time>
      </trkpt>
      <trkpt lat="47.2559" lon="-0.46167">
        <ele>59.2</ele>
        <time>2020-08-02T07:29:08Z</time>
      </trkpt>
      <trkpt lat="47.2556" lon="-0.46118">
        <ele>59.2</ele>
        <time>2020-08-02T07:29:16Z</time>
      </trkpt>
      <trkpt lat="47.25548" lon="-0.46101">
        <ele>59.4</ele>
        <time>2020-08-02T07:29:19Z</time>
      </trkpt>
      <trkpt lat="47.25544" lon="-0.46095">
        <ele>59.4</ele>
        <time>2020-08-02T07:29:20Z</time>
      </trkpt>
      <trkpt lat="47.25541" lon="-0.4609">
        <ele>59.4</ele>
        <time>2020-08-02T07:29:21Z</time>
      </trkpt>
      <trkpt lat="47.25537" lon="-0.46084">
        <ele>59.6</ele>
        <time>2020-08-02T07:29:22Z</time>
      </trkpt>
      <trkpt lat="47.25533" lon="-0.46079">
        <ele>59.6</ele>
        <time>2020-08-02T07:29:23Z</time>
      </trkpt>
      <trkpt lat="47.25529" lon="-0.46073">
        <ele>59.6</ele>
        <time>2020-08-02T07:29:24Z</time>
      </trkpt>
      <trkpt lat="47.25526" lon="-0.46068">
        <ele>59.6</ele>
        <time>2020-08-02T07:29:25Z</time>
      </trkpt>
      <trkpt lat="47.25523" lon="-0.46063">
        <ele>59.6</ele>
        <time>2020-08-02T07:29:26Z</time>
      </trkpt>
      <trkpt lat="47.25519" lon="-0.46057">
        <ele>59.6</ele>
        <time>2020-08-02T07:29:27Z</time>
      </trkpt>
      <trkpt lat="47.25516" lon="-0.46052">
        <ele>59.6</ele>
        <time>2020-08-02T07:29:28Z</time>
      </trkpt>
      <trkpt lat="47.25513" lon="-0.46047">
        <ele>59.6</ele>
        <time>2020-08-02T07:29:29Z</time>
      </trkpt>
      <trkpt lat="47.25509" lon="-0.46042">
        <ele>59.8</ele>
        <time>2020-08-02T07:29:30Z</time>
      </trkpt>
      <trkpt lat="47.25506" lon="-0.46037">
        <ele>59.8</ele>
        <time>2020-08-02T07:29:31Z</time>
      </trkpt>
      <trkpt lat="47.25503" lon="-0.46032">
        <ele>59.8</ele>
        <time>2020-08-02T07:29:32Z</time>
      </trkpt>
      <trkpt lat="47.25499" lon="-0.46025">
        <ele>59.8</ele>
        <time>2020-08-02T07:29:33Z</time>
      </trkpt>
      <trkpt lat="47.25478" lon="-0.45992">
        <ele>59.8</ele>
        <time>2020-08-02T07:29:39Z</time>
      </trkpt>
      <trkpt lat="47.25475" lon="-0.45987">
        <ele>59.8</ele>
        <time>2020-08-02T07:29:40Z</time>
      </trkpt>
      <trkpt lat="47.25472" lon="-0.45981">
        <ele>59.8</ele>
        <time>2020-08-02T07:29:41Z</time>
      </trkpt>
      <trkpt lat="47.25469" lon="-0.45976">
        <ele>59.8</ele>
        <time>2020-08-02T07:29:42Z</time>
      </trkpt>
      <trkpt lat="47.25462" lon="-0.45965">
        <ele>59.8</ele>
        <time>2020-08-02T07:29:44Z</time>
      </trkpt>
      <trkpt lat="47.25459" lon="-0.45961">
        <ele>59.8</ele>
        <time>2020-08-02T07:29:45Z</time>
      </trkpt>
      <trkpt lat="47.25455" lon="-0.45954">
        <ele>59.8</ele>
        <time>2020-08-02T07:29:46Z</time>
      </trkpt>
      <trkpt lat="47.25451" lon="-0.45949">
        <ele>59.8</ele>
        <time>2020-08-02T07:29:47Z</time>
      </trkpt>
      <trkpt lat="47.25448" lon="-0.45943">
        <ele>59.8</ele>
        <time>2020-08-02T07:29:48Z</time>
      </trkpt>
      <trkpt lat="47.25442" lon="-0.45933">
        <ele>59.8</ele>
        <time>2020-08-02T07:29:50Z</time>
      </trkpt>
      <trkpt lat="47.25405" lon="-0.45874">
        <ele>59.6</ele>
        <time>2020-08-02T07:30:00Z</time>
      </trkpt>
      <trkpt lat="47.25388" lon="-0.45847">
        <ele>59.2</ele>
        <time>2020-08-02T07:30:05Z</time>
      </trkpt>
      <trkpt lat="47.25385" lon="-0.45842">
        <ele>59</ele>
        <time>2020-08-02T07:30:06Z</time>
      </trkpt>
      <trkpt lat="47.25382" lon="-0.45838">
        <ele>59</ele>
        <time>2020-08-02T07:30:07Z</time>
      </trkpt>
      <trkpt lat="47.2538" lon="-0.45833">
        <ele>59</ele>
        <time>2020-08-02T07:30:08Z</time>
      </trkpt>
      <trkpt lat="47.25377" lon="-0.45827">
        <ele>59</ele>
        <time>2020-08-02T07:30:09Z</time>
      </trkpt>
      <trkpt lat="47.25375" lon="-0.45822">
        <ele>59</ele>
        <time>2020-08-02T07:30:10Z</time>
      </trkpt>
      <trkpt lat="47.25373" lon="-0.45816">
        <ele>59</ele>
        <time>2020-08-02T07:30:11Z</time>
      </trkpt>
      <trkpt lat="47.25371" lon="-0.45811">
        <ele>59</ele>
        <time>2020-08-02T07:30:12Z</time>
      </trkpt>
      <trkpt lat="47.25368" lon="-0.45806">
        <ele>59.2</ele>
        <time>2020-08-02T07:30:13Z</time>
      </trkpt>
      <trkpt lat="47.25365" lon="-0.45799">
        <ele>59.2</ele>
        <time>2020-08-02T07:30:14Z</time>
      </trkpt>
      <trkpt lat="47.25363" lon="-0.45793">
        <ele>59.2</ele>
        <time>2020-08-02T07:30:15Z</time>
      </trkpt>
      <trkpt lat="47.2536" lon="-0.45787">
        <ele>59.2</ele>
        <time>2020-08-02T07:30:16Z</time>
      </trkpt>
      <trkpt lat="47.25358" lon="-0.45782">
        <ele>59.2</ele>
        <time>2020-08-02T07:30:17Z</time>
      </trkpt>
      <trkpt lat="47.2534" lon="-0.45732">
        <ele>58.4</ele>
        <time>2020-08-02T07:30:25Z</time>
      </trkpt>
      <trkpt lat="47.25338" lon="-0.45727">
        <ele>58.2</ele>
        <time>2020-08-02T07:30:26Z</time>
      </trkpt>
      <trkpt lat="47.25336" lon="-0.45722">
        <ele>58.2</ele>
        <time>2020-08-02T07:30:27Z</time>
      </trkpt>
      <trkpt lat="47.25335" lon="-0.45718">
        <ele>58.2</ele>
        <time>2020-08-02T07:30:28Z</time>
      </trkpt>
      <trkpt lat="47.25334" lon="-0.45716">
        <ele>58</ele>
        <time>2020-08-02T07:30:29Z</time>
      </trkpt>
      <trkpt lat="47.25334" lon="-0.45716">
        <ele>57.8</ele>
        <time>2020-08-02T07:30:30Z</time>
      </trkpt>
      <trkpt lat="47.25334" lon="-0.45716">
        <ele>57.8</ele>
        <time>2020-08-02T07:30:31Z</time>
      </trkpt>
      <trkpt lat="47.25335" lon="-0.45716">
        <ele>57.8</ele>
        <time>2020-08-02T07:30:32Z</time>
      </trkpt>
      <trkpt lat="47.25336" lon="-0.45716">
        <ele>57.8</ele>
        <time>2020-08-02T07:30:33Z</time>
      </trkpt>
      <trkpt lat="47.25337" lon="-0.45715">
        <ele>57.6</ele>
        <time>2020-08-02T07:30:34Z</time>
      </trkpt>
      <trkpt lat="47.25338" lon="-0.45714">
        <ele>57.6</ele>
        <time>2020-08-02T07:30:35Z</time>
      </trkpt>
      <trkpt lat="47.25339" lon="-0.45712">
        <ele>57.6</ele>
        <time>2020-08-02T07:30:37Z</time>
      </trkpt>
      <trkpt lat="47.25339" lon="-0.45712">
        <ele>57.4</ele>
        <time>2020-08-02T07:30:38Z</time>
      </trkpt>
      <trkpt lat="47.25339" lon="-0.45712">
        <ele>57.2</ele>
        <time>2020-08-02T07:30:41Z</time>
      </trkpt>
      <trkpt lat="47.25339" lon="-0.45712">
        <ele>57</ele>
        <time>2020-08-02T07:30:47Z</time>
      </trkpt>
      <trkpt lat="47.25339" lon="-0.45712">
        <ele>57</ele>
        <time>2020-08-02T07:30:49Z</time>
      </trkpt>
      <trkpt lat="47.25337" lon="-0.45708">
        <ele>57</ele>
        <time>2020-08-02T07:30:51Z</time>
      </trkpt>
      <trkpt lat="47.25336" lon="-0.45706">
        <ele>57</ele>
        <time>2020-08-02T07:30:52Z</time>
      </trkpt>
      <trkpt lat="47.25336" lon="-0.45704">
        <ele>57</ele>
        <time>2020-08-02T07:30:53Z</time>
      </trkpt>
      <trkpt lat="47.25335" lon="-0.45702">
        <ele>57</ele>
        <time>2020-08-02T07:30:54Z</time>
      </trkpt>
      <trkpt lat="47.25335" lon="-0.457">
        <ele>57</ele>
        <time>2020-08-02T07:30:55Z</time>
      </trkpt>
      <trkpt lat="47.25334" lon="-0.45698">
        <ele>57</ele>
        <time>2020-08-02T07:30:56Z</time>
      </trkpt>
      <trkpt lat="47.25334" lon="-0.45696">
        <ele>57</ele>
        <time>2020-08-02T07:30:57Z</time>
      </trkpt>
      <trkpt lat="47.25333" lon="-0.45692">
        <ele>57</ele>
        <time>2020-08-02T07:30:59Z</time>
      </trkpt>
      <trkpt lat="47.25332" lon="-0.45689">
        <ele>57</ele>
        <time>2020-08-02T07:31:00Z</time>
      </trkpt>
      <trkpt lat="47.25331" lon="-0.45685">
        <ele>57</ele>
        <time>2020-08-02T07:31:02Z</time>
      </trkpt>
      <trkpt lat="47.25327" lon="-0.4567">
        <ele>56.6</ele>
        <time>2020-08-02T07:31:06Z</time>
      </trkpt>
      <trkpt lat="47.25326" lon="-0.45664">
        <ele>56.6</ele>
        <time>2020-08-02T07:31:08Z</time>
      </trkpt>
      <trkpt lat="47.25325" lon="-0.45661">
        <ele>56.6</ele>
        <time>2020-08-02T07:31:09Z</time>
      </trkpt>
      <trkpt lat="47.25324" lon="-0.45658">
        <ele>56.4</ele>
        <time>2020-08-02T07:31:10Z</time>
      </trkpt>
      <trkpt lat="47.25323" lon="-0.45655">
        <ele>56.4</ele>
        <time>2020-08-02T07:31:11Z</time>
      </trkpt>
      <trkpt lat="47.25322" lon="-0.45649">
        <ele>56.2</ele>
        <time>2020-08-02T07:31:13Z</time>
      </trkpt>
      <trkpt lat="47.25321" lon="-0.45645">
        <ele>56</ele>
        <time>2020-08-02T07:31:14Z</time>
      </trkpt>
      <trkpt lat="47.25319" lon="-0.45636">
        <ele>56</ele>
        <time>2020-08-02T07:31:16Z</time>
      </trkpt>
      <trkpt lat="47.25319" lon="-0.45631">
        <ele>56.2</ele>
        <time>2020-08-02T07:31:17Z</time>
      </trkpt>
      <trkpt lat="47.25317" lon="-0.45616">
        <ele>56</ele>
        <time>2020-08-02T07:31:20Z</time>
      </trkpt>
      <trkpt lat="47.25316" lon="-0.45607">
        <ele>55.8</ele>
        <time>2020-08-02T07:31:22Z</time>
      </trkpt>
      <trkpt lat="47.25316" lon="-0.45602">
        <ele>56</ele>
        <time>2020-08-02T07:31:23Z</time>
      </trkpt>
      <trkpt lat="47.25315" lon="-0.45597">
        <ele>56</ele>
        <time>2020-08-02T07:31:24Z</time>
      </trkpt>
      <trkpt lat="47.25314" lon="-0.45588">
        <ele>56</ele>
        <time>2020-08-02T07:31:26Z</time>
      </trkpt>
      <trkpt lat="47.25313" lon="-0.45583">
        <ele>56</ele>
        <time>2020-08-02T07:31:27Z</time>
      </trkpt>
      <trkpt lat="47.25313" lon="-0.45579">
        <ele>55.8</ele>
        <time>2020-08-02T07:31:28Z</time>
      </trkpt>
      <trkpt lat="47.25312" lon="-0.45575">
        <ele>55.6</ele>
        <time>2020-08-02T07:31:29Z</time>
      </trkpt>
      <trkpt lat="47.25312" lon="-0.45569">
        <ele>55.6</ele>
        <time>2020-08-02T07:31:30Z</time>
      </trkpt>
      <trkpt lat="47.25312" lon="-0.45565">
        <ele>55.6</ele>
        <time>2020-08-02T07:31:31Z</time>
      </trkpt>
      <trkpt lat="47.25312" lon="-0.4556">
        <ele>55.6</ele>
        <time>2020-08-02T07:31:32Z</time>
      </trkpt>
      <trkpt lat="47.25309" lon="-0.45536">
        <ele>55.4</ele>
        <time>2020-08-02T07:31:37Z</time>
      </trkpt>
      <trkpt lat="47.25309" lon="-0.45531">
        <ele>55.4</ele>
        <time>2020-08-02T07:31:38Z</time>
      </trkpt>
      <trkpt lat="47.25308" lon="-0.45527">
        <ele>55.4</ele>
        <time>2020-08-02T07:31:39Z</time>
      </trkpt>
      <trkpt lat="47.25307" lon="-0.45514">
        <ele>55.4</ele>
        <time>2020-08-02T07:31:42Z</time>
      </trkpt>
      <trkpt lat="47.25306" lon="-0.4551">
        <ele>55.4</ele>
        <time>2020-08-02T07:31:43Z</time>
      </trkpt>
      <trkpt lat="47.25306" lon="-0.45505">
        <ele>55.4</ele>
        <time>2020-08-02T07:31:44Z</time>
      </trkpt>
      <trkpt lat="47.25305" lon="-0.45501">
        <ele>55.2</ele>
        <time>2020-08-02T07:31:45Z</time>
      </trkpt>
      <trkpt lat="47.25305" lon="-0.45497">
        <ele>55.2</ele>
        <time>2020-08-02T07:31:46Z</time>
      </trkpt>
      <trkpt lat="47.25304" lon="-0.45493">
        <ele>55.2</ele>
        <time>2020-08-02T07:31:47Z</time>
      </trkpt>
      <trkpt lat="47.25304" lon="-0.45488">
        <ele>55.2</ele>
        <time>2020-08-02T07:31:48Z</time>
      </trkpt>
      <trkpt lat="47.25303" lon="-0.45483">
        <ele>55.2</ele>
        <time>2020-08-02T07:31:49Z</time>
      </trkpt>
      <trkpt lat="47.25303" lon="-0.45478">
        <ele>55</ele>
        <time>2020-08-02T07:31:50Z</time>
      </trkpt>
      <trkpt lat="47.25301" lon="-0.45465">
        <ele>54.8</ele>
        <time>2020-08-02T07:31:53Z</time>
      </trkpt>
      <trkpt lat="47.253" lon="-0.45456">
        <ele>54.8</ele>
        <time>2020-08-02T07:31:55Z</time>
      </trkpt>
      <trkpt lat="47.253" lon="-0.45452">
        <ele>54.8</ele>
        <time>2020-08-02T07:31:56Z</time>
      </trkpt>
      <trkpt lat="47.25299" lon="-0.45446">
        <ele>54.8</ele>
        <time>2020-08-02T07:31:57Z</time>
      </trkpt>
      <trkpt lat="47.25297" lon="-0.45425">
        <ele>54.4</ele>
        <time>2020-08-02T07:32:01Z</time>
      </trkpt>
      <trkpt lat="47.25296" lon="-0.45413">
        <ele>54.2</ele>
        <time>2020-08-02T07:32:03Z</time>
      </trkpt>
      <trkpt lat="47.25295" lon="-0.45407">
        <ele>54</ele>
        <time>2020-08-02T07:32:04Z</time>
      </trkpt>
      <trkpt lat="47.25294" lon="-0.45397">
        <ele>54</ele>
        <time>2020-08-02T07:32:06Z</time>
      </trkpt>
      <trkpt lat="47.25294" lon="-0.45391">
        <ele>54</ele>
        <time>2020-08-02T07:32:07Z</time>
      </trkpt>
      <trkpt lat="47.25292" lon="-0.45377">
        <ele>54</ele>
        <time>2020-08-02T07:32:10Z</time>
      </trkpt>
      <trkpt lat="47.25291" lon="-0.45367">
        <ele>54</ele>
        <time>2020-08-02T07:32:12Z</time>
      </trkpt>
      <trkpt lat="47.2529" lon="-0.45363">
        <ele>54</ele>
        <time>2020-08-02T07:32:13Z</time>
      </trkpt>
      <trkpt lat="47.2529" lon="-0.4536">
        <ele>54</ele>
        <time>2020-08-02T07:32:14Z</time>
      </trkpt>
      <trkpt lat="47.2529" lon="-0.45357">
        <ele>54</ele>
        <time>2020-08-02T07:32:15Z</time>
      </trkpt>
      <trkpt lat="47.25289" lon="-0.45353">
        <ele>54</ele>
        <time>2020-08-02T07:32:16Z</time>
      </trkpt>
      <trkpt lat="47.25288" lon="-0.45346">
        <ele>54</ele>
        <time>2020-08-02T07:32:18Z</time>
      </trkpt>
      <trkpt lat="47.25287" lon="-0.45342">
        <ele>54</ele>
        <time>2020-08-02T07:32:19Z</time>
      </trkpt>
      <trkpt lat="47.25287" lon="-0.45339">
        <ele>54</ele>
        <time>2020-08-02T07:32:20Z</time>
      </trkpt>
      <trkpt lat="47.25287" lon="-0.45336">
        <ele>54</ele>
        <time>2020-08-02T07:32:21Z</time>
      </trkpt>
      <trkpt lat="47.25286" lon="-0.45332">
        <ele>54</ele>
        <time>2020-08-02T07:32:22Z</time>
      </trkpt>
      <trkpt lat="47.25286" lon="-0.45329">
        <ele>54</ele>
        <time>2020-08-02T07:32:23Z</time>
      </trkpt>
      <trkpt lat="47.25286" lon="-0.45326">
        <ele>54.2</ele>
        <time>2020-08-02T07:32:24Z</time>
      </trkpt>
      <trkpt lat="47.25285" lon="-0.45322">
        <ele>54.2</ele>
        <time>2020-08-02T07:32:25Z</time>
      </trkpt>
      <trkpt lat="47.25285" lon="-0.4532">
        <ele>54.2</ele>
        <time>2020-08-02T07:32:26Z</time>
      </trkpt>
      <trkpt lat="47.25285" lon="-0.45317">
        <ele>54.2</ele>
        <time>2020-08-02T07:32:27Z</time>
      </trkpt>
      <trkpt lat="47.25285" lon="-0.45314">
        <ele>54.2</ele>
        <time>2020-08-02T07:32:28Z</time>
      </trkpt>
      <trkpt lat="47.25284" lon="-0.4531">
        <ele>54.2</ele>
        <time>2020-08-02T07:32:29Z</time>
      </trkpt>
      <trkpt lat="47.25284" lon="-0.45307">
        <ele>54.4</ele>
        <time>2020-08-02T07:32:30Z</time>
      </trkpt>
      <trkpt lat="47.25285" lon="-0.45303">
        <ele>54.4</ele>
        <time>2020-08-02T07:32:31Z</time>
      </trkpt>
      <trkpt lat="47.25286" lon="-0.45298">
        <ele>54.4</ele>
        <time>2020-08-02T07:32:33Z</time>
      </trkpt>
      <trkpt lat="47.25288" lon="-0.45295">
        <ele>54.4</ele>
        <time>2020-08-02T07:32:34Z</time>
      </trkpt>
      <trkpt lat="47.25292" lon="-0.45292">
        <ele>54.4</ele>
        <time>2020-08-02T07:32:36Z</time>
      </trkpt>
      <trkpt lat="47.25297" lon="-0.45289">
        <ele>54.4</ele>
        <time>2020-08-02T07:32:38Z</time>
      </trkpt>
      <trkpt lat="47.25299" lon="-0.45288">
        <ele>54.4</ele>
        <time>2020-08-02T07:32:39Z</time>
      </trkpt>
      <trkpt lat="47.25301" lon="-0.45287">
        <ele>54.4</ele>
        <time>2020-08-02T07:32:40Z</time>
      </trkpt>
      <trkpt lat="47.25305" lon="-0.45285">
        <ele>54.4</ele>
        <time>2020-08-02T07:32:42Z</time>
      </trkpt>
      <trkpt lat="47.25307" lon="-0.45282">
        <ele>54.6</ele>
        <time>2020-08-02T07:32:43Z</time>
      </trkpt>
      <trkpt lat="47.25308" lon="-0.45278">
        <ele>54.8</ele>
        <time>2020-08-02T07:32:44Z</time>
      </trkpt>
      <trkpt lat="47.25308" lon="-0.45275">
        <ele>55</ele>
        <time>2020-08-02T07:32:45Z</time>
      </trkpt>
      <trkpt lat="47.25308" lon="-0.45273">
        <ele>55.2</ele>
        <time>2020-08-02T07:32:46Z</time>
      </trkpt>
      <trkpt lat="47.25307" lon="-0.45269">
        <ele>55.2</ele>
        <time>2020-08-02T07:32:47Z</time>
      </trkpt>
      <trkpt lat="47.25307" lon="-0.45265">
        <ele>55.4</ele>
        <time>2020-08-02T07:32:48Z</time>
      </trkpt>
      <trkpt lat="47.25306" lon="-0.45261">
        <ele>55.4</ele>
        <time>2020-08-02T07:32:49Z</time>
      </trkpt>
      <trkpt lat="47.25306" lon="-0.45258">
        <ele>55.6</ele>
        <time>2020-08-02T07:32:50Z</time>
      </trkpt>
      <trkpt lat="47.25305" lon="-0.45254">
        <ele>55.8</ele>
        <time>2020-08-02T07:32:51Z</time>
      </trkpt>
      <trkpt lat="47.25304" lon="-0.45249">
        <ele>55.8</ele>
        <time>2020-08-02T07:32:52Z</time>
      </trkpt>
      <trkpt lat="47.25303" lon="-0.45245">
        <ele>55.8</ele>
        <time>2020-08-02T07:32:53Z</time>
      </trkpt>
      <trkpt lat="47.25301" lon="-0.45241">
        <ele>56</ele>
        <time>2020-08-02T07:32:54Z</time>
      </trkpt>
      <trkpt lat="47.253" lon="-0.45237">
        <ele>55.8</ele>
        <time>2020-08-02T07:32:55Z</time>
      </trkpt>
      <trkpt lat="47.25295" lon="-0.45223">
        <ele>55.2</ele>
        <time>2020-08-02T07:32:58Z</time>
      </trkpt>
      <trkpt lat="47.25291" lon="-0.45216">
        <ele>55</ele>
        <time>2020-08-02T07:33:00Z</time>
      </trkpt>
      <trkpt lat="47.25286" lon="-0.45204">
        <ele>54.8</ele>
        <time>2020-08-02T07:33:03Z</time>
      </trkpt>
      <trkpt lat="47.25285" lon="-0.45201">
        <ele>54.8</ele>
        <time>2020-08-02T07:33:04Z</time>
      </trkpt>
      <trkpt lat="47.25284" lon="-0.45198">
        <ele>54.6</ele>
        <time>2020-08-02T07:33:05Z</time>
      </trkpt>
      <trkpt lat="47.25283" lon="-0.45195">
        <ele>54.6</ele>
        <time>2020-08-02T07:33:06Z</time>
      </trkpt>
      <trkpt lat="47.25283" lon="-0.45192">
        <ele>54.4</ele>
        <time>2020-08-02T07:33:07Z</time>
      </trkpt>
      <trkpt lat="47.25282" lon="-0.45191">
        <ele>54.4</ele>
        <time>2020-08-02T07:33:08Z</time>
      </trkpt>
      <trkpt lat="47.25281" lon="-0.45189">
        <ele>54.4</ele>
        <time>2020-08-02T07:33:09Z</time>
      </trkpt>
      <trkpt lat="47.25279" lon="-0.45187">
        <ele>54.2</ele>
        <time>2020-08-02T07:33:10Z</time>
      </trkpt>
      <trkpt lat="47.25277" lon="-0.45187">
        <ele>54.2</ele>
        <time>2020-08-02T07:33:11Z</time>
      </trkpt>
      <trkpt lat="47.25274" lon="-0.45187">
        <ele>54.2</ele>
        <time>2020-08-02T07:33:12Z</time>
      </trkpt>
      <trkpt lat="47.25272" lon="-0.45187">
        <ele>54.2</ele>
        <time>2020-08-02T07:33:13Z</time>
      </trkpt>
      <trkpt lat="47.25269" lon="-0.45186">
        <ele>54</ele>
        <time>2020-08-02T07:33:14Z</time>
      </trkpt>
      <trkpt lat="47.25266" lon="-0.45183">
        <ele>54</ele>
        <time>2020-08-02T07:33:15Z</time>
      </trkpt>
      <trkpt lat="47.25264" lon="-0.45179">
        <ele>54</ele>
        <time>2020-08-02T07:33:16Z</time>
      </trkpt>
      <trkpt lat="47.25262" lon="-0.45175">
        <ele>54</ele>
        <time>2020-08-02T07:33:17Z</time>
      </trkpt>
      <trkpt lat="47.25258" lon="-0.45161">
        <ele>53.8</ele>
        <time>2020-08-02T07:33:20Z</time>
      </trkpt>
      <trkpt lat="47.25257" lon="-0.45156">
        <ele>53.8</ele>
        <time>2020-08-02T07:33:21Z</time>
      </trkpt>
      <trkpt lat="47.25256" lon="-0.45152">
        <ele>53.8</ele>
        <time>2020-08-02T07:33:22Z</time>
      </trkpt>
      <trkpt lat="47.25255" lon="-0.45149">
        <ele>53.8</ele>
        <time>2020-08-02T07:33:23Z</time>
      </trkpt>
      <trkpt lat="47.25254" lon="-0.45144">
        <ele>53.8</ele>
        <time>2020-08-02T07:33:24Z</time>
      </trkpt>
      <trkpt lat="47.25253" lon="-0.4514">
        <ele>53.8</ele>
        <time>2020-08-02T07:33:25Z</time>
      </trkpt>
      <trkpt lat="47.25251" lon="-0.45133">
        <ele>53.8</ele>
        <time>2020-08-02T07:33:27Z</time>
      </trkpt>
      <trkpt lat="47.2525" lon="-0.4513">
        <ele>53.8</ele>
        <time>2020-08-02T07:33:28Z</time>
      </trkpt>
      <trkpt lat="47.25249" lon="-0.45126">
        <ele>53.6</ele>
        <time>2020-08-02T07:33:29Z</time>
      </trkpt>
      <trkpt lat="47.25247" lon="-0.45122">
        <ele>53.6</ele>
        <time>2020-08-02T07:33:30Z</time>
      </trkpt>
      <trkpt lat="47.25246" lon="-0.45118">
        <ele>53.6</ele>
        <time>2020-08-02T07:33:31Z</time>
      </trkpt>
      <trkpt lat="47.25244" lon="-0.45114">
        <ele>53.4</ele>
        <time>2020-08-02T07:33:32Z</time>
      </trkpt>
      <trkpt lat="47.25242" lon="-0.45109">
        <ele>53.4</ele>
        <time>2020-08-02T07:33:33Z</time>
      </trkpt>
      <trkpt lat="47.2524" lon="-0.45105">
        <ele>53.4</ele>
        <time>2020-08-02T07:33:34Z</time>
      </trkpt>
      <trkpt lat="47.25239" lon="-0.451">
        <ele>53.2</ele>
        <time>2020-08-02T07:33:35Z</time>
      </trkpt>
      <trkpt lat="47.25237" lon="-0.45096">
        <ele>53.2</ele>
        <time>2020-08-02T07:33:36Z</time>
      </trkpt>
      <trkpt lat="47.25232" lon="-0.4508">
        <ele>53</ele>
        <time>2020-08-02T07:33:39Z</time>
      </trkpt>
      <trkpt lat="47.25228" lon="-0.45071">
        <ele>53</ele>
        <time>2020-08-02T07:33:41Z</time>
      </trkpt>
      <trkpt lat="47.25226" lon="-0.45066">
        <ele>53</ele>
        <time>2020-08-02T07:33:42Z</time>
      </trkpt>
      <trkpt lat="47.25218" lon="-0.45047">
        <ele>52.8</ele>
        <time>2020-08-02T07:33:46Z</time>
      </trkpt>
      <trkpt lat="47.25215" lon="-0.45041">
        <ele>52.6</ele>
        <time>2020-08-02T07:33:47Z</time>
      </trkpt>
      <trkpt lat="47.25213" lon="-0.45036">
        <ele>52.6</ele>
        <time>2020-08-02T07:33:48Z</time>
      </trkpt>
      <trkpt lat="47.2521" lon="-0.45032">
        <ele>52.2</ele>
        <time>2020-08-02T07:33:49Z</time>
      </trkpt>
      <trkpt lat="47.25208" lon="-0.45028">
        <ele>52.2</ele>
        <time>2020-08-02T07:33:50Z</time>
      </trkpt>
      <trkpt lat="47.25205" lon="-0.45022">
        <ele>52.2</ele>
        <time>2020-08-02T07:33:51Z</time>
      </trkpt>
      <trkpt lat="47.25182" lon="-0.4498">
        <ele>52</ele>
        <time>2020-08-02T07:34:00Z</time>
      </trkpt>
      <trkpt lat="47.25179" lon="-0.44975">
        <ele>52</ele>
        <time>2020-08-02T07:34:01Z</time>
      </trkpt>
      <trkpt lat="47.25176" lon="-0.44972">
        <ele>52</ele>
        <time>2020-08-02T07:34:02Z</time>
      </trkpt>
      <trkpt lat="47.25175" lon="-0.44969">
        <ele>51.8</ele>
        <time>2020-08-02T07:34:03Z</time>
      </trkpt>
      <trkpt lat="47.25172" lon="-0.44966">
        <ele>51.6</ele>
        <time>2020-08-02T07:34:04Z</time>
      </trkpt>
      <trkpt lat="47.2517" lon="-0.44962">
        <ele>51.6</ele>
        <time>2020-08-02T07:34:05Z</time>
      </trkpt>
      <trkpt lat="47.25168" lon="-0.44959">
        <ele>51.6</ele>
        <time>2020-08-02T07:34:06Z</time>
      </trkpt>
      <trkpt lat="47.25166" lon="-0.44957">
        <ele>51.6</ele>
        <time>2020-08-02T07:34:07Z</time>
      </trkpt>
      <trkpt lat="47.25164" lon="-0.44954">
        <ele>51.4</ele>
        <time>2020-08-02T07:34:08Z</time>
      </trkpt>
      <trkpt lat="47.25162" lon="-0.44951">
        <ele>51.4</ele>
        <time>2020-08-02T07:34:09Z</time>
      </trkpt>
      <trkpt lat="47.2516" lon="-0.44948">
        <ele>51.2</ele>
        <time>2020-08-02T07:34:10Z</time>
      </trkpt>
      <trkpt lat="47.25157" lon="-0.44944">
        <ele>51.2</ele>
        <time>2020-08-02T07:34:11Z</time>
      </trkpt>
      <trkpt lat="47.25154" lon="-0.4494">
        <ele>51.2</ele>
        <time>2020-08-02T07:34:12Z</time>
      </trkpt>
      <trkpt lat="47.25151" lon="-0.44938">
        <ele>51.2</ele>
        <time>2020-08-02T07:34:13Z</time>
      </trkpt>
      <trkpt lat="47.25148" lon="-0.44934">
        <ele>51.2</ele>
        <time>2020-08-02T07:34:14Z</time>
      </trkpt>
      <trkpt lat="47.25144" lon="-0.44931">
        <ele>51.2</ele>
        <time>2020-08-02T07:34:15Z</time>
      </trkpt>
      <trkpt lat="47.25132" lon="-0.44917">
        <ele>51.2</ele>
        <time>2020-08-02T07:34:19Z</time>
      </trkpt>
      <trkpt lat="47.25129" lon="-0.44914">
        <ele>51.2</ele>
        <time>2020-08-02T07:34:20Z</time>
      </trkpt>
      <trkpt lat="47.25122" lon="-0.44906">
        <ele>51.2</ele>
        <time>2020-08-02T07:34:22Z</time>
      </trkpt>
      <trkpt lat="47.25119" lon="-0.44901">
        <ele>51.4</ele>
        <time>2020-08-02T07:34:23Z</time>
      </trkpt>
      <trkpt lat="47.25108" lon="-0.44889">
        <ele>51</ele>
        <time>2020-08-02T07:34:27Z</time>
      </trkpt>
      <trkpt lat="47.25104" lon="-0.44884">
        <ele>51</ele>
        <time>2020-08-02T07:34:28Z</time>
      </trkpt>
      <trkpt lat="47.251" lon="-0.44879">
        <ele>51</ele>
        <time>2020-08-02T07:34:29Z</time>
      </trkpt>
      <trkpt lat="47.25096" lon="-0.44876">
        <ele>51</ele>
        <time>2020-08-02T07:34:30Z</time>
      </trkpt>
      <trkpt lat="47.25093" lon="-0.44872">
        <ele>51</ele>
        <time>2020-08-02T07:34:31Z</time>
      </trkpt>
      <trkpt lat="47.25085" lon="-0.44864">
        <ele>51</ele>
        <time>2020-08-02T07:34:33Z</time>
      </trkpt>
      <trkpt lat="47.25075" lon="-0.44853">
        <ele>50.8</ele>
        <time>2020-08-02T07:34:36Z</time>
      </trkpt>
      <trkpt lat="47.25071" lon="-0.44849">
        <ele>50.8</ele>
        <time>2020-08-02T07:34:37Z</time>
      </trkpt>
      <trkpt lat="47.25061" lon="-0.4484">
        <ele>50.8</ele>
        <time>2020-08-02T07:34:40Z</time>
      </trkpt>
      <trkpt lat="47.25057" lon="-0.44834">
        <ele>50.8</ele>
        <time>2020-08-02T07:34:41Z</time>
      </trkpt>
      <trkpt lat="47.25055" lon="-0.4483">
        <ele>50.8</ele>
        <time>2020-08-02T07:34:42Z</time>
      </trkpt>
      <trkpt lat="47.25052" lon="-0.44826">
        <ele>50.8</ele>
        <time>2020-08-02T07:34:43Z</time>
      </trkpt>
      <trkpt lat="47.25049" lon="-0.44824">
        <ele>50.8</ele>
        <time>2020-08-02T07:34:44Z</time>
      </trkpt>
      <trkpt lat="47.25047" lon="-0.44821">
        <ele>50.8</ele>
        <time>2020-08-02T07:34:45Z</time>
      </trkpt>
      <trkpt lat="47.25042" lon="-0.44815">
        <ele>50.8</ele>
        <time>2020-08-02T07:34:46Z</time>
      </trkpt>
      <trkpt lat="47.25028" lon="-0.44802">
        <ele>51</ele>
        <time>2020-08-02T07:34:50Z</time>
      </trkpt>
      <trkpt lat="47.25026" lon="-0.44799">
        <ele>51.2</ele>
        <time>2020-08-02T07:34:51Z</time>
      </trkpt>
      <trkpt lat="47.25022" lon="-0.44795">
        <ele>51.2</ele>
        <time>2020-08-02T07:34:52Z</time>
      </trkpt>
      <trkpt lat="47.25016" lon="-0.44788">
        <ele>51.4</ele>
        <time>2020-08-02T07:34:54Z</time>
      </trkpt>
      <trkpt lat="47.24985" lon="-0.44755">
        <ele>51.6</ele>
        <time>2020-08-02T07:35:04Z</time>
      </trkpt>
      <trkpt lat="47.24982" lon="-0.44752">
        <ele>51.8</ele>
        <time>2020-08-02T07:35:05Z</time>
      </trkpt>
      <trkpt lat="47.2498" lon="-0.44749">
        <ele>52</ele>
        <time>2020-08-02T07:35:06Z</time>
      </trkpt>
      <trkpt lat="47.24977" lon="-0.44746">
        <ele>52</ele>
        <time>2020-08-02T07:35:07Z</time>
      </trkpt>
      <trkpt lat="47.24974" lon="-0.44743">
        <ele>52</ele>
        <time>2020-08-02T07:35:08Z</time>
      </trkpt>
      <trkpt lat="47.24972" lon="-0.44739">
        <ele>52</ele>
        <time>2020-08-02T07:35:09Z</time>
      </trkpt>
      <trkpt lat="47.24969" lon="-0.44736">
        <ele>52.2</ele>
        <time>2020-08-02T07:35:10Z</time>
      </trkpt>
      <trkpt lat="47.24967" lon="-0.44734">
        <ele>52.2</ele>
        <time>2020-08-02T07:35:11Z</time>
      </trkpt>
      <trkpt lat="47.24964" lon="-0.44731">
        <ele>52.2</ele>
        <time>2020-08-02T07:35:12Z</time>
      </trkpt>
      <trkpt lat="47.24961" lon="-0.44727">
        <ele>52.2</ele>
        <time>2020-08-02T07:35:13Z</time>
      </trkpt>
      <trkpt lat="47.24958" lon="-0.44724">
        <ele>52.2</ele>
        <time>2020-08-02T07:35:14Z</time>
      </trkpt>
      <trkpt lat="47.24955" lon="-0.4472">
        <ele>52.2</ele>
        <time>2020-08-02T07:35:15Z</time>
      </trkpt>
      <trkpt lat="47.24952" lon="-0.44717">
        <ele>52.4</ele>
        <time>2020-08-02T07:35:16Z</time>
      </trkpt>
      <trkpt lat="47.2495" lon="-0.44714">
        <ele>52.4</ele>
        <time>2020-08-02T07:35:17Z</time>
      </trkpt>
      <trkpt lat="47.24946" lon="-0.4471">
        <ele>52.4</ele>
        <time>2020-08-02T07:35:18Z</time>
      </trkpt>
      <trkpt lat="47.24941" lon="-0.44704">
        <ele>52.4</ele>
        <time>2020-08-02T07:35:20Z</time>
      </trkpt>
      <trkpt lat="47.24938" lon="-0.447">
        <ele>52.4</ele>
        <time>2020-08-02T07:35:21Z</time>
      </trkpt>
      <trkpt lat="47.24931" lon="-0.44693">
        <ele>52.4</ele>
        <time>2020-08-02T07:35:23Z</time>
      </trkpt>
      <trkpt lat="47.24929" lon="-0.4469">
        <ele>52.6</ele>
        <time>2020-08-02T07:35:24Z</time>
      </trkpt>
      <trkpt lat="47.24924" lon="-0.44685">
        <ele>52.6</ele>
        <time>2020-08-02T07:35:26Z</time>
      </trkpt>
      <trkpt lat="47.2492" lon="-0.44681">
        <ele>52.8</ele>
        <time>2020-08-02T07:35:27Z</time>
      </trkpt>
      <trkpt lat="47.24917" lon="-0.44678">
        <ele>52.8</ele>
        <time>2020-08-02T07:35:28Z</time>
      </trkpt>
      <trkpt lat="47.24914" lon="-0.44674">
        <ele>52.8</ele>
        <time>2020-08-02T07:35:29Z</time>
      </trkpt>
      <trkpt lat="47.24912" lon="-0.44671">
        <ele>52.6</ele>
        <time>2020-08-02T07:35:30Z</time>
      </trkpt>
      <trkpt lat="47.24906" lon="-0.44665">
        <ele>53</ele>
        <time>2020-08-02T07:35:32Z</time>
      </trkpt>
      <trkpt lat="47.24903" lon="-0.44662">
        <ele>53</ele>
        <time>2020-08-02T07:35:33Z</time>
      </trkpt>
      <trkpt lat="47.24901" lon="-0.4466">
        <ele>53</ele>
        <time>2020-08-02T07:35:34Z</time>
      </trkpt>
      <trkpt lat="47.24898" lon="-0.44657">
        <ele>53</ele>
        <time>2020-08-02T07:35:35Z</time>
      </trkpt>
      <trkpt lat="47.24895" lon="-0.44653">
        <ele>53.2</ele>
        <time>2020-08-02T07:35:36Z</time>
      </trkpt>
      <trkpt lat="47.24892" lon="-0.4465">
        <ele>53.4</ele>
        <time>2020-08-02T07:35:37Z</time>
      </trkpt>
      <trkpt lat="47.24889" lon="-0.44647">
        <ele>53.4</ele>
        <time>2020-08-02T07:35:38Z</time>
      </trkpt>
      <trkpt lat="47.24887" lon="-0.44645">
        <ele>53.4</ele>
        <time>2020-08-02T07:35:39Z</time>
      </trkpt>
      <trkpt lat="47.24884" lon="-0.44642">
        <ele>53.4</ele>
        <time>2020-08-02T07:35:40Z</time>
      </trkpt>
      <trkpt lat="47.24881" lon="-0.44638">
        <ele>53.6</ele>
        <time>2020-08-02T07:35:41Z</time>
      </trkpt>
      <trkpt lat="47.24878" lon="-0.44635">
        <ele>53.6</ele>
        <time>2020-08-02T07:35:42Z</time>
      </trkpt>
      <trkpt lat="47.24875" lon="-0.44632">
        <ele>53.6</ele>
        <time>2020-08-02T07:35:43Z</time>
      </trkpt>
      <trkpt lat="47.24869" lon="-0.44624">
        <ele>53.8</ele>
        <time>2020-08-02T07:35:45Z</time>
      </trkpt>
      <trkpt lat="47.24851" lon="-0.44604">
        <ele>54</ele>
        <time>2020-08-02T07:35:51Z</time>
      </trkpt>
      <trkpt lat="47.24843" lon="-0.44594">
        <ele>54.4</ele>
        <time>2020-08-02T07:35:54Z</time>
      </trkpt>
      <trkpt lat="47.24839" lon="-0.44591">
        <ele>54.4</ele>
        <time>2020-08-02T07:35:55Z</time>
      </trkpt>
      <trkpt lat="47.24837" lon="-0.44588">
        <ele>54.6</ele>
        <time>2020-08-02T07:35:56Z</time>
      </trkpt>
      <trkpt lat="47.24828" lon="-0.44579">
        <ele>54.6</ele>
        <time>2020-08-02T07:35:59Z</time>
      </trkpt>
      <trkpt lat="47.24826" lon="-0.44576">
        <ele>54.8</ele>
        <time>2020-08-02T07:36:00Z</time>
      </trkpt>
      <trkpt lat="47.24823" lon="-0.44573">
        <ele>54.8</ele>
        <time>2020-08-02T07:36:01Z</time>
      </trkpt>
      <trkpt lat="47.24821" lon="-0.4457">
        <ele>54.6</ele>
        <time>2020-08-02T07:36:02Z</time>
      </trkpt>
      <trkpt lat="47.24817" lon="-0.44567">
        <ele>54.8</ele>
        <time>2020-08-02T07:36:03Z</time>
      </trkpt>
      <trkpt lat="47.24815" lon="-0.44564">
        <ele>54.8</ele>
        <time>2020-08-02T07:36:04Z</time>
      </trkpt>
      <trkpt lat="47.24812" lon="-0.44561">
        <ele>54.8</ele>
        <time>2020-08-02T07:36:05Z</time>
      </trkpt>
      <trkpt lat="47.2481" lon="-0.44558">
        <ele>54.8</ele>
        <time>2020-08-02T07:36:06Z</time>
      </trkpt>
      <trkpt lat="47.24807" lon="-0.44555">
        <ele>54.8</ele>
        <time>2020-08-02T07:36:07Z</time>
      </trkpt>
      <trkpt lat="47.24804" lon="-0.44551">
        <ele>54.8</ele>
        <time>2020-08-02T07:36:08Z</time>
      </trkpt>
      <trkpt lat="47.24801" lon="-0.44548">
        <ele>55</ele>
        <time>2020-08-02T07:36:09Z</time>
      </trkpt>
      <trkpt lat="47.24799" lon="-0.44545">
        <ele>55.2</ele>
        <time>2020-08-02T07:36:10Z</time>
      </trkpt>
      <trkpt lat="47.24796" lon="-0.44543">
        <ele>55.2</ele>
        <time>2020-08-02T07:36:11Z</time>
      </trkpt>
      <trkpt lat="47.24793" lon="-0.44539">
        <ele>55.2</ele>
        <time>2020-08-02T07:36:12Z</time>
      </trkpt>
      <trkpt lat="47.2479" lon="-0.44536">
        <ele>55.4</ele>
        <time>2020-08-02T07:36:13Z</time>
      </trkpt>
      <trkpt lat="47.24788" lon="-0.44533">
        <ele>55.4</ele>
        <time>2020-08-02T07:36:14Z</time>
      </trkpt>
      <trkpt lat="47.24786" lon="-0.44531">
        <ele>55.4</ele>
        <time>2020-08-02T07:36:15Z</time>
      </trkpt>
      <trkpt lat="47.24783" lon="-0.44527">
        <ele>55.4</ele>
        <time>2020-08-02T07:36:16Z</time>
      </trkpt>
      <trkpt lat="47.24779" lon="-0.44524">
        <ele>55.4</ele>
        <time>2020-08-02T07:36:17Z</time>
      </trkpt>
      <trkpt lat="47.24774" lon="-0.44518">
        <ele>55.4</ele>
        <time>2020-08-02T07:36:19Z</time>
      </trkpt>
      <trkpt lat="47.24772" lon="-0.44515">
        <ele>55.6</ele>
        <time>2020-08-02T07:36:20Z</time>
      </trkpt>
      <trkpt lat="47.2477" lon="-0.44512">
        <ele>55.6</ele>
        <time>2020-08-02T07:36:21Z</time>
      </trkpt>
      <trkpt lat="47.24766" lon="-0.44509">
        <ele>55.6</ele>
        <time>2020-08-02T07:36:22Z</time>
      </trkpt>
      <trkpt lat="47.24764" lon="-0.44506">
        <ele>55.6</ele>
        <time>2020-08-02T07:36:23Z</time>
      </trkpt>
      <trkpt lat="47.24748" lon="-0.44489">
        <ele>69.4</ele>
        <time>2020-08-02T07:36:29Z</time>
      </trkpt>
      <trkpt lat="47.24745" lon="-0.44485">
        <ele>55.8</ele>
        <time>2020-08-02T07:36:30Z</time>
      </trkpt>
      <trkpt lat="47.24742" lon="-0.44482">
        <ele>55.8</ele>
        <time>2020-08-02T07:36:31Z</time>
      </trkpt>
      <trkpt lat="47.24734" lon="-0.44473">
        <ele>56</ele>
        <time>2020-08-02T07:36:34Z</time>
      </trkpt>
      <trkpt lat="47.24731" lon="-0.4447">
        <ele>56</ele>
        <time>2020-08-02T07:36:35Z</time>
      </trkpt>
      <trkpt lat="47.24729" lon="-0.44467">
        <ele>56</ele>
        <time>2020-08-02T07:36:36Z</time>
      </trkpt>
      <trkpt lat="47.24726" lon="-0.44464">
        <ele>56.2</ele>
        <time>2020-08-02T07:36:37Z</time>
      </trkpt>
      <trkpt lat="47.24724" lon="-0.44461">
        <ele>56.2</ele>
        <time>2020-08-02T07:36:38Z</time>
      </trkpt>
      <trkpt lat="47.24721" lon="-0.44458">
        <ele>56.2</ele>
        <time>2020-08-02T07:36:39Z</time>
      </trkpt>
      <trkpt lat="47.24718" lon="-0.44454">
        <ele>56.2</ele>
        <time>2020-08-02T07:36:40Z</time>
      </trkpt>
      <trkpt lat="47.24712" lon="-0.44448">
        <ele>56.2</ele>
        <time>2020-08-02T07:36:42Z</time>
      </trkpt>
      <trkpt lat="47.24702" lon="-0.44437">
        <ele>56.4</ele>
        <time>2020-08-02T07:36:46Z</time>
      </trkpt>
      <trkpt lat="47.24701" lon="-0.44435">
        <ele>56.4</ele>
        <time>2020-08-02T07:36:47Z</time>
      </trkpt>
      <trkpt lat="47.24701" lon="-0.44433">
        <ele>56.6</ele>
        <time>2020-08-02T07:36:48Z</time>
      </trkpt>
      <trkpt lat="47.24701" lon="-0.4443">
        <ele>56.6</ele>
        <time>2020-08-02T07:36:49Z</time>
      </trkpt>
      <trkpt lat="47.24702" lon="-0.44427">
        <ele>56.8</ele>
        <time>2020-08-02T07:36:50Z</time>
      </trkpt>
      <trkpt lat="47.24703" lon="-0.44424">
        <ele>56.8</ele>
        <time>2020-08-02T07:36:51Z</time>
      </trkpt>
      <trkpt lat="47.24705" lon="-0.44419">
        <ele>57</ele>
        <time>2020-08-02T07:36:53Z</time>
      </trkpt>
      <trkpt lat="47.24706" lon="-0.44416">
        <ele>57.4</ele>
        <time>2020-08-02T07:36:54Z</time>
      </trkpt>
      <trkpt lat="47.24707" lon="-0.44412">
        <ele>57.6</ele>
        <time>2020-08-02T07:36:55Z</time>
      </trkpt>
      <trkpt lat="47.24709" lon="-0.44409">
        <ele>57.6</ele>
        <time>2020-08-02T07:36:56Z</time>
      </trkpt>
      <trkpt lat="47.2471" lon="-0.44406">
        <ele>57.6</ele>
        <time>2020-08-02T07:36:57Z</time>
      </trkpt>
      <trkpt lat="47.24712" lon="-0.44401">
        <ele>57.6</ele>
        <time>2020-08-02T07:36:58Z</time>
      </trkpt>
      <trkpt lat="47.24713" lon="-0.44397">
        <ele>57.6</ele>
        <time>2020-08-02T07:36:59Z</time>
      </trkpt>
      <trkpt lat="47.24715" lon="-0.44392">
        <ele>57.6</ele>
        <time>2020-08-02T07:37:00Z</time>
      </trkpt>
      <trkpt lat="47.24728" lon="-0.44358">
        <ele>57.4</ele>
        <time>2020-08-02T07:37:08Z</time>
      </trkpt>
      <trkpt lat="47.2473" lon="-0.44354">
        <ele>57.4</ele>
        <time>2020-08-02T07:37:09Z</time>
      </trkpt>
      <trkpt lat="47.24734" lon="-0.44342">
        <ele>57.4</ele>
        <time>2020-08-02T07:37:12Z</time>
      </trkpt>
      <trkpt lat="47.24738" lon="-0.4433">
        <ele>57</ele>
        <time>2020-08-02T07:37:15Z</time>
      </trkpt>
      <trkpt lat="47.2474" lon="-0.44325">
        <ele>57</ele>
        <time>2020-08-02T07:37:16Z</time>
      </trkpt>
      <trkpt lat="47.24741" lon="-0.44321">
        <ele>56.8</ele>
        <time>2020-08-02T07:37:17Z</time>
      </trkpt>
      <trkpt lat="47.24743" lon="-0.44318">
        <ele>56.8</ele>
        <time>2020-08-02T07:37:18Z</time>
      </trkpt>
      <trkpt lat="47.24744" lon="-0.44315">
        <ele>56.8</ele>
        <time>2020-08-02T07:37:19Z</time>
      </trkpt>
      <trkpt lat="47.24745" lon="-0.4431">
        <ele>56.8</ele>
        <time>2020-08-02T07:37:20Z</time>
      </trkpt>
      <trkpt lat="47.24747" lon="-0.44306">
        <ele>56.8</ele>
        <time>2020-08-02T07:37:21Z</time>
      </trkpt>
      <trkpt lat="47.24748" lon="-0.44302">
        <ele>56.8</ele>
        <time>2020-08-02T07:37:22Z</time>
      </trkpt>
      <trkpt lat="47.24754" lon="-0.4429">
        <ele>56.6</ele>
        <time>2020-08-02T07:37:25Z</time>
      </trkpt>
      <trkpt lat="47.24755" lon="-0.44286">
        <ele>56.6</ele>
        <time>2020-08-02T07:37:26Z</time>
      </trkpt>
      <trkpt lat="47.24759" lon="-0.44279">
        <ele>56</ele>
        <time>2020-08-02T07:37:28Z</time>
      </trkpt>
      <trkpt lat="47.24764" lon="-0.44266">
        <ele>55.8</ele>
        <time>2020-08-02T07:37:31Z</time>
      </trkpt>
      <trkpt lat="47.24766" lon="-0.44262">
        <ele>55.8</ele>
        <time>2020-08-02T07:37:32Z</time>
      </trkpt>
      <trkpt lat="47.24772" lon="-0.4425">
        <ele>55.8</ele>
        <time>2020-08-02T07:37:35Z</time>
      </trkpt>
      <trkpt lat="47.24773" lon="-0.44247">
        <ele>56</ele>
        <time>2020-08-02T07:37:36Z</time>
      </trkpt>
      <trkpt lat="47.24774" lon="-0.44244">
        <ele>56</ele>
        <time>2020-08-02T07:37:37Z</time>
      </trkpt>
      <trkpt lat="47.24776" lon="-0.4424">
        <ele>56</ele>
        <time>2020-08-02T07:37:38Z</time>
      </trkpt>
      <trkpt lat="47.24778" lon="-0.44236">
        <ele>56.2</ele>
        <time>2020-08-02T07:37:39Z</time>
      </trkpt>
      <trkpt lat="47.2478" lon="-0.44232">
        <ele>56.2</ele>
        <time>2020-08-02T07:37:40Z</time>
      </trkpt>
      <trkpt lat="47.24782" lon="-0.44229">
        <ele>56.2</ele>
        <time>2020-08-02T07:37:41Z</time>
      </trkpt>
      <trkpt lat="47.24783" lon="-0.44226">
        <ele>56.2</ele>
        <time>2020-08-02T07:37:42Z</time>
      </trkpt>
      <trkpt lat="47.24785" lon="-0.44222">
        <ele>56.2</ele>
        <time>2020-08-02T07:37:43Z</time>
      </trkpt>
      <trkpt lat="47.24787" lon="-0.44218">
        <ele>56.4</ele>
        <time>2020-08-02T07:37:44Z</time>
      </trkpt>
      <trkpt lat="47.24788" lon="-0.44214">
        <ele>56.4</ele>
        <time>2020-08-02T07:37:45Z</time>
      </trkpt>
      <trkpt lat="47.2479" lon="-0.44212">
        <ele>56.4</ele>
        <time>2020-08-02T07:37:46Z</time>
      </trkpt>
      <trkpt lat="47.24791" lon="-0.44208">
        <ele>56.4</ele>
        <time>2020-08-02T07:37:47Z</time>
      </trkpt>
      <trkpt lat="47.24793" lon="-0.44204">
        <ele>56.6</ele>
        <time>2020-08-02T07:37:48Z</time>
      </trkpt>
      <trkpt lat="47.24794" lon="-0.44201">
        <ele>56.6</ele>
        <time>2020-08-02T07:37:49Z</time>
      </trkpt>
      <trkpt lat="47.24795" lon="-0.44197">
        <ele>56.6</ele>
        <time>2020-08-02T07:37:50Z</time>
      </trkpt>
      <trkpt lat="47.24797" lon="-0.44193">
        <ele>56.6</ele>
        <time>2020-08-02T07:37:51Z</time>
      </trkpt>
      <trkpt lat="47.24799" lon="-0.44189">
        <ele>56.8</ele>
        <time>2020-08-02T07:37:52Z</time>
      </trkpt>
      <trkpt lat="47.24801" lon="-0.44185">
        <ele>56.8</ele>
        <time>2020-08-02T07:37:53Z</time>
      </trkpt>
      <trkpt lat="47.24803" lon="-0.44181">
        <ele>56.8</ele>
        <time>2020-08-02T07:37:54Z</time>
      </trkpt>
      <trkpt lat="47.24804" lon="-0.44178">
        <ele>57</ele>
        <time>2020-08-02T07:37:55Z</time>
      </trkpt>
      <trkpt lat="47.24805" lon="-0.44175">
        <ele>57</ele>
        <time>2020-08-02T07:37:56Z</time>
      </trkpt>
      <trkpt lat="47.24807" lon="-0.4417">
        <ele>57</ele>
        <time>2020-08-02T07:37:57Z</time>
      </trkpt>
      <trkpt lat="47.24808" lon="-0.44167">
        <ele>57</ele>
        <time>2020-08-02T07:37:58Z</time>
      </trkpt>
      <trkpt lat="47.24809" lon="-0.44163">
        <ele>57</ele>
        <time>2020-08-02T07:37:59Z</time>
      </trkpt>
      <trkpt lat="47.2481" lon="-0.44159">
        <ele>57.2</ele>
        <time>2020-08-02T07:38:00Z</time>
      </trkpt>
      <trkpt lat="47.24811" lon="-0.44155">
        <ele>57.2</ele>
        <time>2020-08-02T07:38:01Z</time>
      </trkpt>
      <trkpt lat="47.24811" lon="-0.44151">
        <ele>57.4</ele>
        <time>2020-08-02T07:38:02Z</time>
      </trkpt>
      <trkpt lat="47.24811" lon="-0.44147">
        <ele>57.4</ele>
        <time>2020-08-02T07:38:03Z</time>
      </trkpt>
      <trkpt lat="47.24811" lon="-0.44143">
        <ele>57.4</ele>
        <time>2020-08-02T07:38:04Z</time>
      </trkpt>
      <trkpt lat="47.24811" lon="-0.44139">
        <ele>57.4</ele>
        <time>2020-08-02T07:38:05Z</time>
      </trkpt>
      <trkpt lat="47.24811" lon="-0.44133">
        <ele>57.6</ele>
        <time>2020-08-02T07:38:06Z</time>
      </trkpt>
      <trkpt lat="47.24812" lon="-0.44129">
        <ele>57.6</ele>
        <time>2020-08-02T07:38:07Z</time>
      </trkpt>
      <trkpt lat="47.24812" lon="-0.44125">
        <ele>57.6</ele>
        <time>2020-08-02T07:38:08Z</time>
      </trkpt>
      <trkpt lat="47.24812" lon="-0.44122">
        <ele>58</ele>
        <time>2020-08-02T07:38:09Z</time>
      </trkpt>
      <trkpt lat="47.24812" lon="-0.44118">
        <ele>57.8</ele>
        <time>2020-08-02T07:38:10Z</time>
      </trkpt>
      <trkpt lat="47.24812" lon="-0.44114">
        <ele>58</ele>
        <time>2020-08-02T07:38:11Z</time>
      </trkpt>
      <trkpt lat="47.24812" lon="-0.44111">
        <ele>58</ele>
        <time>2020-08-02T07:38:12Z</time>
      </trkpt>
      <trkpt lat="47.24812" lon="-0.44108">
        <ele>58.2</ele>
        <time>2020-08-02T07:38:13Z</time>
      </trkpt>
      <trkpt lat="47.24812" lon="-0.44105">
        <ele>58.4</ele>
        <time>2020-08-02T07:38:14Z</time>
      </trkpt>
      <trkpt lat="47.24811" lon="-0.441">
        <ele>58.4</ele>
        <time>2020-08-02T07:38:15Z</time>
      </trkpt>
      <trkpt lat="47.24811" lon="-0.44096">
        <ele>58.4</ele>
        <time>2020-08-02T07:38:16Z</time>
      </trkpt>
      <trkpt lat="47.24811" lon="-0.44092">
        <ele>58.4</ele>
        <time>2020-08-02T07:38:17Z</time>
      </trkpt>
      <trkpt lat="47.24811" lon="-0.4409">
        <ele>58.6</ele>
        <time>2020-08-02T07:38:18Z</time>
      </trkpt>
      <trkpt lat="47.24812" lon="-0.44086">
        <ele>58.6</ele>
        <time>2020-08-02T07:38:19Z</time>
      </trkpt>
      <trkpt lat="47.24812" lon="-0.44083">
        <ele>58.6</ele>
        <time>2020-08-02T07:38:20Z</time>
      </trkpt>
      <trkpt lat="47.24812" lon="-0.4408">
        <ele>58.8</ele>
        <time>2020-08-02T07:38:21Z</time>
      </trkpt>
      <trkpt lat="47.24812" lon="-0.44076">
        <ele>58.8</ele>
        <time>2020-08-02T07:38:22Z</time>
      </trkpt>
      <trkpt lat="47.24812" lon="-0.44071">
        <ele>59</ele>
        <time>2020-08-02T07:38:23Z</time>
      </trkpt>
      <trkpt lat="47.24812" lon="-0.44066">
        <ele>59</ele>
        <time>2020-08-02T07:38:24Z</time>
      </trkpt>
      <trkpt lat="47.24812" lon="-0.44061">
        <ele>59.4</ele>
        <time>2020-08-02T07:38:25Z</time>
      </trkpt>
      <trkpt lat="47.24812" lon="-0.44057">
        <ele>59.6</ele>
        <time>2020-08-02T07:38:26Z</time>
      </trkpt>
      <trkpt lat="47.24813" lon="-0.44054">
        <ele>59.6</ele>
        <time>2020-08-02T07:38:27Z</time>
      </trkpt>
      <trkpt lat="47.24812" lon="-0.44051">
        <ele>59.8</ele>
        <time>2020-08-02T07:38:28Z</time>
      </trkpt>
      <trkpt lat="47.24812" lon="-0.44046">
        <ele>59.8</ele>
        <time>2020-08-02T07:38:29Z</time>
      </trkpt>
      <trkpt lat="47.24812" lon="-0.44041">
        <ele>60</ele>
        <time>2020-08-02T07:38:30Z</time>
      </trkpt>
      <trkpt lat="47.24812" lon="-0.44037">
        <ele>60</ele>
        <time>2020-08-02T07:38:31Z</time>
      </trkpt>
      <trkpt lat="47.24812" lon="-0.44033">
        <ele>60.2</ele>
        <time>2020-08-02T07:38:32Z</time>
      </trkpt>
      <trkpt lat="47.24812" lon="-0.4403">
        <ele>60.2</ele>
        <time>2020-08-02T07:38:33Z</time>
      </trkpt>
      <trkpt lat="47.24813" lon="-0.44024">
        <ele>60.4</ele>
        <time>2020-08-02T07:38:34Z</time>
      </trkpt>
      <trkpt lat="47.24813" lon="-0.44019">
        <ele>60.6</ele>
        <time>2020-08-02T07:38:35Z</time>
      </trkpt>
      <trkpt lat="47.24815" lon="-0.44014">
        <ele>60.6</ele>
        <time>2020-08-02T07:38:36Z</time>
      </trkpt>
      <trkpt lat="47.24816" lon="-0.44011">
        <ele>60.6</ele>
        <time>2020-08-02T07:38:37Z</time>
      </trkpt>
      <trkpt lat="47.24819" lon="-0.4401">
        <ele>60.8</ele>
        <time>2020-08-02T07:38:38Z</time>
      </trkpt>
      <trkpt lat="47.24821" lon="-0.4401">
        <ele>60.8</ele>
        <time>2020-08-02T07:38:39Z</time>
      </trkpt>
      <trkpt lat="47.24824" lon="-0.44009">
        <ele>60.8</ele>
        <time>2020-08-02T07:38:40Z</time>
      </trkpt>
      <trkpt lat="47.24826" lon="-0.44008">
        <ele>61</ele>
        <time>2020-08-02T07:38:41Z</time>
      </trkpt>
      <trkpt lat="47.24829" lon="-0.44007">
        <ele>61</ele>
        <time>2020-08-02T07:38:42Z</time>
      </trkpt>
      <trkpt lat="47.2484" lon="-0.44002">
        <ele>61</ele>
        <time>2020-08-02T07:38:46Z</time>
      </trkpt>
      <trkpt lat="47.24872" lon="-0.43988">
        <ele>60.6</ele>
        <time>2020-08-02T07:38:55Z</time>
      </trkpt>
      <trkpt lat="47.24896" lon="-0.43977">
        <ele>60.2</ele>
        <time>2020-08-02T07:39:01Z</time>
      </trkpt>
      <trkpt lat="47.24903" lon="-0.43974">
        <ele>60</ele>
        <time>2020-08-02T07:39:03Z</time>
      </trkpt>
      <trkpt lat="47.24907" lon="-0.43973">
        <ele>60</ele>
        <time>2020-08-02T07:39:04Z</time>
      </trkpt>
      <trkpt lat="47.24911" lon="-0.43971">
        <ele>60</ele>
        <time>2020-08-02T07:39:05Z</time>
      </trkpt>
      <trkpt lat="47.24927" lon="-0.43966">
        <ele>59.8</ele>
        <time>2020-08-02T07:39:09Z</time>
      </trkpt>
      <trkpt lat="47.24932" lon="-0.43964">
        <ele>59.8</ele>
        <time>2020-08-02T07:39:10Z</time>
      </trkpt>
      <trkpt lat="47.24935" lon="-0.43962">
        <ele>59.6</ele>
        <time>2020-08-02T07:39:11Z</time>
      </trkpt>
      <trkpt lat="47.24939" lon="-0.4396">
        <ele>59.6</ele>
        <time>2020-08-02T07:39:12Z</time>
      </trkpt>
      <trkpt lat="47.24943" lon="-0.43958">
        <ele>59.6</ele>
        <time>2020-08-02T07:39:13Z</time>
      </trkpt>
      <trkpt lat="47.24946" lon="-0.43956">
        <ele>59.4</ele>
        <time>2020-08-02T07:39:14Z</time>
      </trkpt>
      <trkpt lat="47.2495" lon="-0.43953">
        <ele>59.4</ele>
        <time>2020-08-02T07:39:15Z</time>
      </trkpt>
      <trkpt lat="47.24954" lon="-0.43951">
        <ele>59.2</ele>
        <time>2020-08-02T07:39:16Z</time>
      </trkpt>
      <trkpt lat="47.24956" lon="-0.43948">
        <ele>59.2</ele>
        <time>2020-08-02T07:39:17Z</time>
      </trkpt>
      <trkpt lat="47.24959" lon="-0.43943">
        <ele>59.2</ele>
        <time>2020-08-02T07:39:18Z</time>
      </trkpt>
      <trkpt lat="47.24959" lon="-0.43939">
        <ele>59.2</ele>
        <time>2020-08-02T07:39:19Z</time>
      </trkpt>
      <trkpt lat="47.24958" lon="-0.43934">
        <ele>59.2</ele>
        <time>2020-08-02T07:39:20Z</time>
      </trkpt>
      <trkpt lat="47.24955" lon="-0.43931">
        <ele>59.2</ele>
        <time>2020-08-02T07:39:21Z</time>
      </trkpt>
      <trkpt lat="47.24953" lon="-0.4393">
        <ele>59</ele>
        <time>2020-08-02T07:39:22Z</time>
      </trkpt>
      <trkpt lat="47.24949" lon="-0.43928">
        <ele>59</ele>
        <time>2020-08-02T07:39:23Z</time>
      </trkpt>
      <trkpt lat="47.24945" lon="-0.43925">
        <ele>59.2</ele>
        <time>2020-08-02T07:39:24Z</time>
      </trkpt>
      <trkpt lat="47.24941" lon="-0.43922">
        <ele>59.2</ele>
        <time>2020-08-02T07:39:25Z</time>
      </trkpt>
      <trkpt lat="47.24938" lon="-0.4392">
        <ele>59</ele>
        <time>2020-08-02T07:39:26Z</time>
      </trkpt>
      <trkpt lat="47.24935" lon="-0.43917">
        <ele>59</ele>
        <time>2020-08-02T07:39:27Z</time>
      </trkpt>
      <trkpt lat="47.2493" lon="-0.43914">
        <ele>59</ele>
        <time>2020-08-02T07:39:28Z</time>
      </trkpt>
      <trkpt lat="47.24927" lon="-0.43911">
        <ele>59</ele>
        <time>2020-08-02T07:39:29Z</time>
      </trkpt>
      <trkpt lat="47.24923" lon="-0.43908">
        <ele>59.2</ele>
        <time>2020-08-02T07:39:30Z</time>
      </trkpt>
      <trkpt lat="47.2489" lon="-0.43884">
        <ele>59.6</ele>
        <time>2020-08-02T07:39:39Z</time>
      </trkpt>
      <trkpt lat="47.2488" lon="-0.43876">
        <ele>60</ele>
        <time>2020-08-02T07:39:42Z</time>
      </trkpt>
      <trkpt lat="47.24876" lon="-0.43874">
        <ele>60</ele>
        <time>2020-08-02T07:39:43Z</time>
      </trkpt>
      <trkpt lat="47.24873" lon="-0.43871">
        <ele>60</ele>
        <time>2020-08-02T07:39:44Z</time>
      </trkpt>
      <trkpt lat="47.24869" lon="-0.43868">
        <ele>60.2</ele>
        <time>2020-08-02T07:39:45Z</time>
      </trkpt>
      <trkpt lat="47.24866" lon="-0.43866">
        <ele>60.2</ele>
        <time>2020-08-02T07:39:46Z</time>
      </trkpt>
      <trkpt lat="47.24862" lon="-0.43863">
        <ele>60.2</ele>
        <time>2020-08-02T07:39:47Z</time>
      </trkpt>
      <trkpt lat="47.24858" lon="-0.4386">
        <ele>60.4</ele>
        <time>2020-08-02T07:39:48Z</time>
      </trkpt>
      <trkpt lat="47.24855" lon="-0.43857">
        <ele>60.6</ele>
        <time>2020-08-02T07:39:49Z</time>
      </trkpt>
      <trkpt lat="47.24851" lon="-0.43854">
        <ele>60.6</ele>
        <time>2020-08-02T07:39:50Z</time>
      </trkpt>
      <trkpt lat="47.24843" lon="-0.43848">
        <ele>60.8</ele>
        <time>2020-08-02T07:39:52Z</time>
      </trkpt>
      <trkpt lat="47.24837" lon="-0.43843">
        <ele>60.8</ele>
        <time>2020-08-02T07:39:54Z</time>
      </trkpt>
      <trkpt lat="47.24833" lon="-0.4384">
        <ele>60.8</ele>
        <time>2020-08-02T07:39:55Z</time>
      </trkpt>
      <trkpt lat="47.24802" lon="-0.43815">
        <ele>61.4</ele>
        <time>2020-08-02T07:40:03Z</time>
      </trkpt>
      <trkpt lat="47.24787" lon="-0.43803">
        <ele>62</ele>
        <time>2020-08-02T07:40:07Z</time>
      </trkpt>
      <trkpt lat="47.24783" lon="-0.438">
        <ele>62</ele>
        <time>2020-08-02T07:40:08Z</time>
      </trkpt>
      <trkpt lat="47.24779" lon="-0.43797">
        <ele>62.2</ele>
        <time>2020-08-02T07:40:09Z</time>
      </trkpt>
      <trkpt lat="47.24775" lon="-0.43794">
        <ele>62.2</ele>
        <time>2020-08-02T07:40:10Z</time>
      </trkpt>
      <trkpt lat="47.24771" lon="-0.43791">
        <ele>62.2</ele>
        <time>2020-08-02T07:40:11Z</time>
      </trkpt>
      <trkpt lat="47.24769" lon="-0.43788">
        <ele>62.4</ele>
        <time>2020-08-02T07:40:12Z</time>
      </trkpt>
      <trkpt lat="47.24764" lon="-0.43785">
        <ele>62.4</ele>
        <time>2020-08-02T07:40:13Z</time>
      </trkpt>
      <trkpt lat="47.24761" lon="-0.43782">
        <ele>62.6</ele>
        <time>2020-08-02T07:40:14Z</time>
      </trkpt>
      <trkpt lat="47.24757" lon="-0.43779">
        <ele>62.6</ele>
        <time>2020-08-02T07:40:15Z</time>
      </trkpt>
      <trkpt lat="47.24755" lon="-0.43775">
        <ele>62.8</ele>
        <time>2020-08-02T07:40:16Z</time>
      </trkpt>
      <trkpt lat="47.24753" lon="-0.43771">
        <ele>62.8</ele>
        <time>2020-08-02T07:40:17Z</time>
      </trkpt>
      <trkpt lat="47.24751" lon="-0.43764">
        <ele>63</ele>
        <time>2020-08-02T07:40:18Z</time>
      </trkpt>
      <trkpt lat="47.2475" lon="-0.43759">
        <ele>62.8</ele>
        <time>2020-08-02T07:40:19Z</time>
      </trkpt>
      <trkpt lat="47.24748" lon="-0.43753">
        <ele>63</ele>
        <time>2020-08-02T07:40:20Z</time>
      </trkpt>
      <trkpt lat="47.24748" lon="-0.43748">
        <ele>62.8</ele>
        <time>2020-08-02T07:40:21Z</time>
      </trkpt>
      <trkpt lat="47.24747" lon="-0.43741">
        <ele>63</ele>
        <time>2020-08-02T07:40:22Z</time>
      </trkpt>
      <trkpt lat="47.24746" lon="-0.43736">
        <ele>63</ele>
        <time>2020-08-02T07:40:23Z</time>
      </trkpt>
      <trkpt lat="47.24745" lon="-0.4373">
        <ele>63</ele>
        <time>2020-08-02T07:40:24Z</time>
      </trkpt>
      <trkpt lat="47.24744" lon="-0.43725">
        <ele>63</ele>
        <time>2020-08-02T07:40:25Z</time>
      </trkpt>
      <trkpt lat="47.24744" lon="-0.43719">
        <ele>63.2</ele>
        <time>2020-08-02T07:40:26Z</time>
      </trkpt>
      <trkpt lat="47.24735" lon="-0.43658">
        <ele>63.8</ele>
        <time>2020-08-02T07:40:36Z</time>
      </trkpt>
      <trkpt lat="47.24733" lon="-0.43645">
        <ele>63.8</ele>
        <time>2020-08-02T07:40:38Z</time>
      </trkpt>
      <trkpt lat="47.2473" lon="-0.43602">
        <ele>64.4</ele>
        <time>2020-08-02T07:40:45Z</time>
      </trkpt>
      <trkpt lat="47.2473" lon="-0.43589">
        <ele>64.4</ele>
        <time>2020-08-02T07:40:47Z</time>
      </trkpt>
      <trkpt lat="47.24729" lon="-0.43531">
        <ele>64.8</ele>
        <time>2020-08-02T07:40:56Z</time>
      </trkpt>
      <trkpt lat="47.24728" lon="-0.43466">
        <ele>64.8</ele>
        <time>2020-08-02T07:41:06Z</time>
      </trkpt>
      <trkpt lat="47.2473" lon="-0.43429">
        <ele>64.4</ele>
        <time>2020-08-02T07:41:10Z</time>
      </trkpt>
      <trkpt lat="47.24731" lon="-0.43422">
        <ele>64</ele>
        <time>2020-08-02T07:41:11Z</time>
      </trkpt>
      <trkpt lat="47.24737" lon="-0.43362">
        <ele>63.2</ele>
        <time>2020-08-02T07:41:17Z</time>
      </trkpt>
      <trkpt lat="47.24738" lon="-0.43353">
        <ele>63.2</ele>
        <time>2020-08-02T07:41:18Z</time>
      </trkpt>
      <trkpt lat="47.24739" lon="-0.43344">
        <ele>63.2</ele>
        <time>2020-08-02T07:41:19Z</time>
      </trkpt>
      <trkpt lat="47.2474" lon="-0.43335">
        <ele>63.2</ele>
        <time>2020-08-02T07:41:20Z</time>
      </trkpt>
      <trkpt lat="47.24741" lon="-0.43328">
        <ele>63.2</ele>
        <time>2020-08-02T07:41:21Z</time>
      </trkpt>
      <trkpt lat="47.24743" lon="-0.43319">
        <ele>63.2</ele>
        <time>2020-08-02T07:41:22Z</time>
      </trkpt>
      <trkpt lat="47.24744" lon="-0.43311">
        <ele>63.2</ele>
        <time>2020-08-02T07:41:23Z</time>
      </trkpt>
      <trkpt lat="47.24745" lon="-0.43303">
        <ele>63.4</ele>
        <time>2020-08-02T07:41:24Z</time>
      </trkpt>
      <trkpt lat="47.24745" lon="-0.43298">
        <ele>63.4</ele>
        <time>2020-08-02T07:41:25Z</time>
      </trkpt>
      <trkpt lat="47.24746" lon="-0.43289">
        <ele>63.6</ele>
        <time>2020-08-02T07:41:26Z</time>
      </trkpt>
      <trkpt lat="47.24747" lon="-0.43282">
        <ele>63.8</ele>
        <time>2020-08-02T07:41:27Z</time>
      </trkpt>
      <trkpt lat="47.24748" lon="-0.43276">
        <ele>64</ele>
        <time>2020-08-02T07:41:28Z</time>
      </trkpt>
      <trkpt lat="47.24749" lon="-0.43269">
        <ele>64.2</ele>
        <time>2020-08-02T07:41:29Z</time>
      </trkpt>
      <trkpt lat="47.2475" lon="-0.43263">
        <ele>64.4</ele>
        <time>2020-08-02T07:41:30Z</time>
      </trkpt>
      <trkpt lat="47.24751" lon="-0.43255">
        <ele>64.6</ele>
        <time>2020-08-02T07:41:31Z</time>
      </trkpt>
      <trkpt lat="47.24753" lon="-0.43248">
        <ele>64.6</ele>
        <time>2020-08-02T07:41:32Z</time>
      </trkpt>
      <trkpt lat="47.24754" lon="-0.43242">
        <ele>64.8</ele>
        <time>2020-08-02T07:41:33Z</time>
      </trkpt>
      <trkpt lat="47.24755" lon="-0.43237">
        <ele>65</ele>
        <time>2020-08-02T07:41:34Z</time>
      </trkpt>
      <trkpt lat="47.24757" lon="-0.43231">
        <ele>65.6</ele>
        <time>2020-08-02T07:41:35Z</time>
      </trkpt>
      <trkpt lat="47.24757" lon="-0.43227">
        <ele>66</ele>
        <time>2020-08-02T07:41:36Z</time>
      </trkpt>
      <trkpt lat="47.24757" lon="-0.43223">
        <ele>66.4</ele>
        <time>2020-08-02T07:41:37Z</time>
      </trkpt>
      <trkpt lat="47.24756" lon="-0.4322">
        <ele>66.8</ele>
        <time>2020-08-02T07:41:38Z</time>
      </trkpt>
      <trkpt lat="47.24756" lon="-0.43217">
        <ele>67</ele>
        <time>2020-08-02T07:41:39Z</time>
      </trkpt>
      <trkpt lat="47.24756" lon="-0.43213">
        <ele>67.2</ele>
        <time>2020-08-02T07:41:40Z</time>
      </trkpt>
      <trkpt lat="47.24756" lon="-0.43209">
        <ele>67.4</ele>
        <time>2020-08-02T07:41:41Z</time>
      </trkpt>
      <trkpt lat="47.24756" lon="-0.43205">
        <ele>67.4</ele>
        <time>2020-08-02T07:41:42Z</time>
      </trkpt>
      <trkpt lat="47.24756" lon="-0.43201">
        <ele>67.6</ele>
        <time>2020-08-02T07:41:43Z</time>
      </trkpt>
      <trkpt lat="47.24757" lon="-0.43195">
        <ele>67.6</ele>
        <time>2020-08-02T07:41:44Z</time>
      </trkpt>
      <trkpt lat="47.24757" lon="-0.4319">
        <ele>67.8</ele>
        <time>2020-08-02T07:41:45Z</time>
      </trkpt>
      <trkpt lat="47.24758" lon="-0.43184">
        <ele>68</ele>
        <time>2020-08-02T07:41:46Z</time>
      </trkpt>
      <trkpt lat="47.24758" lon="-0.43178">
        <ele>68.2</ele>
        <time>2020-08-02T07:41:47Z</time>
      </trkpt>
      <trkpt lat="47.24759" lon="-0.43172">
        <ele>68.2</ele>
        <time>2020-08-02T07:41:48Z</time>
      </trkpt>
      <trkpt lat="47.24759" lon="-0.43166">
        <ele>68.4</ele>
        <time>2020-08-02T07:41:49Z</time>
      </trkpt>
      <trkpt lat="47.2476" lon="-0.4316">
        <ele>68.6</ele>
        <time>2020-08-02T07:41:50Z</time>
      </trkpt>
      <trkpt lat="47.24761" lon="-0.43154">
        <ele>68.6</ele>
        <time>2020-08-02T07:41:51Z</time>
      </trkpt>
      <trkpt lat="47.24761" lon="-0.43149">
        <ele>68.8</ele>
        <time>2020-08-02T07:41:52Z</time>
      </trkpt>
      <trkpt lat="47.24761" lon="-0.43141">
        <ele>68.8</ele>
        <time>2020-08-02T07:41:53Z</time>
      </trkpt>
      <trkpt lat="47.24762" lon="-0.43135">
        <ele>69</ele>
        <time>2020-08-02T07:41:54Z</time>
      </trkpt>
      <trkpt lat="47.24762" lon="-0.43128">
        <ele>69</ele>
        <time>2020-08-02T07:41:55Z</time>
      </trkpt>
      <trkpt lat="47.24762" lon="-0.43123">
        <ele>69</ele>
        <time>2020-08-02T07:41:56Z</time>
      </trkpt>
      <trkpt lat="47.24763" lon="-0.43117">
        <ele>69.2</ele>
        <time>2020-08-02T07:41:57Z</time>
      </trkpt>
      <trkpt lat="47.24764" lon="-0.43109">
        <ele>69.2</ele>
        <time>2020-08-02T07:41:58Z</time>
      </trkpt>
      <trkpt lat="47.24765" lon="-0.43093">
        <ele>69.4</ele>
        <time>2020-08-02T07:42:01Z</time>
      </trkpt>
      <trkpt lat="47.24765" lon="-0.43086">
        <ele>69.6</ele>
        <time>2020-08-02T07:42:02Z</time>
      </trkpt>
      <trkpt lat="47.24766" lon="-0.43081">
        <ele>69.8</ele>
        <time>2020-08-02T07:42:03Z</time>
      </trkpt>
      <trkpt lat="47.24766" lon="-0.43075">
        <ele>69.8</ele>
        <time>2020-08-02T07:42:04Z</time>
      </trkpt>
      <trkpt lat="47.24766" lon="-0.4307">
        <ele>69.8</ele>
        <time>2020-08-02T07:42:05Z</time>
      </trkpt>
      <trkpt lat="47.24767" lon="-0.43065">
        <ele>69.8</ele>
        <time>2020-08-02T07:42:06Z</time>
      </trkpt>
      <trkpt lat="47.24767" lon="-0.43059">
        <ele>70</ele>
        <time>2020-08-02T07:42:07Z</time>
      </trkpt>
      <trkpt lat="47.24768" lon="-0.43054">
        <ele>70</ele>
        <time>2020-08-02T07:42:08Z</time>
      </trkpt>
      <trkpt lat="47.24768" lon="-0.43049">
        <ele>70</ele>
        <time>2020-08-02T07:42:09Z</time>
      </trkpt>
      <trkpt lat="47.24769" lon="-0.43045">
        <ele>70</ele>
        <time>2020-08-02T07:42:10Z</time>
      </trkpt>
      <trkpt lat="47.24769" lon="-0.43039">
        <ele>70</ele>
        <time>2020-08-02T07:42:11Z</time>
      </trkpt>
      <trkpt lat="47.2477" lon="-0.43033">
        <ele>70.2</ele>
        <time>2020-08-02T07:42:12Z</time>
      </trkpt>
      <trkpt lat="47.2477" lon="-0.43028">
        <ele>70.2</ele>
        <time>2020-08-02T07:42:13Z</time>
      </trkpt>
      <trkpt lat="47.24771" lon="-0.43023">
        <ele>70.4</ele>
        <time>2020-08-02T07:42:14Z</time>
      </trkpt>
      <trkpt lat="47.24771" lon="-0.43019">
        <ele>70.4</ele>
        <time>2020-08-02T07:42:15Z</time>
      </trkpt>
      <trkpt lat="47.24771" lon="-0.43013">
        <ele>70.4</ele>
        <time>2020-08-02T07:42:16Z</time>
      </trkpt>
      <trkpt lat="47.24772" lon="-0.43007">
        <ele>70.4</ele>
        <time>2020-08-02T07:42:17Z</time>
      </trkpt>
      <trkpt lat="47.24773" lon="-0.42997">
        <ele>70.6</ele>
        <time>2020-08-02T07:42:19Z</time>
      </trkpt>
      <trkpt lat="47.24773" lon="-0.42991">
        <ele>70.6</ele>
        <time>2020-08-02T07:42:20Z</time>
      </trkpt>
      <trkpt lat="47.24774" lon="-0.42979">
        <ele>70.6</ele>
        <time>2020-08-02T07:42:22Z</time>
      </trkpt>
      <trkpt lat="47.24778" lon="-0.42934">
        <ele>71.2</ele>
        <time>2020-08-02T07:42:30Z</time>
      </trkpt>
      <trkpt lat="47.24779" lon="-0.42928">
        <ele>71.2</ele>
        <time>2020-08-02T07:42:31Z</time>
      </trkpt>
      <trkpt lat="47.24779" lon="-0.42923">
        <ele>71.4</ele>
        <time>2020-08-02T07:42:32Z</time>
      </trkpt>
      <trkpt lat="47.2478" lon="-0.42912">
        <ele>71.6</ele>
        <time>2020-08-02T07:42:34Z</time>
      </trkpt>
      <trkpt lat="47.2478" lon="-0.42906">
        <ele>71.6</ele>
        <time>2020-08-02T07:42:35Z</time>
      </trkpt>
      <trkpt lat="47.24779" lon="-0.42902">
        <ele>71.8</ele>
        <time>2020-08-02T07:42:36Z</time>
      </trkpt>
      <trkpt lat="47.24779" lon="-0.42898">
        <ele>71.8</ele>
        <time>2020-08-02T07:42:37Z</time>
      </trkpt>
      <trkpt lat="47.24777" lon="-0.42894">
        <ele>71.8</ele>
        <time>2020-08-02T07:42:38Z</time>
      </trkpt>
      <trkpt lat="47.24774" lon="-0.42892">
        <ele>71.8</ele>
        <time>2020-08-02T07:42:39Z</time>
      </trkpt>
      <trkpt lat="47.24771" lon="-0.42889">
        <ele>72</ele>
        <time>2020-08-02T07:42:40Z</time>
      </trkpt>
      <trkpt lat="47.24766" lon="-0.42886">
        <ele>72</ele>
        <time>2020-08-02T07:42:42Z</time>
      </trkpt>
      <trkpt lat="47.24761" lon="-0.42885">
        <ele>72</ele>
        <time>2020-08-02T07:42:43Z</time>
      </trkpt>
      <trkpt lat="47.24757" lon="-0.42884">
        <ele>72</ele>
        <time>2020-08-02T07:42:44Z</time>
      </trkpt>
      <trkpt lat="47.2475" lon="-0.42883">
        <ele>72</ele>
        <time>2020-08-02T07:42:46Z</time>
      </trkpt>
      <trkpt lat="47.24747" lon="-0.42883">
        <ele>71.8</ele>
        <time>2020-08-02T07:42:47Z</time>
      </trkpt>
      <trkpt lat="47.24743" lon="-0.42882">
        <ele>71.8</ele>
        <time>2020-08-02T07:42:48Z</time>
      </trkpt>
      <trkpt lat="47.24735" lon="-0.42879">
        <ele>71.4</ele>
        <time>2020-08-02T07:42:50Z</time>
      </trkpt>
      <trkpt lat="47.24732" lon="-0.42876">
        <ele>71.4</ele>
        <time>2020-08-02T07:42:51Z</time>
      </trkpt>
      <trkpt lat="47.24729" lon="-0.42872">
        <ele>71.2</ele>
        <time>2020-08-02T07:42:52Z</time>
      </trkpt>
      <trkpt lat="47.24728" lon="-0.42865">
        <ele>71.2</ele>
        <time>2020-08-02T07:42:53Z</time>
      </trkpt>
      <trkpt lat="47.24727" lon="-0.42859">
        <ele>71</ele>
        <time>2020-08-02T07:42:54Z</time>
      </trkpt>
      <trkpt lat="47.24727" lon="-0.42852">
        <ele>71</ele>
        <time>2020-08-02T07:42:55Z</time>
      </trkpt>
      <trkpt lat="47.24729" lon="-0.42835">
        <ele>71</ele>
        <time>2020-08-02T07:42:58Z</time>
      </trkpt>
      <trkpt lat="47.2473" lon="-0.42829">
        <ele>71</ele>
        <time>2020-08-02T07:42:59Z</time>
      </trkpt>
      <trkpt lat="47.24731" lon="-0.42825">
        <ele>71</ele>
        <time>2020-08-02T07:43:00Z</time>
      </trkpt>
      <trkpt lat="47.24732" lon="-0.42818">
        <ele>71</ele>
        <time>2020-08-02T07:43:01Z</time>
      </trkpt>
      <trkpt lat="47.24734" lon="-0.42806">
        <ele>71</ele>
        <time>2020-08-02T07:43:03Z</time>
      </trkpt>
      <trkpt lat="47.24735" lon="-0.428">
        <ele>71</ele>
        <time>2020-08-02T07:43:04Z</time>
      </trkpt>
      <trkpt lat="47.24735" lon="-0.42795">
        <ele>71</ele>
        <time>2020-08-02T07:43:05Z</time>
      </trkpt>
      <trkpt lat="47.24736" lon="-0.42787">
        <ele>71.2</ele>
        <time>2020-08-02T07:43:06Z</time>
      </trkpt>
      <trkpt lat="47.24737" lon="-0.42782">
        <ele>71.2</ele>
        <time>2020-08-02T07:43:07Z</time>
      </trkpt>
      <trkpt lat="47.24738" lon="-0.42776">
        <ele>71.2</ele>
        <time>2020-08-02T07:43:08Z</time>
      </trkpt>
      <trkpt lat="47.24738" lon="-0.42772">
        <ele>71.4</ele>
        <time>2020-08-02T07:43:09Z</time>
      </trkpt>
      <trkpt lat="47.24739" lon="-0.42767">
        <ele>71.4</ele>
        <time>2020-08-02T07:43:10Z</time>
      </trkpt>
      <trkpt lat="47.24739" lon="-0.42763">
        <ele>71.4</ele>
        <time>2020-08-02T07:43:11Z</time>
      </trkpt>
      <trkpt lat="47.2474" lon="-0.42759">
        <ele>71.4</ele>
        <time>2020-08-02T07:43:12Z</time>
      </trkpt>
      <trkpt lat="47.24741" lon="-0.42756">
        <ele>71.4</ele>
        <time>2020-08-02T07:43:13Z</time>
      </trkpt>
      <trkpt lat="47.24743" lon="-0.42753">
        <ele>71.4</ele>
        <time>2020-08-02T07:43:14Z</time>
      </trkpt>
      <trkpt lat="47.24746" lon="-0.42752">
        <ele>71.4</ele>
        <time>2020-08-02T07:43:15Z</time>
      </trkpt>
      <trkpt lat="47.24749" lon="-0.42753">
        <ele>71.4</ele>
        <time>2020-08-02T07:43:16Z</time>
      </trkpt>
      <trkpt lat="47.24753" lon="-0.42753">
        <ele>71.4</ele>
        <time>2020-08-02T07:43:17Z</time>
      </trkpt>
      <trkpt lat="47.24755" lon="-0.42754">
        <ele>71.4</ele>
        <time>2020-08-02T07:43:18Z</time>
      </trkpt>
      <trkpt lat="47.24759" lon="-0.42754">
        <ele>71.4</ele>
        <time>2020-08-02T07:43:19Z</time>
      </trkpt>
      <trkpt lat="47.24763" lon="-0.42755">
        <ele>71.4</ele>
        <time>2020-08-02T07:43:20Z</time>
      </trkpt>
      <trkpt lat="47.24766" lon="-0.42756">
        <ele>71.4</ele>
        <time>2020-08-02T07:43:21Z</time>
      </trkpt>
      <trkpt lat="47.24769" lon="-0.42756">
        <ele>71.4</ele>
        <time>2020-08-02T07:43:22Z</time>
      </trkpt>
      <trkpt lat="47.24778" lon="-0.42756">
        <ele>71.4</ele>
        <time>2020-08-02T07:43:24Z</time>
      </trkpt>
      <trkpt lat="47.24782" lon="-0.42757">
        <ele>71.6</ele>
        <time>2020-08-02T07:43:25Z</time>
      </trkpt>
      <trkpt lat="47.24786" lon="-0.42757">
        <ele>71.6</ele>
        <time>2020-08-02T07:43:26Z</time>
      </trkpt>
      <trkpt lat="47.24797" lon="-0.42759">
        <ele>72.2</ele>
        <time>2020-08-02T07:43:29Z</time>
      </trkpt>
      <trkpt lat="47.24805" lon="-0.4276">
        <ele>72.4</ele>
        <time>2020-08-02T07:43:31Z</time>
      </trkpt>
      <trkpt lat="47.24808" lon="-0.4276">
        <ele>72.8</ele>
        <time>2020-08-02T07:43:32Z</time>
      </trkpt>
      <trkpt lat="47.24812" lon="-0.4276">
        <ele>72.8</ele>
        <time>2020-08-02T07:43:33Z</time>
      </trkpt>
      <trkpt lat="47.24816" lon="-0.42761">
        <ele>73</ele>
        <time>2020-08-02T07:43:34Z</time>
      </trkpt>
      <trkpt lat="47.2482" lon="-0.42761">
        <ele>73</ele>
        <time>2020-08-02T07:43:35Z</time>
      </trkpt>
      <trkpt lat="47.24823" lon="-0.42762">
        <ele>73</ele>
        <time>2020-08-02T07:43:36Z</time>
      </trkpt>
      <trkpt lat="47.24827" lon="-0.42762">
        <ele>73.2</ele>
        <time>2020-08-02T07:43:37Z</time>
      </trkpt>
      <trkpt lat="47.24831" lon="-0.42763">
        <ele>73.2</ele>
        <time>2020-08-02T07:43:38Z</time>
      </trkpt>
      <trkpt lat="47.24835" lon="-0.42763">
        <ele>73.4</ele>
        <time>2020-08-02T07:43:39Z</time>
      </trkpt>
      <trkpt lat="47.24839" lon="-0.42764">
        <ele>73.6</ele>
        <time>2020-08-02T07:43:40Z</time>
      </trkpt>
      <trkpt lat="47.24841" lon="-0.42764">
        <ele>73.8</ele>
        <time>2020-08-02T07:43:41Z</time>
      </trkpt>
      <trkpt lat="47.24846" lon="-0.42764">
        <ele>73.8</ele>
        <time>2020-08-02T07:43:42Z</time>
      </trkpt>
      <trkpt lat="47.24849" lon="-0.42765">
        <ele>74</ele>
        <time>2020-08-02T07:43:43Z</time>
      </trkpt>
      <trkpt lat="47.24853" lon="-0.42765">
        <ele>74.2</ele>
        <time>2020-08-02T07:43:44Z</time>
      </trkpt>
      <trkpt lat="47.24855" lon="-0.42766">
        <ele>74.2</ele>
        <time>2020-08-02T07:43:45Z</time>
      </trkpt>
      <trkpt lat="47.24859" lon="-0.42767">
        <ele>74.4</ele>
        <time>2020-08-02T07:43:46Z</time>
      </trkpt>
      <trkpt lat="47.24863" lon="-0.42767">
        <ele>74.4</ele>
        <time>2020-08-02T07:43:47Z</time>
      </trkpt>
      <trkpt lat="47.24866" lon="-0.42767">
        <ele>74.6</ele>
        <time>2020-08-02T07:43:48Z</time>
      </trkpt>
      <trkpt lat="47.2487" lon="-0.42767">
        <ele>75</ele>
        <time>2020-08-02T07:43:49Z</time>
      </trkpt>
      <trkpt lat="47.24873" lon="-0.42768">
        <ele>75</ele>
        <time>2020-08-02T07:43:50Z</time>
      </trkpt>
      <trkpt lat="47.24876" lon="-0.42769">
        <ele>75.4</ele>
        <time>2020-08-02T07:43:51Z</time>
      </trkpt>
      <trkpt lat="47.2488" lon="-0.4277">
        <ele>75.6</ele>
        <time>2020-08-02T07:43:52Z</time>
      </trkpt>
      <trkpt lat="47.24883" lon="-0.42771">
        <ele>75.8</ele>
        <time>2020-08-02T07:43:53Z</time>
      </trkpt>
      <trkpt lat="47.24886" lon="-0.42771">
        <ele>76</ele>
        <time>2020-08-02T07:43:54Z</time>
      </trkpt>
      <trkpt lat="47.24889" lon="-0.42773">
        <ele>76</ele>
        <time>2020-08-02T07:43:55Z</time>
      </trkpt>
      <trkpt lat="47.24894" lon="-0.42775">
        <ele>76.2</ele>
        <time>2020-08-02T07:43:56Z</time>
      </trkpt>
      <trkpt lat="47.24896" lon="-0.42776">
        <ele>76.2</ele>
        <time>2020-08-02T07:43:57Z</time>
      </trkpt>
      <trkpt lat="47.24901" lon="-0.42779">
        <ele>76.2</ele>
        <time>2020-08-02T07:43:58Z</time>
      </trkpt>
      <trkpt lat="47.24903" lon="-0.4278">
        <ele>76.4</ele>
        <time>2020-08-02T07:43:59Z</time>
      </trkpt>
      <trkpt lat="47.24907" lon="-0.42781">
        <ele>76.4</ele>
        <time>2020-08-02T07:44:00Z</time>
      </trkpt>
      <trkpt lat="47.24912" lon="-0.42781">
        <ele>76.6</ele>
        <time>2020-08-02T07:44:01Z</time>
      </trkpt>
      <trkpt lat="47.24915" lon="-0.42782">
        <ele>76.6</ele>
        <time>2020-08-02T07:44:02Z</time>
      </trkpt>
      <trkpt lat="47.24918" lon="-0.42783">
        <ele>76.8</ele>
        <time>2020-08-02T07:44:03Z</time>
      </trkpt>
      <trkpt lat="47.24922" lon="-0.42783">
        <ele>76.8</ele>
        <time>2020-08-02T07:44:04Z</time>
      </trkpt>
      <trkpt lat="47.24945" lon="-0.42789">
        <ele>76.6</ele>
        <time>2020-08-02T07:44:10Z</time>
      </trkpt>
      <trkpt lat="47.24957" lon="-0.42791">
        <ele>76.4</ele>
        <time>2020-08-02T07:44:13Z</time>
      </trkpt>
      <trkpt lat="47.24978" lon="-0.42795">
        <ele>76.4</ele>
        <time>2020-08-02T07:44:18Z</time>
      </trkpt>
      <trkpt lat="47.24997" lon="-0.42796">
        <ele>76</ele>
        <time>2020-08-02T07:44:23Z</time>
      </trkpt>
      <trkpt lat="47.25002" lon="-0.42796">
        <ele>76</ele>
        <time>2020-08-02T07:44:24Z</time>
      </trkpt>
      <trkpt lat="47.25005" lon="-0.42796">
        <ele>76.2</ele>
        <time>2020-08-02T07:44:25Z</time>
      </trkpt>
      <trkpt lat="47.25009" lon="-0.42795">
        <ele>76.2</ele>
        <time>2020-08-02T07:44:26Z</time>
      </trkpt>
      <trkpt lat="47.25013" lon="-0.42796">
        <ele>76.4</ele>
        <time>2020-08-02T07:44:27Z</time>
      </trkpt>
      <trkpt lat="47.25017" lon="-0.42796">
        <ele>76.4</ele>
        <time>2020-08-02T07:44:28Z</time>
      </trkpt>
      <trkpt lat="47.25021" lon="-0.42795">
        <ele>76.2</ele>
        <time>2020-08-02T07:44:29Z</time>
      </trkpt>
      <trkpt lat="47.25026" lon="-0.42795">
        <ele>76.2</ele>
        <time>2020-08-02T07:44:30Z</time>
      </trkpt>
      <trkpt lat="47.2503" lon="-0.42794">
        <ele>76.2</ele>
        <time>2020-08-02T07:44:31Z</time>
      </trkpt>
      <trkpt lat="47.25033" lon="-0.42794">
        <ele>76.2</ele>
        <time>2020-08-02T07:44:32Z</time>
      </trkpt>
      <trkpt lat="47.25038" lon="-0.42793">
        <ele>76.2</ele>
        <time>2020-08-02T07:44:33Z</time>
      </trkpt>
      <trkpt lat="47.25042" lon="-0.42793">
        <ele>76.4</ele>
        <time>2020-08-02T07:44:34Z</time>
      </trkpt>
      <trkpt lat="47.25044" lon="-0.42792">
        <ele>76.4</ele>
        <time>2020-08-02T07:44:35Z</time>
      </trkpt>
      <trkpt lat="47.25061" lon="-0.42789">
        <ele>77</ele>
        <time>2020-08-02T07:44:39Z</time>
      </trkpt>
      <trkpt lat="47.25065" lon="-0.42788">
        <ele>77</ele>
        <time>2020-08-02T07:44:40Z</time>
      </trkpt>
      <trkpt lat="47.25072" lon="-0.42786">
        <ele>77.2</ele>
        <time>2020-08-02T07:44:42Z</time>
      </trkpt>
      <trkpt lat="47.25076" lon="-0.42785">
        <ele>77.2</ele>
        <time>2020-08-02T07:44:43Z</time>
      </trkpt>
      <trkpt lat="47.2508" lon="-0.42784">
        <ele>77.2</ele>
        <time>2020-08-02T07:44:44Z</time>
      </trkpt>
      <trkpt lat="47.25083" lon="-0.42784">
        <ele>77.2</ele>
        <time>2020-08-02T07:44:45Z</time>
      </trkpt>
      <trkpt lat="47.2509" lon="-0.42782">
        <ele>77.4</ele>
        <time>2020-08-02T07:44:47Z</time>
      </trkpt>
      <trkpt lat="47.25094" lon="-0.42781">
        <ele>77.4</ele>
        <time>2020-08-02T07:44:48Z</time>
      </trkpt>
      <trkpt lat="47.25098" lon="-0.4278">
        <ele>77.4</ele>
        <time>2020-08-02T07:44:49Z</time>
      </trkpt>
      <trkpt lat="47.25102" lon="-0.42779">
        <ele>77.4</ele>
        <time>2020-08-02T07:44:50Z</time>
      </trkpt>
      <trkpt lat="47.25106" lon="-0.42778">
        <ele>77.6</ele>
        <time>2020-08-02T07:44:51Z</time>
      </trkpt>
      <trkpt lat="47.2511" lon="-0.42777">
        <ele>77.6</ele>
        <time>2020-08-02T07:44:52Z</time>
      </trkpt>
      <trkpt lat="47.25121" lon="-0.42774">
        <ele>77.8</ele>
        <time>2020-08-02T07:44:55Z</time>
      </trkpt>
      <trkpt lat="47.2513" lon="-0.42773">
        <ele>77.8</ele>
        <time>2020-08-02T07:44:57Z</time>
      </trkpt>
      <trkpt lat="47.25133" lon="-0.42772">
        <ele>77.8</ele>
        <time>2020-08-02T07:44:58Z</time>
      </trkpt>
      <trkpt lat="47.25137" lon="-0.42772">
        <ele>78</ele>
        <time>2020-08-02T07:44:59Z</time>
      </trkpt>
      <trkpt lat="47.2514" lon="-0.42772">
        <ele>78</ele>
        <time>2020-08-02T07:45:00Z</time>
      </trkpt>
      <trkpt lat="47.25144" lon="-0.42772">
        <ele>78</ele>
        <time>2020-08-02T07:45:01Z</time>
      </trkpt>
      <trkpt lat="47.25148" lon="-0.42772">
        <ele>78</ele>
        <time>2020-08-02T07:45:02Z</time>
      </trkpt>
      <trkpt lat="47.25151" lon="-0.42772">
        <ele>78.2</ele>
        <time>2020-08-02T07:45:03Z</time>
      </trkpt>
      <trkpt lat="47.25154" lon="-0.42773">
        <ele>78.4</ele>
        <time>2020-08-02T07:45:04Z</time>
      </trkpt>
      <trkpt lat="47.25157" lon="-0.42774">
        <ele>78.4</ele>
        <time>2020-08-02T07:45:05Z</time>
      </trkpt>
      <trkpt lat="47.25161" lon="-0.42775">
        <ele>78.4</ele>
        <time>2020-08-02T07:45:06Z</time>
      </trkpt>
      <trkpt lat="47.25165" lon="-0.42776">
        <ele>78.6</ele>
        <time>2020-08-02T07:45:07Z</time>
      </trkpt>
      <trkpt lat="47.25169" lon="-0.42776">
        <ele>78.8</ele>
        <time>2020-08-02T07:45:08Z</time>
      </trkpt>
      <trkpt lat="47.25172" lon="-0.42778">
        <ele>78.8</ele>
        <time>2020-08-02T07:45:09Z</time>
      </trkpt>
      <trkpt lat="47.25175" lon="-0.42779">
        <ele>78.8</ele>
        <time>2020-08-02T07:45:10Z</time>
      </trkpt>
      <trkpt lat="47.2518" lon="-0.42781">
        <ele>79</ele>
        <time>2020-08-02T07:45:11Z</time>
      </trkpt>
      <trkpt lat="47.25195" lon="-0.42789">
        <ele>79.2</ele>
        <time>2020-08-02T07:45:15Z</time>
      </trkpt>
      <trkpt lat="47.25199" lon="-0.42791">
        <ele>79</ele>
        <time>2020-08-02T07:45:16Z</time>
      </trkpt>
      <trkpt lat="47.25213" lon="-0.42798">
        <ele>79.2</ele>
        <time>2020-08-02T07:45:20Z</time>
      </trkpt>
      <trkpt lat="47.25232" lon="-0.42811">
        <ele>78.8</ele>
        <time>2020-08-02T07:45:25Z</time>
      </trkpt>
      <trkpt lat="47.25236" lon="-0.42813">
        <ele>78.8</ele>
        <time>2020-08-02T07:45:26Z</time>
      </trkpt>
      <trkpt lat="47.25238" lon="-0.42815">
        <ele>78.8</ele>
        <time>2020-08-02T07:45:27Z</time>
      </trkpt>
      <trkpt lat="47.25246" lon="-0.42821">
        <ele>78.6</ele>
        <time>2020-08-02T07:45:29Z</time>
      </trkpt>
      <trkpt lat="47.25249" lon="-0.42823">
        <ele>78.6</ele>
        <time>2020-08-02T07:45:30Z</time>
      </trkpt>
      <trkpt lat="47.25253" lon="-0.42826">
        <ele>78.4</ele>
        <time>2020-08-02T07:45:31Z</time>
      </trkpt>
      <trkpt lat="47.25259" lon="-0.42831">
        <ele>78.4</ele>
        <time>2020-08-02T07:45:33Z</time>
      </trkpt>
      <trkpt lat="47.25262" lon="-0.42834">
        <ele>78.4</ele>
        <time>2020-08-02T07:45:34Z</time>
      </trkpt>
      <trkpt lat="47.25265" lon="-0.42837">
        <ele>78.4</ele>
        <time>2020-08-02T07:45:35Z</time>
      </trkpt>
      <trkpt lat="47.25269" lon="-0.4284">
        <ele>78.2</ele>
        <time>2020-08-02T07:45:36Z</time>
      </trkpt>
      <trkpt lat="47.25271" lon="-0.42842">
        <ele>78.2</ele>
        <time>2020-08-02T07:45:37Z</time>
      </trkpt>
      <trkpt lat="47.25275" lon="-0.42845">
        <ele>78.2</ele>
        <time>2020-08-02T07:45:38Z</time>
      </trkpt>
      <trkpt lat="47.25278" lon="-0.42848">
        <ele>78.2</ele>
        <time>2020-08-02T07:45:39Z</time>
      </trkpt>
      <trkpt lat="47.25281" lon="-0.4285">
        <ele>78</ele>
        <time>2020-08-02T07:45:40Z</time>
      </trkpt>
      <trkpt lat="47.25284" lon="-0.42853">
        <ele>78</ele>
        <time>2020-08-02T07:45:41Z</time>
      </trkpt>
      <trkpt lat="47.25288" lon="-0.42855">
        <ele>78</ele>
        <time>2020-08-02T07:45:42Z</time>
      </trkpt>
      <trkpt lat="47.25291" lon="-0.42858">
        <ele>78</ele>
        <time>2020-08-02T07:45:43Z</time>
      </trkpt>
      <trkpt lat="47.25295" lon="-0.4286">
        <ele>77.8</ele>
        <time>2020-08-02T07:45:44Z</time>
      </trkpt>
      <trkpt lat="47.25298" lon="-0.42862">
        <ele>77.8</ele>
        <time>2020-08-02T07:45:45Z</time>
      </trkpt>
      <trkpt lat="47.25301" lon="-0.42864">
        <ele>77.6</ele>
        <time>2020-08-02T07:45:46Z</time>
      </trkpt>
      <trkpt lat="47.25304" lon="-0.42866">
        <ele>77.4</ele>
        <time>2020-08-02T07:45:47Z</time>
      </trkpt>
      <trkpt lat="47.25308" lon="-0.42868">
        <ele>77.4</ele>
        <time>2020-08-02T07:45:48Z</time>
      </trkpt>
      <trkpt lat="47.25312" lon="-0.4287">
        <ele>77.4</ele>
        <time>2020-08-02T07:45:49Z</time>
      </trkpt>
      <trkpt lat="47.25315" lon="-0.42871">
        <ele>77.2</ele>
        <time>2020-08-02T07:45:50Z</time>
      </trkpt>
      <trkpt lat="47.25317" lon="-0.42872">
        <ele>77.2</ele>
        <time>2020-08-02T07:45:51Z</time>
      </trkpt>
      <trkpt lat="47.25321" lon="-0.42874">
        <ele>77.2</ele>
        <time>2020-08-02T07:45:52Z</time>
      </trkpt>
      <trkpt lat="47.25325" lon="-0.42876">
        <ele>77</ele>
        <time>2020-08-02T07:45:53Z</time>
      </trkpt>
      <trkpt lat="47.25328" lon="-0.42877">
        <ele>77</ele>
        <time>2020-08-02T07:45:54Z</time>
      </trkpt>
      <trkpt lat="47.25331" lon="-0.42879">
        <ele>77</ele>
        <time>2020-08-02T07:45:55Z</time>
      </trkpt>
      <trkpt lat="47.25334" lon="-0.4288">
        <ele>77</ele>
        <time>2020-08-02T07:45:56Z</time>
      </trkpt>
      <trkpt lat="47.25337" lon="-0.42882">
        <ele>77</ele>
        <time>2020-08-02T07:45:57Z</time>
      </trkpt>
      <trkpt lat="47.25341" lon="-0.42884">
        <ele>76.8</ele>
        <time>2020-08-02T07:45:58Z</time>
      </trkpt>
      <trkpt lat="47.25344" lon="-0.42886">
        <ele>76.8</ele>
        <time>2020-08-02T07:45:59Z</time>
      </trkpt>
      <trkpt lat="47.25347" lon="-0.42887">
        <ele>76.8</ele>
        <time>2020-08-02T07:46:00Z</time>
      </trkpt>
      <trkpt lat="47.2535" lon="-0.42888">
        <ele>76.8</ele>
        <time>2020-08-02T07:46:01Z</time>
      </trkpt>
      <trkpt lat="47.25353" lon="-0.42891">
        <ele>76.8</ele>
        <time>2020-08-02T07:46:02Z</time>
      </trkpt>
      <trkpt lat="47.25356" lon="-0.42895">
        <ele>76.8</ele>
        <time>2020-08-02T07:46:03Z</time>
      </trkpt>
      <trkpt lat="47.25371" lon="-0.42909">
        <ele>76.4</ele>
        <time>2020-08-02T07:46:07Z</time>
      </trkpt>
      <trkpt lat="47.25375" lon="-0.42913">
        <ele>76.4</ele>
        <time>2020-08-02T07:46:08Z</time>
      </trkpt>
      <trkpt lat="47.25378" lon="-0.42917">
        <ele>76.2</ele>
        <time>2020-08-02T07:46:09Z</time>
      </trkpt>
      <trkpt lat="47.25382" lon="-0.42921">
        <ele>76.2</ele>
        <time>2020-08-02T07:46:10Z</time>
      </trkpt>
      <trkpt lat="47.25394" lon="-0.42933">
        <ele>76</ele>
        <time>2020-08-02T07:46:13Z</time>
      </trkpt>
      <trkpt lat="47.25399" lon="-0.42937">
        <ele>75.6</ele>
        <time>2020-08-02T07:46:14Z</time>
      </trkpt>
      <trkpt lat="47.25406" lon="-0.42946">
        <ele>75.2</ele>
        <time>2020-08-02T07:46:16Z</time>
      </trkpt>
      <trkpt lat="47.2541" lon="-0.42951">
        <ele>75.2</ele>
        <time>2020-08-02T07:46:17Z</time>
      </trkpt>
      <trkpt lat="47.25416" lon="-0.42961">
        <ele>74.8</ele>
        <time>2020-08-02T07:46:19Z</time>
      </trkpt>
      <trkpt lat="47.2542" lon="-0.42966">
        <ele>74.8</ele>
        <time>2020-08-02T07:46:20Z</time>
      </trkpt>
      <trkpt lat="47.25433" lon="-0.42989">
        <ele>74.2</ele>
        <time>2020-08-02T07:46:24Z</time>
      </trkpt>
      <trkpt lat="47.25446" lon="-0.43009">
        <ele>73.8</ele>
        <time>2020-08-02T07:46:28Z</time>
      </trkpt>
      <trkpt lat="47.2545" lon="-0.43013">
        <ele>73.6</ele>
        <time>2020-08-02T07:46:29Z</time>
      </trkpt>
      <trkpt lat="47.25454" lon="-0.43016">
        <ele>73.6</ele>
        <time>2020-08-02T07:46:30Z</time>
      </trkpt>
      <trkpt lat="47.25458" lon="-0.43018">
        <ele>73</ele>
        <time>2020-08-02T07:46:31Z</time>
      </trkpt>
      <trkpt lat="47.25463" lon="-0.4302">
        <ele>73</ele>
        <time>2020-08-02T07:46:32Z</time>
      </trkpt>
      <trkpt lat="47.25467" lon="-0.43021">
        <ele>72.8</ele>
        <time>2020-08-02T07:46:33Z</time>
      </trkpt>
      <trkpt lat="47.25471" lon="-0.43023">
        <ele>72.8</ele>
        <time>2020-08-02T07:46:34Z</time>
      </trkpt>
      <trkpt lat="47.25476" lon="-0.43025">
        <ele>72.8</ele>
        <time>2020-08-02T07:46:35Z</time>
      </trkpt>
      <trkpt lat="47.2548" lon="-0.43027">
        <ele>72.6</ele>
        <time>2020-08-02T07:46:36Z</time>
      </trkpt>
      <trkpt lat="47.25484" lon="-0.43029">
        <ele>72.6</ele>
        <time>2020-08-02T07:46:37Z</time>
      </trkpt>
      <trkpt lat="47.25487" lon="-0.4303">
        <ele>72.4</ele>
        <time>2020-08-02T07:46:38Z</time>
      </trkpt>
      <trkpt lat="47.25491" lon="-0.43032">
        <ele>72.4</ele>
        <time>2020-08-02T07:46:39Z</time>
      </trkpt>
      <trkpt lat="47.25496" lon="-0.43034">
        <ele>72.2</ele>
        <time>2020-08-02T07:46:40Z</time>
      </trkpt>
      <trkpt lat="47.25501" lon="-0.43035">
        <ele>72.2</ele>
        <time>2020-08-02T07:46:41Z</time>
      </trkpt>
      <trkpt lat="47.25504" lon="-0.43037">
        <ele>72</ele>
        <time>2020-08-02T07:46:42Z</time>
      </trkpt>
      <trkpt lat="47.25509" lon="-0.43039">
        <ele>72</ele>
        <time>2020-08-02T07:46:43Z</time>
      </trkpt>
      <trkpt lat="47.25514" lon="-0.43041">
        <ele>71.8</ele>
        <time>2020-08-02T07:46:44Z</time>
      </trkpt>
      <trkpt lat="47.25519" lon="-0.43044">
        <ele>71.8</ele>
        <time>2020-08-02T07:46:45Z</time>
      </trkpt>
      <trkpt lat="47.25531" lon="-0.43049">
        <ele>71.4</ele>
        <time>2020-08-02T07:46:48Z</time>
      </trkpt>
      <trkpt lat="47.25554" lon="-0.43057">
        <ele>71</ele>
        <time>2020-08-02T07:46:53Z</time>
      </trkpt>
      <trkpt lat="47.25557" lon="-0.43058">
        <ele>71</ele>
        <time>2020-08-02T07:46:54Z</time>
      </trkpt>
      <trkpt lat="47.25563" lon="-0.43057">
        <ele>71</ele>
        <time>2020-08-02T07:46:55Z</time>
      </trkpt>
      <trkpt lat="47.25566" lon="-0.43056">
        <ele>70.8</ele>
        <time>2020-08-02T07:46:56Z</time>
      </trkpt>
      <trkpt lat="47.25571" lon="-0.43053">
        <ele>70.4</ele>
        <time>2020-08-02T07:46:57Z</time>
      </trkpt>
      <trkpt lat="47.25575" lon="-0.4305">
        <ele>70.2</ele>
        <time>2020-08-02T07:46:58Z</time>
      </trkpt>
      <trkpt lat="47.25579" lon="-0.43046">
        <ele>70.2</ele>
        <time>2020-08-02T07:46:59Z</time>
      </trkpt>
      <trkpt lat="47.25582" lon="-0.43041">
        <ele>70</ele>
        <time>2020-08-02T07:47:00Z</time>
      </trkpt>
      <trkpt lat="47.25585" lon="-0.43037">
        <ele>70</ele>
        <time>2020-08-02T07:47:01Z</time>
      </trkpt>
      <trkpt lat="47.25588" lon="-0.43031">
        <ele>69.8</ele>
        <time>2020-08-02T07:47:02Z</time>
      </trkpt>
      <trkpt lat="47.25589" lon="-0.43026">
        <ele>69.6</ele>
        <time>2020-08-02T07:47:03Z</time>
      </trkpt>
      <trkpt lat="47.25591" lon="-0.4302">
        <ele>69.4</ele>
        <time>2020-08-02T07:47:04Z</time>
      </trkpt>
      <trkpt lat="47.25592" lon="-0.43015">
        <ele>69.2</ele>
        <time>2020-08-02T07:47:05Z</time>
      </trkpt>
      <trkpt lat="47.25593" lon="-0.43008">
        <ele>69.2</ele>
        <time>2020-08-02T07:47:06Z</time>
      </trkpt>
      <trkpt lat="47.25594" lon="-0.43001">
        <ele>69</ele>
        <time>2020-08-02T07:47:07Z</time>
      </trkpt>
      <trkpt lat="47.25595" lon="-0.42995">
        <ele>69</ele>
        <time>2020-08-02T07:47:08Z</time>
      </trkpt>
      <trkpt lat="47.25596" lon="-0.42989">
        <ele>69</ele>
        <time>2020-08-02T07:47:09Z</time>
      </trkpt>
      <trkpt lat="47.25596" lon="-0.42984">
        <ele>69</ele>
        <time>2020-08-02T07:47:10Z</time>
      </trkpt>
      <trkpt lat="47.25597" lon="-0.42977">
        <ele>69</ele>
        <time>2020-08-02T07:47:11Z</time>
      </trkpt>
      <trkpt lat="47.25598" lon="-0.4297">
        <ele>69</ele>
        <time>2020-08-02T07:47:12Z</time>
      </trkpt>
      <trkpt lat="47.25599" lon="-0.42964">
        <ele>69</ele>
        <time>2020-08-02T07:47:13Z</time>
      </trkpt>
      <trkpt lat="47.25601" lon="-0.42952">
        <ele>69</ele>
        <time>2020-08-02T07:47:15Z</time>
      </trkpt>
      <trkpt lat="47.25603" lon="-0.42945">
        <ele>69</ele>
        <time>2020-08-02T07:47:16Z</time>
      </trkpt>
      <trkpt lat="47.25605" lon="-0.42939">
        <ele>69</ele>
        <time>2020-08-02T07:47:17Z</time>
      </trkpt>
      <trkpt lat="47.25613" lon="-0.42917">
        <ele>69.2</ele>
        <time>2020-08-02T07:47:21Z</time>
      </trkpt>
      <trkpt lat="47.25616" lon="-0.42906">
        <ele>69.4</ele>
        <time>2020-08-02T07:47:23Z</time>
      </trkpt>
      <trkpt lat="47.25618" lon="-0.42902">
        <ele>69.6</ele>
        <time>2020-08-02T07:47:24Z</time>
      </trkpt>
      <trkpt lat="47.25621" lon="-0.42896">
        <ele>69.6</ele>
        <time>2020-08-02T07:47:25Z</time>
      </trkpt>
      <trkpt lat="47.25623" lon="-0.42892">
        <ele>69.8</ele>
        <time>2020-08-02T07:47:26Z</time>
      </trkpt>
      <trkpt lat="47.25625" lon="-0.42887">
        <ele>69.8</ele>
        <time>2020-08-02T07:47:27Z</time>
      </trkpt>
      <trkpt lat="47.25627" lon="-0.42883">
        <ele>69.8</ele>
        <time>2020-08-02T07:47:28Z</time>
      </trkpt>
      <trkpt lat="47.25629" lon="-0.42878">
        <ele>69.8</ele>
        <time>2020-08-02T07:47:29Z</time>
      </trkpt>
      <trkpt lat="47.25632" lon="-0.42872">
        <ele>69.8</ele>
        <time>2020-08-02T07:47:30Z</time>
      </trkpt>
      <trkpt lat="47.25634" lon="-0.42867">
        <ele>69.8</ele>
        <time>2020-08-02T07:47:31Z</time>
      </trkpt>
      <trkpt lat="47.25636" lon="-0.42864">
        <ele>69.8</ele>
        <time>2020-08-02T07:47:32Z</time>
      </trkpt>
      <trkpt lat="47.25639" lon="-0.42859">
        <ele>69.8</ele>
        <time>2020-08-02T07:47:33Z</time>
      </trkpt>
      <trkpt lat="47.25642" lon="-0.42854">
        <ele>69.8</ele>
        <time>2020-08-02T07:47:34Z</time>
      </trkpt>
      <trkpt lat="47.25645" lon="-0.4285">
        <ele>69.8</ele>
        <time>2020-08-02T07:47:35Z</time>
      </trkpt>
      <trkpt lat="47.25647" lon="-0.42845">
        <ele>69.6</ele>
        <time>2020-08-02T07:47:36Z</time>
      </trkpt>
      <trkpt lat="47.25653" lon="-0.42837">
        <ele>69.6</ele>
        <time>2020-08-02T07:47:38Z</time>
      </trkpt>
      <trkpt lat="47.25657" lon="-0.42831">
        <ele>69.4</ele>
        <time>2020-08-02T07:47:39Z</time>
      </trkpt>
      <trkpt lat="47.25675" lon="-0.42805">
        <ele>69</ele>
        <time>2020-08-02T07:47:45Z</time>
      </trkpt>
      <trkpt lat="47.25683" lon="-0.42793">
        <ele>68.8</ele>
        <time>2020-08-02T07:47:48Z</time>
      </trkpt>
      <trkpt lat="47.25689" lon="-0.42784">
        <ele>68.8</ele>
        <time>2020-08-02T07:47:50Z</time>
      </trkpt>
      <trkpt lat="47.25692" lon="-0.42782">
        <ele>68.6</ele>
        <time>2020-08-02T07:47:51Z</time>
      </trkpt>
      <trkpt lat="47.25694" lon="-0.42777">
        <ele>68.6</ele>
        <time>2020-08-02T07:47:52Z</time>
      </trkpt>
      <trkpt lat="47.25697" lon="-0.42773">
        <ele>68.6</ele>
        <time>2020-08-02T07:47:53Z</time>
      </trkpt>
      <trkpt lat="47.257" lon="-0.42769">
        <ele>68.6</ele>
        <time>2020-08-02T07:47:54Z</time>
      </trkpt>
      <trkpt lat="47.25702" lon="-0.42766">
        <ele>68.6</ele>
        <time>2020-08-02T07:47:55Z</time>
      </trkpt>
      <trkpt lat="47.25705" lon="-0.42762">
        <ele>68.6</ele>
        <time>2020-08-02T07:47:56Z</time>
      </trkpt>
      <trkpt lat="47.25708" lon="-0.42757">
        <ele>68.6</ele>
        <time>2020-08-02T07:47:57Z</time>
      </trkpt>
      <trkpt lat="47.2571" lon="-0.42754">
        <ele>68.6</ele>
        <time>2020-08-02T07:47:58Z</time>
      </trkpt>
      <trkpt lat="47.25713" lon="-0.42749">
        <ele>68.6</ele>
        <time>2020-08-02T07:47:59Z</time>
      </trkpt>
      <trkpt lat="47.25715" lon="-0.42746">
        <ele>68.6</ele>
        <time>2020-08-02T07:48:00Z</time>
      </trkpt>
      <trkpt lat="47.25718" lon="-0.42741">
        <ele>68.6</ele>
        <time>2020-08-02T07:48:01Z</time>
      </trkpt>
      <trkpt lat="47.25721" lon="-0.42736">
        <ele>68.8</ele>
        <time>2020-08-02T07:48:02Z</time>
      </trkpt>
      <trkpt lat="47.25723" lon="-0.42732">
        <ele>68.8</ele>
        <time>2020-08-02T07:48:03Z</time>
      </trkpt>
      <trkpt lat="47.25725" lon="-0.42729">
        <ele>68.8</ele>
        <time>2020-08-02T07:48:04Z</time>
      </trkpt>
      <trkpt lat="47.25727" lon="-0.42725">
        <ele>68.8</ele>
        <time>2020-08-02T07:48:05Z</time>
      </trkpt>
      <trkpt lat="47.25729" lon="-0.42721">
        <ele>68.8</ele>
        <time>2020-08-02T07:48:06Z</time>
      </trkpt>
      <trkpt lat="47.25732" lon="-0.42717">
        <ele>68.8</ele>
        <time>2020-08-02T07:48:07Z</time>
      </trkpt>
      <trkpt lat="47.25748" lon="-0.42689">
        <ele>68</ele>
        <time>2020-08-02T07:48:13Z</time>
      </trkpt>
      <trkpt lat="47.2575" lon="-0.42686">
        <ele>67.8</ele>
        <time>2020-08-02T07:48:14Z</time>
      </trkpt>
      <trkpt lat="47.25758" lon="-0.42671">
        <ele>67.2</ele>
        <time>2020-08-02T07:48:17Z</time>
      </trkpt>
      <trkpt lat="47.25764" lon="-0.4266">
        <ele>66.8</ele>
        <time>2020-08-02T07:48:19Z</time>
      </trkpt>
      <trkpt lat="47.25767" lon="-0.42655">
        <ele>66.8</ele>
        <time>2020-08-02T07:48:20Z</time>
      </trkpt>
      <trkpt lat="47.25776" lon="-0.42638">
        <ele>66.2</ele>
        <time>2020-08-02T07:48:23Z</time>
      </trkpt>
      <trkpt lat="47.25779" lon="-0.42633">
        <ele>66</ele>
        <time>2020-08-02T07:48:24Z</time>
      </trkpt>
      <trkpt lat="47.25787" lon="-0.42619">
        <ele>65.8</ele>
        <time>2020-08-02T07:48:26Z</time>
      </trkpt>
      <trkpt lat="47.25791" lon="-0.42613">
        <ele>65.6</ele>
        <time>2020-08-02T07:48:27Z</time>
      </trkpt>
      <trkpt lat="47.25795" lon="-0.42604">
        <ele>65.2</ele>
        <time>2020-08-02T07:48:28Z</time>
      </trkpt>
      <trkpt lat="47.25799" lon="-0.42595">
        <ele>65</ele>
        <time>2020-08-02T07:48:29Z</time>
      </trkpt>
      <trkpt lat="47.25804" lon="-0.42584">
        <ele>64.6</ele>
        <time>2020-08-02T07:48:30Z</time>
      </trkpt>
      <trkpt lat="47.25808" lon="-0.42577">
        <ele>64.4</ele>
        <time>2020-08-02T07:48:31Z</time>
      </trkpt>
      <trkpt lat="47.25814" lon="-0.42566">
        <ele>64.2</ele>
        <time>2020-08-02T07:48:32Z</time>
      </trkpt>
      <trkpt lat="47.25827" lon="-0.42543">
        <ele>64.2</ele>
        <time>2020-08-02T07:48:35Z</time>
      </trkpt>
      <trkpt lat="47.25831" lon="-0.42537">
        <ele>64.2</ele>
        <time>2020-08-02T07:48:36Z</time>
      </trkpt>
      <trkpt lat="47.25834" lon="-0.42531">
        <ele>64.2</ele>
        <time>2020-08-02T07:48:37Z</time>
      </trkpt>
      <trkpt lat="47.25838" lon="-0.42526">
        <ele>64.8</ele>
        <time>2020-08-02T07:48:38Z</time>
      </trkpt>
      <trkpt lat="47.25842" lon="-0.42521">
        <ele>65</ele>
        <time>2020-08-02T07:48:39Z</time>
      </trkpt>
      <trkpt lat="47.25844" lon="-0.42518">
        <ele>65.8</ele>
        <time>2020-08-02T07:48:40Z</time>
      </trkpt>
      <trkpt lat="47.25847" lon="-0.42514">
        <ele>66.6</ele>
        <time>2020-08-02T07:48:41Z</time>
      </trkpt>
      <trkpt lat="47.25849" lon="-0.42511">
        <ele>66.8</ele>
        <time>2020-08-02T07:48:42Z</time>
      </trkpt>
      <trkpt lat="47.25852" lon="-0.42508">
        <ele>67.4</ele>
        <time>2020-08-02T07:48:43Z</time>
      </trkpt>
      <trkpt lat="47.25855" lon="-0.42503">
        <ele>67.8</ele>
        <time>2020-08-02T07:48:44Z</time>
      </trkpt>
      <trkpt lat="47.25857" lon="-0.42501">
        <ele>68.4</ele>
        <time>2020-08-02T07:48:45Z</time>
      </trkpt>
      <trkpt lat="47.25859" lon="-0.42497">
        <ele>68.6</ele>
        <time>2020-08-02T07:48:46Z</time>
      </trkpt>
      <trkpt lat="47.25862" lon="-0.42494">
        <ele>69</ele>
        <time>2020-08-02T07:48:47Z</time>
      </trkpt>
      <trkpt lat="47.25865" lon="-0.4249">
        <ele>69.4</ele>
        <time>2020-08-02T07:48:48Z</time>
      </trkpt>
      <trkpt lat="47.25868" lon="-0.42486">
        <ele>69.6</ele>
        <time>2020-08-02T07:48:49Z</time>
      </trkpt>
      <trkpt lat="47.25871" lon="-0.42482">
        <ele>70</ele>
        <time>2020-08-02T07:48:50Z</time>
      </trkpt>
      <trkpt lat="47.25875" lon="-0.42477">
        <ele>70</ele>
        <time>2020-08-02T07:48:51Z</time>
      </trkpt>
      <trkpt lat="47.25877" lon="-0.42473">
        <ele>70.2</ele>
        <time>2020-08-02T07:48:52Z</time>
      </trkpt>
      <trkpt lat="47.2588" lon="-0.42469">
        <ele>70.6</ele>
        <time>2020-08-02T07:48:53Z</time>
      </trkpt>
      <trkpt lat="47.25883" lon="-0.42465">
        <ele>70.6</ele>
        <time>2020-08-02T07:48:54Z</time>
      </trkpt>
      <trkpt lat="47.25887" lon="-0.4246">
        <ele>70.8</ele>
        <time>2020-08-02T07:48:55Z</time>
      </trkpt>
      <trkpt lat="47.25889" lon="-0.42457">
        <ele>71</ele>
        <time>2020-08-02T07:48:56Z</time>
      </trkpt>
      <trkpt lat="47.25892" lon="-0.42454">
        <ele>71.2</ele>
        <time>2020-08-02T07:48:57Z</time>
      </trkpt>
      <trkpt lat="47.25895" lon="-0.4245">
        <ele>71.2</ele>
        <time>2020-08-02T07:48:58Z</time>
      </trkpt>
      <trkpt lat="47.25897" lon="-0.42447">
        <ele>71.4</ele>
        <time>2020-08-02T07:48:59Z</time>
      </trkpt>
      <trkpt lat="47.259" lon="-0.42444">
        <ele>71.8</ele>
        <time>2020-08-02T07:49:00Z</time>
      </trkpt>
      <trkpt lat="47.25902" lon="-0.4244">
        <ele>72</ele>
        <time>2020-08-02T07:49:01Z</time>
      </trkpt>
      <trkpt lat="47.25905" lon="-0.42437">
        <ele>72.2</ele>
        <time>2020-08-02T07:49:02Z</time>
      </trkpt>
      <trkpt lat="47.25908" lon="-0.42433">
        <ele>72.2</ele>
        <time>2020-08-02T07:49:03Z</time>
      </trkpt>
      <trkpt lat="47.2591" lon="-0.42431">
        <ele>72.2</ele>
        <time>2020-08-02T07:49:04Z</time>
      </trkpt>
      <trkpt lat="47.25913" lon="-0.42428">
        <ele>72.4</ele>
        <time>2020-08-02T07:49:05Z</time>
      </trkpt>
      <trkpt lat="47.25915" lon="-0.42425">
        <ele>72.4</ele>
        <time>2020-08-02T07:49:06Z</time>
      </trkpt>
      <trkpt lat="47.25918" lon="-0.42421">
        <ele>72.4</ele>
        <time>2020-08-02T07:49:07Z</time>
      </trkpt>
      <trkpt lat="47.25921" lon="-0.42418">
        <ele>72.4</ele>
        <time>2020-08-02T07:49:08Z</time>
      </trkpt>
      <trkpt lat="47.25923" lon="-0.42415">
        <ele>72.6</ele>
        <time>2020-08-02T07:49:09Z</time>
      </trkpt>
      <trkpt lat="47.25926" lon="-0.42413">
        <ele>72.6</ele>
        <time>2020-08-02T07:49:10Z</time>
      </trkpt>
      <trkpt lat="47.25929" lon="-0.42409">
        <ele>72.6</ele>
        <time>2020-08-02T07:49:11Z</time>
      </trkpt>
      <trkpt lat="47.25932" lon="-0.42406">
        <ele>72.6</ele>
        <time>2020-08-02T07:49:12Z</time>
      </trkpt>
      <trkpt lat="47.25935" lon="-0.42403">
        <ele>72.6</ele>
        <time>2020-08-02T07:49:13Z</time>
      </trkpt>
      <trkpt lat="47.2594" lon="-0.42399">
        <ele>72.6</ele>
        <time>2020-08-02T07:49:14Z</time>
      </trkpt>
      <trkpt lat="47.25945" lon="-0.42392">
        <ele>72.6</ele>
        <time>2020-08-02T07:49:16Z</time>
      </trkpt>
      <trkpt lat="47.2595" lon="-0.42385">
        <ele>72.6</ele>
        <time>2020-08-02T07:49:18Z</time>
      </trkpt>
      <trkpt lat="47.25953" lon="-0.42381">
        <ele>72.6</ele>
        <time>2020-08-02T07:49:19Z</time>
      </trkpt>
      <trkpt lat="47.25956" lon="-0.42378">
        <ele>72.6</ele>
        <time>2020-08-02T07:49:20Z</time>
      </trkpt>
      <trkpt lat="47.25958" lon="-0.42375">
        <ele>72.6</ele>
        <time>2020-08-02T07:49:21Z</time>
      </trkpt>
      <trkpt lat="47.25961" lon="-0.42369">
        <ele>72.6</ele>
        <time>2020-08-02T07:49:22Z</time>
      </trkpt>
      <trkpt lat="47.25967" lon="-0.42364">
        <ele>72.6</ele>
        <time>2020-08-02T07:49:23Z</time>
      </trkpt>
      <trkpt lat="47.2597" lon="-0.4236">
        <ele>72.4</ele>
        <time>2020-08-02T07:49:24Z</time>
      </trkpt>
      <trkpt lat="47.25973" lon="-0.42355">
        <ele>72.4</ele>
        <time>2020-08-02T07:49:25Z</time>
      </trkpt>
      <trkpt lat="47.25977" lon="-0.4235">
        <ele>72.4</ele>
        <time>2020-08-02T07:49:26Z</time>
      </trkpt>
      <trkpt lat="47.25984" lon="-0.42338">
        <ele>72.2</ele>
        <time>2020-08-02T07:49:28Z</time>
      </trkpt>
      <trkpt lat="47.25988" lon="-0.42333">
        <ele>72</ele>
        <time>2020-08-02T07:49:29Z</time>
      </trkpt>
      <trkpt lat="47.25996" lon="-0.42322">
        <ele>71.6</ele>
        <time>2020-08-02T07:49:31Z</time>
      </trkpt>
      <trkpt lat="47.25999" lon="-0.42316">
        <ele>71.4</ele>
        <time>2020-08-02T07:49:32Z</time>
      </trkpt>
      <trkpt lat="47.26004" lon="-0.42311">
        <ele>71.2</ele>
        <time>2020-08-02T07:49:33Z</time>
      </trkpt>
      <trkpt lat="47.26009" lon="-0.42302">
        <ele>71</ele>
        <time>2020-08-02T07:49:34Z</time>
      </trkpt>
      <trkpt lat="47.26016" lon="-0.42295">
        <ele>70.8</ele>
        <time>2020-08-02T07:49:35Z</time>
      </trkpt>
      <trkpt lat="47.2602" lon="-0.42289">
        <ele>70.4</ele>
        <time>2020-08-02T07:49:36Z</time>
      </trkpt>
      <trkpt lat="47.2603" lon="-0.42274">
        <ele>69.8</ele>
        <time>2020-08-02T07:49:38Z</time>
      </trkpt>
      <trkpt lat="47.26036" lon="-0.42268">
        <ele>69.6</ele>
        <time>2020-08-02T07:49:39Z</time>
      </trkpt>
      <trkpt lat="47.26043" lon="-0.42261">
        <ele>69.2</ele>
        <time>2020-08-02T07:49:40Z</time>
      </trkpt>
      <trkpt lat="47.26055" lon="-0.42247">
        <ele>68.4</ele>
        <time>2020-08-02T07:49:42Z</time>
      </trkpt>
      <trkpt lat="47.26061" lon="-0.42241">
        <ele>68</ele>
        <time>2020-08-02T07:49:43Z</time>
      </trkpt>
      <trkpt lat="47.2608" lon="-0.42223">
        <ele>67.6</ele>
        <time>2020-08-02T07:49:46Z</time>
      </trkpt>
      <trkpt lat="47.26087" lon="-0.42216">
        <ele>67.2</ele>
        <time>2020-08-02T07:49:47Z</time>
      </trkpt>
      <trkpt lat="47.26092" lon="-0.42212">
        <ele>67</ele>
        <time>2020-08-02T07:49:48Z</time>
      </trkpt>
      <trkpt lat="47.26098" lon="-0.42206">
        <ele>66.8</ele>
        <time>2020-08-02T07:49:49Z</time>
      </trkpt>
      <trkpt lat="47.26104" lon="-0.422">
        <ele>66.6</ele>
        <time>2020-08-02T07:49:50Z</time>
      </trkpt>
      <trkpt lat="47.2611" lon="-0.42194">
        <ele>66.4</ele>
        <time>2020-08-02T07:49:51Z</time>
      </trkpt>
      <trkpt lat="47.26115" lon="-0.4219">
        <ele>66.4</ele>
        <time>2020-08-02T07:49:52Z</time>
      </trkpt>
      <trkpt lat="47.26121" lon="-0.42184">
        <ele>66.4</ele>
        <time>2020-08-02T07:49:53Z</time>
      </trkpt>
      <trkpt lat="47.26131" lon="-0.42173">
        <ele>66.4</ele>
        <time>2020-08-02T07:49:55Z</time>
      </trkpt>
      <trkpt lat="47.26138" lon="-0.42166">
        <ele>66.4</ele>
        <time>2020-08-02T07:49:56Z</time>
      </trkpt>
      <trkpt lat="47.26142" lon="-0.42162">
        <ele>66.4</ele>
        <time>2020-08-02T07:49:57Z</time>
      </trkpt>
      <trkpt lat="47.26147" lon="-0.42157">
        <ele>66.4</ele>
        <time>2020-08-02T07:49:58Z</time>
      </trkpt>
      <trkpt lat="47.26152" lon="-0.42152">
        <ele>66.4</ele>
        <time>2020-08-02T07:49:59Z</time>
      </trkpt>
      <trkpt lat="47.26157" lon="-0.42147">
        <ele>66.6</ele>
        <time>2020-08-02T07:50:00Z</time>
      </trkpt>
      <trkpt lat="47.26162" lon="-0.42142">
        <ele>66.6</ele>
        <time>2020-08-02T07:50:01Z</time>
      </trkpt>
      <trkpt lat="47.26167" lon="-0.42138">
        <ele>66.8</ele>
        <time>2020-08-02T07:50:02Z</time>
      </trkpt>
      <trkpt lat="47.26171" lon="-0.42133">
        <ele>66.8</ele>
        <time>2020-08-02T07:50:03Z</time>
      </trkpt>
      <trkpt lat="47.26176" lon="-0.42129">
        <ele>66.8</ele>
        <time>2020-08-02T07:50:04Z</time>
      </trkpt>
      <trkpt lat="47.2618" lon="-0.42124">
        <ele>67</ele>
        <time>2020-08-02T07:50:05Z</time>
      </trkpt>
      <trkpt lat="47.26184" lon="-0.42121">
        <ele>67.2</ele>
        <time>2020-08-02T07:50:06Z</time>
      </trkpt>
      <trkpt lat="47.26187" lon="-0.42119">
        <ele>67.4</ele>
        <time>2020-08-02T07:50:07Z</time>
      </trkpt>
      <trkpt lat="47.26192" lon="-0.4212">
        <ele>67.6</ele>
        <time>2020-08-02T07:50:08Z</time>
      </trkpt>
      <trkpt lat="47.26195" lon="-0.42122">
        <ele>67.6</ele>
        <time>2020-08-02T07:50:09Z</time>
      </trkpt>
      <trkpt lat="47.26199" lon="-0.42126">
        <ele>67.6</ele>
        <time>2020-08-02T07:50:10Z</time>
      </trkpt>
      <trkpt lat="47.26201" lon="-0.42131">
        <ele>67.6</ele>
        <time>2020-08-02T07:50:11Z</time>
      </trkpt>
      <trkpt lat="47.26204" lon="-0.42136">
        <ele>67.6</ele>
        <time>2020-08-02T07:50:12Z</time>
      </trkpt>
      <trkpt lat="47.26206" lon="-0.42143">
        <ele>67.4</ele>
        <time>2020-08-02T07:50:13Z</time>
      </trkpt>
      <trkpt lat="47.26209" lon="-0.4215">
        <ele>67.2</ele>
        <time>2020-08-02T07:50:14Z</time>
      </trkpt>
      <trkpt lat="47.26211" lon="-0.42158">
        <ele>67</ele>
        <time>2020-08-02T07:50:15Z</time>
      </trkpt>
      <trkpt lat="47.26217" lon="-0.42177">
        <ele>66.6</ele>
        <time>2020-08-02T07:50:17Z</time>
      </trkpt>
      <trkpt lat="47.26219" lon="-0.42185">
        <ele>66.2</ele>
        <time>2020-08-02T07:50:18Z</time>
      </trkpt>
      <trkpt lat="47.26221" lon="-0.42195">
        <ele>65.8</ele>
        <time>2020-08-02T07:50:19Z</time>
      </trkpt>
      <trkpt lat="47.26226" lon="-0.42216">
        <ele>65.2</ele>
        <time>2020-08-02T07:50:21Z</time>
      </trkpt>
      <trkpt lat="47.26228" lon="-0.42226">
        <ele>65</ele>
        <time>2020-08-02T07:50:22Z</time>
      </trkpt>
      <trkpt lat="47.26232" lon="-0.42238">
        <ele>64.6</ele>
        <time>2020-08-02T07:50:23Z</time>
      </trkpt>
      <trkpt lat="47.26235" lon="-0.42247">
        <ele>64.4</ele>
        <time>2020-08-02T07:50:24Z</time>
      </trkpt>
      <trkpt lat="47.26239" lon="-0.42254">
        <ele>64.2</ele>
        <time>2020-08-02T07:50:25Z</time>
      </trkpt>
      <trkpt lat="47.26243" lon="-0.42262">
        <ele>64</ele>
        <time>2020-08-02T07:50:26Z</time>
      </trkpt>
      <trkpt lat="47.26248" lon="-0.4227">
        <ele>63.8</ele>
        <time>2020-08-02T07:50:27Z</time>
      </trkpt>
      <trkpt lat="47.26267" lon="-0.42297">
        <ele>63.6</ele>
        <time>2020-08-02T07:50:31Z</time>
      </trkpt>
      <trkpt lat="47.26272" lon="-0.42303">
        <ele>63.6</ele>
        <time>2020-08-02T07:50:32Z</time>
      </trkpt>
      <trkpt lat="47.26277" lon="-0.4231">
        <ele>63.8</ele>
        <time>2020-08-02T07:50:33Z</time>
      </trkpt>
      <trkpt lat="47.26281" lon="-0.42314">
        <ele>63.8</ele>
        <time>2020-08-02T07:50:34Z</time>
      </trkpt>
      <trkpt lat="47.26285" lon="-0.42319">
        <ele>63.8</ele>
        <time>2020-08-02T07:50:35Z</time>
      </trkpt>
      <trkpt lat="47.2629" lon="-0.42325">
        <ele>64.2</ele>
        <time>2020-08-02T07:50:36Z</time>
      </trkpt>
      <trkpt lat="47.26294" lon="-0.4233">
        <ele>64.4</ele>
        <time>2020-08-02T07:50:37Z</time>
      </trkpt>
      <trkpt lat="47.26297" lon="-0.42334">
        <ele>64.4</ele>
        <time>2020-08-02T07:50:38Z</time>
      </trkpt>
      <trkpt lat="47.263" lon="-0.42338">
        <ele>64.6</ele>
        <time>2020-08-02T07:50:39Z</time>
      </trkpt>
      <trkpt lat="47.26303" lon="-0.42343">
        <ele>64.8</ele>
        <time>2020-08-02T07:50:40Z</time>
      </trkpt>
      <trkpt lat="47.26306" lon="-0.42347">
        <ele>65</ele>
        <time>2020-08-02T07:50:41Z</time>
      </trkpt>
      <trkpt lat="47.26309" lon="-0.42353">
        <ele>65.4</ele>
        <time>2020-08-02T07:50:42Z</time>
      </trkpt>
      <trkpt lat="47.26312" lon="-0.42356">
        <ele>66</ele>
        <time>2020-08-02T07:50:43Z</time>
      </trkpt>
      <trkpt lat="47.26315" lon="-0.42361">
        <ele>66</ele>
        <time>2020-08-02T07:50:44Z</time>
      </trkpt>
      <trkpt lat="47.26319" lon="-0.42367">
        <ele>66.2</ele>
        <time>2020-08-02T07:50:45Z</time>
      </trkpt>
      <trkpt lat="47.26322" lon="-0.42373">
        <ele>66.4</ele>
        <time>2020-08-02T07:50:46Z</time>
      </trkpt>
      <trkpt lat="47.26324" lon="-0.42377">
        <ele>66.8</ele>
        <time>2020-08-02T07:50:47Z</time>
      </trkpt>
      <trkpt lat="47.26326" lon="-0.42383">
        <ele>67</ele>
        <time>2020-08-02T07:50:48Z</time>
      </trkpt>
      <trkpt lat="47.2633" lon="-0.42388">
        <ele>67.2</ele>
        <time>2020-08-02T07:50:49Z</time>
      </trkpt>
      <trkpt lat="47.26333" lon="-0.42394">
        <ele>67.4</ele>
        <time>2020-08-02T07:50:50Z</time>
      </trkpt>
      <trkpt lat="47.26336" lon="-0.424">
        <ele>67.4</ele>
        <time>2020-08-02T07:50:51Z</time>
      </trkpt>
      <trkpt lat="47.26339" lon="-0.42405">
        <ele>67.4</ele>
        <time>2020-08-02T07:50:52Z</time>
      </trkpt>
      <trkpt lat="47.26341" lon="-0.42411">
        <ele>67.4</ele>
        <time>2020-08-02T07:50:53Z</time>
      </trkpt>
      <trkpt lat="47.26344" lon="-0.42418">
        <ele>67.6</ele>
        <time>2020-08-02T07:50:54Z</time>
      </trkpt>
      <trkpt lat="47.26347" lon="-0.42424">
        <ele>68</ele>
        <time>2020-08-02T07:50:55Z</time>
      </trkpt>
      <trkpt lat="47.2635" lon="-0.4243">
        <ele>68.2</ele>
        <time>2020-08-02T07:50:56Z</time>
      </trkpt>
      <trkpt lat="47.26352" lon="-0.42434">
        <ele>68.4</ele>
        <time>2020-08-02T07:50:57Z</time>
      </trkpt>
      <trkpt lat="47.26354" lon="-0.4244">
        <ele>68.4</ele>
        <time>2020-08-02T07:50:58Z</time>
      </trkpt>
      <trkpt lat="47.26356" lon="-0.42445">
        <ele>68.6</ele>
        <time>2020-08-02T07:50:59Z</time>
      </trkpt>
      <trkpt lat="47.26358" lon="-0.42451">
        <ele>68.8</ele>
        <time>2020-08-02T07:51:00Z</time>
      </trkpt>
      <trkpt lat="47.26361" lon="-0.42458">
        <ele>69</ele>
        <time>2020-08-02T07:51:01Z</time>
      </trkpt>
      <trkpt lat="47.26363" lon="-0.42462">
        <ele>69.4</ele>
        <time>2020-08-02T07:51:02Z</time>
      </trkpt>
      <trkpt lat="47.26365" lon="-0.42468">
        <ele>69.4</ele>
        <time>2020-08-02T07:51:03Z</time>
      </trkpt>
      <trkpt lat="47.26367" lon="-0.42473">
        <ele>69.6</ele>
        <time>2020-08-02T07:51:04Z</time>
      </trkpt>
      <trkpt lat="47.26369" lon="-0.42479">
        <ele>69.6</ele>
        <time>2020-08-02T07:51:05Z</time>
      </trkpt>
      <trkpt lat="47.2637" lon="-0.42483">
        <ele>69.8</ele>
        <time>2020-08-02T07:51:06Z</time>
      </trkpt>
      <trkpt lat="47.26372" lon="-0.42488">
        <ele>69.8</ele>
        <time>2020-08-02T07:51:07Z</time>
      </trkpt>
      <trkpt lat="47.26374" lon="-0.42493">
        <ele>70</ele>
        <time>2020-08-02T07:51:08Z</time>
      </trkpt>
      <trkpt lat="47.26376" lon="-0.42498">
        <ele>70</ele>
        <time>2020-08-02T07:51:09Z</time>
      </trkpt>
      <trkpt lat="47.26378" lon="-0.42504">
        <ele>70</ele>
        <time>2020-08-02T07:51:10Z</time>
      </trkpt>
      <trkpt lat="47.2638" lon="-0.42508">
        <ele>70</ele>
        <time>2020-08-02T07:51:11Z</time>
      </trkpt>
      <trkpt lat="47.26382" lon="-0.42512">
        <ele>70</ele>
        <time>2020-08-02T07:51:12Z</time>
      </trkpt>
      <trkpt lat="47.26384" lon="-0.42516">
        <ele>70.2</ele>
        <time>2020-08-02T07:51:13Z</time>
      </trkpt>
      <trkpt lat="47.26387" lon="-0.42521">
        <ele>70.2</ele>
        <time>2020-08-02T07:51:14Z</time>
      </trkpt>
      <trkpt lat="47.26389" lon="-0.42526">
        <ele>70.2</ele>
        <time>2020-08-02T07:51:15Z</time>
      </trkpt>
      <trkpt lat="47.2639" lon="-0.42529">
        <ele>70.4</ele>
        <time>2020-08-02T07:51:16Z</time>
      </trkpt>
      <trkpt lat="47.26392" lon="-0.42533">
        <ele>70.4</ele>
        <time>2020-08-02T07:51:17Z</time>
      </trkpt>
      <trkpt lat="47.26393" lon="-0.42537">
        <ele>70.4</ele>
        <time>2020-08-02T07:51:18Z</time>
      </trkpt>
      <trkpt lat="47.26395" lon="-0.42542">
        <ele>70.6</ele>
        <time>2020-08-02T07:51:19Z</time>
      </trkpt>
      <trkpt lat="47.26396" lon="-0.42545">
        <ele>70.6</ele>
        <time>2020-08-02T07:51:20Z</time>
      </trkpt>
      <trkpt lat="47.26398" lon="-0.4255">
        <ele>70.8</ele>
        <time>2020-08-02T07:51:21Z</time>
      </trkpt>
      <trkpt lat="47.26401" lon="-0.42554">
        <ele>70.8</ele>
        <time>2020-08-02T07:51:22Z</time>
      </trkpt>
      <trkpt lat="47.26403" lon="-0.42559">
        <ele>70.8</ele>
        <time>2020-08-02T07:51:23Z</time>
      </trkpt>
      <trkpt lat="47.26405" lon="-0.42563">
        <ele>70.8</ele>
        <time>2020-08-02T07:51:24Z</time>
      </trkpt>
      <trkpt lat="47.26407" lon="-0.42568">
        <ele>70.8</ele>
        <time>2020-08-02T07:51:25Z</time>
      </trkpt>
      <trkpt lat="47.2641" lon="-0.42577">
        <ele>71</ele>
        <time>2020-08-02T07:51:27Z</time>
      </trkpt>
      <trkpt lat="47.26423" lon="-0.42604">
        <ele>71</ele>
        <time>2020-08-02T07:51:33Z</time>
      </trkpt>
      <trkpt lat="47.26425" lon="-0.42609">
        <ele>71</ele>
        <time>2020-08-02T07:51:34Z</time>
      </trkpt>
      <trkpt lat="47.26427" lon="-0.42614">
        <ele>71.2</ele>
        <time>2020-08-02T07:51:35Z</time>
      </trkpt>
      <trkpt lat="47.26432" lon="-0.42627">
        <ele>71.2</ele>
        <time>2020-08-02T07:51:38Z</time>
      </trkpt>
      <trkpt lat="47.26434" lon="-0.4263">
        <ele>71.2</ele>
        <time>2020-08-02T07:51:39Z</time>
      </trkpt>
      <trkpt lat="47.26436" lon="-0.42634">
        <ele>71.4</ele>
        <time>2020-08-02T07:51:40Z</time>
      </trkpt>
      <trkpt lat="47.26438" lon="-0.42638">
        <ele>71.4</ele>
        <time>2020-08-02T07:51:41Z</time>
      </trkpt>
      <trkpt lat="47.2644" lon="-0.42642">
        <ele>71.6</ele>
        <time>2020-08-02T07:51:42Z</time>
      </trkpt>
      <trkpt lat="47.26442" lon="-0.42646">
        <ele>71.6</ele>
        <time>2020-08-02T07:51:43Z</time>
      </trkpt>
      <trkpt lat="47.26444" lon="-0.4265">
        <ele>71.8</ele>
        <time>2020-08-02T07:51:44Z</time>
      </trkpt>
      <trkpt lat="47.26446" lon="-0.42653">
        <ele>71.8</ele>
        <time>2020-08-02T07:51:45Z</time>
      </trkpt>
      <trkpt lat="47.26447" lon="-0.42657">
        <ele>72</ele>
        <time>2020-08-02T07:51:46Z</time>
      </trkpt>
      <trkpt lat="47.26449" lon="-0.42663">
        <ele>72</ele>
        <time>2020-08-02T07:51:47Z</time>
      </trkpt>
      <trkpt lat="47.2645" lon="-0.42667">
        <ele>72</ele>
        <time>2020-08-02T07:51:48Z</time>
      </trkpt>
      <trkpt lat="47.26452" lon="-0.42671">
        <ele>72</ele>
        <time>2020-08-02T07:51:49Z</time>
      </trkpt>
      <trkpt lat="47.26454" lon="-0.42676">
        <ele>72</ele>
        <time>2020-08-02T07:51:50Z</time>
      </trkpt>
      <trkpt lat="47.26456" lon="-0.4268">
        <ele>72.2</ele>
        <time>2020-08-02T07:51:51Z</time>
      </trkpt>
      <trkpt lat="47.26468" lon="-0.4272">
        <ele>72.4</ele>
        <time>2020-08-02T07:51:59Z</time>
      </trkpt>
      <trkpt lat="47.2647" lon="-0.42726">
        <ele>72.6</ele>
        <time>2020-08-02T07:52:00Z</time>
      </trkpt>
      <trkpt lat="47.26474" lon="-0.4274">
        <ele>72.8</ele>
        <time>2020-08-02T07:52:03Z</time>
      </trkpt>
      <trkpt lat="47.26476" lon="-0.42746">
        <ele>73</ele>
        <time>2020-08-02T07:52:04Z</time>
      </trkpt>
      <trkpt lat="47.26477" lon="-0.42751">
        <ele>73</ele>
        <time>2020-08-02T07:52:05Z</time>
      </trkpt>
      <trkpt lat="47.26478" lon="-0.42756">
        <ele>73</ele>
        <time>2020-08-02T07:52:06Z</time>
      </trkpt>
      <trkpt lat="47.26479" lon="-0.4276">
        <ele>73.2</ele>
        <time>2020-08-02T07:52:07Z</time>
      </trkpt>
      <trkpt lat="47.2648" lon="-0.42764">
        <ele>73.4</ele>
        <time>2020-08-02T07:52:08Z</time>
      </trkpt>
      <trkpt lat="47.26481" lon="-0.4277">
        <ele>73.4</ele>
        <time>2020-08-02T07:52:09Z</time>
      </trkpt>
      <trkpt lat="47.26482" lon="-0.42775">
        <ele>73.4</ele>
        <time>2020-08-02T07:52:10Z</time>
      </trkpt>
      <trkpt lat="47.26483" lon="-0.4278">
        <ele>73.6</ele>
        <time>2020-08-02T07:52:11Z</time>
      </trkpt>
      <trkpt lat="47.26484" lon="-0.42784">
        <ele>73.6</ele>
        <time>2020-08-02T07:52:12Z</time>
      </trkpt>
      <trkpt lat="47.26485" lon="-0.4279">
        <ele>73.6</ele>
        <time>2020-08-02T07:52:13Z</time>
      </trkpt>
      <trkpt lat="47.26486" lon="-0.42794">
        <ele>73.6</ele>
        <time>2020-08-02T07:52:14Z</time>
      </trkpt>
      <trkpt lat="47.26487" lon="-0.428">
        <ele>73.4</ele>
        <time>2020-08-02T07:52:15Z</time>
      </trkpt>
      <trkpt lat="47.26488" lon="-0.42804">
        <ele>73.6</ele>
        <time>2020-08-02T07:52:16Z</time>
      </trkpt>
      <trkpt lat="47.26488" lon="-0.4281">
        <ele>73.6</ele>
        <time>2020-08-02T07:52:17Z</time>
      </trkpt>
      <trkpt lat="47.26489" lon="-0.42816">
        <ele>73.4</ele>
        <time>2020-08-02T07:52:18Z</time>
      </trkpt>
      <trkpt lat="47.26493" lon="-0.42844">
        <ele>73.8</ele>
        <time>2020-08-02T07:52:23Z</time>
      </trkpt>
      <trkpt lat="47.26493" lon="-0.4286">
        <ele>73.8</ele>
        <time>2020-08-02T07:52:26Z</time>
      </trkpt>
      <trkpt lat="47.26493" lon="-0.42871">
        <ele>73.6</ele>
        <time>2020-08-02T07:52:28Z</time>
      </trkpt>
      <trkpt lat="47.26493" lon="-0.4289">
        <ele>73.4</ele>
        <time>2020-08-02T07:52:31Z</time>
      </trkpt>
      <trkpt lat="47.26495" lon="-0.42916">
        <ele>72.4</ele>
        <time>2020-08-02T07:52:35Z</time>
      </trkpt>
      <trkpt lat="47.26495" lon="-0.42923">
        <ele>72.4</ele>
        <time>2020-08-02T07:52:36Z</time>
      </trkpt>
      <trkpt lat="47.26497" lon="-0.42937">
        <ele>72.2</ele>
        <time>2020-08-02T07:52:38Z</time>
      </trkpt>
      <trkpt lat="47.26497" lon="-0.42944">
        <ele>72</ele>
        <time>2020-08-02T07:52:39Z</time>
      </trkpt>
      <trkpt lat="47.26498" lon="-0.42949">
        <ele>72</ele>
        <time>2020-08-02T07:52:40Z</time>
      </trkpt>
      <trkpt lat="47.26501" lon="-0.42963">
        <ele>72</ele>
        <time>2020-08-02T07:52:42Z</time>
      </trkpt>
      <trkpt lat="47.26504" lon="-0.42981">
        <ele>72</ele>
        <time>2020-08-02T07:52:45Z</time>
      </trkpt>
      <trkpt lat="47.26506" lon="-0.42989">
        <ele>71.8</ele>
        <time>2020-08-02T07:52:46Z</time>
      </trkpt>
      <trkpt lat="47.26508" lon="-0.42995">
        <ele>71.8</ele>
        <time>2020-08-02T07:52:47Z</time>
      </trkpt>
      <trkpt lat="47.26509" lon="-0.43001">
        <ele>71.8</ele>
        <time>2020-08-02T07:52:48Z</time>
      </trkpt>
      <trkpt lat="47.2651" lon="-0.43007">
        <ele>71.6</ele>
        <time>2020-08-02T07:52:49Z</time>
      </trkpt>
      <trkpt lat="47.26511" lon="-0.43012">
        <ele>71.6</ele>
        <time>2020-08-02T07:52:50Z</time>
      </trkpt>
      <trkpt lat="47.26512" lon="-0.4302">
        <ele>71.6</ele>
        <time>2020-08-02T07:52:51Z</time>
      </trkpt>
      <trkpt lat="47.26513" lon="-0.43027">
        <ele>71.6</ele>
        <time>2020-08-02T07:52:52Z</time>
      </trkpt>
      <trkpt lat="47.26514" lon="-0.43032">
        <ele>71.8</ele>
        <time>2020-08-02T07:52:53Z</time>
      </trkpt>
      <trkpt lat="47.26515" lon="-0.43038">
        <ele>71.8</ele>
        <time>2020-08-02T07:52:54Z</time>
      </trkpt>
      <trkpt lat="47.26517" lon="-0.43045">
        <ele>71.8</ele>
        <time>2020-08-02T07:52:55Z</time>
      </trkpt>
      <trkpt lat="47.26518" lon="-0.43051">
        <ele>71.8</ele>
        <time>2020-08-02T07:52:56Z</time>
      </trkpt>
      <trkpt lat="47.26519" lon="-0.43057">
        <ele>72</ele>
        <time>2020-08-02T07:52:57Z</time>
      </trkpt>
      <trkpt lat="47.26519" lon="-0.43062">
        <ele>72</ele>
        <time>2020-08-02T07:52:58Z</time>
      </trkpt>
      <trkpt lat="47.26521" lon="-0.43068">
        <ele>72</ele>
        <time>2020-08-02T07:52:59Z</time>
      </trkpt>
      <trkpt lat="47.26521" lon="-0.43071">
        <ele>74.5</ele>
      </trkpt>
      <trkpt lat="47.26522" lon="-0.43075">
        <ele>72.2</ele>
        <time>2020-08-02T07:53:00Z</time>
      </trkpt>
      <trkpt lat="47.26523" lon="-0.43082">
        <ele>72.2</ele>
        <time>2020-08-02T07:53:01Z</time>
      </trkpt>
      <trkpt lat="47.26524" lon="-0.43088">
        <ele>72.2</ele>
        <time>2020-08-02T07:53:02Z</time>
      </trkpt>
      <trkpt lat="47.26525" lon="-0.43094">
        <ele>72.4</ele>
        <time>2020-08-02T07:53:03Z</time>
      </trkpt>
      <trkpt lat="47.26526" lon="-0.431">
        <ele>72.4</ele>
        <time>2020-08-02T07:53:04Z</time>
      </trkpt>
      <trkpt lat="47.26527" lon="-0.43107">
        <ele>72.4</ele>
        <time>2020-08-02T07:53:05Z</time>
      </trkpt>
      <trkpt lat="47.26528" lon="-0.43113">
        <ele>72.6</ele>
        <time>2020-08-02T07:53:06Z</time>
      </trkpt>
      <trkpt lat="47.26529" lon="-0.43118">
        <ele>72.6</ele>
        <time>2020-08-02T07:53:07Z</time>
      </trkpt>
      <trkpt lat="47.26534" lon="-0.43143">
        <ele>73</ele>
        <time>2020-08-02T07:53:11Z</time>
      </trkpt>
      <trkpt lat="47.26534" lon="-0.43149">
        <ele>73</ele>
        <time>2020-08-02T07:53:12Z</time>
      </trkpt>
      <trkpt lat="47.26536" lon="-0.43156">
        <ele>73.2</ele>
        <time>2020-08-02T07:53:13Z</time>
      </trkpt>
      <trkpt lat="47.26536" lon="-0.43162">
        <ele>73.2</ele>
        <time>2020-08-02T07:53:14Z</time>
      </trkpt>
      <trkpt lat="47.26537" lon="-0.43168">
        <ele>73.2</ele>
        <time>2020-08-02T07:53:15Z</time>
      </trkpt>
      <trkpt lat="47.26538" lon="-0.43172">
        <ele>73.2</ele>
        <time>2020-08-02T07:53:16Z</time>
      </trkpt>
      <trkpt lat="47.26539" lon="-0.43178">
        <ele>73.2</ele>
        <time>2020-08-02T07:53:17Z</time>
      </trkpt>
      <trkpt lat="47.26539" lon="-0.43185">
        <ele>73.4</ele>
        <time>2020-08-02T07:53:18Z</time>
      </trkpt>
      <trkpt lat="47.2654" lon="-0.43192">
        <ele>73.4</ele>
        <time>2020-08-02T07:53:19Z</time>
      </trkpt>
      <trkpt lat="47.26541" lon="-0.43198">
        <ele>73.6</ele>
        <time>2020-08-02T07:53:20Z</time>
      </trkpt>
      <trkpt lat="47.26541" lon="-0.43202">
        <ele>73.6</ele>
        <time>2020-08-02T07:53:21Z</time>
      </trkpt>
      <trkpt lat="47.26542" lon="-0.43208">
        <ele>73.8</ele>
        <time>2020-08-02T07:53:22Z</time>
      </trkpt>
      <trkpt lat="47.26543" lon="-0.43215">
        <ele>73.8</ele>
        <time>2020-08-02T07:53:23Z</time>
      </trkpt>
      <trkpt lat="47.26544" lon="-0.4322">
        <ele>74</ele>
        <time>2020-08-02T07:53:24Z</time>
      </trkpt>
      <trkpt lat="47.26545" lon="-0.43225">
        <ele>73.8</ele>
        <time>2020-08-02T07:53:25Z</time>
      </trkpt>
      <trkpt lat="47.26545" lon="-0.43231">
        <ele>74</ele>
        <time>2020-08-02T07:53:26Z</time>
      </trkpt>
      <trkpt lat="47.26546" lon="-0.43238">
        <ele>74.2</ele>
        <time>2020-08-02T07:53:27Z</time>
      </trkpt>
      <trkpt lat="47.26546" lon="-0.43243">
        <ele>74.4</ele>
        <time>2020-08-02T07:53:28Z</time>
      </trkpt>
      <trkpt lat="47.26547" lon="-0.43249">
        <ele>74.4</ele>
        <time>2020-08-02T07:53:29Z</time>
      </trkpt>
      <trkpt lat="47.26548" lon="-0.43255">
        <ele>74.6</ele>
        <time>2020-08-02T07:53:30Z</time>
      </trkpt>
      <trkpt lat="47.26548" lon="-0.43261">
        <ele>74.6</ele>
        <time>2020-08-02T07:53:31Z</time>
      </trkpt>
      <trkpt lat="47.26549" lon="-0.43268">
        <ele>74.6</ele>
        <time>2020-08-02T07:53:32Z</time>
      </trkpt>
      <trkpt lat="47.2655" lon="-0.43273">
        <ele>74.6</ele>
        <time>2020-08-02T07:53:33Z</time>
      </trkpt>
      <trkpt lat="47.2655" lon="-0.43278">
        <ele>74.8</ele>
        <time>2020-08-02T07:53:34Z</time>
      </trkpt>
      <trkpt lat="47.26552" lon="-0.43303">
        <ele>74.8</ele>
        <time>2020-08-02T07:53:38Z</time>
      </trkpt>
      <trkpt lat="47.26553" lon="-0.43313">
        <ele>74.8</ele>
        <time>2020-08-02T07:53:40Z</time>
      </trkpt>
      <trkpt lat="47.26554" lon="-0.4332">
        <ele>74.8</ele>
        <time>2020-08-02T07:53:41Z</time>
      </trkpt>
      <trkpt lat="47.26555" lon="-0.43326">
        <ele>74.8</ele>
        <time>2020-08-02T07:53:42Z</time>
      </trkpt>
      <trkpt lat="47.26556" lon="-0.43331">
        <ele>74.8</ele>
        <time>2020-08-02T07:53:43Z</time>
      </trkpt>
      <trkpt lat="47.26556" lon="-0.43336">
        <ele>74.8</ele>
        <time>2020-08-02T07:53:44Z</time>
      </trkpt>
      <trkpt lat="47.26558" lon="-0.43349">
        <ele>74.8</ele>
        <time>2020-08-02T07:53:46Z</time>
      </trkpt>
      <trkpt lat="47.26558" lon="-0.43355">
        <ele>74.8</ele>
        <time>2020-08-02T07:53:47Z</time>
      </trkpt>
      <trkpt lat="47.26559" lon="-0.43361">
        <ele>74.8</ele>
        <time>2020-08-02T07:53:48Z</time>
      </trkpt>
      <trkpt lat="47.2656" lon="-0.43365">
        <ele>74.8</ele>
        <time>2020-08-02T07:53:49Z</time>
      </trkpt>
      <trkpt lat="47.26561" lon="-0.43373">
        <ele>74.8</ele>
        <time>2020-08-02T07:53:50Z</time>
      </trkpt>
      <trkpt lat="47.26562" lon="-0.43378">
        <ele>74.8</ele>
        <time>2020-08-02T07:53:51Z</time>
      </trkpt>
      <trkpt lat="47.26563" lon="-0.43385">
        <ele>74.8</ele>
        <time>2020-08-02T07:53:52Z</time>
      </trkpt>
      <trkpt lat="47.26572" lon="-0.4345">
        <ele>74.6</ele>
        <time>2020-08-02T07:54:03Z</time>
      </trkpt>
      <trkpt lat="47.26573" lon="-0.43457">
        <ele>74.4</ele>
        <time>2020-08-02T07:54:04Z</time>
      </trkpt>
      <trkpt lat="47.26573" lon="-0.43462">
        <ele>74.4</ele>
        <time>2020-08-02T07:54:05Z</time>
      </trkpt>
      <trkpt lat="47.26574" lon="-0.43468">
        <ele>74.4</ele>
        <time>2020-08-02T07:54:06Z</time>
      </trkpt>
      <trkpt lat="47.26574" lon="-0.43472">
        <ele>74.4</ele>
        <time>2020-08-02T07:54:07Z</time>
      </trkpt>
      <trkpt lat="47.26574" lon="-0.43478">
        <ele>74.4</ele>
        <time>2020-08-02T07:54:08Z</time>
      </trkpt>
      <trkpt lat="47.26575" lon="-0.43485">
        <ele>74.4</ele>
        <time>2020-08-02T07:54:09Z</time>
      </trkpt>
      <trkpt lat="47.26576" lon="-0.43491">
        <ele>74.4</ele>
        <time>2020-08-02T07:54:10Z</time>
      </trkpt>
      <trkpt lat="47.26576" lon="-0.43497">
        <ele>74.4</ele>
        <time>2020-08-02T07:54:11Z</time>
      </trkpt>
      <trkpt lat="47.26577" lon="-0.43501">
        <ele>74.4</ele>
        <time>2020-08-02T07:54:12Z</time>
      </trkpt>
      <trkpt lat="47.26577" lon="-0.43507">
        <ele>74.4</ele>
        <time>2020-08-02T07:54:13Z</time>
      </trkpt>
      <trkpt lat="47.26578" lon="-0.43514">
        <ele>74.4</ele>
        <time>2020-08-02T07:54:14Z</time>
      </trkpt>
      <trkpt lat="47.26579" lon="-0.4352">
        <ele>74.4</ele>
        <time>2020-08-02T07:54:15Z</time>
      </trkpt>
      <trkpt lat="47.26579" lon="-0.43524">
        <ele>74.4</ele>
        <time>2020-08-02T07:54:16Z</time>
      </trkpt>
      <trkpt lat="47.26581" lon="-0.43543">
        <ele>74.4</ele>
        <time>2020-08-02T07:54:19Z</time>
      </trkpt>
      <trkpt lat="47.26581" lon="-0.43548">
        <ele>74.4</ele>
        <time>2020-08-02T07:54:20Z</time>
      </trkpt>
      <trkpt lat="47.26582" lon="-0.43553">
        <ele>74.4</ele>
        <time>2020-08-02T07:54:21Z</time>
      </trkpt>
      <trkpt lat="47.26582" lon="-0.43559">
        <ele>74.6</ele>
        <time>2020-08-02T07:54:22Z</time>
      </trkpt>
      <trkpt lat="47.26583" lon="-0.43566">
        <ele>74.6</ele>
        <time>2020-08-02T07:54:23Z</time>
      </trkpt>
      <trkpt lat="47.26583" lon="-0.43571">
        <ele>74.8</ele>
        <time>2020-08-02T07:54:24Z</time>
      </trkpt>
      <trkpt lat="47.26584" lon="-0.43577">
        <ele>75</ele>
        <time>2020-08-02T07:54:25Z</time>
      </trkpt>
      <trkpt lat="47.26584" lon="-0.43581">
        <ele>75.2</ele>
        <time>2020-08-02T07:54:26Z</time>
      </trkpt>
      <trkpt lat="47.26585" lon="-0.43587">
        <ele>75.2</ele>
        <time>2020-08-02T07:54:27Z</time>
      </trkpt>
      <trkpt lat="47.26586" lon="-0.43592">
        <ele>75.2</ele>
        <time>2020-08-02T07:54:28Z</time>
      </trkpt>
      <trkpt lat="47.26586" lon="-0.43599">
        <ele>75.2</ele>
        <time>2020-08-02T07:54:29Z</time>
      </trkpt>
      <trkpt lat="47.26586" lon="-0.43604">
        <ele>75.2</ele>
        <time>2020-08-02T07:54:30Z</time>
      </trkpt>
      <trkpt lat="47.26587" lon="-0.4361">
        <ele>75.4</ele>
        <time>2020-08-02T07:54:31Z</time>
      </trkpt>
      <trkpt lat="47.26588" lon="-0.43617">
        <ele>75.4</ele>
        <time>2020-08-02T07:54:32Z</time>
      </trkpt>
      <trkpt lat="47.26595" lon="-0.43675">
        <ele>75.8</ele>
        <time>2020-08-02T07:54:42Z</time>
      </trkpt>
      <trkpt lat="47.26596" lon="-0.43681">
        <ele>75.8</ele>
        <time>2020-08-02T07:54:43Z</time>
      </trkpt>
      <trkpt lat="47.26601" lon="-0.4372">
        <ele>75.8</ele>
        <time>2020-08-02T07:54:49Z</time>
      </trkpt>
      <trkpt lat="47.26601" lon="-0.43725">
        <ele>75.8</ele>
        <time>2020-08-02T07:54:50Z</time>
      </trkpt>
      <trkpt lat="47.26604" lon="-0.43745">
        <ele>75.8</ele>
        <time>2020-08-02T07:54:53Z</time>
      </trkpt>
      <trkpt lat="47.26605" lon="-0.4375">
        <ele>76</ele>
        <time>2020-08-02T07:54:54Z</time>
      </trkpt>
      <trkpt lat="47.26607" lon="-0.43772">
        <ele>76</ele>
        <time>2020-08-02T07:54:57Z</time>
      </trkpt>
      <trkpt lat="47.26611" lon="-0.4381">
        <ele>75.8</ele>
        <time>2020-08-02T07:55:03Z</time>
      </trkpt>
      <trkpt lat="47.26613" lon="-0.43831">
        <ele>75.8</ele>
        <time>2020-08-02T07:55:06Z</time>
      </trkpt>
      <trkpt lat="47.2662" lon="-0.43893">
        <ele>75.4</ele>
        <time>2020-08-02T07:55:15Z</time>
      </trkpt>
      <trkpt lat="47.2662" lon="-0.43899">
        <ele>75.4</ele>
        <time>2020-08-02T07:55:16Z</time>
      </trkpt>
      <trkpt lat="47.26621" lon="-0.43906">
        <ele>75.4</ele>
        <time>2020-08-02T07:55:17Z</time>
      </trkpt>
      <trkpt lat="47.26622" lon="-0.43911">
        <ele>75.4</ele>
        <time>2020-08-02T07:55:18Z</time>
      </trkpt>
      <trkpt lat="47.26623" lon="-0.43919">
        <ele>75.4</ele>
        <time>2020-08-02T07:55:19Z</time>
      </trkpt>
      <trkpt lat="47.26624" lon="-0.43925">
        <ele>75.4</ele>
        <time>2020-08-02T07:55:20Z</time>
      </trkpt>
      <trkpt lat="47.26625" lon="-0.43931">
        <ele>75.4</ele>
        <time>2020-08-02T07:55:21Z</time>
      </trkpt>
      <trkpt lat="47.26626" lon="-0.43936">
        <ele>75.4</ele>
        <time>2020-08-02T07:55:22Z</time>
      </trkpt>
      <trkpt lat="47.26627" lon="-0.43941">
        <ele>75.6</ele>
        <time>2020-08-02T07:55:23Z</time>
      </trkpt>
      <trkpt lat="47.26628" lon="-0.43947">
        <ele>75.4</ele>
        <time>2020-08-02T07:55:24Z</time>
      </trkpt>
      <trkpt lat="47.2663" lon="-0.43953">
        <ele>75.4</ele>
        <time>2020-08-02T07:55:25Z</time>
      </trkpt>
      <trkpt lat="47.26631" lon="-0.43961">
        <ele>75.4</ele>
        <time>2020-08-02T07:55:26Z</time>
      </trkpt>
      <trkpt lat="47.26632" lon="-0.43966">
        <ele>75.6</ele>
        <time>2020-08-02T07:55:27Z</time>
      </trkpt>
      <trkpt lat="47.26633" lon="-0.43973">
        <ele>75.6</ele>
        <time>2020-08-02T07:55:28Z</time>
      </trkpt>
      <trkpt lat="47.26634" lon="-0.43979">
        <ele>75.8</ele>
        <time>2020-08-02T07:55:29Z</time>
      </trkpt>
      <trkpt lat="47.26635" lon="-0.43985">
        <ele>76</ele>
        <time>2020-08-02T07:55:30Z</time>
      </trkpt>
      <trkpt lat="47.26636" lon="-0.43992">
        <ele>76</ele>
        <time>2020-08-02T07:55:31Z</time>
      </trkpt>
      <trkpt lat="47.26637" lon="-0.43996">
        <ele>76.2</ele>
        <time>2020-08-02T07:55:32Z</time>
      </trkpt>
      <trkpt lat="47.26638" lon="-0.44002">
        <ele>76.4</ele>
        <time>2020-08-02T07:55:33Z</time>
      </trkpt>
      <trkpt lat="47.26639" lon="-0.44008">
        <ele>76.6</ele>
        <time>2020-08-02T07:55:34Z</time>
      </trkpt>
      <trkpt lat="47.2664" lon="-0.44014">
        <ele>76.8</ele>
        <time>2020-08-02T07:55:35Z</time>
      </trkpt>
      <trkpt lat="47.26641" lon="-0.44018">
        <ele>76.8</ele>
        <time>2020-08-02T07:55:36Z</time>
      </trkpt>
      <trkpt lat="47.26642" lon="-0.44024">
        <ele>77</ele>
        <time>2020-08-02T07:55:37Z</time>
      </trkpt>
      <trkpt lat="47.26643" lon="-0.4403">
        <ele>77</ele>
        <time>2020-08-02T07:55:38Z</time>
      </trkpt>
      <trkpt lat="47.26644" lon="-0.44035">
        <ele>77.2</ele>
        <time>2020-08-02T07:55:39Z</time>
      </trkpt>
      <trkpt lat="47.26644" lon="-0.4404">
        <ele>77.2</ele>
        <time>2020-08-02T07:55:40Z</time>
      </trkpt>
      <trkpt lat="47.26645" lon="-0.44043">
        <ele>77.2</ele>
        <time>2020-08-02T07:55:41Z</time>
      </trkpt>
      <trkpt lat="47.26645" lon="-0.44046">
        <ele>77.4</ele>
        <time>2020-08-02T07:55:42Z</time>
      </trkpt>
      <trkpt lat="47.26647" lon="-0.44049">
        <ele>77.4</ele>
        <time>2020-08-02T07:55:43Z</time>
      </trkpt>
      <trkpt lat="47.26649" lon="-0.4405">
        <ele>77.6</ele>
        <time>2020-08-02T07:55:44Z</time>
      </trkpt>
      <trkpt lat="47.26651" lon="-0.4405">
        <ele>77.6</ele>
        <time>2020-08-02T07:55:45Z</time>
      </trkpt>
      <trkpt lat="47.26652" lon="-0.4405">
        <ele>77.6</ele>
        <time>2020-08-02T07:55:46Z</time>
      </trkpt>
      <trkpt lat="47.26654" lon="-0.44049">
        <ele>77.6</ele>
        <time>2020-08-02T07:55:47Z</time>
      </trkpt>
      <trkpt lat="47.26656" lon="-0.44048">
        <ele>77.6</ele>
        <time>2020-08-02T07:55:48Z</time>
      </trkpt>
      <trkpt lat="47.26658" lon="-0.44047">
        <ele>77.8</ele>
        <time>2020-08-02T07:55:49Z</time>
      </trkpt>
      <trkpt lat="47.2666" lon="-0.44046">
        <ele>77.8</ele>
        <time>2020-08-02T07:55:50Z</time>
      </trkpt>
      <trkpt lat="47.2667" lon="-0.44043">
        <ele>78</ele>
        <time>2020-08-02T07:55:53Z</time>
      </trkpt>
      <trkpt lat="47.26675" lon="-0.44041">
        <ele>78</ele>
        <time>2020-08-02T07:55:55Z</time>
      </trkpt>
      <trkpt lat="47.26678" lon="-0.4404">
        <ele>78</ele>
        <time>2020-08-02T07:55:56Z</time>
      </trkpt>
      <trkpt lat="47.26682" lon="-0.44039">
        <ele>78</ele>
        <time>2020-08-02T07:55:57Z</time>
      </trkpt>
      <trkpt lat="47.26686" lon="-0.44038">
        <ele>78</ele>
        <time>2020-08-02T07:55:58Z</time>
      </trkpt>
      <trkpt lat="47.26697" lon="-0.44034">
        <ele>78.2</ele>
        <time>2020-08-02T07:56:01Z</time>
      </trkpt>
      <trkpt lat="47.26701" lon="-0.44033">
        <ele>78.2</ele>
        <time>2020-08-02T07:56:02Z</time>
      </trkpt>
      <trkpt lat="47.26706" lon="-0.44032">
        <ele>78.2</ele>
        <time>2020-08-02T07:56:03Z</time>
      </trkpt>
      <trkpt lat="47.2674" lon="-0.44025">
        <ele>78.4</ele>
        <time>2020-08-02T07:56:11Z</time>
      </trkpt>
      <trkpt lat="47.26745" lon="-0.44024">
        <ele>78.4</ele>
        <time>2020-08-02T07:56:12Z</time>
      </trkpt>
      <trkpt lat="47.26749" lon="-0.44023">
        <ele>78.4</ele>
        <time>2020-08-02T07:56:13Z</time>
      </trkpt>
      <trkpt lat="47.26752" lon="-0.44023">
        <ele>78.4</ele>
        <time>2020-08-02T07:56:14Z</time>
      </trkpt>
      <trkpt lat="47.26766" lon="-0.44021">
        <ele>78.4</ele>
        <time>2020-08-02T07:56:17Z</time>
      </trkpt>
      <trkpt lat="47.26769" lon="-0.44021">
        <ele>78.4</ele>
        <time>2020-08-02T07:56:18Z</time>
      </trkpt>
      <trkpt lat="47.26774" lon="-0.4402">
        <ele>78.4</ele>
        <time>2020-08-02T07:56:19Z</time>
      </trkpt>
      <trkpt lat="47.26779" lon="-0.44019">
        <ele>78.4</ele>
        <time>2020-08-02T07:56:20Z</time>
      </trkpt>
      <trkpt lat="47.26783" lon="-0.44019">
        <ele>78.4</ele>
        <time>2020-08-02T07:56:21Z</time>
      </trkpt>
      <trkpt lat="47.26787" lon="-0.44018">
        <ele>78.4</ele>
        <time>2020-08-02T07:56:22Z</time>
      </trkpt>
      <trkpt lat="47.26791" lon="-0.44017">
        <ele>78.4</ele>
        <time>2020-08-02T07:56:23Z</time>
      </trkpt>
      <trkpt lat="47.26826" lon="-0.44009">
        <ele>78.8</ele>
        <time>2020-08-02T07:56:31Z</time>
      </trkpt>
      <trkpt lat="47.2683" lon="-0.44008">
        <ele>78.8</ele>
        <time>2020-08-02T07:56:32Z</time>
      </trkpt>
      <trkpt lat="47.26834" lon="-0.44007">
        <ele>78.8</ele>
        <time>2020-08-02T07:56:33Z</time>
      </trkpt>
      <trkpt lat="47.26839" lon="-0.44006">
        <ele>78.8</ele>
        <time>2020-08-02T07:56:34Z</time>
      </trkpt>
      <trkpt lat="47.26843" lon="-0.44004">
        <ele>78.8</ele>
        <time>2020-08-02T07:56:35Z</time>
      </trkpt>
      <trkpt lat="47.26847" lon="-0.44003">
        <ele>79</ele>
        <time>2020-08-02T07:56:36Z</time>
      </trkpt>
      <trkpt lat="47.26851" lon="-0.44001">
        <ele>79</ele>
        <time>2020-08-02T07:56:37Z</time>
      </trkpt>
      <trkpt lat="47.26859" lon="-0.43998">
        <ele>79.2</ele>
        <time>2020-08-02T07:56:39Z</time>
      </trkpt>
      <trkpt lat="47.26863" lon="-0.43997">
        <ele>79.2</ele>
        <time>2020-08-02T07:56:40Z</time>
      </trkpt>
      <trkpt lat="47.26866" lon="-0.43996">
        <ele>79.2</ele>
        <time>2020-08-02T07:56:41Z</time>
      </trkpt>
      <trkpt lat="47.2687" lon="-0.43994">
        <ele>79.2</ele>
        <time>2020-08-02T07:56:42Z</time>
      </trkpt>
      <trkpt lat="47.26875" lon="-0.43992">
        <ele>79.4</ele>
        <time>2020-08-02T07:56:43Z</time>
      </trkpt>
      <trkpt lat="47.26879" lon="-0.43991">
        <ele>79.4</ele>
        <time>2020-08-02T07:56:44Z</time>
      </trkpt>
      <trkpt lat="47.26883" lon="-0.43989">
        <ele>79.4</ele>
        <time>2020-08-02T07:56:45Z</time>
      </trkpt>
      <trkpt lat="47.26902" lon="-0.43982">
        <ele>79.6</ele>
        <time>2020-08-02T07:56:50Z</time>
      </trkpt>
      <trkpt lat="47.2691" lon="-0.43981">
        <ele>79.8</ele>
        <time>2020-08-02T07:56:52Z</time>
      </trkpt>
      <trkpt lat="47.26915" lon="-0.43981">
        <ele>79.6</ele>
        <time>2020-08-02T07:56:53Z</time>
      </trkpt>
      <trkpt lat="47.26919" lon="-0.43983">
        <ele>79.8</ele>
        <time>2020-08-02T07:56:54Z</time>
      </trkpt>
      <trkpt lat="47.26926" lon="-0.43986">
        <ele>79.8</ele>
        <time>2020-08-02T07:56:56Z</time>
      </trkpt>
      <trkpt lat="47.26931" lon="-0.4399">
        <ele>79.8</ele>
        <time>2020-08-02T07:56:57Z</time>
      </trkpt>
      <trkpt lat="47.26941" lon="-0.44001">
        <ele>80</ele>
        <time>2020-08-02T07:57:00Z</time>
      </trkpt>
      <trkpt lat="47.26944" lon="-0.44005">
        <ele>80.2</ele>
        <time>2020-08-02T07:57:01Z</time>
      </trkpt>
      <trkpt lat="47.26957" lon="-0.44022">
        <ele>80.2</ele>
        <time>2020-08-02T07:57:05Z</time>
      </trkpt>
      <trkpt lat="47.2696" lon="-0.44026">
        <ele>80.2</ele>
        <time>2020-08-02T07:57:06Z</time>
      </trkpt>
      <trkpt lat="47.26963" lon="-0.44031">
        <ele>80.2</ele>
        <time>2020-08-02T07:57:07Z</time>
      </trkpt>
      <trkpt lat="47.26966" lon="-0.44034">
        <ele>80.4</ele>
        <time>2020-08-02T07:57:08Z</time>
      </trkpt>
      <trkpt lat="47.26969" lon="-0.44037">
        <ele>80.4</ele>
        <time>2020-08-02T07:57:09Z</time>
      </trkpt>
      <trkpt lat="47.26971" lon="-0.44039">
        <ele>80.4</ele>
        <time>2020-08-02T07:57:10Z</time>
      </trkpt>
      <trkpt lat="47.26975" lon="-0.44042">
        <ele>80.6</ele>
        <time>2020-08-02T07:57:11Z</time>
      </trkpt>
      <trkpt lat="47.26977" lon="-0.44044">
        <ele>80.6</ele>
        <time>2020-08-02T07:57:12Z</time>
      </trkpt>
      <trkpt lat="47.2698" lon="-0.44048">
        <ele>80.6</ele>
        <time>2020-08-02T07:57:13Z</time>
      </trkpt>
      <trkpt lat="47.26982" lon="-0.4405">
        <ele>80.6</ele>
        <time>2020-08-02T07:57:14Z</time>
      </trkpt>
      <trkpt lat="47.26984" lon="-0.44053">
        <ele>80.8</ele>
        <time>2020-08-02T07:57:15Z</time>
      </trkpt>
      <trkpt lat="47.26986" lon="-0.44058">
        <ele>80.8</ele>
        <time>2020-08-02T07:57:16Z</time>
      </trkpt>
      <trkpt lat="47.26988" lon="-0.44066">
        <ele>81</ele>
        <time>2020-08-02T07:57:18Z</time>
      </trkpt>
      <trkpt lat="47.2699" lon="-0.44071">
        <ele>81.2</ele>
        <time>2020-08-02T07:57:19Z</time>
      </trkpt>
      <trkpt lat="47.26993" lon="-0.44075">
        <ele>81.2</ele>
        <time>2020-08-02T07:57:20Z</time>
      </trkpt>
      <trkpt lat="47.26997" lon="-0.44078">
        <ele>81.2</ele>
        <time>2020-08-02T07:57:21Z</time>
      </trkpt>
      <trkpt lat="47.27" lon="-0.4408">
        <ele>81.4</ele>
        <time>2020-08-02T07:57:22Z</time>
      </trkpt>
      <trkpt lat="47.27004" lon="-0.44081">
        <ele>81.4</ele>
        <time>2020-08-02T07:57:23Z</time>
      </trkpt>
      <trkpt lat="47.27007" lon="-0.44082">
        <ele>81.4</ele>
        <time>2020-08-02T07:57:24Z</time>
      </trkpt>
      <trkpt lat="47.27012" lon="-0.44082">
        <ele>81.4</ele>
        <time>2020-08-02T07:57:25Z</time>
      </trkpt>
      <trkpt lat="47.27016" lon="-0.44082">
        <ele>81.6</ele>
        <time>2020-08-02T07:57:26Z</time>
      </trkpt>
      <trkpt lat="47.27019" lon="-0.44081">
        <ele>81.6</ele>
        <time>2020-08-02T07:57:27Z</time>
      </trkpt>
      <trkpt lat="47.27034" lon="-0.44078">
        <ele>81.6</ele>
        <time>2020-08-02T07:57:31Z</time>
      </trkpt>
      <trkpt lat="47.27052" lon="-0.44075">
        <ele>81.6</ele>
        <time>2020-08-02T07:57:35Z</time>
      </trkpt>
      <trkpt lat="47.27095" lon="-0.44068">
        <ele>81.6</ele>
        <time>2020-08-02T07:57:45Z</time>
      </trkpt>
      <trkpt lat="47.27103" lon="-0.44067">
        <ele>81.6</ele>
        <time>2020-08-02T07:57:47Z</time>
      </trkpt>
      <trkpt lat="47.27116" lon="-0.44065">
        <ele>81.6</ele>
        <time>2020-08-02T07:57:50Z</time>
      </trkpt>
      <trkpt lat="47.27121" lon="-0.44065">
        <ele>81.6</ele>
        <time>2020-08-02T07:57:51Z</time>
      </trkpt>
      <trkpt lat="47.27125" lon="-0.44065">
        <ele>81.6</ele>
        <time>2020-08-02T07:57:52Z</time>
      </trkpt>
      <trkpt lat="47.27129" lon="-0.44064">
        <ele>81.4</ele>
        <time>2020-08-02T07:57:53Z</time>
      </trkpt>
      <trkpt lat="47.27166" lon="-0.44053">
        <ele>81.4</ele>
        <time>2020-08-02T07:58:01Z</time>
      </trkpt>
      <trkpt lat="47.2717" lon="-0.44051">
        <ele>81.4</ele>
        <time>2020-08-02T07:58:02Z</time>
      </trkpt>
      <trkpt lat="47.27184" lon="-0.44044">
        <ele>81.2</ele>
        <time>2020-08-02T07:58:05Z</time>
      </trkpt>
      <trkpt lat="47.27187" lon="-0.44042">
        <ele>81.2</ele>
        <time>2020-08-02T07:58:06Z</time>
      </trkpt>
      <trkpt lat="47.27192" lon="-0.44039">
        <ele>81.2</ele>
        <time>2020-08-02T07:58:07Z</time>
      </trkpt>
      <trkpt lat="47.27197" lon="-0.44037">
        <ele>81.2</ele>
        <time>2020-08-02T07:58:08Z</time>
      </trkpt>
      <trkpt lat="47.27201" lon="-0.44034">
        <ele>81</ele>
        <time>2020-08-02T07:58:09Z</time>
      </trkpt>
      <trkpt lat="47.27204" lon="-0.44032">
        <ele>81</ele>
        <time>2020-08-02T07:58:10Z</time>
      </trkpt>
      <trkpt lat="47.27218" lon="-0.44025">
        <ele>80.8</ele>
        <time>2020-08-02T07:58:13Z</time>
      </trkpt>
      <trkpt lat="47.27236" lon="-0.44013">
        <ele>80.4</ele>
        <time>2020-08-02T07:58:17Z</time>
      </trkpt>
      <trkpt lat="47.27259" lon="-0.43998">
        <ele>80.2</ele>
        <time>2020-08-02T07:58:22Z</time>
      </trkpt>
      <trkpt lat="47.27271" lon="-0.43989">
        <ele>80.2</ele>
        <time>2020-08-02T07:58:25Z</time>
      </trkpt>
      <trkpt lat="47.27275" lon="-0.43984">
        <ele>80</ele>
        <time>2020-08-02T07:58:26Z</time>
      </trkpt>
      <trkpt lat="47.27279" lon="-0.4398">
        <ele>80</ele>
        <time>2020-08-02T07:58:27Z</time>
      </trkpt>
      <trkpt lat="47.27287" lon="-0.43973">
        <ele>80</ele>
        <time>2020-08-02T07:58:29Z</time>
      </trkpt>
      <trkpt lat="47.2729" lon="-0.43969">
        <ele>80</ele>
        <time>2020-08-02T07:58:30Z</time>
      </trkpt>
      <trkpt lat="47.27294" lon="-0.43965">
        <ele>79.8</ele>
        <time>2020-08-02T07:58:31Z</time>
      </trkpt>
      <trkpt lat="47.27299" lon="-0.4396">
        <ele>79.8</ele>
        <time>2020-08-02T07:58:32Z</time>
      </trkpt>
      <trkpt lat="47.27303" lon="-0.43956">
        <ele>79.8</ele>
        <time>2020-08-02T07:58:33Z</time>
      </trkpt>
      <trkpt lat="47.27306" lon="-0.43953">
        <ele>79.8</ele>
        <time>2020-08-02T07:58:34Z</time>
      </trkpt>
      <trkpt lat="47.2731" lon="-0.43948">
        <ele>79.8</ele>
        <time>2020-08-02T07:58:35Z</time>
      </trkpt>
      <trkpt lat="47.27314" lon="-0.43945">
        <ele>79.8</ele>
        <time>2020-08-02T07:58:36Z</time>
      </trkpt>
      <trkpt lat="47.27318" lon="-0.43941">
        <ele>79.6</ele>
        <time>2020-08-02T07:58:37Z</time>
      </trkpt>
      <trkpt lat="47.27322" lon="-0.43937">
        <ele>79.8</ele>
        <time>2020-08-02T07:58:38Z</time>
      </trkpt>
      <trkpt lat="47.27326" lon="-0.43933">
        <ele>79.8</ele>
        <time>2020-08-02T07:58:39Z</time>
      </trkpt>
      <trkpt lat="47.2733" lon="-0.43929">
        <ele>79.8</ele>
        <time>2020-08-02T07:58:40Z</time>
      </trkpt>
      <trkpt lat="47.27334" lon="-0.43926">
        <ele>79.8</ele>
        <time>2020-08-02T07:58:41Z</time>
      </trkpt>
      <trkpt lat="47.27338" lon="-0.43922">
        <ele>79.8</ele>
        <time>2020-08-02T07:58:42Z</time>
      </trkpt>
      <trkpt lat="47.27341" lon="-0.4392">
        <ele>80</ele>
        <time>2020-08-02T07:58:43Z</time>
      </trkpt>
      <trkpt lat="47.27345" lon="-0.43917">
        <ele>80</ele>
        <time>2020-08-02T07:58:44Z</time>
      </trkpt>
      <trkpt lat="47.27351" lon="-0.43913">
        <ele>80</ele>
        <time>2020-08-02T07:58:45Z</time>
      </trkpt>
      <trkpt lat="47.27355" lon="-0.43911">
        <ele>80</ele>
        <time>2020-08-02T07:58:46Z</time>
      </trkpt>
      <trkpt lat="47.27359" lon="-0.43908">
        <ele>79.8</ele>
        <time>2020-08-02T07:58:47Z</time>
      </trkpt>
      <trkpt lat="47.27363" lon="-0.43906">
        <ele>79.8</ele>
        <time>2020-08-02T07:58:48Z</time>
      </trkpt>
      <trkpt lat="47.27368" lon="-0.43903">
        <ele>79.8</ele>
        <time>2020-08-02T07:58:49Z</time>
      </trkpt>
      <trkpt lat="47.27372" lon="-0.439">
        <ele>79.8</ele>
        <time>2020-08-02T07:58:50Z</time>
      </trkpt>
      <trkpt lat="47.27376" lon="-0.43898">
        <ele>79.8</ele>
        <time>2020-08-02T07:58:51Z</time>
      </trkpt>
      <trkpt lat="47.27384" lon="-0.43893">
        <ele>79.8</ele>
        <time>2020-08-02T07:58:53Z</time>
      </trkpt>
      <trkpt lat="47.27389" lon="-0.4389">
        <ele>79.8</ele>
        <time>2020-08-02T07:58:54Z</time>
      </trkpt>
      <trkpt lat="47.27393" lon="-0.43888">
        <ele>79.8</ele>
        <time>2020-08-02T07:58:55Z</time>
      </trkpt>
      <trkpt lat="47.27397" lon="-0.43885">
        <ele>79.8</ele>
        <time>2020-08-02T07:58:56Z</time>
      </trkpt>
      <trkpt lat="47.274" lon="-0.43883">
        <ele>79.6</ele>
        <time>2020-08-02T07:58:57Z</time>
      </trkpt>
      <trkpt lat="47.27404" lon="-0.43881">
        <ele>79.6</ele>
        <time>2020-08-02T07:58:58Z</time>
      </trkpt>
      <trkpt lat="47.27414" lon="-0.43875">
        <ele>79.6</ele>
        <time>2020-08-02T07:59:00Z</time>
      </trkpt>
      <trkpt lat="47.27418" lon="-0.43872">
        <ele>79.8</ele>
        <time>2020-08-02T07:59:01Z</time>
      </trkpt>
      <trkpt lat="47.27421" lon="-0.4387">
        <ele>79.8</ele>
        <time>2020-08-02T07:59:02Z</time>
      </trkpt>
      <trkpt lat="47.27426" lon="-0.43867">
        <ele>79.8</ele>
        <time>2020-08-02T07:59:03Z</time>
      </trkpt>
      <trkpt lat="47.27431" lon="-0.43864">
        <ele>79.8</ele>
        <time>2020-08-02T07:59:04Z</time>
      </trkpt>
      <trkpt lat="47.27435" lon="-0.43862">
        <ele>79.8</ele>
        <time>2020-08-02T07:59:05Z</time>
      </trkpt>
      <trkpt lat="47.27438" lon="-0.4386">
        <ele>80</ele>
        <time>2020-08-02T07:59:06Z</time>
      </trkpt>
      <trkpt lat="47.27442" lon="-0.43857">
        <ele>80.2</ele>
        <time>2020-08-02T07:59:07Z</time>
      </trkpt>
      <trkpt lat="47.27447" lon="-0.43854">
        <ele>80.2</ele>
        <time>2020-08-02T07:59:08Z</time>
      </trkpt>
      <trkpt lat="47.27451" lon="-0.43852">
        <ele>80.2</ele>
        <time>2020-08-02T07:59:09Z</time>
      </trkpt>
      <trkpt lat="47.27455" lon="-0.4385">
        <ele>80.2</ele>
        <time>2020-08-02T07:59:10Z</time>
      </trkpt>
      <trkpt lat="47.27458" lon="-0.43848">
        <ele>80.2</ele>
        <time>2020-08-02T07:59:11Z</time>
      </trkpt>
      <trkpt lat="47.27463" lon="-0.43846">
        <ele>80.4</ele>
        <time>2020-08-02T07:59:12Z</time>
      </trkpt>
      <trkpt lat="47.27467" lon="-0.43843">
        <ele>80.4</ele>
        <time>2020-08-02T07:59:13Z</time>
      </trkpt>
      <trkpt lat="47.27471" lon="-0.43841">
        <ele>80.4</ele>
        <time>2020-08-02T07:59:14Z</time>
      </trkpt>
      <trkpt lat="47.27475" lon="-0.4384">
        <ele>80.4</ele>
        <time>2020-08-02T07:59:15Z</time>
      </trkpt>
      <trkpt lat="47.27479" lon="-0.43837">
        <ele>80.4</ele>
        <time>2020-08-02T07:59:16Z</time>
      </trkpt>
      <trkpt lat="47.27484" lon="-0.43835">
        <ele>80.4</ele>
        <time>2020-08-02T07:59:17Z</time>
      </trkpt>
      <trkpt lat="47.27488" lon="-0.43832">
        <ele>80.4</ele>
        <time>2020-08-02T07:59:18Z</time>
      </trkpt>
      <trkpt lat="47.27493" lon="-0.4383">
        <ele>80.6</ele>
        <time>2020-08-02T07:59:19Z</time>
      </trkpt>
      <trkpt lat="47.27496" lon="-0.43829">
        <ele>80.6</ele>
        <time>2020-08-02T07:59:20Z</time>
      </trkpt>
      <trkpt lat="47.275" lon="-0.43827">
        <ele>81</ele>
        <time>2020-08-02T07:59:21Z</time>
      </trkpt>
      <trkpt lat="47.27505" lon="-0.43825">
        <ele>81</ele>
        <time>2020-08-02T07:59:22Z</time>
      </trkpt>
      <trkpt lat="47.27509" lon="-0.43824">
        <ele>81</ele>
        <time>2020-08-02T07:59:23Z</time>
      </trkpt>
      <trkpt lat="47.27522" lon="-0.4382">
        <ele>81</ele>
        <time>2020-08-02T07:59:26Z</time>
      </trkpt>
      <trkpt lat="47.27526" lon="-0.43818">
        <ele>81</ele>
        <time>2020-08-02T07:59:27Z</time>
      </trkpt>
      <trkpt lat="47.2753" lon="-0.43817">
        <ele>81</ele>
        <time>2020-08-02T07:59:28Z</time>
      </trkpt>
      <trkpt lat="47.27534" lon="-0.43816">
        <ele>81</ele>
        <time>2020-08-02T07:59:29Z</time>
      </trkpt>
      <trkpt lat="47.27538" lon="-0.43815">
        <ele>81</ele>
        <time>2020-08-02T07:59:30Z</time>
      </trkpt>
      <trkpt lat="47.27542" lon="-0.43815">
        <ele>81</ele>
        <time>2020-08-02T07:59:31Z</time>
      </trkpt>
      <trkpt lat="47.27547" lon="-0.43813">
        <ele>81</ele>
        <time>2020-08-02T07:59:32Z</time>
      </trkpt>
      <trkpt lat="47.2755" lon="-0.43811">
        <ele>81.4</ele>
        <time>2020-08-02T07:59:33Z</time>
      </trkpt>
      <trkpt lat="47.27553" lon="-0.4381">
        <ele>81.6</ele>
        <time>2020-08-02T07:59:34Z</time>
      </trkpt>
      <trkpt lat="47.27558" lon="-0.43809">
        <ele>81.8</ele>
        <time>2020-08-02T07:59:35Z</time>
      </trkpt>
      <trkpt lat="47.27562" lon="-0.43808">
        <ele>81.8</ele>
        <time>2020-08-02T07:59:36Z</time>
      </trkpt>
      <trkpt lat="47.27565" lon="-0.43806">
        <ele>82</ele>
        <time>2020-08-02T07:59:37Z</time>
      </trkpt>
      <trkpt lat="47.27568" lon="-0.43805">
        <ele>82</ele>
        <time>2020-08-02T07:59:38Z</time>
      </trkpt>
      <trkpt lat="47.27572" lon="-0.43803">
        <ele>82.2</ele>
        <time>2020-08-02T07:59:39Z</time>
      </trkpt>
      <trkpt lat="47.27576" lon="-0.43801">
        <ele>82.2</ele>
        <time>2020-08-02T07:59:40Z</time>
      </trkpt>
      <trkpt lat="47.2758" lon="-0.43799">
        <ele>82.2</ele>
        <time>2020-08-02T07:59:41Z</time>
      </trkpt>
      <trkpt lat="47.27584" lon="-0.43798">
        <ele>82.2</ele>
        <time>2020-08-02T07:59:42Z</time>
      </trkpt>
      <trkpt lat="47.27587" lon="-0.43796">
        <ele>82.4</ele>
        <time>2020-08-02T07:59:43Z</time>
      </trkpt>
      <trkpt lat="47.27591" lon="-0.43795">
        <ele>82.4</ele>
        <time>2020-08-02T07:59:44Z</time>
      </trkpt>
      <trkpt lat="47.27595" lon="-0.43793">
        <ele>82.4</ele>
        <time>2020-08-02T07:59:45Z</time>
      </trkpt>
      <trkpt lat="47.27623" lon="-0.43778">
        <ele>82.4</ele>
        <time>2020-08-02T07:59:52Z</time>
      </trkpt>
      <trkpt lat="47.27651" lon="-0.43763">
        <ele>82.8</ele>
        <time>2020-08-02T07:59:59Z</time>
      </trkpt>
      <trkpt lat="47.27666" lon="-0.43756">
        <ele>82.8</ele>
        <time>2020-08-02T08:00:03Z</time>
      </trkpt>
      <trkpt lat="47.27674" lon="-0.43751">
        <ele>82.6</ele>
        <time>2020-08-02T08:00:05Z</time>
      </trkpt>
      <trkpt lat="47.27686" lon="-0.43745">
        <ele>82.6</ele>
        <time>2020-08-02T08:00:08Z</time>
      </trkpt>
      <trkpt lat="47.27698" lon="-0.43739">
        <ele>82.4</ele>
        <time>2020-08-02T08:00:11Z</time>
      </trkpt>
      <trkpt lat="47.27732" lon="-0.43723">
        <ele>82.4</ele>
        <time>2020-08-02T08:00:19Z</time>
      </trkpt>
      <trkpt lat="47.27735" lon="-0.43722">
        <ele>82.4</ele>
        <time>2020-08-02T08:00:20Z</time>
      </trkpt>
      <trkpt lat="47.27739" lon="-0.43721">
        <ele>82.4</ele>
        <time>2020-08-02T08:00:21Z</time>
      </trkpt>
      <trkpt lat="47.27743" lon="-0.4372">
        <ele>82.4</ele>
        <time>2020-08-02T08:00:22Z</time>
      </trkpt>
      <trkpt lat="47.27746" lon="-0.43719">
        <ele>82.4</ele>
        <time>2020-08-02T08:00:23Z</time>
      </trkpt>
      <trkpt lat="47.2775" lon="-0.43718">
        <ele>82.4</ele>
        <time>2020-08-02T08:00:24Z</time>
      </trkpt>
      <trkpt lat="47.27753" lon="-0.43716">
        <ele>82.4</ele>
        <time>2020-08-02T08:00:25Z</time>
      </trkpt>
      <trkpt lat="47.27757" lon="-0.43714">
        <ele>82.4</ele>
        <time>2020-08-02T08:00:26Z</time>
      </trkpt>
      <trkpt lat="47.27762" lon="-0.43711">
        <ele>82.4</ele>
        <time>2020-08-02T08:00:27Z</time>
      </trkpt>
      <trkpt lat="47.27765" lon="-0.43705">
        <ele>82.4</ele>
        <time>2020-08-02T08:00:28Z</time>
      </trkpt>
      <trkpt lat="47.27766" lon="-0.437">
        <ele>82.2</ele>
        <time>2020-08-02T08:00:29Z</time>
      </trkpt>
      <trkpt lat="47.27767" lon="-0.43696">
        <ele>82.2</ele>
        <time>2020-08-02T08:00:30Z</time>
      </trkpt>
      <trkpt lat="47.27766" lon="-0.4369">
        <ele>82.2</ele>
        <time>2020-08-02T08:00:31Z</time>
      </trkpt>
      <trkpt lat="47.27765" lon="-0.43684">
        <ele>82.2</ele>
        <time>2020-08-02T08:00:32Z</time>
      </trkpt>
      <trkpt lat="47.27764" lon="-0.43679">
        <ele>82.2</ele>
        <time>2020-08-02T08:00:33Z</time>
      </trkpt>
      <trkpt lat="47.27764" lon="-0.43674">
        <ele>82.2</ele>
        <time>2020-08-02T08:00:34Z</time>
      </trkpt>
      <trkpt lat="47.2776" lon="-0.43655">
        <ele>82.2</ele>
        <time>2020-08-02T08:00:37Z</time>
      </trkpt>
      <trkpt lat="47.27759" lon="-0.43649">
        <ele>82.2</ele>
        <time>2020-08-02T08:00:38Z</time>
      </trkpt>
      <trkpt lat="47.27756" lon="-0.43622">
        <ele>82.4</ele>
        <time>2020-08-02T08:00:42Z</time>
      </trkpt>
      <trkpt lat="47.27753" lon="-0.43597">
        <ele>82.6</ele>
        <time>2020-08-02T08:00:46Z</time>
      </trkpt>
      <trkpt lat="47.27752" lon="-0.4359">
        <ele>82.6</ele>
        <time>2020-08-02T08:00:47Z</time>
      </trkpt>
      <trkpt lat="47.27748" lon="-0.43563">
        <ele>83</ele>
        <time>2020-08-02T08:00:51Z</time>
      </trkpt>
      <trkpt lat="47.27744" lon="-0.43537">
        <ele>83.2</ele>
        <time>2020-08-02T08:00:55Z</time>
      </trkpt>
      <trkpt lat="47.27743" lon="-0.43531">
        <ele>83.2</ele>
        <time>2020-08-02T08:00:56Z</time>
      </trkpt>
      <trkpt lat="47.27741" lon="-0.43511">
        <ele>83.4</ele>
        <time>2020-08-02T08:00:59Z</time>
      </trkpt>
      <trkpt lat="47.2774" lon="-0.43504">
        <ele>83.6</ele>
        <time>2020-08-02T08:01:00Z</time>
      </trkpt>
      <trkpt lat="47.27739" lon="-0.43497">
        <ele>83.6</ele>
        <time>2020-08-02T08:01:01Z</time>
      </trkpt>
      <trkpt lat="47.27736" lon="-0.43471">
        <ele>83.8</ele>
        <time>2020-08-02T08:01:05Z</time>
      </trkpt>
      <trkpt lat="47.27734" lon="-0.4346">
        <ele>83.8</ele>
        <time>2020-08-02T08:01:07Z</time>
      </trkpt>
      <trkpt lat="47.27734" lon="-0.43452">
        <ele>83.8</ele>
        <time>2020-08-02T08:01:08Z</time>
      </trkpt>
      <trkpt lat="47.27733" lon="-0.43446">
        <ele>83.8</ele>
        <time>2020-08-02T08:01:09Z</time>
      </trkpt>
      <trkpt lat="47.27732" lon="-0.4344">
        <ele>83.8</ele>
        <time>2020-08-02T08:01:10Z</time>
      </trkpt>
      <trkpt lat="47.27732" lon="-0.43435">
        <ele>83.8</ele>
        <time>2020-08-02T08:01:11Z</time>
      </trkpt>
      <trkpt lat="47.27731" lon="-0.43429">
        <ele>84</ele>
        <time>2020-08-02T08:01:12Z</time>
      </trkpt>
      <trkpt lat="47.27731" lon="-0.43421">
        <ele>84</ele>
        <time>2020-08-02T08:01:13Z</time>
      </trkpt>
      <trkpt lat="47.2773" lon="-0.43415">
        <ele>84</ele>
        <time>2020-08-02T08:01:14Z</time>
      </trkpt>
      <trkpt lat="47.2773" lon="-0.43408">
        <ele>84</ele>
        <time>2020-08-02T08:01:15Z</time>
      </trkpt>
      <trkpt lat="47.2773" lon="-0.43403">
        <ele>84</ele>
        <time>2020-08-02T08:01:16Z</time>
      </trkpt>
      <trkpt lat="47.2773" lon="-0.43395">
        <ele>84</ele>
        <time>2020-08-02T08:01:17Z</time>
      </trkpt>
      <trkpt lat="47.27729" lon="-0.43357">
        <ele>83.6</ele>
        <time>2020-08-02T08:01:23Z</time>
      </trkpt>
      <trkpt lat="47.27729" lon="-0.43351">
        <ele>83.4</ele>
        <time>2020-08-02T08:01:24Z</time>
      </trkpt>
      <trkpt lat="47.27728" lon="-0.43344">
        <ele>83.4</ele>
        <time>2020-08-02T08:01:25Z</time>
      </trkpt>
      <trkpt lat="47.27727" lon="-0.43329">
        <ele>83.4</ele>
        <time>2020-08-02T08:01:27Z</time>
      </trkpt>
      <trkpt lat="47.27726" lon="-0.4331">
        <ele>83.2</ele>
        <time>2020-08-02T08:01:30Z</time>
      </trkpt>
      <trkpt lat="47.27725" lon="-0.43296">
        <ele>83.2</ele>
        <time>2020-08-02T08:01:32Z</time>
      </trkpt>
      <trkpt lat="47.27723" lon="-0.4327">
        <ele>83</ele>
        <time>2020-08-02T08:01:36Z</time>
      </trkpt>
      <trkpt lat="47.27723" lon="-0.43263">
        <ele>83</ele>
        <time>2020-08-02T08:01:37Z</time>
      </trkpt>
      <trkpt lat="47.27722" lon="-0.43258">
        <ele>83</ele>
        <time>2020-08-02T08:01:38Z</time>
      </trkpt>
      <trkpt lat="47.27722" lon="-0.43252">
        <ele>83</ele>
        <time>2020-08-02T08:01:39Z</time>
      </trkpt>
      <trkpt lat="47.27721" lon="-0.43247">
        <ele>83</ele>
        <time>2020-08-02T08:01:40Z</time>
      </trkpt>
      <trkpt lat="47.27721" lon="-0.4324">
        <ele>83</ele>
        <time>2020-08-02T08:01:41Z</time>
      </trkpt>
      <trkpt lat="47.27721" lon="-0.43234">
        <ele>83</ele>
        <time>2020-08-02T08:01:42Z</time>
      </trkpt>
      <trkpt lat="47.27721" lon="-0.43229">
        <ele>82.8</ele>
        <time>2020-08-02T08:01:43Z</time>
      </trkpt>
      <trkpt lat="47.27721" lon="-0.43224">
        <ele>82.8</ele>
        <time>2020-08-02T08:01:44Z</time>
      </trkpt>
      <trkpt lat="47.27723" lon="-0.43219">
        <ele>82.8</ele>
        <time>2020-08-02T08:01:45Z</time>
      </trkpt>
      <trkpt lat="47.27726" lon="-0.43215">
        <ele>82.8</ele>
        <time>2020-08-02T08:01:46Z</time>
      </trkpt>
      <trkpt lat="47.27731" lon="-0.43213">
        <ele>82.6</ele>
        <time>2020-08-02T08:01:47Z</time>
      </trkpt>
      <trkpt lat="47.27734" lon="-0.43213">
        <ele>82.6</ele>
        <time>2020-08-02T08:01:48Z</time>
      </trkpt>
      <trkpt lat="47.27739" lon="-0.43214">
        <ele>82.6</ele>
        <time>2020-08-02T08:01:49Z</time>
      </trkpt>
      <trkpt lat="47.27743" lon="-0.43215">
        <ele>82.4</ele>
        <time>2020-08-02T08:01:50Z</time>
      </trkpt>
      <trkpt lat="47.27748" lon="-0.43216">
        <ele>82.4</ele>
        <time>2020-08-02T08:01:51Z</time>
      </trkpt>
      <trkpt lat="47.27753" lon="-0.43218">
        <ele>82.4</ele>
        <time>2020-08-02T08:01:52Z</time>
      </trkpt>
      <trkpt lat="47.27757" lon="-0.4322">
        <ele>82.4</ele>
        <time>2020-08-02T08:01:53Z</time>
      </trkpt>
      <trkpt lat="47.27766" lon="-0.43225">
        <ele>82.4</ele>
        <time>2020-08-02T08:01:55Z</time>
      </trkpt>
      <trkpt lat="47.27782" lon="-0.43237">
        <ele>82.2</ele>
        <time>2020-08-02T08:01:59Z</time>
      </trkpt>
      <trkpt lat="47.27785" lon="-0.43241">
        <ele>82.2</ele>
        <time>2020-08-02T08:02:00Z</time>
      </trkpt>
      <trkpt lat="47.27789" lon="-0.43245">
        <ele>82.2</ele>
        <time>2020-08-02T08:02:01Z</time>
      </trkpt>
      <trkpt lat="47.27793" lon="-0.43249">
        <ele>82</ele>
        <time>2020-08-02T08:02:02Z</time>
      </trkpt>
      <trkpt lat="47.278" lon="-0.43255">
        <ele>82</ele>
        <time>2020-08-02T08:02:04Z</time>
      </trkpt>
      <trkpt lat="47.27809" lon="-0.43263">
        <ele>82</ele>
        <time>2020-08-02T08:02:06Z</time>
      </trkpt>
      <trkpt lat="47.27811" lon="-0.43265">
        <ele>81.8</ele>
        <time>2020-08-02T08:02:07Z</time>
      </trkpt>
      <trkpt lat="47.27815" lon="-0.43268">
        <ele>81.8</ele>
        <time>2020-08-02T08:02:08Z</time>
      </trkpt>
      <trkpt lat="47.27819" lon="-0.43271">
        <ele>81.8</ele>
        <time>2020-08-02T08:02:09Z</time>
      </trkpt>
      <trkpt lat="47.27821" lon="-0.43273">
        <ele>81.8</ele>
        <time>2020-08-02T08:02:10Z</time>
      </trkpt>
      <trkpt lat="47.27825" lon="-0.43277">
        <ele>81.8</ele>
        <time>2020-08-02T08:02:11Z</time>
      </trkpt>
      <trkpt lat="47.27829" lon="-0.4328">
        <ele>81.6</ele>
        <time>2020-08-02T08:02:12Z</time>
      </trkpt>
      <trkpt lat="47.27832" lon="-0.43284">
        <ele>81.6</ele>
        <time>2020-08-02T08:02:13Z</time>
      </trkpt>
      <trkpt lat="47.27837" lon="-0.43288">
        <ele>81.6</ele>
        <time>2020-08-02T08:02:14Z</time>
      </trkpt>
      <trkpt lat="47.27841" lon="-0.43291">
        <ele>81.6</ele>
        <time>2020-08-02T08:02:15Z</time>
      </trkpt>
      <trkpt lat="47.27844" lon="-0.43293">
        <ele>81.6</ele>
        <time>2020-08-02T08:02:16Z</time>
      </trkpt>
      <trkpt lat="47.27848" lon="-0.43296">
        <ele>81.6</ele>
        <time>2020-08-02T08:02:17Z</time>
      </trkpt>
      <trkpt lat="47.27879" lon="-0.43319">
        <ele>81.2</ele>
        <time>2020-08-02T08:02:24Z</time>
      </trkpt>
      <trkpt lat="47.279" lon="-0.43334">
        <ele>80.8</ele>
        <time>2020-08-02T08:02:29Z</time>
      </trkpt>
      <trkpt lat="47.27906" lon="-0.43337">
        <ele>80.8</ele>
        <time>2020-08-02T08:02:30Z</time>
      </trkpt>
      <trkpt lat="47.27909" lon="-0.4334">
        <ele>80.6</ele>
        <time>2020-08-02T08:02:31Z</time>
      </trkpt>
      <trkpt lat="47.27913" lon="-0.43342">
        <ele>80.6</ele>
        <time>2020-08-02T08:02:32Z</time>
      </trkpt>
      <trkpt lat="47.27919" lon="-0.43344">
        <ele>80.6</ele>
        <time>2020-08-02T08:02:33Z</time>
      </trkpt>
      <trkpt lat="47.27928" lon="-0.43347">
        <ele>80.4</ele>
        <time>2020-08-02T08:02:35Z</time>
      </trkpt>
      <trkpt lat="47.27964" lon="-0.43351">
        <ele>80</ele>
        <time>2020-08-02T08:02:43Z</time>
      </trkpt>
      <trkpt lat="47.27969" lon="-0.43351">
        <ele>79.8</ele>
        <time>2020-08-02T08:02:44Z</time>
      </trkpt>
      <trkpt lat="47.27977" lon="-0.4335">
        <ele>79.8</ele>
        <time>2020-08-02T08:02:46Z</time>
      </trkpt>
      <trkpt lat="47.27982" lon="-0.4335">
        <ele>79.8</ele>
        <time>2020-08-02T08:02:47Z</time>
      </trkpt>
      <trkpt lat="47.27987" lon="-0.43349">
        <ele>79.8</ele>
        <time>2020-08-02T08:02:48Z</time>
      </trkpt>
      <trkpt lat="47.28001" lon="-0.43347">
        <ele>79.6</ele>
        <time>2020-08-02T08:02:51Z</time>
      </trkpt>
      <trkpt lat="47.28005" lon="-0.43346">
        <ele>79.6</ele>
        <time>2020-08-02T08:02:52Z</time>
      </trkpt>
      <trkpt lat="47.2801" lon="-0.43345">
        <ele>79.6</ele>
        <time>2020-08-02T08:02:53Z</time>
      </trkpt>
      <trkpt lat="47.28015" lon="-0.43345">
        <ele>79.6</ele>
        <time>2020-08-02T08:02:54Z</time>
      </trkpt>
      <trkpt lat="47.2802" lon="-0.43344">
        <ele>79.6</ele>
        <time>2020-08-02T08:02:55Z</time>
      </trkpt>
      <trkpt lat="47.28039" lon="-0.43342">
        <ele>79.4</ele>
        <time>2020-08-02T08:02:59Z</time>
      </trkpt>
      <trkpt lat="47.28044" lon="-0.43342">
        <ele>79.2</ele>
        <time>2020-08-02T08:03:00Z</time>
      </trkpt>
      <trkpt lat="47.28055" lon="-0.43341">
        <ele>79</ele>
        <time>2020-08-02T08:03:02Z</time>
      </trkpt>
      <trkpt lat="47.2808" lon="-0.43339">
        <ele>78.6</ele>
        <time>2020-08-02T08:03:07Z</time>
      </trkpt>
      <trkpt lat="47.28084" lon="-0.43339">
        <ele>78.6</ele>
        <time>2020-08-02T08:03:08Z</time>
      </trkpt>
      <trkpt lat="47.28098" lon="-0.43338">
        <ele>78.2</ele>
        <time>2020-08-02T08:03:11Z</time>
      </trkpt>
      <trkpt lat="47.28102" lon="-0.43338">
        <ele>78</ele>
        <time>2020-08-02T08:03:12Z</time>
      </trkpt>
      <trkpt lat="47.28107" lon="-0.43338">
        <ele>78</ele>
        <time>2020-08-02T08:03:13Z</time>
      </trkpt>
      <trkpt lat="47.28112" lon="-0.43337">
        <ele>77.8</ele>
        <time>2020-08-02T08:03:14Z</time>
      </trkpt>
      <trkpt lat="47.28117" lon="-0.43337">
        <ele>77.8</ele>
        <time>2020-08-02T08:03:15Z</time>
      </trkpt>
      <trkpt lat="47.28122" lon="-0.43336">
        <ele>77.6</ele>
        <time>2020-08-02T08:03:16Z</time>
      </trkpt>
      <trkpt lat="47.28127" lon="-0.43336">
        <ele>77.6</ele>
        <time>2020-08-02T08:03:17Z</time>
      </trkpt>
      <trkpt lat="47.28131" lon="-0.43336">
        <ele>77.6</ele>
        <time>2020-08-02T08:03:18Z</time>
      </trkpt>
      <trkpt lat="47.28136" lon="-0.43335">
        <ele>77.2</ele>
        <time>2020-08-02T08:03:19Z</time>
      </trkpt>
      <trkpt lat="47.28141" lon="-0.43335">
        <ele>77.2</ele>
        <time>2020-08-02T08:03:20Z</time>
      </trkpt>
      <trkpt lat="47.28146" lon="-0.43335">
        <ele>77.2</ele>
        <time>2020-08-02T08:03:21Z</time>
      </trkpt>
      <trkpt lat="47.2815" lon="-0.43334">
        <ele>77.2</ele>
        <time>2020-08-02T08:03:22Z</time>
      </trkpt>
      <trkpt lat="47.28154" lon="-0.43334">
        <ele>77.2</ele>
        <time>2020-08-02T08:03:23Z</time>
      </trkpt>
      <trkpt lat="47.28159" lon="-0.43333">
        <ele>77</ele>
        <time>2020-08-02T08:03:24Z</time>
      </trkpt>
      <trkpt lat="47.28164" lon="-0.43333">
        <ele>77.2</ele>
        <time>2020-08-02T08:03:25Z</time>
      </trkpt>
      <trkpt lat="47.28169" lon="-0.43332">
        <ele>77</ele>
        <time>2020-08-02T08:03:26Z</time>
      </trkpt>
      <trkpt lat="47.28174" lon="-0.43332">
        <ele>76.8</ele>
        <time>2020-08-02T08:03:27Z</time>
      </trkpt>
      <trkpt lat="47.28178" lon="-0.43332">
        <ele>76.8</ele>
        <time>2020-08-02T08:03:28Z</time>
      </trkpt>
      <trkpt lat="47.28182" lon="-0.43331">
        <ele>76.8</ele>
        <time>2020-08-02T08:03:29Z</time>
      </trkpt>
      <trkpt lat="47.28188" lon="-0.43331">
        <ele>76.8</ele>
        <time>2020-08-02T08:03:30Z</time>
      </trkpt>
      <trkpt lat="47.28192" lon="-0.4333">
        <ele>76.8</ele>
        <time>2020-08-02T08:03:31Z</time>
      </trkpt>
      <trkpt lat="47.28196" lon="-0.4333">
        <ele>76.8</ele>
        <time>2020-08-02T08:03:32Z</time>
      </trkpt>
      <trkpt lat="47.28201" lon="-0.43329">
        <ele>76.8</ele>
        <time>2020-08-02T08:03:33Z</time>
      </trkpt>
      <trkpt lat="47.28207" lon="-0.43329">
        <ele>76.8</ele>
        <time>2020-08-02T08:03:34Z</time>
      </trkpt>
      <trkpt lat="47.28211" lon="-0.43329">
        <ele>76.8</ele>
        <time>2020-08-02T08:03:35Z</time>
      </trkpt>
      <trkpt lat="47.28216" lon="-0.43328">
        <ele>76.8</ele>
        <time>2020-08-02T08:03:36Z</time>
      </trkpt>
      <trkpt lat="47.2822" lon="-0.43327">
        <ele>76.8</ele>
        <time>2020-08-02T08:03:37Z</time>
      </trkpt>
      <trkpt lat="47.2824" lon="-0.43325">
        <ele>76.6</ele>
        <time>2020-08-02T08:03:41Z</time>
      </trkpt>
      <trkpt lat="47.28245" lon="-0.43324">
        <ele>76.6</ele>
        <time>2020-08-02T08:03:42Z</time>
      </trkpt>
      <trkpt lat="47.28259" lon="-0.43324">
        <ele>76.4</ele>
        <time>2020-08-02T08:03:45Z</time>
      </trkpt>
      <trkpt lat="47.28264" lon="-0.43323">
        <ele>76.4</ele>
        <time>2020-08-02T08:03:46Z</time>
      </trkpt>
      <trkpt lat="47.28267" lon="-0.43323">
        <ele>76.4</ele>
        <time>2020-08-02T08:03:47Z</time>
      </trkpt>
      <trkpt lat="47.28273" lon="-0.43322">
        <ele>76.4</ele>
        <time>2020-08-02T08:03:48Z</time>
      </trkpt>
      <trkpt lat="47.28278" lon="-0.43322">
        <ele>76.4</ele>
        <time>2020-08-02T08:03:49Z</time>
      </trkpt>
      <trkpt lat="47.28282" lon="-0.43321">
        <ele>76.4</ele>
        <time>2020-08-02T08:03:50Z</time>
      </trkpt>
      <trkpt lat="47.28287" lon="-0.43321">
        <ele>76.4</ele>
        <time>2020-08-02T08:03:51Z</time>
      </trkpt>
      <trkpt lat="47.28292" lon="-0.4332">
        <ele>76.2</ele>
        <time>2020-08-02T08:03:52Z</time>
      </trkpt>
      <trkpt lat="47.28297" lon="-0.4332">
        <ele>76.2</ele>
        <time>2020-08-02T08:03:53Z</time>
      </trkpt>
      <trkpt lat="47.28308" lon="-0.43319">
        <ele>76.2</ele>
        <time>2020-08-02T08:03:55Z</time>
      </trkpt>
      <trkpt lat="47.28328" lon="-0.43318">
        <ele>76</ele>
        <time>2020-08-02T08:03:59Z</time>
      </trkpt>
      <trkpt lat="47.28341" lon="-0.43316">
        <ele>76</ele>
        <time>2020-08-02T08:04:02Z</time>
      </trkpt>
      <trkpt lat="47.28347" lon="-0.43315">
        <ele>75.8</ele>
        <time>2020-08-02T08:04:03Z</time>
      </trkpt>
      <trkpt lat="47.28351" lon="-0.43315">
        <ele>75.8</ele>
        <time>2020-08-02T08:04:04Z</time>
      </trkpt>
      <trkpt lat="47.28355" lon="-0.43314">
        <ele>75.8</ele>
        <time>2020-08-02T08:04:05Z</time>
      </trkpt>
      <trkpt lat="47.28359" lon="-0.43314">
        <ele>75.8</ele>
        <time>2020-08-02T08:04:06Z</time>
      </trkpt>
      <trkpt lat="47.28364" lon="-0.43314">
        <ele>75.8</ele>
        <time>2020-08-02T08:04:07Z</time>
      </trkpt>
      <trkpt lat="47.28368" lon="-0.43314">
        <ele>75.8</ele>
        <time>2020-08-02T08:04:08Z</time>
      </trkpt>
      <trkpt lat="47.28374" lon="-0.43313">
        <ele>75.8</ele>
        <time>2020-08-02T08:04:09Z</time>
      </trkpt>
      <trkpt lat="47.28377" lon="-0.43313">
        <ele>75.8</ele>
        <time>2020-08-02T08:04:10Z</time>
      </trkpt>
      <trkpt lat="47.28382" lon="-0.43313">
        <ele>75.8</ele>
        <time>2020-08-02T08:04:11Z</time>
      </trkpt>
      <trkpt lat="47.28387" lon="-0.43312">
        <ele>75.8</ele>
        <time>2020-08-02T08:04:12Z</time>
      </trkpt>
      <trkpt lat="47.28392" lon="-0.43312">
        <ele>75.8</ele>
        <time>2020-08-02T08:04:13Z</time>
      </trkpt>
      <trkpt lat="47.28396" lon="-0.43312">
        <ele>75.8</ele>
        <time>2020-08-02T08:04:14Z</time>
      </trkpt>
      <trkpt lat="47.28423" lon="-0.43309">
        <ele>75.8</ele>
        <time>2020-08-02T08:04:20Z</time>
      </trkpt>
      <trkpt lat="47.28432" lon="-0.43308">
        <ele>75.8</ele>
        <time>2020-08-02T08:04:22Z</time>
      </trkpt>
      <trkpt lat="47.28437" lon="-0.43308">
        <ele>75.8</ele>
        <time>2020-08-02T08:04:23Z</time>
      </trkpt>
      <trkpt lat="47.28441" lon="-0.43308">
        <ele>75.8</ele>
        <time>2020-08-02T08:04:24Z</time>
      </trkpt>
      <trkpt lat="47.2845" lon="-0.43307">
        <ele>76</ele>
        <time>2020-08-02T08:04:26Z</time>
      </trkpt>
      <trkpt lat="47.28455" lon="-0.43307">
        <ele>76</ele>
        <time>2020-08-02T08:04:27Z</time>
      </trkpt>
      <trkpt lat="47.2846" lon="-0.43306">
        <ele>76</ele>
        <time>2020-08-02T08:04:28Z</time>
      </trkpt>
      <trkpt lat="47.28464" lon="-0.43306">
        <ele>76</ele>
        <time>2020-08-02T08:04:29Z</time>
      </trkpt>
      <trkpt lat="47.28468" lon="-0.43305">
        <ele>76</ele>
        <time>2020-08-02T08:04:30Z</time>
      </trkpt>
      <trkpt lat="47.28487" lon="-0.43303">
        <ele>76</ele>
        <time>2020-08-02T08:04:34Z</time>
      </trkpt>
      <trkpt lat="47.28511" lon="-0.43301">
        <ele>75.8</ele>
        <time>2020-08-02T08:04:39Z</time>
      </trkpt>
      <trkpt lat="47.28525" lon="-0.43299">
        <ele>76</ele>
        <time>2020-08-02T08:04:42Z</time>
      </trkpt>
      <trkpt lat="47.28529" lon="-0.43299">
        <ele>76</ele>
        <time>2020-08-02T08:04:43Z</time>
      </trkpt>
      <trkpt lat="47.28534" lon="-0.43298">
        <ele>76</ele>
        <time>2020-08-02T08:04:44Z</time>
      </trkpt>
      <trkpt lat="47.28539" lon="-0.43298">
        <ele>76.2</ele>
        <time>2020-08-02T08:04:45Z</time>
      </trkpt>
      <trkpt lat="47.28543" lon="-0.43297">
        <ele>76.2</ele>
        <time>2020-08-02T08:04:46Z</time>
      </trkpt>
      <trkpt lat="47.28548" lon="-0.43297">
        <ele>76.2</ele>
        <time>2020-08-02T08:04:47Z</time>
      </trkpt>
      <trkpt lat="47.28552" lon="-0.43296">
        <ele>76.2</ele>
        <time>2020-08-02T08:04:48Z</time>
      </trkpt>
      <trkpt lat="47.28557" lon="-0.43296">
        <ele>76.2</ele>
        <time>2020-08-02T08:04:49Z</time>
      </trkpt>
      <trkpt lat="47.28561" lon="-0.43296">
        <ele>76.2</ele>
        <time>2020-08-02T08:04:50Z</time>
      </trkpt>
      <trkpt lat="47.28567" lon="-0.43296">
        <ele>76.2</ele>
        <time>2020-08-02T08:04:51Z</time>
      </trkpt>
      <trkpt lat="47.28571" lon="-0.43295">
        <ele>76</ele>
        <time>2020-08-02T08:04:52Z</time>
      </trkpt>
      <trkpt lat="47.28576" lon="-0.43295">
        <ele>76</ele>
        <time>2020-08-02T08:04:53Z</time>
      </trkpt>
      <trkpt lat="47.28596" lon="-0.43292">
        <ele>75.8</ele>
        <time>2020-08-02T08:04:57Z</time>
      </trkpt>
      <trkpt lat="47.28611" lon="-0.43291">
        <ele>75.8</ele>
        <time>2020-08-02T08:05:00Z</time>
      </trkpt>
      <trkpt lat="47.28625" lon="-0.43289">
        <ele>75.8</ele>
        <time>2020-08-02T08:05:03Z</time>
      </trkpt>
      <trkpt lat="47.28631" lon="-0.43288">
        <ele>75.8</ele>
        <time>2020-08-02T08:05:04Z</time>
      </trkpt>
      <trkpt lat="47.28636" lon="-0.43288">
        <ele>75.8</ele>
        <time>2020-08-02T08:05:05Z</time>
      </trkpt>
      <trkpt lat="47.2864" lon="-0.43288">
        <ele>75.8</ele>
        <time>2020-08-02T08:05:06Z</time>
      </trkpt>
      <trkpt lat="47.28645" lon="-0.43288">
        <ele>75.8</ele>
        <time>2020-08-02T08:05:07Z</time>
      </trkpt>
      <trkpt lat="47.28651" lon="-0.43287">
        <ele>75.8</ele>
        <time>2020-08-02T08:05:08Z</time>
      </trkpt>
      <trkpt lat="47.28655" lon="-0.43287">
        <ele>75.8</ele>
        <time>2020-08-02T08:05:09Z</time>
      </trkpt>
      <trkpt lat="47.2866" lon="-0.43287">
        <ele>76</ele>
        <time>2020-08-02T08:05:10Z</time>
      </trkpt>
      <trkpt lat="47.28665" lon="-0.43286">
        <ele>76</ele>
        <time>2020-08-02T08:05:11Z</time>
      </trkpt>
      <trkpt lat="47.28708" lon="-0.4328">
        <ele>75.8</ele>
        <time>2020-08-02T08:05:20Z</time>
      </trkpt>
      <trkpt lat="47.28712" lon="-0.43278">
        <ele>75.8</ele>
        <time>2020-08-02T08:05:21Z</time>
      </trkpt>
      <trkpt lat="47.28718" lon="-0.43276">
        <ele>75.8</ele>
        <time>2020-08-02T08:05:22Z</time>
      </trkpt>
      <trkpt lat="47.28723" lon="-0.43273">
        <ele>75.8</ele>
        <time>2020-08-02T08:05:23Z</time>
      </trkpt>
      <trkpt lat="47.28727" lon="-0.43271">
        <ele>75.6</ele>
        <time>2020-08-02T08:05:24Z</time>
      </trkpt>
      <trkpt lat="47.28732" lon="-0.43268">
        <ele>75.6</ele>
        <time>2020-08-02T08:05:25Z</time>
      </trkpt>
      <trkpt lat="47.28736" lon="-0.43266">
        <ele>75.6</ele>
        <time>2020-08-02T08:05:26Z</time>
      </trkpt>
      <trkpt lat="47.28741" lon="-0.43262">
        <ele>75.6</ele>
        <time>2020-08-02T08:05:27Z</time>
      </trkpt>
      <trkpt lat="47.28771" lon="-0.43244">
        <ele>75.2</ele>
        <time>2020-08-02T08:05:34Z</time>
      </trkpt>
      <trkpt lat="47.28775" lon="-0.43243">
        <ele>75.2</ele>
        <time>2020-08-02T08:05:35Z</time>
      </trkpt>
      <trkpt lat="47.2878" lon="-0.43241">
        <ele>75.2</ele>
        <time>2020-08-02T08:05:36Z</time>
      </trkpt>
      <trkpt lat="47.28785" lon="-0.43239">
        <ele>75.2</ele>
        <time>2020-08-02T08:05:37Z</time>
      </trkpt>
      <trkpt lat="47.28789" lon="-0.43239">
        <ele>75.2</ele>
        <time>2020-08-02T08:05:38Z</time>
      </trkpt>
      <trkpt lat="47.28794" lon="-0.43239">
        <ele>75</ele>
        <time>2020-08-02T08:05:39Z</time>
      </trkpt>
      <trkpt lat="47.28799" lon="-0.43241">
        <ele>75</ele>
        <time>2020-08-02T08:05:40Z</time>
      </trkpt>
      <trkpt lat="47.28805" lon="-0.43243">
        <ele>75</ele>
        <time>2020-08-02T08:05:41Z</time>
      </trkpt>
      <trkpt lat="47.2881" lon="-0.43247">
        <ele>75</ele>
        <time>2020-08-02T08:05:42Z</time>
      </trkpt>
      <trkpt lat="47.2885" lon="-0.43275">
        <ele>74.8</ele>
        <time>2020-08-02T08:05:51Z</time>
      </trkpt>
      <trkpt lat="47.28854" lon="-0.43279">
        <ele>74.8</ele>
        <time>2020-08-02T08:05:52Z</time>
      </trkpt>
      <trkpt lat="47.28858" lon="-0.43282">
        <ele>74.8</ele>
        <time>2020-08-02T08:05:53Z</time>
      </trkpt>
      <trkpt lat="47.28862" lon="-0.43284">
        <ele>74.8</ele>
        <time>2020-08-02T08:05:54Z</time>
      </trkpt>
      <trkpt lat="47.28868" lon="-0.43287">
        <ele>74.8</ele>
        <time>2020-08-02T08:05:55Z</time>
      </trkpt>
      <trkpt lat="47.28872" lon="-0.4329">
        <ele>74.6</ele>
        <time>2020-08-02T08:05:56Z</time>
      </trkpt>
      <trkpt lat="47.28881" lon="-0.43292">
        <ele>74.6</ele>
        <time>2020-08-02T08:05:58Z</time>
      </trkpt>
      <trkpt lat="47.28886" lon="-0.43292">
        <ele>74.6</ele>
        <time>2020-08-02T08:05:59Z</time>
      </trkpt>
      <trkpt lat="47.28892" lon="-0.4329">
        <ele>74.4</ele>
        <time>2020-08-02T08:06:00Z</time>
      </trkpt>
      <trkpt lat="47.28897" lon="-0.43287">
        <ele>74.4</ele>
        <time>2020-08-02T08:06:01Z</time>
      </trkpt>
      <trkpt lat="47.28901" lon="-0.43284">
        <ele>74.4</ele>
        <time>2020-08-02T08:06:02Z</time>
      </trkpt>
      <trkpt lat="47.28904" lon="-0.43281">
        <ele>74.2</ele>
        <time>2020-08-02T08:06:03Z</time>
      </trkpt>
      <trkpt lat="47.28907" lon="-0.43277">
        <ele>74.2</ele>
        <time>2020-08-02T08:06:04Z</time>
      </trkpt>
      <trkpt lat="47.28912" lon="-0.43273">
        <ele>74.2</ele>
        <time>2020-08-02T08:06:05Z</time>
      </trkpt>
      <trkpt lat="47.28916" lon="-0.43269">
        <ele>74.2</ele>
        <time>2020-08-02T08:06:06Z</time>
      </trkpt>
      <trkpt lat="47.28921" lon="-0.43265">
        <ele>74</ele>
        <time>2020-08-02T08:06:07Z</time>
      </trkpt>
      <trkpt lat="47.28924" lon="-0.43262">
        <ele>74</ele>
        <time>2020-08-02T08:06:08Z</time>
      </trkpt>
      <trkpt lat="47.28929" lon="-0.43258">
        <ele>74</ele>
        <time>2020-08-02T08:06:09Z</time>
      </trkpt>
      <trkpt lat="47.28933" lon="-0.43254">
        <ele>73.8</ele>
        <time>2020-08-02T08:06:10Z</time>
      </trkpt>
      <trkpt lat="47.28937" lon="-0.43251">
        <ele>73.8</ele>
        <time>2020-08-02T08:06:11Z</time>
      </trkpt>
      <trkpt lat="47.28941" lon="-0.43248">
        <ele>73.6</ele>
        <time>2020-08-02T08:06:12Z</time>
      </trkpt>
      <trkpt lat="47.28945" lon="-0.43244">
        <ele>73.6</ele>
        <time>2020-08-02T08:06:13Z</time>
      </trkpt>
      <trkpt lat="47.28949" lon="-0.43241">
        <ele>73.6</ele>
        <time>2020-08-02T08:06:14Z</time>
      </trkpt>
      <trkpt lat="47.28953" lon="-0.43239">
        <ele>73.6</ele>
        <time>2020-08-02T08:06:15Z</time>
      </trkpt>
      <trkpt lat="47.28957" lon="-0.43236">
        <ele>73.6</ele>
        <time>2020-08-02T08:06:16Z</time>
      </trkpt>
      <trkpt lat="47.28959" lon="-0.43234">
        <ele>73.6</ele>
        <time>2020-08-02T08:06:17Z</time>
      </trkpt>
      <trkpt lat="47.28964" lon="-0.43231">
        <ele>73.6</ele>
        <time>2020-08-02T08:06:18Z</time>
      </trkpt>
      <trkpt lat="47.28967" lon="-0.43228">
        <ele>73.4</ele>
        <time>2020-08-02T08:06:19Z</time>
      </trkpt>
      <trkpt lat="47.2897" lon="-0.43225">
        <ele>73.4</ele>
        <time>2020-08-02T08:06:20Z</time>
      </trkpt>
      <trkpt lat="47.28973" lon="-0.43222">
        <ele>73.4</ele>
        <time>2020-08-02T08:06:21Z</time>
      </trkpt>
      <trkpt lat="47.28976" lon="-0.43219">
        <ele>73.4</ele>
        <time>2020-08-02T08:06:22Z</time>
      </trkpt>
      <trkpt lat="47.2898" lon="-0.43215">
        <ele>73.4</ele>
        <time>2020-08-02T08:06:23Z</time>
      </trkpt>
      <trkpt lat="47.28984" lon="-0.43211">
        <ele>73.4</ele>
        <time>2020-08-02T08:06:24Z</time>
      </trkpt>
      <trkpt lat="47.28988" lon="-0.43208">
        <ele>73.4</ele>
        <time>2020-08-02T08:06:25Z</time>
      </trkpt>
      <trkpt lat="47.28991" lon="-0.43205">
        <ele>73.2</ele>
        <time>2020-08-02T08:06:26Z</time>
      </trkpt>
      <trkpt lat="47.28995" lon="-0.43202">
        <ele>73.2</ele>
        <time>2020-08-02T08:06:27Z</time>
      </trkpt>
      <trkpt lat="47.29" lon="-0.43198">
        <ele>73.2</ele>
        <time>2020-08-02T08:06:28Z</time>
      </trkpt>
      <trkpt lat="47.2902" lon="-0.43183">
        <ele>73.2</ele>
        <time>2020-08-02T08:06:33Z</time>
      </trkpt>
      <trkpt lat="47.29037" lon="-0.43166">
        <ele>73.4</ele>
        <time>2020-08-02T08:06:37Z</time>
      </trkpt>
      <trkpt lat="47.29054" lon="-0.43149">
        <ele>72.8</ele>
        <time>2020-08-02T08:06:41Z</time>
      </trkpt>
      <trkpt lat="47.29074" lon="-0.4313">
        <ele>72.2</ele>
        <time>2020-08-02T08:06:46Z</time>
      </trkpt>
      <trkpt lat="47.29078" lon="-0.43126">
        <ele>72.2</ele>
        <time>2020-08-02T08:06:47Z</time>
      </trkpt>
      <trkpt lat="47.29081" lon="-0.43123">
        <ele>72.2</ele>
        <time>2020-08-02T08:06:48Z</time>
      </trkpt>
      <trkpt lat="47.29084" lon="-0.4312">
        <ele>72.2</ele>
        <time>2020-08-02T08:06:49Z</time>
      </trkpt>
      <trkpt lat="47.29088" lon="-0.43117">
        <ele>72.4</ele>
        <time>2020-08-02T08:06:50Z</time>
      </trkpt>
      <trkpt lat="47.29092" lon="-0.43113">
        <ele>72.6</ele>
        <time>2020-08-02T08:06:51Z</time>
      </trkpt>
      <trkpt lat="47.29096" lon="-0.43109">
        <ele>72.6</ele>
        <time>2020-08-02T08:06:52Z</time>
      </trkpt>
      <trkpt lat="47.29099" lon="-0.43106">
        <ele>73</ele>
        <time>2020-08-02T08:06:53Z</time>
      </trkpt>
      <trkpt lat="47.29102" lon="-0.43103">
        <ele>73.2</ele>
        <time>2020-08-02T08:06:54Z</time>
      </trkpt>
      <trkpt lat="47.29106" lon="-0.43099">
        <ele>73.4</ele>
        <time>2020-08-02T08:06:55Z</time>
      </trkpt>
      <trkpt lat="47.2911" lon="-0.43096">
        <ele>73.8</ele>
        <time>2020-08-02T08:06:56Z</time>
      </trkpt>
      <trkpt lat="47.29113" lon="-0.43093">
        <ele>74</ele>
        <time>2020-08-02T08:06:57Z</time>
      </trkpt>
      <trkpt lat="47.29116" lon="-0.4309">
        <ele>74.2</ele>
        <time>2020-08-02T08:06:58Z</time>
      </trkpt>
      <trkpt lat="47.29119" lon="-0.43087">
        <ele>74.4</ele>
        <time>2020-08-02T08:06:59Z</time>
      </trkpt>
      <trkpt lat="47.29123" lon="-0.43083">
        <ele>74.4</ele>
        <time>2020-08-02T08:07:00Z</time>
      </trkpt>
      <trkpt lat="47.29127" lon="-0.4308">
        <ele>74.6</ele>
        <time>2020-08-02T08:07:01Z</time>
      </trkpt>
      <trkpt lat="47.29131" lon="-0.43076">
        <ele>74.8</ele>
        <time>2020-08-02T08:07:02Z</time>
      </trkpt>
      <trkpt lat="47.29134" lon="-0.43074">
        <ele>74.8</ele>
        <time>2020-08-02T08:07:03Z</time>
      </trkpt>
      <trkpt lat="47.29138" lon="-0.4307">
        <ele>74.8</ele>
        <time>2020-08-02T08:07:04Z</time>
      </trkpt>
      <trkpt lat="47.29142" lon="-0.43067">
        <ele>74.8</ele>
        <time>2020-08-02T08:07:05Z</time>
      </trkpt>
      <trkpt lat="47.29146" lon="-0.43065">
        <ele>74.8</ele>
        <time>2020-08-02T08:07:06Z</time>
      </trkpt>
      <trkpt lat="47.2915" lon="-0.43062">
        <ele>74.8</ele>
        <time>2020-08-02T08:07:07Z</time>
      </trkpt>
      <trkpt lat="47.29158" lon="-0.43057">
        <ele>74.8</ele>
        <time>2020-08-02T08:07:09Z</time>
      </trkpt>
      <trkpt lat="47.29192" lon="-0.43036">
        <ele>74.8</ele>
        <time>2020-08-02T08:07:17Z</time>
      </trkpt>
      <trkpt lat="47.29224" lon="-0.43015">
        <ele>75</ele>
        <time>2020-08-02T08:07:25Z</time>
      </trkpt>
      <trkpt lat="47.29229" lon="-0.43013">
        <ele>75</ele>
        <time>2020-08-02T08:07:26Z</time>
      </trkpt>
      <trkpt lat="47.29233" lon="-0.4301">
        <ele>75</ele>
        <time>2020-08-02T08:07:27Z</time>
      </trkpt>
      <trkpt lat="47.29255" lon="-0.42997">
        <ele>75</ele>
        <time>2020-08-02T08:07:32Z</time>
      </trkpt>
      <trkpt lat="47.2926" lon="-0.42994">
        <ele>74.8</ele>
        <time>2020-08-02T08:07:33Z</time>
      </trkpt>
      <trkpt lat="47.29294" lon="-0.42972">
        <ele>74.4</ele>
        <time>2020-08-02T08:07:41Z</time>
      </trkpt>
      <trkpt lat="47.29299" lon="-0.42969">
        <ele>74.2</ele>
        <time>2020-08-02T08:07:42Z</time>
      </trkpt>
      <trkpt lat="47.29303" lon="-0.42966">
        <ele>74</ele>
        <time>2020-08-02T08:07:43Z</time>
      </trkpt>
      <trkpt lat="47.29307" lon="-0.42963">
        <ele>74</ele>
        <time>2020-08-02T08:07:44Z</time>
      </trkpt>
      <trkpt lat="47.29311" lon="-0.42961">
        <ele>74</ele>
        <time>2020-08-02T08:07:45Z</time>
      </trkpt>
      <trkpt lat="47.29316" lon="-0.42958">
        <ele>73.8</ele>
        <time>2020-08-02T08:07:46Z</time>
      </trkpt>
      <trkpt lat="47.2932" lon="-0.42955">
        <ele>73.8</ele>
        <time>2020-08-02T08:07:47Z</time>
      </trkpt>
      <trkpt lat="47.29347" lon="-0.42937">
        <ele>73.4</ele>
        <time>2020-08-02T08:07:53Z</time>
      </trkpt>
      <trkpt lat="47.29379" lon="-0.42917">
        <ele>73.6</ele>
        <time>2020-08-02T08:08:00Z</time>
      </trkpt>
      <trkpt lat="47.29392" lon="-0.42909">
        <ele>73.2</ele>
        <time>2020-08-02T08:08:03Z</time>
      </trkpt>
      <trkpt lat="47.29402" lon="-0.42903">
        <ele>72.8</ele>
        <time>2020-08-02T08:08:05Z</time>
      </trkpt>
      <trkpt lat="47.29425" lon="-0.42888">
        <ele>72.6</ele>
        <time>2020-08-02T08:08:10Z</time>
      </trkpt>
      <trkpt lat="47.29429" lon="-0.42885">
        <ele>72.6</ele>
        <time>2020-08-02T08:08:11Z</time>
      </trkpt>
      <trkpt lat="47.29434" lon="-0.42882">
        <ele>72.6</ele>
        <time>2020-08-02T08:08:12Z</time>
      </trkpt>
      <trkpt lat="47.29438" lon="-0.42879">
        <ele>72.6</ele>
        <time>2020-08-02T08:08:13Z</time>
      </trkpt>
      <trkpt lat="47.29442" lon="-0.42876">
        <ele>72.6</ele>
        <time>2020-08-02T08:08:14Z</time>
      </trkpt>
      <trkpt lat="47.29447" lon="-0.42874">
        <ele>72.6</ele>
        <time>2020-08-02T08:08:15Z</time>
      </trkpt>
      <trkpt lat="47.29451" lon="-0.42871">
        <ele>72.6</ele>
        <time>2020-08-02T08:08:16Z</time>
      </trkpt>
      <trkpt lat="47.29455" lon="-0.42868">
        <ele>72.6</ele>
        <time>2020-08-02T08:08:17Z</time>
      </trkpt>
      <trkpt lat="47.2946" lon="-0.42865">
        <ele>72.6</ele>
        <time>2020-08-02T08:08:18Z</time>
      </trkpt>
      <trkpt lat="47.29464" lon="-0.42862">
        <ele>72.6</ele>
        <time>2020-08-02T08:08:19Z</time>
      </trkpt>
      <trkpt lat="47.29469" lon="-0.42859">
        <ele>72.6</ele>
        <time>2020-08-02T08:08:20Z</time>
      </trkpt>
      <trkpt lat="47.29483" lon="-0.4285">
        <ele>72.8</ele>
        <time>2020-08-02T08:08:23Z</time>
      </trkpt>
      <trkpt lat="47.29523" lon="-0.42823">
        <ele>72.4</ele>
        <time>2020-08-02T08:08:32Z</time>
      </trkpt>
      <trkpt lat="47.2956" lon="-0.42799">
        <ele>72.2</ele>
        <time>2020-08-02T08:08:40Z</time>
      </trkpt>
      <trkpt lat="47.2957" lon="-0.42793">
        <ele>72</ele>
        <time>2020-08-02T08:08:42Z</time>
      </trkpt>
      <trkpt lat="47.29575" lon="-0.4279">
        <ele>72</ele>
        <time>2020-08-02T08:08:43Z</time>
      </trkpt>
      <trkpt lat="47.29579" lon="-0.42787">
        <ele>72</ele>
        <time>2020-08-02T08:08:44Z</time>
      </trkpt>
      <trkpt lat="47.29583" lon="-0.42785">
        <ele>71.8</ele>
        <time>2020-08-02T08:08:45Z</time>
      </trkpt>
      <trkpt lat="47.29588" lon="-0.42782">
        <ele>71.6</ele>
        <time>2020-08-02T08:08:46Z</time>
      </trkpt>
      <trkpt lat="47.29592" lon="-0.4278">
        <ele>71.6</ele>
        <time>2020-08-02T08:08:47Z</time>
      </trkpt>
      <trkpt lat="47.29595" lon="-0.42777">
        <ele>71.6</ele>
        <time>2020-08-02T08:08:48Z</time>
      </trkpt>
      <trkpt lat="47.29599" lon="-0.42774">
        <ele>71.6</ele>
        <time>2020-08-02T08:08:49Z</time>
      </trkpt>
      <trkpt lat="47.29603" lon="-0.42772">
        <ele>71.6</ele>
        <time>2020-08-02T08:08:50Z</time>
      </trkpt>
      <trkpt lat="47.29606" lon="-0.42768">
        <ele>71.6</ele>
        <time>2020-08-02T08:08:51Z</time>
      </trkpt>
      <trkpt lat="47.29608" lon="-0.42764">
        <ele>71.6</ele>
        <time>2020-08-02T08:08:52Z</time>
      </trkpt>
      <trkpt lat="47.29608" lon="-0.42759">
        <ele>71.6</ele>
        <time>2020-08-02T08:08:53Z</time>
      </trkpt>
      <trkpt lat="47.29607" lon="-0.42754">
        <ele>71.4</ele>
        <time>2020-08-02T08:08:54Z</time>
      </trkpt>
      <trkpt lat="47.29606" lon="-0.4275">
        <ele>71.4</ele>
        <time>2020-08-02T08:08:55Z</time>
      </trkpt>
      <trkpt lat="47.29604" lon="-0.42746">
        <ele>71.4</ele>
        <time>2020-08-02T08:08:56Z</time>
      </trkpt>
      <trkpt lat="47.29603" lon="-0.42742">
        <ele>71.4</ele>
        <time>2020-08-02T08:08:57Z</time>
      </trkpt>
      <trkpt lat="47.29586" lon="-0.42701">
        <ele>71.2</ele>
        <time>2020-08-02T08:09:05Z</time>
      </trkpt>
      <trkpt lat="47.29573" lon="-0.42661">
        <ele>71.2</ele>
        <time>2020-08-02T08:09:12Z</time>
      </trkpt>
      <trkpt lat="47.29562" lon="-0.42606">
        <ele>71</ele>
        <time>2020-08-02T08:09:21Z</time>
      </trkpt>
      <trkpt lat="47.2955" lon="-0.42555">
        <ele>71</ele>
        <time>2020-08-02T08:09:29Z</time>
      </trkpt>
      <trkpt lat="47.29546" lon="-0.42537">
        <ele>71.2</ele>
        <time>2020-08-02T08:09:32Z</time>
      </trkpt>
      <trkpt lat="47.29544" lon="-0.42531">
        <ele>71.2</ele>
        <time>2020-08-02T08:09:33Z</time>
      </trkpt>
      <trkpt lat="47.29543" lon="-0.42525">
        <ele>71.2</ele>
        <time>2020-08-02T08:09:34Z</time>
      </trkpt>
      <trkpt lat="47.29541" lon="-0.4252">
        <ele>71</ele>
        <time>2020-08-02T08:09:35Z</time>
      </trkpt>
      <trkpt lat="47.29539" lon="-0.42515">
        <ele>71</ele>
        <time>2020-08-02T08:09:36Z</time>
      </trkpt>
      <trkpt lat="47.29538" lon="-0.42509">
        <ele>71</ele>
        <time>2020-08-02T08:09:37Z</time>
      </trkpt>
      <trkpt lat="47.29536" lon="-0.42504">
        <ele>70.8</ele>
        <time>2020-08-02T08:09:38Z</time>
      </trkpt>
      <trkpt lat="47.29534" lon="-0.42499">
        <ele>70.6</ele>
        <time>2020-08-02T08:09:39Z</time>
      </trkpt>
      <trkpt lat="47.29532" lon="-0.42494">
        <ele>70.6</ele>
        <time>2020-08-02T08:09:40Z</time>
      </trkpt>
      <trkpt lat="47.2953" lon="-0.4249">
        <ele>70.4</ele>
        <time>2020-08-02T08:09:41Z</time>
      </trkpt>
      <trkpt lat="47.29528" lon="-0.42485">
        <ele>70.2</ele>
        <time>2020-08-02T08:09:42Z</time>
      </trkpt>
      <trkpt lat="47.29526" lon="-0.42481">
        <ele>70</ele>
        <time>2020-08-02T08:09:43Z</time>
      </trkpt>
      <trkpt lat="47.29523" lon="-0.42477">
        <ele>70</ele>
        <time>2020-08-02T08:09:44Z</time>
      </trkpt>
      <trkpt lat="47.2952" lon="-0.42475">
        <ele>69.8</ele>
        <time>2020-08-02T08:09:45Z</time>
      </trkpt>
      <trkpt lat="47.29518" lon="-0.42474">
        <ele>69.6</ele>
        <time>2020-08-02T08:09:46Z</time>
      </trkpt>
      <trkpt lat="47.29514" lon="-0.42474">
        <ele>69.6</ele>
        <time>2020-08-02T08:09:47Z</time>
      </trkpt>
      <trkpt lat="47.2951" lon="-0.42474">
        <ele>69.4</ele>
        <time>2020-08-02T08:09:48Z</time>
      </trkpt>
      <trkpt lat="47.29507" lon="-0.42475">
        <ele>69.4</ele>
        <time>2020-08-02T08:09:49Z</time>
      </trkpt>
      <trkpt lat="47.29503" lon="-0.42477">
        <ele>69.4</ele>
        <time>2020-08-02T08:09:50Z</time>
      </trkpt>
      <trkpt lat="47.295" lon="-0.42478">
        <ele>69.4</ele>
        <time>2020-08-02T08:09:51Z</time>
      </trkpt>
      <trkpt lat="47.29496" lon="-0.4248">
        <ele>69.4</ele>
        <time>2020-08-02T08:09:52Z</time>
      </trkpt>
      <trkpt lat="47.29483" lon="-0.42485">
        <ele>69.2</ele>
        <time>2020-08-02T08:09:55Z</time>
      </trkpt>
      <trkpt lat="47.29471" lon="-0.42486">
        <ele>69.2</ele>
        <time>2020-08-02T08:09:58Z</time>
      </trkpt>
      <trkpt lat="47.29466" lon="-0.42484">
        <ele>69.2</ele>
        <time>2020-08-02T08:09:59Z</time>
      </trkpt>
      <trkpt lat="47.29462" lon="-0.42481">
        <ele>69.2</ele>
        <time>2020-08-02T08:10:00Z</time>
      </trkpt>
      <trkpt lat="47.29459" lon="-0.42477">
        <ele>69.2</ele>
        <time>2020-08-02T08:10:01Z</time>
      </trkpt>
      <trkpt lat="47.29456" lon="-0.42471">
        <ele>69.2</ele>
        <time>2020-08-02T08:10:02Z</time>
      </trkpt>
      <trkpt lat="47.29454" lon="-0.42464">
        <ele>69.2</ele>
        <time>2020-08-02T08:10:03Z</time>
      </trkpt>
      <trkpt lat="47.29453" lon="-0.42457">
        <ele>69.2</ele>
        <time>2020-08-02T08:10:04Z</time>
      </trkpt>
      <trkpt lat="47.29441" lon="-0.4241">
        <ele>69.2</ele>
        <time>2020-08-02T08:10:11Z</time>
      </trkpt>
      <trkpt lat="47.29434" lon="-0.42383">
        <ele>68.8</ele>
        <time>2020-08-02T08:10:15Z</time>
      </trkpt>
      <trkpt lat="47.29432" lon="-0.42375">
        <ele>68.8</ele>
        <time>2020-08-02T08:10:16Z</time>
      </trkpt>
      <trkpt lat="47.29431" lon="-0.42369">
        <ele>68.6</ele>
        <time>2020-08-02T08:10:17Z</time>
      </trkpt>
      <trkpt lat="47.29429" lon="-0.42362">
        <ele>68.6</ele>
        <time>2020-08-02T08:10:18Z</time>
      </trkpt>
      <trkpt lat="47.29428" lon="-0.42357">
        <ele>68.4</ele>
        <time>2020-08-02T08:10:19Z</time>
      </trkpt>
      <trkpt lat="47.29427" lon="-0.42351">
        <ele>68.4</ele>
        <time>2020-08-02T08:10:20Z</time>
      </trkpt>
      <trkpt lat="47.29425" lon="-0.42343">
        <ele>68.2</ele>
        <time>2020-08-02T08:10:21Z</time>
      </trkpt>
      <trkpt lat="47.29423" lon="-0.42337">
        <ele>68.2</ele>
        <time>2020-08-02T08:10:22Z</time>
      </trkpt>
      <trkpt lat="47.29422" lon="-0.42331">
        <ele>68</ele>
        <time>2020-08-02T08:10:23Z</time>
      </trkpt>
      <trkpt lat="47.29421" lon="-0.42326">
        <ele>68</ele>
        <time>2020-08-02T08:10:24Z</time>
      </trkpt>
      <trkpt lat="47.29419" lon="-0.4232">
        <ele>68</ele>
        <time>2020-08-02T08:10:25Z</time>
      </trkpt>
      <trkpt lat="47.29417" lon="-0.42314">
        <ele>67.8</ele>
        <time>2020-08-02T08:10:26Z</time>
      </trkpt>
      <trkpt lat="47.29416" lon="-0.42308">
        <ele>67.8</ele>
        <time>2020-08-02T08:10:27Z</time>
      </trkpt>
      <trkpt lat="47.29414" lon="-0.42302">
        <ele>67.8</ele>
        <time>2020-08-02T08:10:28Z</time>
      </trkpt>
      <trkpt lat="47.29413" lon="-0.42295">
        <ele>67.8</ele>
        <time>2020-08-02T08:10:29Z</time>
      </trkpt>
      <trkpt lat="47.29411" lon="-0.42289">
        <ele>67.6</ele>
        <time>2020-08-02T08:10:30Z</time>
      </trkpt>
      <trkpt lat="47.29409" lon="-0.42283">
        <ele>67.4</ele>
        <time>2020-08-02T08:10:31Z</time>
      </trkpt>
      <trkpt lat="47.29407" lon="-0.42275">
        <ele>67.2</ele>
        <time>2020-08-02T08:10:32Z</time>
      </trkpt>
      <trkpt lat="47.29406" lon="-0.4227">
        <ele>67.2</ele>
        <time>2020-08-02T08:10:33Z</time>
      </trkpt>
      <trkpt lat="47.29401" lon="-0.42252">
        <ele>66.8</ele>
        <time>2020-08-02T08:10:36Z</time>
      </trkpt>
      <trkpt lat="47.29399" lon="-0.42246">
        <ele>66.8</ele>
        <time>2020-08-02T08:10:37Z</time>
      </trkpt>
      <trkpt lat="47.29398" lon="-0.4224">
        <ele>66.4</ele>
        <time>2020-08-02T08:10:38Z</time>
      </trkpt>
      <trkpt lat="47.29396" lon="-0.42234">
        <ele>66</ele>
        <time>2020-08-02T08:10:39Z</time>
      </trkpt>
      <trkpt lat="47.29394" lon="-0.42228">
        <ele>66</ele>
        <time>2020-08-02T08:10:40Z</time>
      </trkpt>
      <trkpt lat="47.29393" lon="-0.42221">
        <ele>65.8</ele>
        <time>2020-08-02T08:10:41Z</time>
      </trkpt>
      <trkpt lat="47.29391" lon="-0.42215">
        <ele>65.8</ele>
        <time>2020-08-02T08:10:42Z</time>
      </trkpt>
      <trkpt lat="47.2939" lon="-0.42209">
        <ele>65.6</ele>
        <time>2020-08-02T08:10:43Z</time>
      </trkpt>
      <trkpt lat="47.29388" lon="-0.42203">
        <ele>65.6</ele>
        <time>2020-08-02T08:10:44Z</time>
      </trkpt>
      <trkpt lat="47.29386" lon="-0.42195">
        <ele>65.4</ele>
        <time>2020-08-02T08:10:45Z</time>
      </trkpt>
      <trkpt lat="47.29384" lon="-0.42189">
        <ele>65.4</ele>
        <time>2020-08-02T08:10:46Z</time>
      </trkpt>
      <trkpt lat="47.29383" lon="-0.42182">
        <ele>65.4</ele>
        <time>2020-08-02T08:10:47Z</time>
      </trkpt>
      <trkpt lat="47.29383" lon="-0.42177">
        <ele>65.4</ele>
        <time>2020-08-02T08:10:48Z</time>
      </trkpt>
      <trkpt lat="47.29385" lon="-0.42171">
        <ele>65.4</ele>
        <time>2020-08-02T08:10:49Z</time>
      </trkpt>
      <trkpt lat="47.29388" lon="-0.42166">
        <ele>65.6</ele>
        <time>2020-08-02T08:10:50Z</time>
      </trkpt>
      <trkpt lat="47.29392" lon="-0.42163">
        <ele>65.6</ele>
        <time>2020-08-02T08:10:51Z</time>
      </trkpt>
      <trkpt lat="47.29397" lon="-0.4216">
        <ele>65.6</ele>
        <time>2020-08-02T08:10:52Z</time>
      </trkpt>
      <trkpt lat="47.294" lon="-0.42159">
        <ele>65.6</ele>
        <time>2020-08-02T08:10:53Z</time>
      </trkpt>
      <trkpt lat="47.29405" lon="-0.42156">
        <ele>65.6</ele>
        <time>2020-08-02T08:10:54Z</time>
      </trkpt>
      <trkpt lat="47.2941" lon="-0.42152">
        <ele>65.4</ele>
        <time>2020-08-02T08:10:55Z</time>
      </trkpt>
      <trkpt lat="47.29415" lon="-0.42149">
        <ele>65.6</ele>
        <time>2020-08-02T08:10:56Z</time>
      </trkpt>
      <trkpt lat="47.2942" lon="-0.42146">
        <ele>65.6</ele>
        <time>2020-08-02T08:10:57Z</time>
      </trkpt>
      <trkpt lat="47.29429" lon="-0.42141">
        <ele>65.4</ele>
        <time>2020-08-02T08:10:59Z</time>
      </trkpt>
      <trkpt lat="47.29438" lon="-0.42136">
        <ele>65.4</ele>
        <time>2020-08-02T08:11:01Z</time>
      </trkpt>
      <trkpt lat="47.29447" lon="-0.42132">
        <ele>65.2</ele>
        <time>2020-08-02T08:11:03Z</time>
      </trkpt>
      <trkpt lat="47.29452" lon="-0.42129">
        <ele>65.2</ele>
        <time>2020-08-02T08:11:04Z</time>
      </trkpt>
      <trkpt lat="47.29456" lon="-0.42127">
        <ele>65.2</ele>
        <time>2020-08-02T08:11:05Z</time>
      </trkpt>
      <trkpt lat="47.2946" lon="-0.42125">
        <ele>65.2</ele>
        <time>2020-08-02T08:11:06Z</time>
      </trkpt>
      <trkpt lat="47.29464" lon="-0.42124">
        <ele>65.2</ele>
        <time>2020-08-02T08:11:07Z</time>
      </trkpt>
      <trkpt lat="47.29469" lon="-0.42122">
        <ele>65.2</ele>
        <time>2020-08-02T08:11:08Z</time>
      </trkpt>
      <trkpt lat="47.29474" lon="-0.4212">
        <ele>65.2</ele>
        <time>2020-08-02T08:11:09Z</time>
      </trkpt>
      <trkpt lat="47.29478" lon="-0.42119">
        <ele>65.4</ele>
        <time>2020-08-02T08:11:10Z</time>
      </trkpt>
      <trkpt lat="47.29483" lon="-0.42117">
        <ele>65.4</ele>
        <time>2020-08-02T08:11:11Z</time>
      </trkpt>
      <trkpt lat="47.29487" lon="-0.42116">
        <ele>65.6</ele>
        <time>2020-08-02T08:11:12Z</time>
      </trkpt>
      <trkpt lat="47.29492" lon="-0.42116">
        <ele>65.6</ele>
        <time>2020-08-02T08:11:13Z</time>
      </trkpt>
      <trkpt lat="47.29497" lon="-0.42116">
        <ele>65.8</ele>
        <time>2020-08-02T08:11:14Z</time>
      </trkpt>
      <trkpt lat="47.29502" lon="-0.42116">
        <ele>65.8</ele>
        <time>2020-08-02T08:11:15Z</time>
      </trkpt>
      <trkpt lat="47.29506" lon="-0.42115">
        <ele>65.8</ele>
        <time>2020-08-02T08:11:16Z</time>
      </trkpt>
      <trkpt lat="47.29511" lon="-0.42115">
        <ele>65.8</ele>
        <time>2020-08-02T08:11:17Z</time>
      </trkpt>
      <trkpt lat="47.29515" lon="-0.42115">
        <ele>65.8</ele>
        <time>2020-08-02T08:11:18Z</time>
      </trkpt>
      <trkpt lat="47.29521" lon="-0.42115">
        <ele>66</ele>
        <time>2020-08-02T08:11:19Z</time>
      </trkpt>
      <trkpt lat="47.29524" lon="-0.42115">
        <ele>66</ele>
        <time>2020-08-02T08:11:20Z</time>
      </trkpt>
      <trkpt lat="47.2953" lon="-0.42115">
        <ele>66</ele>
        <time>2020-08-02T08:11:21Z</time>
      </trkpt>
      <trkpt lat="47.29534" lon="-0.42115">
        <ele>65.8</ele>
        <time>2020-08-02T08:11:22Z</time>
      </trkpt>
      <trkpt lat="47.29537" lon="-0.42114">
        <ele>65.8</ele>
        <time>2020-08-02T08:11:23Z</time>
      </trkpt>
      <trkpt lat="47.29542" lon="-0.42114">
        <ele>65.8</ele>
        <time>2020-08-02T08:11:24Z</time>
      </trkpt>
      <trkpt lat="47.29547" lon="-0.42112">
        <ele>65.8</ele>
        <time>2020-08-02T08:11:25Z</time>
      </trkpt>
      <trkpt lat="47.29551" lon="-0.4211">
        <ele>65.8</ele>
        <time>2020-08-02T08:11:26Z</time>
      </trkpt>
      <trkpt lat="47.29556" lon="-0.42109">
        <ele>65.6</ele>
        <time>2020-08-02T08:11:27Z</time>
      </trkpt>
      <trkpt lat="47.29569" lon="-0.42105">
        <ele>65.6</ele>
        <time>2020-08-02T08:11:30Z</time>
      </trkpt>
      <trkpt lat="47.29573" lon="-0.42103">
        <ele>65.6</ele>
        <time>2020-08-02T08:11:31Z</time>
      </trkpt>
      <trkpt lat="47.29581" lon="-0.42099">
        <ele>65.6</ele>
        <time>2020-08-02T08:11:33Z</time>
      </trkpt>
      <trkpt lat="47.29613" lon="-0.42081">
        <ele>65.8</ele>
        <time>2020-08-02T08:11:40Z</time>
      </trkpt>
      <trkpt lat="47.2962" lon="-0.42077">
        <ele>65.8</ele>
        <time>2020-08-02T08:11:42Z</time>
      </trkpt>
      <trkpt lat="47.29646" lon="-0.42063">
        <ele>65.4</ele>
        <time>2020-08-02T08:11:48Z</time>
      </trkpt>
      <trkpt lat="47.29651" lon="-0.42061">
        <ele>65.4</ele>
        <time>2020-08-02T08:11:49Z</time>
      </trkpt>
      <trkpt lat="47.29654" lon="-0.42058">
        <ele>65.4</ele>
        <time>2020-08-02T08:11:50Z</time>
      </trkpt>
      <trkpt lat="47.29657" lon="-0.42054">
        <ele>65.4</ele>
        <time>2020-08-02T08:11:51Z</time>
      </trkpt>
      <trkpt lat="47.29658" lon="-0.42051">
        <ele>65.4</ele>
        <time>2020-08-02T08:11:52Z</time>
      </trkpt>
      <trkpt lat="47.29659" lon="-0.42045">
        <ele>65.4</ele>
        <time>2020-08-02T08:11:53Z</time>
      </trkpt>
      <trkpt lat="47.29658" lon="-0.42039">
        <ele>65.4</ele>
        <time>2020-08-02T08:11:54Z</time>
      </trkpt>
      <trkpt lat="47.29657" lon="-0.42034">
        <ele>65.4</ele>
        <time>2020-08-02T08:11:55Z</time>
      </trkpt>
      <trkpt lat="47.29656" lon="-0.42029">
        <ele>65.4</ele>
        <time>2020-08-02T08:11:56Z</time>
      </trkpt>
      <trkpt lat="47.29654" lon="-0.42025">
        <ele>65.4</ele>
        <time>2020-08-02T08:11:57Z</time>
      </trkpt>
      <trkpt lat="47.29652" lon="-0.42019">
        <ele>65.2</ele>
        <time>2020-08-02T08:11:58Z</time>
      </trkpt>
      <trkpt lat="47.2965" lon="-0.42013">
        <ele>65.2</ele>
        <time>2020-08-02T08:11:59Z</time>
      </trkpt>
      <trkpt lat="47.29648" lon="-0.42008">
        <ele>65.2</ele>
        <time>2020-08-02T08:12:00Z</time>
      </trkpt>
      <trkpt lat="47.29646" lon="-0.42002">
        <ele>65.2</ele>
        <time>2020-08-02T08:12:01Z</time>
      </trkpt>
      <trkpt lat="47.29645" lon="-0.41998">
        <ele>65.2</ele>
        <time>2020-08-02T08:12:02Z</time>
      </trkpt>
      <trkpt lat="47.29642" lon="-0.41991">
        <ele>65.2</ele>
        <time>2020-08-02T08:12:03Z</time>
      </trkpt>
      <trkpt lat="47.29638" lon="-0.41978">
        <ele>65.2</ele>
        <time>2020-08-02T08:12:05Z</time>
      </trkpt>
      <trkpt lat="47.29635" lon="-0.41973">
        <ele>65.2</ele>
        <time>2020-08-02T08:12:06Z</time>
      </trkpt>
      <trkpt lat="47.29631" lon="-0.4196">
        <ele>65.2</ele>
        <time>2020-08-02T08:12:08Z</time>
      </trkpt>
      <trkpt lat="47.29608" lon="-0.41907">
        <ele>66</ele>
        <time>2020-08-02T08:12:17Z</time>
      </trkpt>
      <trkpt lat="47.29595" lon="-0.41878">
        <ele>66</ele>
        <time>2020-08-02T08:12:22Z</time>
      </trkpt>
      <trkpt lat="47.29593" lon="-0.41873">
        <ele>66</ele>
        <time>2020-08-02T08:12:23Z</time>
      </trkpt>
      <trkpt lat="47.29587" lon="-0.41861">
        <ele>66</ele>
        <time>2020-08-02T08:12:25Z</time>
      </trkpt>
      <trkpt lat="47.29585" lon="-0.41855">
        <ele>66</ele>
        <time>2020-08-02T08:12:26Z</time>
      </trkpt>
      <trkpt lat="47.29583" lon="-0.4185">
        <ele>66</ele>
        <time>2020-08-02T08:12:27Z</time>
      </trkpt>
      <trkpt lat="47.2958" lon="-0.41844">
        <ele>66.2</ele>
        <time>2020-08-02T08:12:28Z</time>
      </trkpt>
      <trkpt lat="47.29578" lon="-0.41838">
        <ele>66.2</ele>
        <time>2020-08-02T08:12:29Z</time>
      </trkpt>
      <trkpt lat="47.29575" lon="-0.41832">
        <ele>66.2</ele>
        <time>2020-08-02T08:12:30Z</time>
      </trkpt>
      <trkpt lat="47.29573" lon="-0.41827">
        <ele>66.4</ele>
        <time>2020-08-02T08:12:31Z</time>
      </trkpt>
      <trkpt lat="47.2957" lon="-0.41821">
        <ele>66.6</ele>
        <time>2020-08-02T08:12:32Z</time>
      </trkpt>
      <trkpt lat="47.29565" lon="-0.41809">
        <ele>66.8</ele>
        <time>2020-08-02T08:12:34Z</time>
      </trkpt>
      <trkpt lat="47.2956" lon="-0.41798">
        <ele>67</ele>
        <time>2020-08-02T08:12:36Z</time>
      </trkpt>
      <trkpt lat="47.29558" lon="-0.41792">
        <ele>67</ele>
        <time>2020-08-02T08:12:37Z</time>
      </trkpt>
      <trkpt lat="47.29555" lon="-0.41786">
        <ele>67.2</ele>
        <time>2020-08-02T08:12:38Z</time>
      </trkpt>
      <trkpt lat="47.29553" lon="-0.41781">
        <ele>67.2</ele>
        <time>2020-08-02T08:12:39Z</time>
      </trkpt>
      <trkpt lat="47.29535" lon="-0.41737">
        <ele>68</ele>
        <time>2020-08-02T08:12:46Z</time>
      </trkpt>
      <trkpt lat="47.29525" lon="-0.41714">
        <ele>68.2</ele>
        <time>2020-08-02T08:12:50Z</time>
      </trkpt>
      <trkpt lat="47.29523" lon="-0.41708">
        <ele>68.2</ele>
        <time>2020-08-02T08:12:51Z</time>
      </trkpt>
      <trkpt lat="47.29521" lon="-0.41702">
        <ele>68.2</ele>
        <time>2020-08-02T08:12:52Z</time>
      </trkpt>
      <trkpt lat="47.29518" lon="-0.41697">
        <ele>68.4</ele>
        <time>2020-08-02T08:12:53Z</time>
      </trkpt>
      <trkpt lat="47.29516" lon="-0.41692">
        <ele>68.4</ele>
        <time>2020-08-02T08:12:54Z</time>
      </trkpt>
      <trkpt lat="47.29513" lon="-0.41686">
        <ele>68.4</ele>
        <time>2020-08-02T08:12:55Z</time>
      </trkpt>
      <trkpt lat="47.29511" lon="-0.41681">
        <ele>68.4</ele>
        <time>2020-08-02T08:12:56Z</time>
      </trkpt>
      <trkpt lat="47.2951" lon="-0.41676">
        <ele>68.4</ele>
        <time>2020-08-02T08:12:57Z</time>
      </trkpt>
      <trkpt lat="47.29508" lon="-0.41671">
        <ele>68.4</ele>
        <time>2020-08-02T08:12:58Z</time>
      </trkpt>
      <trkpt lat="47.29508" lon="-0.41665">
        <ele>68.6</ele>
        <time>2020-08-02T08:12:59Z</time>
      </trkpt>
      <trkpt lat="47.2951" lon="-0.4166">
        <ele>68.6</ele>
        <time>2020-08-02T08:13:00Z</time>
      </trkpt>
      <trkpt lat="47.29513" lon="-0.41657">
        <ele>68.6</ele>
        <time>2020-08-02T08:13:01Z</time>
      </trkpt>
      <trkpt lat="47.29516" lon="-0.41657">
        <ele>68.6</ele>
        <time>2020-08-02T08:13:02Z</time>
      </trkpt>
      <trkpt lat="47.2952" lon="-0.41658">
        <ele>68.6</ele>
        <time>2020-08-02T08:13:03Z</time>
      </trkpt>
      <trkpt lat="47.29529" lon="-0.41662">
        <ele>68.6</ele>
        <time>2020-08-02T08:13:05Z</time>
      </trkpt>
      <trkpt lat="47.29547" lon="-0.41671">
        <ele>68.4</ele>
        <time>2020-08-02T08:13:09Z</time>
      </trkpt>
      <trkpt lat="47.29556" lon="-0.41675">
        <ele>68.2</ele>
        <time>2020-08-02T08:13:11Z</time>
      </trkpt>
      <trkpt lat="47.2958" lon="-0.41684">
        <ele>67.8</ele>
        <time>2020-08-02T08:13:16Z</time>
      </trkpt>
      <trkpt lat="47.296" lon="-0.41689">
        <ele>67.6</ele>
        <time>2020-08-02T08:13:20Z</time>
      </trkpt>
      <trkpt lat="47.29615" lon="-0.41695">
        <ele>67.4</ele>
        <time>2020-08-02T08:13:23Z</time>
      </trkpt>
      <trkpt lat="47.29649" lon="-0.41706">
        <ele>67</ele>
        <time>2020-08-02T08:13:30Z</time>
      </trkpt>
      <trkpt lat="47.29653" lon="-0.41707">
        <ele>67</ele>
        <time>2020-08-02T08:13:31Z</time>
      </trkpt>
      <trkpt lat="47.29658" lon="-0.41708">
        <ele>67</ele>
        <time>2020-08-02T08:13:32Z</time>
      </trkpt>
      <trkpt lat="47.29662" lon="-0.41709">
        <ele>66.8</ele>
        <time>2020-08-02T08:13:33Z</time>
      </trkpt>
      <trkpt lat="47.29667" lon="-0.4171">
        <ele>66.8</ele>
        <time>2020-08-02T08:13:34Z</time>
      </trkpt>
      <trkpt lat="47.29672" lon="-0.41711">
        <ele>66.8</ele>
        <time>2020-08-02T08:13:35Z</time>
      </trkpt>
      <trkpt lat="47.29676" lon="-0.41712">
        <ele>66.6</ele>
        <time>2020-08-02T08:13:36Z</time>
      </trkpt>
      <trkpt lat="47.2968" lon="-0.41713">
        <ele>66.6</ele>
        <time>2020-08-02T08:13:37Z</time>
      </trkpt>
      <trkpt lat="47.29684" lon="-0.41713">
        <ele>66.4</ele>
        <time>2020-08-02T08:13:38Z</time>
      </trkpt>
      <trkpt lat="47.29687" lon="-0.41713">
        <ele>66.4</ele>
        <time>2020-08-02T08:13:39Z</time>
      </trkpt>
      <trkpt lat="47.29691" lon="-0.41713">
        <ele>66.4</ele>
        <time>2020-08-02T08:13:40Z</time>
      </trkpt>
      <trkpt lat="47.29694" lon="-0.41712">
        <ele>66.2</ele>
        <time>2020-08-02T08:13:41Z</time>
      </trkpt>
      <trkpt lat="47.29697" lon="-0.41709">
        <ele>66.2</ele>
        <time>2020-08-02T08:13:42Z</time>
      </trkpt>
      <trkpt lat="47.29698" lon="-0.41704">
        <ele>66.2</ele>
        <time>2020-08-02T08:13:43Z</time>
      </trkpt>
      <trkpt lat="47.29698" lon="-0.41699">
        <ele>66.2</ele>
        <time>2020-08-02T08:13:44Z</time>
      </trkpt>
      <trkpt lat="47.29697" lon="-0.41692">
        <ele>66.2</ele>
        <time>2020-08-02T08:13:45Z</time>
      </trkpt>
      <trkpt lat="47.29695" lon="-0.41679">
        <ele>66.2</ele>
        <time>2020-08-02T08:13:47Z</time>
      </trkpt>
      <trkpt lat="47.29687" lon="-0.41625">
        <ele>66.6</ele>
        <time>2020-08-02T08:13:55Z</time>
      </trkpt>
      <trkpt lat="47.29686" lon="-0.41618">
        <ele>66.6</ele>
        <time>2020-08-02T08:13:56Z</time>
      </trkpt>
      <trkpt lat="47.29677" lon="-0.41563">
        <ele>67</ele>
        <time>2020-08-02T08:14:04Z</time>
      </trkpt>
      <trkpt lat="47.29676" lon="-0.41557">
        <ele>67.2</ele>
        <time>2020-08-02T08:14:05Z</time>
      </trkpt>
      <trkpt lat="47.29675" lon="-0.4155">
        <ele>67.2</ele>
        <time>2020-08-02T08:14:06Z</time>
      </trkpt>
      <trkpt lat="47.29674" lon="-0.41544">
        <ele>67.2</ele>
        <time>2020-08-02T08:14:07Z</time>
      </trkpt>
      <trkpt lat="47.29673" lon="-0.41537">
        <ele>67.4</ele>
        <time>2020-08-02T08:14:08Z</time>
      </trkpt>
      <trkpt lat="47.29672" lon="-0.41531">
        <ele>67.4</ele>
        <time>2020-08-02T08:14:09Z</time>
      </trkpt>
      <trkpt lat="47.29672" lon="-0.41525">
        <ele>67.4</ele>
        <time>2020-08-02T08:14:10Z</time>
      </trkpt>
      <trkpt lat="47.29671" lon="-0.4152">
        <ele>67.4</ele>
        <time>2020-08-02T08:14:11Z</time>
      </trkpt>
      <trkpt lat="47.29671" lon="-0.41514">
        <ele>67.4</ele>
        <time>2020-08-02T08:14:12Z</time>
      </trkpt>
      <trkpt lat="47.29672" lon="-0.41508">
        <ele>67.4</ele>
        <time>2020-08-02T08:14:13Z</time>
      </trkpt>
      <trkpt lat="47.29673" lon="-0.41502">
        <ele>67.4</ele>
        <time>2020-08-02T08:14:14Z</time>
      </trkpt>
      <trkpt lat="47.29675" lon="-0.41497">
        <ele>67.4</ele>
        <time>2020-08-02T08:14:15Z</time>
      </trkpt>
      <trkpt lat="47.29678" lon="-0.41491">
        <ele>67.4</ele>
        <time>2020-08-02T08:14:16Z</time>
      </trkpt>
      <trkpt lat="47.29681" lon="-0.41487">
        <ele>67.4</ele>
        <time>2020-08-02T08:14:17Z</time>
      </trkpt>
      <trkpt lat="47.29685" lon="-0.41481">
        <ele>67.4</ele>
        <time>2020-08-02T08:14:18Z</time>
      </trkpt>
      <trkpt lat="47.29688" lon="-0.41476">
        <ele>67.2</ele>
        <time>2020-08-02T08:14:19Z</time>
      </trkpt>
      <trkpt lat="47.29699" lon="-0.41452">
        <ele>67.2</ele>
        <time>2020-08-02T08:14:23Z</time>
      </trkpt>
      <trkpt lat="47.29701" lon="-0.41445">
        <ele>67.2</ele>
        <time>2020-08-02T08:14:24Z</time>
      </trkpt>
      <trkpt lat="47.29702" lon="-0.41439">
        <ele>67.2</ele>
        <time>2020-08-02T08:14:25Z</time>
      </trkpt>
      <trkpt lat="47.29703" lon="-0.41432">
        <ele>67.2</ele>
        <time>2020-08-02T08:14:26Z</time>
      </trkpt>
      <trkpt lat="47.29703" lon="-0.41425">
        <ele>67</ele>
        <time>2020-08-02T08:14:27Z</time>
      </trkpt>
      <trkpt lat="47.29702" lon="-0.41418">
        <ele>66.8</ele>
        <time>2020-08-02T08:14:28Z</time>
      </trkpt>
      <trkpt lat="47.29697" lon="-0.41373">
        <ele>66.8</ele>
        <time>2020-08-02T08:14:34Z</time>
      </trkpt>
      <trkpt lat="47.29698" lon="-0.41366">
        <ele>66.8</ele>
        <time>2020-08-02T08:14:35Z</time>
      </trkpt>
      <trkpt lat="47.29699" lon="-0.41358">
        <ele>66.8</ele>
        <time>2020-08-02T08:14:36Z</time>
      </trkpt>
      <trkpt lat="47.297" lon="-0.41351">
        <ele>66.8</ele>
        <time>2020-08-02T08:14:37Z</time>
      </trkpt>
      <trkpt lat="47.29703" lon="-0.41336">
        <ele>66.8</ele>
        <time>2020-08-02T08:14:39Z</time>
      </trkpt>
      <trkpt lat="47.29708" lon="-0.41316">
        <ele>66.8</ele>
        <time>2020-08-02T08:14:42Z</time>
      </trkpt>
      <trkpt lat="47.2971" lon="-0.41309">
        <ele>67</ele>
        <time>2020-08-02T08:14:43Z</time>
      </trkpt>
      <trkpt lat="47.29711" lon="-0.41302">
        <ele>67</ele>
        <time>2020-08-02T08:14:44Z</time>
      </trkpt>
      <trkpt lat="47.29713" lon="-0.41295">
        <ele>67</ele>
        <time>2020-08-02T08:14:45Z</time>
      </trkpt>
      <trkpt lat="47.29715" lon="-0.41289">
        <ele>67</ele>
        <time>2020-08-02T08:14:46Z</time>
      </trkpt>
      <trkpt lat="47.29717" lon="-0.41283">
        <ele>67</ele>
        <time>2020-08-02T08:14:47Z</time>
      </trkpt>
      <trkpt lat="47.29718" lon="-0.41277">
        <ele>67</ele>
        <time>2020-08-02T08:14:48Z</time>
      </trkpt>
      <trkpt lat="47.2972" lon="-0.4127">
        <ele>67</ele>
        <time>2020-08-02T08:14:49Z</time>
      </trkpt>
      <trkpt lat="47.29721" lon="-0.41264">
        <ele>67</ele>
        <time>2020-08-02T08:14:50Z</time>
      </trkpt>
      <trkpt lat="47.29723" lon="-0.41257">
        <ele>67</ele>
        <time>2020-08-02T08:14:51Z</time>
      </trkpt>
      <trkpt lat="47.29725" lon="-0.4125">
        <ele>67</ele>
        <time>2020-08-02T08:14:52Z</time>
      </trkpt>
      <trkpt lat="47.29727" lon="-0.41243">
        <ele>67</ele>
        <time>2020-08-02T08:14:53Z</time>
      </trkpt>
      <trkpt lat="47.29729" lon="-0.41237">
        <ele>67</ele>
        <time>2020-08-02T08:14:54Z</time>
      </trkpt>
      <trkpt lat="47.29731" lon="-0.41231">
        <ele>67</ele>
        <time>2020-08-02T08:14:55Z</time>
      </trkpt>
      <trkpt lat="47.29733" lon="-0.41225">
        <ele>67</ele>
        <time>2020-08-02T08:14:56Z</time>
      </trkpt>
      <trkpt lat="47.29735" lon="-0.41218">
        <ele>66.8</ele>
        <time>2020-08-02T08:14:57Z</time>
      </trkpt>
      <trkpt lat="47.29737" lon="-0.41212">
        <ele>66.8</ele>
        <time>2020-08-02T08:14:58Z</time>
      </trkpt>
      <trkpt lat="47.29738" lon="-0.41205">
        <ele>66.8</ele>
        <time>2020-08-02T08:14:59Z</time>
      </trkpt>
      <trkpt lat="47.29739" lon="-0.41198">
        <ele>66.8</ele>
        <time>2020-08-02T08:15:00Z</time>
      </trkpt>
      <trkpt lat="47.2974" lon="-0.41191">
        <ele>66.8</ele>
        <time>2020-08-02T08:15:01Z</time>
      </trkpt>
      <trkpt lat="47.2974" lon="-0.41183">
        <ele>66.8</ele>
        <time>2020-08-02T08:15:02Z</time>
      </trkpt>
      <trkpt lat="47.29741" lon="-0.41176">
        <ele>66.6</ele>
        <time>2020-08-02T08:15:03Z</time>
      </trkpt>
      <trkpt lat="47.2974" lon="-0.41168">
        <ele>66.6</ele>
        <time>2020-08-02T08:15:04Z</time>
      </trkpt>
      <trkpt lat="47.2974" lon="-0.41154">
        <ele>66.6</ele>
        <time>2020-08-02T08:15:06Z</time>
      </trkpt>
      <trkpt lat="47.2974" lon="-0.41147">
        <ele>66.6</ele>
        <time>2020-08-02T08:15:07Z</time>
      </trkpt>
      <trkpt lat="47.29739" lon="-0.41141">
        <ele>66.6</ele>
        <time>2020-08-02T08:15:08Z</time>
      </trkpt>
      <trkpt lat="47.29738" lon="-0.41133">
        <ele>66.6</ele>
        <time>2020-08-02T08:15:09Z</time>
      </trkpt>
      <trkpt lat="47.29737" lon="-0.41126">
        <ele>66.6</ele>
        <time>2020-08-02T08:15:10Z</time>
      </trkpt>
      <trkpt lat="47.29736" lon="-0.41121">
        <ele>66.6</ele>
        <time>2020-08-02T08:15:11Z</time>
      </trkpt>
      <trkpt lat="47.29735" lon="-0.41115">
        <ele>66.6</ele>
        <time>2020-08-02T08:15:12Z</time>
      </trkpt>
      <trkpt lat="47.29733" lon="-0.41108">
        <ele>66.6</ele>
        <time>2020-08-02T08:15:13Z</time>
      </trkpt>
      <trkpt lat="47.29732" lon="-0.41101">
        <ele>66.6</ele>
        <time>2020-08-02T08:15:14Z</time>
      </trkpt>
      <trkpt lat="47.29729" lon="-0.41089">
        <ele>66.6</ele>
        <time>2020-08-02T08:15:15Z</time>
      </trkpt>
      <trkpt lat="47.29727" lon="-0.41079">
        <ele>66.6</ele>
        <time>2020-08-02T08:15:16Z</time>
      </trkpt>
      <trkpt lat="47.29724" lon="-0.41067">
        <ele>66.6</ele>
        <time>2020-08-02T08:15:17Z</time>
      </trkpt>
      <trkpt lat="47.29724" lon="-0.4106">
        <ele>66.6</ele>
        <time>2020-08-02T08:15:18Z</time>
      </trkpt>
      <trkpt lat="47.29725" lon="-0.41049">
        <ele>66.6</ele>
        <time>2020-08-02T08:15:19Z</time>
      </trkpt>
      <trkpt lat="47.29726" lon="-0.41034">
        <ele>66.8</ele>
        <time>2020-08-02T08:15:21Z</time>
      </trkpt>
      <trkpt lat="47.29725" lon="-0.41025">
        <ele>66.6</ele>
        <time>2020-08-02T08:15:22Z</time>
      </trkpt>
      <trkpt lat="47.29726" lon="-0.41017">
        <ele>66.8</ele>
        <time>2020-08-02T08:15:23Z</time>
      </trkpt>
      <trkpt lat="47.29729" lon="-0.40995">
        <ele>66.8</ele>
        <time>2020-08-02T08:15:26Z</time>
      </trkpt>
      <trkpt lat="47.29729" lon="-0.40989">
        <ele>66.8</ele>
        <time>2020-08-02T08:15:27Z</time>
      </trkpt>
      <trkpt lat="47.2973" lon="-0.40982">
        <ele>66.8</ele>
        <time>2020-08-02T08:15:28Z</time>
      </trkpt>
      <trkpt lat="47.29731" lon="-0.40974">
        <ele>66.8</ele>
        <time>2020-08-02T08:15:29Z</time>
      </trkpt>
      <trkpt lat="47.29732" lon="-0.40969">
        <ele>66.8</ele>
        <time>2020-08-02T08:15:30Z</time>
      </trkpt>
      <trkpt lat="47.29732" lon="-0.40962">
        <ele>66.6</ele>
        <time>2020-08-02T08:15:31Z</time>
      </trkpt>
      <trkpt lat="47.29734" lon="-0.40956">
        <ele>66.6</ele>
        <time>2020-08-02T08:15:32Z</time>
      </trkpt>
      <trkpt lat="47.29736" lon="-0.40951">
        <ele>66.8</ele>
        <time>2020-08-02T08:15:33Z</time>
      </trkpt>
      <trkpt lat="47.29739" lon="-0.40945">
        <ele>66.8</ele>
        <time>2020-08-02T08:15:34Z</time>
      </trkpt>
      <trkpt lat="47.29743" lon="-0.40939">
        <ele>66.8</ele>
        <time>2020-08-02T08:15:35Z</time>
      </trkpt>
      <trkpt lat="47.29748" lon="-0.40934">
        <ele>66.8</ele>
        <time>2020-08-02T08:15:36Z</time>
      </trkpt>
      <trkpt lat="47.29752" lon="-0.4093">
        <ele>66.8</ele>
        <time>2020-08-02T08:15:37Z</time>
      </trkpt>
      <trkpt lat="47.29757" lon="-0.40923">
        <ele>66.8</ele>
        <time>2020-08-02T08:15:38Z</time>
      </trkpt>
      <trkpt lat="47.29768" lon="-0.40908">
        <ele>66.8</ele>
        <time>2020-08-02T08:15:41Z</time>
      </trkpt>
      <trkpt lat="47.29772" lon="-0.40904">
        <ele>66.8</ele>
        <time>2020-08-02T08:15:42Z</time>
      </trkpt>
      <trkpt lat="47.29782" lon="-0.40894">
        <ele>66.8</ele>
        <time>2020-08-02T08:15:44Z</time>
      </trkpt>
      <trkpt lat="47.29798" lon="-0.40873">
        <ele>66.4</ele>
        <time>2020-08-02T08:15:48Z</time>
      </trkpt>
      <trkpt lat="47.29819" lon="-0.40847">
        <ele>66.2</ele>
        <time>2020-08-02T08:15:53Z</time>
      </trkpt>
      <trkpt lat="47.29838" lon="-0.40828">
        <ele>66</ele>
        <time>2020-08-02T08:15:57Z</time>
      </trkpt>
      <trkpt lat="47.29843" lon="-0.40825">
        <ele>66</ele>
        <time>2020-08-02T08:15:58Z</time>
      </trkpt>
      <trkpt lat="47.29849" lon="-0.40823">
        <ele>66</ele>
        <time>2020-08-02T08:15:59Z</time>
      </trkpt>
      <trkpt lat="47.29855" lon="-0.40823">
        <ele>65.8</ele>
        <time>2020-08-02T08:16:00Z</time>
      </trkpt>
      <trkpt lat="47.29862" lon="-0.40823">
        <ele>65.8</ele>
        <time>2020-08-02T08:16:01Z</time>
      </trkpt>
      <trkpt lat="47.29868" lon="-0.40824">
        <ele>65.8</ele>
        <time>2020-08-02T08:16:02Z</time>
      </trkpt>
      <trkpt lat="47.29873" lon="-0.40826">
        <ele>65.8</ele>
        <time>2020-08-02T08:16:03Z</time>
      </trkpt>
      <trkpt lat="47.2989" lon="-0.40836">
        <ele>65.8</ele>
        <time>2020-08-02T08:16:06Z</time>
      </trkpt>
      <trkpt lat="47.29895" lon="-0.4084">
        <ele>65.8</ele>
        <time>2020-08-02T08:16:07Z</time>
      </trkpt>
      <trkpt lat="47.29899" lon="-0.40844">
        <ele>65.8</ele>
        <time>2020-08-02T08:16:08Z</time>
      </trkpt>
      <trkpt lat="47.29904" lon="-0.40848">
        <ele>65.8</ele>
        <time>2020-08-02T08:16:09Z</time>
      </trkpt>
      <trkpt lat="47.2991" lon="-0.40853">
        <ele>65.6</ele>
        <time>2020-08-02T08:16:10Z</time>
      </trkpt>
      <trkpt lat="47.29914" lon="-0.40856">
        <ele>65.6</ele>
        <time>2020-08-02T08:16:11Z</time>
      </trkpt>
      <trkpt lat="47.29918" lon="-0.4086">
        <ele>65.6</ele>
        <time>2020-08-02T08:16:12Z</time>
      </trkpt>
      <trkpt lat="47.29923" lon="-0.40863">
        <ele>65.8</ele>
        <time>2020-08-02T08:16:13Z</time>
      </trkpt>
      <trkpt lat="47.29927" lon="-0.40865">
        <ele>65.8</ele>
        <time>2020-08-02T08:16:14Z</time>
      </trkpt>
      <trkpt lat="47.29932" lon="-0.40867">
        <ele>65.8</ele>
        <time>2020-08-02T08:16:15Z</time>
      </trkpt>
      <trkpt lat="47.29937" lon="-0.40868">
        <ele>65.8</ele>
        <time>2020-08-02T08:16:16Z</time>
      </trkpt>
      <trkpt lat="47.29942" lon="-0.40868">
        <ele>65.8</ele>
        <time>2020-08-02T08:16:17Z</time>
      </trkpt>
      <trkpt lat="47.29945" lon="-0.40868">
        <ele>65.8</ele>
        <time>2020-08-02T08:16:18Z</time>
      </trkpt>
      <trkpt lat="47.2995" lon="-0.40868">
        <ele>65.8</ele>
        <time>2020-08-02T08:16:19Z</time>
      </trkpt>
      <trkpt lat="47.29974" lon="-0.40865">
        <ele>65.6</ele>
        <time>2020-08-02T08:16:23Z</time>
      </trkpt>
      <trkpt lat="47.29978" lon="-0.40864">
        <ele>65.6</ele>
        <time>2020-08-02T08:16:24Z</time>
      </trkpt>
      <trkpt lat="47.29989" lon="-0.40862">
        <ele>65.2</ele>
        <time>2020-08-02T08:16:26Z</time>
      </trkpt>
      <trkpt lat="47.29994" lon="-0.40862">
        <ele>65.2</ele>
        <time>2020-08-02T08:16:27Z</time>
      </trkpt>
      <trkpt lat="47.30026" lon="-0.40857">
        <ele>64.8</ele>
        <time>2020-08-02T08:16:33Z</time>
      </trkpt>
      <trkpt lat="47.30032" lon="-0.40856">
        <ele>64.8</ele>
        <time>2020-08-02T08:16:34Z</time>
      </trkpt>
      <trkpt lat="47.30037" lon="-0.40855">
        <ele>64.8</ele>
        <time>2020-08-02T08:16:35Z</time>
      </trkpt>
      <trkpt lat="47.30042" lon="-0.40855">
        <ele>64.8</ele>
        <time>2020-08-02T08:16:36Z</time>
      </trkpt>
      <trkpt lat="47.30049" lon="-0.40854">
        <ele>64.8</ele>
        <time>2020-08-02T08:16:37Z</time>
      </trkpt>
      <trkpt lat="47.30054" lon="-0.40853">
        <ele>64.8</ele>
        <time>2020-08-02T08:16:38Z</time>
      </trkpt>
      <trkpt lat="47.30058" lon="-0.40852">
        <ele>64.6</ele>
        <time>2020-08-02T08:16:39Z</time>
      </trkpt>
      <trkpt lat="47.30063" lon="-0.40852">
        <ele>64.6</ele>
        <time>2020-08-02T08:16:40Z</time>
      </trkpt>
      <trkpt lat="47.30068" lon="-0.40851">
        <ele>64.6</ele>
        <time>2020-08-02T08:16:41Z</time>
      </trkpt>
      <trkpt lat="47.30073" lon="-0.40851">
        <ele>64.6</ele>
        <time>2020-08-02T08:16:42Z</time>
      </trkpt>
      <trkpt lat="47.30078" lon="-0.4085">
        <ele>64.6</ele>
        <time>2020-08-02T08:16:43Z</time>
      </trkpt>
      <trkpt lat="47.30083" lon="-0.40849">
        <ele>64.6</ele>
        <time>2020-08-02T08:16:44Z</time>
      </trkpt>
      <trkpt lat="47.30087" lon="-0.40848">
        <ele>64.6</ele>
        <time>2020-08-02T08:16:45Z</time>
      </trkpt>
      <trkpt lat="47.30091" lon="-0.40848">
        <ele>64.6</ele>
        <time>2020-08-02T08:16:46Z</time>
      </trkpt>
      <trkpt lat="47.30096" lon="-0.40847">
        <ele>64.6</ele>
        <time>2020-08-02T08:16:47Z</time>
      </trkpt>
      <trkpt lat="47.30115" lon="-0.40843">
        <ele>64.6</ele>
        <time>2020-08-02T08:16:51Z</time>
      </trkpt>
      <trkpt lat="47.3012" lon="-0.40843">
        <ele>64.6</ele>
        <time>2020-08-02T08:16:52Z</time>
      </trkpt>
      <trkpt lat="47.30123" lon="-0.40842">
        <ele>64.8</ele>
        <time>2020-08-02T08:16:53Z</time>
      </trkpt>
      <trkpt lat="47.30127" lon="-0.40841">
        <ele>64.8</ele>
        <time>2020-08-02T08:16:54Z</time>
      </trkpt>
      <trkpt lat="47.3013" lon="-0.40841">
        <ele>64.8</ele>
        <time>2020-08-02T08:16:55Z</time>
      </trkpt>
      <trkpt lat="47.30133" lon="-0.40839">
        <ele>64.8</ele>
        <time>2020-08-02T08:16:56Z</time>
      </trkpt>
      <trkpt lat="47.30136" lon="-0.40839">
        <ele>64.8</ele>
        <time>2020-08-02T08:16:57Z</time>
      </trkpt>
      <trkpt lat="47.30138" lon="-0.40837">
        <ele>65</ele>
        <time>2020-08-02T08:16:58Z</time>
      </trkpt>
      <trkpt lat="47.30141" lon="-0.40836">
        <ele>65</ele>
        <time>2020-08-02T08:16:59Z</time>
      </trkpt>
      <trkpt lat="47.30144" lon="-0.40835">
        <ele>65.2</ele>
        <time>2020-08-02T08:17:00Z</time>
      </trkpt>
      <trkpt lat="47.30147" lon="-0.40834">
        <ele>65.2</ele>
        <time>2020-08-02T08:17:01Z</time>
      </trkpt>
      <trkpt lat="47.3015" lon="-0.40834">
        <ele>65.2</ele>
        <time>2020-08-02T08:17:02Z</time>
      </trkpt>
      <trkpt lat="47.30154" lon="-0.40833">
        <ele>65.2</ele>
        <time>2020-08-02T08:17:03Z</time>
      </trkpt>
      <trkpt lat="47.30169" lon="-0.40828">
        <ele>65.4</ele>
        <time>2020-08-02T08:17:07Z</time>
      </trkpt>
      <trkpt lat="47.30173" lon="-0.40827">
        <ele>65.4</ele>
        <time>2020-08-02T08:17:08Z</time>
      </trkpt>
      <trkpt lat="47.30176" lon="-0.40825">
        <ele>65.4</ele>
        <time>2020-08-02T08:17:09Z</time>
      </trkpt>
      <trkpt lat="47.3018" lon="-0.40824">
        <ele>65.4</ele>
        <time>2020-08-02T08:17:10Z</time>
      </trkpt>
      <trkpt lat="47.30189" lon="-0.40821">
        <ele>65.2</ele>
        <time>2020-08-02T08:17:12Z</time>
      </trkpt>
      <trkpt lat="47.30201" lon="-0.40818">
        <ele>65.2</ele>
        <time>2020-08-02T08:17:15Z</time>
      </trkpt>
      <trkpt lat="47.30205" lon="-0.40817">
        <ele>65.2</ele>
        <time>2020-08-02T08:17:16Z</time>
      </trkpt>
      <trkpt lat="47.3021" lon="-0.40816">
        <ele>65.2</ele>
        <time>2020-08-02T08:17:17Z</time>
      </trkpt>
      <trkpt lat="47.30219" lon="-0.40814">
        <ele>65.2</ele>
        <time>2020-08-02T08:17:19Z</time>
      </trkpt>
      <trkpt lat="47.30255" lon="-0.40803">
        <ele>65.2</ele>
        <time>2020-08-02T08:17:27Z</time>
      </trkpt>
      <trkpt lat="47.30264" lon="-0.40801">
        <ele>65.4</ele>
        <time>2020-08-02T08:17:29Z</time>
      </trkpt>
      <trkpt lat="47.30268" lon="-0.408">
        <ele>65.4</ele>
        <time>2020-08-02T08:17:30Z</time>
      </trkpt>
      <trkpt lat="47.30273" lon="-0.40798">
        <ele>65.4</ele>
        <time>2020-08-02T08:17:31Z</time>
      </trkpt>
      <trkpt lat="47.30277" lon="-0.40797">
        <ele>65.4</ele>
        <time>2020-08-02T08:17:32Z</time>
      </trkpt>
      <trkpt lat="47.30301" lon="-0.40791">
        <ele>65.2</ele>
        <time>2020-08-02T08:17:37Z</time>
      </trkpt>
      <trkpt lat="47.30328" lon="-0.40783">
        <ele>65</ele>
        <time>2020-08-02T08:17:43Z</time>
      </trkpt>
      <trkpt lat="47.30332" lon="-0.40782">
        <ele>65</ele>
        <time>2020-08-02T08:17:44Z</time>
      </trkpt>
      <trkpt lat="47.30336" lon="-0.40781">
        <ele>65</ele>
        <time>2020-08-02T08:17:45Z</time>
      </trkpt>
      <trkpt lat="47.3034" lon="-0.4078">
        <ele>65</ele>
        <time>2020-08-02T08:17:46Z</time>
      </trkpt>
      <trkpt lat="47.30344" lon="-0.40779">
        <ele>65</ele>
        <time>2020-08-02T08:17:47Z</time>
      </trkpt>
      <trkpt lat="47.30348" lon="-0.40777">
        <ele>65</ele>
        <time>2020-08-02T08:17:48Z</time>
      </trkpt>
      <trkpt lat="47.30352" lon="-0.40777">
        <ele>65</ele>
        <time>2020-08-02T08:17:49Z</time>
      </trkpt>
      <trkpt lat="47.30356" lon="-0.40776">
        <ele>65</ele>
        <time>2020-08-02T08:17:50Z</time>
      </trkpt>
      <trkpt lat="47.3036" lon="-0.40775">
        <ele>64.8</ele>
        <time>2020-08-02T08:17:51Z</time>
      </trkpt>
      <trkpt lat="47.30364" lon="-0.40774">
        <ele>64.8</ele>
        <time>2020-08-02T08:17:52Z</time>
      </trkpt>
      <trkpt lat="47.30368" lon="-0.40772">
        <ele>64.8</ele>
        <time>2020-08-02T08:17:53Z</time>
      </trkpt>
      <trkpt lat="47.30373" lon="-0.40771">
        <ele>64.8</ele>
        <time>2020-08-02T08:17:54Z</time>
      </trkpt>
      <trkpt lat="47.30409" lon="-0.4076">
        <ele>64.8</ele>
        <time>2020-08-02T08:18:02Z</time>
      </trkpt>
      <trkpt lat="47.30441" lon="-0.40751">
        <ele>64.8</ele>
        <time>2020-08-02T08:18:09Z</time>
      </trkpt>
      <trkpt lat="47.30446" lon="-0.4075">
        <ele>64.8</ele>
        <time>2020-08-02T08:18:10Z</time>
      </trkpt>
      <trkpt lat="47.3045" lon="-0.40748">
        <ele>64.8</ele>
        <time>2020-08-02T08:18:11Z</time>
      </trkpt>
      <trkpt lat="47.30455" lon="-0.40746">
        <ele>64.8</ele>
        <time>2020-08-02T08:18:12Z</time>
      </trkpt>
      <trkpt lat="47.30459" lon="-0.40745">
        <ele>64.6</ele>
        <time>2020-08-02T08:18:13Z</time>
      </trkpt>
      <trkpt lat="47.30463" lon="-0.40744">
        <ele>64.6</ele>
        <time>2020-08-02T08:18:14Z</time>
      </trkpt>
      <trkpt lat="47.30468" lon="-0.40742">
        <ele>64.6</ele>
        <time>2020-08-02T08:18:15Z</time>
      </trkpt>
      <trkpt lat="47.30497" lon="-0.40734">
        <ele>64.2</ele>
        <time>2020-08-02T08:18:21Z</time>
      </trkpt>
      <trkpt lat="47.30536" lon="-0.40722">
        <ele>63.8</ele>
        <time>2020-08-02T08:18:29Z</time>
      </trkpt>
      <trkpt lat="47.3054" lon="-0.40721">
        <ele>63.8</ele>
        <time>2020-08-02T08:18:30Z</time>
      </trkpt>
      <trkpt lat="47.30545" lon="-0.40719">
        <ele>63.8</ele>
        <time>2020-08-02T08:18:31Z</time>
      </trkpt>
      <trkpt lat="47.3055" lon="-0.40718">
        <ele>63.6</ele>
        <time>2020-08-02T08:18:32Z</time>
      </trkpt>
      <trkpt lat="47.30555" lon="-0.40716">
        <ele>63.4</ele>
        <time>2020-08-02T08:18:33Z</time>
      </trkpt>
      <trkpt lat="47.3056" lon="-0.40715">
        <ele>63.4</ele>
        <time>2020-08-02T08:18:34Z</time>
      </trkpt>
      <trkpt lat="47.30565" lon="-0.40713">
        <ele>63.4</ele>
        <time>2020-08-02T08:18:35Z</time>
      </trkpt>
      <trkpt lat="47.3057" lon="-0.40712">
        <ele>63.2</ele>
        <time>2020-08-02T08:18:36Z</time>
      </trkpt>
      <trkpt lat="47.30575" lon="-0.4071">
        <ele>63.2</ele>
        <time>2020-08-02T08:18:37Z</time>
      </trkpt>
      <trkpt lat="47.3058" lon="-0.40709">
        <ele>63.2</ele>
        <time>2020-08-02T08:18:38Z</time>
      </trkpt>
      <trkpt lat="47.30591" lon="-0.40706">
        <ele>62.8</ele>
        <time>2020-08-02T08:18:40Z</time>
      </trkpt>
      <trkpt lat="47.30607" lon="-0.40702">
        <ele>62</ele>
        <time>2020-08-02T08:18:43Z</time>
      </trkpt>
      <trkpt lat="47.30632" lon="-0.40694">
        <ele>61.2</ele>
        <time>2020-08-02T08:18:48Z</time>
      </trkpt>
      <trkpt lat="47.30653" lon="-0.40689">
        <ele>61</ele>
        <time>2020-08-02T08:18:52Z</time>
      </trkpt>
      <trkpt lat="47.30668" lon="-0.40684">
        <ele>60.8</ele>
        <time>2020-08-02T08:18:55Z</time>
      </trkpt>
      <trkpt lat="47.30684" lon="-0.4068">
        <ele>60.2</ele>
        <time>2020-08-02T08:18:58Z</time>
      </trkpt>
      <trkpt lat="47.30688" lon="-0.40678">
        <ele>60.2</ele>
        <time>2020-08-02T08:18:59Z</time>
      </trkpt>
      <trkpt lat="47.30693" lon="-0.40676">
        <ele>59.8</ele>
        <time>2020-08-02T08:19:00Z</time>
      </trkpt>
      <trkpt lat="47.30699" lon="-0.40675">
        <ele>59.8</ele>
        <time>2020-08-02T08:19:01Z</time>
      </trkpt>
      <trkpt lat="47.30704" lon="-0.40674">
        <ele>60</ele>
        <time>2020-08-02T08:19:02Z</time>
      </trkpt>
      <trkpt lat="47.30709" lon="-0.40672">
        <ele>60</ele>
        <time>2020-08-02T08:19:03Z</time>
      </trkpt>
      <trkpt lat="47.30714" lon="-0.40671">
        <ele>59.8</ele>
        <time>2020-08-02T08:19:04Z</time>
      </trkpt>
      <trkpt lat="47.30719" lon="-0.4067">
        <ele>59.8</ele>
        <time>2020-08-02T08:19:05Z</time>
      </trkpt>
      <trkpt lat="47.30724" lon="-0.40669">
        <ele>59.8</ele>
        <time>2020-08-02T08:19:06Z</time>
      </trkpt>
      <trkpt lat="47.30729" lon="-0.4067">
        <ele>59.8</ele>
        <time>2020-08-02T08:19:07Z</time>
      </trkpt>
      <trkpt lat="47.30734" lon="-0.40669">
        <ele>59.8</ele>
        <time>2020-08-02T08:19:08Z</time>
      </trkpt>
      <trkpt lat="47.30739" lon="-0.40669">
        <ele>59.8</ele>
        <time>2020-08-02T08:19:09Z</time>
      </trkpt>
      <trkpt lat="47.30744" lon="-0.40668">
        <ele>59.6</ele>
        <time>2020-08-02T08:19:10Z</time>
      </trkpt>
      <trkpt lat="47.30748" lon="-0.40668">
        <ele>59.6</ele>
        <time>2020-08-02T08:19:11Z</time>
      </trkpt>
      <trkpt lat="47.30753" lon="-0.40668">
        <ele>59.6</ele>
        <time>2020-08-02T08:19:12Z</time>
      </trkpt>
      <trkpt lat="47.30758" lon="-0.40668">
        <ele>59.6</ele>
        <time>2020-08-02T08:19:13Z</time>
      </trkpt>
      <trkpt lat="47.30763" lon="-0.40668">
        <ele>59.4</ele>
        <time>2020-08-02T08:19:14Z</time>
      </trkpt>
      <trkpt lat="47.30768" lon="-0.40668">
        <ele>59.4</ele>
        <time>2020-08-02T08:19:15Z</time>
      </trkpt>
      <trkpt lat="47.30772" lon="-0.40668">
        <ele>59.4</ele>
        <time>2020-08-02T08:19:16Z</time>
      </trkpt>
      <trkpt lat="47.30777" lon="-0.40667">
        <ele>59.2</ele>
        <time>2020-08-02T08:19:17Z</time>
      </trkpt>
      <trkpt lat="47.30781" lon="-0.40667">
        <ele>59.2</ele>
        <time>2020-08-02T08:19:18Z</time>
      </trkpt>
      <trkpt lat="47.30785" lon="-0.40667">
        <ele>59.2</ele>
        <time>2020-08-02T08:19:19Z</time>
      </trkpt>
      <trkpt lat="47.30789" lon="-0.40667">
        <ele>59.2</ele>
        <time>2020-08-02T08:19:20Z</time>
      </trkpt>
      <trkpt lat="47.30792" lon="-0.40666">
        <ele>59.2</ele>
        <time>2020-08-02T08:19:21Z</time>
      </trkpt>
      <trkpt lat="47.30796" lon="-0.40666">
        <ele>59.2</ele>
        <time>2020-08-02T08:19:22Z</time>
      </trkpt>
      <trkpt lat="47.30799" lon="-0.40667">
        <ele>59.2</ele>
        <time>2020-08-02T08:19:23Z</time>
      </trkpt>
      <trkpt lat="47.30803" lon="-0.40667">
        <ele>59.2</ele>
        <time>2020-08-02T08:19:24Z</time>
      </trkpt>
      <trkpt lat="47.30822" lon="-0.40672">
        <ele>59</ele>
        <time>2020-08-02T08:19:29Z</time>
      </trkpt>
      <trkpt lat="47.30826" lon="-0.40675">
        <ele>59</ele>
        <time>2020-08-02T08:19:30Z</time>
      </trkpt>
      <trkpt lat="47.30846" lon="-0.40689">
        <ele>58.6</ele>
        <time>2020-08-02T08:19:35Z</time>
      </trkpt>
      <trkpt lat="47.30853" lon="-0.40694">
        <ele>58.8</ele>
        <time>2020-08-02T08:19:37Z</time>
      </trkpt>
      <trkpt lat="47.30893" lon="-0.40725">
        <ele>58.6</ele>
        <time>2020-08-02T08:19:46Z</time>
      </trkpt>
      <trkpt lat="47.30923" lon="-0.40747">
        <ele>58.8</ele>
        <time>2020-08-02T08:19:53Z</time>
      </trkpt>
      <trkpt lat="47.30928" lon="-0.4075">
        <ele>58.8</ele>
        <time>2020-08-02T08:19:54Z</time>
      </trkpt>
      <trkpt lat="47.30932" lon="-0.40754">
        <ele>58.8</ele>
        <time>2020-08-02T08:19:55Z</time>
      </trkpt>
      <trkpt lat="47.30936" lon="-0.40758">
        <ele>58.8</ele>
        <time>2020-08-02T08:19:56Z</time>
      </trkpt>
      <trkpt lat="47.3094" lon="-0.40761">
        <ele>58.6</ele>
        <time>2020-08-02T08:19:57Z</time>
      </trkpt>
      <trkpt lat="47.30945" lon="-0.40765">
        <ele>58.6</ele>
        <time>2020-08-02T08:19:58Z</time>
      </trkpt>
      <trkpt lat="47.30949" lon="-0.40768">
        <ele>58.4</ele>
        <time>2020-08-02T08:19:59Z</time>
      </trkpt>
      <trkpt lat="47.30954" lon="-0.40771">
        <ele>58.4</ele>
        <time>2020-08-02T08:20:00Z</time>
      </trkpt>
      <trkpt lat="47.30966" lon="-0.40781">
        <ele>58.4</ele>
        <time>2020-08-02T08:20:03Z</time>
      </trkpt>
      <trkpt lat="47.30979" lon="-0.40793">
        <ele>58.4</ele>
        <time>2020-08-02T08:20:06Z</time>
      </trkpt>
      <trkpt lat="47.30983" lon="-0.40796">
        <ele>58.2</ele>
        <time>2020-08-02T08:20:07Z</time>
      </trkpt>
      <trkpt lat="47.30987" lon="-0.408">
        <ele>58.2</ele>
        <time>2020-08-02T08:20:08Z</time>
      </trkpt>
      <trkpt lat="47.30992" lon="-0.40805">
        <ele>58.2</ele>
        <time>2020-08-02T08:20:09Z</time>
      </trkpt>
      <trkpt lat="47.30996" lon="-0.4081">
        <ele>58.2</ele>
        <time>2020-08-02T08:20:10Z</time>
      </trkpt>
      <trkpt lat="47.31005" lon="-0.40818">
        <ele>58</ele>
        <time>2020-08-02T08:20:12Z</time>
      </trkpt>
      <trkpt lat="47.31035" lon="-0.40849">
        <ele>57.6</ele>
        <time>2020-08-02T08:20:19Z</time>
      </trkpt>
      <trkpt lat="47.31048" lon="-0.40864">
        <ele>57.4</ele>
        <time>2020-08-02T08:20:22Z</time>
      </trkpt>
      <trkpt lat="47.31087" lon="-0.40909">
        <ele>57.2</ele>
        <time>2020-08-02T08:20:31Z</time>
      </trkpt>
      <trkpt lat="47.31099" lon="-0.40925">
        <ele>57.2</ele>
        <time>2020-08-02T08:20:34Z</time>
      </trkpt>
      <trkpt lat="47.31102" lon="-0.40931">
        <ele>57.2</ele>
        <time>2020-08-02T08:20:35Z</time>
      </trkpt>
      <trkpt lat="47.31105" lon="-0.40937">
        <ele>57.2</ele>
        <time>2020-08-02T08:20:36Z</time>
      </trkpt>
      <trkpt lat="47.31109" lon="-0.40944">
        <ele>57.2</ele>
        <time>2020-08-02T08:20:37Z</time>
      </trkpt>
      <trkpt lat="47.31112" lon="-0.4095">
        <ele>57.2</ele>
        <time>2020-08-02T08:20:38Z</time>
      </trkpt>
      <trkpt lat="47.31115" lon="-0.40956">
        <ele>57.2</ele>
        <time>2020-08-02T08:20:39Z</time>
      </trkpt>
      <trkpt lat="47.31118" lon="-0.40962">
        <ele>57.2</ele>
        <time>2020-08-02T08:20:40Z</time>
      </trkpt>
      <trkpt lat="47.31143" lon="-0.41016">
        <ele>57</ele>
        <time>2020-08-02T08:20:48Z</time>
      </trkpt>
      <trkpt lat="47.31152" lon="-0.41035">
        <ele>56.8</ele>
        <time>2020-08-02T08:20:51Z</time>
      </trkpt>
      <trkpt lat="47.31155" lon="-0.41041">
        <ele>56.8</ele>
        <time>2020-08-02T08:20:52Z</time>
      </trkpt>
      <trkpt lat="47.31158" lon="-0.41048">
        <ele>56.8</ele>
        <time>2020-08-02T08:20:53Z</time>
      </trkpt>
      <trkpt lat="47.3116" lon="-0.41054">
        <ele>56.8</ele>
        <time>2020-08-02T08:20:54Z</time>
      </trkpt>
      <trkpt lat="47.31163" lon="-0.4106">
        <ele>57</ele>
        <time>2020-08-02T08:20:55Z</time>
      </trkpt>
      <trkpt lat="47.31166" lon="-0.41066">
        <ele>57</ele>
        <time>2020-08-02T08:20:56Z</time>
      </trkpt>
      <trkpt lat="47.3117" lon="-0.41073">
        <ele>57.2</ele>
        <time>2020-08-02T08:20:57Z</time>
      </trkpt>
      <trkpt lat="47.31173" lon="-0.4108">
        <ele>57.2</ele>
        <time>2020-08-02T08:20:58Z</time>
      </trkpt>
      <trkpt lat="47.31176" lon="-0.41086">
        <ele>57.2</ele>
        <time>2020-08-02T08:20:59Z</time>
      </trkpt>
      <trkpt lat="47.31179" lon="-0.41092">
        <ele>57.4</ele>
        <time>2020-08-02T08:21:00Z</time>
      </trkpt>
      <trkpt lat="47.31191" lon="-0.41118">
        <ele>57.2</ele>
        <time>2020-08-02T08:21:04Z</time>
      </trkpt>
      <trkpt lat="47.31194" lon="-0.41124">
        <ele>57</ele>
        <time>2020-08-02T08:21:05Z</time>
      </trkpt>
      <trkpt lat="47.31196" lon="-0.4113">
        <ele>57</ele>
        <time>2020-08-02T08:21:06Z</time>
      </trkpt>
      <trkpt lat="47.31199" lon="-0.41136">
        <ele>57</ele>
        <time>2020-08-02T08:21:07Z</time>
      </trkpt>
      <trkpt lat="47.31202" lon="-0.41142">
        <ele>56.8</ele>
        <time>2020-08-02T08:21:08Z</time>
      </trkpt>
      <trkpt lat="47.31205" lon="-0.41148">
        <ele>56.8</ele>
        <time>2020-08-02T08:21:09Z</time>
      </trkpt>
      <trkpt lat="47.31208" lon="-0.41155">
        <ele>56.6</ele>
        <time>2020-08-02T08:21:10Z</time>
      </trkpt>
      <trkpt lat="47.31212" lon="-0.41161">
        <ele>56.6</ele>
        <time>2020-08-02T08:21:11Z</time>
      </trkpt>
      <trkpt lat="47.31215" lon="-0.41167">
        <ele>56.6</ele>
        <time>2020-08-02T08:21:12Z</time>
      </trkpt>
      <trkpt lat="47.31219" lon="-0.41173">
        <ele>56.6</ele>
        <time>2020-08-02T08:21:13Z</time>
      </trkpt>
      <trkpt lat="47.31222" lon="-0.41179">
        <ele>56.6</ele>
        <time>2020-08-02T08:21:14Z</time>
      </trkpt>
      <trkpt lat="47.31226" lon="-0.41185">
        <ele>56.6</ele>
        <time>2020-08-02T08:21:15Z</time>
      </trkpt>
      <trkpt lat="47.3123" lon="-0.4119">
        <ele>56.6</ele>
        <time>2020-08-02T08:21:16Z</time>
      </trkpt>
      <trkpt lat="47.31246" lon="-0.41212">
        <ele>56.8</ele>
        <time>2020-08-02T08:21:20Z</time>
      </trkpt>
      <trkpt lat="47.31249" lon="-0.41217">
        <ele>56.8</ele>
        <time>2020-08-02T08:21:21Z</time>
      </trkpt>
      <trkpt lat="47.31253" lon="-0.41223">
        <ele>56.8</ele>
        <time>2020-08-02T08:21:22Z</time>
      </trkpt>
      <trkpt lat="47.31257" lon="-0.41228">
        <ele>56.8</ele>
        <time>2020-08-02T08:21:23Z</time>
      </trkpt>
      <trkpt lat="47.31261" lon="-0.41233">
        <ele>56.6</ele>
        <time>2020-08-02T08:21:24Z</time>
      </trkpt>
      <trkpt lat="47.31264" lon="-0.41238">
        <ele>56.6</ele>
        <time>2020-08-02T08:21:25Z</time>
      </trkpt>
      <trkpt lat="47.31276" lon="-0.41254">
        <ele>56.6</ele>
        <time>2020-08-02T08:21:28Z</time>
      </trkpt>
      <trkpt lat="47.31279" lon="-0.41259">
        <ele>56.6</ele>
        <time>2020-08-02T08:21:29Z</time>
      </trkpt>
      <trkpt lat="47.31283" lon="-0.41264">
        <ele>56.8</ele>
        <time>2020-08-02T08:21:30Z</time>
      </trkpt>
      <trkpt lat="47.31287" lon="-0.41269">
        <ele>56.6</ele>
        <time>2020-08-02T08:21:31Z</time>
      </trkpt>
      <trkpt lat="47.31291" lon="-0.41275">
        <ele>56.6</ele>
        <time>2020-08-02T08:21:32Z</time>
      </trkpt>
      <trkpt lat="47.31294" lon="-0.4128">
        <ele>56.6</ele>
        <time>2020-08-02T08:21:33Z</time>
      </trkpt>
      <trkpt lat="47.31298" lon="-0.41285">
        <ele>56.6</ele>
        <time>2020-08-02T08:21:34Z</time>
      </trkpt>
      <trkpt lat="47.31301" lon="-0.4129">
        <ele>56.6</ele>
        <time>2020-08-02T08:21:35Z</time>
      </trkpt>
      <trkpt lat="47.31305" lon="-0.41295">
        <ele>56.4</ele>
        <time>2020-08-02T08:21:36Z</time>
      </trkpt>
      <trkpt lat="47.31308" lon="-0.413">
        <ele>56.4</ele>
        <time>2020-08-02T08:21:37Z</time>
      </trkpt>
      <trkpt lat="47.31312" lon="-0.41305">
        <ele>56.4</ele>
        <time>2020-08-02T08:21:38Z</time>
      </trkpt>
      <trkpt lat="47.31316" lon="-0.4131">
        <ele>56.4</ele>
        <time>2020-08-02T08:21:39Z</time>
      </trkpt>
      <trkpt lat="47.31319" lon="-0.41315">
        <ele>56.4</ele>
        <time>2020-08-02T08:21:40Z</time>
      </trkpt>
      <trkpt lat="47.31323" lon="-0.4132">
        <ele>56.4</ele>
        <time>2020-08-02T08:21:41Z</time>
      </trkpt>
      <trkpt lat="47.31326" lon="-0.41325">
        <ele>56.4</ele>
        <time>2020-08-02T08:21:42Z</time>
      </trkpt>
      <trkpt lat="47.3133" lon="-0.4133">
        <ele>56.4</ele>
        <time>2020-08-02T08:21:43Z</time>
      </trkpt>
      <trkpt lat="47.31334" lon="-0.41335">
        <ele>56.4</ele>
        <time>2020-08-02T08:21:44Z</time>
      </trkpt>
      <trkpt lat="47.31338" lon="-0.4134">
        <ele>56.4</ele>
        <time>2020-08-02T08:21:45Z</time>
      </trkpt>
      <trkpt lat="47.31342" lon="-0.41344">
        <ele>56.2</ele>
        <time>2020-08-02T08:21:46Z</time>
      </trkpt>
      <trkpt lat="47.31346" lon="-0.41349">
        <ele>56.2</ele>
        <time>2020-08-02T08:21:47Z</time>
      </trkpt>
      <trkpt lat="47.31364" lon="-0.41373">
        <ele>56</ele>
        <time>2020-08-02T08:21:52Z</time>
      </trkpt>
      <trkpt lat="47.31375" lon="-0.41388">
        <ele>56</ele>
        <time>2020-08-02T08:21:55Z</time>
      </trkpt>
      <trkpt lat="47.31378" lon="-0.41393">
        <ele>56</ele>
        <time>2020-08-02T08:21:56Z</time>
      </trkpt>
      <trkpt lat="47.31381" lon="-0.41399">
        <ele>56</ele>
        <time>2020-08-02T08:21:57Z</time>
      </trkpt>
      <trkpt lat="47.31384" lon="-0.41405">
        <ele>56</ele>
        <time>2020-08-02T08:21:58Z</time>
      </trkpt>
      <trkpt lat="47.31387" lon="-0.41411">
        <ele>56</ele>
        <time>2020-08-02T08:21:59Z</time>
      </trkpt>
      <trkpt lat="47.31389" lon="-0.41417">
        <ele>56</ele>
        <time>2020-08-02T08:22:00Z</time>
      </trkpt>
      <trkpt lat="47.31392" lon="-0.41424">
        <ele>56</ele>
        <time>2020-08-02T08:22:01Z</time>
      </trkpt>
      <trkpt lat="47.31394" lon="-0.4143">
        <ele>56</ele>
        <time>2020-08-02T08:22:02Z</time>
      </trkpt>
      <trkpt lat="47.31396" lon="-0.41437">
        <ele>56</ele>
        <time>2020-08-02T08:22:03Z</time>
      </trkpt>
      <trkpt lat="47.31399" lon="-0.41443">
        <ele>56</ele>
        <time>2020-08-02T08:22:04Z</time>
      </trkpt>
      <trkpt lat="47.31401" lon="-0.41449">
        <ele>56.2</ele>
        <time>2020-08-02T08:22:05Z</time>
      </trkpt>
      <trkpt lat="47.31404" lon="-0.41455">
        <ele>56.2</ele>
        <time>2020-08-02T08:22:06Z</time>
      </trkpt>
      <trkpt lat="47.31406" lon="-0.41461">
        <ele>56.2</ele>
        <time>2020-08-02T08:22:07Z</time>
      </trkpt>
      <trkpt lat="47.31408" lon="-0.41468">
        <ele>56.2</ele>
        <time>2020-08-02T08:22:08Z</time>
      </trkpt>
      <trkpt lat="47.31411" lon="-0.41475">
        <ele>56.2</ele>
        <time>2020-08-02T08:22:09Z</time>
      </trkpt>
      <trkpt lat="47.31414" lon="-0.41481">
        <ele>56.2</ele>
        <time>2020-08-02T08:22:10Z</time>
      </trkpt>
      <trkpt lat="47.31416" lon="-0.41488">
        <ele>56.2</ele>
        <time>2020-08-02T08:22:11Z</time>
      </trkpt>
      <trkpt lat="47.31434" lon="-0.41532">
        <ele>56</ele>
        <time>2020-08-02T08:22:18Z</time>
      </trkpt>
      <trkpt lat="47.31436" lon="-0.41538">
        <ele>56</ele>
        <time>2020-08-02T08:22:19Z</time>
      </trkpt>
      <trkpt lat="47.31438" lon="-0.41543">
        <ele>56</ele>
        <time>2020-08-02T08:22:20Z</time>
      </trkpt>
      <trkpt lat="47.3144" lon="-0.41549">
        <ele>56</ele>
        <time>2020-08-02T08:22:21Z</time>
      </trkpt>
      <trkpt lat="47.31442" lon="-0.41553">
        <ele>55.8</ele>
        <time>2020-08-02T08:22:22Z</time>
      </trkpt>
      <trkpt lat="47.31444" lon="-0.41558">
        <ele>55.8</ele>
        <time>2020-08-02T08:22:23Z</time>
      </trkpt>
      <trkpt lat="47.31446" lon="-0.41561">
        <ele>55.8</ele>
        <time>2020-08-02T08:22:24Z</time>
      </trkpt>
      <trkpt lat="47.31448" lon="-0.41566">
        <ele>55.8</ele>
        <time>2020-08-02T08:22:25Z</time>
      </trkpt>
      <trkpt lat="47.31451" lon="-0.41575">
        <ele>55.8</ele>
        <time>2020-08-02T08:22:27Z</time>
      </trkpt>
      <trkpt lat="47.31453" lon="-0.4158">
        <ele>55.8</ele>
        <time>2020-08-02T08:22:28Z</time>
      </trkpt>
      <trkpt lat="47.31455" lon="-0.41585">
        <ele>55.8</ele>
        <time>2020-08-02T08:22:29Z</time>
      </trkpt>
      <trkpt lat="47.31457" lon="-0.4159">
        <ele>55.8</ele>
        <time>2020-08-02T08:22:30Z</time>
      </trkpt>
      <trkpt lat="47.31459" lon="-0.41595">
        <ele>55.8</ele>
        <time>2020-08-02T08:22:31Z</time>
      </trkpt>
      <trkpt lat="47.31461" lon="-0.416">
        <ele>56</ele>
        <time>2020-08-02T08:22:32Z</time>
      </trkpt>
      <trkpt lat="47.31463" lon="-0.41605">
        <ele>56</ele>
        <time>2020-08-02T08:22:33Z</time>
      </trkpt>
      <trkpt lat="47.31468" lon="-0.41613">
        <ele>56.2</ele>
        <time>2020-08-02T08:22:35Z</time>
      </trkpt>
      <trkpt lat="47.31471" lon="-0.41616">
        <ele>56.4</ele>
        <time>2020-08-02T08:22:36Z</time>
      </trkpt>
      <trkpt lat="47.31474" lon="-0.41617">
        <ele>56.6</ele>
        <time>2020-08-02T08:22:37Z</time>
      </trkpt>
      <trkpt lat="47.31477" lon="-0.41615">
        <ele>56.6</ele>
        <time>2020-08-02T08:22:38Z</time>
      </trkpt>
      <trkpt lat="47.31479" lon="-0.41611">
        <ele>56.6</ele>
        <time>2020-08-02T08:22:39Z</time>
      </trkpt>
      <trkpt lat="47.31481" lon="-0.41607">
        <ele>56.8</ele>
        <time>2020-08-02T08:22:40Z</time>
      </trkpt>
      <trkpt lat="47.31483" lon="-0.41603">
        <ele>57</ele>
        <time>2020-08-02T08:22:41Z</time>
      </trkpt>
      <trkpt lat="47.31486" lon="-0.41599">
        <ele>57</ele>
        <time>2020-08-02T08:22:42Z</time>
      </trkpt>
      <trkpt lat="47.31488" lon="-0.41595">
        <ele>57</ele>
        <time>2020-08-02T08:22:43Z</time>
      </trkpt>
      <trkpt lat="47.3149" lon="-0.41591">
        <ele>57</ele>
        <time>2020-08-02T08:22:44Z</time>
      </trkpt>
      <trkpt lat="47.31491" lon="-0.41586">
        <ele>57.2</ele>
        <time>2020-08-02T08:22:45Z</time>
      </trkpt>
      <trkpt lat="47.31493" lon="-0.41582">
        <ele>57.2</ele>
        <time>2020-08-02T08:22:46Z</time>
      </trkpt>
      <trkpt lat="47.31495" lon="-0.41577">
        <ele>57.2</ele>
        <time>2020-08-02T08:22:47Z</time>
      </trkpt>
      <trkpt lat="47.31496" lon="-0.41571">
        <ele>57.2</ele>
        <time>2020-08-02T08:22:48Z</time>
      </trkpt>
      <trkpt lat="47.31498" lon="-0.41568">
        <ele>57.2</ele>
        <time>2020-08-02T08:22:49Z</time>
      </trkpt>
      <trkpt lat="47.31501" lon="-0.41564">
        <ele>57.2</ele>
        <time>2020-08-02T08:22:50Z</time>
      </trkpt>
      <trkpt lat="47.31504" lon="-0.4156">
        <ele>57.2</ele>
        <time>2020-08-02T08:22:51Z</time>
      </trkpt>
      <trkpt lat="47.31506" lon="-0.41555">
        <ele>57.2</ele>
        <time>2020-08-02T08:22:52Z</time>
      </trkpt>
      <trkpt lat="47.31507" lon="-0.41551">
        <ele>57.2</ele>
        <time>2020-08-02T08:22:53Z</time>
      </trkpt>
      <trkpt lat="47.3152" lon="-0.41524">
        <ele>57.4</ele>
        <time>2020-08-02T08:22:59Z</time>
      </trkpt>
      <trkpt lat="47.31523" lon="-0.41519">
        <ele>57.6</ele>
        <time>2020-08-02T08:23:00Z</time>
      </trkpt>
      <trkpt lat="47.31544" lon="-0.41474">
        <ele>58.4</ele>
        <time>2020-08-02T08:23:09Z</time>
      </trkpt>
      <trkpt lat="47.31549" lon="-0.41463">
        <ele>58.4</ele>
        <time>2020-08-02T08:23:11Z</time>
      </trkpt>
      <trkpt lat="47.31564" lon="-0.41433">
        <ele>59.4</ele>
        <time>2020-08-02T08:23:17Z</time>
      </trkpt>
      <trkpt lat="47.31566" lon="-0.41428">
        <ele>59.4</ele>
        <time>2020-08-02T08:23:18Z</time>
      </trkpt>
      <trkpt lat="47.31569" lon="-0.41424">
        <ele>59.4</ele>
        <time>2020-08-02T08:23:19Z</time>
      </trkpt>
      <trkpt lat="47.31571" lon="-0.41419">
        <ele>59.6</ele>
        <time>2020-08-02T08:23:20Z</time>
      </trkpt>
      <trkpt lat="47.31574" lon="-0.41415">
        <ele>59.6</ele>
        <time>2020-08-02T08:23:21Z</time>
      </trkpt>
      <trkpt lat="47.31576" lon="-0.41411">
        <ele>59.8</ele>
        <time>2020-08-02T08:23:22Z</time>
      </trkpt>
      <trkpt lat="47.31579" lon="-0.41408">
        <ele>60</ele>
        <time>2020-08-02T08:23:23Z</time>
      </trkpt>
      <trkpt lat="47.31583" lon="-0.41407">
        <ele>60.2</ele>
        <time>2020-08-02T08:23:24Z</time>
      </trkpt>
      <trkpt lat="47.31586" lon="-0.41407">
        <ele>60.2</ele>
        <time>2020-08-02T08:23:25Z</time>
      </trkpt>
      <trkpt lat="47.31589" lon="-0.41408">
        <ele>60.4</ele>
        <time>2020-08-02T08:23:26Z</time>
      </trkpt>
      <trkpt lat="47.31592" lon="-0.4141">
        <ele>60.6</ele>
        <time>2020-08-02T08:23:27Z</time>
      </trkpt>
      <trkpt lat="47.31594" lon="-0.41413">
        <ele>60.8</ele>
        <time>2020-08-02T08:23:28Z</time>
      </trkpt>
      <trkpt lat="47.31597" lon="-0.41415">
        <ele>61</ele>
        <time>2020-08-02T08:23:29Z</time>
      </trkpt>
      <trkpt lat="47.31599" lon="-0.41417">
        <ele>61.2</ele>
        <time>2020-08-02T08:23:30Z</time>
      </trkpt>
      <trkpt lat="47.31602" lon="-0.41419">
        <ele>61.2</ele>
        <time>2020-08-02T08:23:31Z</time>
      </trkpt>
      <trkpt lat="47.31604" lon="-0.4142">
        <ele>61.2</ele>
        <time>2020-08-02T08:23:32Z</time>
      </trkpt>
      <trkpt lat="47.31607" lon="-0.4142">
        <ele>61.2</ele>
        <time>2020-08-02T08:23:33Z</time>
      </trkpt>
      <trkpt lat="47.31609" lon="-0.41421">
        <ele>61.2</ele>
        <time>2020-08-02T08:23:34Z</time>
      </trkpt>
      <trkpt lat="47.3161" lon="-0.41421">
        <ele>61.4</ele>
        <time>2020-08-02T08:23:35Z</time>
      </trkpt>
      <trkpt lat="47.3161" lon="-0.41421">
        <ele>61.4</ele>
        <time>2020-08-02T08:23:38Z</time>
      </trkpt>
      <trkpt lat="47.3161" lon="-0.41421">
        <ele>61.2</ele>
        <time>2020-08-02T08:23:57Z</time>
      </trkpt>
      <trkpt lat="47.3161" lon="-0.41421">
        <ele>61</ele>
        <time>2020-08-02T08:25:05Z</time>
      </trkpt>
      <trkpt lat="47.31611" lon="-0.41422">
        <ele>61</ele>
        <time>2020-08-02T08:25:06Z</time>
      </trkpt>
      <trkpt lat="47.31613" lon="-0.41423">
        <ele>61</ele>
        <time>2020-08-02T08:25:07Z</time>
      </trkpt>
      <trkpt lat="47.31615" lon="-0.41424">
        <ele>61</ele>
        <time>2020-08-02T08:25:08Z</time>
      </trkpt>
      <trkpt lat="47.31623" lon="-0.4143">
        <ele>61.2</ele>
        <time>2020-08-02T08:25:12Z</time>
      </trkpt>
      <trkpt lat="47.31625" lon="-0.41432">
        <ele>61.2</ele>
        <time>2020-08-02T08:25:13Z</time>
      </trkpt>
      <trkpt lat="47.31632" lon="-0.41437">
        <ele>61.4</ele>
        <time>2020-08-02T08:25:17Z</time>
      </trkpt>
      <trkpt lat="47.31634" lon="-0.41439">
        <ele>61.4</ele>
        <time>2020-08-02T08:25:18Z</time>
      </trkpt>
      <trkpt lat="47.31643" lon="-0.41445">
        <ele>61.6</ele>
        <time>2020-08-02T08:25:22Z</time>
      </trkpt>
      <trkpt lat="47.31646" lon="-0.41448">
        <ele>61.6</ele>
        <time>2020-08-02T08:25:23Z</time>
      </trkpt>
      <trkpt lat="47.31652" lon="-0.41454">
        <ele>61.8</ele>
        <time>2020-08-02T08:25:25Z</time>
      </trkpt>
      <trkpt lat="47.31661" lon="-0.41463">
        <ele>61.8</ele>
        <time>2020-08-02T08:25:28Z</time>
      </trkpt>
      <trkpt lat="47.31668" lon="-0.41468">
        <ele>61.8</ele>
        <time>2020-08-02T08:25:30Z</time>
      </trkpt>
      <trkpt lat="47.31675" lon="-0.41473">
        <ele>61.8</ele>
        <time>2020-08-02T08:25:32Z</time>
      </trkpt>
      <trkpt lat="47.31697" lon="-0.41493">
        <ele>62.2</ele>
        <time>2020-08-02T08:25:39Z</time>
      </trkpt>
      <trkpt lat="47.31701" lon="-0.41497">
        <ele>62.2</ele>
        <time>2020-08-02T08:25:40Z</time>
      </trkpt>
      <trkpt lat="47.31717" lon="-0.41515">
        <ele>62.6</ele>
        <time>2020-08-02T08:25:45Z</time>
      </trkpt>
      <trkpt lat="47.31721" lon="-0.41517">
        <ele>62.6</ele>
        <time>2020-08-02T08:25:46Z</time>
      </trkpt>
      <trkpt lat="47.31725" lon="-0.41521">
        <ele>62.6</ele>
        <time>2020-08-02T08:25:47Z</time>
      </trkpt>
      <trkpt lat="47.31754" lon="-0.41545">
        <ele>62.8</ele>
        <time>2020-08-02T08:25:55Z</time>
      </trkpt>
      <trkpt lat="47.31766" lon="-0.41554">
        <ele>62.8</ele>
        <time>2020-08-02T08:25:58Z</time>
      </trkpt>
      <trkpt lat="47.31781" lon="-0.41567">
        <ele>62.8</ele>
        <time>2020-08-02T08:26:02Z</time>
      </trkpt>
      <trkpt lat="47.31809" lon="-0.41593">
        <ele>62.8</ele>
        <time>2020-08-02T08:26:09Z</time>
      </trkpt>
      <trkpt lat="47.31827" lon="-0.41611">
        <ele>62.6</ele>
        <time>2020-08-02T08:26:14Z</time>
      </trkpt>
      <trkpt lat="47.31831" lon="-0.41615">
        <ele>62.6</ele>
        <time>2020-08-02T08:26:15Z</time>
      </trkpt>
      <trkpt lat="47.31834" lon="-0.41618">
        <ele>62.6</ele>
        <time>2020-08-02T08:26:16Z</time>
      </trkpt>
      <trkpt lat="47.31838" lon="-0.41622">
        <ele>62.4</ele>
        <time>2020-08-02T08:26:17Z</time>
      </trkpt>
      <trkpt lat="47.31841" lon="-0.41625">
        <ele>62.4</ele>
        <time>2020-08-02T08:26:18Z</time>
      </trkpt>
      <trkpt lat="47.31844" lon="-0.41628">
        <ele>62.4</ele>
        <time>2020-08-02T08:26:19Z</time>
      </trkpt>
      <trkpt lat="47.31847" lon="-0.41631">
        <ele>62.4</ele>
        <time>2020-08-02T08:26:20Z</time>
      </trkpt>
      <trkpt lat="47.31849" lon="-0.41634">
        <ele>62.4</ele>
        <time>2020-08-02T08:26:21Z</time>
      </trkpt>
      <trkpt lat="47.3185" lon="-0.41638">
        <ele>62.4</ele>
        <time>2020-08-02T08:26:22Z</time>
      </trkpt>
      <trkpt lat="47.31851" lon="-0.41642">
        <ele>62.4</ele>
        <time>2020-08-02T08:26:23Z</time>
      </trkpt>
      <trkpt lat="47.3185" lon="-0.41647">
        <ele>62.4</ele>
        <time>2020-08-02T08:26:24Z</time>
      </trkpt>
      <trkpt lat="47.31849" lon="-0.41651">
        <ele>62.4</ele>
        <time>2020-08-02T08:26:25Z</time>
      </trkpt>
      <trkpt lat="47.31842" lon="-0.41674">
        <ele>62.2</ele>
        <time>2020-08-02T08:26:29Z</time>
      </trkpt>
      <trkpt lat="47.31832" lon="-0.41704">
        <ele>61.6</ele>
        <time>2020-08-02T08:26:33Z</time>
      </trkpt>
      <trkpt lat="47.31829" lon="-0.41713">
        <ele>61.4</ele>
        <time>2020-08-02T08:26:34Z</time>
      </trkpt>
      <trkpt lat="47.31821" lon="-0.41738">
        <ele>60.8</ele>
        <time>2020-08-02T08:26:37Z</time>
      </trkpt>
      <trkpt lat="47.31818" lon="-0.41747">
        <ele>60.4</ele>
        <time>2020-08-02T08:26:38Z</time>
      </trkpt>
      <trkpt lat="47.31817" lon="-0.41755">
        <ele>60.2</ele>
        <time>2020-08-02T08:26:39Z</time>
      </trkpt>
      <trkpt lat="47.31817" lon="-0.41765">
        <ele>60.2</ele>
        <time>2020-08-02T08:26:40Z</time>
      </trkpt>
      <trkpt lat="47.31819" lon="-0.41774">
        <ele>60</ele>
        <time>2020-08-02T08:26:41Z</time>
      </trkpt>
      <trkpt lat="47.31823" lon="-0.41781">
        <ele>59.8</ele>
        <time>2020-08-02T08:26:42Z</time>
      </trkpt>
      <trkpt lat="47.31829" lon="-0.41786">
        <ele>59.8</ele>
        <time>2020-08-02T08:26:43Z</time>
      </trkpt>
      <trkpt lat="47.3184" lon="-0.41793">
        <ele>59.8</ele>
        <time>2020-08-02T08:26:45Z</time>
      </trkpt>
      <trkpt lat="47.31845" lon="-0.41797">
        <ele>59.8</ele>
        <time>2020-08-02T08:26:46Z</time>
      </trkpt>
      <trkpt lat="47.3185" lon="-0.418">
        <ele>59.8</ele>
        <time>2020-08-02T08:26:47Z</time>
      </trkpt>
      <trkpt lat="47.31855" lon="-0.41803">
        <ele>60</ele>
        <time>2020-08-02T08:26:48Z</time>
      </trkpt>
      <trkpt lat="47.31859" lon="-0.41806">
        <ele>60</ele>
        <time>2020-08-02T08:26:49Z</time>
      </trkpt>
      <trkpt lat="47.31864" lon="-0.41809">
        <ele>60</ele>
        <time>2020-08-02T08:26:50Z</time>
      </trkpt>
      <trkpt lat="47.31877" lon="-0.41818">
        <ele>60</ele>
        <time>2020-08-02T08:26:53Z</time>
      </trkpt>
      <trkpt lat="47.31882" lon="-0.41822">
        <ele>60</ele>
        <time>2020-08-02T08:26:54Z</time>
      </trkpt>
      <trkpt lat="47.31887" lon="-0.41825">
        <ele>60</ele>
        <time>2020-08-02T08:26:55Z</time>
      </trkpt>
      <trkpt lat="47.31892" lon="-0.41829">
        <ele>59.8</ele>
        <time>2020-08-02T08:26:56Z</time>
      </trkpt>
      <trkpt lat="47.31897" lon="-0.41832">
        <ele>59.8</ele>
        <time>2020-08-02T08:26:57Z</time>
      </trkpt>
      <trkpt lat="47.31901" lon="-0.41834">
        <ele>59.6</ele>
        <time>2020-08-02T08:26:58Z</time>
      </trkpt>
      <trkpt lat="47.31906" lon="-0.41838">
        <ele>59.6</ele>
        <time>2020-08-02T08:26:59Z</time>
      </trkpt>
      <trkpt lat="47.31921" lon="-0.41848">
        <ele>59.4</ele>
        <time>2020-08-02T08:27:02Z</time>
      </trkpt>
      <trkpt lat="47.31949" lon="-0.41868">
        <ele>59.4</ele>
        <time>2020-08-02T08:27:08Z</time>
      </trkpt>
      <trkpt lat="47.31954" lon="-0.41871">
        <ele>59.2</ele>
        <time>2020-08-02T08:27:09Z</time>
      </trkpt>
      <trkpt lat="47.31958" lon="-0.41874">
        <ele>59.2</ele>
        <time>2020-08-02T08:27:10Z</time>
      </trkpt>
      <trkpt lat="47.31963" lon="-0.41878">
        <ele>59</ele>
        <time>2020-08-02T08:27:11Z</time>
      </trkpt>
      <trkpt lat="47.31967" lon="-0.41881">
        <ele>58.8</ele>
        <time>2020-08-02T08:27:12Z</time>
      </trkpt>
      <trkpt lat="47.31971" lon="-0.41884">
        <ele>58.8</ele>
        <time>2020-08-02T08:27:13Z</time>
      </trkpt>
      <trkpt lat="47.31976" lon="-0.41887">
        <ele>58.6</ele>
        <time>2020-08-02T08:27:14Z</time>
      </trkpt>
      <trkpt lat="47.3198" lon="-0.41889">
        <ele>58.6</ele>
        <time>2020-08-02T08:27:15Z</time>
      </trkpt>
      <trkpt lat="47.31985" lon="-0.41892">
        <ele>58.6</ele>
        <time>2020-08-02T08:27:16Z</time>
      </trkpt>
      <trkpt lat="47.31989" lon="-0.41895">
        <ele>58.6</ele>
        <time>2020-08-02T08:27:17Z</time>
      </trkpt>
      <trkpt lat="47.31993" lon="-0.41897">
        <ele>58.6</ele>
        <time>2020-08-02T08:27:18Z</time>
      </trkpt>
      <trkpt lat="47.31997" lon="-0.419">
        <ele>58.4</ele>
        <time>2020-08-02T08:27:19Z</time>
      </trkpt>
      <trkpt lat="47.32001" lon="-0.41902">
        <ele>58.4</ele>
        <time>2020-08-02T08:27:20Z</time>
      </trkpt>
      <trkpt lat="47.32006" lon="-0.41903">
        <ele>58.4</ele>
        <time>2020-08-02T08:27:21Z</time>
      </trkpt>
      <trkpt lat="47.3201" lon="-0.41904">
        <ele>58.6</ele>
        <time>2020-08-02T08:27:22Z</time>
      </trkpt>
      <trkpt lat="47.32014" lon="-0.41905">
        <ele>58.6</ele>
        <time>2020-08-02T08:27:23Z</time>
      </trkpt>
      <trkpt lat="47.32018" lon="-0.41907">
        <ele>58.6</ele>
        <time>2020-08-02T08:27:24Z</time>
      </trkpt>
      <trkpt lat="47.32023" lon="-0.41908">
        <ele>58.6</ele>
        <time>2020-08-02T08:27:25Z</time>
      </trkpt>
      <trkpt lat="47.32027" lon="-0.41909">
        <ele>58.8</ele>
        <time>2020-08-02T08:27:26Z</time>
      </trkpt>
      <trkpt lat="47.32031" lon="-0.41911">
        <ele>58.8</ele>
        <time>2020-08-02T08:27:27Z</time>
      </trkpt>
      <trkpt lat="47.32035" lon="-0.41912">
        <ele>58.8</ele>
        <time>2020-08-02T08:27:28Z</time>
      </trkpt>
      <trkpt lat="47.32039" lon="-0.41913">
        <ele>58.8</ele>
        <time>2020-08-02T08:27:29Z</time>
      </trkpt>
      <trkpt lat="47.32043" lon="-0.41915">
        <ele>58.8</ele>
        <time>2020-08-02T08:27:30Z</time>
      </trkpt>
      <trkpt lat="47.32047" lon="-0.41916">
        <ele>58.8</ele>
        <time>2020-08-02T08:27:31Z</time>
      </trkpt>
      <trkpt lat="47.32051" lon="-0.41918">
        <ele>58.8</ele>
        <time>2020-08-02T08:27:32Z</time>
      </trkpt>
      <trkpt lat="47.32056" lon="-0.4192">
        <ele>58.8</ele>
        <time>2020-08-02T08:27:33Z</time>
      </trkpt>
      <trkpt lat="47.3206" lon="-0.41922">
        <ele>58.8</ele>
        <time>2020-08-02T08:27:34Z</time>
      </trkpt>
      <trkpt lat="47.32064" lon="-0.41923">
        <ele>58.8</ele>
        <time>2020-08-02T08:27:35Z</time>
      </trkpt>
      <trkpt lat="47.32102" lon="-0.41939">
        <ele>58.8</ele>
        <time>2020-08-02T08:27:44Z</time>
      </trkpt>
      <trkpt lat="47.32106" lon="-0.41941">
        <ele>58.8</ele>
        <time>2020-08-02T08:27:45Z</time>
      </trkpt>
      <trkpt lat="47.32128" lon="-0.4195">
        <ele>58.8</ele>
        <time>2020-08-02T08:27:50Z</time>
      </trkpt>
      <trkpt lat="47.32132" lon="-0.41952">
        <ele>58.8</ele>
        <time>2020-08-02T08:27:51Z</time>
      </trkpt>
      <trkpt lat="47.32136" lon="-0.41954">
        <ele>58.8</ele>
        <time>2020-08-02T08:27:52Z</time>
      </trkpt>
      <trkpt lat="47.3214" lon="-0.41955">
        <ele>58.8</ele>
        <time>2020-08-02T08:27:53Z</time>
      </trkpt>
      <trkpt lat="47.32145" lon="-0.41957">
        <ele>58.8</ele>
        <time>2020-08-02T08:27:54Z</time>
      </trkpt>
      <trkpt lat="47.32149" lon="-0.41958">
        <ele>58.8</ele>
        <time>2020-08-02T08:27:55Z</time>
      </trkpt>
      <trkpt lat="47.32153" lon="-0.4196">
        <ele>58.8</ele>
        <time>2020-08-02T08:27:56Z</time>
      </trkpt>
      <trkpt lat="47.32158" lon="-0.41962">
        <ele>58.8</ele>
        <time>2020-08-02T08:27:57Z</time>
      </trkpt>
      <trkpt lat="47.32166" lon="-0.41966">
        <ele>58.8</ele>
        <time>2020-08-02T08:27:59Z</time>
      </trkpt>
      <trkpt lat="47.3217" lon="-0.41968">
        <ele>58.8</ele>
        <time>2020-08-02T08:28:00Z</time>
      </trkpt>
      <trkpt lat="47.32175" lon="-0.4197">
        <ele>58.8</ele>
        <time>2020-08-02T08:28:01Z</time>
      </trkpt>
      <trkpt lat="47.32179" lon="-0.41972">
        <ele>58.8</ele>
        <time>2020-08-02T08:28:02Z</time>
      </trkpt>
      <trkpt lat="47.32218" lon="-0.41989">
        <ele>58.8</ele>
        <time>2020-08-02T08:28:11Z</time>
      </trkpt>
      <trkpt lat="47.32259" lon="-0.42007">
        <ele>58.4</ele>
        <time>2020-08-02T08:28:20Z</time>
      </trkpt>
      <trkpt lat="47.32263" lon="-0.42009">
        <ele>58.4</ele>
        <time>2020-08-02T08:28:21Z</time>
      </trkpt>
      <trkpt lat="47.32268" lon="-0.42011">
        <ele>58.4</ele>
        <time>2020-08-02T08:28:22Z</time>
      </trkpt>
      <trkpt lat="47.32272" lon="-0.42012">
        <ele>58.4</ele>
        <time>2020-08-02T08:28:23Z</time>
      </trkpt>
      <trkpt lat="47.32277" lon="-0.42014">
        <ele>58.4</ele>
        <time>2020-08-02T08:28:24Z</time>
      </trkpt>
      <trkpt lat="47.32282" lon="-0.42016">
        <ele>58.4</ele>
        <time>2020-08-02T08:28:25Z</time>
      </trkpt>
      <trkpt lat="47.32286" lon="-0.42018">
        <ele>58.4</ele>
        <time>2020-08-02T08:28:26Z</time>
      </trkpt>
      <trkpt lat="47.32291" lon="-0.4202">
        <ele>58.4</ele>
        <time>2020-08-02T08:28:27Z</time>
      </trkpt>
      <trkpt lat="47.323" lon="-0.42024">
        <ele>58.6</ele>
        <time>2020-08-02T08:28:29Z</time>
      </trkpt>
      <trkpt lat="47.3233" lon="-0.42037">
        <ele>58.8</ele>
        <time>2020-08-02T08:28:36Z</time>
      </trkpt>
      <trkpt lat="47.32335" lon="-0.42039">
        <ele>58.8</ele>
        <time>2020-08-02T08:28:37Z</time>
      </trkpt>
      <trkpt lat="47.32339" lon="-0.42041">
        <ele>58.8</ele>
        <time>2020-08-02T08:28:38Z</time>
      </trkpt>
      <trkpt lat="47.32343" lon="-0.42043">
        <ele>58.8</ele>
        <time>2020-08-02T08:28:39Z</time>
      </trkpt>
      <trkpt lat="47.32347" lon="-0.42045">
        <ele>58.8</ele>
        <time>2020-08-02T08:28:40Z</time>
      </trkpt>
      <trkpt lat="47.32352" lon="-0.42046">
        <ele>58.8</ele>
        <time>2020-08-02T08:28:41Z</time>
      </trkpt>
      <trkpt lat="47.32356" lon="-0.42048">
        <ele>58.8</ele>
        <time>2020-08-02T08:28:42Z</time>
      </trkpt>
      <trkpt lat="47.32361" lon="-0.4205">
        <ele>58.8</ele>
        <time>2020-08-02T08:28:43Z</time>
      </trkpt>
      <trkpt lat="47.32365" lon="-0.42052">
        <ele>58.8</ele>
        <time>2020-08-02T08:28:44Z</time>
      </trkpt>
      <trkpt lat="47.32388" lon="-0.42062">
        <ele>59</ele>
        <time>2020-08-02T08:28:49Z</time>
      </trkpt>
      <trkpt lat="47.32406" lon="-0.42069">
        <ele>59</ele>
        <time>2020-08-02T08:28:53Z</time>
      </trkpt>
      <trkpt lat="47.3241" lon="-0.42071">
        <ele>59</ele>
        <time>2020-08-02T08:28:54Z</time>
      </trkpt>
      <trkpt lat="47.32414" lon="-0.42073">
        <ele>59</ele>
        <time>2020-08-02T08:28:55Z</time>
      </trkpt>
      <trkpt lat="47.32419" lon="-0.42076">
        <ele>59</ele>
        <time>2020-08-02T08:28:56Z</time>
      </trkpt>
      <trkpt lat="47.32423" lon="-0.42078">
        <ele>59</ele>
        <time>2020-08-02T08:28:57Z</time>
      </trkpt>
      <trkpt lat="47.32427" lon="-0.4208">
        <ele>59</ele>
        <time>2020-08-02T08:28:58Z</time>
      </trkpt>
      <trkpt lat="47.32432" lon="-0.42083">
        <ele>59</ele>
        <time>2020-08-02T08:28:59Z</time>
      </trkpt>
      <trkpt lat="47.32436" lon="-0.42085">
        <ele>59</ele>
        <time>2020-08-02T08:29:00Z</time>
      </trkpt>
      <trkpt lat="47.32465" lon="-0.42103">
        <ele>59.2</ele>
        <time>2020-08-02T08:29:07Z</time>
      </trkpt>
      <trkpt lat="47.32469" lon="-0.42106">
        <ele>59.2</ele>
        <time>2020-08-02T08:29:08Z</time>
      </trkpt>
      <trkpt lat="47.32472" lon="-0.42109">
        <ele>59.2</ele>
        <time>2020-08-02T08:29:09Z</time>
      </trkpt>
      <trkpt lat="47.32476" lon="-0.42112">
        <ele>59.4</ele>
        <time>2020-08-02T08:29:10Z</time>
      </trkpt>
      <trkpt lat="47.32479" lon="-0.42115">
        <ele>59.4</ele>
        <time>2020-08-02T08:29:11Z</time>
      </trkpt>
      <trkpt lat="47.32483" lon="-0.42117">
        <ele>59.4</ele>
        <time>2020-08-02T08:29:12Z</time>
      </trkpt>
      <trkpt lat="47.32487" lon="-0.4212">
        <ele>59.6</ele>
        <time>2020-08-02T08:29:13Z</time>
      </trkpt>
      <trkpt lat="47.32491" lon="-0.42122">
        <ele>59.6</ele>
        <time>2020-08-02T08:29:14Z</time>
      </trkpt>
      <trkpt lat="47.32495" lon="-0.42124">
        <ele>59.6</ele>
        <time>2020-08-02T08:29:15Z</time>
      </trkpt>
      <trkpt lat="47.32499" lon="-0.42126">
        <ele>59.6</ele>
        <time>2020-08-02T08:29:16Z</time>
      </trkpt>
      <trkpt lat="47.32507" lon="-0.4213">
        <ele>59.6</ele>
        <time>2020-08-02T08:29:18Z</time>
      </trkpt>
      <trkpt lat="47.32515" lon="-0.42136">
        <ele>59.6</ele>
        <time>2020-08-02T08:29:20Z</time>
      </trkpt>
      <trkpt lat="47.3252" lon="-0.42137">
        <ele>59.6</ele>
        <time>2020-08-02T08:29:21Z</time>
      </trkpt>
      <trkpt lat="47.32528" lon="-0.42142">
        <ele>59.6</ele>
        <time>2020-08-02T08:29:23Z</time>
      </trkpt>
      <trkpt lat="47.32545" lon="-0.42151">
        <ele>59.8</ele>
        <time>2020-08-02T08:29:27Z</time>
      </trkpt>
      <trkpt lat="47.32562" lon="-0.42161">
        <ele>59.8</ele>
        <time>2020-08-02T08:29:31Z</time>
      </trkpt>
      <trkpt lat="47.32574" lon="-0.42169">
        <ele>59.8</ele>
        <time>2020-08-02T08:29:34Z</time>
      </trkpt>
      <trkpt lat="47.32579" lon="-0.42172">
        <ele>59.8</ele>
        <time>2020-08-02T08:29:35Z</time>
      </trkpt>
      <trkpt lat="47.32583" lon="-0.42174">
        <ele>60</ele>
        <time>2020-08-02T08:29:36Z</time>
      </trkpt>
      <trkpt lat="47.32592" lon="-0.42179">
        <ele>60</ele>
        <time>2020-08-02T08:29:38Z</time>
      </trkpt>
      <trkpt lat="47.32623" lon="-0.42198">
        <ele>60.4</ele>
        <time>2020-08-02T08:29:45Z</time>
      </trkpt>
      <trkpt lat="47.32631" lon="-0.42203">
        <ele>60.6</ele>
        <time>2020-08-02T08:29:47Z</time>
      </trkpt>
      <trkpt lat="47.3264" lon="-0.42208">
        <ele>60.6</ele>
        <time>2020-08-02T08:29:49Z</time>
      </trkpt>
      <trkpt lat="47.32644" lon="-0.42211">
        <ele>60.6</ele>
        <time>2020-08-02T08:29:50Z</time>
      </trkpt>
      <trkpt lat="47.32648" lon="-0.42214">
        <ele>60.8</ele>
        <time>2020-08-02T08:29:51Z</time>
      </trkpt>
      <trkpt lat="47.32652" lon="-0.42216">
        <ele>60.8</ele>
        <time>2020-08-02T08:29:52Z</time>
      </trkpt>
      <trkpt lat="47.32656" lon="-0.42219">
        <ele>61</ele>
        <time>2020-08-02T08:29:53Z</time>
      </trkpt>
      <trkpt lat="47.3266" lon="-0.42222">
        <ele>61</ele>
        <time>2020-08-02T08:29:54Z</time>
      </trkpt>
      <trkpt lat="47.32663" lon="-0.42224">
        <ele>61</ele>
        <time>2020-08-02T08:29:55Z</time>
      </trkpt>
      <trkpt lat="47.32667" lon="-0.42227">
        <ele>61.2</ele>
        <time>2020-08-02T08:29:56Z</time>
      </trkpt>
      <trkpt lat="47.32672" lon="-0.4223">
        <ele>61.2</ele>
        <time>2020-08-02T08:29:57Z</time>
      </trkpt>
      <trkpt lat="47.32676" lon="-0.42233">
        <ele>61.4</ele>
        <time>2020-08-02T08:29:58Z</time>
      </trkpt>
      <trkpt lat="47.32681" lon="-0.42235">
        <ele>61.4</ele>
        <time>2020-08-02T08:29:59Z</time>
      </trkpt>
      <trkpt lat="47.32685" lon="-0.42238">
        <ele>61.4</ele>
        <time>2020-08-02T08:30:00Z</time>
      </trkpt>
      <trkpt lat="47.32693" lon="-0.42245">
        <ele>61.6</ele>
        <time>2020-08-02T08:30:02Z</time>
      </trkpt>
      <trkpt lat="47.32697" lon="-0.42249">
        <ele>61.8</ele>
        <time>2020-08-02T08:30:03Z</time>
      </trkpt>
      <trkpt lat="47.32699" lon="-0.42255">
        <ele>61.8</ele>
        <time>2020-08-02T08:30:04Z</time>
      </trkpt>
      <trkpt lat="47.327" lon="-0.42261">
        <ele>62</ele>
        <time>2020-08-02T08:30:05Z</time>
      </trkpt>
      <trkpt lat="47.32701" lon="-0.42268">
        <ele>62</ele>
        <time>2020-08-02T08:30:06Z</time>
      </trkpt>
      <trkpt lat="47.32701" lon="-0.42283">
        <ele>62.4</ele>
        <time>2020-08-02T08:30:08Z</time>
      </trkpt>
      <trkpt lat="47.32701" lon="-0.4229">
        <ele>62.4</ele>
        <time>2020-08-02T08:30:09Z</time>
      </trkpt>
      <trkpt lat="47.32701" lon="-0.42297">
        <ele>62.6</ele>
        <time>2020-08-02T08:30:10Z</time>
      </trkpt>
      <trkpt lat="47.32701" lon="-0.42304">
        <ele>62.8</ele>
        <time>2020-08-02T08:30:11Z</time>
      </trkpt>
      <trkpt lat="47.32702" lon="-0.42311">
        <ele>63</ele>
        <time>2020-08-02T08:30:12Z</time>
      </trkpt>
      <trkpt lat="47.32703" lon="-0.42318">
        <ele>63</ele>
        <time>2020-08-02T08:30:13Z</time>
      </trkpt>
      <trkpt lat="47.32703" lon="-0.42325">
        <ele>63.2</ele>
        <time>2020-08-02T08:30:14Z</time>
      </trkpt>
      <trkpt lat="47.32703" lon="-0.42332">
        <ele>63.2</ele>
        <time>2020-08-02T08:30:15Z</time>
      </trkpt>
      <trkpt lat="47.32703" lon="-0.42339">
        <ele>63.2</ele>
        <time>2020-08-02T08:30:16Z</time>
      </trkpt>
      <trkpt lat="47.32702" lon="-0.42347">
        <ele>63.6</ele>
        <time>2020-08-02T08:30:17Z</time>
      </trkpt>
      <trkpt lat="47.32702" lon="-0.42354">
        <ele>63.8</ele>
        <time>2020-08-02T08:30:18Z</time>
      </trkpt>
      <trkpt lat="47.32702" lon="-0.42362">
        <ele>64</ele>
        <time>2020-08-02T08:30:19Z</time>
      </trkpt>
      <trkpt lat="47.32702" lon="-0.42371">
        <ele>64.2</ele>
        <time>2020-08-02T08:30:20Z</time>
      </trkpt>
      <trkpt lat="47.32703" lon="-0.42378">
        <ele>64.2</ele>
        <time>2020-08-02T08:30:21Z</time>
      </trkpt>
      <trkpt lat="47.32703" lon="-0.42386">
        <ele>64.2</ele>
        <time>2020-08-02T08:30:22Z</time>
      </trkpt>
      <trkpt lat="47.32705" lon="-0.42394">
        <ele>64.2</ele>
        <time>2020-08-02T08:30:23Z</time>
      </trkpt>
      <trkpt lat="47.32706" lon="-0.42402">
        <ele>64.4</ele>
        <time>2020-08-02T08:30:24Z</time>
      </trkpt>
      <trkpt lat="47.32707" lon="-0.4241">
        <ele>64.4</ele>
        <time>2020-08-02T08:30:25Z</time>
      </trkpt>
      <trkpt lat="47.32709" lon="-0.42418">
        <ele>64.4</ele>
        <time>2020-08-02T08:30:26Z</time>
      </trkpt>
      <trkpt lat="47.32713" lon="-0.42442">
        <ele>64.6</ele>
        <time>2020-08-02T08:30:29Z</time>
      </trkpt>
      <trkpt lat="47.32727" lon="-0.42519">
        <ele>64.6</ele>
        <time>2020-08-02T08:30:38Z</time>
      </trkpt>
      <trkpt lat="47.32728" lon="-0.42528">
        <ele>64.6</ele>
        <time>2020-08-02T08:30:39Z</time>
      </trkpt>
      <trkpt lat="47.32729" lon="-0.42543">
        <ele>64.6</ele>
        <time>2020-08-02T08:30:41Z</time>
      </trkpt>
      <trkpt lat="47.32729" lon="-0.42551">
        <ele>64.6</ele>
        <time>2020-08-02T08:30:42Z</time>
      </trkpt>
      <trkpt lat="47.32729" lon="-0.42558">
        <ele>64.6</ele>
        <time>2020-08-02T08:30:43Z</time>
      </trkpt>
      <trkpt lat="47.3273" lon="-0.42565">
        <ele>64.6</ele>
        <time>2020-08-02T08:30:44Z</time>
      </trkpt>
      <trkpt lat="47.3273" lon="-0.42573">
        <ele>64.6</ele>
        <time>2020-08-02T08:30:45Z</time>
      </trkpt>
      <trkpt lat="47.3273" lon="-0.42587">
        <ele>64.8</ele>
        <time>2020-08-02T08:30:47Z</time>
      </trkpt>
      <trkpt lat="47.32731" lon="-0.42594">
        <ele>64.8</ele>
        <time>2020-08-02T08:30:48Z</time>
      </trkpt>
      <trkpt lat="47.32731" lon="-0.426">
        <ele>64.8</ele>
        <time>2020-08-02T08:30:49Z</time>
      </trkpt>
      <trkpt lat="47.32731" lon="-0.42608">
        <ele>65</ele>
        <time>2020-08-02T08:30:50Z</time>
      </trkpt>
      <trkpt lat="47.32731" lon="-0.42613">
        <ele>65</ele>
        <time>2020-08-02T08:30:51Z</time>
      </trkpt>
      <trkpt lat="47.32731" lon="-0.42619">
        <ele>65</ele>
        <time>2020-08-02T08:30:52Z</time>
      </trkpt>
      <trkpt lat="47.32732" lon="-0.42625">
        <ele>65</ele>
        <time>2020-08-02T08:30:53Z</time>
      </trkpt>
      <trkpt lat="47.32732" lon="-0.42632">
        <ele>65</ele>
        <time>2020-08-02T08:30:54Z</time>
      </trkpt>
      <trkpt lat="47.32732" lon="-0.42638">
        <ele>65</ele>
        <time>2020-08-02T08:30:55Z</time>
      </trkpt>
      <trkpt lat="47.32733" lon="-0.42644">
        <ele>65</ele>
        <time>2020-08-02T08:30:56Z</time>
      </trkpt>
      <trkpt lat="47.32733" lon="-0.42651">
        <ele>65</ele>
        <time>2020-08-02T08:30:57Z</time>
      </trkpt>
      <trkpt lat="47.32734" lon="-0.42657">
        <ele>65</ele>
        <time>2020-08-02T08:30:58Z</time>
      </trkpt>
      <trkpt lat="47.32734" lon="-0.42663">
        <ele>65</ele>
        <time>2020-08-02T08:30:59Z</time>
      </trkpt>
      <trkpt lat="47.32734" lon="-0.4267">
        <ele>65</ele>
        <time>2020-08-02T08:31:00Z</time>
      </trkpt>
      <trkpt lat="47.32737" lon="-0.42703">
        <ele>65</ele>
        <time>2020-08-02T08:31:05Z</time>
      </trkpt>
      <trkpt lat="47.32739" lon="-0.42717">
        <ele>65</ele>
        <time>2020-08-02T08:31:07Z</time>
      </trkpt>
      <trkpt lat="47.32744" lon="-0.42749">
        <ele>65</ele>
        <time>2020-08-02T08:31:11Z</time>
      </trkpt>
      <trkpt lat="47.3275" lon="-0.42796">
        <ele>64.4</ele>
        <time>2020-08-02T08:31:18Z</time>
      </trkpt>
      <trkpt lat="47.32751" lon="-0.4281">
        <ele>64.4</ele>
        <time>2020-08-02T08:31:21Z</time>
      </trkpt>
      <trkpt lat="47.32756" lon="-0.42867">
        <ele>64.2</ele>
        <time>2020-08-02T08:31:29Z</time>
      </trkpt>
      <trkpt lat="47.32757" lon="-0.42873">
        <ele>64</ele>
        <time>2020-08-02T08:31:30Z</time>
      </trkpt>
      <trkpt lat="47.32758" lon="-0.4288">
        <ele>64</ele>
        <time>2020-08-02T08:31:31Z</time>
      </trkpt>
      <trkpt lat="47.32759" lon="-0.42887">
        <ele>64</ele>
        <time>2020-08-02T08:31:32Z</time>
      </trkpt>
      <trkpt lat="47.3276" lon="-0.42899">
        <ele>64.2</ele>
        <time>2020-08-02T08:31:33Z</time>
      </trkpt>
      <trkpt lat="47.3276" lon="-0.42899">
        <ele>64</ele>
        <time>2020-08-02T08:31:34Z</time>
      </trkpt>
      <trkpt lat="47.32763" lon="-0.42912">
        <ele>64</ele>
        <time>2020-08-02T08:31:35Z</time>
      </trkpt>
      <trkpt lat="47.32763" lon="-0.42912">
        <ele>64.2</ele>
        <time>2020-08-02T08:31:36Z</time>
      </trkpt>
      <trkpt lat="47.32766" lon="-0.42925">
        <ele>64.2</ele>
        <time>2020-08-02T08:31:37Z</time>
      </trkpt>
      <trkpt lat="47.32768" lon="-0.42932">
        <ele>64.2</ele>
        <time>2020-08-02T08:31:38Z</time>
      </trkpt>
      <trkpt lat="47.32768" lon="-0.42932">
        <ele>64.2</ele>
        <time>2020-08-02T08:31:39Z</time>
      </trkpt>
      <trkpt lat="47.32772" lon="-0.42945">
        <ele>64.2</ele>
        <time>2020-08-02T08:31:40Z</time>
      </trkpt>
      <trkpt lat="47.32774" lon="-0.42952">
        <ele>64.2</ele>
        <time>2020-08-02T08:31:41Z</time>
      </trkpt>
      <trkpt lat="47.32777" lon="-0.42959">
        <ele>64.2</ele>
        <time>2020-08-02T08:31:42Z</time>
      </trkpt>
      <trkpt lat="47.32786" lon="-0.4298">
        <ele>64.2</ele>
        <time>2020-08-02T08:31:45Z</time>
      </trkpt>
      <trkpt lat="47.32807" lon="-0.43032">
        <ele>64.6</ele>
        <time>2020-08-02T08:31:53Z</time>
      </trkpt>
      <trkpt lat="47.3281" lon="-0.43038">
        <ele>64.6</ele>
        <time>2020-08-02T08:31:54Z</time>
      </trkpt>
      <trkpt lat="47.32812" lon="-0.43046">
        <ele>64.6</ele>
        <time>2020-08-02T08:31:55Z</time>
      </trkpt>
      <trkpt lat="47.32813" lon="-0.43054">
        <ele>64.6</ele>
        <time>2020-08-02T08:31:56Z</time>
      </trkpt>
      <trkpt lat="47.32814" lon="-0.43061">
        <ele>64.6</ele>
        <time>2020-08-02T08:31:57Z</time>
      </trkpt>
      <trkpt lat="47.32816" lon="-0.43069">
        <ele>64.6</ele>
        <time>2020-08-02T08:31:58Z</time>
      </trkpt>
      <trkpt lat="47.32817" lon="-0.43076">
        <ele>64.6</ele>
        <time>2020-08-02T08:31:59Z</time>
      </trkpt>
      <trkpt lat="47.32819" lon="-0.43092">
        <ele>64.6</ele>
        <time>2020-08-02T08:32:01Z</time>
      </trkpt>
      <trkpt lat="47.32823" lon="-0.43122">
        <ele>64.6</ele>
        <time>2020-08-02T08:32:05Z</time>
      </trkpt>
      <trkpt lat="47.32825" lon="-0.4313">
        <ele>64.6</ele>
        <time>2020-08-02T08:32:06Z</time>
      </trkpt>
      <trkpt lat="47.32825" lon="-0.4313">
        <ele>64.8</ele>
        <time>2020-08-02T08:32:07Z</time>
      </trkpt>
      <trkpt lat="47.32826" lon="-0.43145">
        <ele>64.8</ele>
        <time>2020-08-02T08:32:08Z</time>
      </trkpt>
      <trkpt lat="47.32828" lon="-0.43152">
        <ele>65</ele>
        <time>2020-08-02T08:32:09Z</time>
      </trkpt>
      <trkpt lat="47.32829" lon="-0.4316">
        <ele>65</ele>
        <time>2020-08-02T08:32:10Z</time>
      </trkpt>
      <trkpt lat="47.3283" lon="-0.43167">
        <ele>65</ele>
        <time>2020-08-02T08:32:11Z</time>
      </trkpt>
      <trkpt lat="47.3283" lon="-0.43167">
        <ele>65</ele>
        <time>2020-08-02T08:32:12Z</time>
      </trkpt>
      <trkpt lat="47.32833" lon="-0.43182">
        <ele>65</ele>
        <time>2020-08-02T08:32:13Z</time>
      </trkpt>
      <trkpt lat="47.32835" lon="-0.43189">
        <ele>65.2</ele>
        <time>2020-08-02T08:32:14Z</time>
      </trkpt>
      <trkpt lat="47.32836" lon="-0.43196">
        <ele>65.2</ele>
        <time>2020-08-02T08:32:15Z</time>
      </trkpt>
      <trkpt lat="47.32845" lon="-0.43224">
        <ele>65.2</ele>
        <time>2020-08-02T08:32:19Z</time>
      </trkpt>
      <trkpt lat="47.32848" lon="-0.43231">
        <ele>65.2</ele>
        <time>2020-08-02T08:32:20Z</time>
      </trkpt>
      <trkpt lat="47.32848" lon="-0.43231">
        <ele>65.2</ele>
        <time>2020-08-02T08:32:21Z</time>
      </trkpt>
      <trkpt lat="47.32853" lon="-0.43243">
        <ele>65.2</ele>
        <time>2020-08-02T08:32:22Z</time>
      </trkpt>
      <trkpt lat="47.32856" lon="-0.43249">
        <ele>65.2</ele>
        <time>2020-08-02T08:32:23Z</time>
      </trkpt>
      <trkpt lat="47.32858" lon="-0.43256">
        <ele>65.2</ele>
        <time>2020-08-02T08:32:24Z</time>
      </trkpt>
      <trkpt lat="47.32861" lon="-0.43262">
        <ele>65.2</ele>
        <time>2020-08-02T08:32:25Z</time>
      </trkpt>
      <trkpt lat="47.32861" lon="-0.43262">
        <ele>65</ele>
        <time>2020-08-02T08:32:26Z</time>
      </trkpt>
      <trkpt lat="47.32867" lon="-0.43274">
        <ele>65</ele>
        <time>2020-08-02T08:32:27Z</time>
      </trkpt>
      <trkpt lat="47.32869" lon="-0.4328">
        <ele>65</ele>
        <time>2020-08-02T08:32:28Z</time>
      </trkpt>
      <trkpt lat="47.32872" lon="-0.43286">
        <ele>65</ele>
        <time>2020-08-02T08:32:29Z</time>
      </trkpt>
      <trkpt lat="47.32875" lon="-0.43293">
        <ele>65</ele>
        <time>2020-08-02T08:32:30Z</time>
      </trkpt>
      <trkpt lat="47.32878" lon="-0.43299">
        <ele>65</ele>
        <time>2020-08-02T08:32:31Z</time>
      </trkpt>
      <trkpt lat="47.32889" lon="-0.43326">
        <ele>65</ele>
        <time>2020-08-02T08:32:36Z</time>
      </trkpt>
      <trkpt lat="47.32905" lon="-0.43378">
        <ele>64.8</ele>
        <time>2020-08-02T08:32:42Z</time>
      </trkpt>
      <trkpt lat="47.32907" lon="-0.43387">
        <ele>64.6</ele>
        <time>2020-08-02T08:32:43Z</time>
      </trkpt>
      <trkpt lat="47.32909" lon="-0.43395">
        <ele>64.6</ele>
        <time>2020-08-02T08:32:44Z</time>
      </trkpt>
      <trkpt lat="47.32913" lon="-0.43411">
        <ele>64.6</ele>
        <time>2020-08-02T08:32:46Z</time>
      </trkpt>
      <trkpt lat="47.32921" lon="-0.43459">
        <ele>64</ele>
        <time>2020-08-02T08:32:52Z</time>
      </trkpt>
      <trkpt lat="47.32923" lon="-0.43476">
        <ele>64</ele>
        <time>2020-08-02T08:32:54Z</time>
      </trkpt>
      <trkpt lat="47.32923" lon="-0.43476">
        <ele>64</ele>
        <time>2020-08-02T08:32:55Z</time>
      </trkpt>
      <trkpt lat="47.32924" lon="-0.43493">
        <ele>63.8</ele>
        <time>2020-08-02T08:32:56Z</time>
      </trkpt>
      <trkpt lat="47.32924" lon="-0.43501">
        <ele>63.8</ele>
        <time>2020-08-02T08:32:57Z</time>
      </trkpt>
      <trkpt lat="47.32924" lon="-0.43517">
        <ele>63.8</ele>
        <time>2020-08-02T08:32:59Z</time>
      </trkpt>
      <trkpt lat="47.32925" lon="-0.4355">
        <ele>63.6</ele>
        <time>2020-08-02T08:33:03Z</time>
      </trkpt>
      <trkpt lat="47.32925" lon="-0.4355">
        <ele>63.6</ele>
        <time>2020-08-02T08:33:04Z</time>
      </trkpt>
      <trkpt lat="47.32924" lon="-0.43609">
        <ele>63.6</ele>
        <time>2020-08-02T08:33:10Z</time>
      </trkpt>
      <trkpt lat="47.32924" lon="-0.43617">
        <ele>63.6</ele>
        <time>2020-08-02T08:33:11Z</time>
      </trkpt>
      <trkpt lat="47.32924" lon="-0.43626">
        <ele>63.8</ele>
        <time>2020-08-02T08:33:12Z</time>
      </trkpt>
      <trkpt lat="47.32924" lon="-0.43634">
        <ele>63.8</ele>
        <time>2020-08-02T08:33:13Z</time>
      </trkpt>
      <trkpt lat="47.32924" lon="-0.43634">
        <ele>63.8</ele>
        <time>2020-08-02T08:33:14Z</time>
      </trkpt>
      <trkpt lat="47.32924" lon="-0.4365">
        <ele>63.8</ele>
        <time>2020-08-02T08:33:15Z</time>
      </trkpt>
      <trkpt lat="47.32923" lon="-0.43657">
        <ele>63.8</ele>
        <time>2020-08-02T08:33:16Z</time>
      </trkpt>
      <trkpt lat="47.32924" lon="-0.43665">
        <ele>63.8</ele>
        <time>2020-08-02T08:33:17Z</time>
      </trkpt>
      <trkpt lat="47.32924" lon="-0.43673">
        <ele>63.8</ele>
        <time>2020-08-02T08:33:18Z</time>
      </trkpt>
      <trkpt lat="47.32924" lon="-0.4368">
        <ele>63.8</ele>
        <time>2020-08-02T08:33:19Z</time>
      </trkpt>
      <trkpt lat="47.32925" lon="-0.43687">
        <ele>63.6</ele>
        <time>2020-08-02T08:33:20Z</time>
      </trkpt>
      <trkpt lat="47.32925" lon="-0.43694">
        <ele>63.6</ele>
        <time>2020-08-02T08:33:21Z</time>
      </trkpt>
      <trkpt lat="47.32926" lon="-0.43701">
        <ele>63.6</ele>
        <time>2020-08-02T08:33:22Z</time>
      </trkpt>
      <trkpt lat="47.32926" lon="-0.43701">
        <ele>63.4</ele>
        <time>2020-08-02T08:33:23Z</time>
      </trkpt>
      <trkpt lat="47.32933" lon="-0.4371">
        <ele>63.4</ele>
        <time>2020-08-02T08:33:24Z</time>
      </trkpt>
      <trkpt lat="47.32937" lon="-0.43713">
        <ele>63.4</ele>
        <time>2020-08-02T08:33:25Z</time>
      </trkpt>
      <trkpt lat="47.32942" lon="-0.43713">
        <ele>63.2</ele>
        <time>2020-08-02T08:33:26Z</time>
      </trkpt>
      <trkpt lat="47.32946" lon="-0.43712">
        <ele>63</ele>
        <time>2020-08-02T08:33:27Z</time>
      </trkpt>
      <trkpt lat="47.32946" lon="-0.43712">
        <ele>63</ele>
        <time>2020-08-02T08:33:28Z</time>
      </trkpt>
      <trkpt lat="47.32955" lon="-0.43711">
        <ele>62.8</ele>
        <time>2020-08-02T08:33:29Z</time>
      </trkpt>
      <trkpt lat="47.3296" lon="-0.43711">
        <ele>62.6</ele>
        <time>2020-08-02T08:33:30Z</time>
      </trkpt>
      <trkpt lat="47.32964" lon="-0.4371">
        <ele>62.4</ele>
        <time>2020-08-02T08:33:31Z</time>
      </trkpt>
      <trkpt lat="47.32969" lon="-0.4371">
        <ele>62.4</ele>
        <time>2020-08-02T08:33:32Z</time>
      </trkpt>
      <trkpt lat="47.32974" lon="-0.43709">
        <ele>62.4</ele>
        <time>2020-08-02T08:33:33Z</time>
      </trkpt>
      <trkpt lat="47.32979" lon="-0.43709">
        <ele>62.4</ele>
        <time>2020-08-02T08:33:34Z</time>
      </trkpt>
      <trkpt lat="47.32983" lon="-0.43709">
        <ele>62.4</ele>
        <time>2020-08-02T08:33:35Z</time>
      </trkpt>
      <trkpt lat="47.32988" lon="-0.43709">
        <ele>62.2</ele>
        <time>2020-08-02T08:33:36Z</time>
      </trkpt>
      <trkpt lat="47.33011" lon="-0.43707">
        <ele>62.2</ele>
        <time>2020-08-02T08:33:41Z</time>
      </trkpt>
      <trkpt lat="47.33011" lon="-0.43707">
        <ele>62.2</ele>
        <time>2020-08-02T08:33:42Z</time>
      </trkpt>
      <trkpt lat="47.33061" lon="-0.43706">
        <ele>61.6</ele>
        <time>2020-08-02T08:33:51Z</time>
      </trkpt>
      <trkpt lat="47.331" lon="-0.43706">
        <ele>61</ele>
        <time>2020-08-02T08:33:59Z</time>
      </trkpt>
      <trkpt lat="47.33105" lon="-0.43706">
        <ele>61</ele>
        <time>2020-08-02T08:34:00Z</time>
      </trkpt>
      <trkpt lat="47.33105" lon="-0.43706">
        <ele>61</ele>
        <time>2020-08-02T08:34:01Z</time>
      </trkpt>
      <trkpt lat="47.33115" lon="-0.43705">
        <ele>61</ele>
        <time>2020-08-02T08:34:02Z</time>
      </trkpt>
      <trkpt lat="47.3312" lon="-0.43705">
        <ele>60.8</ele>
        <time>2020-08-02T08:34:03Z</time>
      </trkpt>
      <trkpt lat="47.33125" lon="-0.43704">
        <ele>60.8</ele>
        <time>2020-08-02T08:34:04Z</time>
      </trkpt>
      <trkpt lat="47.3313" lon="-0.43703">
        <ele>60.8</ele>
        <time>2020-08-02T08:34:05Z</time>
      </trkpt>
      <trkpt lat="47.33135" lon="-0.43703">
        <ele>60.8</ele>
        <time>2020-08-02T08:34:06Z</time>
      </trkpt>
      <trkpt lat="47.3314" lon="-0.43703">
        <ele>60.6</ele>
        <time>2020-08-02T08:34:07Z</time>
      </trkpt>
      <trkpt lat="47.33145" lon="-0.43702">
        <ele>60.6</ele>
        <time>2020-08-02T08:34:08Z</time>
      </trkpt>
      <trkpt lat="47.3315" lon="-0.43702">
        <ele>60.6</ele>
        <time>2020-08-02T08:34:09Z</time>
      </trkpt>
      <trkpt lat="47.3315" lon="-0.43702">
        <ele>60.4</ele>
        <time>2020-08-02T08:34:10Z</time>
      </trkpt>
      <trkpt lat="47.33159" lon="-0.43702">
        <ele>60.4</ele>
        <time>2020-08-02T08:34:11Z</time>
      </trkpt>
      <trkpt lat="47.33164" lon="-0.43702">
        <ele>60.2</ele>
        <time>2020-08-02T08:34:12Z</time>
      </trkpt>
      <trkpt lat="47.33169" lon="-0.43703">
        <ele>60.2</ele>
        <time>2020-08-02T08:34:13Z</time>
      </trkpt>
      <trkpt lat="47.33174" lon="-0.43704">
        <ele>60.2</ele>
        <time>2020-08-02T08:34:14Z</time>
      </trkpt>
      <trkpt lat="47.33174" lon="-0.43704">
        <ele>60.2</ele>
        <time>2020-08-02T08:34:15Z</time>
      </trkpt>
      <trkpt lat="47.33183" lon="-0.43707">
        <ele>60.2</ele>
        <time>2020-08-02T08:34:16Z</time>
      </trkpt>
      <trkpt lat="47.33187" lon="-0.43709">
        <ele>60.2</ele>
        <time>2020-08-02T08:34:17Z</time>
      </trkpt>
      <trkpt lat="47.33191" lon="-0.4371">
        <ele>60.2</ele>
        <time>2020-08-02T08:34:18Z</time>
      </trkpt>
      <trkpt lat="47.33195" lon="-0.43712">
        <ele>60</ele>
        <time>2020-08-02T08:34:19Z</time>
      </trkpt>
      <trkpt lat="47.33195" lon="-0.43712">
        <ele>60</ele>
        <time>2020-08-02T08:34:20Z</time>
      </trkpt>
      <trkpt lat="47.33203" lon="-0.43715">
        <ele>60</ele>
        <time>2020-08-02T08:34:21Z</time>
      </trkpt>
      <trkpt lat="47.33206" lon="-0.43717">
        <ele>59.8</ele>
        <time>2020-08-02T08:34:22Z</time>
      </trkpt>
      <trkpt lat="47.3321" lon="-0.4372">
        <ele>59.8</ele>
        <time>2020-08-02T08:34:23Z</time>
      </trkpt>
      <trkpt lat="47.33214" lon="-0.43722">
        <ele>59.8</ele>
        <time>2020-08-02T08:34:24Z</time>
      </trkpt>
      <trkpt lat="47.33218" lon="-0.43724">
        <ele>59.8</ele>
        <time>2020-08-02T08:34:25Z</time>
      </trkpt>
      <trkpt lat="47.33222" lon="-0.43726">
        <ele>59.8</ele>
        <time>2020-08-02T08:34:26Z</time>
      </trkpt>
      <trkpt lat="47.33226" lon="-0.43728">
        <ele>59.8</ele>
        <time>2020-08-02T08:34:27Z</time>
      </trkpt>
      <trkpt lat="47.3323" lon="-0.4373">
        <ele>59.8</ele>
        <time>2020-08-02T08:34:28Z</time>
      </trkpt>
      <trkpt lat="47.3323" lon="-0.4373">
        <ele>59.8</ele>
        <time>2020-08-02T08:34:29Z</time>
      </trkpt>
      <trkpt lat="47.33238" lon="-0.43733">
        <ele>59.8</ele>
        <time>2020-08-02T08:34:30Z</time>
      </trkpt>
      <trkpt lat="47.3325" lon="-0.4374">
        <ele>59.8</ele>
        <time>2020-08-02T08:34:33Z</time>
      </trkpt>
      <trkpt lat="47.3325" lon="-0.4374">
        <ele>59.8</ele>
        <time>2020-08-02T08:34:34Z</time>
      </trkpt>
      <trkpt lat="47.33265" lon="-0.43748">
        <ele>59.6</ele>
        <time>2020-08-02T08:34:37Z</time>
      </trkpt>
      <trkpt lat="47.33277" lon="-0.43754">
        <ele>59.6</ele>
        <time>2020-08-02T08:34:40Z</time>
      </trkpt>
      <trkpt lat="47.33281" lon="-0.43757">
        <ele>59.6</ele>
        <time>2020-08-02T08:34:41Z</time>
      </trkpt>
      <trkpt lat="47.33284" lon="-0.43759">
        <ele>59.6</ele>
        <time>2020-08-02T08:34:42Z</time>
      </trkpt>
      <trkpt lat="47.33288" lon="-0.43761">
        <ele>59.6</ele>
        <time>2020-08-02T08:34:43Z</time>
      </trkpt>
      <trkpt lat="47.33292" lon="-0.43763">
        <ele>59.6</ele>
        <time>2020-08-02T08:34:44Z</time>
      </trkpt>
      <trkpt lat="47.33297" lon="-0.43764">
        <ele>59.6</ele>
        <time>2020-08-02T08:34:45Z</time>
      </trkpt>
      <trkpt lat="47.333" lon="-0.43765">
        <ele>59.6</ele>
        <time>2020-08-02T08:34:46Z</time>
      </trkpt>
      <trkpt lat="47.33304" lon="-0.43767">
        <ele>59.6</ele>
        <time>2020-08-02T08:34:47Z</time>
      </trkpt>
      <trkpt lat="47.33304" lon="-0.43767">
        <ele>59.6</ele>
        <time>2020-08-02T08:34:48Z</time>
      </trkpt>
      <trkpt lat="47.33311" lon="-0.43772">
        <ele>59.4</ele>
        <time>2020-08-02T08:34:49Z</time>
      </trkpt>
      <trkpt lat="47.33314" lon="-0.43775">
        <ele>59.4</ele>
        <time>2020-08-02T08:34:50Z</time>
      </trkpt>
      <trkpt lat="47.33317" lon="-0.43776">
        <ele>59.4</ele>
        <time>2020-08-02T08:34:51Z</time>
      </trkpt>
      <trkpt lat="47.33319" lon="-0.43778">
        <ele>59.4</ele>
        <time>2020-08-02T08:34:52Z</time>
      </trkpt>
      <trkpt lat="47.33324" lon="-0.43781">
        <ele>59.4</ele>
        <time>2020-08-02T08:34:54Z</time>
      </trkpt>
      <trkpt lat="47.33326" lon="-0.43782">
        <ele>59.6</ele>
        <time>2020-08-02T08:34:55Z</time>
      </trkpt>
      <trkpt lat="47.33328" lon="-0.43784">
        <ele>59.6</ele>
        <time>2020-08-02T08:34:56Z</time>
      </trkpt>
      <trkpt lat="47.3333" lon="-0.43787">
        <ele>59.6</ele>
        <time>2020-08-02T08:34:57Z</time>
      </trkpt>
      <trkpt lat="47.33333" lon="-0.4379">
        <ele>59.6</ele>
        <time>2020-08-02T08:34:58Z</time>
      </trkpt>
      <trkpt lat="47.33335" lon="-0.43793">
        <ele>59.6</ele>
        <time>2020-08-02T08:34:59Z</time>
      </trkpt>
      <trkpt lat="47.33342" lon="-0.43802">
        <ele>59.6</ele>
        <time>2020-08-02T08:35:02Z</time>
      </trkpt>
      <trkpt lat="47.33355" lon="-0.43818">
        <ele>59.6</ele>
        <time>2020-08-02T08:35:07Z</time>
      </trkpt>
      <trkpt lat="47.33366" lon="-0.43831">
        <ele>59.6</ele>
        <time>2020-08-02T08:35:09Z</time>
      </trkpt>
      <trkpt lat="47.33368" lon="-0.43834">
        <ele>59.6</ele>
        <time>2020-08-02T08:35:10Z</time>
      </trkpt>
      <trkpt lat="47.33372" lon="-0.43839">
        <ele>59.6</ele>
        <time>2020-08-02T08:35:11Z</time>
      </trkpt>
      <trkpt lat="47.33381" lon="-0.43853">
        <ele>59.6</ele>
        <time>2020-08-02T08:35:14Z</time>
      </trkpt>
      <trkpt lat="47.33389" lon="-0.43866">
        <ele>59.6</ele>
        <time>2020-08-02T08:35:17Z</time>
      </trkpt>
      <trkpt lat="47.33395" lon="-0.43875">
        <ele>59.6</ele>
        <time>2020-08-02T08:35:19Z</time>
      </trkpt>
      <trkpt lat="47.33398" lon="-0.43881">
        <ele>59.6</ele>
        <time>2020-08-02T08:35:20Z</time>
      </trkpt>
      <trkpt lat="47.33398" lon="-0.43881">
        <ele>59.8</ele>
        <time>2020-08-02T08:35:21Z</time>
      </trkpt>
      <trkpt lat="47.33402" lon="-0.43891">
        <ele>59.8</ele>
        <time>2020-08-02T08:35:22Z</time>
      </trkpt>
      <trkpt lat="47.33405" lon="-0.43896">
        <ele>59.8</ele>
        <time>2020-08-02T08:35:23Z</time>
      </trkpt>
      <trkpt lat="47.33407" lon="-0.43899">
        <ele>60</ele>
        <time>2020-08-02T08:35:24Z</time>
      </trkpt>
      <trkpt lat="47.3341" lon="-0.43904">
        <ele>60</ele>
        <time>2020-08-02T08:35:25Z</time>
      </trkpt>
      <trkpt lat="47.3341" lon="-0.43904">
        <ele>60</ele>
        <time>2020-08-02T08:35:26Z</time>
      </trkpt>
      <trkpt lat="47.33417" lon="-0.43913">
        <ele>60</ele>
        <time>2020-08-02T08:35:27Z</time>
      </trkpt>
      <trkpt lat="47.3342" lon="-0.43919">
        <ele>60</ele>
        <time>2020-08-02T08:35:28Z</time>
      </trkpt>
      <trkpt lat="47.33423" lon="-0.43924">
        <ele>60</ele>
        <time>2020-08-02T08:35:29Z</time>
      </trkpt>
      <trkpt lat="47.33427" lon="-0.43928">
        <ele>60</ele>
        <time>2020-08-02T08:35:30Z</time>
      </trkpt>
      <trkpt lat="47.3345" lon="-0.4396">
        <ele>60</ele>
        <time>2020-08-02T08:35:36Z</time>
      </trkpt>
      <trkpt lat="47.33454" lon="-0.43964">
        <ele>60</ele>
        <time>2020-08-02T08:35:37Z</time>
      </trkpt>
      <trkpt lat="47.33458" lon="-0.43968">
        <ele>60</ele>
        <time>2020-08-02T08:35:38Z</time>
      </trkpt>
      <trkpt lat="47.33461" lon="-0.43973">
        <ele>60</ele>
        <time>2020-08-02T08:35:39Z</time>
      </trkpt>
      <trkpt lat="47.33473" lon="-0.43986">
        <ele>60.2</ele>
        <time>2020-08-02T08:35:42Z</time>
      </trkpt>
      <trkpt lat="47.33478" lon="-0.43989">
        <ele>60.2</ele>
        <time>2020-08-02T08:35:43Z</time>
      </trkpt>
      <trkpt lat="47.33482" lon="-0.43992">
        <ele>60.2</ele>
        <time>2020-08-02T08:35:45Z</time>
      </trkpt>
      <trkpt lat="47.33494" lon="-0.44001">
        <ele>60.4</ele>
        <time>2020-08-02T08:35:47Z</time>
      </trkpt>
      <trkpt lat="47.33498" lon="-0.44004">
        <ele>60.4</ele>
        <time>2020-08-02T08:35:48Z</time>
      </trkpt>
      <trkpt lat="47.33502" lon="-0.44006">
        <ele>60.4</ele>
        <time>2020-08-02T08:35:49Z</time>
      </trkpt>
      <trkpt lat="47.33505" lon="-0.44008">
        <ele>60.4</ele>
        <time>2020-08-02T08:35:50Z</time>
      </trkpt>
      <trkpt lat="47.33509" lon="-0.44009">
        <ele>60.4</ele>
        <time>2020-08-02T08:35:51Z</time>
      </trkpt>
      <trkpt lat="47.33512" lon="-0.4401">
        <ele>60.6</ele>
        <time>2020-08-02T08:35:52Z</time>
      </trkpt>
      <trkpt lat="47.33515" lon="-0.44011">
        <ele>60.6</ele>
        <time>2020-08-02T08:35:53Z</time>
      </trkpt>
      <trkpt lat="47.33522" lon="-0.44013">
        <ele>60.8</ele>
        <time>2020-08-02T08:35:55Z</time>
      </trkpt>
      <trkpt lat="47.33526" lon="-0.44014">
        <ele>60.8</ele>
        <time>2020-08-02T08:35:56Z</time>
      </trkpt>
      <trkpt lat="47.33529" lon="-0.44014">
        <ele>61</ele>
        <time>2020-08-02T08:35:57Z</time>
      </trkpt>
      <trkpt lat="47.33533" lon="-0.44014">
        <ele>61</ele>
        <time>2020-08-02T08:35:58Z</time>
      </trkpt>
      <trkpt lat="47.33533" lon="-0.44014">
        <ele>61</ele>
        <time>2020-08-02T08:35:59Z</time>
      </trkpt>
      <trkpt lat="47.3354" lon="-0.44014">
        <ele>61.2</ele>
        <time>2020-08-02T08:36:00Z</time>
      </trkpt>
      <trkpt lat="47.33543" lon="-0.44013">
        <ele>61.2</ele>
        <time>2020-08-02T08:36:01Z</time>
      </trkpt>
      <trkpt lat="47.33547" lon="-0.44011">
        <ele>61.4</ele>
        <time>2020-08-02T08:36:02Z</time>
      </trkpt>
      <trkpt lat="47.3355" lon="-0.44009">
        <ele>61.4</ele>
        <time>2020-08-02T08:36:03Z</time>
      </trkpt>
      <trkpt lat="47.33554" lon="-0.44007">
        <ele>61.4</ele>
        <time>2020-08-02T08:36:04Z</time>
      </trkpt>
      <trkpt lat="47.33557" lon="-0.44004">
        <ele>61.6</ele>
        <time>2020-08-02T08:36:05Z</time>
      </trkpt>
      <trkpt lat="47.33561" lon="-0.44001">
        <ele>61.6</ele>
        <time>2020-08-02T08:36:06Z</time>
      </trkpt>
      <trkpt lat="47.33567" lon="-0.43993">
        <ele>61.6</ele>
        <time>2020-08-02T08:36:08Z</time>
      </trkpt>
      <trkpt lat="47.33573" lon="-0.43982">
        <ele>61.6</ele>
        <time>2020-08-02T08:36:10Z</time>
      </trkpt>
      <trkpt lat="47.33579" lon="-0.43973">
        <ele>61.8</ele>
        <time>2020-08-02T08:36:12Z</time>
      </trkpt>
      <trkpt lat="47.33579" lon="-0.43973">
        <ele>61.8</ele>
        <time>2020-08-02T08:36:13Z</time>
      </trkpt>
      <trkpt lat="47.33587" lon="-0.43968">
        <ele>61.8</ele>
        <time>2020-08-02T08:36:14Z</time>
      </trkpt>
      <trkpt lat="47.33591" lon="-0.43966">
        <ele>61.8</ele>
        <time>2020-08-02T08:36:15Z</time>
      </trkpt>
      <trkpt lat="47.33595" lon="-0.43966">
        <ele>62</ele>
        <time>2020-08-02T08:36:16Z</time>
      </trkpt>
      <trkpt lat="47.33599" lon="-0.43968">
        <ele>62</ele>
        <time>2020-08-02T08:36:17Z</time>
      </trkpt>
      <trkpt lat="47.33599" lon="-0.43968">
        <ele>62</ele>
        <time>2020-08-02T08:36:18Z</time>
      </trkpt>
      <trkpt lat="47.33603" lon="-0.43971">
        <ele>62</ele>
        <time>2020-08-02T08:36:19Z</time>
      </trkpt>
      <trkpt lat="47.33611" lon="-0.43977">
        <ele>62</ele>
        <time>2020-08-02T08:36:20Z</time>
      </trkpt>
      <trkpt lat="47.33615" lon="-0.43981">
        <ele>62</ele>
        <time>2020-08-02T08:36:21Z</time>
      </trkpt>
      <trkpt lat="47.33629" lon="-0.43993">
        <ele>61.8</ele>
        <time>2020-08-02T08:36:25Z</time>
      </trkpt>
      <trkpt lat="47.33632" lon="-0.43996">
        <ele>61.8</ele>
        <time>2020-08-02T08:36:26Z</time>
      </trkpt>
      <trkpt lat="47.33633" lon="-0.44">
        <ele>61.8</ele>
        <time>2020-08-02T08:36:27Z</time>
      </trkpt>
      <trkpt lat="47.33635" lon="-0.44004">
        <ele>61.8</ele>
        <time>2020-08-02T08:36:28Z</time>
      </trkpt>
      <trkpt lat="47.33637" lon="-0.44007">
        <ele>61.8</ele>
        <time>2020-08-02T08:36:29Z</time>
      </trkpt>
      <trkpt lat="47.33638" lon="-0.44011">
        <ele>61.8</ele>
        <time>2020-08-02T08:36:30Z</time>
      </trkpt>
      <trkpt lat="47.3364" lon="-0.44014">
        <ele>61.8</ele>
        <time>2020-08-02T08:36:31Z</time>
      </trkpt>
      <trkpt lat="47.3364" lon="-0.44014">
        <ele>61.8</ele>
        <time>2020-08-02T08:36:32Z</time>
      </trkpt>
      <trkpt lat="47.3364" lon="-0.44024">
        <ele>61.8</ele>
        <time>2020-08-02T08:36:33Z</time>
      </trkpt>
      <trkpt lat="47.33641" lon="-0.44031">
        <ele>62</ele>
        <time>2020-08-02T08:36:34Z</time>
      </trkpt>
      <trkpt lat="47.33641" lon="-0.44036">
        <ele>62</ele>
        <time>2020-08-02T08:36:35Z</time>
      </trkpt>
      <trkpt lat="47.33642" lon="-0.44042">
        <ele>62.2</ele>
        <time>2020-08-02T08:36:36Z</time>
      </trkpt>
      <trkpt lat="47.33644" lon="-0.44049">
        <ele>62.2</ele>
        <time>2020-08-02T08:36:37Z</time>
      </trkpt>
      <trkpt lat="47.33647" lon="-0.44062">
        <ele>62.2</ele>
        <time>2020-08-02T08:36:39Z</time>
      </trkpt>
      <trkpt lat="47.33649" lon="-0.44069">
        <ele>62.2</ele>
        <time>2020-08-02T08:36:40Z</time>
      </trkpt>
      <trkpt lat="47.33652" lon="-0.44081">
        <ele>62</ele>
        <time>2020-08-02T08:36:42Z</time>
      </trkpt>
      <trkpt lat="47.33652" lon="-0.44087">
        <ele>61.6</ele>
        <time>2020-08-02T08:36:43Z</time>
      </trkpt>
      <trkpt lat="47.33651" lon="-0.44093">
        <ele>61.4</ele>
        <time>2020-08-02T08:36:44Z</time>
      </trkpt>
      <trkpt lat="47.3365" lon="-0.44099">
        <ele>61</ele>
        <time>2020-08-02T08:36:45Z</time>
      </trkpt>
      <trkpt lat="47.3365" lon="-0.44099">
        <ele>60.8</ele>
        <time>2020-08-02T08:36:46Z</time>
      </trkpt>
      <trkpt lat="47.33649" lon="-0.44112">
        <ele>60.8</ele>
        <time>2020-08-02T08:36:47Z</time>
      </trkpt>
      <trkpt lat="47.33649" lon="-0.44119">
        <ele>60.8</ele>
        <time>2020-08-02T08:36:48Z</time>
      </trkpt>
      <trkpt lat="47.33649" lon="-0.44135">
        <ele>60.6</ele>
        <time>2020-08-02T08:36:50Z</time>
      </trkpt>
      <trkpt lat="47.33648" lon="-0.44151">
        <ele>60.6</ele>
        <time>2020-08-02T08:36:52Z</time>
      </trkpt>
      <trkpt lat="47.33646" lon="-0.44205">
        <ele>60</ele>
        <time>2020-08-02T08:36:59Z</time>
      </trkpt>
      <trkpt lat="47.33646" lon="-0.44231">
        <ele>59.6</ele>
        <time>2020-08-02T08:37:02Z</time>
      </trkpt>
      <trkpt lat="47.33647" lon="-0.44248">
        <ele>58.8</ele>
        <time>2020-08-02T08:37:05Z</time>
      </trkpt>
      <trkpt lat="47.33646" lon="-0.44276">
        <ele>58.6</ele>
        <time>2020-08-02T08:37:07Z</time>
      </trkpt>
      <trkpt lat="47.33645" lon="-0.44285">
        <ele>58.4</ele>
        <time>2020-08-02T08:37:08Z</time>
      </trkpt>
      <trkpt lat="47.33642" lon="-0.44311">
        <ele>57.6</ele>
        <time>2020-08-02T08:37:11Z</time>
      </trkpt>
      <trkpt lat="47.33641" lon="-0.44319">
        <ele>57.4</ele>
        <time>2020-08-02T08:37:12Z</time>
      </trkpt>
      <trkpt lat="47.33639" lon="-0.44335">
        <ele>57</ele>
        <time>2020-08-02T08:37:14Z</time>
      </trkpt>
      <trkpt lat="47.33639" lon="-0.44342">
        <ele>57</ele>
        <time>2020-08-02T08:37:15Z</time>
      </trkpt>
      <trkpt lat="47.33639" lon="-0.44349">
        <ele>56.6</ele>
        <time>2020-08-02T08:37:16Z</time>
      </trkpt>
      <trkpt lat="47.33639" lon="-0.44356">
        <ele>56.6</ele>
        <time>2020-08-02T08:37:17Z</time>
      </trkpt>
      <trkpt lat="47.3364" lon="-0.44363">
        <ele>56.4</ele>
        <time>2020-08-02T08:37:18Z</time>
      </trkpt>
      <trkpt lat="47.3364" lon="-0.44363">
        <ele>56.2</ele>
        <time>2020-08-02T08:37:19Z</time>
      </trkpt>
      <trkpt lat="47.33642" lon="-0.44375">
        <ele>56.2</ele>
        <time>2020-08-02T08:37:20Z</time>
      </trkpt>
      <trkpt lat="47.33642" lon="-0.44384">
        <ele>56</ele>
        <time>2020-08-02T08:37:21Z</time>
      </trkpt>
      <trkpt lat="47.33641" lon="-0.4439">
        <ele>55.6</ele>
        <time>2020-08-02T08:37:22Z</time>
      </trkpt>
      <trkpt lat="47.33639" lon="-0.44398">
        <ele>55.6</ele>
        <time>2020-08-02T08:37:23Z</time>
      </trkpt>
      <trkpt lat="47.33635" lon="-0.44406">
        <ele>55.2</ele>
        <time>2020-08-02T08:37:24Z</time>
      </trkpt>
      <trkpt lat="47.3363" lon="-0.44414">
        <ele>55</ele>
        <time>2020-08-02T08:37:25Z</time>
      </trkpt>
      <trkpt lat="47.33621" lon="-0.44428">
        <ele>54.4</ele>
        <time>2020-08-02T08:37:27Z</time>
      </trkpt>
      <trkpt lat="47.33615" lon="-0.44435">
        <ele>54.2</ele>
        <time>2020-08-02T08:37:28Z</time>
      </trkpt>
      <trkpt lat="47.33605" lon="-0.44449">
        <ele>54</ele>
        <time>2020-08-02T08:37:30Z</time>
      </trkpt>
      <trkpt lat="47.33599" lon="-0.44455">
        <ele>53.6</ele>
        <time>2020-08-02T08:37:31Z</time>
      </trkpt>
      <trkpt lat="47.33594" lon="-0.44461">
        <ele>53.2</ele>
        <time>2020-08-02T08:37:32Z</time>
      </trkpt>
      <trkpt lat="47.33594" lon="-0.44461">
        <ele>52.8</ele>
        <time>2020-08-02T08:37:33Z</time>
      </trkpt>
      <trkpt lat="47.33584" lon="-0.44471">
        <ele>52.8</ele>
        <time>2020-08-02T08:37:34Z</time>
      </trkpt>
      <trkpt lat="47.33579" lon="-0.44477">
        <ele>52.6</ele>
        <time>2020-08-02T08:37:35Z</time>
      </trkpt>
      <trkpt lat="47.33574" lon="-0.44482">
        <ele>52.4</ele>
        <time>2020-08-02T08:37:36Z</time>
      </trkpt>
      <trkpt lat="47.33569" lon="-0.44488">
        <ele>52.4</ele>
        <time>2020-08-02T08:37:37Z</time>
      </trkpt>
      <trkpt lat="47.33565" lon="-0.44494">
        <ele>52.2</ele>
        <time>2020-08-02T08:37:38Z</time>
      </trkpt>
      <trkpt lat="47.3356" lon="-0.445">
        <ele>52.2</ele>
        <time>2020-08-02T08:37:39Z</time>
      </trkpt>
      <trkpt lat="47.33556" lon="-0.44505">
        <ele>52</ele>
        <time>2020-08-02T08:37:40Z</time>
      </trkpt>
      <trkpt lat="47.33552" lon="-0.4451">
        <ele>51.8</ele>
        <time>2020-08-02T08:37:41Z</time>
      </trkpt>
      <trkpt lat="47.33547" lon="-0.44514">
        <ele>51.8</ele>
        <time>2020-08-02T08:37:42Z</time>
      </trkpt>
      <trkpt lat="47.33542" lon="-0.44518">
        <ele>51.6</ele>
        <time>2020-08-02T08:37:43Z</time>
      </trkpt>
      <trkpt lat="47.33537" lon="-0.44521">
        <ele>51.6</ele>
        <time>2020-08-02T08:37:44Z</time>
      </trkpt>
      <trkpt lat="47.33531" lon="-0.44522">
        <ele>51.4</ele>
        <time>2020-08-02T08:37:45Z</time>
      </trkpt>
      <trkpt lat="47.33525" lon="-0.44524">
        <ele>51.4</ele>
        <time>2020-08-02T08:37:46Z</time>
      </trkpt>
      <trkpt lat="47.33525" lon="-0.44524">
        <ele>51.4</ele>
        <time>2020-08-02T08:37:47Z</time>
      </trkpt>
      <trkpt lat="47.33515" lon="-0.44525">
        <ele>51.4</ele>
        <time>2020-08-02T08:37:48Z</time>
      </trkpt>
      <trkpt lat="47.33509" lon="-0.44524">
        <ele>51.2</ele>
        <time>2020-08-02T08:37:49Z</time>
      </trkpt>
      <trkpt lat="47.33509" lon="-0.44524">
        <ele>51</ele>
        <time>2020-08-02T08:37:50Z</time>
      </trkpt>
      <trkpt lat="47.33498" lon="-0.44523">
        <ele>51</ele>
        <time>2020-08-02T08:37:51Z</time>
      </trkpt>
      <trkpt lat="47.33498" lon="-0.44523">
        <ele>50.8</ele>
        <time>2020-08-02T08:37:52Z</time>
      </trkpt>
      <trkpt lat="47.3348" lon="-0.44523">
        <ele>50.4</ele>
        <time>2020-08-02T08:37:54Z</time>
      </trkpt>
      <trkpt lat="47.33453" lon="-0.44525">
        <ele>49.8</ele>
        <time>2020-08-02T08:37:58Z</time>
      </trkpt>
      <trkpt lat="47.33425" lon="-0.44524">
        <ele>48.8</ele>
        <time>2020-08-02T08:38:02Z</time>
      </trkpt>
      <trkpt lat="47.33418" lon="-0.44523">
        <ele>48.6</ele>
        <time>2020-08-02T08:38:03Z</time>
      </trkpt>
      <trkpt lat="47.33405" lon="-0.4452">
        <ele>48.2</ele>
        <time>2020-08-02T08:38:05Z</time>
      </trkpt>
      <trkpt lat="47.33381" lon="-0.4451">
        <ele>47.8</ele>
        <time>2020-08-02T08:38:09Z</time>
      </trkpt>
      <trkpt lat="47.33376" lon="-0.44509">
        <ele>47.8</ele>
        <time>2020-08-02T08:38:10Z</time>
      </trkpt>
      <trkpt lat="47.33372" lon="-0.44508">
        <ele>47.8</ele>
        <time>2020-08-02T08:38:11Z</time>
      </trkpt>
      <trkpt lat="47.33367" lon="-0.44507">
        <ele>47.8</ele>
        <time>2020-08-02T08:38:12Z</time>
      </trkpt>
      <trkpt lat="47.33363" lon="-0.44506">
        <ele>47.8</ele>
        <time>2020-08-02T08:38:13Z</time>
      </trkpt>
      <trkpt lat="47.33359" lon="-0.44505">
        <ele>47.8</ele>
        <time>2020-08-02T08:38:14Z</time>
      </trkpt>
      <trkpt lat="47.33355" lon="-0.44505">
        <ele>47.8</ele>
        <time>2020-08-02T08:38:15Z</time>
      </trkpt>
      <trkpt lat="47.33351" lon="-0.44505">
        <ele>47.8</ele>
        <time>2020-08-02T08:38:16Z</time>
      </trkpt>
      <trkpt lat="47.33351" lon="-0.44505">
        <ele>47.8</ele>
        <time>2020-08-02T08:38:17Z</time>
      </trkpt>
      <trkpt lat="47.33343" lon="-0.44505">
        <ele>47.8</ele>
        <time>2020-08-02T08:38:18Z</time>
      </trkpt>
      <trkpt lat="47.33314" lon="-0.44512">
        <ele>48</ele>
        <time>2020-08-02T08:38:24Z</time>
      </trkpt>
      <trkpt lat="47.33301" lon="-0.44515">
        <ele>47.8</ele>
        <time>2020-08-02T08:38:26Z</time>
      </trkpt>
      <trkpt lat="47.33289" lon="-0.44516">
        <ele>47.6</ele>
        <time>2020-08-02T08:38:28Z</time>
      </trkpt>
      <trkpt lat="47.33277" lon="-0.44518">
        <ele>47</ele>
        <time>2020-08-02T08:38:30Z</time>
      </trkpt>
      <trkpt lat="47.33272" lon="-0.4452">
        <ele>46.8</ele>
        <time>2020-08-02T08:38:31Z</time>
      </trkpt>
      <trkpt lat="47.33267" lon="-0.44521">
        <ele>46.6</ele>
        <time>2020-08-02T08:38:32Z</time>
      </trkpt>
      <trkpt lat="47.33263" lon="-0.44523">
        <ele>46.2</ele>
        <time>2020-08-02T08:38:33Z</time>
      </trkpt>
      <trkpt lat="47.33263" lon="-0.44523">
        <ele>46</ele>
        <time>2020-08-02T08:38:34Z</time>
      </trkpt>
      <trkpt lat="47.33256" lon="-0.44526">
        <ele>46</ele>
        <time>2020-08-02T08:38:35Z</time>
      </trkpt>
      <trkpt lat="47.33253" lon="-0.44527">
        <ele>45.8</ele>
        <time>2020-08-02T08:38:36Z</time>
      </trkpt>
      <trkpt lat="47.3325" lon="-0.44527">
        <ele>46</ele>
        <time>2020-08-02T08:38:37Z</time>
      </trkpt>
      <trkpt lat="47.33248" lon="-0.44527">
        <ele>46</ele>
        <time>2020-08-02T08:38:38Z</time>
      </trkpt>
      <trkpt lat="47.33245" lon="-0.44528">
        <ele>46</ele>
        <time>2020-08-02T08:38:39Z</time>
      </trkpt>
      <trkpt lat="47.33244" lon="-0.44528">
        <ele>46</ele>
        <time>2020-08-02T08:38:40Z</time>
      </trkpt>
      <trkpt lat="47.33243" lon="-0.44529">
        <ele>46</ele>
        <time>2020-08-02T08:38:41Z</time>
      </trkpt>
      <trkpt lat="47.33243" lon="-0.44529">
        <ele>46.2</ele>
        <time>2020-08-02T08:38:42Z</time>
      </trkpt>
      <trkpt lat="47.33243" lon="-0.44529">
        <ele>46.2</ele>
        <time>2020-08-02T08:38:43Z</time>
      </trkpt>
      <trkpt lat="47.33243" lon="-0.44529">
        <ele>46.4</ele>
        <time>2020-08-02T08:38:52Z</time>
      </trkpt>
      <trkpt lat="47.33243" lon="-0.44529">
        <ele>46.4</ele>
        <time>2020-08-02T08:39:11Z</time>
      </trkpt>
      <trkpt lat="47.33243" lon="-0.4453">
        <ele>46.6</ele>
        <time>2020-08-02T08:39:15Z</time>
      </trkpt>
      <trkpt lat="47.3324" lon="-0.44532">
        <ele>46.6</ele>
        <time>2020-08-02T08:40:28Z</time>
      </trkpt>
      <trkpt lat="47.33235" lon="-0.44531">
        <ele>46.8</ele>
        <time>2020-08-02T08:40:31Z</time>
      </trkpt>
      <trkpt lat="47.33228" lon="-0.44531">
        <ele>47.2</ele>
        <time>2020-08-02T08:40:34Z</time>
      </trkpt>
      <trkpt lat="47.33226" lon="-0.4453">
        <ele>47.2</ele>
        <time>2020-08-02T08:40:35Z</time>
      </trkpt>
      <trkpt lat="47.33223" lon="-0.44529">
        <ele>47.4</ele>
        <time>2020-08-02T08:40:36Z</time>
      </trkpt>
      <trkpt lat="47.33221" lon="-0.44528">
        <ele>47.4</ele>
        <time>2020-08-02T08:40:37Z</time>
      </trkpt>
      <trkpt lat="47.33219" lon="-0.44528">
        <ele>47.4</ele>
        <time>2020-08-02T08:40:38Z</time>
      </trkpt>
      <trkpt lat="47.33217" lon="-0.44527">
        <ele>47.6</ele>
        <time>2020-08-02T08:40:39Z</time>
      </trkpt>
      <trkpt lat="47.33215" lon="-0.44527">
        <ele>47.8</ele>
        <time>2020-08-02T08:40:40Z</time>
      </trkpt>
      <trkpt lat="47.33213" lon="-0.44527">
        <ele>47.8</ele>
        <time>2020-08-02T08:40:41Z</time>
      </trkpt>
      <trkpt lat="47.3321" lon="-0.44527">
        <ele>47.8</ele>
        <time>2020-08-02T08:40:42Z</time>
      </trkpt>
      <trkpt lat="47.33207" lon="-0.44526">
        <ele>48</ele>
        <time>2020-08-02T08:40:43Z</time>
      </trkpt>
      <trkpt lat="47.33203" lon="-0.44524">
        <ele>48.2</ele>
        <time>2020-08-02T08:40:44Z</time>
      </trkpt>
      <trkpt lat="47.33203" lon="-0.44524">
        <ele>48.4</ele>
        <time>2020-08-02T08:40:45Z</time>
      </trkpt>
      <trkpt lat="47.33199" lon="-0.44519">
        <ele>48.6</ele>
        <time>2020-08-02T08:40:46Z</time>
      </trkpt>
      <trkpt lat="47.33195" lon="-0.44516">
        <ele>49.2</ele>
        <time>2020-08-02T08:40:47Z</time>
      </trkpt>
      <trkpt lat="47.3319" lon="-0.44515">
        <ele>49.4</ele>
        <time>2020-08-02T08:40:48Z</time>
      </trkpt>
      <trkpt lat="47.33188" lon="-0.44513">
        <ele>49.6</ele>
        <time>2020-08-02T08:40:49Z</time>
      </trkpt>
      <trkpt lat="47.33186" lon="-0.44511">
        <ele>49.6</ele>
        <time>2020-08-02T08:40:50Z</time>
      </trkpt>
      <trkpt lat="47.33184" lon="-0.44508">
        <ele>49.8</ele>
        <time>2020-08-02T08:40:51Z</time>
      </trkpt>
      <trkpt lat="47.33181" lon="-0.44504">
        <ele>50</ele>
        <time>2020-08-02T08:40:52Z</time>
      </trkpt>
      <trkpt lat="47.33177" lon="-0.44502">
        <ele>50</ele>
        <time>2020-08-02T08:40:53Z</time>
      </trkpt>
      <trkpt lat="47.33177" lon="-0.44502">
        <ele>50.2</ele>
        <time>2020-08-02T08:40:54Z</time>
      </trkpt>
      <trkpt lat="47.33171" lon="-0.44499">
        <ele>50.2</ele>
        <time>2020-08-02T08:40:55Z</time>
      </trkpt>
      <trkpt lat="47.33168" lon="-0.44499">
        <ele>50.2</ele>
        <time>2020-08-02T08:40:56Z</time>
      </trkpt>
      <trkpt lat="47.33166" lon="-0.44498">
        <ele>50.4</ele>
        <time>2020-08-02T08:40:57Z</time>
      </trkpt>
      <trkpt lat="47.33161" lon="-0.44495">
        <ele>50.4</ele>
        <time>2020-08-02T08:40:58Z</time>
      </trkpt>
      <trkpt lat="47.33159" lon="-0.44492">
        <ele>50.6</ele>
        <time>2020-08-02T08:40:59Z</time>
      </trkpt>
      <trkpt lat="47.33155" lon="-0.44492">
        <ele>50.6</ele>
        <time>2020-08-02T08:41:00Z</time>
      </trkpt>
      <trkpt lat="47.33153" lon="-0.44492">
        <ele>50.8</ele>
        <time>2020-08-02T08:41:01Z</time>
      </trkpt>
      <trkpt lat="47.3315" lon="-0.44493">
        <ele>51</ele>
        <time>2020-08-02T08:41:02Z</time>
      </trkpt>
      <trkpt lat="47.33147" lon="-0.44492">
        <ele>51.4</ele>
        <time>2020-08-02T08:41:03Z</time>
      </trkpt>
      <trkpt lat="47.33144" lon="-0.44491">
        <ele>51.6</ele>
        <time>2020-08-02T08:41:04Z</time>
      </trkpt>
      <trkpt lat="47.3314" lon="-0.44492">
        <ele>51.6</ele>
        <time>2020-08-02T08:41:05Z</time>
      </trkpt>
      <trkpt lat="47.33139" lon="-0.44492">
        <ele>52.2</ele>
        <time>2020-08-02T08:41:06Z</time>
      </trkpt>
      <trkpt lat="47.33137" lon="-0.44492">
        <ele>52.4</ele>
        <time>2020-08-02T08:41:07Z</time>
      </trkpt>
      <trkpt lat="47.33135" lon="-0.4449">
        <ele>52.6</ele>
        <time>2020-08-02T08:41:08Z</time>
      </trkpt>
      <trkpt lat="47.33131" lon="-0.44489">
        <ele>52.6</ele>
        <time>2020-08-02T08:41:09Z</time>
      </trkpt>
      <trkpt lat="47.3313" lon="-0.44489">
        <ele>52.8</ele>
        <time>2020-08-02T08:41:10Z</time>
      </trkpt>
      <trkpt lat="47.33126" lon="-0.4449">
        <ele>53.2</ele>
        <time>2020-08-02T08:41:11Z</time>
      </trkpt>
      <trkpt lat="47.33124" lon="-0.44491">
        <ele>53.6</ele>
        <time>2020-08-02T08:41:12Z</time>
      </trkpt>
      <trkpt lat="47.33123" lon="-0.4449">
        <ele>53.8</ele>
        <time>2020-08-02T08:41:13Z</time>
      </trkpt>
      <trkpt lat="47.33121" lon="-0.44491">
        <ele>54</ele>
        <time>2020-08-02T08:41:14Z</time>
      </trkpt>
      <trkpt lat="47.3312" lon="-0.44493">
        <ele>54.2</ele>
        <time>2020-08-02T08:41:15Z</time>
      </trkpt>
      <trkpt lat="47.33116" lon="-0.44495">
        <ele>54.6</ele>
        <time>2020-08-02T08:41:16Z</time>
      </trkpt>
      <trkpt lat="47.33114" lon="-0.44497">
        <ele>54.6</ele>
        <time>2020-08-02T08:41:17Z</time>
      </trkpt>
      <trkpt lat="47.33112" lon="-0.44497">
        <ele>55</ele>
        <time>2020-08-02T08:41:18Z</time>
      </trkpt>
      <trkpt lat="47.3311" lon="-0.44497">
        <ele>55</ele>
        <time>2020-08-02T08:41:19Z</time>
      </trkpt>
      <trkpt lat="47.33107" lon="-0.44498">
        <ele>55.2</ele>
        <time>2020-08-02T08:41:20Z</time>
      </trkpt>
      <trkpt lat="47.33104" lon="-0.44499">
        <ele>55.2</ele>
        <time>2020-08-02T08:41:21Z</time>
      </trkpt>
      <trkpt lat="47.33103" lon="-0.44498">
        <ele>55.4</ele>
        <time>2020-08-02T08:41:22Z</time>
      </trkpt>
      <trkpt lat="47.33101" lon="-0.44498">
        <ele>55.6</ele>
        <time>2020-08-02T08:41:23Z</time>
      </trkpt>
      <trkpt lat="47.33097" lon="-0.44499">
        <ele>55.6</ele>
        <time>2020-08-02T08:41:24Z</time>
      </trkpt>
      <trkpt lat="47.33094" lon="-0.445">
        <ele>55.8</ele>
        <time>2020-08-02T08:41:25Z</time>
      </trkpt>
      <trkpt lat="47.33092" lon="-0.44501">
        <ele>55.8</ele>
        <time>2020-08-02T08:41:26Z</time>
      </trkpt>
      <trkpt lat="47.3309" lon="-0.44501">
        <ele>56</ele>
        <time>2020-08-02T08:41:27Z</time>
      </trkpt>
      <trkpt lat="47.33089" lon="-0.44501">
        <ele>56.2</ele>
        <time>2020-08-02T08:41:28Z</time>
      </trkpt>
      <trkpt lat="47.33085" lon="-0.44502">
        <ele>56.4</ele>
        <time>2020-08-02T08:41:29Z</time>
      </trkpt>
      <trkpt lat="47.33084" lon="-0.44501">
        <ele>56.6</ele>
        <time>2020-08-02T08:41:30Z</time>
      </trkpt>
      <trkpt lat="47.33082" lon="-0.44501">
        <ele>56.6</ele>
        <time>2020-08-02T08:41:31Z</time>
      </trkpt>
      <trkpt lat="47.33081" lon="-0.44501">
        <ele>56.8</ele>
        <time>2020-08-02T08:41:32Z</time>
      </trkpt>
      <trkpt lat="47.3308" lon="-0.445">
        <ele>57</ele>
        <time>2020-08-02T08:41:33Z</time>
      </trkpt>
      <trkpt lat="47.3308" lon="-0.445">
        <ele>57</ele>
        <time>2020-08-02T08:41:34Z</time>
      </trkpt>
      <trkpt lat="47.33077" lon="-0.44498">
        <ele>57.4</ele>
        <time>2020-08-02T08:41:35Z</time>
      </trkpt>
      <trkpt lat="47.33076" lon="-0.44499">
        <ele>57.4</ele>
        <time>2020-08-02T08:41:36Z</time>
      </trkpt>
      <trkpt lat="47.33074" lon="-0.44498">
        <ele>57.6</ele>
        <time>2020-08-02T08:41:37Z</time>
      </trkpt>
      <trkpt lat="47.33072" lon="-0.44497">
        <ele>57.8</ele>
        <time>2020-08-02T08:41:38Z</time>
      </trkpt>
      <trkpt lat="47.33071" lon="-0.44492">
        <ele>58</ele>
        <time>2020-08-02T08:41:39Z</time>
      </trkpt>
      <trkpt lat="47.33071" lon="-0.44492">
        <ele>58.2</ele>
        <time>2020-08-02T08:41:40Z</time>
      </trkpt>
      <trkpt lat="47.33066" lon="-0.44491">
        <ele>58.4</ele>
        <time>2020-08-02T08:41:41Z</time>
      </trkpt>
      <trkpt lat="47.33064" lon="-0.44492">
        <ele>58.6</ele>
        <time>2020-08-02T08:41:42Z</time>
      </trkpt>
      <trkpt lat="47.33063" lon="-0.44492">
        <ele>58.6</ele>
        <time>2020-08-02T08:41:43Z</time>
      </trkpt>
      <trkpt lat="47.33062" lon="-0.44492">
        <ele>58.8</ele>
        <time>2020-08-02T08:41:44Z</time>
      </trkpt>
      <trkpt lat="47.3306" lon="-0.44491">
        <ele>59.2</ele>
        <time>2020-08-02T08:41:45Z</time>
      </trkpt>
      <trkpt lat="47.33059" lon="-0.4449">
        <ele>59.4</ele>
        <time>2020-08-02T08:41:46Z</time>
      </trkpt>
      <trkpt lat="47.33058" lon="-0.4449">
        <ele>59.6</ele>
        <time>2020-08-02T08:41:47Z</time>
      </trkpt>
      <trkpt lat="47.33054" lon="-0.44492">
        <ele>59.8</ele>
        <time>2020-08-02T08:41:48Z</time>
      </trkpt>
      <trkpt lat="47.33054" lon="-0.44493">
        <ele>60</ele>
        <time>2020-08-02T08:41:49Z</time>
      </trkpt>
      <trkpt lat="47.33054" lon="-0.44493">
        <ele>60</ele>
        <time>2020-08-02T08:41:50Z</time>
      </trkpt>
      <trkpt lat="47.3305" lon="-0.44492">
        <ele>60.2</ele>
        <time>2020-08-02T08:41:51Z</time>
      </trkpt>
      <trkpt lat="47.33047" lon="-0.44493">
        <ele>60.2</ele>
        <time>2020-08-02T08:41:52Z</time>
      </trkpt>
      <trkpt lat="47.33047" lon="-0.44493">
        <ele>60.4</ele>
        <time>2020-08-02T08:41:53Z</time>
      </trkpt>
      <trkpt lat="47.33039" lon="-0.44494">
        <ele>60.8</ele>
        <time>2020-08-02T08:41:54Z</time>
      </trkpt>
      <trkpt lat="47.33037" lon="-0.44495">
        <ele>60.8</ele>
        <time>2020-08-02T08:41:55Z</time>
      </trkpt>
      <trkpt lat="47.33034" lon="-0.44495">
        <ele>61</ele>
        <time>2020-08-02T08:41:56Z</time>
      </trkpt>
      <trkpt lat="47.33032" lon="-0.44494">
        <ele>61</ele>
        <time>2020-08-02T08:41:57Z</time>
      </trkpt>
      <trkpt lat="47.3303" lon="-0.44494">
        <ele>61</ele>
        <time>2020-08-02T08:41:58Z</time>
      </trkpt>
      <trkpt lat="47.33029" lon="-0.44494">
        <ele>61.2</ele>
        <time>2020-08-02T08:41:59Z</time>
      </trkpt>
      <trkpt lat="47.33027" lon="-0.44495">
        <ele>61.2</ele>
        <time>2020-08-02T08:42:00Z</time>
      </trkpt>
      <trkpt lat="47.33025" lon="-0.44495">
        <ele>61.4</ele>
        <time>2020-08-02T08:42:01Z</time>
      </trkpt>
      <trkpt lat="47.33022" lon="-0.44493">
        <ele>61.4</ele>
        <time>2020-08-02T08:42:02Z</time>
      </trkpt>
      <trkpt lat="47.33018" lon="-0.44492">
        <ele>61.6</ele>
        <time>2020-08-02T08:42:03Z</time>
      </trkpt>
      <trkpt lat="47.33016" lon="-0.44491">
        <ele>61.6</ele>
        <time>2020-08-02T08:42:04Z</time>
      </trkpt>
      <trkpt lat="47.33016" lon="-0.44491">
        <ele>61.6</ele>
        <time>2020-08-02T08:42:05Z</time>
      </trkpt>
      <trkpt lat="47.33016" lon="-0.44491">
        <ele>61.8</ele>
        <time>2020-08-02T08:42:06Z</time>
      </trkpt>
      <trkpt lat="47.33016" lon="-0.44491">
        <ele>61.8</ele>
        <time>2020-08-02T08:42:07Z</time>
      </trkpt>
      <trkpt lat="47.33014" lon="-0.4449">
        <ele>62</ele>
        <time>2020-08-02T08:42:10Z</time>
      </trkpt>
      <trkpt lat="47.33013" lon="-0.4449">
        <ele>62</ele>
        <time>2020-08-02T08:42:11Z</time>
      </trkpt>
      <trkpt lat="47.33013" lon="-0.4449">
        <ele>62</ele>
        <time>2020-08-02T08:42:12Z</time>
      </trkpt>
      <trkpt lat="47.33004" lon="-0.4449">
        <ele>62</ele>
        <time>2020-08-02T08:42:14Z</time>
      </trkpt>
      <trkpt lat="47.33002" lon="-0.44488">
        <ele>62</ele>
        <time>2020-08-02T08:42:15Z</time>
      </trkpt>
      <trkpt lat="47.32996" lon="-0.44486">
        <ele>62.2</ele>
        <time>2020-08-02T08:42:17Z</time>
      </trkpt>
      <trkpt lat="47.32994" lon="-0.44485">
        <ele>62.2</ele>
        <time>2020-08-02T08:42:18Z</time>
      </trkpt>
      <trkpt lat="47.32991" lon="-0.44485">
        <ele>62.2</ele>
        <time>2020-08-02T08:42:20Z</time>
      </trkpt>
      <trkpt lat="47.32989" lon="-0.44485">
        <ele>62.2</ele>
        <time>2020-08-02T08:42:21Z</time>
      </trkpt>
      <trkpt lat="47.32988" lon="-0.44486">
        <ele>62.2</ele>
        <time>2020-08-02T08:42:22Z</time>
      </trkpt>
      <trkpt lat="47.32986" lon="-0.44486">
        <ele>62.4</ele>
        <time>2020-08-02T08:42:23Z</time>
      </trkpt>
      <trkpt lat="47.32984" lon="-0.44487">
        <ele>62.4</ele>
        <time>2020-08-02T08:42:24Z</time>
      </trkpt>
      <trkpt lat="47.32982" lon="-0.44488">
        <ele>62.4</ele>
        <time>2020-08-02T08:42:25Z</time>
      </trkpt>
      <trkpt lat="47.3298" lon="-0.44488">
        <ele>62.6</ele>
        <time>2020-08-02T08:42:26Z</time>
      </trkpt>
      <trkpt lat="47.32978" lon="-0.44488">
        <ele>62.6</ele>
        <time>2020-08-02T08:42:27Z</time>
      </trkpt>
      <trkpt lat="47.32976" lon="-0.44487">
        <ele>62.6</ele>
        <time>2020-08-02T08:42:28Z</time>
      </trkpt>
      <trkpt lat="47.32973" lon="-0.44487">
        <ele>62.8</ele>
        <time>2020-08-02T08:42:29Z</time>
      </trkpt>
      <trkpt lat="47.3297" lon="-0.44487">
        <ele>62.8</ele>
        <time>2020-08-02T08:42:30Z</time>
      </trkpt>
      <trkpt lat="47.32968" lon="-0.44485">
        <ele>62.8</ele>
        <time>2020-08-02T08:42:31Z</time>
      </trkpt>
      <trkpt lat="47.32966" lon="-0.44483">
        <ele>62.8</ele>
        <time>2020-08-02T08:42:32Z</time>
      </trkpt>
      <trkpt lat="47.32964" lon="-0.44482">
        <ele>62.8</ele>
        <time>2020-08-02T08:42:33Z</time>
      </trkpt>
      <trkpt lat="47.32961" lon="-0.44482">
        <ele>62.8</ele>
        <time>2020-08-02T08:42:34Z</time>
      </trkpt>
      <trkpt lat="47.32959" lon="-0.44482">
        <ele>63</ele>
        <time>2020-08-02T08:42:35Z</time>
      </trkpt>
      <trkpt lat="47.32955" lon="-0.44481">
        <ele>63.2</ele>
        <time>2020-08-02T08:42:37Z</time>
      </trkpt>
      <trkpt lat="47.32952" lon="-0.44481">
        <ele>63.2</ele>
        <time>2020-08-02T08:42:38Z</time>
      </trkpt>
      <trkpt lat="47.32946" lon="-0.4448">
        <ele>63.4</ele>
        <time>2020-08-02T08:42:40Z</time>
      </trkpt>
      <trkpt lat="47.32944" lon="-0.4448">
        <ele>63.4</ele>
        <time>2020-08-02T08:42:41Z</time>
      </trkpt>
      <trkpt lat="47.32941" lon="-0.44479">
        <ele>63.4</ele>
        <time>2020-08-02T08:42:42Z</time>
      </trkpt>
      <trkpt lat="47.32939" lon="-0.44478">
        <ele>63.4</ele>
        <time>2020-08-02T08:42:43Z</time>
      </trkpt>
      <trkpt lat="47.32937" lon="-0.44478">
        <ele>63.6</ele>
        <time>2020-08-02T08:42:44Z</time>
      </trkpt>
      <trkpt lat="47.32934" lon="-0.44477">
        <ele>63.6</ele>
        <time>2020-08-02T08:42:45Z</time>
      </trkpt>
      <trkpt lat="47.32926" lon="-0.44478">
        <ele>63.6</ele>
        <time>2020-08-02T08:42:47Z</time>
      </trkpt>
      <trkpt lat="47.32923" lon="-0.44479">
        <ele>63.6</ele>
        <time>2020-08-02T08:42:48Z</time>
      </trkpt>
      <trkpt lat="47.32919" lon="-0.44481">
        <ele>63.6</ele>
        <time>2020-08-02T08:42:49Z</time>
      </trkpt>
      <trkpt lat="47.32906" lon="-0.44492">
        <ele>63.4</ele>
        <time>2020-08-02T08:42:52Z</time>
      </trkpt>
      <trkpt lat="47.32898" lon="-0.44501">
        <ele>63.2</ele>
        <time>2020-08-02T08:42:54Z</time>
      </trkpt>
      <trkpt lat="47.32896" lon="-0.44503">
        <ele>63.2</ele>
        <time>2020-08-02T08:42:55Z</time>
      </trkpt>
      <trkpt lat="47.32893" lon="-0.44509">
        <ele>63</ele>
        <time>2020-08-02T08:42:56Z</time>
      </trkpt>
      <trkpt lat="47.3289" lon="-0.44517">
        <ele>62.8</ele>
        <time>2020-08-02T08:42:57Z</time>
      </trkpt>
      <trkpt lat="47.32884" lon="-0.44527">
        <ele>62.8</ele>
        <time>2020-08-02T08:42:59Z</time>
      </trkpt>
      <trkpt lat="47.32882" lon="-0.44532">
        <ele>62.6</ele>
        <time>2020-08-02T08:43:00Z</time>
      </trkpt>
      <trkpt lat="47.32877" lon="-0.44542">
        <ele>62.6</ele>
        <time>2020-08-02T08:43:02Z</time>
      </trkpt>
      <trkpt lat="47.32873" lon="-0.44546">
        <ele>62.6</ele>
        <time>2020-08-02T08:43:03Z</time>
      </trkpt>
      <trkpt lat="47.32868" lon="-0.44551">
        <ele>62.6</ele>
        <time>2020-08-02T08:43:04Z</time>
      </trkpt>
      <trkpt lat="47.32863" lon="-0.44555">
        <ele>62.6</ele>
        <time>2020-08-02T08:43:05Z</time>
      </trkpt>
      <trkpt lat="47.3286" lon="-0.44566">
        <ele>62.6</ele>
        <time>2020-08-02T08:43:07Z</time>
      </trkpt>
      <trkpt lat="47.32858" lon="-0.44573">
        <ele>62.6</ele>
        <time>2020-08-02T08:43:08Z</time>
      </trkpt>
      <trkpt lat="47.32856" lon="-0.44577">
        <ele>62.6</ele>
        <time>2020-08-02T08:43:09Z</time>
      </trkpt>
      <trkpt lat="47.32854" lon="-0.44583">
        <ele>62.4</ele>
        <time>2020-08-02T08:43:10Z</time>
      </trkpt>
      <trkpt lat="47.3285" lon="-0.44588">
        <ele>62.4</ele>
        <time>2020-08-02T08:43:11Z</time>
      </trkpt>
      <trkpt lat="47.32846" lon="-0.44594">
        <ele>62.2</ele>
        <time>2020-08-02T08:43:12Z</time>
      </trkpt>
      <trkpt lat="47.32843" lon="-0.446">
        <ele>62.2</ele>
        <time>2020-08-02T08:43:13Z</time>
      </trkpt>
      <trkpt lat="47.32841" lon="-0.44606">
        <ele>62.2</ele>
        <time>2020-08-02T08:43:14Z</time>
      </trkpt>
      <trkpt lat="47.32836" lon="-0.44613">
        <ele>62.2</ele>
        <time>2020-08-02T08:43:15Z</time>
      </trkpt>
      <trkpt lat="47.32831" lon="-0.4462">
        <ele>62.2</ele>
        <time>2020-08-02T08:43:16Z</time>
      </trkpt>
      <trkpt lat="47.32829" lon="-0.44626">
        <ele>62.2</ele>
        <time>2020-08-02T08:43:17Z</time>
      </trkpt>
      <trkpt lat="47.32827" lon="-0.44632">
        <ele>62.2</ele>
        <time>2020-08-02T08:43:18Z</time>
      </trkpt>
      <trkpt lat="47.32826" lon="-0.44638">
        <ele>62</ele>
        <time>2020-08-02T08:43:19Z</time>
      </trkpt>
      <trkpt lat="47.32825" lon="-0.44643">
        <ele>61.8</ele>
        <time>2020-08-02T08:43:20Z</time>
      </trkpt>
      <trkpt lat="47.3282" lon="-0.44654">
        <ele>61.8</ele>
        <time>2020-08-02T08:43:22Z</time>
      </trkpt>
      <trkpt lat="47.32816" lon="-0.44659">
        <ele>61.6</ele>
        <time>2020-08-02T08:43:23Z</time>
      </trkpt>
      <trkpt lat="47.32813" lon="-0.44664">
        <ele>61.6</ele>
        <time>2020-08-02T08:43:24Z</time>
      </trkpt>
      <trkpt lat="47.32808" lon="-0.44669">
        <ele>61.8</ele>
        <time>2020-08-02T08:43:25Z</time>
      </trkpt>
      <trkpt lat="47.328" lon="-0.44681">
        <ele>61.4</ele>
        <time>2020-08-02T08:43:27Z</time>
      </trkpt>
      <trkpt lat="47.32797" lon="-0.44687">
        <ele>61.4</ele>
        <time>2020-08-02T08:43:28Z</time>
      </trkpt>
      <trkpt lat="47.32794" lon="-0.44693">
        <ele>61.2</ele>
        <time>2020-08-02T08:43:29Z</time>
      </trkpt>
      <trkpt lat="47.32788" lon="-0.44705">
        <ele>60.8</ele>
        <time>2020-08-02T08:43:31Z</time>
      </trkpt>
      <trkpt lat="47.32779" lon="-0.44723">
        <ele>60.8</ele>
        <time>2020-08-02T08:43:34Z</time>
      </trkpt>
      <trkpt lat="47.32771" lon="-0.44738">
        <ele>60.6</ele>
        <time>2020-08-02T08:43:37Z</time>
      </trkpt>
      <trkpt lat="47.32769" lon="-0.44744">
        <ele>60.6</ele>
        <time>2020-08-02T08:43:38Z</time>
      </trkpt>
      <trkpt lat="47.32767" lon="-0.4475">
        <ele>60.4</ele>
        <time>2020-08-02T08:43:39Z</time>
      </trkpt>
      <trkpt lat="47.32765" lon="-0.44755">
        <ele>60.4</ele>
        <time>2020-08-02T08:43:40Z</time>
      </trkpt>
      <trkpt lat="47.32762" lon="-0.44761">
        <ele>60.4</ele>
        <time>2020-08-02T08:43:41Z</time>
      </trkpt>
      <trkpt lat="47.32755" lon="-0.44775">
        <ele>60.4</ele>
        <time>2020-08-02T08:43:43Z</time>
      </trkpt>
      <trkpt lat="47.32748" lon="-0.44786">
        <ele>60</ele>
        <time>2020-08-02T08:43:45Z</time>
      </trkpt>
      <trkpt lat="47.32746" lon="-0.44792">
        <ele>59.8</ele>
        <time>2020-08-02T08:43:46Z</time>
      </trkpt>
      <trkpt lat="47.32742" lon="-0.44799">
        <ele>59.6</ele>
        <time>2020-08-02T08:43:47Z</time>
      </trkpt>
      <trkpt lat="47.32733" lon="-0.44811">
        <ele>59.4</ele>
        <time>2020-08-02T08:43:49Z</time>
      </trkpt>
      <trkpt lat="47.32729" lon="-0.44817">
        <ele>59.4</ele>
        <time>2020-08-02T08:43:50Z</time>
      </trkpt>
      <trkpt lat="47.32725" lon="-0.44823">
        <ele>59.4</ele>
        <time>2020-08-02T08:43:51Z</time>
      </trkpt>
      <trkpt lat="47.32722" lon="-0.44829">
        <ele>59.4</ele>
        <time>2020-08-02T08:43:52Z</time>
      </trkpt>
      <trkpt lat="47.32719" lon="-0.44836">
        <ele>59.4</ele>
        <time>2020-08-02T08:43:53Z</time>
      </trkpt>
      <trkpt lat="47.32715" lon="-0.44842">
        <ele>59.4</ele>
        <time>2020-08-02T08:43:54Z</time>
      </trkpt>
      <trkpt lat="47.32715" lon="-0.44842">
        <ele>59.4</ele>
        <time>2020-08-02T08:43:55Z</time>
      </trkpt>
      <trkpt lat="47.32708" lon="-0.44854">
        <ele>59.4</ele>
        <time>2020-08-02T08:43:56Z</time>
      </trkpt>
      <trkpt lat="47.32704" lon="-0.44861">
        <ele>59.4</ele>
        <time>2020-08-02T08:43:57Z</time>
      </trkpt>
      <trkpt lat="47.32701" lon="-0.44867">
        <ele>59.4</ele>
        <time>2020-08-02T08:43:58Z</time>
      </trkpt>
      <trkpt lat="47.32698" lon="-0.44873">
        <ele>59.4</ele>
        <time>2020-08-02T08:43:59Z</time>
      </trkpt>
      <trkpt lat="47.32695" lon="-0.4488">
        <ele>59.4</ele>
        <time>2020-08-02T08:44:00Z</time>
      </trkpt>
      <trkpt lat="47.32692" lon="-0.44887">
        <ele>59.2</ele>
        <time>2020-08-02T08:44:01Z</time>
      </trkpt>
      <trkpt lat="47.32688" lon="-0.44893">
        <ele>59.2</ele>
        <time>2020-08-02T08:44:02Z</time>
      </trkpt>
      <trkpt lat="47.32684" lon="-0.44898">
        <ele>59</ele>
        <time>2020-08-02T08:44:03Z</time>
      </trkpt>
      <trkpt lat="47.32679" lon="-0.44905">
        <ele>59</ele>
        <time>2020-08-02T08:44:04Z</time>
      </trkpt>
      <trkpt lat="47.32675" lon="-0.44913">
        <ele>59</ele>
        <time>2020-08-02T08:44:05Z</time>
      </trkpt>
      <trkpt lat="47.32672" lon="-0.44918">
        <ele>59</ele>
        <time>2020-08-02T08:44:06Z</time>
      </trkpt>
      <trkpt lat="47.32665" lon="-0.44926">
        <ele>59</ele>
        <time>2020-08-02T08:44:07Z</time>
      </trkpt>
      <trkpt lat="47.32661" lon="-0.44932">
        <ele>59</ele>
        <time>2020-08-02T08:44:08Z</time>
      </trkpt>
      <trkpt lat="47.32657" lon="-0.44943">
        <ele>59</ele>
        <time>2020-08-02T08:44:10Z</time>
      </trkpt>
      <trkpt lat="47.32651" lon="-0.44952">
        <ele>58.8</ele>
        <time>2020-08-02T08:44:12Z</time>
      </trkpt>
      <trkpt lat="47.32647" lon="-0.44959">
        <ele>58.8</ele>
        <time>2020-08-02T08:44:13Z</time>
      </trkpt>
      <trkpt lat="47.32643" lon="-0.44963">
        <ele>58.8</ele>
        <time>2020-08-02T08:44:14Z</time>
      </trkpt>
      <trkpt lat="47.3264" lon="-0.44968">
        <ele>58.8</ele>
        <time>2020-08-02T08:44:15Z</time>
      </trkpt>
      <trkpt lat="47.32637" lon="-0.44973">
        <ele>58.8</ele>
        <time>2020-08-02T08:44:16Z</time>
      </trkpt>
      <trkpt lat="47.32635" lon="-0.44977">
        <ele>58.8</ele>
        <time>2020-08-02T08:44:17Z</time>
      </trkpt>
      <trkpt lat="47.32631" lon="-0.44981">
        <ele>58.8</ele>
        <time>2020-08-02T08:44:18Z</time>
      </trkpt>
      <trkpt lat="47.32621" lon="-0.44996">
        <ele>58.8</ele>
        <time>2020-08-02T08:44:21Z</time>
      </trkpt>
      <trkpt lat="47.32609" lon="-0.45015">
        <ele>58.4</ele>
        <time>2020-08-02T08:44:25Z</time>
      </trkpt>
      <trkpt lat="47.32606" lon="-0.4502">
        <ele>58.2</ele>
        <time>2020-08-02T08:44:26Z</time>
      </trkpt>
      <trkpt lat="47.32603" lon="-0.45025">
        <ele>58.2</ele>
        <time>2020-08-02T08:44:27Z</time>
      </trkpt>
      <trkpt lat="47.32599" lon="-0.4503">
        <ele>58.2</ele>
        <time>2020-08-02T08:44:28Z</time>
      </trkpt>
      <trkpt lat="47.32596" lon="-0.45035">
        <ele>58</ele>
        <time>2020-08-02T08:44:29Z</time>
      </trkpt>
      <trkpt lat="47.32593" lon="-0.45038">
        <ele>58</ele>
        <time>2020-08-02T08:44:30Z</time>
      </trkpt>
      <trkpt lat="47.32589" lon="-0.45043">
        <ele>58</ele>
        <time>2020-08-02T08:44:31Z</time>
      </trkpt>
      <trkpt lat="47.32584" lon="-0.45047">
        <ele>58</ele>
        <time>2020-08-02T08:44:32Z</time>
      </trkpt>
      <trkpt lat="47.3258" lon="-0.45053">
        <ele>58</ele>
        <time>2020-08-02T08:44:33Z</time>
      </trkpt>
      <trkpt lat="47.32577" lon="-0.45058">
        <ele>58.2</ele>
        <time>2020-08-02T08:44:34Z</time>
      </trkpt>
      <trkpt lat="47.32573" lon="-0.45062">
        <ele>58.2</ele>
        <time>2020-08-02T08:44:35Z</time>
      </trkpt>
      <trkpt lat="47.32569" lon="-0.45067">
        <ele>58.2</ele>
        <time>2020-08-02T08:44:36Z</time>
      </trkpt>
      <trkpt lat="47.32565" lon="-0.45073">
        <ele>58.2</ele>
        <time>2020-08-02T08:44:37Z</time>
      </trkpt>
      <trkpt lat="47.32554" lon="-0.45081">
        <ele>58.2</ele>
        <time>2020-08-02T08:44:39Z</time>
      </trkpt>
      <trkpt lat="47.32549" lon="-0.45084">
        <ele>58.2</ele>
        <time>2020-08-02T08:44:40Z</time>
      </trkpt>
      <trkpt lat="47.32544" lon="-0.45088">
        <ele>58.2</ele>
        <time>2020-08-02T08:44:41Z</time>
      </trkpt>
      <trkpt lat="47.32528" lon="-0.45103">
        <ele>58</ele>
        <time>2020-08-02T08:44:44Z</time>
      </trkpt>
      <trkpt lat="47.32523" lon="-0.45108">
        <ele>58</ele>
        <time>2020-08-02T08:44:45Z</time>
      </trkpt>
      <trkpt lat="47.32519" lon="-0.45111">
        <ele>57.8</ele>
        <time>2020-08-02T08:44:46Z</time>
      </trkpt>
      <trkpt lat="47.32519" lon="-0.45111">
        <ele>57.8</ele>
        <time>2020-08-02T08:44:47Z</time>
      </trkpt>
      <trkpt lat="47.32512" lon="-0.45114">
        <ele>57.8</ele>
        <time>2020-08-02T08:44:48Z</time>
      </trkpt>
      <trkpt lat="47.32507" lon="-0.45117">
        <ele>57.8</ele>
        <time>2020-08-02T08:44:49Z</time>
      </trkpt>
      <trkpt lat="47.32502" lon="-0.4512">
        <ele>57.8</ele>
        <time>2020-08-02T08:44:50Z</time>
      </trkpt>
      <trkpt lat="47.32497" lon="-0.45123">
        <ele>57.6</ele>
        <time>2020-08-02T08:44:51Z</time>
      </trkpt>
      <trkpt lat="47.32493" lon="-0.45126">
        <ele>57.6</ele>
        <time>2020-08-02T08:44:52Z</time>
      </trkpt>
      <trkpt lat="47.32488" lon="-0.45129">
        <ele>57.6</ele>
        <time>2020-08-02T08:44:53Z</time>
      </trkpt>
      <trkpt lat="47.32484" lon="-0.45133">
        <ele>57.6</ele>
        <time>2020-08-02T08:44:54Z</time>
      </trkpt>
      <trkpt lat="47.32479" lon="-0.45135">
        <ele>57.6</ele>
        <time>2020-08-02T08:44:55Z</time>
      </trkpt>
      <trkpt lat="47.32475" lon="-0.45137">
        <ele>57.4</ele>
        <time>2020-08-02T08:44:56Z</time>
      </trkpt>
      <trkpt lat="47.32471" lon="-0.4514">
        <ele>57.4</ele>
        <time>2020-08-02T08:44:57Z</time>
      </trkpt>
      <trkpt lat="47.32471" lon="-0.4514">
        <ele>57.2</ele>
        <time>2020-08-02T08:44:58Z</time>
      </trkpt>
      <trkpt lat="47.32465" lon="-0.45144">
        <ele>57.2</ele>
        <time>2020-08-02T08:44:59Z</time>
      </trkpt>
      <trkpt lat="47.3246" lon="-0.45146">
        <ele>57</ele>
        <time>2020-08-02T08:45:00Z</time>
      </trkpt>
      <trkpt lat="47.32456" lon="-0.45148">
        <ele>57</ele>
        <time>2020-08-02T08:45:01Z</time>
      </trkpt>
      <trkpt lat="47.32451" lon="-0.45149">
        <ele>56.8</ele>
        <time>2020-08-02T08:45:02Z</time>
      </trkpt>
      <trkpt lat="47.32446" lon="-0.45152">
        <ele>56.6</ele>
        <time>2020-08-02T08:45:03Z</time>
      </trkpt>
      <trkpt lat="47.32441" lon="-0.45154">
        <ele>56.6</ele>
        <time>2020-08-02T08:45:04Z</time>
      </trkpt>
      <trkpt lat="47.32437" lon="-0.45157">
        <ele>56.4</ele>
        <time>2020-08-02T08:45:05Z</time>
      </trkpt>
      <trkpt lat="47.32433" lon="-0.45159">
        <ele>56.2</ele>
        <time>2020-08-02T08:45:06Z</time>
      </trkpt>
      <trkpt lat="47.32429" lon="-0.45162">
        <ele>56.2</ele>
        <time>2020-08-02T08:45:07Z</time>
      </trkpt>
      <trkpt lat="47.32425" lon="-0.45165">
        <ele>56.2</ele>
        <time>2020-08-02T08:45:08Z</time>
      </trkpt>
      <trkpt lat="47.3242" lon="-0.45169">
        <ele>56.2</ele>
        <time>2020-08-02T08:45:09Z</time>
      </trkpt>
      <trkpt lat="47.32408" lon="-0.45179">
        <ele>56.2</ele>
        <time>2020-08-02T08:45:11Z</time>
      </trkpt>
      <trkpt lat="47.32403" lon="-0.45182">
        <ele>56.2</ele>
        <time>2020-08-02T08:45:12Z</time>
      </trkpt>
      <trkpt lat="47.3239" lon="-0.4519">
        <ele>56</ele>
        <time>2020-08-02T08:45:14Z</time>
      </trkpt>
      <trkpt lat="47.32386" lon="-0.45196">
        <ele>55.6</ele>
        <time>2020-08-02T08:45:15Z</time>
      </trkpt>
      <trkpt lat="47.32381" lon="-0.45201">
        <ele>55.6</ele>
        <time>2020-08-02T08:45:16Z</time>
      </trkpt>
      <trkpt lat="47.32381" lon="-0.45201">
        <ele>55.4</ele>
        <time>2020-08-02T08:45:17Z</time>
      </trkpt>
      <trkpt lat="47.32373" lon="-0.45204">
        <ele>55.4</ele>
        <time>2020-08-02T08:45:18Z</time>
      </trkpt>
      <trkpt lat="47.32368" lon="-0.45207">
        <ele>55.4</ele>
        <time>2020-08-02T08:45:19Z</time>
      </trkpt>
      <trkpt lat="47.32364" lon="-0.45209">
        <ele>55.2</ele>
        <time>2020-08-02T08:45:20Z</time>
      </trkpt>
      <trkpt lat="47.3236" lon="-0.45209">
        <ele>55.2</ele>
        <time>2020-08-02T08:45:21Z</time>
      </trkpt>
      <trkpt lat="47.32356" lon="-0.45209">
        <ele>55</ele>
        <time>2020-08-02T08:45:22Z</time>
      </trkpt>
      <trkpt lat="47.3235" lon="-0.45212">
        <ele>55</ele>
        <time>2020-08-02T08:45:23Z</time>
      </trkpt>
      <trkpt lat="47.32344" lon="-0.45214">
        <ele>55</ele>
        <time>2020-08-02T08:45:24Z</time>
      </trkpt>
      <trkpt lat="47.32339" lon="-0.45218">
        <ele>55</ele>
        <time>2020-08-02T08:45:25Z</time>
      </trkpt>
      <trkpt lat="47.32336" lon="-0.45221">
        <ele>55</ele>
        <time>2020-08-02T08:45:26Z</time>
      </trkpt>
      <trkpt lat="47.32332" lon="-0.45223">
        <ele>54.8</ele>
        <time>2020-08-02T08:45:27Z</time>
      </trkpt>
      <trkpt lat="47.32314" lon="-0.45234">
        <ele>54.6</ele>
        <time>2020-08-02T08:45:31Z</time>
      </trkpt>
      <trkpt lat="47.32309" lon="-0.45238">
        <ele>54.4</ele>
        <time>2020-08-02T08:45:32Z</time>
      </trkpt>
      <trkpt lat="47.32304" lon="-0.4524">
        <ele>54.4</ele>
        <time>2020-08-02T08:45:33Z</time>
      </trkpt>
      <trkpt lat="47.32299" lon="-0.45242">
        <ele>54.4</ele>
        <time>2020-08-02T08:45:34Z</time>
      </trkpt>
      <trkpt lat="47.32294" lon="-0.45246">
        <ele>54.4</ele>
        <time>2020-08-02T08:45:35Z</time>
      </trkpt>
      <trkpt lat="47.32289" lon="-0.45249">
        <ele>54.4</ele>
        <time>2020-08-02T08:45:36Z</time>
      </trkpt>
      <trkpt lat="47.32285" lon="-0.45251">
        <ele>54.4</ele>
        <time>2020-08-02T08:45:37Z</time>
      </trkpt>
      <trkpt lat="47.3228" lon="-0.45254">
        <ele>54.4</ele>
        <time>2020-08-02T08:45:38Z</time>
      </trkpt>
      <trkpt lat="47.32252" lon="-0.45271">
        <ele>53.6</ele>
        <time>2020-08-02T08:45:43Z</time>
      </trkpt>
      <trkpt lat="47.32245" lon="-0.45275">
        <ele>53.6</ele>
        <time>2020-08-02T08:45:44Z</time>
      </trkpt>
      <trkpt lat="47.3224" lon="-0.45279">
        <ele>53.6</ele>
        <time>2020-08-02T08:45:45Z</time>
      </trkpt>
      <trkpt lat="47.32235" lon="-0.45283">
        <ele>53.2</ele>
        <time>2020-08-02T08:45:46Z</time>
      </trkpt>
      <trkpt lat="47.3223" lon="-0.45287">
        <ele>53.2</ele>
        <time>2020-08-02T08:45:47Z</time>
      </trkpt>
      <trkpt lat="47.32226" lon="-0.45291">
        <ele>53</ele>
        <time>2020-08-02T08:45:48Z</time>
      </trkpt>
      <trkpt lat="47.32221" lon="-0.45293">
        <ele>52.8</ele>
        <time>2020-08-02T08:45:49Z</time>
      </trkpt>
      <trkpt lat="47.32217" lon="-0.45296">
        <ele>52.8</ele>
        <time>2020-08-02T08:45:50Z</time>
      </trkpt>
      <trkpt lat="47.32211" lon="-0.45301">
        <ele>52.6</ele>
        <time>2020-08-02T08:45:51Z</time>
      </trkpt>
      <trkpt lat="47.32205" lon="-0.45307">
        <ele>52.6</ele>
        <time>2020-08-02T08:45:52Z</time>
      </trkpt>
      <trkpt lat="47.32199" lon="-0.45313">
        <ele>52.6</ele>
        <time>2020-08-02T08:45:53Z</time>
      </trkpt>
      <trkpt lat="47.32194" lon="-0.45319">
        <ele>52.4</ele>
        <time>2020-08-02T08:45:54Z</time>
      </trkpt>
      <trkpt lat="47.32189" lon="-0.45323">
        <ele>52.2</ele>
        <time>2020-08-02T08:45:55Z</time>
      </trkpt>
      <trkpt lat="47.3218" lon="-0.45334">
        <ele>52.2</ele>
        <time>2020-08-02T08:45:57Z</time>
      </trkpt>
      <trkpt lat="47.32175" lon="-0.45339">
        <ele>52</ele>
        <time>2020-08-02T08:45:58Z</time>
      </trkpt>
      <trkpt lat="47.3217" lon="-0.45343">
        <ele>52</ele>
        <time>2020-08-02T08:45:59Z</time>
      </trkpt>
      <trkpt lat="47.32165" lon="-0.45348">
        <ele>52</ele>
        <time>2020-08-02T08:46:00Z</time>
      </trkpt>
      <trkpt lat="47.32155" lon="-0.45358">
        <ele>51.6</ele>
        <time>2020-08-02T08:46:02Z</time>
      </trkpt>
      <trkpt lat="47.3215" lon="-0.45365">
        <ele>51.6</ele>
        <time>2020-08-02T08:46:03Z</time>
      </trkpt>
      <trkpt lat="47.32143" lon="-0.45372">
        <ele>51.2</ele>
        <time>2020-08-02T08:46:05Z</time>
      </trkpt>
      <trkpt lat="47.32132" lon="-0.45385">
        <ele>51</ele>
        <time>2020-08-02T08:46:07Z</time>
      </trkpt>
      <trkpt lat="47.32127" lon="-0.45392">
        <ele>51</ele>
        <time>2020-08-02T08:46:08Z</time>
      </trkpt>
      <trkpt lat="47.32124" lon="-0.45397">
        <ele>51</ele>
        <time>2020-08-02T08:46:09Z</time>
      </trkpt>
      <trkpt lat="47.32121" lon="-0.45402">
        <ele>51</ele>
        <time>2020-08-02T08:46:10Z</time>
      </trkpt>
      <trkpt lat="47.32119" lon="-0.45408">
        <ele>50.8</ele>
        <time>2020-08-02T08:46:11Z</time>
      </trkpt>
      <trkpt lat="47.32114" lon="-0.45414">
        <ele>50.8</ele>
        <time>2020-08-02T08:46:12Z</time>
      </trkpt>
      <trkpt lat="47.32111" lon="-0.45421">
        <ele>50.8</ele>
        <time>2020-08-02T08:46:13Z</time>
      </trkpt>
      <trkpt lat="47.32108" lon="-0.45427">
        <ele>50.8</ele>
        <time>2020-08-02T08:46:14Z</time>
      </trkpt>
      <trkpt lat="47.32106" lon="-0.45433">
        <ele>50.6</ele>
        <time>2020-08-02T08:46:15Z</time>
      </trkpt>
      <trkpt lat="47.32104" lon="-0.45436">
        <ele>50.4</ele>
        <time>2020-08-02T08:46:16Z</time>
      </trkpt>
      <trkpt lat="47.32099" lon="-0.45441">
        <ele>50.4</ele>
        <time>2020-08-02T08:46:17Z</time>
      </trkpt>
      <trkpt lat="47.32096" lon="-0.45444">
        <ele>50.4</ele>
        <time>2020-08-02T08:46:18Z</time>
      </trkpt>
      <trkpt lat="47.32093" lon="-0.4545">
        <ele>50.4</ele>
        <time>2020-08-02T08:46:19Z</time>
      </trkpt>
      <trkpt lat="47.32086" lon="-0.45461">
        <ele>50.2</ele>
        <time>2020-08-02T08:46:22Z</time>
      </trkpt>
      <trkpt lat="47.32081" lon="-0.45471">
        <ele>50</ele>
        <time>2020-08-02T08:46:23Z</time>
      </trkpt>
      <trkpt lat="47.32078" lon="-0.45476">
        <ele>50</ele>
        <time>2020-08-02T08:46:24Z</time>
      </trkpt>
      <trkpt lat="47.32075" lon="-0.45482">
        <ele>49.8</ele>
        <time>2020-08-02T08:46:25Z</time>
      </trkpt>
      <trkpt lat="47.32072" lon="-0.45487">
        <ele>49.8</ele>
        <time>2020-08-02T08:46:26Z</time>
      </trkpt>
      <trkpt lat="47.32069" lon="-0.45493">
        <ele>49.6</ele>
        <time>2020-08-02T08:46:27Z</time>
      </trkpt>
      <trkpt lat="47.32065" lon="-0.45499">
        <ele>49.6</ele>
        <time>2020-08-02T08:46:28Z</time>
      </trkpt>
      <trkpt lat="47.32063" lon="-0.45505">
        <ele>49.4</ele>
        <time>2020-08-02T08:46:29Z</time>
      </trkpt>
      <trkpt lat="47.3206" lon="-0.4551">
        <ele>49.2</ele>
        <time>2020-08-02T08:46:30Z</time>
      </trkpt>
      <trkpt lat="47.32057" lon="-0.45516">
        <ele>49.2</ele>
        <time>2020-08-02T08:46:31Z</time>
      </trkpt>
      <trkpt lat="47.32054" lon="-0.45521">
        <ele>49.2</ele>
        <time>2020-08-02T08:46:32Z</time>
      </trkpt>
      <trkpt lat="47.32051" lon="-0.45526">
        <ele>49.2</ele>
        <time>2020-08-02T08:46:33Z</time>
      </trkpt>
      <trkpt lat="47.32032" lon="-0.45554">
        <ele>49</ele>
        <time>2020-08-02T08:46:38Z</time>
      </trkpt>
      <trkpt lat="47.32028" lon="-0.4556">
        <ele>48.8</ele>
        <time>2020-08-02T08:46:39Z</time>
      </trkpt>
      <trkpt lat="47.32006" lon="-0.45594">
        <ele>48.6</ele>
        <time>2020-08-02T08:46:45Z</time>
      </trkpt>
      <trkpt lat="47.32003" lon="-0.456">
        <ele>48.6</ele>
        <time>2020-08-02T08:46:46Z</time>
      </trkpt>
      <trkpt lat="47.32001" lon="-0.45605">
        <ele>48.6</ele>
        <time>2020-08-02T08:46:47Z</time>
      </trkpt>
      <trkpt lat="47.31998" lon="-0.4561">
        <ele>48.4</ele>
        <time>2020-08-02T08:46:48Z</time>
      </trkpt>
      <trkpt lat="47.31995" lon="-0.45616">
        <ele>48.4</ele>
        <time>2020-08-02T08:46:49Z</time>
      </trkpt>
      <trkpt lat="47.31991" lon="-0.45621">
        <ele>48.4</ele>
        <time>2020-08-02T08:46:50Z</time>
      </trkpt>
      <trkpt lat="47.31988" lon="-0.45624">
        <ele>48.4</ele>
        <time>2020-08-02T08:46:51Z</time>
      </trkpt>
      <trkpt lat="47.31982" lon="-0.45634">
        <ele>48.4</ele>
        <time>2020-08-02T08:46:53Z</time>
      </trkpt>
      <trkpt lat="47.31979" lon="-0.45637">
        <ele>48.4</ele>
        <time>2020-08-02T08:46:54Z</time>
      </trkpt>
      <trkpt lat="47.31976" lon="-0.45642">
        <ele>48.4</ele>
        <time>2020-08-02T08:46:55Z</time>
      </trkpt>
      <trkpt lat="47.31973" lon="-0.45646">
        <ele>48.4</ele>
        <time>2020-08-02T08:46:56Z</time>
      </trkpt>
      <trkpt lat="47.31969" lon="-0.45652">
        <ele>48.4</ele>
        <time>2020-08-02T08:46:57Z</time>
      </trkpt>
      <trkpt lat="47.31966" lon="-0.45655">
        <ele>48.4</ele>
        <time>2020-08-02T08:46:58Z</time>
      </trkpt>
      <trkpt lat="47.31963" lon="-0.4566">
        <ele>48.4</ele>
        <time>2020-08-02T08:46:59Z</time>
      </trkpt>
      <trkpt lat="47.31961" lon="-0.45664">
        <ele>48.4</ele>
        <time>2020-08-02T08:47:00Z</time>
      </trkpt>
      <trkpt lat="47.31957" lon="-0.45668">
        <ele>48.4</ele>
        <time>2020-08-02T08:47:01Z</time>
      </trkpt>
      <trkpt lat="47.31955" lon="-0.45672">
        <ele>48.4</ele>
        <time>2020-08-02T08:47:02Z</time>
      </trkpt>
      <trkpt lat="47.31953" lon="-0.45676">
        <ele>48.4</ele>
        <time>2020-08-02T08:47:03Z</time>
      </trkpt>
      <trkpt lat="47.31952" lon="-0.4568">
        <ele>48.4</ele>
        <time>2020-08-02T08:47:04Z</time>
      </trkpt>
      <trkpt lat="47.31951" lon="-0.45681">
        <ele>48.4</ele>
        <time>2020-08-02T08:47:05Z</time>
      </trkpt>
      <trkpt lat="47.31948" lon="-0.45684">
        <ele>48.6</ele>
        <time>2020-08-02T08:47:06Z</time>
      </trkpt>
      <trkpt lat="47.31941" lon="-0.45688">
        <ele>48.6</ele>
        <time>2020-08-02T08:47:07Z</time>
      </trkpt>
      <trkpt lat="47.31938" lon="-0.4569">
        <ele>48.6</ele>
        <time>2020-08-02T08:47:08Z</time>
      </trkpt>
      <trkpt lat="47.31936" lon="-0.45692">
        <ele>48.6</ele>
        <time>2020-08-02T08:47:09Z</time>
      </trkpt>
      <trkpt lat="47.31935" lon="-0.45692">
        <ele>48.6</ele>
        <time>2020-08-02T08:47:10Z</time>
      </trkpt>
      <trkpt lat="47.31933" lon="-0.45692">
        <ele>48.6</ele>
        <time>2020-08-02T08:47:11Z</time>
      </trkpt>
      <trkpt lat="47.31932" lon="-0.45692">
        <ele>48.8</ele>
        <time>2020-08-02T08:47:12Z</time>
      </trkpt>
      <trkpt lat="47.31931" lon="-0.45691">
        <ele>48.8</ele>
        <time>2020-08-02T08:47:13Z</time>
      </trkpt>
      <trkpt lat="47.31929" lon="-0.45688">
        <ele>48.8</ele>
        <time>2020-08-02T08:47:14Z</time>
      </trkpt>
      <trkpt lat="47.31928" lon="-0.45685">
        <ele>48.8</ele>
        <time>2020-08-02T08:47:15Z</time>
      </trkpt>
      <trkpt lat="47.31925" lon="-0.45677">
        <ele>48.8</ele>
        <time>2020-08-02T08:47:17Z</time>
      </trkpt>
      <trkpt lat="47.31924" lon="-0.45673">
        <ele>48.8</ele>
        <time>2020-08-02T08:47:18Z</time>
      </trkpt>
      <trkpt lat="47.31922" lon="-0.45664">
        <ele>48.8</ele>
        <time>2020-08-02T08:47:20Z</time>
      </trkpt>
      <trkpt lat="47.31921" lon="-0.4566">
        <ele>48.6</ele>
        <time>2020-08-02T08:47:21Z</time>
      </trkpt>
      <trkpt lat="47.31919" lon="-0.45655">
        <ele>48.4</ele>
        <time>2020-08-02T08:47:22Z</time>
      </trkpt>
      <trkpt lat="47.31918" lon="-0.45649">
        <ele>48.2</ele>
        <time>2020-08-02T08:47:23Z</time>
      </trkpt>
      <trkpt lat="47.31916" lon="-0.45643">
        <ele>47.8</ele>
        <time>2020-08-02T08:47:24Z</time>
      </trkpt>
      <trkpt lat="47.31915" lon="-0.45637">
        <ele>47.4</ele>
        <time>2020-08-02T08:47:25Z</time>
      </trkpt>
      <trkpt lat="47.31906" lon="-0.45609">
        <ele>46.8</ele>
        <time>2020-08-02T08:47:28Z</time>
      </trkpt>
      <trkpt lat="47.31902" lon="-0.45599">
        <ele>46.2</ele>
        <time>2020-08-02T08:47:29Z</time>
      </trkpt>
      <trkpt lat="47.31896" lon="-0.4558">
        <ele>45.8</ele>
        <time>2020-08-02T08:47:31Z</time>
      </trkpt>
      <trkpt lat="47.31894" lon="-0.45571">
        <ele>45.4</ele>
        <time>2020-08-02T08:47:32Z</time>
      </trkpt>
      <trkpt lat="47.31892" lon="-0.45563">
        <ele>45.4</ele>
        <time>2020-08-02T08:47:33Z</time>
      </trkpt>
      <trkpt lat="47.31889" lon="-0.45555">
        <ele>45.2</ele>
        <time>2020-08-02T08:47:34Z</time>
      </trkpt>
      <trkpt lat="47.31878" lon="-0.45514">
        <ele>44.8</ele>
        <time>2020-08-02T08:47:39Z</time>
      </trkpt>
      <trkpt lat="47.31876" lon="-0.45507">
        <ele>44.8</ele>
        <time>2020-08-02T08:47:40Z</time>
      </trkpt>
      <trkpt lat="47.31875" lon="-0.45501">
        <ele>44.8</ele>
        <time>2020-08-02T08:47:41Z</time>
      </trkpt>
      <trkpt lat="47.31873" lon="-0.45495">
        <ele>44.6</ele>
        <time>2020-08-02T08:47:42Z</time>
      </trkpt>
      <trkpt lat="47.31872" lon="-0.45487">
        <ele>44.6</ele>
        <time>2020-08-02T08:47:43Z</time>
      </trkpt>
      <trkpt lat="47.3187" lon="-0.4548">
        <ele>44.4</ele>
        <time>2020-08-02T08:47:44Z</time>
      </trkpt>
      <trkpt lat="47.31868" lon="-0.45473">
        <ele>44.4</ele>
        <time>2020-08-02T08:47:45Z</time>
      </trkpt>
      <trkpt lat="47.31866" lon="-0.45465">
        <ele>44.4</ele>
        <time>2020-08-02T08:47:46Z</time>
      </trkpt>
      <trkpt lat="47.31864" lon="-0.4546">
        <ele>44.4</ele>
        <time>2020-08-02T08:47:47Z</time>
      </trkpt>
      <trkpt lat="47.31862" lon="-0.45453">
        <ele>44.4</ele>
        <time>2020-08-02T08:47:48Z</time>
      </trkpt>
      <trkpt lat="47.31861" lon="-0.45446">
        <ele>44.2</ele>
        <time>2020-08-02T08:47:49Z</time>
      </trkpt>
      <trkpt lat="47.31859" lon="-0.45439">
        <ele>44.2</ele>
        <time>2020-08-02T08:47:50Z</time>
      </trkpt>
      <trkpt lat="47.31857" lon="-0.45432">
        <ele>44.2</ele>
        <time>2020-08-02T08:47:51Z</time>
      </trkpt>
      <trkpt lat="47.31856" lon="-0.45425">
        <ele>44.2</ele>
        <time>2020-08-02T08:47:52Z</time>
      </trkpt>
      <trkpt lat="47.31854" lon="-0.45419">
        <ele>44.2</ele>
        <time>2020-08-02T08:47:53Z</time>
      </trkpt>
      <trkpt lat="47.31852" lon="-0.45412">
        <ele>44.4</ele>
        <time>2020-08-02T08:47:54Z</time>
      </trkpt>
      <trkpt lat="47.31851" lon="-0.45406">
        <ele>44.4</ele>
        <time>2020-08-02T08:47:55Z</time>
      </trkpt>
      <trkpt lat="47.31849" lon="-0.45401">
        <ele>44.4</ele>
        <time>2020-08-02T08:47:56Z</time>
      </trkpt>
      <trkpt lat="47.31848" lon="-0.45395">
        <ele>44.4</ele>
        <time>2020-08-02T08:47:57Z</time>
      </trkpt>
      <trkpt lat="47.31846" lon="-0.45389">
        <ele>44.4</ele>
        <time>2020-08-02T08:47:58Z</time>
      </trkpt>
      <trkpt lat="47.31845" lon="-0.45382">
        <ele>44.4</ele>
        <time>2020-08-02T08:47:59Z</time>
      </trkpt>
      <trkpt lat="47.31843" lon="-0.45375">
        <ele>44.6</ele>
        <time>2020-08-02T08:48:00Z</time>
      </trkpt>
      <trkpt lat="47.31842" lon="-0.4537">
        <ele>44.6</ele>
        <time>2020-08-02T08:48:01Z</time>
      </trkpt>
      <trkpt lat="47.3184" lon="-0.45364">
        <ele>44.4</ele>
        <time>2020-08-02T08:48:02Z</time>
      </trkpt>
      <trkpt lat="47.31839" lon="-0.45357">
        <ele>44.4</ele>
        <time>2020-08-02T08:48:03Z</time>
      </trkpt>
      <trkpt lat="47.31837" lon="-0.45352">
        <ele>44.6</ele>
        <time>2020-08-02T08:48:04Z</time>
      </trkpt>
      <trkpt lat="47.31835" lon="-0.45345">
        <ele>44.4</ele>
        <time>2020-08-02T08:48:05Z</time>
      </trkpt>
      <trkpt lat="47.31834" lon="-0.4534">
        <ele>44.2</ele>
        <time>2020-08-02T08:48:06Z</time>
      </trkpt>
      <trkpt lat="47.31833" lon="-0.45334">
        <ele>44.2</ele>
        <time>2020-08-02T08:48:07Z</time>
      </trkpt>
      <trkpt lat="47.31829" lon="-0.45321">
        <ele>44.4</ele>
        <time>2020-08-02T08:48:09Z</time>
      </trkpt>
      <trkpt lat="47.31816" lon="-0.45275">
        <ele>45</ele>
        <time>2020-08-02T08:48:16Z</time>
      </trkpt>
      <trkpt lat="47.31813" lon="-0.45268">
        <ele>45</ele>
        <time>2020-08-02T08:48:17Z</time>
      </trkpt>
      <trkpt lat="47.31806" lon="-0.4525">
        <ele>45.2</ele>
        <time>2020-08-02T08:48:20Z</time>
      </trkpt>
      <trkpt lat="47.31803" lon="-0.45246">
        <ele>45.2</ele>
        <time>2020-08-02T08:48:21Z</time>
      </trkpt>
      <trkpt lat="47.31799" lon="-0.45242">
        <ele>45.2</ele>
        <time>2020-08-02T08:48:22Z</time>
      </trkpt>
      <trkpt lat="47.31795" lon="-0.4524">
        <ele>45.4</ele>
        <time>2020-08-02T08:48:23Z</time>
      </trkpt>
      <trkpt lat="47.31791" lon="-0.45239">
        <ele>45.6</ele>
        <time>2020-08-02T08:48:24Z</time>
      </trkpt>
      <trkpt lat="47.31787" lon="-0.4524">
        <ele>45.8</ele>
        <time>2020-08-02T08:48:25Z</time>
      </trkpt>
      <trkpt lat="47.31784" lon="-0.45242">
        <ele>45.8</ele>
        <time>2020-08-02T08:48:26Z</time>
      </trkpt>
      <trkpt lat="47.3178" lon="-0.45244">
        <ele>46</ele>
        <time>2020-08-02T08:48:27Z</time>
      </trkpt>
      <trkpt lat="47.31777" lon="-0.45245">
        <ele>46</ele>
        <time>2020-08-02T08:48:28Z</time>
      </trkpt>
      <trkpt lat="47.31774" lon="-0.45247">
        <ele>46.2</ele>
        <time>2020-08-02T08:48:29Z</time>
      </trkpt>
      <trkpt lat="47.31771" lon="-0.45249">
        <ele>46.2</ele>
        <time>2020-08-02T08:48:30Z</time>
      </trkpt>
      <trkpt lat="47.31767" lon="-0.4525">
        <ele>46.4</ele>
        <time>2020-08-02T08:48:31Z</time>
      </trkpt>
      <trkpt lat="47.31764" lon="-0.45251">
        <ele>46.6</ele>
        <time>2020-08-02T08:48:32Z</time>
      </trkpt>
      <trkpt lat="47.31762" lon="-0.45253">
        <ele>46.6</ele>
        <time>2020-08-02T08:48:33Z</time>
      </trkpt>
      <trkpt lat="47.31758" lon="-0.45254">
        <ele>46.6</ele>
        <time>2020-08-02T08:48:34Z</time>
      </trkpt>
      <trkpt lat="47.31756" lon="-0.45256">
        <ele>46.8</ele>
        <time>2020-08-02T08:48:35Z</time>
      </trkpt>
      <trkpt lat="47.31752" lon="-0.45258">
        <ele>46.8</ele>
        <time>2020-08-02T08:48:36Z</time>
      </trkpt>
      <trkpt lat="47.31749" lon="-0.4526">
        <ele>47.2</ele>
        <time>2020-08-02T08:48:37Z</time>
      </trkpt>
      <trkpt lat="47.31746" lon="-0.45262">
        <ele>47.2</ele>
        <time>2020-08-02T08:48:38Z</time>
      </trkpt>
      <trkpt lat="47.31742" lon="-0.45263">
        <ele>47.4</ele>
        <time>2020-08-02T08:48:39Z</time>
      </trkpt>
      <trkpt lat="47.31739" lon="-0.45265">
        <ele>47.4</ele>
        <time>2020-08-02T08:48:40Z</time>
      </trkpt>
      <trkpt lat="47.31736" lon="-0.45267">
        <ele>47.6</ele>
        <time>2020-08-02T08:48:41Z</time>
      </trkpt>
      <trkpt lat="47.31736" lon="-0.45267">
        <ele>47.8</ele>
        <time>2020-08-02T08:48:42Z</time>
      </trkpt>
      <trkpt lat="47.31729" lon="-0.4527">
        <ele>47.8</ele>
        <time>2020-08-02T08:48:43Z</time>
      </trkpt>
      <trkpt lat="47.31726" lon="-0.45271">
        <ele>48</ele>
        <time>2020-08-02T08:48:44Z</time>
      </trkpt>
      <trkpt lat="47.31722" lon="-0.45273">
        <ele>48.2</ele>
        <time>2020-08-02T08:48:45Z</time>
      </trkpt>
      <trkpt lat="47.31719" lon="-0.45275">
        <ele>48.2</ele>
        <time>2020-08-02T08:48:46Z</time>
      </trkpt>
      <trkpt lat="47.31716" lon="-0.45276">
        <ele>48.4</ele>
        <time>2020-08-02T08:48:47Z</time>
      </trkpt>
      <trkpt lat="47.31712" lon="-0.45279">
        <ele>48.6</ele>
        <time>2020-08-02T08:48:48Z</time>
      </trkpt>
      <trkpt lat="47.31709" lon="-0.45281">
        <ele>48.8</ele>
        <time>2020-08-02T08:48:49Z</time>
      </trkpt>
      <trkpt lat="47.31706" lon="-0.45282">
        <ele>48.8</ele>
        <time>2020-08-02T08:48:50Z</time>
      </trkpt>
      <trkpt lat="47.31703" lon="-0.45284">
        <ele>49</ele>
        <time>2020-08-02T08:48:51Z</time>
      </trkpt>
      <trkpt lat="47.31699" lon="-0.45286">
        <ele>49</ele>
        <time>2020-08-02T08:48:52Z</time>
      </trkpt>
      <trkpt lat="47.31697" lon="-0.45289">
        <ele>49.2</ele>
        <time>2020-08-02T08:48:53Z</time>
      </trkpt>
      <trkpt lat="47.31693" lon="-0.45291">
        <ele>49.4</ele>
        <time>2020-08-02T08:48:54Z</time>
      </trkpt>
      <trkpt lat="47.3169" lon="-0.45293">
        <ele>49.6</ele>
        <time>2020-08-02T08:48:55Z</time>
      </trkpt>
      <trkpt lat="47.31687" lon="-0.45293">
        <ele>49.6</ele>
        <time>2020-08-02T08:48:56Z</time>
      </trkpt>
      <trkpt lat="47.31683" lon="-0.45293">
        <ele>49.8</ele>
        <time>2020-08-02T08:48:57Z</time>
      </trkpt>
      <trkpt lat="47.31679" lon="-0.45291">
        <ele>49.8</ele>
        <time>2020-08-02T08:48:58Z</time>
      </trkpt>
      <trkpt lat="47.31677" lon="-0.45292">
        <ele>52</ele>
        <time>2020-08-02T08:51:08Z</time>
      </trkpt>
      <trkpt lat="47.31677" lon="-0.45292">
        <ele>52</ele>
        <time>2020-08-02T08:51:09Z</time>
      </trkpt>
      <trkpt lat="47.3168" lon="-0.45303">
        <ele>51.8</ele>
        <time>2020-08-02T08:51:10Z</time>
      </trkpt>
      <trkpt lat="47.31679" lon="-0.45308">
        <ele>51.8</ele>
        <time>2020-08-02T08:51:11Z</time>
      </trkpt>
      <trkpt lat="47.31677" lon="-0.45313">
        <ele>51.6</ele>
        <time>2020-08-02T08:51:12Z</time>
      </trkpt>
      <trkpt lat="47.31675" lon="-0.45317">
        <ele>51.6</ele>
        <time>2020-08-02T08:51:13Z</time>
      </trkpt>
      <trkpt lat="47.31672" lon="-0.45321">
        <ele>51.4</ele>
        <time>2020-08-02T08:51:14Z</time>
      </trkpt>
      <trkpt lat="47.31668" lon="-0.45324">
        <ele>51.4</ele>
        <time>2020-08-02T08:51:15Z</time>
      </trkpt>
      <trkpt lat="47.31665" lon="-0.45327">
        <ele>51.4</ele>
        <time>2020-08-02T08:51:16Z</time>
      </trkpt>
      <trkpt lat="47.31658" lon="-0.45331">
        <ele>51.4</ele>
        <time>2020-08-02T08:51:18Z</time>
      </trkpt>
      <trkpt lat="47.31654" lon="-0.45333">
        <ele>51.4</ele>
        <time>2020-08-02T08:51:19Z</time>
      </trkpt>
      <trkpt lat="47.31651" lon="-0.45335">
        <ele>51.4</ele>
        <time>2020-08-02T08:51:20Z</time>
      </trkpt>
      <trkpt lat="47.31647" lon="-0.45337">
        <ele>51.8</ele>
        <time>2020-08-02T08:51:21Z</time>
      </trkpt>
      <trkpt lat="47.31644" lon="-0.45338">
        <ele>52</ele>
        <time>2020-08-02T08:51:22Z</time>
      </trkpt>
      <trkpt lat="47.31641" lon="-0.4534">
        <ele>52.2</ele>
        <time>2020-08-02T08:51:23Z</time>
      </trkpt>
      <trkpt lat="47.31639" lon="-0.45341">
        <ele>52.2</ele>
        <time>2020-08-02T08:51:24Z</time>
      </trkpt>
      <trkpt lat="47.31637" lon="-0.45343">
        <ele>52.4</ele>
        <time>2020-08-02T08:51:25Z</time>
      </trkpt>
      <trkpt lat="47.31634" lon="-0.45345">
        <ele>52.6</ele>
        <time>2020-08-02T08:51:26Z</time>
      </trkpt>
      <trkpt lat="47.31632" lon="-0.45346">
        <ele>52.6</ele>
        <time>2020-08-02T08:51:27Z</time>
      </trkpt>
      <trkpt lat="47.31631" lon="-0.45348">
        <ele>52.8</ele>
        <time>2020-08-02T08:51:28Z</time>
      </trkpt>
      <trkpt lat="47.31629" lon="-0.4535">
        <ele>52.8</ele>
        <time>2020-08-02T08:51:29Z</time>
      </trkpt>
      <trkpt lat="47.31627" lon="-0.45352">
        <ele>52.8</ele>
        <time>2020-08-02T08:51:30Z</time>
      </trkpt>
      <trkpt lat="47.31625" lon="-0.45352">
        <ele>53</ele>
        <time>2020-08-02T08:51:31Z</time>
      </trkpt>
      <trkpt lat="47.31623" lon="-0.45352">
        <ele>53</ele>
        <time>2020-08-02T08:51:32Z</time>
      </trkpt>
      <trkpt lat="47.31621" lon="-0.45352">
        <ele>53.2</ele>
        <time>2020-08-02T08:51:33Z</time>
      </trkpt>
      <trkpt lat="47.31619" lon="-0.45353">
        <ele>53.6</ele>
        <time>2020-08-02T08:51:34Z</time>
      </trkpt>
      <trkpt lat="47.31617" lon="-0.45355">
        <ele>53.6</ele>
        <time>2020-08-02T08:51:35Z</time>
      </trkpt>
      <trkpt lat="47.31615" lon="-0.45356">
        <ele>53.8</ele>
        <time>2020-08-02T08:51:36Z</time>
      </trkpt>
      <trkpt lat="47.31613" lon="-0.45358">
        <ele>53.8</ele>
        <time>2020-08-02T08:51:37Z</time>
      </trkpt>
      <trkpt lat="47.3161" lon="-0.4536">
        <ele>54</ele>
        <time>2020-08-02T08:51:38Z</time>
      </trkpt>
      <trkpt lat="47.31609" lon="-0.45361">
        <ele>54.2</ele>
        <time>2020-08-02T08:51:39Z</time>
      </trkpt>
      <trkpt lat="47.31607" lon="-0.45363">
        <ele>54.4</ele>
        <time>2020-08-02T08:51:40Z</time>
      </trkpt>
      <trkpt lat="47.31605" lon="-0.45364">
        <ele>54.4</ele>
        <time>2020-08-02T08:51:41Z</time>
      </trkpt>
      <trkpt lat="47.31603" lon="-0.45365">
        <ele>54.6</ele>
        <time>2020-08-02T08:51:42Z</time>
      </trkpt>
      <trkpt lat="47.31601" lon="-0.45367">
        <ele>54.6</ele>
        <time>2020-08-02T08:51:43Z</time>
      </trkpt>
      <trkpt lat="47.31601" lon="-0.45369">
        <ele>54.6</ele>
        <time>2020-08-02T08:51:44Z</time>
      </trkpt>
      <trkpt lat="47.316" lon="-0.4537">
        <ele>54.8</ele>
        <time>2020-08-02T08:51:45Z</time>
      </trkpt>
      <trkpt lat="47.31598" lon="-0.45371">
        <ele>54.8</ele>
        <time>2020-08-02T08:51:46Z</time>
      </trkpt>
      <trkpt lat="47.31597" lon="-0.45371">
        <ele>54.8</ele>
        <time>2020-08-02T08:51:47Z</time>
      </trkpt>
      <trkpt lat="47.31596" lon="-0.45372">
        <ele>55</ele>
        <time>2020-08-02T08:51:48Z</time>
      </trkpt>
      <trkpt lat="47.31595" lon="-0.45373">
        <ele>55</ele>
        <time>2020-08-02T08:51:49Z</time>
      </trkpt>
      <trkpt lat="47.31594" lon="-0.45375">
        <ele>55.2</ele>
        <time>2020-08-02T08:51:50Z</time>
      </trkpt>
      <trkpt lat="47.31592" lon="-0.45376">
        <ele>55.2</ele>
        <time>2020-08-02T08:51:51Z</time>
      </trkpt>
      <trkpt lat="47.31591" lon="-0.45377">
        <ele>55.4</ele>
        <time>2020-08-02T08:51:52Z</time>
      </trkpt>
      <trkpt lat="47.31589" lon="-0.45378">
        <ele>55.8</ele>
        <time>2020-08-02T08:51:53Z</time>
      </trkpt>
      <trkpt lat="47.31588" lon="-0.45379">
        <ele>55.8</ele>
        <time>2020-08-02T08:51:54Z</time>
      </trkpt>
      <trkpt lat="47.31587" lon="-0.4538">
        <ele>56</ele>
        <time>2020-08-02T08:51:55Z</time>
      </trkpt>
      <trkpt lat="47.31587" lon="-0.4538">
        <ele>56.2</ele>
        <time>2020-08-02T08:51:56Z</time>
      </trkpt>
      <trkpt lat="47.31585" lon="-0.45381">
        <ele>56.2</ele>
        <time>2020-08-02T08:51:57Z</time>
      </trkpt>
      <trkpt lat="47.31584" lon="-0.45382">
        <ele>56.4</ele>
        <time>2020-08-02T08:51:58Z</time>
      </trkpt>
      <trkpt lat="47.31581" lon="-0.45383">
        <ele>56.6</ele>
        <time>2020-08-02T08:51:59Z</time>
      </trkpt>
      <trkpt lat="47.31579" lon="-0.45384">
        <ele>56.8</ele>
        <time>2020-08-02T08:52:00Z</time>
      </trkpt>
      <trkpt lat="47.31577" lon="-0.45385">
        <ele>56.8</ele>
        <time>2020-08-02T08:52:01Z</time>
      </trkpt>
      <trkpt lat="47.31575" lon="-0.45386">
        <ele>57</ele>
        <time>2020-08-02T08:52:02Z</time>
      </trkpt>
      <trkpt lat="47.31572" lon="-0.45387">
        <ele>57.2</ele>
        <time>2020-08-02T08:52:03Z</time>
      </trkpt>
      <trkpt lat="47.31569" lon="-0.45388">
        <ele>57.2</ele>
        <time>2020-08-02T08:52:04Z</time>
      </trkpt>
      <trkpt lat="47.31567" lon="-0.45389">
        <ele>57.6</ele>
        <time>2020-08-02T08:52:05Z</time>
      </trkpt>
      <trkpt lat="47.31564" lon="-0.4539">
        <ele>57.6</ele>
        <time>2020-08-02T08:52:06Z</time>
      </trkpt>
      <trkpt lat="47.31562" lon="-0.45392">
        <ele>57.8</ele>
        <time>2020-08-02T08:52:07Z</time>
      </trkpt>
      <trkpt lat="47.31559" lon="-0.45394">
        <ele>57.8</ele>
        <time>2020-08-02T08:52:08Z</time>
      </trkpt>
      <trkpt lat="47.31558" lon="-0.45394">
        <ele>58</ele>
        <time>2020-08-02T08:52:09Z</time>
      </trkpt>
      <trkpt lat="47.31555" lon="-0.45396">
        <ele>58.2</ele>
        <time>2020-08-02T08:52:10Z</time>
      </trkpt>
      <trkpt lat="47.31552" lon="-0.45397">
        <ele>58.2</ele>
        <time>2020-08-02T08:52:11Z</time>
      </trkpt>
      <trkpt lat="47.31549" lon="-0.45399">
        <ele>58.8</ele>
        <time>2020-08-02T08:52:12Z</time>
      </trkpt>
      <trkpt lat="47.31545" lon="-0.45402">
        <ele>59.2</ele>
        <time>2020-08-02T08:52:13Z</time>
      </trkpt>
      <trkpt lat="47.31541" lon="-0.45403">
        <ele>59.4</ele>
        <time>2020-08-02T08:52:14Z</time>
      </trkpt>
      <trkpt lat="47.31537" lon="-0.45404">
        <ele>59.6</ele>
        <time>2020-08-02T08:52:15Z</time>
      </trkpt>
      <trkpt lat="47.31534" lon="-0.45405">
        <ele>60</ele>
        <time>2020-08-02T08:52:16Z</time>
      </trkpt>
      <trkpt lat="47.3153" lon="-0.45408">
        <ele>60.4</ele>
        <time>2020-08-02T08:52:17Z</time>
      </trkpt>
      <trkpt lat="47.31525" lon="-0.45408">
        <ele>60.4</ele>
        <time>2020-08-02T08:52:18Z</time>
      </trkpt>
      <trkpt lat="47.31522" lon="-0.45409">
        <ele>60.6</ele>
        <time>2020-08-02T08:52:19Z</time>
      </trkpt>
      <trkpt lat="47.31519" lon="-0.4541">
        <ele>60.6</ele>
        <time>2020-08-02T08:52:20Z</time>
      </trkpt>
      <trkpt lat="47.31517" lon="-0.45411">
        <ele>60.8</ele>
        <time>2020-08-02T08:52:21Z</time>
      </trkpt>
      <trkpt lat="47.31511" lon="-0.45416">
        <ele>61</ele>
        <time>2020-08-02T08:52:22Z</time>
      </trkpt>
      <trkpt lat="47.31502" lon="-0.45418">
        <ele>61.2</ele>
        <time>2020-08-02T08:52:23Z</time>
      </trkpt>
      <trkpt lat="47.31498" lon="-0.45419">
        <ele>61.6</ele>
        <time>2020-08-02T08:52:24Z</time>
      </trkpt>
      <trkpt lat="47.31494" lon="-0.4542">
        <ele>61.8</ele>
        <time>2020-08-02T08:52:25Z</time>
      </trkpt>
      <trkpt lat="47.31489" lon="-0.45423">
        <ele>62</ele>
        <time>2020-08-02T08:52:26Z</time>
      </trkpt>
      <trkpt lat="47.31486" lon="-0.45425">
        <ele>62</ele>
        <time>2020-08-02T08:52:27Z</time>
      </trkpt>
      <trkpt lat="47.31483" lon="-0.45427">
        <ele>62.4</ele>
        <time>2020-08-02T08:52:28Z</time>
      </trkpt>
      <trkpt lat="47.3148" lon="-0.45429">
        <ele>62.4</ele>
        <time>2020-08-02T08:52:29Z</time>
      </trkpt>
      <trkpt lat="47.31477" lon="-0.45432">
        <ele>62.8</ele>
        <time>2020-08-02T08:52:30Z</time>
      </trkpt>
      <trkpt lat="47.31473" lon="-0.45435">
        <ele>63.2</ele>
        <time>2020-08-02T08:52:31Z</time>
      </trkpt>
      <trkpt lat="47.31466" lon="-0.45435">
        <ele>63.2</ele>
        <time>2020-08-02T08:52:32Z</time>
      </trkpt>
      <trkpt lat="47.31462" lon="-0.45438">
        <ele>63.4</ele>
        <time>2020-08-02T08:52:33Z</time>
      </trkpt>
      <trkpt lat="47.3146" lon="-0.4544">
        <ele>63.6</ele>
        <time>2020-08-02T08:52:34Z</time>
      </trkpt>
      <trkpt lat="47.31459" lon="-0.45442">
        <ele>63.8</ele>
        <time>2020-08-02T08:52:35Z</time>
      </trkpt>
      <trkpt lat="47.31457" lon="-0.45445">
        <ele>64.2</ele>
        <time>2020-08-02T08:52:36Z</time>
      </trkpt>
      <trkpt lat="47.31453" lon="-0.45448">
        <ele>64.4</ele>
        <time>2020-08-02T08:52:37Z</time>
      </trkpt>
      <trkpt lat="47.31451" lon="-0.45448">
        <ele>64.6</ele>
        <time>2020-08-02T08:52:38Z</time>
      </trkpt>
      <trkpt lat="47.31446" lon="-0.45452">
        <ele>64.8</ele>
        <time>2020-08-02T08:52:39Z</time>
      </trkpt>
      <trkpt lat="47.31443" lon="-0.45456">
        <ele>65</ele>
        <time>2020-08-02T08:52:40Z</time>
      </trkpt>
      <trkpt lat="47.31441" lon="-0.45458">
        <ele>65</ele>
        <time>2020-08-02T08:52:41Z</time>
      </trkpt>
      <trkpt lat="47.3144" lon="-0.45462">
        <ele>65.2</ele>
        <time>2020-08-02T08:52:42Z</time>
      </trkpt>
      <trkpt lat="47.31438" lon="-0.45464">
        <ele>65.4</ele>
        <time>2020-08-02T08:52:43Z</time>
      </trkpt>
      <trkpt lat="47.31439" lon="-0.45466">
        <ele>65.6</ele>
        <time>2020-08-02T08:52:44Z</time>
      </trkpt>
      <trkpt lat="47.31435" lon="-0.45469">
        <ele>65.8</ele>
        <time>2020-08-02T08:52:45Z</time>
      </trkpt>
      <trkpt lat="47.31433" lon="-0.45472">
        <ele>65.8</ele>
        <time>2020-08-02T08:52:46Z</time>
      </trkpt>
      <trkpt lat="47.3143" lon="-0.45474">
        <ele>66</ele>
        <time>2020-08-02T08:52:47Z</time>
      </trkpt>
      <trkpt lat="47.31428" lon="-0.45473">
        <ele>66</ele>
        <time>2020-08-02T08:52:48Z</time>
      </trkpt>
      <trkpt lat="47.31425" lon="-0.45475">
        <ele>66</ele>
        <time>2020-08-02T08:52:49Z</time>
      </trkpt>
      <trkpt lat="47.3142" lon="-0.45478">
        <ele>66</ele>
        <time>2020-08-02T08:52:50Z</time>
      </trkpt>
      <trkpt lat="47.31418" lon="-0.4548">
        <ele>66</ele>
        <time>2020-08-02T08:52:52Z</time>
      </trkpt>
      <trkpt lat="47.3141" lon="-0.45484">
        <ele>66.4</ele>
        <time>2020-08-02T08:52:55Z</time>
      </trkpt>
      <trkpt lat="47.31406" lon="-0.45486">
        <ele>66.4</ele>
        <time>2020-08-02T08:52:56Z</time>
      </trkpt>
      <trkpt lat="47.31403" lon="-0.45485">
        <ele>66.4</ele>
        <time>2020-08-02T08:52:57Z</time>
      </trkpt>
      <trkpt lat="47.31401" lon="-0.45485">
        <ele>66.4</ele>
        <time>2020-08-02T08:52:58Z</time>
      </trkpt>
      <trkpt lat="47.31398" lon="-0.45486">
        <ele>66.4</ele>
        <time>2020-08-02T08:52:59Z</time>
      </trkpt>
      <trkpt lat="47.31396" lon="-0.45487">
        <ele>66.4</ele>
        <time>2020-08-02T08:53:00Z</time>
      </trkpt>
      <trkpt lat="47.31392" lon="-0.4549">
        <ele>66.6</ele>
        <time>2020-08-02T08:53:02Z</time>
      </trkpt>
      <trkpt lat="47.31386" lon="-0.45493">
        <ele>66.6</ele>
        <time>2020-08-02T08:53:03Z</time>
      </trkpt>
      <trkpt lat="47.31383" lon="-0.45493">
        <ele>66.8</ele>
        <time>2020-08-02T08:53:04Z</time>
      </trkpt>
      <trkpt lat="47.31382" lon="-0.45492">
        <ele>66.8</ele>
        <time>2020-08-02T08:53:05Z</time>
      </trkpt>
      <trkpt lat="47.31379" lon="-0.45492">
        <ele>66.8</ele>
        <time>2020-08-02T08:53:06Z</time>
      </trkpt>
      <trkpt lat="47.31376" lon="-0.45492">
        <ele>66.8</ele>
        <time>2020-08-02T08:53:07Z</time>
      </trkpt>
      <trkpt lat="47.31373" lon="-0.45496">
        <ele>67</ele>
        <time>2020-08-02T08:53:08Z</time>
      </trkpt>
      <trkpt lat="47.3137" lon="-0.45497">
        <ele>67</ele>
        <time>2020-08-02T08:53:09Z</time>
      </trkpt>
      <trkpt lat="47.31367" lon="-0.45498">
        <ele>67</ele>
        <time>2020-08-02T08:53:10Z</time>
      </trkpt>
      <trkpt lat="47.31361" lon="-0.455">
        <ele>67.2</ele>
        <time>2020-08-02T08:53:12Z</time>
      </trkpt>
      <trkpt lat="47.3135" lon="-0.45503">
        <ele>67.2</ele>
        <time>2020-08-02T08:53:16Z</time>
      </trkpt>
      <trkpt lat="47.31341" lon="-0.45505">
        <ele>67.2</ele>
        <time>2020-08-02T08:53:19Z</time>
      </trkpt>
      <trkpt lat="47.31338" lon="-0.45505">
        <ele>67.2</ele>
        <time>2020-08-02T08:53:20Z</time>
      </trkpt>
      <trkpt lat="47.31319" lon="-0.4551">
        <ele>67.4</ele>
        <time>2020-08-02T08:53:26Z</time>
      </trkpt>
      <trkpt lat="47.31314" lon="-0.45512">
        <ele>67.6</ele>
        <time>2020-08-02T08:53:28Z</time>
      </trkpt>
      <trkpt lat="47.31312" lon="-0.45514">
        <ele>67.6</ele>
        <time>2020-08-02T08:53:29Z</time>
      </trkpt>
      <trkpt lat="47.31309" lon="-0.45515">
        <ele>67.6</ele>
        <time>2020-08-02T08:53:30Z</time>
      </trkpt>
      <trkpt lat="47.31305" lon="-0.45517">
        <ele>67.8</ele>
        <time>2020-08-02T08:53:31Z</time>
      </trkpt>
      <trkpt lat="47.31302" lon="-0.45518">
        <ele>67.8</ele>
        <time>2020-08-02T08:53:32Z</time>
      </trkpt>
      <trkpt lat="47.31298" lon="-0.45518">
        <ele>67.8</ele>
        <time>2020-08-02T08:53:33Z</time>
      </trkpt>
      <trkpt lat="47.31294" lon="-0.45519">
        <ele>68</ele>
        <time>2020-08-02T08:53:34Z</time>
      </trkpt>
      <trkpt lat="47.31291" lon="-0.45519">
        <ele>68</ele>
        <time>2020-08-02T08:53:35Z</time>
      </trkpt>
      <trkpt lat="47.31289" lon="-0.4552">
        <ele>68</ele>
        <time>2020-08-02T08:53:36Z</time>
      </trkpt>
      <trkpt lat="47.31286" lon="-0.4552">
        <ele>68</ele>
        <time>2020-08-02T08:53:37Z</time>
      </trkpt>
      <trkpt lat="47.31283" lon="-0.45521">
        <ele>68</ele>
        <time>2020-08-02T08:53:38Z</time>
      </trkpt>
      <trkpt lat="47.31271" lon="-0.45527">
        <ele>68.2</ele>
        <time>2020-08-02T08:53:41Z</time>
      </trkpt>
      <trkpt lat="47.31269" lon="-0.45526">
        <ele>68.2</ele>
        <time>2020-08-02T08:53:42Z</time>
      </trkpt>
      <trkpt lat="47.31263" lon="-0.45527">
        <ele>68.4</ele>
        <time>2020-08-02T08:53:44Z</time>
      </trkpt>
      <trkpt lat="47.31256" lon="-0.45529">
        <ele>68.4</ele>
        <time>2020-08-02T08:53:46Z</time>
      </trkpt>
      <trkpt lat="47.31254" lon="-0.45528">
        <ele>68.4</ele>
        <time>2020-08-02T08:53:47Z</time>
      </trkpt>
      <trkpt lat="47.31252" lon="-0.45527">
        <ele>68.4</ele>
        <time>2020-08-02T08:53:48Z</time>
      </trkpt>
      <trkpt lat="47.31247" lon="-0.45527">
        <ele>68.6</ele>
        <time>2020-08-02T08:53:50Z</time>
      </trkpt>
      <trkpt lat="47.31247" lon="-0.45527">
        <ele>68.6</ele>
        <time>2020-08-02T08:53:51Z</time>
      </trkpt>
      <trkpt lat="47.31245" lon="-0.45527">
        <ele>68.6</ele>
        <time>2020-08-02T08:53:52Z</time>
      </trkpt>
      <trkpt lat="47.31243" lon="-0.45528">
        <ele>68.6</ele>
        <time>2020-08-02T08:53:53Z</time>
      </trkpt>
      <trkpt lat="47.31242" lon="-0.45529">
        <ele>68.6</ele>
        <time>2020-08-02T08:53:54Z</time>
      </trkpt>
      <trkpt lat="47.31241" lon="-0.4553">
        <ele>68.8</ele>
        <time>2020-08-02T08:53:55Z</time>
      </trkpt>
      <trkpt lat="47.3124" lon="-0.45531">
        <ele>68.8</ele>
        <time>2020-08-02T08:53:56Z</time>
      </trkpt>
      <trkpt lat="47.3124" lon="-0.45531">
        <ele>68.8</ele>
        <time>2020-08-02T08:53:57Z</time>
      </trkpt>
      <trkpt lat="47.3124" lon="-0.45531">
        <ele>69.2</ele>
        <time>2020-08-02T08:54:02Z</time>
      </trkpt>
      <trkpt lat="47.3124" lon="-0.45531">
        <ele>69</ele>
        <time>2020-08-02T08:54:22Z</time>
      </trkpt>
      <trkpt lat="47.31237" lon="-0.45531">
        <ele>68.4</ele>
        <time>2020-08-02T08:56:58Z</time>
      </trkpt>
      <trkpt lat="47.31236" lon="-0.45531">
        <ele>68.4</ele>
        <time>2020-08-02T08:56:59Z</time>
      </trkpt>
      <trkpt lat="47.31235" lon="-0.45532">
        <ele>68.4</ele>
        <time>2020-08-02T08:57:00Z</time>
      </trkpt>
      <trkpt lat="47.31231" lon="-0.45533">
        <ele>68.4</ele>
        <time>2020-08-02T08:57:02Z</time>
      </trkpt>
      <trkpt lat="47.3123" lon="-0.45534">
        <ele>68.4</ele>
        <time>2020-08-02T08:57:03Z</time>
      </trkpt>
      <trkpt lat="47.31228" lon="-0.45534">
        <ele>68.6</ele>
        <time>2020-08-02T08:57:04Z</time>
      </trkpt>
      <trkpt lat="47.31225" lon="-0.45535">
        <ele>68.6</ele>
        <time>2020-08-02T08:57:06Z</time>
      </trkpt>
      <trkpt lat="47.31223" lon="-0.45535">
        <ele>68.6</ele>
        <time>2020-08-02T08:57:07Z</time>
      </trkpt>
      <trkpt lat="47.31221" lon="-0.45536">
        <ele>68.6</ele>
        <time>2020-08-02T08:57:08Z</time>
      </trkpt>
      <trkpt lat="47.31219" lon="-0.45537">
        <ele>68.6</ele>
        <time>2020-08-02T08:57:09Z</time>
      </trkpt>
      <trkpt lat="47.31216" lon="-0.45537">
        <ele>68.6</ele>
        <time>2020-08-02T08:57:10Z</time>
      </trkpt>
      <trkpt lat="47.31207" lon="-0.45539">
        <ele>68.8</ele>
        <time>2020-08-02T08:57:13Z</time>
      </trkpt>
      <trkpt lat="47.3119" lon="-0.45547">
        <ele>69</ele>
        <time>2020-08-02T08:57:18Z</time>
      </trkpt>
      <trkpt lat="47.31187" lon="-0.45548">
        <ele>69</ele>
        <time>2020-08-02T08:57:19Z</time>
      </trkpt>
      <trkpt lat="47.31184" lon="-0.4555">
        <ele>69</ele>
        <time>2020-08-02T08:57:20Z</time>
      </trkpt>
      <trkpt lat="47.31176" lon="-0.45552">
        <ele>69.2</ele>
        <time>2020-08-02T08:57:22Z</time>
      </trkpt>
      <trkpt lat="47.31173" lon="-0.45553">
        <ele>69.2</ele>
        <time>2020-08-02T08:57:23Z</time>
      </trkpt>
      <trkpt lat="47.31162" lon="-0.45559">
        <ele>69.4</ele>
        <time>2020-08-02T08:57:26Z</time>
      </trkpt>
      <trkpt lat="47.31157" lon="-0.45562">
        <ele>69.4</ele>
        <time>2020-08-02T08:57:27Z</time>
      </trkpt>
      <trkpt lat="47.31153" lon="-0.45563">
        <ele>69.4</ele>
        <time>2020-08-02T08:57:28Z</time>
      </trkpt>
      <trkpt lat="47.31149" lon="-0.45564">
        <ele>69.6</ele>
        <time>2020-08-02T08:57:29Z</time>
      </trkpt>
      <trkpt lat="47.31145" lon="-0.45565">
        <ele>69.6</ele>
        <time>2020-08-02T08:57:30Z</time>
      </trkpt>
      <trkpt lat="47.31141" lon="-0.45566">
        <ele>69.6</ele>
        <time>2020-08-02T08:57:31Z</time>
      </trkpt>
      <trkpt lat="47.31121" lon="-0.45573">
        <ele>70</ele>
        <time>2020-08-02T08:57:35Z</time>
      </trkpt>
      <trkpt lat="47.31117" lon="-0.45574">
        <ele>70</ele>
        <time>2020-08-02T08:57:36Z</time>
      </trkpt>
      <trkpt lat="47.31084" lon="-0.45582">
        <ele>70.2</ele>
        <time>2020-08-02T08:57:44Z</time>
      </trkpt>
      <trkpt lat="47.31081" lon="-0.45582">
        <ele>70.2</ele>
        <time>2020-08-02T08:57:45Z</time>
      </trkpt>
      <trkpt lat="47.31066" lon="-0.45584">
        <ele>70.2</ele>
        <time>2020-08-02T08:57:49Z</time>
      </trkpt>
      <trkpt lat="47.31058" lon="-0.45585">
        <ele>70</ele>
        <time>2020-08-02T08:57:51Z</time>
      </trkpt>
      <trkpt lat="47.31055" lon="-0.45586">
        <ele>70</ele>
        <time>2020-08-02T08:57:52Z</time>
      </trkpt>
      <trkpt lat="47.31051" lon="-0.45587">
        <ele>69.8</ele>
        <time>2020-08-02T08:57:53Z</time>
      </trkpt>
      <trkpt lat="47.31034" lon="-0.4559">
        <ele>69.4</ele>
        <time>2020-08-02T08:57:58Z</time>
      </trkpt>
      <trkpt lat="47.3103" lon="-0.45591">
        <ele>69.2</ele>
        <time>2020-08-02T08:57:59Z</time>
      </trkpt>
      <trkpt lat="47.31025" lon="-0.45592">
        <ele>69.2</ele>
        <time>2020-08-02T08:58:00Z</time>
      </trkpt>
      <trkpt lat="47.31022" lon="-0.45592">
        <ele>69.2</ele>
        <time>2020-08-02T08:58:01Z</time>
      </trkpt>
      <trkpt lat="47.31017" lon="-0.45592">
        <ele>69.2</ele>
        <time>2020-08-02T08:58:02Z</time>
      </trkpt>
      <trkpt lat="47.31002" lon="-0.45594">
        <ele>69</ele>
        <time>2020-08-02T08:58:05Z</time>
      </trkpt>
      <trkpt lat="47.30996" lon="-0.45595">
        <ele>68.8</ele>
        <time>2020-08-02T08:58:06Z</time>
      </trkpt>
      <trkpt lat="47.3097" lon="-0.45596">
        <ele>68.2</ele>
        <time>2020-08-02T08:58:11Z</time>
      </trkpt>
      <trkpt lat="47.30964" lon="-0.45597">
        <ele>68.2</ele>
        <time>2020-08-02T08:58:12Z</time>
      </trkpt>
      <trkpt lat="47.30958" lon="-0.45598">
        <ele>68.2</ele>
        <time>2020-08-02T08:58:13Z</time>
      </trkpt>
      <trkpt lat="47.30949" lon="-0.45597">
        <ele>68</ele>
        <time>2020-08-02T08:58:15Z</time>
      </trkpt>
      <trkpt lat="47.30933" lon="-0.45599">
        <ele>68.2</ele>
        <time>2020-08-02T08:58:18Z</time>
      </trkpt>
      <trkpt lat="47.30928" lon="-0.45601">
        <ele>68.2</ele>
        <time>2020-08-02T08:58:19Z</time>
      </trkpt>
      <trkpt lat="47.30923" lon="-0.45602">
        <ele>68.2</ele>
        <time>2020-08-02T08:58:20Z</time>
      </trkpt>
      <trkpt lat="47.30919" lon="-0.45602">
        <ele>68.2</ele>
        <time>2020-08-02T08:58:21Z</time>
      </trkpt>
      <trkpt lat="47.30913" lon="-0.45602">
        <ele>68.2</ele>
        <time>2020-08-02T08:58:22Z</time>
      </trkpt>
      <trkpt lat="47.30909" lon="-0.45602">
        <ele>68.2</ele>
        <time>2020-08-02T08:58:23Z</time>
      </trkpt>
      <trkpt lat="47.30903" lon="-0.45602">
        <ele>68.2</ele>
        <time>2020-08-02T08:58:24Z</time>
      </trkpt>
      <trkpt lat="47.30899" lon="-0.456">
        <ele>68.2</ele>
        <time>2020-08-02T08:58:25Z</time>
      </trkpt>
      <trkpt lat="47.30893" lon="-0.45601">
        <ele>68.2</ele>
        <time>2020-08-02T08:58:26Z</time>
      </trkpt>
      <trkpt lat="47.30889" lon="-0.45602">
        <ele>68.2</ele>
        <time>2020-08-02T08:58:27Z</time>
      </trkpt>
      <trkpt lat="47.30872" lon="-0.45605">
        <ele>68.2</ele>
        <time>2020-08-02T08:58:30Z</time>
      </trkpt>
      <trkpt lat="47.30855" lon="-0.45607">
        <ele>68.2</ele>
        <time>2020-08-02T08:58:33Z</time>
      </trkpt>
      <trkpt lat="47.30852" lon="-0.45607">
        <ele>68.2</ele>
        <time>2020-08-02T08:58:34Z</time>
      </trkpt>
      <trkpt lat="47.30846" lon="-0.45606">
        <ele>68.2</ele>
        <time>2020-08-02T08:58:35Z</time>
      </trkpt>
      <trkpt lat="47.30841" lon="-0.45606">
        <ele>68</ele>
        <time>2020-08-02T08:58:36Z</time>
      </trkpt>
      <trkpt lat="47.30837" lon="-0.45606">
        <ele>68</ele>
        <time>2020-08-02T08:58:37Z</time>
      </trkpt>
      <trkpt lat="47.30831" lon="-0.45606">
        <ele>68</ele>
        <time>2020-08-02T08:58:38Z</time>
      </trkpt>
      <trkpt lat="47.30827" lon="-0.45606">
        <ele>68</ele>
        <time>2020-08-02T08:58:39Z</time>
      </trkpt>
      <trkpt lat="47.30821" lon="-0.45607">
        <ele>68</ele>
        <time>2020-08-02T08:58:40Z</time>
      </trkpt>
      <trkpt lat="47.30815" lon="-0.45608">
        <ele>68</ele>
        <time>2020-08-02T08:58:41Z</time>
      </trkpt>
      <trkpt lat="47.30809" lon="-0.45609">
        <ele>67.8</ele>
        <time>2020-08-02T08:58:42Z</time>
      </trkpt>
      <trkpt lat="47.30805" lon="-0.4561">
        <ele>67.8</ele>
        <time>2020-08-02T08:58:43Z</time>
      </trkpt>
      <trkpt lat="47.308" lon="-0.45611">
        <ele>67.8</ele>
        <time>2020-08-02T08:58:44Z</time>
      </trkpt>
      <trkpt lat="47.30796" lon="-0.45613">
        <ele>67.8</ele>
        <time>2020-08-02T08:58:45Z</time>
      </trkpt>
      <trkpt lat="47.30793" lon="-0.45615">
        <ele>67.6</ele>
        <time>2020-08-02T08:58:46Z</time>
      </trkpt>
      <trkpt lat="47.30791" lon="-0.45617">
        <ele>67.2</ele>
        <time>2020-08-02T08:58:47Z</time>
      </trkpt>
      <trkpt lat="47.30789" lon="-0.4562">
        <ele>67.2</ele>
        <time>2020-08-02T08:58:48Z</time>
      </trkpt>
      <trkpt lat="47.30785" lon="-0.45622">
        <ele>67</ele>
        <time>2020-08-02T08:58:49Z</time>
      </trkpt>
      <trkpt lat="47.30782" lon="-0.45623">
        <ele>67</ele>
        <time>2020-08-02T08:58:50Z</time>
      </trkpt>
      <trkpt lat="47.30777" lon="-0.45623">
        <ele>66.8</ele>
        <time>2020-08-02T08:58:51Z</time>
      </trkpt>
      <trkpt lat="47.30772" lon="-0.45623">
        <ele>66.8</ele>
        <time>2020-08-02T08:58:52Z</time>
      </trkpt>
      <trkpt lat="47.30767" lon="-0.45622">
        <ele>66.8</ele>
        <time>2020-08-02T08:58:53Z</time>
      </trkpt>
      <trkpt lat="47.30736" lon="-0.4562">
        <ele>66.6</ele>
        <time>2020-08-02T08:58:59Z</time>
      </trkpt>
      <trkpt lat="47.3073" lon="-0.45619">
        <ele>66.6</ele>
        <time>2020-08-02T08:59:00Z</time>
      </trkpt>
      <trkpt lat="47.30725" lon="-0.45618">
        <ele>66.8</ele>
        <time>2020-08-02T08:59:01Z</time>
      </trkpt>
      <trkpt lat="47.3072" lon="-0.45617">
        <ele>66.6</ele>
        <time>2020-08-02T08:59:02Z</time>
      </trkpt>
      <trkpt lat="47.30716" lon="-0.45616">
        <ele>66.8</ele>
        <time>2020-08-02T08:59:03Z</time>
      </trkpt>
      <trkpt lat="47.30711" lon="-0.45614">
        <ele>66.8</ele>
        <time>2020-08-02T08:59:04Z</time>
      </trkpt>
      <trkpt lat="47.30707" lon="-0.45613">
        <ele>67</ele>
        <time>2020-08-02T08:59:05Z</time>
      </trkpt>
      <trkpt lat="47.30703" lon="-0.4561">
        <ele>67.2</ele>
        <time>2020-08-02T08:59:06Z</time>
      </trkpt>
      <trkpt lat="47.30698" lon="-0.45608">
        <ele>67.2</ele>
        <time>2020-08-02T08:59:07Z</time>
      </trkpt>
      <trkpt lat="47.30694" lon="-0.45606">
        <ele>67.4</ele>
        <time>2020-08-02T08:59:08Z</time>
      </trkpt>
      <trkpt lat="47.30689" lon="-0.45604">
        <ele>67.6</ele>
        <time>2020-08-02T08:59:09Z</time>
      </trkpt>
      <trkpt lat="47.30685" lon="-0.45602">
        <ele>67.8</ele>
        <time>2020-08-02T08:59:10Z</time>
      </trkpt>
      <trkpt lat="47.30679" lon="-0.45599">
        <ele>67.8</ele>
        <time>2020-08-02T08:59:11Z</time>
      </trkpt>
      <trkpt lat="47.30675" lon="-0.45597">
        <ele>68</ele>
        <time>2020-08-02T08:59:12Z</time>
      </trkpt>
      <trkpt lat="47.3067" lon="-0.45595">
        <ele>68</ele>
        <time>2020-08-02T08:59:13Z</time>
      </trkpt>
      <trkpt lat="47.30665" lon="-0.45593">
        <ele>68</ele>
        <time>2020-08-02T08:59:14Z</time>
      </trkpt>
      <trkpt lat="47.3066" lon="-0.45591">
        <ele>68.2</ele>
        <time>2020-08-02T08:59:15Z</time>
      </trkpt>
      <trkpt lat="47.30655" lon="-0.45589">
        <ele>68.4</ele>
        <time>2020-08-02T08:59:16Z</time>
      </trkpt>
      <trkpt lat="47.30651" lon="-0.45587">
        <ele>68.4</ele>
        <time>2020-08-02T08:59:17Z</time>
      </trkpt>
      <trkpt lat="47.30646" lon="-0.45585">
        <ele>68.6</ele>
        <time>2020-08-02T08:59:18Z</time>
      </trkpt>
      <trkpt lat="47.3064" lon="-0.45584">
        <ele>68.6</ele>
        <time>2020-08-02T08:59:19Z</time>
      </trkpt>
      <trkpt lat="47.30635" lon="-0.45582">
        <ele>68.8</ele>
        <time>2020-08-02T08:59:20Z</time>
      </trkpt>
      <trkpt lat="47.30631" lon="-0.45581">
        <ele>68.8</ele>
        <time>2020-08-02T08:59:21Z</time>
      </trkpt>
      <trkpt lat="47.30615" lon="-0.45575">
        <ele>68.8</ele>
        <time>2020-08-02T08:59:24Z</time>
      </trkpt>
      <trkpt lat="47.30594" lon="-0.4557">
        <ele>69</ele>
        <time>2020-08-02T08:59:28Z</time>
      </trkpt>
      <trkpt lat="47.30588" lon="-0.45571">
        <ele>69</ele>
        <time>2020-08-02T08:59:29Z</time>
      </trkpt>
      <trkpt lat="47.30584" lon="-0.45573">
        <ele>69</ele>
        <time>2020-08-02T08:59:30Z</time>
      </trkpt>
      <trkpt lat="47.30579" lon="-0.45575">
        <ele>69</ele>
        <time>2020-08-02T08:59:31Z</time>
      </trkpt>
      <trkpt lat="47.30558" lon="-0.45583">
        <ele>69</ele>
        <time>2020-08-02T08:59:35Z</time>
      </trkpt>
      <trkpt lat="47.30553" lon="-0.45585">
        <ele>69</ele>
        <time>2020-08-02T08:59:36Z</time>
      </trkpt>
      <trkpt lat="47.30532" lon="-0.45591">
        <ele>69.2</ele>
        <time>2020-08-02T08:59:40Z</time>
      </trkpt>
      <trkpt lat="47.30527" lon="-0.45593">
        <ele>69.4</ele>
        <time>2020-08-02T08:59:41Z</time>
      </trkpt>
      <trkpt lat="47.30522" lon="-0.45595">
        <ele>69.4</ele>
        <time>2020-08-02T08:59:42Z</time>
      </trkpt>
      <trkpt lat="47.30517" lon="-0.45597">
        <ele>69.4</ele>
        <time>2020-08-02T08:59:43Z</time>
      </trkpt>
      <trkpt lat="47.30512" lon="-0.45599">
        <ele>69.4</ele>
        <time>2020-08-02T08:59:44Z</time>
      </trkpt>
      <trkpt lat="47.30508" lon="-0.456">
        <ele>69.4</ele>
        <time>2020-08-02T08:59:45Z</time>
      </trkpt>
      <trkpt lat="47.30503" lon="-0.45602">
        <ele>69.4</ele>
        <time>2020-08-02T08:59:46Z</time>
      </trkpt>
      <trkpt lat="47.30497" lon="-0.45604">
        <ele>69.4</ele>
        <time>2020-08-02T08:59:47Z</time>
      </trkpt>
      <trkpt lat="47.30492" lon="-0.45606">
        <ele>69.4</ele>
        <time>2020-08-02T08:59:48Z</time>
      </trkpt>
      <trkpt lat="47.30489" lon="-0.45607">
        <ele>69.4</ele>
        <time>2020-08-02T08:59:49Z</time>
      </trkpt>
      <trkpt lat="47.30484" lon="-0.45609">
        <ele>69.4</ele>
        <time>2020-08-02T08:59:50Z</time>
      </trkpt>
      <trkpt lat="47.30478" lon="-0.45611">
        <ele>69.6</ele>
        <time>2020-08-02T08:59:51Z</time>
      </trkpt>
      <trkpt lat="47.30474" lon="-0.45612">
        <ele>69.6</ele>
        <time>2020-08-02T08:59:52Z</time>
      </trkpt>
      <trkpt lat="47.30469" lon="-0.45614">
        <ele>69.6</ele>
        <time>2020-08-02T08:59:53Z</time>
      </trkpt>
      <trkpt lat="47.30465" lon="-0.45615">
        <ele>69.6</ele>
        <time>2020-08-02T08:59:54Z</time>
      </trkpt>
      <trkpt lat="47.3046" lon="-0.45617">
        <ele>69.8</ele>
        <time>2020-08-02T08:59:55Z</time>
      </trkpt>
      <trkpt lat="47.30455" lon="-0.45618">
        <ele>70</ele>
        <time>2020-08-02T08:59:56Z</time>
      </trkpt>
      <trkpt lat="47.30451" lon="-0.4562">
        <ele>70</ele>
        <time>2020-08-02T08:59:57Z</time>
      </trkpt>
      <trkpt lat="47.30445" lon="-0.45622">
        <ele>70.2</ele>
        <time>2020-08-02T08:59:58Z</time>
      </trkpt>
      <trkpt lat="47.30442" lon="-0.45623">
        <ele>70.4</ele>
        <time>2020-08-02T08:59:59Z</time>
      </trkpt>
      <trkpt lat="47.30437" lon="-0.45624">
        <ele>70.4</ele>
        <time>2020-08-02T09:00:00Z</time>
      </trkpt>
      <trkpt lat="47.30433" lon="-0.45625">
        <ele>70.6</ele>
        <time>2020-08-02T09:00:01Z</time>
      </trkpt>
      <trkpt lat="47.30428" lon="-0.45627">
        <ele>70.6</ele>
        <time>2020-08-02T09:00:02Z</time>
      </trkpt>
      <trkpt lat="47.30424" lon="-0.45628">
        <ele>70.6</ele>
        <time>2020-08-02T09:00:03Z</time>
      </trkpt>
      <trkpt lat="47.30419" lon="-0.45629">
        <ele>70.6</ele>
        <time>2020-08-02T09:00:04Z</time>
      </trkpt>
      <trkpt lat="47.30415" lon="-0.45631">
        <ele>70.8</ele>
        <time>2020-08-02T09:00:05Z</time>
      </trkpt>
      <trkpt lat="47.3041" lon="-0.45632">
        <ele>70.8</ele>
        <time>2020-08-02T09:00:06Z</time>
      </trkpt>
      <trkpt lat="47.30407" lon="-0.45634">
        <ele>71</ele>
        <time>2020-08-02T09:00:07Z</time>
      </trkpt>
      <trkpt lat="47.30403" lon="-0.45635">
        <ele>71</ele>
        <time>2020-08-02T09:00:08Z</time>
      </trkpt>
      <trkpt lat="47.30399" lon="-0.45636">
        <ele>71.2</ele>
        <time>2020-08-02T09:00:09Z</time>
      </trkpt>
      <trkpt lat="47.30395" lon="-0.45637">
        <ele>71.4</ele>
        <time>2020-08-02T09:00:10Z</time>
      </trkpt>
      <trkpt lat="47.30391" lon="-0.45638">
        <ele>71.4</ele>
        <time>2020-08-02T09:00:11Z</time>
      </trkpt>
      <trkpt lat="47.30387" lon="-0.45639">
        <ele>71.6</ele>
        <time>2020-08-02T09:00:12Z</time>
      </trkpt>
      <trkpt lat="47.30383" lon="-0.4564">
        <ele>71.6</ele>
        <time>2020-08-02T09:00:13Z</time>
      </trkpt>
      <trkpt lat="47.30379" lon="-0.45641">
        <ele>71.6</ele>
        <time>2020-08-02T09:00:14Z</time>
      </trkpt>
      <trkpt lat="47.30374" lon="-0.45642">
        <ele>71.6</ele>
        <time>2020-08-02T09:00:15Z</time>
      </trkpt>
      <trkpt lat="47.30371" lon="-0.45643">
        <ele>71.6</ele>
        <time>2020-08-02T09:00:16Z</time>
      </trkpt>
      <trkpt lat="47.30366" lon="-0.45644">
        <ele>71.4</ele>
        <time>2020-08-02T09:00:17Z</time>
      </trkpt>
      <trkpt lat="47.30362" lon="-0.45645">
        <ele>71.4</ele>
        <time>2020-08-02T09:00:18Z</time>
      </trkpt>
      <trkpt lat="47.30357" lon="-0.45648">
        <ele>71.4</ele>
        <time>2020-08-02T09:00:19Z</time>
      </trkpt>
      <trkpt lat="47.30333" lon="-0.45659">
        <ele>71.4</ele>
        <time>2020-08-02T09:00:24Z</time>
      </trkpt>
      <trkpt lat="47.30313" lon="-0.45664">
        <ele>72</ele>
        <time>2020-08-02T09:00:29Z</time>
      </trkpt>
      <trkpt lat="47.30308" lon="-0.45665">
        <ele>72.2</ele>
        <time>2020-08-02T09:00:30Z</time>
      </trkpt>
      <trkpt lat="47.30305" lon="-0.45666">
        <ele>72.2</ele>
        <time>2020-08-02T09:00:31Z</time>
      </trkpt>
      <trkpt lat="47.30301" lon="-0.45666">
        <ele>72.4</ele>
        <time>2020-08-02T09:00:32Z</time>
      </trkpt>
      <trkpt lat="47.30296" lon="-0.45667">
        <ele>72.4</ele>
        <time>2020-08-02T09:00:33Z</time>
      </trkpt>
      <trkpt lat="47.30292" lon="-0.45668">
        <ele>72.4</ele>
        <time>2020-08-02T09:00:34Z</time>
      </trkpt>
      <trkpt lat="47.30289" lon="-0.45668">
        <ele>72.6</ele>
        <time>2020-08-02T09:00:35Z</time>
      </trkpt>
      <trkpt lat="47.30284" lon="-0.45669">
        <ele>72.6</ele>
        <time>2020-08-02T09:00:36Z</time>
      </trkpt>
      <trkpt lat="47.3028" lon="-0.45669">
        <ele>72.6</ele>
        <time>2020-08-02T09:00:37Z</time>
      </trkpt>
      <trkpt lat="47.30276" lon="-0.4567">
        <ele>72.8</ele>
        <time>2020-08-02T09:00:38Z</time>
      </trkpt>
      <trkpt lat="47.30253" lon="-0.45672">
        <ele>73</ele>
        <time>2020-08-02T09:00:44Z</time>
      </trkpt>
      <trkpt lat="47.3025" lon="-0.45673">
        <ele>73</ele>
        <time>2020-08-02T09:00:45Z</time>
      </trkpt>
      <trkpt lat="47.30247" lon="-0.45673">
        <ele>73.2</ele>
        <time>2020-08-02T09:00:46Z</time>
      </trkpt>
      <trkpt lat="47.30237" lon="-0.45674">
        <ele>73.2</ele>
        <time>2020-08-02T09:00:49Z</time>
      </trkpt>
      <trkpt lat="47.30234" lon="-0.45674">
        <ele>73.4</ele>
        <time>2020-08-02T09:00:50Z</time>
      </trkpt>
      <trkpt lat="47.3023" lon="-0.45674">
        <ele>73.4</ele>
        <time>2020-08-02T09:00:51Z</time>
      </trkpt>
      <trkpt lat="47.30228" lon="-0.45674">
        <ele>74</ele>
        <time>2020-08-02T09:03:50Z</time>
      </trkpt>
      <trkpt lat="47.30231" lon="-0.45679">
        <ele>74</ele>
        <time>2020-08-02T09:03:51Z</time>
      </trkpt>
      <trkpt lat="47.30233" lon="-0.45685">
        <ele>74</ele>
        <time>2020-08-02T09:03:52Z</time>
      </trkpt>
      <trkpt lat="47.30233" lon="-0.45692">
        <ele>74</ele>
        <time>2020-08-02T09:03:53Z</time>
      </trkpt>
      <trkpt lat="47.30237" lon="-0.45747">
        <ele>73.2</ele>
        <time>2020-08-02T09:04:00Z</time>
      </trkpt>
      <trkpt lat="47.30238" lon="-0.45754">
        <ele>73.2</ele>
        <time>2020-08-02T09:04:01Z</time>
      </trkpt>
      <trkpt lat="47.30239" lon="-0.45777">
        <ele>72.4</ele>
        <time>2020-08-02T09:04:04Z</time>
      </trkpt>
      <trkpt lat="47.30241" lon="-0.45794">
        <ele>72</ele>
        <time>2020-08-02T09:04:06Z</time>
      </trkpt>
      <trkpt lat="47.30242" lon="-0.45807">
        <ele>71.8</ele>
        <time>2020-08-02T09:04:08Z</time>
      </trkpt>
      <trkpt lat="47.30243" lon="-0.45815">
        <ele>71.6</ele>
        <time>2020-08-02T09:04:09Z</time>
      </trkpt>
      <trkpt lat="47.30243" lon="-0.45823">
        <ele>71.4</ele>
        <time>2020-08-02T09:04:10Z</time>
      </trkpt>
      <trkpt lat="47.30243" lon="-0.45831">
        <ele>71.2</ele>
        <time>2020-08-02T09:04:11Z</time>
      </trkpt>
      <trkpt lat="47.30244" lon="-0.45839">
        <ele>71</ele>
        <time>2020-08-02T09:04:12Z</time>
      </trkpt>
      <trkpt lat="47.30245" lon="-0.45847">
        <ele>71</ele>
        <time>2020-08-02T09:04:13Z</time>
      </trkpt>
      <trkpt lat="47.30249" lon="-0.45909">
        <ele>70.2</ele>
        <time>2020-08-02T09:04:20Z</time>
      </trkpt>
      <trkpt lat="47.30249" lon="-0.45916">
        <ele>69.8</ele>
        <time>2020-08-02T09:04:21Z</time>
      </trkpt>
      <trkpt lat="47.3025" lon="-0.45933">
        <ele>69.4</ele>
        <time>2020-08-02T09:04:23Z</time>
      </trkpt>
      <trkpt lat="47.30251" lon="-0.45949">
        <ele>69</ele>
        <time>2020-08-02T09:04:25Z</time>
      </trkpt>
      <trkpt lat="47.3025" lon="-0.45958">
        <ele>69</ele>
        <time>2020-08-02T09:04:26Z</time>
      </trkpt>
      <trkpt lat="47.30249" lon="-0.45966">
        <ele>68.8</ele>
        <time>2020-08-02T09:04:27Z</time>
      </trkpt>
      <trkpt lat="47.30248" lon="-0.45975">
        <ele>68.8</ele>
        <time>2020-08-02T09:04:28Z</time>
      </trkpt>
      <trkpt lat="47.30246" lon="-0.45983">
        <ele>68.6</ele>
        <time>2020-08-02T09:04:29Z</time>
      </trkpt>
      <trkpt lat="47.3024" lon="-0.46">
        <ele>68.4</ele>
        <time>2020-08-02T09:04:31Z</time>
      </trkpt>
      <trkpt lat="47.30233" lon="-0.46016">
        <ele>68</ele>
        <time>2020-08-02T09:04:33Z</time>
      </trkpt>
      <trkpt lat="47.30207" lon="-0.46067">
        <ele>67</ele>
        <time>2020-08-02T09:04:39Z</time>
      </trkpt>
      <trkpt lat="47.30187" lon="-0.46109">
        <ele>65.6</ele>
        <time>2020-08-02T09:04:43Z</time>
      </trkpt>
      <trkpt lat="47.30183" lon="-0.4612">
        <ele>65.4</ele>
        <time>2020-08-02T09:04:44Z</time>
      </trkpt>
      <trkpt lat="47.3018" lon="-0.46129">
        <ele>65.2</ele>
        <time>2020-08-02T09:04:45Z</time>
      </trkpt>
      <trkpt lat="47.3017" lon="-0.46163">
        <ele>64.6</ele>
        <time>2020-08-02T09:04:48Z</time>
      </trkpt>
      <trkpt lat="47.30163" lon="-0.46185">
        <ele>64.6</ele>
        <time>2020-08-02T09:04:50Z</time>
      </trkpt>
      <trkpt lat="47.3016" lon="-0.46195">
        <ele>64.6</ele>
        <time>2020-08-02T09:04:51Z</time>
      </trkpt>
      <trkpt lat="47.30157" lon="-0.46205">
        <ele>64.6</ele>
        <time>2020-08-02T09:04:52Z</time>
      </trkpt>
      <trkpt lat="47.30154" lon="-0.46215">
        <ele>64.6</ele>
        <time>2020-08-02T09:04:53Z</time>
      </trkpt>
      <trkpt lat="47.30152" lon="-0.46224">
        <ele>64.6</ele>
        <time>2020-08-02T09:04:54Z</time>
      </trkpt>
      <trkpt lat="47.30149" lon="-0.46232">
        <ele>64.8</ele>
        <time>2020-08-02T09:04:55Z</time>
      </trkpt>
      <trkpt lat="47.30146" lon="-0.4624">
        <ele>64.8</ele>
        <time>2020-08-02T09:04:56Z</time>
      </trkpt>
      <trkpt lat="47.30144" lon="-0.46246">
        <ele>64.8</ele>
        <time>2020-08-02T09:04:57Z</time>
      </trkpt>
      <trkpt lat="47.30142" lon="-0.46254">
        <ele>64.8</ele>
        <time>2020-08-02T09:04:58Z</time>
      </trkpt>
      <trkpt lat="47.3014" lon="-0.46262">
        <ele>64.8</ele>
        <time>2020-08-02T09:04:59Z</time>
      </trkpt>
      <trkpt lat="47.30138" lon="-0.46269">
        <ele>64.8</ele>
        <time>2020-08-02T09:05:00Z</time>
      </trkpt>
      <trkpt lat="47.30133" lon="-0.46284">
        <ele>65</ele>
        <time>2020-08-02T09:05:02Z</time>
      </trkpt>
      <trkpt lat="47.3013" lon="-0.46292">
        <ele>65</ele>
        <time>2020-08-02T09:05:03Z</time>
      </trkpt>
      <trkpt lat="47.30129" lon="-0.46298">
        <ele>65</ele>
        <time>2020-08-02T09:05:04Z</time>
      </trkpt>
      <trkpt lat="47.30126" lon="-0.46305">
        <ele>65</ele>
        <time>2020-08-02T09:05:05Z</time>
      </trkpt>
      <trkpt lat="47.30124" lon="-0.46312">
        <ele>65.2</ele>
        <time>2020-08-02T09:05:06Z</time>
      </trkpt>
      <trkpt lat="47.30123" lon="-0.46319">
        <ele>65.2</ele>
        <time>2020-08-02T09:05:07Z</time>
      </trkpt>
      <trkpt lat="47.30119" lon="-0.46339">
        <ele>65.4</ele>
        <time>2020-08-02T09:05:10Z</time>
      </trkpt>
      <trkpt lat="47.30118" lon="-0.46346">
        <ele>65.4</ele>
        <time>2020-08-02T09:05:11Z</time>
      </trkpt>
      <trkpt lat="47.30117" lon="-0.46354">
        <ele>65.4</ele>
        <time>2020-08-02T09:05:12Z</time>
      </trkpt>
      <trkpt lat="47.30116" lon="-0.46362">
        <ele>65.4</ele>
        <time>2020-08-02T09:05:13Z</time>
      </trkpt>
      <trkpt lat="47.30115" lon="-0.46369">
        <ele>65.6</ele>
        <time>2020-08-02T09:05:14Z</time>
      </trkpt>
      <trkpt lat="47.30115" lon="-0.46377">
        <ele>65.6</ele>
        <time>2020-08-02T09:05:15Z</time>
      </trkpt>
      <trkpt lat="47.30114" lon="-0.46384">
        <ele>65.6</ele>
        <time>2020-08-02T09:05:16Z</time>
      </trkpt>
      <trkpt lat="47.30113" lon="-0.46394">
        <ele>65.6</ele>
        <time>2020-08-02T09:05:17Z</time>
      </trkpt>
      <trkpt lat="47.30112" lon="-0.46408">
        <ele>65.6</ele>
        <time>2020-08-02T09:05:19Z</time>
      </trkpt>
      <trkpt lat="47.30111" lon="-0.46415">
        <ele>65.6</ele>
        <time>2020-08-02T09:05:20Z</time>
      </trkpt>
      <trkpt lat="47.3011" lon="-0.46422">
        <ele>65.8</ele>
        <time>2020-08-02T09:05:21Z</time>
      </trkpt>
      <trkpt lat="47.30108" lon="-0.46429">
        <ele>65.8</ele>
        <time>2020-08-02T09:05:22Z</time>
      </trkpt>
      <trkpt lat="47.30107" lon="-0.46436">
        <ele>65.8</ele>
        <time>2020-08-02T09:05:23Z</time>
      </trkpt>
      <trkpt lat="47.30105" lon="-0.46443">
        <ele>65.8</ele>
        <time>2020-08-02T09:05:24Z</time>
      </trkpt>
      <trkpt lat="47.30104" lon="-0.4645">
        <ele>66.2</ele>
        <time>2020-08-02T09:05:25Z</time>
      </trkpt>
      <trkpt lat="47.30103" lon="-0.46456">
        <ele>66</ele>
        <time>2020-08-02T09:05:26Z</time>
      </trkpt>
      <trkpt lat="47.30101" lon="-0.46464">
        <ele>66</ele>
        <time>2020-08-02T09:05:27Z</time>
      </trkpt>
      <trkpt lat="47.301" lon="-0.4647">
        <ele>66</ele>
        <time>2020-08-02T09:05:28Z</time>
      </trkpt>
      <trkpt lat="47.30099" lon="-0.46477">
        <ele>66</ele>
        <time>2020-08-02T09:05:29Z</time>
      </trkpt>
      <trkpt lat="47.30097" lon="-0.46484">
        <ele>66</ele>
        <time>2020-08-02T09:05:30Z</time>
      </trkpt>
      <trkpt lat="47.30096" lon="-0.46489">
        <ele>66.2</ele>
        <time>2020-08-02T09:05:31Z</time>
      </trkpt>
      <trkpt lat="47.30094" lon="-0.46496">
        <ele>66.2</ele>
        <time>2020-08-02T09:05:32Z</time>
      </trkpt>
      <trkpt lat="47.30092" lon="-0.46502">
        <ele>66.2</ele>
        <time>2020-08-02T09:05:33Z</time>
      </trkpt>
      <trkpt lat="47.30091" lon="-0.46509">
        <ele>66.2</ele>
        <time>2020-08-02T09:05:34Z</time>
      </trkpt>
      <trkpt lat="47.30089" lon="-0.46516">
        <ele>66.4</ele>
        <time>2020-08-02T09:05:35Z</time>
      </trkpt>
      <trkpt lat="47.30087" lon="-0.46523">
        <ele>66.4</ele>
        <time>2020-08-02T09:05:36Z</time>
      </trkpt>
      <trkpt lat="47.3008" lon="-0.46542">
        <ele>66.4</ele>
        <time>2020-08-02T09:05:39Z</time>
      </trkpt>
      <trkpt lat="47.30078" lon="-0.46547">
        <ele>66.4</ele>
        <time>2020-08-02T09:05:40Z</time>
      </trkpt>
      <trkpt lat="47.30076" lon="-0.46553">
        <ele>66.4</ele>
        <time>2020-08-02T09:05:41Z</time>
      </trkpt>
      <trkpt lat="47.30073" lon="-0.46559">
        <ele>66.6</ele>
        <time>2020-08-02T09:05:42Z</time>
      </trkpt>
      <trkpt lat="47.30063" lon="-0.46584">
        <ele>66.6</ele>
        <time>2020-08-02T09:05:46Z</time>
      </trkpt>
      <trkpt lat="47.30061" lon="-0.4659">
        <ele>66.6</ele>
        <time>2020-08-02T09:05:47Z</time>
      </trkpt>
      <trkpt lat="47.30059" lon="-0.46595">
        <ele>66.6</ele>
        <time>2020-08-02T09:05:48Z</time>
      </trkpt>
      <trkpt lat="47.30057" lon="-0.46601">
        <ele>66.6</ele>
        <time>2020-08-02T09:05:49Z</time>
      </trkpt>
      <trkpt lat="47.30054" lon="-0.46608">
        <ele>66.8</ele>
        <time>2020-08-02T09:05:50Z</time>
      </trkpt>
      <trkpt lat="47.30052" lon="-0.46612">
        <ele>66.8</ele>
        <time>2020-08-02T09:05:51Z</time>
      </trkpt>
      <trkpt lat="47.3005" lon="-0.46617">
        <ele>66.8</ele>
        <time>2020-08-02T09:05:52Z</time>
      </trkpt>
      <trkpt lat="47.30047" lon="-0.46624">
        <ele>67</ele>
        <time>2020-08-02T09:05:53Z</time>
      </trkpt>
      <trkpt lat="47.30046" lon="-0.46628">
        <ele>67</ele>
        <time>2020-08-02T09:05:54Z</time>
      </trkpt>
      <trkpt lat="47.30044" lon="-0.46633">
        <ele>67</ele>
        <time>2020-08-02T09:05:55Z</time>
      </trkpt>
      <trkpt lat="47.30041" lon="-0.46638">
        <ele>67</ele>
        <time>2020-08-02T09:05:56Z</time>
      </trkpt>
      <trkpt lat="47.30039" lon="-0.46643">
        <ele>67</ele>
        <time>2020-08-02T09:05:57Z</time>
      </trkpt>
      <trkpt lat="47.30037" lon="-0.46648">
        <ele>67</ele>
        <time>2020-08-02T09:05:58Z</time>
      </trkpt>
      <trkpt lat="47.30035" lon="-0.46651">
        <ele>67.2</ele>
        <time>2020-08-02T09:05:59Z</time>
      </trkpt>
      <trkpt lat="47.30033" lon="-0.46655">
        <ele>67.2</ele>
        <time>2020-08-02T09:06:00Z</time>
      </trkpt>
      <trkpt lat="47.30032" lon="-0.4666">
        <ele>67.2</ele>
        <time>2020-08-02T09:06:01Z</time>
      </trkpt>
      <trkpt lat="47.30031" lon="-0.46664">
        <ele>67.2</ele>
        <time>2020-08-02T09:06:02Z</time>
      </trkpt>
      <trkpt lat="47.30032" lon="-0.46669">
        <ele>67.2</ele>
        <time>2020-08-02T09:06:03Z</time>
      </trkpt>
      <trkpt lat="47.30035" lon="-0.46673">
        <ele>67.2</ele>
        <time>2020-08-02T09:06:04Z</time>
      </trkpt>
      <trkpt lat="47.30036" lon="-0.46676">
        <ele>67.2</ele>
        <time>2020-08-02T09:06:05Z</time>
      </trkpt>
      <trkpt lat="47.30039" lon="-0.46679">
        <ele>67.2</ele>
        <time>2020-08-02T09:06:06Z</time>
      </trkpt>
      <trkpt lat="47.30042" lon="-0.46682">
        <ele>67.2</ele>
        <time>2020-08-02T09:06:07Z</time>
      </trkpt>
      <trkpt lat="47.30044" lon="-0.46685">
        <ele>67.2</ele>
        <time>2020-08-02T09:06:08Z</time>
      </trkpt>
      <trkpt lat="47.30047" lon="-0.46688">
        <ele>67</ele>
        <time>2020-08-02T09:06:09Z</time>
      </trkpt>
      <trkpt lat="47.30051" lon="-0.46692">
        <ele>67</ele>
        <time>2020-08-02T09:06:10Z</time>
      </trkpt>
      <trkpt lat="47.30061" lon="-0.46703">
        <ele>66</ele>
        <time>2020-08-02T09:06:13Z</time>
      </trkpt>
      <trkpt lat="47.30065" lon="-0.46707">
        <ele>66</ele>
        <time>2020-08-02T09:06:14Z</time>
      </trkpt>
      <trkpt lat="47.30072" lon="-0.46716">
        <ele>66</ele>
        <time>2020-08-02T09:06:16Z</time>
      </trkpt>
      <trkpt lat="47.30075" lon="-0.4672">
        <ele>65.8</ele>
        <time>2020-08-02T09:06:17Z</time>
      </trkpt>
      <trkpt lat="47.30088" lon="-0.46736">
        <ele>65.8</ele>
        <time>2020-08-02T09:06:21Z</time>
      </trkpt>
      <trkpt lat="47.30094" lon="-0.46745">
        <ele>65.8</ele>
        <time>2020-08-02T09:06:23Z</time>
      </trkpt>
      <trkpt lat="47.30096" lon="-0.46749">
        <ele>65.8</ele>
        <time>2020-08-02T09:06:24Z</time>
      </trkpt>
      <trkpt lat="47.30099" lon="-0.46752">
        <ele>66</ele>
        <time>2020-08-02T09:06:25Z</time>
      </trkpt>
      <trkpt lat="47.30102" lon="-0.46756">
        <ele>66</ele>
        <time>2020-08-02T09:06:26Z</time>
      </trkpt>
      <trkpt lat="47.30105" lon="-0.46759">
        <ele>66</ele>
        <time>2020-08-02T09:06:27Z</time>
      </trkpt>
      <trkpt lat="47.30107" lon="-0.46762">
        <ele>66</ele>
        <time>2020-08-02T09:06:28Z</time>
      </trkpt>
      <trkpt lat="47.30108" lon="-0.46766">
        <ele>66</ele>
        <time>2020-08-02T09:06:29Z</time>
      </trkpt>
      <trkpt lat="47.30108" lon="-0.46769">
        <ele>66</ele>
        <time>2020-08-02T09:06:30Z</time>
      </trkpt>
      <trkpt lat="47.30109" lon="-0.46773">
        <ele>66</ele>
        <time>2020-08-02T09:06:31Z</time>
      </trkpt>
      <trkpt lat="47.3011" lon="-0.46775">
        <ele>66.2</ele>
        <time>2020-08-02T09:06:32Z</time>
      </trkpt>
      <trkpt lat="47.3011" lon="-0.46777">
        <ele>66.2</ele>
        <time>2020-08-02T09:06:33Z</time>
      </trkpt>
      <trkpt lat="47.30109" lon="-0.4678">
        <ele>66.2</ele>
        <time>2020-08-02T09:06:34Z</time>
      </trkpt>
      <trkpt lat="47.30108" lon="-0.46782">
        <ele>66.2</ele>
        <time>2020-08-02T09:06:35Z</time>
      </trkpt>
      <trkpt lat="47.30107" lon="-0.46784">
        <ele>66.2</ele>
        <time>2020-08-02T09:06:36Z</time>
      </trkpt>
      <trkpt lat="47.30106" lon="-0.46786">
        <ele>66</ele>
        <time>2020-08-02T09:06:37Z</time>
      </trkpt>
      <trkpt lat="47.30104" lon="-0.46789">
        <ele>66</ele>
        <time>2020-08-02T09:06:38Z</time>
      </trkpt>
      <trkpt lat="47.30103" lon="-0.46791">
        <ele>66</ele>
        <time>2020-08-02T09:06:39Z</time>
      </trkpt>
      <trkpt lat="47.30101" lon="-0.46794">
        <ele>66</ele>
        <time>2020-08-02T09:06:40Z</time>
      </trkpt>
      <trkpt lat="47.301" lon="-0.46796">
        <ele>66</ele>
        <time>2020-08-02T09:06:41Z</time>
      </trkpt>
      <trkpt lat="47.30098" lon="-0.46799">
        <ele>66.2</ele>
        <time>2020-08-02T09:06:42Z</time>
      </trkpt>
      <trkpt lat="47.30097" lon="-0.468">
        <ele>66.2</ele>
        <time>2020-08-02T09:06:43Z</time>
      </trkpt>
      <trkpt lat="47.30095" lon="-0.46803">
        <ele>66.4</ele>
        <time>2020-08-02T09:06:44Z</time>
      </trkpt>
      <trkpt lat="47.30092" lon="-0.46808">
        <ele>66.4</ele>
        <time>2020-08-02T09:06:46Z</time>
      </trkpt>
      <trkpt lat="47.3009" lon="-0.4681">
        <ele>66.6</ele>
        <time>2020-08-02T09:06:47Z</time>
      </trkpt>
      <trkpt lat="47.30088" lon="-0.46812">
        <ele>66.6</ele>
        <time>2020-08-02T09:06:48Z</time>
      </trkpt>
      <trkpt lat="47.30087" lon="-0.46815">
        <ele>66.6</ele>
        <time>2020-08-02T09:06:49Z</time>
      </trkpt>
      <trkpt lat="47.30083" lon="-0.4682">
        <ele>66.8</ele>
        <time>2020-08-02T09:06:51Z</time>
      </trkpt>
      <trkpt lat="47.30081" lon="-0.46824">
        <ele>66.8</ele>
        <time>2020-08-02T09:06:52Z</time>
      </trkpt>
      <trkpt lat="47.30072" lon="-0.46834">
        <ele>66.8</ele>
        <time>2020-08-02T09:06:54Z</time>
      </trkpt>
      <trkpt lat="47.30066" lon="-0.46842">
        <ele>66.8</ele>
        <time>2020-08-02T09:06:56Z</time>
      </trkpt>
      <trkpt lat="47.30064" lon="-0.46847">
        <ele>66.8</ele>
        <time>2020-08-02T09:06:57Z</time>
      </trkpt>
      <trkpt lat="47.30062" lon="-0.46851">
        <ele>66.8</ele>
        <time>2020-08-02T09:06:58Z</time>
      </trkpt>
      <trkpt lat="47.3006" lon="-0.46855">
        <ele>67</ele>
        <time>2020-08-02T09:06:59Z</time>
      </trkpt>
      <trkpt lat="47.30057" lon="-0.4686">
        <ele>67</ele>
        <time>2020-08-02T09:07:00Z</time>
      </trkpt>
      <trkpt lat="47.3005" lon="-0.46869">
        <ele>67</ele>
        <time>2020-08-02T09:07:02Z</time>
      </trkpt>
      <trkpt lat="47.30043" lon="-0.4688">
        <ele>67.2</ele>
        <time>2020-08-02T09:07:04Z</time>
      </trkpt>
      <trkpt lat="47.3004" lon="-0.46885">
        <ele>67.2</ele>
        <time>2020-08-02T09:07:05Z</time>
      </trkpt>
      <trkpt lat="47.30037" lon="-0.46889">
        <ele>67.4</ele>
        <time>2020-08-02T09:07:06Z</time>
      </trkpt>
      <trkpt lat="47.3003" lon="-0.469">
        <ele>67.4</ele>
        <time>2020-08-02T09:07:08Z</time>
      </trkpt>
      <trkpt lat="47.30026" lon="-0.46906">
        <ele>67.4</ele>
        <time>2020-08-02T09:07:09Z</time>
      </trkpt>
      <trkpt lat="47.30016" lon="-0.46926">
        <ele>67.4</ele>
        <time>2020-08-02T09:07:12Z</time>
      </trkpt>
      <trkpt lat="47.30012" lon="-0.46933">
        <ele>67.4</ele>
        <time>2020-08-02T09:07:13Z</time>
      </trkpt>
      <trkpt lat="47.30008" lon="-0.46942">
        <ele>67.4</ele>
        <time>2020-08-02T09:07:14Z</time>
      </trkpt>
      <trkpt lat="47.30006" lon="-0.46947">
        <ele>67.6</ele>
        <time>2020-08-02T09:07:15Z</time>
      </trkpt>
      <trkpt lat="47.30004" lon="-0.46953">
        <ele>67.6</ele>
        <time>2020-08-02T09:07:16Z</time>
      </trkpt>
      <trkpt lat="47.30001" lon="-0.46958">
        <ele>67.8</ele>
        <time>2020-08-02T09:07:17Z</time>
      </trkpt>
      <trkpt lat="47.29997" lon="-0.46963">
        <ele>68</ele>
        <time>2020-08-02T09:07:18Z</time>
      </trkpt>
      <trkpt lat="47.29994" lon="-0.46969">
        <ele>68.2</ele>
        <time>2020-08-02T09:07:19Z</time>
      </trkpt>
      <trkpt lat="47.29991" lon="-0.46974">
        <ele>68.2</ele>
        <time>2020-08-02T09:07:20Z</time>
      </trkpt>
      <trkpt lat="47.29989" lon="-0.46979">
        <ele>68.2</ele>
        <time>2020-08-02T09:07:21Z</time>
      </trkpt>
      <trkpt lat="47.29987" lon="-0.46985">
        <ele>68.4</ele>
        <time>2020-08-02T09:07:22Z</time>
      </trkpt>
      <trkpt lat="47.29983" lon="-0.46991">
        <ele>68.6</ele>
        <time>2020-08-02T09:07:23Z</time>
      </trkpt>
      <trkpt lat="47.2998" lon="-0.46997">
        <ele>68.8</ele>
        <time>2020-08-02T09:07:24Z</time>
      </trkpt>
      <trkpt lat="47.29977" lon="-0.47005">
        <ele>69</ele>
        <time>2020-08-02T09:07:25Z</time>
      </trkpt>
      <trkpt lat="47.29975" lon="-0.47011">
        <ele>69</ele>
        <time>2020-08-02T09:07:26Z</time>
      </trkpt>
      <trkpt lat="47.29973" lon="-0.47018">
        <ele>69.2</ele>
        <time>2020-08-02T09:07:27Z</time>
      </trkpt>
      <trkpt lat="47.29971" lon="-0.47026">
        <ele>69.2</ele>
        <time>2020-08-02T09:07:28Z</time>
      </trkpt>
      <trkpt lat="47.29969" lon="-0.47035">
        <ele>69.4</ele>
        <time>2020-08-02T09:07:29Z</time>
      </trkpt>
      <trkpt lat="47.29968" lon="-0.47044">
        <ele>69.4</ele>
        <time>2020-08-02T09:07:30Z</time>
      </trkpt>
      <trkpt lat="47.29968" lon="-0.4705">
        <ele>69.4</ele>
        <time>2020-08-02T09:07:31Z</time>
      </trkpt>
      <trkpt lat="47.29967" lon="-0.47058">
        <ele>69.4</ele>
        <time>2020-08-02T09:07:32Z</time>
      </trkpt>
      <trkpt lat="47.29966" lon="-0.47066">
        <ele>69.6</ele>
        <time>2020-08-02T09:07:33Z</time>
      </trkpt>
      <trkpt lat="47.29965" lon="-0.47073">
        <ele>70</ele>
        <time>2020-08-02T09:07:34Z</time>
      </trkpt>
      <trkpt lat="47.29963" lon="-0.4708">
        <ele>70.2</ele>
        <time>2020-08-02T09:07:35Z</time>
      </trkpt>
      <trkpt lat="47.29963" lon="-0.47088">
        <ele>70.4</ele>
        <time>2020-08-02T09:07:36Z</time>
      </trkpt>
      <trkpt lat="47.29962" lon="-0.47094">
        <ele>70.4</ele>
        <time>2020-08-02T09:07:37Z</time>
      </trkpt>
      <trkpt lat="47.29962" lon="-0.47101">
        <ele>70.6</ele>
        <time>2020-08-02T09:07:38Z</time>
      </trkpt>
      <trkpt lat="47.29961" lon="-0.47109">
        <ele>70.6</ele>
        <time>2020-08-02T09:07:39Z</time>
      </trkpt>
      <trkpt lat="47.29961" lon="-0.47114">
        <ele>70.8</ele>
        <time>2020-08-02T09:07:40Z</time>
      </trkpt>
      <trkpt lat="47.29961" lon="-0.4712">
        <ele>70.8</ele>
        <time>2020-08-02T09:07:41Z</time>
      </trkpt>
      <trkpt lat="47.29961" lon="-0.47124">
        <ele>71</ele>
        <time>2020-08-02T09:07:42Z</time>
      </trkpt>
      <trkpt lat="47.29961" lon="-0.4713">
        <ele>71.2</ele>
        <time>2020-08-02T09:07:43Z</time>
      </trkpt>
      <trkpt lat="47.29961" lon="-0.47137">
        <ele>71.4</ele>
        <time>2020-08-02T09:07:44Z</time>
      </trkpt>
      <trkpt lat="47.29961" lon="-0.47144">
        <ele>71.4</ele>
        <time>2020-08-02T09:07:45Z</time>
      </trkpt>
      <trkpt lat="47.29961" lon="-0.47149">
        <ele>71.6</ele>
        <time>2020-08-02T09:07:46Z</time>
      </trkpt>
      <trkpt lat="47.2996" lon="-0.47155">
        <ele>71.6</ele>
        <time>2020-08-02T09:07:47Z</time>
      </trkpt>
      <trkpt lat="47.2996" lon="-0.4716">
        <ele>71.8</ele>
        <time>2020-08-02T09:07:48Z</time>
      </trkpt>
      <trkpt lat="47.29961" lon="-0.47163">
        <ele>72.2</ele>
        <time>2020-08-02T09:07:49Z</time>
      </trkpt>
      <trkpt lat="47.29961" lon="-0.47167">
        <ele>72.4</ele>
        <time>2020-08-02T09:07:50Z</time>
      </trkpt>
      <trkpt lat="47.29961" lon="-0.47171">
        <ele>72.6</ele>
        <time>2020-08-02T09:07:51Z</time>
      </trkpt>
      <trkpt lat="47.29961" lon="-0.47175">
        <ele>72.6</ele>
        <time>2020-08-02T09:07:52Z</time>
      </trkpt>
      <trkpt lat="47.29961" lon="-0.47179">
        <ele>72.8</ele>
        <time>2020-08-02T09:07:53Z</time>
      </trkpt>
      <trkpt lat="47.2996" lon="-0.47184">
        <ele>73</ele>
        <time>2020-08-02T09:07:54Z</time>
      </trkpt>
      <trkpt lat="47.2996" lon="-0.47188">
        <ele>73</ele>
        <time>2020-08-02T09:07:55Z</time>
      </trkpt>
      <trkpt lat="47.2996" lon="-0.47193">
        <ele>73.2</ele>
        <time>2020-08-02T09:07:56Z</time>
      </trkpt>
      <trkpt lat="47.2996" lon="-0.47197">
        <ele>73.2</ele>
        <time>2020-08-02T09:07:57Z</time>
      </trkpt>
      <trkpt lat="47.29959" lon="-0.47203">
        <ele>73.2</ele>
        <time>2020-08-02T09:07:58Z</time>
      </trkpt>
      <trkpt lat="47.2996" lon="-0.47207">
        <ele>73.2</ele>
        <time>2020-08-02T09:07:59Z</time>
      </trkpt>
      <trkpt lat="47.2996" lon="-0.47212">
        <ele>73.4</ele>
        <time>2020-08-02T09:08:00Z</time>
      </trkpt>
      <trkpt lat="47.2996" lon="-0.47222">
        <ele>73.6</ele>
        <time>2020-08-02T09:08:02Z</time>
      </trkpt>
      <trkpt lat="47.2996" lon="-0.47226">
        <ele>73.8</ele>
        <time>2020-08-02T09:08:03Z</time>
      </trkpt>
      <trkpt lat="47.29959" lon="-0.47231">
        <ele>74</ele>
        <time>2020-08-02T09:08:04Z</time>
      </trkpt>
      <trkpt lat="47.29959" lon="-0.47236">
        <ele>74</ele>
        <time>2020-08-02T09:08:05Z</time>
      </trkpt>
      <trkpt lat="47.29959" lon="-0.47242">
        <ele>74.4</ele>
        <time>2020-08-02T09:08:06Z</time>
      </trkpt>
      <trkpt lat="47.29958" lon="-0.47246">
        <ele>74.2</ele>
        <time>2020-08-02T09:08:07Z</time>
      </trkpt>
      <trkpt lat="47.29958" lon="-0.47251">
        <ele>74.4</ele>
        <time>2020-08-02T09:08:08Z</time>
      </trkpt>
      <trkpt lat="47.29958" lon="-0.47255">
        <ele>74.8</ele>
        <time>2020-08-02T09:08:09Z</time>
      </trkpt>
      <trkpt lat="47.29957" lon="-0.4726">
        <ele>74.6</ele>
        <time>2020-08-02T09:08:10Z</time>
      </trkpt>
      <trkpt lat="47.29956" lon="-0.47264">
        <ele>74.8</ele>
        <time>2020-08-02T09:08:11Z</time>
      </trkpt>
      <trkpt lat="47.29955" lon="-0.47268">
        <ele>75</ele>
        <time>2020-08-02T09:08:12Z</time>
      </trkpt>
      <trkpt lat="47.29954" lon="-0.47271">
        <ele>75</ele>
        <time>2020-08-02T09:08:13Z</time>
      </trkpt>
      <trkpt lat="47.29953" lon="-0.47274">
        <ele>75</ele>
        <time>2020-08-02T09:08:14Z</time>
      </trkpt>
      <trkpt lat="47.29952" lon="-0.47277">
        <ele>75.2</ele>
        <time>2020-08-02T09:08:15Z</time>
      </trkpt>
      <trkpt lat="47.29951" lon="-0.4728">
        <ele>75.4</ele>
        <time>2020-08-02T09:08:16Z</time>
      </trkpt>
      <trkpt lat="47.2995" lon="-0.47284">
        <ele>75.4</ele>
        <time>2020-08-02T09:08:17Z</time>
      </trkpt>
      <trkpt lat="47.29948" lon="-0.47288">
        <ele>75.4</ele>
        <time>2020-08-02T09:08:18Z</time>
      </trkpt>
      <trkpt lat="47.29946" lon="-0.47292">
        <ele>75.4</ele>
        <time>2020-08-02T09:08:19Z</time>
      </trkpt>
      <trkpt lat="47.29945" lon="-0.47295">
        <ele>75.6</ele>
        <time>2020-08-02T09:08:20Z</time>
      </trkpt>
      <trkpt lat="47.29943" lon="-0.47299">
        <ele>75.6</ele>
        <time>2020-08-02T09:08:21Z</time>
      </trkpt>
      <trkpt lat="47.29941" lon="-0.47302">
        <ele>75.8</ele>
        <time>2020-08-02T09:08:22Z</time>
      </trkpt>
      <trkpt lat="47.29938" lon="-0.47307">
        <ele>76</ele>
        <time>2020-08-02T09:08:23Z</time>
      </trkpt>
      <trkpt lat="47.29935" lon="-0.47311">
        <ele>76.2</ele>
        <time>2020-08-02T09:08:24Z</time>
      </trkpt>
      <trkpt lat="47.29933" lon="-0.47318">
        <ele>76.4</ele>
        <time>2020-08-02T09:08:25Z</time>
      </trkpt>
      <trkpt lat="47.29929" lon="-0.47324">
        <ele>76.6</ele>
        <time>2020-08-02T09:08:26Z</time>
      </trkpt>
      <trkpt lat="47.29927" lon="-0.47328">
        <ele>76.6</ele>
        <time>2020-08-02T09:08:27Z</time>
      </trkpt>
      <trkpt lat="47.29925" lon="-0.47331">
        <ele>76.6</ele>
        <time>2020-08-02T09:08:28Z</time>
      </trkpt>
      <trkpt lat="47.29923" lon="-0.47334">
        <ele>76.6</ele>
        <time>2020-08-02T09:08:29Z</time>
      </trkpt>
      <trkpt lat="47.2992" lon="-0.47337">
        <ele>76.8</ele>
        <time>2020-08-02T09:08:30Z</time>
      </trkpt>
      <trkpt lat="47.29917" lon="-0.4734">
        <ele>76.8</ele>
        <time>2020-08-02T09:08:31Z</time>
      </trkpt>
      <trkpt lat="47.29914" lon="-0.47343">
        <ele>76.8</ele>
        <time>2020-08-02T09:08:32Z</time>
      </trkpt>
      <trkpt lat="47.29906" lon="-0.47347">
        <ele>76.8</ele>
        <time>2020-08-02T09:08:34Z</time>
      </trkpt>
      <trkpt lat="47.29902" lon="-0.47349">
        <ele>76.8</ele>
        <time>2020-08-02T09:08:35Z</time>
      </trkpt>
      <trkpt lat="47.29898" lon="-0.47352">
        <ele>76.8</ele>
        <time>2020-08-02T09:08:36Z</time>
      </trkpt>
      <trkpt lat="47.29891" lon="-0.47358">
        <ele>76.6</ele>
        <time>2020-08-02T09:08:37Z</time>
      </trkpt>
      <trkpt lat="47.29887" lon="-0.47364">
        <ele>76.6</ele>
        <time>2020-08-02T09:08:38Z</time>
      </trkpt>
      <trkpt lat="47.29882" lon="-0.47366">
        <ele>76.6</ele>
        <time>2020-08-02T09:08:39Z</time>
      </trkpt>
      <trkpt lat="47.29879" lon="-0.47368">
        <ele>76.6</ele>
        <time>2020-08-02T09:08:40Z</time>
      </trkpt>
      <trkpt lat="47.29871" lon="-0.47373">
        <ele>76.6</ele>
        <time>2020-08-02T09:08:42Z</time>
      </trkpt>
      <trkpt lat="47.29859" lon="-0.47381">
        <ele>76.6</ele>
        <time>2020-08-02T09:08:45Z</time>
      </trkpt>
      <trkpt lat="47.29853" lon="-0.47384">
        <ele>76.8</ele>
        <time>2020-08-02T09:08:46Z</time>
      </trkpt>
      <trkpt lat="47.29842" lon="-0.47389">
        <ele>76.8</ele>
        <time>2020-08-02T09:08:49Z</time>
      </trkpt>
      <trkpt lat="47.29838" lon="-0.47388">
        <ele>76.8</ele>
        <time>2020-08-02T09:08:51Z</time>
      </trkpt>
      <trkpt lat="47.29835" lon="-0.47389">
        <ele>76.8</ele>
        <time>2020-08-02T09:08:52Z</time>
      </trkpt>
      <trkpt lat="47.29833" lon="-0.4739">
        <ele>76.8</ele>
        <time>2020-08-02T09:08:53Z</time>
      </trkpt>
      <trkpt lat="47.29832" lon="-0.47391">
        <ele>76.8</ele>
        <time>2020-08-02T09:08:54Z</time>
      </trkpt>
      <trkpt lat="47.29828" lon="-0.47393">
        <ele>76.8</ele>
        <time>2020-08-02T09:08:55Z</time>
      </trkpt>
      <trkpt lat="47.29824" lon="-0.47396">
        <ele>76.8</ele>
        <time>2020-08-02T09:08:56Z</time>
      </trkpt>
      <trkpt lat="47.29821" lon="-0.47398">
        <ele>76.8</ele>
        <time>2020-08-02T09:08:57Z</time>
      </trkpt>
      <trkpt lat="47.29818" lon="-0.47399">
        <ele>76.8</ele>
        <time>2020-08-02T09:08:58Z</time>
      </trkpt>
      <trkpt lat="47.29815" lon="-0.474">
        <ele>76.8</ele>
        <time>2020-08-02T09:08:59Z</time>
      </trkpt>
      <trkpt lat="47.2981" lon="-0.47403">
        <ele>76.8</ele>
        <time>2020-08-02T09:09:00Z</time>
      </trkpt>
      <trkpt lat="47.29808" lon="-0.47405">
        <ele>76.8</ele>
        <time>2020-08-02T09:09:01Z</time>
      </trkpt>
      <trkpt lat="47.29807" lon="-0.47404">
        <ele>77</ele>
        <time>2020-08-02T09:09:02Z</time>
      </trkpt>
      <trkpt lat="47.29806" lon="-0.47405">
        <ele>77</ele>
        <time>2020-08-02T09:09:03Z</time>
      </trkpt>
      <trkpt lat="47.29805" lon="-0.47406">
        <ele>77</ele>
        <time>2020-08-02T09:09:04Z</time>
      </trkpt>
      <trkpt lat="47.29805" lon="-0.47404">
        <ele>77.2</ele>
        <time>2020-08-02T09:09:05Z</time>
      </trkpt>
      <trkpt lat="47.29804" lon="-0.47404">
        <ele>77.2</ele>
        <time>2020-08-02T09:09:06Z</time>
      </trkpt>
      <trkpt lat="47.29804" lon="-0.47405">
        <ele>77.2</ele>
        <time>2020-08-02T09:09:07Z</time>
      </trkpt>
      <trkpt lat="47.29804" lon="-0.47406">
        <ele>77.4</ele>
        <time>2020-08-02T09:09:08Z</time>
      </trkpt>
      <trkpt lat="47.29803" lon="-0.47406">
        <ele>77.4</ele>
        <time>2020-08-02T09:09:09Z</time>
      </trkpt>
      <trkpt lat="47.29802" lon="-0.47407">
        <ele>77.4</ele>
        <time>2020-08-02T09:09:10Z</time>
      </trkpt>
      <trkpt lat="47.29799" lon="-0.47406">
        <ele>77.4</ele>
        <time>2020-08-02T09:09:11Z</time>
      </trkpt>
      <trkpt lat="47.29798" lon="-0.47407">
        <ele>77.6</ele>
        <time>2020-08-02T09:09:12Z</time>
      </trkpt>
      <trkpt lat="47.29795" lon="-0.47408">
        <ele>77.6</ele>
        <time>2020-08-02T09:09:13Z</time>
      </trkpt>
      <trkpt lat="47.29792" lon="-0.47408">
        <ele>77.6</ele>
        <time>2020-08-02T09:09:14Z</time>
      </trkpt>
      <trkpt lat="47.2979" lon="-0.4741">
        <ele>77.6</ele>
        <time>2020-08-02T09:09:15Z</time>
      </trkpt>
      <trkpt lat="47.29789" lon="-0.47411">
        <ele>77.6</ele>
        <time>2020-08-02T09:09:16Z</time>
      </trkpt>
      <trkpt lat="47.29788" lon="-0.47411">
        <ele>77.6</ele>
        <time>2020-08-02T09:09:17Z</time>
      </trkpt>
      <trkpt lat="47.29788" lon="-0.47411">
        <ele>77.6</ele>
        <time>2020-08-02T09:09:18Z</time>
      </trkpt>
      <trkpt lat="47.29788" lon="-0.47411">
        <ele>77.6</ele>
        <time>2020-08-02T09:09:19Z</time>
      </trkpt>
      <trkpt lat="47.29788" lon="-0.47411">
        <ele>77.6</ele>
        <time>2020-08-02T09:09:24Z</time>
      </trkpt>
      <trkpt lat="47.29788" lon="-0.47411">
        <ele>77.4</ele>
        <time>2020-08-02T09:09:42Z</time>
      </trkpt>
      <trkpt lat="47.2978" lon="-0.47414">
        <ele>77.2</ele>
        <time>2020-08-02T09:10:04Z</time>
      </trkpt>
      <trkpt lat="47.29772" lon="-0.47419">
        <ele>77.2</ele>
        <time>2020-08-02T09:10:07Z</time>
      </trkpt>
      <trkpt lat="47.29768" lon="-0.47421">
        <ele>77.2</ele>
        <time>2020-08-02T09:10:08Z</time>
      </trkpt>
      <trkpt lat="47.29754" lon="-0.47428">
        <ele>77</ele>
        <time>2020-08-02T09:10:12Z</time>
      </trkpt>
      <trkpt lat="47.2975" lon="-0.47431">
        <ele>77</ele>
        <time>2020-08-02T09:10:13Z</time>
      </trkpt>
      <trkpt lat="47.29746" lon="-0.47435">
        <ele>76.8</ele>
        <time>2020-08-02T09:10:14Z</time>
      </trkpt>
      <trkpt lat="47.29742" lon="-0.47439">
        <ele>77</ele>
        <time>2020-08-02T09:10:15Z</time>
      </trkpt>
      <trkpt lat="47.29736" lon="-0.47444">
        <ele>77</ele>
        <time>2020-08-02T09:10:17Z</time>
      </trkpt>
      <trkpt lat="47.2973" lon="-0.47451">
        <ele>77</ele>
        <time>2020-08-02T09:10:19Z</time>
      </trkpt>
      <trkpt lat="47.29721" lon="-0.47458">
        <ele>77.2</ele>
        <time>2020-08-02T09:10:20Z</time>
      </trkpt>
      <trkpt lat="47.29718" lon="-0.47462">
        <ele>77.2</ele>
        <time>2020-08-02T09:10:21Z</time>
      </trkpt>
      <trkpt lat="47.29713" lon="-0.47468">
        <ele>77</ele>
        <time>2020-08-02T09:10:22Z</time>
      </trkpt>
      <trkpt lat="47.29709" lon="-0.47477">
        <ele>77</ele>
        <time>2020-08-02T09:10:24Z</time>
      </trkpt>
      <trkpt lat="47.29706" lon="-0.47483">
        <ele>77</ele>
        <time>2020-08-02T09:10:25Z</time>
      </trkpt>
      <trkpt lat="47.29703" lon="-0.47488">
        <ele>77.2</ele>
        <time>2020-08-02T09:10:26Z</time>
      </trkpt>
      <trkpt lat="47.297" lon="-0.47495">
        <ele>77.2</ele>
        <time>2020-08-02T09:10:27Z</time>
      </trkpt>
      <trkpt lat="47.29695" lon="-0.47504">
        <ele>77.2</ele>
        <time>2020-08-02T09:10:28Z</time>
      </trkpt>
      <trkpt lat="47.29685" lon="-0.4752">
        <ele>77</ele>
        <time>2020-08-02T09:10:31Z</time>
      </trkpt>
      <trkpt lat="47.29682" lon="-0.47525">
        <ele>77.2</ele>
        <time>2020-08-02T09:10:32Z</time>
      </trkpt>
      <trkpt lat="47.2968" lon="-0.47532">
        <ele>77.2</ele>
        <time>2020-08-02T09:10:33Z</time>
      </trkpt>
      <trkpt lat="47.29678" lon="-0.47537">
        <ele>77.2</ele>
        <time>2020-08-02T09:10:34Z</time>
      </trkpt>
      <trkpt lat="47.29669" lon="-0.47553">
        <ele>77.2</ele>
        <time>2020-08-02T09:10:37Z</time>
      </trkpt>
      <trkpt lat="47.2967" lon="-0.47558">
        <ele>77.2</ele>
        <time>2020-08-02T09:10:38Z</time>
      </trkpt>
      <trkpt lat="47.2967" lon="-0.47562">
        <ele>77.2</ele>
        <time>2020-08-02T09:10:39Z</time>
      </trkpt>
      <trkpt lat="47.29669" lon="-0.47566">
        <ele>77.2</ele>
        <time>2020-08-02T09:10:40Z</time>
      </trkpt>
      <trkpt lat="47.29669" lon="-0.4757">
        <ele>77.2</ele>
        <time>2020-08-02T09:10:41Z</time>
      </trkpt>
      <trkpt lat="47.29668" lon="-0.47574">
        <ele>77.4</ele>
        <time>2020-08-02T09:10:42Z</time>
      </trkpt>
      <trkpt lat="47.29665" lon="-0.47578">
        <ele>77.4</ele>
        <time>2020-08-02T09:10:43Z</time>
      </trkpt>
      <trkpt lat="47.29661" lon="-0.47583">
        <ele>77.4</ele>
        <time>2020-08-02T09:10:44Z</time>
      </trkpt>
      <trkpt lat="47.2966" lon="-0.47588">
        <ele>77.4</ele>
        <time>2020-08-02T09:10:45Z</time>
      </trkpt>
      <trkpt lat="47.29658" lon="-0.4759">
        <ele>77.4</ele>
        <time>2020-08-02T09:10:46Z</time>
      </trkpt>
      <trkpt lat="47.29656" lon="-0.47592">
        <ele>77.4</ele>
        <time>2020-08-02T09:10:47Z</time>
      </trkpt>
      <trkpt lat="47.29655" lon="-0.47596">
        <ele>77.6</ele>
        <time>2020-08-02T09:10:48Z</time>
      </trkpt>
      <trkpt lat="47.29654" lon="-0.47598">
        <ele>77.6</ele>
        <time>2020-08-02T09:10:49Z</time>
      </trkpt>
      <trkpt lat="47.29653" lon="-0.47601">
        <ele>77.6</ele>
        <time>2020-08-02T09:10:50Z</time>
      </trkpt>
      <trkpt lat="47.29651" lon="-0.47604">
        <ele>77.6</ele>
        <time>2020-08-02T09:10:51Z</time>
      </trkpt>
      <trkpt lat="47.29648" lon="-0.47608">
        <ele>77.6</ele>
        <time>2020-08-02T09:10:52Z</time>
      </trkpt>
      <trkpt lat="47.29646" lon="-0.47611">
        <ele>77.6</ele>
        <time>2020-08-02T09:10:53Z</time>
      </trkpt>
      <trkpt lat="47.29643" lon="-0.47614">
        <ele>77.6</ele>
        <time>2020-08-02T09:10:54Z</time>
      </trkpt>
      <trkpt lat="47.2964" lon="-0.47618">
        <ele>77.6</ele>
        <time>2020-08-02T09:10:55Z</time>
      </trkpt>
      <trkpt lat="47.29637" lon="-0.47623">
        <ele>77.6</ele>
        <time>2020-08-02T09:10:56Z</time>
      </trkpt>
      <trkpt lat="47.29635" lon="-0.47626">
        <ele>77.6</ele>
        <time>2020-08-02T09:10:57Z</time>
      </trkpt>
      <trkpt lat="47.29633" lon="-0.47629">
        <ele>77.6</ele>
        <time>2020-08-02T09:10:58Z</time>
      </trkpt>
      <trkpt lat="47.29631" lon="-0.47632">
        <ele>77.6</ele>
        <time>2020-08-02T09:10:59Z</time>
      </trkpt>
      <trkpt lat="47.29628" lon="-0.47635">
        <ele>77.6</ele>
        <time>2020-08-02T09:11:00Z</time>
      </trkpt>
      <trkpt lat="47.29625" lon="-0.47639">
        <ele>77.6</ele>
        <time>2020-08-02T09:11:01Z</time>
      </trkpt>
      <trkpt lat="47.29618" lon="-0.47644">
        <ele>77.6</ele>
        <time>2020-08-02T09:11:02Z</time>
      </trkpt>
      <trkpt lat="47.29615" lon="-0.47648">
        <ele>77.6</ele>
        <time>2020-08-02T09:11:03Z</time>
      </trkpt>
      <trkpt lat="47.29611" lon="-0.47651">
        <ele>77.8</ele>
        <time>2020-08-02T09:11:04Z</time>
      </trkpt>
      <trkpt lat="47.29607" lon="-0.47657">
        <ele>77.8</ele>
        <time>2020-08-02T09:11:06Z</time>
      </trkpt>
      <trkpt lat="47.29605" lon="-0.47661">
        <ele>78</ele>
        <time>2020-08-02T09:11:07Z</time>
      </trkpt>
      <trkpt lat="47.29602" lon="-0.47666">
        <ele>78</ele>
        <time>2020-08-02T09:11:08Z</time>
      </trkpt>
      <trkpt lat="47.29598" lon="-0.47671">
        <ele>78</ele>
        <time>2020-08-02T09:11:09Z</time>
      </trkpt>
      <trkpt lat="47.29595" lon="-0.47675">
        <ele>78</ele>
        <time>2020-08-02T09:11:10Z</time>
      </trkpt>
      <trkpt lat="47.2959" lon="-0.47681">
        <ele>78.2</ele>
        <time>2020-08-02T09:11:12Z</time>
      </trkpt>
      <trkpt lat="47.29587" lon="-0.47686">
        <ele>78.2</ele>
        <time>2020-08-02T09:11:13Z</time>
      </trkpt>
      <trkpt lat="47.29584" lon="-0.4769">
        <ele>78.4</ele>
        <time>2020-08-02T09:11:14Z</time>
      </trkpt>
      <trkpt lat="47.2958" lon="-0.47694">
        <ele>78.4</ele>
        <time>2020-08-02T09:11:15Z</time>
      </trkpt>
      <trkpt lat="47.29578" lon="-0.47699">
        <ele>78.6</ele>
        <time>2020-08-02T09:11:16Z</time>
      </trkpt>
      <trkpt lat="47.29575" lon="-0.47704">
        <ele>78.6</ele>
        <time>2020-08-02T09:11:17Z</time>
      </trkpt>
      <trkpt lat="47.29569" lon="-0.47708">
        <ele>78.6</ele>
        <time>2020-08-02T09:11:18Z</time>
      </trkpt>
      <trkpt lat="47.29566" lon="-0.47711">
        <ele>78.8</ele>
        <time>2020-08-02T09:11:19Z</time>
      </trkpt>
      <trkpt lat="47.29559" lon="-0.47723">
        <ele>78.8</ele>
        <time>2020-08-02T09:11:21Z</time>
      </trkpt>
      <trkpt lat="47.29555" lon="-0.47732">
        <ele>78.8</ele>
        <time>2020-08-02T09:11:22Z</time>
      </trkpt>
      <trkpt lat="47.29552" lon="-0.47736">
        <ele>79</ele>
        <time>2020-08-02T09:11:23Z</time>
      </trkpt>
      <trkpt lat="47.29552" lon="-0.47736">
        <ele>79.2</ele>
        <time>2020-08-02T09:11:24Z</time>
      </trkpt>
      <trkpt lat="47.29551" lon="-0.47747">
        <ele>79.2</ele>
        <time>2020-08-02T09:11:27Z</time>
      </trkpt>
      <trkpt lat="47.2955" lon="-0.47751">
        <ele>79.4</ele>
        <time>2020-08-02T09:11:28Z</time>
      </trkpt>
      <trkpt lat="47.29548" lon="-0.47756">
        <ele>79.4</ele>
        <time>2020-08-02T09:11:29Z</time>
      </trkpt>
      <trkpt lat="47.29546" lon="-0.47762">
        <ele>79.4</ele>
        <time>2020-08-02T09:11:30Z</time>
      </trkpt>
      <trkpt lat="47.29542" lon="-0.47773">
        <ele>79.4</ele>
        <time>2020-08-02T09:11:32Z</time>
      </trkpt>
      <trkpt lat="47.29539" lon="-0.47779">
        <ele>79.4</ele>
        <time>2020-08-02T09:11:33Z</time>
      </trkpt>
      <trkpt lat="47.29537" lon="-0.47783">
        <ele>79.4</ele>
        <time>2020-08-02T09:11:34Z</time>
      </trkpt>
      <trkpt lat="47.29536" lon="-0.47787">
        <ele>79.4</ele>
        <time>2020-08-02T09:11:35Z</time>
      </trkpt>
      <trkpt lat="47.29533" lon="-0.4779">
        <ele>79.4</ele>
        <time>2020-08-02T09:11:36Z</time>
      </trkpt>
      <trkpt lat="47.29529" lon="-0.47797">
        <ele>79.4</ele>
        <time>2020-08-02T09:11:37Z</time>
      </trkpt>
      <trkpt lat="47.29526" lon="-0.4781">
        <ele>79.6</ele>
        <time>2020-08-02T09:11:39Z</time>
      </trkpt>
      <trkpt lat="47.29519" lon="-0.47829">
        <ele>79.6</ele>
        <time>2020-08-02T09:11:42Z</time>
      </trkpt>
      <trkpt lat="47.29517" lon="-0.47835">
        <ele>79.6</ele>
        <time>2020-08-02T09:11:43Z</time>
      </trkpt>
      <trkpt lat="47.29516" lon="-0.4784">
        <ele>79.6</ele>
        <time>2020-08-02T09:11:44Z</time>
      </trkpt>
      <trkpt lat="47.29514" lon="-0.47845">
        <ele>79.6</ele>
        <time>2020-08-02T09:11:45Z</time>
      </trkpt>
      <trkpt lat="47.29512" lon="-0.4785">
        <ele>79.8</ele>
        <time>2020-08-02T09:11:46Z</time>
      </trkpt>
      <trkpt lat="47.29511" lon="-0.47854">
        <ele>79.8</ele>
        <time>2020-08-02T09:11:47Z</time>
      </trkpt>
      <trkpt lat="47.29509" lon="-0.47858">
        <ele>79.8</ele>
        <time>2020-08-02T09:11:48Z</time>
      </trkpt>
      <trkpt lat="47.29508" lon="-0.47862">
        <ele>79.8</ele>
        <time>2020-08-02T09:11:49Z</time>
      </trkpt>
      <trkpt lat="47.29506" lon="-0.47868">
        <ele>79.8</ele>
        <time>2020-08-02T09:11:50Z</time>
      </trkpt>
      <trkpt lat="47.29504" lon="-0.47874">
        <ele>79.8</ele>
        <time>2020-08-02T09:11:51Z</time>
      </trkpt>
      <trkpt lat="47.295" lon="-0.4788">
        <ele>80</ele>
        <time>2020-08-02T09:11:53Z</time>
      </trkpt>
      <trkpt lat="47.29498" lon="-0.47883">
        <ele>80</ele>
        <time>2020-08-02T09:11:54Z</time>
      </trkpt>
      <trkpt lat="47.29495" lon="-0.47886">
        <ele>80</ele>
        <time>2020-08-02T09:11:55Z</time>
      </trkpt>
      <trkpt lat="47.29493" lon="-0.47891">
        <ele>80</ele>
        <time>2020-08-02T09:11:56Z</time>
      </trkpt>
      <trkpt lat="47.29492" lon="-0.47895">
        <ele>80</ele>
        <time>2020-08-02T09:11:57Z</time>
      </trkpt>
      <trkpt lat="47.29492" lon="-0.479">
        <ele>80.2</ele>
        <time>2020-08-02T09:11:58Z</time>
      </trkpt>
      <trkpt lat="47.29491" lon="-0.47903">
        <ele>80.2</ele>
        <time>2020-08-02T09:11:59Z</time>
      </trkpt>
      <trkpt lat="47.29491" lon="-0.47906">
        <ele>80.2</ele>
        <time>2020-08-02T09:12:00Z</time>
      </trkpt>
      <trkpt lat="47.29489" lon="-0.4791">
        <ele>80.2</ele>
        <time>2020-08-02T09:12:01Z</time>
      </trkpt>
      <trkpt lat="47.29487" lon="-0.47913">
        <ele>80.4</ele>
        <time>2020-08-02T09:12:02Z</time>
      </trkpt>
      <trkpt lat="47.29483" lon="-0.47927">
        <ele>80.6</ele>
        <time>2020-08-02T09:12:05Z</time>
      </trkpt>
      <trkpt lat="47.29481" lon="-0.47932">
        <ele>80.6</ele>
        <time>2020-08-02T09:12:06Z</time>
      </trkpt>
      <trkpt lat="47.29478" lon="-0.47937">
        <ele>80.8</ele>
        <time>2020-08-02T09:12:07Z</time>
      </trkpt>
      <trkpt lat="47.29475" lon="-0.47945">
        <ele>80.8</ele>
        <time>2020-08-02T09:12:08Z</time>
      </trkpt>
      <trkpt lat="47.29472" lon="-0.47948">
        <ele>80.8</ele>
        <time>2020-08-02T09:12:09Z</time>
      </trkpt>
      <trkpt lat="47.2947" lon="-0.4795">
        <ele>80.6</ele>
        <time>2020-08-02T09:12:10Z</time>
      </trkpt>
      <trkpt lat="47.29469" lon="-0.47953">
        <ele>80.6</ele>
        <time>2020-08-02T09:12:11Z</time>
      </trkpt>
      <trkpt lat="47.29467" lon="-0.47956">
        <ele>80.8</ele>
        <time>2020-08-02T09:12:12Z</time>
      </trkpt>
      <trkpt lat="47.29465" lon="-0.47959">
        <ele>80.8</ele>
        <time>2020-08-02T09:12:13Z</time>
      </trkpt>
      <trkpt lat="47.29458" lon="-0.47966">
        <ele>81</ele>
        <time>2020-08-02T09:12:15Z</time>
      </trkpt>
      <trkpt lat="47.29456" lon="-0.47969">
        <ele>81</ele>
        <time>2020-08-02T09:12:16Z</time>
      </trkpt>
      <trkpt lat="47.29455" lon="-0.47972">
        <ele>81</ele>
        <time>2020-08-02T09:12:17Z</time>
      </trkpt>
      <trkpt lat="47.29454" lon="-0.47976">
        <ele>81</ele>
        <time>2020-08-02T09:12:18Z</time>
      </trkpt>
      <trkpt lat="47.29451" lon="-0.47981">
        <ele>81.2</ele>
        <time>2020-08-02T09:12:19Z</time>
      </trkpt>
      <trkpt lat="47.29449" lon="-0.47984">
        <ele>81.2</ele>
        <time>2020-08-02T09:12:20Z</time>
      </trkpt>
      <trkpt lat="47.29448" lon="-0.47987">
        <ele>81.2</ele>
        <time>2020-08-02T09:12:21Z</time>
      </trkpt>
      <trkpt lat="47.29446" lon="-0.47992">
        <ele>81.2</ele>
        <time>2020-08-02T09:12:22Z</time>
      </trkpt>
      <trkpt lat="47.29443" lon="-0.47995">
        <ele>81.2</ele>
        <time>2020-08-02T09:12:23Z</time>
      </trkpt>
      <trkpt lat="47.2944" lon="-0.48">
        <ele>81.4</ele>
        <time>2020-08-02T09:12:24Z</time>
      </trkpt>
      <trkpt lat="47.29437" lon="-0.48004">
        <ele>81.6</ele>
        <time>2020-08-02T09:12:25Z</time>
      </trkpt>
      <trkpt lat="47.29435" lon="-0.48007">
        <ele>81.8</ele>
        <time>2020-08-02T09:12:26Z</time>
      </trkpt>
      <trkpt lat="47.29425" lon="-0.4802">
        <ele>81.8</ele>
        <time>2020-08-02T09:12:29Z</time>
      </trkpt>
      <trkpt lat="47.29423" lon="-0.48024">
        <ele>81.8</ele>
        <time>2020-08-02T09:12:30Z</time>
      </trkpt>
      <trkpt lat="47.29422" lon="-0.48029">
        <ele>81.8</ele>
        <time>2020-08-02T09:12:31Z</time>
      </trkpt>
      <trkpt lat="47.29417" lon="-0.48037">
        <ele>81.8</ele>
        <time>2020-08-02T09:12:33Z</time>
      </trkpt>
      <trkpt lat="47.29411" lon="-0.48046">
        <ele>82</ele>
        <time>2020-08-02T09:12:36Z</time>
      </trkpt>
      <trkpt lat="47.2941" lon="-0.48049">
        <ele>82</ele>
        <time>2020-08-02T09:12:37Z</time>
      </trkpt>
      <trkpt lat="47.29407" lon="-0.48052">
        <ele>82.2</ele>
        <time>2020-08-02T09:12:38Z</time>
      </trkpt>
      <trkpt lat="47.29405" lon="-0.48054">
        <ele>82.2</ele>
        <time>2020-08-02T09:12:39Z</time>
      </trkpt>
      <trkpt lat="47.29402" lon="-0.48057">
        <ele>82.4</ele>
        <time>2020-08-02T09:12:40Z</time>
      </trkpt>
      <trkpt lat="47.29402" lon="-0.4806">
        <ele>82.4</ele>
        <time>2020-08-02T09:12:41Z</time>
      </trkpt>
      <trkpt lat="47.294" lon="-0.48062">
        <ele>82.4</ele>
        <time>2020-08-02T09:12:42Z</time>
      </trkpt>
      <trkpt lat="47.294" lon="-0.48063">
        <ele>82.4</ele>
        <time>2020-08-02T09:12:43Z</time>
      </trkpt>
      <trkpt lat="47.294" lon="-0.48063">
        <ele>82.4</ele>
        <time>2020-08-02T09:12:44Z</time>
      </trkpt>
      <trkpt lat="47.29399" lon="-0.48065">
        <ele>82.4</ele>
        <time>2020-08-02T09:12:45Z</time>
      </trkpt>
      <trkpt lat="47.29397" lon="-0.48069">
        <ele>82.4</ele>
        <time>2020-08-02T09:12:47Z</time>
      </trkpt>
      <trkpt lat="47.29395" lon="-0.48072">
        <ele>82.4</ele>
        <time>2020-08-02T09:12:48Z</time>
      </trkpt>
      <trkpt lat="47.29392" lon="-0.48074">
        <ele>82.4</ele>
        <time>2020-08-02T09:12:49Z</time>
      </trkpt>
      <trkpt lat="47.29391" lon="-0.48076">
        <ele>82.4</ele>
        <time>2020-08-02T09:12:50Z</time>
      </trkpt>
      <trkpt lat="47.29391" lon="-0.48079">
        <ele>82.4</ele>
        <time>2020-08-02T09:12:51Z</time>
      </trkpt>
      <trkpt lat="47.2939" lon="-0.4808">
        <ele>82.4</ele>
        <time>2020-08-02T09:12:52Z</time>
      </trkpt>
      <trkpt lat="47.2939" lon="-0.48081">
        <ele>82.4</ele>
        <time>2020-08-02T09:12:53Z</time>
      </trkpt>
      <trkpt lat="47.29389" lon="-0.48081">
        <ele>82.4</ele>
        <time>2020-08-02T09:12:54Z</time>
      </trkpt>
      <trkpt lat="47.2939" lon="-0.4808">
        <ele>82.4</ele>
        <time>2020-08-02T09:12:55Z</time>
      </trkpt>
      <trkpt lat="47.29389" lon="-0.48086">
        <ele>82.4</ele>
        <time>2020-08-02T09:12:58Z</time>
      </trkpt>
      <trkpt lat="47.29388" lon="-0.48087">
        <ele>82.4</ele>
        <time>2020-08-02T09:12:59Z</time>
      </trkpt>
      <trkpt lat="47.29387" lon="-0.48089">
        <ele>82.4</ele>
        <time>2020-08-02T09:13:00Z</time>
      </trkpt>
      <trkpt lat="47.29386" lon="-0.48092">
        <ele>82.4</ele>
        <time>2020-08-02T09:13:01Z</time>
      </trkpt>
      <trkpt lat="47.29385" lon="-0.48095">
        <ele>82.4</ele>
        <time>2020-08-02T09:13:03Z</time>
      </trkpt>
      <trkpt lat="47.29384" lon="-0.48098">
        <ele>82.4</ele>
        <time>2020-08-02T09:13:04Z</time>
      </trkpt>
      <trkpt lat="47.29382" lon="-0.48103">
        <ele>82.2</ele>
        <time>2020-08-02T09:13:07Z</time>
      </trkpt>
      <trkpt lat="47.29381" lon="-0.48105">
        <ele>82.2</ele>
        <time>2020-08-02T09:13:08Z</time>
      </trkpt>
      <trkpt lat="47.29379" lon="-0.48111">
        <ele>82</ele>
        <time>2020-08-02T09:13:11Z</time>
      </trkpt>
      <trkpt lat="47.29378" lon="-0.48113">
        <ele>82</ele>
        <time>2020-08-02T09:13:12Z</time>
      </trkpt>
      <trkpt lat="47.29377" lon="-0.48114">
        <ele>82</ele>
        <time>2020-08-02T09:13:13Z</time>
      </trkpt>
      <trkpt lat="47.29377" lon="-0.48115">
        <ele>82</ele>
        <time>2020-08-02T09:13:14Z</time>
      </trkpt>
      <trkpt lat="47.29377" lon="-0.48116">
        <ele>82</ele>
        <time>2020-08-02T09:13:15Z</time>
      </trkpt>
      <trkpt lat="47.29377" lon="-0.48118">
        <ele>82</ele>
        <time>2020-08-02T09:13:16Z</time>
      </trkpt>
      <trkpt lat="47.29377" lon="-0.4812">
        <ele>81.8</ele>
        <time>2020-08-02T09:13:17Z</time>
      </trkpt>
      <trkpt lat="47.29376" lon="-0.48122">
        <ele>81.8</ele>
        <time>2020-08-02T09:13:18Z</time>
      </trkpt>
      <trkpt lat="47.29376" lon="-0.48124">
        <ele>81.8</ele>
        <time>2020-08-02T09:13:19Z</time>
      </trkpt>
      <trkpt lat="47.29375" lon="-0.48127">
        <ele>81.8</ele>
        <time>2020-08-02T09:13:20Z</time>
      </trkpt>
      <trkpt lat="47.29375" lon="-0.48128">
        <ele>82</ele>
        <time>2020-08-02T09:13:21Z</time>
      </trkpt>
      <trkpt lat="47.29374" lon="-0.48131">
        <ele>82</ele>
        <time>2020-08-02T09:13:22Z</time>
      </trkpt>
      <trkpt lat="47.29374" lon="-0.48133">
        <ele>82</ele>
        <time>2020-08-02T09:13:23Z</time>
      </trkpt>
      <trkpt lat="47.2937" lon="-0.48143">
        <ele>82.2</ele>
        <time>2020-08-02T09:13:26Z</time>
      </trkpt>
      <trkpt lat="47.29368" lon="-0.48147">
        <ele>82.2</ele>
        <time>2020-08-02T09:13:27Z</time>
      </trkpt>
      <trkpt lat="47.29367" lon="-0.4815">
        <ele>82.4</ele>
        <time>2020-08-02T09:13:28Z</time>
      </trkpt>
      <trkpt lat="47.29365" lon="-0.48158">
        <ele>82.6</ele>
        <time>2020-08-02T09:13:30Z</time>
      </trkpt>
      <trkpt lat="47.29365" lon="-0.48161">
        <ele>82.6</ele>
        <time>2020-08-02T09:13:31Z</time>
      </trkpt>
      <trkpt lat="47.29361" lon="-0.48167">
        <ele>82.8</ele>
        <time>2020-08-02T09:13:33Z</time>
      </trkpt>
      <trkpt lat="47.29359" lon="-0.48173">
        <ele>83</ele>
        <time>2020-08-02T09:13:34Z</time>
      </trkpt>
      <trkpt lat="47.29358" lon="-0.48176">
        <ele>83</ele>
        <time>2020-08-02T09:13:35Z</time>
      </trkpt>
      <trkpt lat="47.29357" lon="-0.4818">
        <ele>83</ele>
        <time>2020-08-02T09:13:36Z</time>
      </trkpt>
      <trkpt lat="47.29354" lon="-0.48189">
        <ele>83.2</ele>
        <time>2020-08-02T09:13:39Z</time>
      </trkpt>
      <trkpt lat="47.29353" lon="-0.48192">
        <ele>83.2</ele>
        <time>2020-08-02T09:13:40Z</time>
      </trkpt>
      <trkpt lat="47.29351" lon="-0.48196">
        <ele>83.2</ele>
        <time>2020-08-02T09:13:41Z</time>
      </trkpt>
      <trkpt lat="47.2935" lon="-0.482">
        <ele>83.2</ele>
        <time>2020-08-02T09:13:42Z</time>
      </trkpt>
      <trkpt lat="47.29349" lon="-0.48204">
        <ele>83.2</ele>
        <time>2020-08-02T09:13:43Z</time>
      </trkpt>
      <trkpt lat="47.29348" lon="-0.48208">
        <ele>83.2</ele>
        <time>2020-08-02T09:13:44Z</time>
      </trkpt>
      <trkpt lat="47.29347" lon="-0.48212">
        <ele>83.2</ele>
        <time>2020-08-02T09:13:45Z</time>
      </trkpt>
      <trkpt lat="47.29345" lon="-0.48215">
        <ele>83.2</ele>
        <time>2020-08-02T09:13:46Z</time>
      </trkpt>
      <trkpt lat="47.29344" lon="-0.48218">
        <ele>83.2</ele>
        <time>2020-08-02T09:13:47Z</time>
      </trkpt>
      <trkpt lat="47.29343" lon="-0.48222">
        <ele>83.2</ele>
        <time>2020-08-02T09:13:48Z</time>
      </trkpt>
      <trkpt lat="47.2934" lon="-0.48228">
        <ele>83.2</ele>
        <time>2020-08-02T09:13:49Z</time>
      </trkpt>
      <trkpt lat="47.29337" lon="-0.48233">
        <ele>83.2</ele>
        <time>2020-08-02T09:13:50Z</time>
      </trkpt>
      <trkpt lat="47.29334" lon="-0.48244">
        <ele>83</ele>
        <time>2020-08-02T09:13:52Z</time>
      </trkpt>
      <trkpt lat="47.29332" lon="-0.48248">
        <ele>83.2</ele>
        <time>2020-08-02T09:13:53Z</time>
      </trkpt>
      <trkpt lat="47.29331" lon="-0.48251">
        <ele>83.2</ele>
        <time>2020-08-02T09:13:54Z</time>
      </trkpt>
      <trkpt lat="47.29329" lon="-0.48255">
        <ele>83.2</ele>
        <time>2020-08-02T09:13:55Z</time>
      </trkpt>
      <trkpt lat="47.29328" lon="-0.48259">
        <ele>83.2</ele>
        <time>2020-08-02T09:13:56Z</time>
      </trkpt>
      <trkpt lat="47.29326" lon="-0.48261">
        <ele>83.2</ele>
        <time>2020-08-02T09:13:57Z</time>
      </trkpt>
      <trkpt lat="47.29324" lon="-0.48265">
        <ele>83.2</ele>
        <time>2020-08-02T09:13:58Z</time>
      </trkpt>
      <trkpt lat="47.29323" lon="-0.48268">
        <ele>83.2</ele>
        <time>2020-08-02T09:13:59Z</time>
      </trkpt>
      <trkpt lat="47.29322" lon="-0.48273">
        <ele>83.2</ele>
        <time>2020-08-02T09:14:00Z</time>
      </trkpt>
      <trkpt lat="47.29318" lon="-0.4828">
        <ele>83.2</ele>
        <time>2020-08-02T09:14:02Z</time>
      </trkpt>
      <trkpt lat="47.29315" lon="-0.48284">
        <ele>83.2</ele>
        <time>2020-08-02T09:14:03Z</time>
      </trkpt>
      <trkpt lat="47.29313" lon="-0.48289">
        <ele>83.2</ele>
        <time>2020-08-02T09:14:04Z</time>
      </trkpt>
      <trkpt lat="47.29311" lon="-0.48293">
        <ele>83.2</ele>
        <time>2020-08-02T09:14:05Z</time>
      </trkpt>
      <trkpt lat="47.2931" lon="-0.48296">
        <ele>83.2</ele>
        <time>2020-08-02T09:14:06Z</time>
      </trkpt>
      <trkpt lat="47.29308" lon="-0.48303">
        <ele>83.2</ele>
        <time>2020-08-02T09:14:07Z</time>
      </trkpt>
      <trkpt lat="47.29306" lon="-0.48305">
        <ele>83.2</ele>
        <time>2020-08-02T09:14:08Z</time>
      </trkpt>
      <trkpt lat="47.29302" lon="-0.48309">
        <ele>83.2</ele>
        <time>2020-08-02T09:14:09Z</time>
      </trkpt>
      <trkpt lat="47.29295" lon="-0.4832">
        <ele>83.4</ele>
        <time>2020-08-02T09:14:10Z</time>
      </trkpt>
      <trkpt lat="47.29293" lon="-0.48324">
        <ele>83.4</ele>
        <time>2020-08-02T09:14:11Z</time>
      </trkpt>
      <trkpt lat="47.29293" lon="-0.48329">
        <ele>83.4</ele>
        <time>2020-08-02T09:14:12Z</time>
      </trkpt>
      <trkpt lat="47.29292" lon="-0.48333">
        <ele>83.4</ele>
        <time>2020-08-02T09:14:13Z</time>
      </trkpt>
      <trkpt lat="47.2929" lon="-0.4834">
        <ele>83.4</ele>
        <time>2020-08-02T09:14:14Z</time>
      </trkpt>
      <trkpt lat="47.29285" lon="-0.48357">
        <ele>83.4</ele>
        <time>2020-08-02T09:14:17Z</time>
      </trkpt>
      <trkpt lat="47.29284" lon="-0.48362">
        <ele>83.4</ele>
        <time>2020-08-02T09:14:18Z</time>
      </trkpt>
      <trkpt lat="47.29283" lon="-0.48365">
        <ele>83.4</ele>
        <time>2020-08-02T09:14:19Z</time>
      </trkpt>
      <trkpt lat="47.29283" lon="-0.48373">
        <ele>83.6</ele>
        <time>2020-08-02T09:14:21Z</time>
      </trkpt>
      <trkpt lat="47.29283" lon="-0.48376">
        <ele>83.6</ele>
        <time>2020-08-02T09:14:22Z</time>
      </trkpt>
      <trkpt lat="47.29282" lon="-0.48382">
        <ele>83.6</ele>
        <time>2020-08-02T09:14:23Z</time>
      </trkpt>
      <trkpt lat="47.29282" lon="-0.48386">
        <ele>83.6</ele>
        <time>2020-08-02T09:14:24Z</time>
      </trkpt>
      <trkpt lat="47.29281" lon="-0.48391">
        <ele>83.6</ele>
        <time>2020-08-02T09:14:25Z</time>
      </trkpt>
      <trkpt lat="47.29279" lon="-0.48396">
        <ele>83.4</ele>
        <time>2020-08-02T09:14:26Z</time>
      </trkpt>
      <trkpt lat="47.29279" lon="-0.48399">
        <ele>83.4</ele>
        <time>2020-08-02T09:14:27Z</time>
      </trkpt>
      <trkpt lat="47.29278" lon="-0.48404">
        <ele>83.4</ele>
        <time>2020-08-02T09:14:28Z</time>
      </trkpt>
      <trkpt lat="47.29277" lon="-0.48408">
        <ele>83.4</ele>
        <time>2020-08-02T09:14:29Z</time>
      </trkpt>
      <trkpt lat="47.29276" lon="-0.48414">
        <ele>83.4</ele>
        <time>2020-08-02T09:14:30Z</time>
      </trkpt>
      <trkpt lat="47.29275" lon="-0.48419">
        <ele>83.2</ele>
        <time>2020-08-02T09:14:31Z</time>
      </trkpt>
      <trkpt lat="47.29274" lon="-0.4843">
        <ele>83</ele>
        <time>2020-08-02T09:14:33Z</time>
      </trkpt>
      <trkpt lat="47.29273" lon="-0.48434">
        <ele>83</ele>
        <time>2020-08-02T09:14:34Z</time>
      </trkpt>
      <trkpt lat="47.29274" lon="-0.48436">
        <ele>83</ele>
        <time>2020-08-02T09:14:35Z</time>
      </trkpt>
      <trkpt lat="47.29272" lon="-0.48444">
        <ele>83</ele>
        <time>2020-08-02T09:14:36Z</time>
      </trkpt>
      <trkpt lat="47.29271" lon="-0.48449">
        <ele>83</ele>
        <time>2020-08-02T09:14:37Z</time>
      </trkpt>
      <trkpt lat="47.29269" lon="-0.48454">
        <ele>83</ele>
        <time>2020-08-02T09:14:38Z</time>
      </trkpt>
      <trkpt lat="47.29269" lon="-0.48459">
        <ele>83.2</ele>
        <time>2020-08-02T09:14:39Z</time>
      </trkpt>
      <trkpt lat="47.2927" lon="-0.48466">
        <ele>83.2</ele>
        <time>2020-08-02T09:14:40Z</time>
      </trkpt>
      <trkpt lat="47.2927" lon="-0.48471">
        <ele>83.2</ele>
        <time>2020-08-02T09:14:41Z</time>
      </trkpt>
      <trkpt lat="47.29271" lon="-0.48479">
        <ele>83.2</ele>
        <time>2020-08-02T09:14:42Z</time>
      </trkpt>
      <trkpt lat="47.29272" lon="-0.48486">
        <ele>83.2</ele>
        <time>2020-08-02T09:14:44Z</time>
      </trkpt>
      <trkpt lat="47.29272" lon="-0.48489">
        <ele>83.2</ele>
        <time>2020-08-02T09:14:45Z</time>
      </trkpt>
      <trkpt lat="47.29271" lon="-0.48497">
        <ele>83.2</ele>
        <time>2020-08-02T09:14:46Z</time>
      </trkpt>
      <trkpt lat="47.29269" lon="-0.48504">
        <ele>83.2</ele>
        <time>2020-08-02T09:14:47Z</time>
      </trkpt>
      <trkpt lat="47.29268" lon="-0.48509">
        <ele>83</ele>
        <time>2020-08-02T09:14:48Z</time>
      </trkpt>
      <trkpt lat="47.29268" lon="-0.48515">
        <ele>83</ele>
        <time>2020-08-02T09:14:49Z</time>
      </trkpt>
      <trkpt lat="47.29269" lon="-0.48519">
        <ele>83.2</ele>
        <time>2020-08-02T09:14:50Z</time>
      </trkpt>
      <trkpt lat="47.29271" lon="-0.48529">
        <ele>83</ele>
        <time>2020-08-02T09:14:52Z</time>
      </trkpt>
      <trkpt lat="47.29271" lon="-0.48536">
        <ele>83</ele>
        <time>2020-08-02T09:14:53Z</time>
      </trkpt>
      <trkpt lat="47.2927" lon="-0.48558">
        <ele>82.8</ele>
        <time>2020-08-02T09:14:56Z</time>
      </trkpt>
      <trkpt lat="47.29271" lon="-0.48564">
        <ele>82.8</ele>
        <time>2020-08-02T09:14:57Z</time>
      </trkpt>
      <trkpt lat="47.29273" lon="-0.48568">
        <ele>82.6</ele>
        <time>2020-08-02T09:14:58Z</time>
      </trkpt>
      <trkpt lat="47.29275" lon="-0.48572">
        <ele>82.6</ele>
        <time>2020-08-02T09:14:59Z</time>
      </trkpt>
      <trkpt lat="47.29276" lon="-0.48575">
        <ele>82.4</ele>
        <time>2020-08-02T09:15:00Z</time>
      </trkpt>
      <trkpt lat="47.29276" lon="-0.4858">
        <ele>82.2</ele>
        <time>2020-08-02T09:15:01Z</time>
      </trkpt>
      <trkpt lat="47.29275" lon="-0.48585">
        <ele>82.2</ele>
        <time>2020-08-02T09:15:02Z</time>
      </trkpt>
      <trkpt lat="47.29274" lon="-0.48589">
        <ele>82.2</ele>
        <time>2020-08-02T09:15:03Z</time>
      </trkpt>
      <trkpt lat="47.29272" lon="-0.48591">
        <ele>82.2</ele>
        <time>2020-08-02T09:15:04Z</time>
      </trkpt>
      <trkpt lat="47.29271" lon="-0.48592">
        <ele>82.2</ele>
        <time>2020-08-02T09:15:05Z</time>
      </trkpt>
      <trkpt lat="47.29269" lon="-0.48592">
        <ele>82.2</ele>
        <time>2020-08-02T09:15:06Z</time>
      </trkpt>
      <trkpt lat="47.29266" lon="-0.48593">
        <ele>82.2</ele>
        <time>2020-08-02T09:15:07Z</time>
      </trkpt>
      <trkpt lat="47.29263" lon="-0.48592">
        <ele>82.2</ele>
        <time>2020-08-02T09:15:08Z</time>
      </trkpt>
      <trkpt lat="47.29256" lon="-0.48591">
        <ele>82.2</ele>
        <time>2020-08-02T09:15:10Z</time>
      </trkpt>
      <trkpt lat="47.29247" lon="-0.4859">
        <ele>82.4</ele>
        <time>2020-08-02T09:15:12Z</time>
      </trkpt>
      <trkpt lat="47.29239" lon="-0.48589">
        <ele>82.4</ele>
        <time>2020-08-02T09:15:14Z</time>
      </trkpt>
      <trkpt lat="47.29236" lon="-0.48589">
        <ele>82.4</ele>
        <time>2020-08-02T09:15:15Z</time>
      </trkpt>
      <trkpt lat="47.29224" lon="-0.48588">
        <ele>82.4</ele>
        <time>2020-08-02T09:15:18Z</time>
      </trkpt>
      <trkpt lat="47.29204" lon="-0.48587">
        <ele>82.4</ele>
        <time>2020-08-02T09:15:23Z</time>
      </trkpt>
      <trkpt lat="47.29201" lon="-0.48586">
        <ele>82.2</ele>
        <time>2020-08-02T09:15:24Z</time>
      </trkpt>
      <trkpt lat="47.29196" lon="-0.48585">
        <ele>82.2</ele>
        <time>2020-08-02T09:15:25Z</time>
      </trkpt>
      <trkpt lat="47.29193" lon="-0.48584">
        <ele>82.2</ele>
        <time>2020-08-02T09:15:26Z</time>
      </trkpt>
      <trkpt lat="47.2919" lon="-0.48583">
        <ele>82.2</ele>
        <time>2020-08-02T09:15:27Z</time>
      </trkpt>
      <trkpt lat="47.29186" lon="-0.48582">
        <ele>82.2</ele>
        <time>2020-08-02T09:15:28Z</time>
      </trkpt>
      <trkpt lat="47.29182" lon="-0.48581">
        <ele>82.2</ele>
        <time>2020-08-02T09:15:29Z</time>
      </trkpt>
      <trkpt lat="47.29178" lon="-0.48579">
        <ele>82.2</ele>
        <time>2020-08-02T09:15:30Z</time>
      </trkpt>
      <trkpt lat="47.29174" lon="-0.48577">
        <ele>82.2</ele>
        <time>2020-08-02T09:15:31Z</time>
      </trkpt>
      <trkpt lat="47.2917" lon="-0.48574">
        <ele>82.2</ele>
        <time>2020-08-02T09:15:32Z</time>
      </trkpt>
      <trkpt lat="47.29167" lon="-0.48572">
        <ele>82.2</ele>
        <time>2020-08-02T09:15:33Z</time>
      </trkpt>
      <trkpt lat="47.29158" lon="-0.48567">
        <ele>82.2</ele>
        <time>2020-08-02T09:15:35Z</time>
      </trkpt>
      <trkpt lat="47.29153" lon="-0.48566">
        <ele>82</ele>
        <time>2020-08-02T09:15:36Z</time>
      </trkpt>
      <trkpt lat="47.29149" lon="-0.48566">
        <ele>82</ele>
        <time>2020-08-02T09:15:37Z</time>
      </trkpt>
      <trkpt lat="47.29145" lon="-0.48566">
        <ele>82</ele>
        <time>2020-08-02T09:15:38Z</time>
      </trkpt>
      <trkpt lat="47.2914" lon="-0.48567">
        <ele>81.8</ele>
        <time>2020-08-02T09:15:39Z</time>
      </trkpt>
      <trkpt lat="47.29136" lon="-0.48568">
        <ele>81.8</ele>
        <time>2020-08-02T09:15:40Z</time>
      </trkpt>
      <trkpt lat="47.2911" lon="-0.48572">
        <ele>81.8</ele>
        <time>2020-08-02T09:15:46Z</time>
      </trkpt>
      <trkpt lat="47.29062" lon="-0.48579">
        <ele>82.2</ele>
        <time>2020-08-02T09:15:56Z</time>
      </trkpt>
      <trkpt lat="47.29048" lon="-0.48578">
        <ele>82.4</ele>
        <time>2020-08-02T09:15:59Z</time>
      </trkpt>
      <trkpt lat="47.29044" lon="-0.48577">
        <ele>82.4</ele>
        <time>2020-08-02T09:16:00Z</time>
      </trkpt>
      <trkpt lat="47.2904" lon="-0.48573">
        <ele>82.4</ele>
        <time>2020-08-02T09:16:01Z</time>
      </trkpt>
      <trkpt lat="47.29036" lon="-0.48569">
        <ele>82.4</ele>
        <time>2020-08-02T09:16:02Z</time>
      </trkpt>
      <trkpt lat="47.29032" lon="-0.48564">
        <ele>82.4</ele>
        <time>2020-08-02T09:16:03Z</time>
      </trkpt>
      <trkpt lat="47.29025" lon="-0.48554">
        <ele>82.4</ele>
        <time>2020-08-02T09:16:05Z</time>
      </trkpt>
      <trkpt lat="47.29022" lon="-0.48548">
        <ele>82.4</ele>
        <time>2020-08-02T09:16:06Z</time>
      </trkpt>
      <trkpt lat="47.28998" lon="-0.48495">
        <ele>83</ele>
        <time>2020-08-02T09:16:15Z</time>
      </trkpt>
      <trkpt lat="47.28995" lon="-0.48489">
        <ele>83</ele>
        <time>2020-08-02T09:16:16Z</time>
      </trkpt>
      <trkpt lat="47.28992" lon="-0.48483">
        <ele>83</ele>
        <time>2020-08-02T09:16:17Z</time>
      </trkpt>
      <trkpt lat="47.28964" lon="-0.48422">
        <ele>83.4</ele>
        <time>2020-08-02T09:16:27Z</time>
      </trkpt>
      <trkpt lat="47.28949" lon="-0.4839">
        <ele>83.4</ele>
        <time>2020-08-02T09:16:32Z</time>
      </trkpt>
      <trkpt lat="47.28944" lon="-0.48378">
        <ele>83.6</ele>
        <time>2020-08-02T09:16:34Z</time>
      </trkpt>
      <trkpt lat="47.28938" lon="-0.48366">
        <ele>83.4</ele>
        <time>2020-08-02T09:16:36Z</time>
      </trkpt>
      <trkpt lat="47.28936" lon="-0.48361">
        <ele>83.4</ele>
        <time>2020-08-02T09:16:37Z</time>
      </trkpt>
      <trkpt lat="47.28933" lon="-0.48357">
        <ele>83.6</ele>
        <time>2020-08-02T09:16:38Z</time>
      </trkpt>
      <trkpt lat="47.28929" lon="-0.48353">
        <ele>83.6</ele>
        <time>2020-08-02T09:16:39Z</time>
      </trkpt>
      <trkpt lat="47.28926" lon="-0.48352">
        <ele>83.8</ele>
        <time>2020-08-02T09:16:40Z</time>
      </trkpt>
      <trkpt lat="47.28922" lon="-0.48354">
        <ele>83.8</ele>
        <time>2020-08-02T09:16:41Z</time>
      </trkpt>
      <trkpt lat="47.28918" lon="-0.48356">
        <ele>83.8</ele>
        <time>2020-08-02T09:16:42Z</time>
      </trkpt>
      <trkpt lat="47.28913" lon="-0.48359">
        <ele>84</ele>
        <time>2020-08-02T09:16:43Z</time>
      </trkpt>
      <trkpt lat="47.28909" lon="-0.48362">
        <ele>84</ele>
        <time>2020-08-02T09:16:44Z</time>
      </trkpt>
      <trkpt lat="47.28861" lon="-0.48389">
        <ele>84.4</ele>
        <time>2020-08-02T09:16:54Z</time>
      </trkpt>
      <trkpt lat="47.28835" lon="-0.48404">
        <ele>85</ele>
        <time>2020-08-02T09:17:00Z</time>
      </trkpt>
      <trkpt lat="47.28821" lon="-0.48412">
        <ele>85.2</ele>
        <time>2020-08-02T09:17:03Z</time>
      </trkpt>
      <trkpt lat="47.28816" lon="-0.48415">
        <ele>85.4</ele>
        <time>2020-08-02T09:17:04Z</time>
      </trkpt>
      <trkpt lat="47.28811" lon="-0.48417">
        <ele>85.4</ele>
        <time>2020-08-02T09:17:05Z</time>
      </trkpt>
      <trkpt lat="47.28807" lon="-0.4842">
        <ele>85.6</ele>
        <time>2020-08-02T09:17:06Z</time>
      </trkpt>
      <trkpt lat="47.28803" lon="-0.48423">
        <ele>85.6</ele>
        <time>2020-08-02T09:17:07Z</time>
      </trkpt>
      <trkpt lat="47.28799" lon="-0.48427">
        <ele>85.6</ele>
        <time>2020-08-02T09:17:08Z</time>
      </trkpt>
      <trkpt lat="47.28795" lon="-0.4843">
        <ele>85.6</ele>
        <time>2020-08-02T09:17:09Z</time>
      </trkpt>
      <trkpt lat="47.28791" lon="-0.48434">
        <ele>85.8</ele>
        <time>2020-08-02T09:17:10Z</time>
      </trkpt>
      <trkpt lat="47.28788" lon="-0.48438">
        <ele>85.8</ele>
        <time>2020-08-02T09:17:11Z</time>
      </trkpt>
      <trkpt lat="47.28784" lon="-0.48442">
        <ele>86</ele>
        <time>2020-08-02T09:17:12Z</time>
      </trkpt>
      <trkpt lat="47.2878" lon="-0.48446">
        <ele>86.2</ele>
        <time>2020-08-02T09:17:13Z</time>
      </trkpt>
      <trkpt lat="47.28777" lon="-0.4845">
        <ele>86.4</ele>
        <time>2020-08-02T09:17:14Z</time>
      </trkpt>
      <trkpt lat="47.28773" lon="-0.48455">
        <ele>86.6</ele>
        <time>2020-08-02T09:17:15Z</time>
      </trkpt>
      <trkpt lat="47.28769" lon="-0.48459">
        <ele>86.8</ele>
        <time>2020-08-02T09:17:16Z</time>
      </trkpt>
      <trkpt lat="47.28765" lon="-0.48463">
        <ele>86.8</ele>
        <time>2020-08-02T09:17:17Z</time>
      </trkpt>
      <trkpt lat="47.28762" lon="-0.48468">
        <ele>86.8</ele>
        <time>2020-08-02T09:17:18Z</time>
      </trkpt>
      <trkpt lat="47.28758" lon="-0.48473">
        <ele>86.8</ele>
        <time>2020-08-02T09:17:19Z</time>
      </trkpt>
      <trkpt lat="47.28754" lon="-0.48477">
        <ele>86.8</ele>
        <time>2020-08-02T09:17:20Z</time>
      </trkpt>
      <trkpt lat="47.28751" lon="-0.48482">
        <ele>86.8</ele>
        <time>2020-08-02T09:17:21Z</time>
      </trkpt>
      <trkpt lat="47.28721" lon="-0.48519">
        <ele>87.2</ele>
        <time>2020-08-02T09:17:29Z</time>
      </trkpt>
      <trkpt lat="47.28705" lon="-0.48538">
        <ele>87.6</ele>
        <time>2020-08-02T09:17:33Z</time>
      </trkpt>
      <trkpt lat="47.28694" lon="-0.48552">
        <ele>87.6</ele>
        <time>2020-08-02T09:17:36Z</time>
      </trkpt>
      <trkpt lat="47.2869" lon="-0.48557">
        <ele>87.6</ele>
        <time>2020-08-02T09:17:37Z</time>
      </trkpt>
      <trkpt lat="47.28687" lon="-0.48563">
        <ele>87.6</ele>
        <time>2020-08-02T09:17:38Z</time>
      </trkpt>
      <trkpt lat="47.28683" lon="-0.48568">
        <ele>87.6</ele>
        <time>2020-08-02T09:17:39Z</time>
      </trkpt>
      <trkpt lat="47.28679" lon="-0.48573">
        <ele>87.8</ele>
        <time>2020-08-02T09:17:40Z</time>
      </trkpt>
      <trkpt lat="47.28677" lon="-0.48577">
        <ele>87.8</ele>
        <time>2020-08-02T09:17:41Z</time>
      </trkpt>
      <trkpt lat="47.28674" lon="-0.48582">
        <ele>87.8</ele>
        <time>2020-08-02T09:17:42Z</time>
      </trkpt>
      <trkpt lat="47.2867" lon="-0.48587">
        <ele>88</ele>
        <time>2020-08-02T09:17:43Z</time>
      </trkpt>
      <trkpt lat="47.28667" lon="-0.48592">
        <ele>88</ele>
        <time>2020-08-02T09:17:44Z</time>
      </trkpt>
      <trkpt lat="47.28664" lon="-0.48596">
        <ele>88</ele>
        <time>2020-08-02T09:17:45Z</time>
      </trkpt>
      <trkpt lat="47.28661" lon="-0.48602">
        <ele>88.2</ele>
        <time>2020-08-02T09:17:46Z</time>
      </trkpt>
      <trkpt lat="47.28658" lon="-0.48607">
        <ele>88.2</ele>
        <time>2020-08-02T09:17:47Z</time>
      </trkpt>
      <trkpt lat="47.28655" lon="-0.48612">
        <ele>88.4</ele>
        <time>2020-08-02T09:17:48Z</time>
      </trkpt>
      <trkpt lat="47.28652" lon="-0.48616">
        <ele>88.4</ele>
        <time>2020-08-02T09:17:49Z</time>
      </trkpt>
      <trkpt lat="47.2865" lon="-0.48621">
        <ele>88.4</ele>
        <time>2020-08-02T09:17:50Z</time>
      </trkpt>
      <trkpt lat="47.28647" lon="-0.48625">
        <ele>88.4</ele>
        <time>2020-08-02T09:17:51Z</time>
      </trkpt>
      <trkpt lat="47.28644" lon="-0.4863">
        <ele>88.4</ele>
        <time>2020-08-02T09:17:52Z</time>
      </trkpt>
      <trkpt lat="47.28642" lon="-0.48634">
        <ele>88.4</ele>
        <time>2020-08-02T09:17:53Z</time>
      </trkpt>
      <trkpt lat="47.28638" lon="-0.48638">
        <ele>88.4</ele>
        <time>2020-08-02T09:17:54Z</time>
      </trkpt>
      <trkpt lat="47.28637" lon="-0.48641">
        <ele>88.4</ele>
        <time>2020-08-02T09:17:55Z</time>
      </trkpt>
      <trkpt lat="47.28635" lon="-0.48645">
        <ele>88.4</ele>
        <time>2020-08-02T09:17:56Z</time>
      </trkpt>
      <trkpt lat="47.28633" lon="-0.48648">
        <ele>88.4</ele>
        <time>2020-08-02T09:17:57Z</time>
      </trkpt>
      <trkpt lat="47.28632" lon="-0.48651">
        <ele>88.6</ele>
        <time>2020-08-02T09:17:58Z</time>
      </trkpt>
      <trkpt lat="47.2863" lon="-0.48654">
        <ele>88.6</ele>
        <time>2020-08-02T09:17:59Z</time>
      </trkpt>
      <trkpt lat="47.28629" lon="-0.48656">
        <ele>88.6</ele>
        <time>2020-08-02T09:18:00Z</time>
      </trkpt>
      <trkpt lat="47.28627" lon="-0.48658">
        <ele>88.6</ele>
        <time>2020-08-02T09:18:01Z</time>
      </trkpt>
      <trkpt lat="47.28626" lon="-0.48661">
        <ele>88.6</ele>
        <time>2020-08-02T09:18:02Z</time>
      </trkpt>
      <trkpt lat="47.28623" lon="-0.48665">
        <ele>88.4</ele>
        <time>2020-08-02T09:18:04Z</time>
      </trkpt>
      <trkpt lat="47.28621" lon="-0.48667">
        <ele>88.4</ele>
        <time>2020-08-02T09:18:05Z</time>
      </trkpt>
      <trkpt lat="47.28621" lon="-0.48668">
        <ele>88.4</ele>
        <time>2020-08-02T09:18:06Z</time>
      </trkpt>
      <trkpt lat="47.2862" lon="-0.4867">
        <ele>88.4</ele>
        <time>2020-08-02T09:18:07Z</time>
      </trkpt>
      <trkpt lat="47.28618" lon="-0.48671">
        <ele>88.4</ele>
        <time>2020-08-02T09:18:08Z</time>
      </trkpt>
      <trkpt lat="47.28617" lon="-0.48673">
        <ele>88.4</ele>
        <time>2020-08-02T09:18:09Z</time>
      </trkpt>
      <trkpt lat="47.28616" lon="-0.48675">
        <ele>88.4</ele>
        <time>2020-08-02T09:18:11Z</time>
      </trkpt>
      <trkpt lat="47.28614" lon="-0.48677">
        <ele>88.6</ele>
        <time>2020-08-02T09:18:12Z</time>
      </trkpt>
      <trkpt lat="47.28613" lon="-0.48679">
        <ele>88.6</ele>
        <time>2020-08-02T09:18:13Z</time>
      </trkpt>
      <trkpt lat="47.28612" lon="-0.48681">
        <ele>88.6</ele>
        <time>2020-08-02T09:18:14Z</time>
      </trkpt>
      <trkpt lat="47.28611" lon="-0.48682">
        <ele>88.6</ele>
        <time>2020-08-02T09:18:15Z</time>
      </trkpt>
      <trkpt lat="47.2861" lon="-0.48684">
        <ele>88.6</ele>
        <time>2020-08-02T09:18:16Z</time>
      </trkpt>
      <trkpt lat="47.28609" lon="-0.48686">
        <ele>88.6</ele>
        <time>2020-08-02T09:18:17Z</time>
      </trkpt>
      <trkpt lat="47.28608" lon="-0.48688">
        <ele>88.6</ele>
        <time>2020-08-02T09:18:18Z</time>
      </trkpt>
      <trkpt lat="47.28605" lon="-0.48692">
        <ele>88.6</ele>
        <time>2020-08-02T09:18:20Z</time>
      </trkpt>
      <trkpt lat="47.28603" lon="-0.48695">
        <ele>88.6</ele>
        <time>2020-08-02T09:18:22Z</time>
      </trkpt>
      <trkpt lat="47.28602" lon="-0.48696">
        <ele>88.6</ele>
        <time>2020-08-02T09:18:23Z</time>
      </trkpt>
      <trkpt lat="47.28592" lon="-0.48713">
        <ele>88.6</ele>
        <time>2020-08-02T09:18:29Z</time>
      </trkpt>
      <trkpt lat="47.28589" lon="-0.48719">
        <ele>88.6</ele>
        <time>2020-08-02T09:18:31Z</time>
      </trkpt>
      <trkpt lat="47.28587" lon="-0.48721">
        <ele>88.6</ele>
        <time>2020-08-02T09:18:32Z</time>
      </trkpt>
      <trkpt lat="47.28575" lon="-0.48738">
        <ele>88.8</ele>
        <time>2020-08-02T09:18:37Z</time>
      </trkpt>
      <trkpt lat="47.28563" lon="-0.48754">
        <ele>88.8</ele>
        <time>2020-08-02T09:18:42Z</time>
      </trkpt>
      <trkpt lat="47.2856" lon="-0.48758">
        <ele>88.8</ele>
        <time>2020-08-02T09:18:43Z</time>
      </trkpt>
      <trkpt lat="47.28554" lon="-0.48765">
        <ele>89</ele>
        <time>2020-08-02T09:18:45Z</time>
      </trkpt>
      <trkpt lat="47.28543" lon="-0.4878">
        <ele>89</ele>
        <time>2020-08-02T09:18:49Z</time>
      </trkpt>
      <trkpt lat="47.28529" lon="-0.488">
        <ele>89.2</ele>
        <time>2020-08-02T09:18:54Z</time>
      </trkpt>
      <trkpt lat="47.28524" lon="-0.48807">
        <ele>89.2</ele>
        <time>2020-08-02T09:18:56Z</time>
      </trkpt>
      <trkpt lat="47.28508" lon="-0.48835">
        <ele>89</ele>
        <time>2020-08-02T09:19:02Z</time>
      </trkpt>
      <trkpt lat="47.28502" lon="-0.48848">
        <ele>88.8</ele>
        <time>2020-08-02T09:19:05Z</time>
      </trkpt>
      <trkpt lat="47.28491" lon="-0.48876">
        <ele>88.8</ele>
        <time>2020-08-02T09:19:10Z</time>
      </trkpt>
      <trkpt lat="47.28487" lon="-0.48885">
        <ele>88.8</ele>
        <time>2020-08-02T09:19:12Z</time>
      </trkpt>
      <trkpt lat="47.28485" lon="-0.48889">
        <ele>88.8</ele>
        <time>2020-08-02T09:19:13Z</time>
      </trkpt>
      <trkpt lat="47.28482" lon="-0.48894">
        <ele>88.8</ele>
        <time>2020-08-02T09:19:14Z</time>
      </trkpt>
      <trkpt lat="47.28479" lon="-0.489">
        <ele>89</ele>
        <time>2020-08-02T09:19:15Z</time>
      </trkpt>
      <trkpt lat="47.28476" lon="-0.48905">
        <ele>89.2</ele>
        <time>2020-08-02T09:19:16Z</time>
      </trkpt>
      <trkpt lat="47.28473" lon="-0.48909">
        <ele>89.4</ele>
        <time>2020-08-02T09:19:17Z</time>
      </trkpt>
      <trkpt lat="47.28468" lon="-0.48917">
        <ele>89.6</ele>
        <time>2020-08-02T09:19:19Z</time>
      </trkpt>
      <trkpt lat="47.28461" lon="-0.48924">
        <ele>89.6</ele>
        <time>2020-08-02T09:19:21Z</time>
      </trkpt>
      <trkpt lat="47.28459" lon="-0.48927">
        <ele>89.6</ele>
        <time>2020-08-02T09:19:22Z</time>
      </trkpt>
      <trkpt lat="47.28456" lon="-0.4893">
        <ele>89.8</ele>
        <time>2020-08-02T09:19:23Z</time>
      </trkpt>
      <trkpt lat="47.28452" lon="-0.48934">
        <ele>89.8</ele>
        <time>2020-08-02T09:19:24Z</time>
      </trkpt>
      <trkpt lat="47.28449" lon="-0.48937">
        <ele>89.8</ele>
        <time>2020-08-02T09:19:25Z</time>
      </trkpt>
      <trkpt lat="47.28446" lon="-0.4894">
        <ele>89.8</ele>
        <time>2020-08-02T09:19:26Z</time>
      </trkpt>
      <trkpt lat="47.28439" lon="-0.48945">
        <ele>89.8</ele>
        <time>2020-08-02T09:19:28Z</time>
      </trkpt>
      <trkpt lat="47.28436" lon="-0.48948">
        <ele>89.8</ele>
        <time>2020-08-02T09:19:29Z</time>
      </trkpt>
      <trkpt lat="47.28432" lon="-0.48951">
        <ele>89.8</ele>
        <time>2020-08-02T09:19:30Z</time>
      </trkpt>
      <trkpt lat="47.28429" lon="-0.48954">
        <ele>89.8</ele>
        <time>2020-08-02T09:19:31Z</time>
      </trkpt>
      <trkpt lat="47.28426" lon="-0.48956">
        <ele>89.8</ele>
        <time>2020-08-02T09:19:32Z</time>
      </trkpt>
      <trkpt lat="47.28421" lon="-0.4896">
        <ele>89.8</ele>
        <time>2020-08-02T09:19:33Z</time>
      </trkpt>
      <trkpt lat="47.28403" lon="-0.48975">
        <ele>89.8</ele>
        <time>2020-08-02T09:19:38Z</time>
      </trkpt>
      <trkpt lat="47.28386" lon="-0.48987">
        <ele>90</ele>
        <time>2020-08-02T09:19:43Z</time>
      </trkpt>
      <trkpt lat="47.28384" lon="-0.48989">
        <ele>90.2</ele>
        <time>2020-08-02T09:19:44Z</time>
      </trkpt>
      <trkpt lat="47.28382" lon="-0.48991">
        <ele>90.2</ele>
        <time>2020-08-02T09:19:45Z</time>
      </trkpt>
      <trkpt lat="47.28379" lon="-0.48992">
        <ele>90.2</ele>
        <time>2020-08-02T09:19:46Z</time>
      </trkpt>
      <trkpt lat="47.28377" lon="-0.48992">
        <ele>90.2</ele>
        <time>2020-08-02T09:19:47Z</time>
      </trkpt>
      <trkpt lat="47.28374" lon="-0.4899">
        <ele>90.4</ele>
        <time>2020-08-02T09:19:48Z</time>
      </trkpt>
      <trkpt lat="47.28372" lon="-0.48987">
        <ele>90.4</ele>
        <time>2020-08-02T09:19:49Z</time>
      </trkpt>
      <trkpt lat="47.28371" lon="-0.48984">
        <ele>90.4</ele>
        <time>2020-08-02T09:19:50Z</time>
      </trkpt>
      <trkpt lat="47.28369" lon="-0.4898">
        <ele>90.4</ele>
        <time>2020-08-02T09:19:51Z</time>
      </trkpt>
      <trkpt lat="47.28367" lon="-0.48971">
        <ele>90.4</ele>
        <time>2020-08-02T09:19:53Z</time>
      </trkpt>
      <trkpt lat="47.28367" lon="-0.48967">
        <ele>90.4</ele>
        <time>2020-08-02T09:19:54Z</time>
      </trkpt>
      <trkpt lat="47.28365" lon="-0.48964">
        <ele>90.4</ele>
        <time>2020-08-02T09:19:55Z</time>
      </trkpt>
      <trkpt lat="47.28364" lon="-0.4896">
        <ele>90.4</ele>
        <time>2020-08-02T09:19:56Z</time>
      </trkpt>
      <trkpt lat="47.28362" lon="-0.48956">
        <ele>90.4</ele>
        <time>2020-08-02T09:19:57Z</time>
      </trkpt>
      <trkpt lat="47.28361" lon="-0.48952">
        <ele>90.4</ele>
        <time>2020-08-02T09:19:58Z</time>
      </trkpt>
      <trkpt lat="47.28359" lon="-0.48949">
        <ele>90.4</ele>
        <time>2020-08-02T09:19:59Z</time>
      </trkpt>
      <trkpt lat="47.28358" lon="-0.48945">
        <ele>90.4</ele>
        <time>2020-08-02T09:20:00Z</time>
      </trkpt>
      <trkpt lat="47.28356" lon="-0.48941">
        <ele>90.4</ele>
        <time>2020-08-02T09:20:01Z</time>
      </trkpt>
      <trkpt lat="47.28353" lon="-0.48935">
        <ele>90.4</ele>
        <time>2020-08-02T09:20:02Z</time>
      </trkpt>
      <trkpt lat="47.28351" lon="-0.4893">
        <ele>90.4</ele>
        <time>2020-08-02T09:20:03Z</time>
      </trkpt>
      <trkpt lat="47.28349" lon="-0.48926">
        <ele>90.4</ele>
        <time>2020-08-02T09:20:04Z</time>
      </trkpt>
      <trkpt lat="47.28347" lon="-0.48921">
        <ele>90.4</ele>
        <time>2020-08-02T09:20:05Z</time>
      </trkpt>
      <trkpt lat="47.28335" lon="-0.48899">
        <ele>90.2</ele>
        <time>2020-08-02T09:20:09Z</time>
      </trkpt>
      <trkpt lat="47.28308" lon="-0.4885">
        <ele>90.2</ele>
        <time>2020-08-02T09:20:18Z</time>
      </trkpt>
      <trkpt lat="47.28298" lon="-0.48832">
        <ele>90</ele>
        <time>2020-08-02T09:20:21Z</time>
      </trkpt>
      <trkpt lat="47.28292" lon="-0.48823">
        <ele>90</ele>
        <time>2020-08-02T09:20:23Z</time>
      </trkpt>
      <trkpt lat="47.28289" lon="-0.48818">
        <ele>90</ele>
        <time>2020-08-02T09:20:24Z</time>
      </trkpt>
      <trkpt lat="47.28286" lon="-0.48813">
        <ele>90</ele>
        <time>2020-08-02T09:20:25Z</time>
      </trkpt>
      <trkpt lat="47.28282" lon="-0.48807">
        <ele>90</ele>
        <time>2020-08-02T09:20:26Z</time>
      </trkpt>
      <trkpt lat="47.2828" lon="-0.48802">
        <ele>90</ele>
        <time>2020-08-02T09:20:27Z</time>
      </trkpt>
      <trkpt lat="47.28277" lon="-0.48798">
        <ele>90</ele>
        <time>2020-08-02T09:20:28Z</time>
      </trkpt>
      <trkpt lat="47.28274" lon="-0.48792">
        <ele>90</ele>
        <time>2020-08-02T09:20:29Z</time>
      </trkpt>
      <trkpt lat="47.2827" lon="-0.48786">
        <ele>90</ele>
        <time>2020-08-02T09:20:30Z</time>
      </trkpt>
      <trkpt lat="47.28268" lon="-0.48782">
        <ele>90</ele>
        <time>2020-08-02T09:20:31Z</time>
      </trkpt>
      <trkpt lat="47.28261" lon="-0.48769">
        <ele>89.6</ele>
        <time>2020-08-02T09:20:33Z</time>
      </trkpt>
      <trkpt lat="47.28235" lon="-0.48723">
        <ele>89.6</ele>
        <time>2020-08-02T09:20:41Z</time>
      </trkpt>
      <trkpt lat="47.28224" lon="-0.48698">
        <ele>89.4</ele>
        <time>2020-08-02T09:20:45Z</time>
      </trkpt>
      <trkpt lat="47.28221" lon="-0.48692">
        <ele>89.4</ele>
        <time>2020-08-02T09:20:46Z</time>
      </trkpt>
      <trkpt lat="47.28218" lon="-0.48686">
        <ele>89.4</ele>
        <time>2020-08-02T09:20:47Z</time>
      </trkpt>
      <trkpt lat="47.28215" lon="-0.48678">
        <ele>89.4</ele>
        <time>2020-08-02T09:20:48Z</time>
      </trkpt>
      <trkpt lat="47.28212" lon="-0.48672">
        <ele>89.6</ele>
        <time>2020-08-02T09:20:49Z</time>
      </trkpt>
      <trkpt lat="47.28211" lon="-0.48666">
        <ele>89.6</ele>
        <time>2020-08-02T09:20:50Z</time>
      </trkpt>
      <trkpt lat="47.28208" lon="-0.4866">
        <ele>89.6</ele>
        <time>2020-08-02T09:20:51Z</time>
      </trkpt>
      <trkpt lat="47.28205" lon="-0.48652">
        <ele>89.4</ele>
        <time>2020-08-02T09:20:52Z</time>
      </trkpt>
      <trkpt lat="47.28202" lon="-0.48646">
        <ele>89.4</ele>
        <time>2020-08-02T09:20:53Z</time>
      </trkpt>
      <trkpt lat="47.282" lon="-0.48641">
        <ele>89.4</ele>
        <time>2020-08-02T09:20:54Z</time>
      </trkpt>
      <trkpt lat="47.28197" lon="-0.48634">
        <ele>89.4</ele>
        <time>2020-08-02T09:20:55Z</time>
      </trkpt>
      <trkpt lat="47.28192" lon="-0.48621">
        <ele>89.6</ele>
        <time>2020-08-02T09:20:57Z</time>
      </trkpt>
      <trkpt lat="47.28189" lon="-0.48614">
        <ele>89.6</ele>
        <time>2020-08-02T09:20:58Z</time>
      </trkpt>
      <trkpt lat="47.28168" lon="-0.48562">
        <ele>89.4</ele>
        <time>2020-08-02T09:21:06Z</time>
      </trkpt>
      <trkpt lat="47.28139" lon="-0.48501">
        <ele>89.2</ele>
        <time>2020-08-02T09:21:15Z</time>
      </trkpt>
      <trkpt lat="47.28114" lon="-0.48448">
        <ele>89.2</ele>
        <time>2020-08-02T09:21:23Z</time>
      </trkpt>
      <trkpt lat="47.28107" lon="-0.48434">
        <ele>89.2</ele>
        <time>2020-08-02T09:21:25Z</time>
      </trkpt>
      <trkpt lat="47.28105" lon="-0.48429">
        <ele>89.4</ele>
        <time>2020-08-02T09:21:26Z</time>
      </trkpt>
      <trkpt lat="47.28102" lon="-0.48422">
        <ele>89.4</ele>
        <time>2020-08-02T09:21:27Z</time>
      </trkpt>
      <trkpt lat="47.28098" lon="-0.48416">
        <ele>89.2</ele>
        <time>2020-08-02T09:21:28Z</time>
      </trkpt>
      <trkpt lat="47.28095" lon="-0.48409">
        <ele>89.2</ele>
        <time>2020-08-02T09:21:29Z</time>
      </trkpt>
      <trkpt lat="47.28091" lon="-0.48401">
        <ele>89.2</ele>
        <time>2020-08-02T09:21:30Z</time>
      </trkpt>
      <trkpt lat="47.28089" lon="-0.48396">
        <ele>89.2</ele>
        <time>2020-08-02T09:21:31Z</time>
      </trkpt>
      <trkpt lat="47.28086" lon="-0.4839">
        <ele>89.4</ele>
        <time>2020-08-02T09:21:32Z</time>
      </trkpt>
      <trkpt lat="47.28082" lon="-0.48384">
        <ele>89.4</ele>
        <time>2020-08-02T09:21:33Z</time>
      </trkpt>
      <trkpt lat="47.28079" lon="-0.48379">
        <ele>89.4</ele>
        <time>2020-08-02T09:21:34Z</time>
      </trkpt>
      <trkpt lat="47.28074" lon="-0.48373">
        <ele>89.4</ele>
        <time>2020-08-02T09:21:35Z</time>
      </trkpt>
      <trkpt lat="47.28071" lon="-0.4837">
        <ele>89.4</ele>
        <time>2020-08-02T09:21:36Z</time>
      </trkpt>
      <trkpt lat="47.28067" lon="-0.48366">
        <ele>89.6</ele>
        <time>2020-08-02T09:21:37Z</time>
      </trkpt>
      <trkpt lat="47.28062" lon="-0.48364">
        <ele>89.6</ele>
        <time>2020-08-02T09:21:38Z</time>
      </trkpt>
      <trkpt lat="47.28057" lon="-0.48364">
        <ele>89.6</ele>
        <time>2020-08-02T09:21:39Z</time>
      </trkpt>
      <trkpt lat="47.28053" lon="-0.48364">
        <ele>89.8</ele>
        <time>2020-08-02T09:21:40Z</time>
      </trkpt>
      <trkpt lat="47.28049" lon="-0.48366">
        <ele>89.8</ele>
        <time>2020-08-02T09:21:41Z</time>
      </trkpt>
      <trkpt lat="47.28043" lon="-0.48368">
        <ele>89.8</ele>
        <time>2020-08-02T09:21:42Z</time>
      </trkpt>
      <trkpt lat="47.2804" lon="-0.4837">
        <ele>89.8</ele>
        <time>2020-08-02T09:21:43Z</time>
      </trkpt>
      <trkpt lat="47.28035" lon="-0.48373">
        <ele>89.8</ele>
        <time>2020-08-02T09:21:44Z</time>
      </trkpt>
      <trkpt lat="47.28031" lon="-0.48375">
        <ele>89.8</ele>
        <time>2020-08-02T09:21:45Z</time>
      </trkpt>
      <trkpt lat="47.28027" lon="-0.48377">
        <ele>89.8</ele>
        <time>2020-08-02T09:21:46Z</time>
      </trkpt>
      <trkpt lat="47.28023" lon="-0.4838">
        <ele>89.8</ele>
        <time>2020-08-02T09:21:47Z</time>
      </trkpt>
      <trkpt lat="47.28018" lon="-0.48383">
        <ele>89.8</ele>
        <time>2020-08-02T09:21:48Z</time>
      </trkpt>
      <trkpt lat="47.28014" lon="-0.48385">
        <ele>89.8</ele>
        <time>2020-08-02T09:21:49Z</time>
      </trkpt>
      <trkpt lat="47.28009" lon="-0.48388">
        <ele>89.8</ele>
        <time>2020-08-02T09:21:50Z</time>
      </trkpt>
      <trkpt lat="47.2798" lon="-0.48408">
        <ele>89.6</ele>
        <time>2020-08-02T09:21:56Z</time>
      </trkpt>
      <trkpt lat="47.27949" lon="-0.4843">
        <ele>88.8</ele>
        <time>2020-08-02T09:22:03Z</time>
      </trkpt>
      <trkpt lat="47.27944" lon="-0.48433">
        <ele>88.6</ele>
        <time>2020-08-02T09:22:04Z</time>
      </trkpt>
      <trkpt lat="47.27938" lon="-0.48437">
        <ele>88.6</ele>
        <time>2020-08-02T09:22:05Z</time>
      </trkpt>
      <trkpt lat="47.27899" lon="-0.48465">
        <ele>87.6</ele>
        <time>2020-08-02T09:22:13Z</time>
      </trkpt>
      <trkpt lat="47.27894" lon="-0.48468">
        <ele>87.2</ele>
        <time>2020-08-02T09:22:14Z</time>
      </trkpt>
      <trkpt lat="47.27872" lon="-0.48481">
        <ele>86.4</ele>
        <time>2020-08-02T09:22:18Z</time>
      </trkpt>
      <trkpt lat="47.27853" lon="-0.48492">
        <ele>85.4</ele>
        <time>2020-08-02T09:22:21Z</time>
      </trkpt>
      <trkpt lat="47.27842" lon="-0.48499">
        <ele>84.8</ele>
        <time>2020-08-02T09:22:23Z</time>
      </trkpt>
      <trkpt lat="47.2782" lon="-0.48513">
        <ele>84</ele>
        <time>2020-08-02T09:22:26Z</time>
      </trkpt>
      <trkpt lat="47.27806" lon="-0.48522">
        <ele>83.2</ele>
        <time>2020-08-02T09:22:28Z</time>
      </trkpt>
      <trkpt lat="47.27794" lon="-0.48532">
        <ele>82.4</ele>
        <time>2020-08-02T09:22:30Z</time>
      </trkpt>
      <trkpt lat="47.27788" lon="-0.48537">
        <ele>82.2</ele>
        <time>2020-08-02T09:22:31Z</time>
      </trkpt>
      <trkpt lat="47.27781" lon="-0.48542">
        <ele>81.6</ele>
        <time>2020-08-02T09:22:32Z</time>
      </trkpt>
      <trkpt lat="47.27775" lon="-0.48547">
        <ele>81</ele>
        <time>2020-08-02T09:22:33Z</time>
      </trkpt>
      <trkpt lat="47.27769" lon="-0.48551">
        <ele>80.8</ele>
        <time>2020-08-02T09:22:34Z</time>
      </trkpt>
      <trkpt lat="47.27764" lon="-0.48554">
        <ele>80.6</ele>
        <time>2020-08-02T09:22:35Z</time>
      </trkpt>
      <trkpt lat="47.2776" lon="-0.48557">
        <ele>80.6</ele>
        <time>2020-08-02T09:22:36Z</time>
      </trkpt>
      <trkpt lat="47.27756" lon="-0.48557">
        <ele>80.4</ele>
        <time>2020-08-02T09:22:37Z</time>
      </trkpt>
      <trkpt lat="47.27752" lon="-0.48556">
        <ele>80.2</ele>
        <time>2020-08-02T09:22:38Z</time>
      </trkpt>
      <trkpt lat="47.2775" lon="-0.48555">
        <ele>80.2</ele>
        <time>2020-08-02T09:22:39Z</time>
      </trkpt>
      <trkpt lat="47.27746" lon="-0.48552">
        <ele>80.2</ele>
        <time>2020-08-02T09:22:40Z</time>
      </trkpt>
      <trkpt lat="47.27743" lon="-0.48549">
        <ele>80</ele>
        <time>2020-08-02T09:22:41Z</time>
      </trkpt>
      <trkpt lat="47.2774" lon="-0.48544">
        <ele>80</ele>
        <time>2020-08-02T09:22:42Z</time>
      </trkpt>
      <trkpt lat="47.27728" lon="-0.4853">
        <ele>80</ele>
        <time>2020-08-02T09:22:45Z</time>
      </trkpt>
      <trkpt lat="47.27719" lon="-0.48521">
        <ele>80</ele>
        <time>2020-08-02T09:22:47Z</time>
      </trkpt>
      <trkpt lat="47.27711" lon="-0.48513">
        <ele>80</ele>
        <time>2020-08-02T09:22:49Z</time>
      </trkpt>
      <trkpt lat="47.27708" lon="-0.4851">
        <ele>80</ele>
        <time>2020-08-02T09:22:50Z</time>
      </trkpt>
      <trkpt lat="47.27704" lon="-0.48507">
        <ele>80</ele>
        <time>2020-08-02T09:22:51Z</time>
      </trkpt>
      <trkpt lat="47.277" lon="-0.48505">
        <ele>80</ele>
        <time>2020-08-02T09:22:52Z</time>
      </trkpt>
      <trkpt lat="47.27697" lon="-0.48501">
        <ele>80</ele>
        <time>2020-08-02T09:22:53Z</time>
      </trkpt>
      <trkpt lat="47.27694" lon="-0.48498">
        <ele>80.2</ele>
        <time>2020-08-02T09:22:54Z</time>
      </trkpt>
      <trkpt lat="47.2769" lon="-0.48496">
        <ele>80.2</ele>
        <time>2020-08-02T09:22:55Z</time>
      </trkpt>
      <trkpt lat="47.27687" lon="-0.48493">
        <ele>80.2</ele>
        <time>2020-08-02T09:22:56Z</time>
      </trkpt>
      <trkpt lat="47.27684" lon="-0.4849">
        <ele>80.4</ele>
        <time>2020-08-02T09:22:57Z</time>
      </trkpt>
      <trkpt lat="47.27681" lon="-0.48488">
        <ele>80.4</ele>
        <time>2020-08-02T09:22:58Z</time>
      </trkpt>
      <trkpt lat="47.27679" lon="-0.48486">
        <ele>80.6</ele>
        <time>2020-08-02T09:22:59Z</time>
      </trkpt>
      <trkpt lat="47.27676" lon="-0.48484">
        <ele>80.6</ele>
        <time>2020-08-02T09:23:00Z</time>
      </trkpt>
      <trkpt lat="47.27673" lon="-0.48482">
        <ele>80.8</ele>
        <time>2020-08-02T09:23:01Z</time>
      </trkpt>
      <trkpt lat="47.2767" lon="-0.4848">
        <ele>81</ele>
        <time>2020-08-02T09:23:02Z</time>
      </trkpt>
      <trkpt lat="47.27667" lon="-0.48478">
        <ele>81.2</ele>
        <time>2020-08-02T09:23:03Z</time>
      </trkpt>
      <trkpt lat="47.27664" lon="-0.48476">
        <ele>81.2</ele>
        <time>2020-08-02T09:23:04Z</time>
      </trkpt>
      <trkpt lat="47.2766" lon="-0.48473">
        <ele>81.2</ele>
        <time>2020-08-02T09:23:05Z</time>
      </trkpt>
      <trkpt lat="47.27656" lon="-0.4847">
        <ele>81.4</ele>
        <time>2020-08-02T09:23:06Z</time>
      </trkpt>
      <trkpt lat="47.27652" lon="-0.48467">
        <ele>81.4</ele>
        <time>2020-08-02T09:23:07Z</time>
      </trkpt>
      <trkpt lat="47.27649" lon="-0.48464">
        <ele>81.6</ele>
        <time>2020-08-02T09:23:08Z</time>
      </trkpt>
      <trkpt lat="47.27646" lon="-0.4846">
        <ele>81.6</ele>
        <time>2020-08-02T09:23:09Z</time>
      </trkpt>
      <trkpt lat="47.27643" lon="-0.48455">
        <ele>81.6</ele>
        <time>2020-08-02T09:23:10Z</time>
      </trkpt>
      <trkpt lat="47.2764" lon="-0.48451">
        <ele>81.4</ele>
        <time>2020-08-02T09:23:11Z</time>
      </trkpt>
      <trkpt lat="47.27633" lon="-0.48437">
        <ele>81.4</ele>
        <time>2020-08-02T09:23:14Z</time>
      </trkpt>
      <trkpt lat="47.2763" lon="-0.48434">
        <ele>81.4</ele>
        <time>2020-08-02T09:23:15Z</time>
      </trkpt>
      <trkpt lat="47.27628" lon="-0.48433">
        <ele>81.6</ele>
        <time>2020-08-02T09:23:16Z</time>
      </trkpt>
      <trkpt lat="47.27626" lon="-0.48433">
        <ele>81.6</ele>
        <time>2020-08-02T09:23:17Z</time>
      </trkpt>
      <trkpt lat="47.27625" lon="-0.48433">
        <ele>81.8</ele>
        <time>2020-08-02T09:23:18Z</time>
      </trkpt>
      <trkpt lat="47.27625" lon="-0.48433">
        <ele>81.8</ele>
        <time>2020-08-02T09:23:19Z</time>
      </trkpt>
      <trkpt lat="47.27625" lon="-0.48433">
        <ele>82</ele>
        <time>2020-08-02T09:23:22Z</time>
      </trkpt>
      <trkpt lat="47.27625" lon="-0.48433">
        <ele>82.2</ele>
        <time>2020-08-02T09:23:32Z</time>
      </trkpt>
      <trkpt lat="47.27624" lon="-0.48435">
        <ele>82.2</ele>
        <time>2020-08-02T09:23:38Z</time>
      </trkpt>
      <trkpt lat="47.27623" lon="-0.48435">
        <ele>82.2</ele>
        <time>2020-08-02T09:23:40Z</time>
      </trkpt>
      <trkpt lat="47.27622" lon="-0.48436">
        <ele>82.2</ele>
        <time>2020-08-02T09:23:41Z</time>
      </trkpt>
      <trkpt lat="47.27621" lon="-0.48436">
        <ele>82.2</ele>
        <time>2020-08-02T09:23:44Z</time>
      </trkpt>
      <trkpt lat="47.2762" lon="-0.48437">
        <ele>82.4</ele>
        <time>2020-08-02T09:23:46Z</time>
      </trkpt>
      <trkpt lat="47.2762" lon="-0.48436">
        <ele>86.8</ele>
      </trkpt>
      <trkpt lat="47.2762" lon="-0.48437">
        <ele>82.4</ele>
        <time>2020-08-02T09:23:51Z</time>
      </trkpt>
    </trkseg>
  </trk>
</gpx>